<?xml version='1.0' encoding='UTF-8'?><gpx version="1.1" creator="JPX - https://github.com/jenetics/jpx" xmlns="http://www.topografix.com/GPX/1/1"><trk><trkseg><trkpt lat="43.9170102" lon="12.4545041"><ele>518.0</ele><time>2026-04-12T06:59:30.632Z</time></trkpt><trkpt lat="43.91706" lon="12.454421"><ele>518.0</ele><time>2026-04-12T06:59:36.621Z</time></trkpt><trkpt lat="43.9170649" lon="12.4545207"><ele>518.0</ele><time>2026-04-12T07:01:41.651Z</time></trkpt><trkpt lat="43.9169048" lon="12.4544605"><ele>518.0</ele><time>2026-04-12T07:01:46.659Z</time></trkpt><trkpt lat="43.9168269" lon="12.4544017"><ele>518.0</ele><time>2026-04-12T07:01:48.663Z</time></trkpt><trkpt lat="43.9167651" lon="12.4543512"><ele>517.8</ele><time>2026-04-12T07:01:51.649Z</time></trkpt><trkpt lat="43.9166837" lon="12.4543423"><ele>517.5999999999999</ele><time>2026-04-12T07:02:00.666Z</time></trkpt><trkpt lat="43.9166" lon="12.4543844"><ele>517.4000000000001</ele><time>2026-04-12T07:02:03.651Z</time></trkpt><trkpt lat="43.9164508" lon="12.4544218"><ele>517.2</ele><time>2026-04-12T07:02:08.632Z</time></trkpt><trkpt lat="43.9163805" lon="12.454414"><ele>517.0</ele><time>2026-04-12T07:02:10.631Z</time></trkpt><trkpt lat="43.9163127" lon="12.454396"><ele>517.0</ele><time>2026-04-12T07:02:12.635Z</time></trkpt><trkpt lat="43.9162407" lon="12.4543736"><ele>517.0</ele><time>2026-04-12T07:02:14.64Z</time></trkpt><trkpt lat="43.9161555" lon="12.454322"><ele>517.0</ele><time>2026-04-12T07:02:16.64Z</time></trkpt><trkpt lat="43.9160946" lon="12.4542955"><ele>517.0</ele><time>2026-04-12T07:02:17.639Z</time></trkpt><trkpt lat="43.9160272" lon="12.4542666"><ele>517.0</ele><time>2026-04-12T07:02:18.719Z</time></trkpt><trkpt lat="43.9159539" lon="12.4542348"><ele>517.0</ele><time>2026-04-12T07:02:19.636Z</time></trkpt><trkpt lat="43.9158807" lon="12.4541996"><ele>518.0</ele><time>2026-04-12T07:02:20.618Z</time></trkpt><trkpt lat="43.9157972" lon="12.4541608"><ele>519.0</ele><time>2026-04-12T07:02:21.679Z</time></trkpt><trkpt lat="43.9156979" lon="12.4541157"><ele>520.0</ele><time>2026-04-12T07:02:22.637Z</time></trkpt><trkpt lat="43.9156003" lon="12.4540725"><ele>521.0</ele><time>2026-04-12T07:02:23.658Z</time></trkpt><trkpt lat="43.9154946" lon="12.4540254"><ele>522.0</ele><time>2026-04-12T07:02:24.635Z</time></trkpt><trkpt lat="43.9152647" lon="12.4539148"><ele>522.0</ele><time>2026-04-12T07:02:26.642Z</time></trkpt><trkpt lat="43.9151405" lon="12.4538652"><ele>522.0</ele><time>2026-04-12T07:02:27.629Z</time></trkpt><trkpt lat="43.9150205" lon="12.4538104"><ele>522.0</ele><time>2026-04-12T07:02:28.637Z</time></trkpt><trkpt lat="43.9148975" lon="12.4537503"><ele>522.0</ele><time>2026-04-12T07:02:29.727Z</time></trkpt><trkpt lat="43.9147758" lon="12.4536827"><ele>519.5</ele><time>2026-04-12T07:02:30.628Z</time></trkpt><trkpt lat="43.9146631" lon="12.4536075"><ele>517.0</ele><time>2026-04-12T07:02:31.631Z</time></trkpt><trkpt lat="43.9145539" lon="12.4535243"><ele>514.5</ele><time>2026-04-12T07:02:32.643Z</time></trkpt><trkpt lat="43.9144398" lon="12.4534499"><ele>512.0</ele><time>2026-04-12T07:02:33.649Z</time></trkpt><trkpt lat="43.9143306" lon="12.4533695"><ele>515.5</ele><time>2026-04-12T07:02:34.644Z</time></trkpt><trkpt lat="43.9142214" lon="12.4532919"><ele>519.0</ele><time>2026-04-12T07:02:35.636Z</time></trkpt><trkpt lat="43.9141122" lon="12.4532111"><ele>522.5</ele><time>2026-04-12T07:02:36.627Z</time></trkpt><trkpt lat="43.9140035" lon="12.4531239"><ele>526.0</ele><time>2026-04-12T07:02:37.633Z</time></trkpt><trkpt lat="43.9139009" lon="12.4530424"><ele>526.0</ele><time>2026-04-12T07:02:38.643Z</time></trkpt><trkpt lat="43.9138" lon="12.4529655"><ele>526.0</ele><time>2026-04-12T07:02:39.65Z</time></trkpt><trkpt lat="43.9137122" lon="12.4528958"><ele>526.0</ele><time>2026-04-12T07:02:40.639Z</time></trkpt><trkpt lat="43.9136224" lon="12.4528255"><ele>526.0</ele><time>2026-04-12T07:02:41.627Z</time></trkpt><trkpt lat="43.9135367" lon="12.4527553"><ele>526.0</ele><time>2026-04-12T07:02:42.665Z</time></trkpt><trkpt lat="43.9134546" lon="12.4526901"><ele>524.5</ele><time>2026-04-12T07:02:43.632Z</time></trkpt><trkpt lat="43.9133638" lon="12.4526219"><ele>523.0</ele><time>2026-04-12T07:02:44.642Z</time></trkpt><trkpt lat="43.9132655" lon="12.4525588"><ele>521.5</ele><time>2026-04-12T07:02:45.633Z</time></trkpt><trkpt lat="43.9130494" lon="12.4524304"><ele>520.0</ele><time>2026-04-12T07:02:47.633Z</time></trkpt><trkpt lat="43.9129203" lon="12.452365"><ele>520.0</ele><time>2026-04-12T07:02:48.651Z</time></trkpt><trkpt lat="43.9127947" lon="12.4523172"><ele>520.0</ele><time>2026-04-12T07:02:49.621Z</time></trkpt><trkpt lat="43.9126673" lon="12.452274"><ele>520.0</ele><time>2026-04-12T07:02:50.647Z</time></trkpt><trkpt lat="43.9125428" lon="12.4522367"><ele>520.0</ele><time>2026-04-12T07:02:51.632Z</time></trkpt><trkpt lat="43.9124169" lon="12.4521947"><ele>520.75</ele><time>2026-04-12T07:02:52.649Z</time></trkpt><trkpt lat="43.9122929" lon="12.4521468"><ele>521.5</ele><time>2026-04-12T07:02:53.634Z</time></trkpt><trkpt lat="43.9121684" lon="12.4521037"><ele>522.25</ele><time>2026-04-12T07:02:54.619Z</time></trkpt><trkpt lat="43.9120373" lon="12.4520616"><ele>523.0</ele><time>2026-04-12T07:02:55.624Z</time></trkpt><trkpt lat="43.9119001" lon="12.4520217"><ele>523.0</ele><time>2026-04-12T07:02:56.651Z</time></trkpt><trkpt lat="43.9117617" lon="12.4519722"><ele>523.0</ele><time>2026-04-12T07:02:57.642Z</time></trkpt><trkpt lat="43.911621" lon="12.4519138"><ele>523.0</ele><time>2026-04-12T07:02:58.666Z</time></trkpt><trkpt lat="43.9114875" lon="12.4518632"><ele>523.0</ele><time>2026-04-12T07:02:59.636Z</time></trkpt><trkpt lat="43.9113541" lon="12.4518209"><ele>522.5</ele><time>2026-04-12T07:03:00.637Z</time></trkpt><trkpt lat="43.9112278" lon="12.4517802"><ele>522.0</ele><time>2026-04-12T07:03:01.729Z</time></trkpt><trkpt lat="43.911105" lon="12.4517364"><ele>521.5</ele><time>2026-04-12T07:03:02.64Z</time></trkpt><trkpt lat="43.9109785" lon="12.4516867"><ele>521.0</ele><time>2026-04-12T07:03:03.651Z</time></trkpt><trkpt lat="43.9108511" lon="12.4516358"><ele>519.0</ele><time>2026-04-12T07:03:04.646Z</time></trkpt><trkpt lat="43.9107262" lon="12.4515967"><ele>517.0</ele><time>2026-04-12T07:03:05.642Z</time></trkpt><trkpt lat="43.9106116" lon="12.4516076"><ele>515.0</ele><time>2026-04-12T07:03:06.649Z</time></trkpt><trkpt lat="43.9104215" lon="12.4517985"><ele>515.0</ele><time>2026-04-12T07:03:08.652Z</time></trkpt><trkpt lat="43.9103864" lon="12.4519526"><ele>515.0</ele><time>2026-04-12T07:03:09.645Z</time></trkpt><trkpt lat="43.9103862" lon="12.4521347"><ele>515.0</ele><time>2026-04-12T07:03:10.638Z</time></trkpt><trkpt lat="43.9104122" lon="12.4523379"><ele>515.0</ele><time>2026-04-12T07:03:11.64Z</time></trkpt><trkpt lat="43.910446" lon="12.4525402"><ele>514.0</ele><time>2026-04-12T07:03:12.659Z</time></trkpt><trkpt lat="43.9104985" lon="12.4527506"><ele>513.0</ele><time>2026-04-12T07:03:13.663Z</time></trkpt><trkpt lat="43.9105745" lon="12.4529726"><ele>512.0</ele><time>2026-04-12T07:03:14.633Z</time></trkpt><trkpt lat="43.9106717" lon="12.4531845"><ele>509.66666666666663</ele><time>2026-04-12T07:03:15.631Z</time></trkpt><trkpt lat="43.9107773" lon="12.4533976"><ele>507.33333333333337</ele><time>2026-04-12T07:03:16.654Z</time></trkpt><trkpt lat="43.910878" lon="12.4536191"><ele>505.0</ele><time>2026-04-12T07:03:17.645Z</time></trkpt><trkpt lat="43.9109749" lon="12.4538405"><ele>510.6666666666667</ele><time>2026-04-12T07:03:18.631Z</time></trkpt><trkpt lat="43.9110715" lon="12.4540463"><ele>516.3333333333334</ele><time>2026-04-12T07:03:19.626Z</time></trkpt><trkpt lat="43.9111601" lon="12.4542469"><ele>522.0</ele><time>2026-04-12T07:03:20.632Z</time></trkpt><trkpt lat="43.9112399" lon="12.4544434"><ele>518.75</ele><time>2026-04-12T07:03:21.644Z</time></trkpt><trkpt lat="43.9112886" lon="12.4546371"><ele>515.5</ele><time>2026-04-12T07:03:22.629Z</time></trkpt><trkpt lat="43.9113096" lon="12.454835"><ele>512.25</ele><time>2026-04-12T07:03:23.632Z</time></trkpt><trkpt lat="43.9113152" lon="12.4550423"><ele>509.0</ele><time>2026-04-12T07:03:24.623Z</time></trkpt><trkpt lat="43.9113328" lon="12.4552505"><ele>504.3333333333333</ele><time>2026-04-12T07:03:25.627Z</time></trkpt><trkpt lat="43.9113709" lon="12.4554592"><ele>499.66666666666663</ele><time>2026-04-12T07:03:26.617Z</time></trkpt><trkpt lat="43.9114227" lon="12.4556666"><ele>495.0</ele><time>2026-04-12T07:03:27.624Z</time></trkpt><trkpt lat="43.9115366" lon="12.4560601"><ele>495.0</ele><time>2026-04-12T07:03:29.633Z</time></trkpt><trkpt lat="43.9115874" lon="12.4562253"><ele>495.0</ele><time>2026-04-12T07:03:30.62Z</time></trkpt><trkpt lat="43.9116228" lon="12.4563538"><ele>495.0</ele><time>2026-04-12T07:03:31.627Z</time></trkpt><trkpt lat="43.9116361" lon="12.4564697"><ele>495.0</ele><time>2026-04-12T07:03:32.622Z</time></trkpt><trkpt lat="43.9116359" lon="12.4565992"><ele>495.0</ele><time>2026-04-12T07:03:34.636Z</time></trkpt><trkpt lat="43.9116138" lon="12.4567195"><ele>493.0</ele><time>2026-04-12T07:03:37.627Z</time></trkpt><trkpt lat="43.9115786" lon="12.4568361"><ele>491.0</ele><time>2026-04-12T07:03:38.63Z</time></trkpt><trkpt lat="43.9115275" lon="12.4569713"><ele>489.0</ele><time>2026-04-12T07:03:39.633Z</time></trkpt><trkpt lat="43.9114573" lon="12.4571194"><ele>487.0</ele><time>2026-04-12T07:03:40.654Z</time></trkpt><trkpt lat="43.911389" lon="12.4572894"><ele>487.0</ele><time>2026-04-12T07:03:41.64Z</time></trkpt><trkpt lat="43.9113287" lon="12.4574596"><ele>487.0</ele><time>2026-04-12T07:03:42.63Z</time></trkpt><trkpt lat="43.9112683" lon="12.4576238"><ele>487.0</ele><time>2026-04-12T07:03:43.66Z</time></trkpt><trkpt lat="43.9112228" lon="12.4577664"><ele>487.0</ele><time>2026-04-12T07:03:44.71Z</time></trkpt><trkpt lat="43.9111762" lon="12.4578568"><ele>487.0</ele><time>2026-04-12T07:03:45.645Z</time></trkpt><trkpt lat="43.911108" lon="12.4578833"><ele>487.0</ele><time>2026-04-12T07:03:46.646Z</time></trkpt><trkpt lat="43.9110257" lon="12.4578074"><ele>487.0</ele><time>2026-04-12T07:03:47.631Z</time></trkpt><trkpt lat="43.9109542" lon="12.4577152"><ele>487.0</ele><time>2026-04-12T07:03:48.638Z</time></trkpt><trkpt lat="43.9109974" lon="12.4574493"><ele>487.0</ele><time>2026-04-12T07:03:50.635Z</time></trkpt><trkpt lat="43.9110712" lon="12.4573134"><ele>487.0</ele><time>2026-04-12T07:03:51.646Z</time></trkpt><trkpt lat="43.9111358" lon="12.4571423"><ele>487.0</ele><time>2026-04-12T07:03:52.633Z</time></trkpt><trkpt lat="43.9112042" lon="12.4569558"><ele>487.0</ele><time>2026-04-12T07:03:53.635Z</time></trkpt><trkpt lat="43.911271" lon="12.4567601"><ele>486.5</ele><time>2026-04-12T07:03:54.727Z</time></trkpt><trkpt lat="43.9113258" lon="12.4565636"><ele>486.0</ele><time>2026-04-12T07:03:55.659Z</time></trkpt><trkpt lat="43.9113482" lon="12.4563777"><ele>485.5</ele><time>2026-04-12T07:03:56.655Z</time></trkpt><trkpt lat="43.9113305" lon="12.456197"><ele>485.0</ele><time>2026-04-12T07:03:57.641Z</time></trkpt><trkpt lat="43.9112687" lon="12.4559993"><ele>488.3333333333333</ele><time>2026-04-12T07:03:58.633Z</time></trkpt><trkpt lat="43.9111826" lon="12.455817"><ele>491.66666666666663</ele><time>2026-04-12T07:03:59.646Z</time></trkpt><trkpt lat="43.9110922" lon="12.4556397"><ele>495.0</ele><time>2026-04-12T07:04:00.634Z</time></trkpt><trkpt lat="43.9109992" lon="12.4554464"><ele>499.66666666666663</ele><time>2026-04-12T07:04:01.656Z</time></trkpt><trkpt lat="43.9109093" lon="12.4552353"><ele>504.3333333333333</ele><time>2026-04-12T07:04:02.65Z</time></trkpt><trkpt lat="43.910813" lon="12.4550143"><ele>509.0</ele><time>2026-04-12T07:04:03.661Z</time></trkpt><trkpt lat="43.9107153" lon="12.4548004"><ele>502.0</ele><time>2026-04-12T07:04:04.653Z</time></trkpt><trkpt lat="43.9106196" lon="12.454585"><ele>495.0</ele><time>2026-04-12T07:04:05.723Z</time></trkpt><trkpt lat="43.9105296" lon="12.4543719"><ele>488.0</ele><time>2026-04-12T07:04:06.624Z</time></trkpt><trkpt lat="43.9104411" lon="12.4541634"><ele>488.0</ele><time>2026-04-12T07:04:07.651Z</time></trkpt><trkpt lat="43.9103522" lon="12.453955"><ele>488.0</ele><time>2026-04-12T07:04:08.63Z</time></trkpt><trkpt lat="43.910261" lon="12.4537456"><ele>488.0</ele><time>2026-04-12T07:04:09.623Z</time></trkpt><trkpt lat="43.9100648" lon="12.4533181"><ele>484.3333333333333</ele><time>2026-04-12T07:04:11.647Z</time></trkpt><trkpt lat="43.9099581" lon="12.4531077"><ele>480.66666666666663</ele><time>2026-04-12T07:04:12.623Z</time></trkpt><trkpt lat="43.9098453" lon="12.452907"><ele>477.0</ele><time>2026-04-12T07:04:13.65Z</time></trkpt><trkpt lat="43.9097304" lon="12.4527114"><ele>477.0</ele><time>2026-04-12T07:04:14.616Z</time></trkpt><trkpt lat="43.9096196" lon="12.4525276"><ele>477.0</ele><time>2026-04-12T07:04:15.656Z</time></trkpt><trkpt lat="43.9095201" lon="12.4523509"><ele>477.0</ele><time>2026-04-12T07:04:16.644Z</time></trkpt><trkpt lat="43.9094311" lon="12.4521669"><ele>481.0</ele><time>2026-04-12T07:04:17.644Z</time></trkpt><trkpt lat="43.9093707" lon="12.4519704"><ele>485.0</ele><time>2026-04-12T07:04:18.771Z</time></trkpt><trkpt lat="43.9093029" lon="12.4515583"><ele>485.0</ele><time>2026-04-12T07:04:20.646Z</time></trkpt><trkpt lat="43.9092838" lon="12.4513494"><ele>485.0</ele><time>2026-04-12T07:04:21.64Z</time></trkpt><trkpt lat="43.9092898" lon="12.4511357"><ele>485.0</ele><time>2026-04-12T07:04:22.646Z</time></trkpt><trkpt lat="43.909318" lon="12.4509145"><ele>482.66666666666663</ele><time>2026-04-12T07:04:23.637Z</time></trkpt><trkpt lat="43.9093569" lon="12.4506882"><ele>480.33333333333337</ele><time>2026-04-12T07:04:24.618Z</time></trkpt><trkpt lat="43.9094053" lon="12.4504563"><ele>478.0</ele><time>2026-04-12T07:04:25.66Z</time></trkpt><trkpt lat="43.9094501" lon="12.4502232"><ele>477.0</ele><time>2026-04-12T07:04:26.714Z</time></trkpt><trkpt lat="43.9094783" lon="12.4499818"><ele>476.0</ele><time>2026-04-12T07:04:27.634Z</time></trkpt><trkpt lat="43.9094807" lon="12.4497411"><ele>475.0</ele><time>2026-04-12T07:04:28.64Z</time></trkpt><trkpt lat="43.9094681" lon="12.4495036"><ele>475.0</ele><time>2026-04-12T07:04:29.619Z</time></trkpt><trkpt lat="43.9094457" lon="12.4492643"><ele>475.0</ele><time>2026-04-12T07:04:30.64Z</time></trkpt><trkpt lat="43.9094038" lon="12.4487926"><ele>475.0</ele><time>2026-04-12T07:04:32.65Z</time></trkpt><trkpt lat="43.9093899" lon="12.4485844"><ele>475.0</ele><time>2026-04-12T07:04:33.647Z</time></trkpt><trkpt lat="43.9093795" lon="12.4484079"><ele>475.0</ele><time>2026-04-12T07:04:34.638Z</time></trkpt><trkpt lat="43.9093754" lon="12.4482601"><ele>475.0</ele><time>2026-04-12T07:04:35.692Z</time></trkpt><trkpt lat="43.9093561" lon="12.4481347"><ele>475.0</ele><time>2026-04-12T07:04:36.628Z</time></trkpt><trkpt lat="43.9093173" lon="12.4480325"><ele>475.0</ele><time>2026-04-12T07:04:37.669Z</time></trkpt><trkpt lat="43.9092499" lon="12.4479774"><ele>475.0</ele><time>2026-04-12T07:04:38.65Z</time></trkpt><trkpt lat="43.9091667" lon="12.447984"><ele>475.0</ele><time>2026-04-12T07:04:39.632Z</time></trkpt><trkpt lat="43.909079" lon="12.4480786"><ele>475.0</ele><time>2026-04-12T07:04:40.63Z</time></trkpt><trkpt lat="43.909037" lon="12.4482705"><ele>460.6666666666667</ele><time>2026-04-12T07:04:41.646Z</time></trkpt><trkpt lat="43.9090044" lon="12.4484905"><ele>446.33333333333337</ele><time>2026-04-12T07:04:42.63Z</time></trkpt><trkpt lat="43.9089619" lon="12.4486934"><ele>432.0</ele><time>2026-04-12T07:04:43.628Z</time></trkpt><trkpt lat="43.9089104" lon="12.4488903"><ele>431.75</ele><time>2026-04-12T07:04:44.613Z</time></trkpt><trkpt lat="43.908862" lon="12.4490765"><ele>431.5</ele><time>2026-04-12T07:04:45.609Z</time></trkpt><trkpt lat="43.9088155" lon="12.4492558"><ele>431.25</ele><time>2026-04-12T07:04:46.646Z</time></trkpt><trkpt lat="43.9087691" lon="12.4494279"><ele>431.0</ele><time>2026-04-12T07:04:47.627Z</time></trkpt><trkpt lat="43.908725" lon="12.4495841"><ele>431.75</ele><time>2026-04-12T07:04:48.665Z</time></trkpt><trkpt lat="43.9086883" lon="12.4497293"><ele>432.5</ele><time>2026-04-12T07:04:49.628Z</time></trkpt><trkpt lat="43.9086433" lon="12.4498607"><ele>433.25</ele><time>2026-04-12T07:04:50.632Z</time></trkpt><trkpt lat="43.9086031" lon="12.4499846"><ele>434.0</ele><time>2026-04-12T07:04:51.646Z</time></trkpt><trkpt lat="43.9084876" lon="12.4502063"><ele>430.0</ele><time>2026-04-12T07:04:53.631Z</time></trkpt><trkpt lat="43.9083961" lon="12.4502501"><ele>426.0</ele><time>2026-04-12T07:04:54.642Z</time></trkpt><trkpt lat="43.9082788" lon="12.4502038"><ele>422.0</ele><time>2026-04-12T07:04:55.628Z</time></trkpt><trkpt lat="43.908174" lon="12.4501341"><ele>418.0</ele><time>2026-04-12T07:04:56.657Z</time></trkpt><trkpt lat="43.9080791" lon="12.4500387"><ele>418.0</ele><time>2026-04-12T07:04:57.647Z</time></trkpt><trkpt lat="43.9080183" lon="12.4499045"><ele>418.0</ele><time>2026-04-12T07:04:58.635Z</time></trkpt><trkpt lat="43.908004" lon="12.4497566"><ele>418.0</ele><time>2026-04-12T07:04:59.634Z</time></trkpt><trkpt lat="43.9080234" lon="12.4495826"><ele>418.0</ele><time>2026-04-12T07:05:00.645Z</time></trkpt><trkpt lat="43.908064" lon="12.4493697"><ele>417.6666666666667</ele><time>2026-04-12T07:05:01.625Z</time></trkpt><trkpt lat="43.9080921" lon="12.4491395"><ele>417.33333333333337</ele><time>2026-04-12T07:05:02.636Z</time></trkpt><trkpt lat="43.9081128" lon="12.4488883"><ele>417.0</ele><time>2026-04-12T07:05:03.637Z</time></trkpt><trkpt lat="43.9081324" lon="12.4486208"><ele>415.66666666666663</ele><time>2026-04-12T07:05:04.633Z</time></trkpt><trkpt lat="43.9081554" lon="12.4483444"><ele>414.3333333333333</ele><time>2026-04-12T07:05:05.642Z</time></trkpt><trkpt lat="43.9081787" lon="12.4480719"><ele>413.0</ele><time>2026-04-12T07:05:06.638Z</time></trkpt><trkpt lat="43.9081998" lon="12.4478143"><ele>412.66666666666663</ele><time>2026-04-12T07:05:07.622Z</time></trkpt><trkpt lat="43.9082211" lon="12.447556"><ele>412.33333333333337</ele><time>2026-04-12T07:05:08.651Z</time></trkpt><trkpt lat="43.9082544" lon="12.4472995"><ele>412.0</ele><time>2026-04-12T07:05:09.636Z</time></trkpt><trkpt lat="43.9083035" lon="12.4470505"><ele>411.6666666666667</ele><time>2026-04-12T07:05:10.646Z</time></trkpt><trkpt lat="43.9083768" lon="12.4468005"><ele>411.33333333333337</ele><time>2026-04-12T07:05:11.708Z</time></trkpt><trkpt lat="43.9084836" lon="12.4465696"><ele>411.0</ele><time>2026-04-12T07:05:12.624Z</time></trkpt><trkpt lat="43.908735" lon="12.4461141"><ele>411.0</ele><time>2026-04-12T07:05:14.647Z</time></trkpt><trkpt lat="43.9088648" lon="12.4459011"><ele>411.0</ele><time>2026-04-12T07:05:15.62Z</time></trkpt><trkpt lat="43.908989" lon="12.445707"><ele>411.0</ele><time>2026-04-12T07:05:16.625Z</time></trkpt><trkpt lat="43.9090957" lon="12.4455424"><ele>407.4</ele><time>2026-04-12T07:05:17.639Z</time></trkpt><trkpt lat="43.909178" lon="12.4453987"><ele>403.8</ele><time>2026-04-12T07:05:18.631Z</time></trkpt><trkpt lat="43.9092243" lon="12.4452565"><ele>400.2</ele><time>2026-04-12T07:05:19.612Z</time></trkpt><trkpt lat="43.909219" lon="12.4451226"><ele>396.59999999999997</ele><time>2026-04-12T07:05:20.63Z</time></trkpt><trkpt lat="43.9091645" lon="12.4450147"><ele>393.0</ele><time>2026-04-12T07:05:21.621Z</time></trkpt><trkpt lat="43.9090804" lon="12.4449554"><ele>393.0</ele><time>2026-04-12T07:05:22.647Z</time></trkpt><trkpt lat="43.9089602" lon="12.4450001"><ele>393.0</ele><time>2026-04-12T07:05:23.646Z</time></trkpt><trkpt lat="43.9088414" lon="12.4451152"><ele>393.0</ele><time>2026-04-12T07:05:24.636Z</time></trkpt><trkpt lat="43.9087522" lon="12.445267"><ele>393.0</ele><time>2026-04-12T07:05:25.641Z</time></trkpt><trkpt lat="43.9086932" lon="12.4454663"><ele>391.33333333333337</ele><time>2026-04-12T07:05:26.629Z</time></trkpt><trkpt lat="43.9086097" lon="12.4456725"><ele>389.6666666666667</ele><time>2026-04-12T07:05:27.639Z</time></trkpt><trkpt lat="43.908484" lon="12.4458489"><ele>388.0</ele><time>2026-04-12T07:05:28.71Z</time></trkpt><trkpt lat="43.908334" lon="12.4460063"><ele>388.0</ele><time>2026-04-12T07:05:29.632Z</time></trkpt><trkpt lat="43.908175" lon="12.4461724"><ele>388.0</ele><time>2026-04-12T07:05:30.647Z</time></trkpt><trkpt lat="43.9080041" lon="12.4463355"><ele>388.0</ele><time>2026-04-12T07:05:31.661Z</time></trkpt><trkpt lat="43.907842" lon="12.4465101"><ele>383.5</ele><time>2026-04-12T07:05:32.629Z</time></trkpt><trkpt lat="43.9076944" lon="12.4466667"><ele>379.0</ele><time>2026-04-12T07:05:33.639Z</time></trkpt><trkpt lat="43.9074766" lon="12.4470042"><ele>380.5</ele><time>2026-04-12T07:05:35.642Z</time></trkpt><trkpt lat="43.9074176" lon="12.4471838"><ele>382.0</ele><time>2026-04-12T07:05:36.628Z</time></trkpt><trkpt lat="43.9073733" lon="12.4473511"><ele>383.5</ele><time>2026-04-12T07:05:37.647Z</time></trkpt><trkpt lat="43.9073086" lon="12.4474504"><ele>385.0</ele><time>2026-04-12T07:05:38.631Z</time></trkpt><trkpt lat="43.9072152" lon="12.4474576"><ele>385.0</ele><time>2026-04-12T07:05:39.636Z</time></trkpt><trkpt lat="43.9071076" lon="12.4473685"><ele>385.0</ele><time>2026-04-12T07:05:40.64Z</time></trkpt><trkpt lat="43.9070689" lon="12.4472232"><ele>385.0</ele><time>2026-04-12T07:05:41.63Z</time></trkpt><trkpt lat="43.9071025" lon="12.447082"><ele>385.0</ele><time>2026-04-12T07:05:42.655Z</time></trkpt><trkpt lat="43.9071437" lon="12.4468988"><ele>383.0</ele><time>2026-04-12T07:05:43.728Z</time></trkpt><trkpt lat="43.9071794" lon="12.4466991"><ele>381.0</ele><time>2026-04-12T07:05:44.629Z</time></trkpt><trkpt lat="43.9072071" lon="12.4464774"><ele>379.0</ele><time>2026-04-12T07:05:45.645Z</time></trkpt><trkpt lat="43.9072254" lon="12.4462282"><ele>378.0</ele><time>2026-04-12T07:05:46.651Z</time></trkpt><trkpt lat="43.9072362" lon="12.4459532"><ele>377.0</ele><time>2026-04-12T07:05:47.648Z</time></trkpt><trkpt lat="43.9072382" lon="12.4456602"><ele>376.0</ele><time>2026-04-12T07:05:48.662Z</time></trkpt><trkpt lat="43.9072366" lon="12.4453708"><ele>374.0</ele><time>2026-04-12T07:05:49.633Z</time></trkpt><trkpt lat="43.907237" lon="12.4450983"><ele>372.0</ele><time>2026-04-12T07:05:50.638Z</time></trkpt><trkpt lat="43.9072561" lon="12.4448386"><ele>370.0</ele><time>2026-04-12T07:05:51.635Z</time></trkpt><trkpt lat="43.9073075" lon="12.4445945"><ele>368.0</ele><time>2026-04-12T07:05:52.649Z</time></trkpt><trkpt lat="43.9073939" lon="12.4443552"><ele>366.0</ele><time>2026-04-12T07:05:53.718Z</time></trkpt><trkpt lat="43.9074979" lon="12.4441307"><ele>364.0</ele><time>2026-04-12T07:05:54.626Z</time></trkpt><trkpt lat="43.907683" lon="12.4437776"><ele>362.0</ele><time>2026-04-12T07:05:56.636Z</time></trkpt><trkpt lat="43.907738" lon="12.4436356"><ele>360.0</ele><time>2026-04-12T07:05:57.643Z</time></trkpt><trkpt lat="43.9077513" lon="12.4434961"><ele>358.0</ele><time>2026-04-12T07:05:58.646Z</time></trkpt><trkpt lat="43.907703" lon="12.4433779"><ele>356.0</ele><time>2026-04-12T07:05:59.651Z</time></trkpt><trkpt lat="43.9076112" lon="12.4433209"><ele>354.0</ele><time>2026-04-12T07:06:00.635Z</time></trkpt><trkpt lat="43.9074878" lon="12.443358"><ele>353.5</ele><time>2026-04-12T07:06:01.663Z</time></trkpt><trkpt lat="43.9073736" lon="12.4434486"><ele>353.0</ele><time>2026-04-12T07:06:02.631Z</time></trkpt><trkpt lat="43.9072755" lon="12.4435857"><ele>352.5</ele><time>2026-04-12T07:06:03.624Z</time></trkpt><trkpt lat="43.9071879" lon="12.4437779"><ele>352.0</ele><time>2026-04-12T07:06:04.636Z</time></trkpt><trkpt lat="43.9071126" lon="12.4440146"><ele>356.0</ele><time>2026-04-12T07:06:05.622Z</time></trkpt><trkpt lat="43.9070115" lon="12.4442499"><ele>360.0</ele><time>2026-04-12T07:06:06.636Z</time></trkpt><trkpt lat="43.9069132" lon="12.4444881"><ele>364.0</ele><time>2026-04-12T07:06:07.631Z</time></trkpt><trkpt lat="43.9068111" lon="12.4447193"><ele>360.66666666666663</ele><time>2026-04-12T07:06:08.648Z</time></trkpt><trkpt lat="43.9067261" lon="12.4449377"><ele>357.3333333333333</ele><time>2026-04-12T07:06:09.625Z</time></trkpt><trkpt lat="43.9066419" lon="12.4451418"><ele>354.0</ele><time>2026-04-12T07:06:10.626Z</time></trkpt><trkpt lat="43.9065606" lon="12.445322"><ele>354.0</ele><time>2026-04-12T07:06:11.658Z</time></trkpt><trkpt lat="43.9064853" lon="12.4454626"><ele>354.0</ele><time>2026-04-12T07:06:12.654Z</time></trkpt><trkpt lat="43.9064077" lon="12.4455555"><ele>354.0</ele><time>2026-04-12T07:06:13.659Z</time></trkpt><trkpt lat="43.9063163" lon="12.4456015"><ele>354.0</ele><time>2026-04-12T07:06:14.651Z</time></trkpt><trkpt lat="43.9062285" lon="12.4455388"><ele>354.0</ele><time>2026-04-12T07:06:15.711Z</time></trkpt><trkpt lat="43.9061925" lon="12.4452884"><ele>354.0</ele><time>2026-04-12T07:06:17.636Z</time></trkpt><trkpt lat="43.9062197" lon="12.4451011"><ele>354.0</ele><time>2026-04-12T07:06:18.613Z</time></trkpt><trkpt lat="43.9062453" lon="12.4448801"><ele>354.0</ele><time>2026-04-12T07:06:19.629Z</time></trkpt><trkpt lat="43.9062869" lon="12.4446508"><ele>352.0</ele><time>2026-04-12T07:06:20.64Z</time></trkpt><trkpt lat="43.9063343" lon="12.4444036"><ele>350.0</ele><time>2026-04-12T07:06:21.626Z</time></trkpt><trkpt lat="43.9063781" lon="12.4441457"><ele>348.0</ele><time>2026-04-12T07:06:22.672Z</time></trkpt><trkpt lat="43.9064178" lon="12.443895"><ele>344.6666666666667</ele><time>2026-04-12T07:06:23.652Z</time></trkpt><trkpt lat="43.9064524" lon="12.4436442"><ele>341.33333333333337</ele><time>2026-04-12T07:06:24.636Z</time></trkpt><trkpt lat="43.9064928" lon="12.4434016"><ele>338.0</ele><time>2026-04-12T07:06:25.647Z</time></trkpt><trkpt lat="43.906534" lon="12.4431612"><ele>335.0</ele><time>2026-04-12T07:06:26.663Z</time></trkpt><trkpt lat="43.9065799" lon="12.4429263"><ele>332.0</ele><time>2026-04-12T07:06:27.633Z</time></trkpt><trkpt lat="43.9066449" lon="12.4426928"><ele>329.0</ele><time>2026-04-12T07:06:28.638Z</time></trkpt><trkpt lat="43.9067289" lon="12.4424472"><ele>330.0</ele><time>2026-04-12T07:06:29.66Z</time></trkpt><trkpt lat="43.9068304" lon="12.4422182"><ele>331.0</ele><time>2026-04-12T07:06:30.627Z</time></trkpt><trkpt lat="43.9069409" lon="12.4420011"><ele>332.0</ele><time>2026-04-12T07:06:31.656Z</time></trkpt><trkpt lat="43.9070482" lon="12.4417934"><ele>332.0</ele><time>2026-04-12T07:06:32.628Z</time></trkpt><trkpt lat="43.9071396" lon="12.4415916"><ele>332.0</ele><time>2026-04-12T07:06:33.645Z</time></trkpt><trkpt lat="43.9071937" lon="12.4413662"><ele>332.0</ele><time>2026-04-12T07:06:34.653Z</time></trkpt><trkpt lat="43.9072157" lon="12.4410829"><ele>330.0</ele><time>2026-04-12T07:06:35.642Z</time></trkpt><trkpt lat="43.9072378" lon="12.4407946"><ele>328.0</ele><time>2026-04-12T07:06:36.669Z</time></trkpt><trkpt lat="43.9073084" lon="12.4402061"><ele>327.66666666666663</ele><time>2026-04-12T07:06:38.656Z</time></trkpt><trkpt lat="43.9073505" lon="12.4399095"><ele>327.3333333333333</ele><time>2026-04-12T07:06:39.645Z</time></trkpt><trkpt lat="43.9073931" lon="12.4396095"><ele>327.0</ele><time>2026-04-12T07:06:40.643Z</time></trkpt><trkpt lat="43.9074368" lon="12.4393124"><ele>323.3333333333333</ele><time>2026-04-12T07:06:41.631Z</time></trkpt><trkpt lat="43.9074736" lon="12.4390188"><ele>319.66666666666663</ele><time>2026-04-12T07:06:42.619Z</time></trkpt><trkpt lat="43.9074977" lon="12.438727"><ele>316.0</ele><time>2026-04-12T07:06:43.635Z</time></trkpt><trkpt lat="43.9074972" lon="12.4384386"><ele>314.66666666666663</ele><time>2026-04-12T07:06:44.633Z</time></trkpt><trkpt lat="43.9074865" lon="12.4381532"><ele>313.3333333333333</ele><time>2026-04-12T07:06:45.643Z</time></trkpt><trkpt lat="43.9074638" lon="12.4378872"><ele>312.0</ele><time>2026-04-12T07:06:46.65Z</time></trkpt><trkpt lat="43.9074202" lon="12.4376464"><ele>312.0</ele><time>2026-04-12T07:06:47.655Z</time></trkpt><trkpt lat="43.9073434" lon="12.4374397"><ele>312.0</ele><time>2026-04-12T07:06:48.616Z</time></trkpt><trkpt lat="43.9072285" lon="12.4372724"><ele>312.0</ele><time>2026-04-12T07:06:49.661Z</time></trkpt><trkpt lat="43.9070733" lon="12.4371501"><ele>316.0</ele><time>2026-04-12T07:06:50.713Z</time></trkpt><trkpt lat="43.9068896" lon="12.4370826"><ele>320.0</ele><time>2026-04-12T07:06:51.642Z</time></trkpt><trkpt lat="43.9066925" lon="12.4370341"><ele>324.0</ele><time>2026-04-12T07:06:52.618Z</time></trkpt><trkpt lat="43.9065018" lon="12.4369907"><ele>324.6666666666667</ele><time>2026-04-12T07:06:53.662Z</time></trkpt><trkpt lat="43.9063103" lon="12.4369274"><ele>325.33333333333337</ele><time>2026-04-12T07:06:54.636Z</time></trkpt><trkpt lat="43.9061147" lon="12.4368562"><ele>326.0</ele><time>2026-04-12T07:06:55.652Z</time></trkpt><trkpt lat="43.905916" lon="12.4367672"><ele>324.5</ele><time>2026-04-12T07:06:56.616Z</time></trkpt><trkpt lat="43.905721" lon="12.436648"><ele>323.0</ele><time>2026-04-12T07:06:57.644Z</time></trkpt><trkpt lat="43.9053676" lon="12.4362922"><ele>326.0</ele><time>2026-04-12T07:06:59.693Z</time></trkpt><trkpt lat="43.9052069" lon="12.4360909"><ele>329.0</ele><time>2026-04-12T07:07:00.674Z</time></trkpt><trkpt lat="43.9050463" lon="12.4358958"><ele>332.0</ele><time>2026-04-12T07:07:01.646Z</time></trkpt><trkpt lat="43.9048915" lon="12.4357107"><ele>332.0</ele><time>2026-04-12T07:07:02.637Z</time></trkpt><trkpt lat="43.9047373" lon="12.4355531"><ele>332.0</ele><time>2026-04-12T07:07:03.642Z</time></trkpt><trkpt lat="43.9045818" lon="12.4354246"><ele>332.0</ele><time>2026-04-12T07:07:04.626Z</time></trkpt><trkpt lat="43.9044556" lon="12.4353185"><ele>335.0</ele><time>2026-04-12T07:07:05.635Z</time></trkpt><trkpt lat="43.9043601" lon="12.4352102"><ele>338.0</ele><time>2026-04-12T07:07:06.654Z</time></trkpt><trkpt lat="43.9043099" lon="12.435102"><ele>341.0</ele><time>2026-04-12T07:07:07.628Z</time></trkpt><trkpt lat="43.9043332" lon="12.4350004"><ele>344.0</ele><time>2026-04-12T07:07:08.634Z</time></trkpt><trkpt lat="43.9044027" lon="12.4349328"><ele>347.0</ele><time>2026-04-12T07:07:09.628Z</time></trkpt><trkpt lat="43.9044964" lon="12.4349233"><ele>347.0</ele><time>2026-04-12T07:07:10.643Z</time></trkpt><trkpt lat="43.904611" lon="12.4349993"><ele>347.0</ele><time>2026-04-12T07:07:11.643Z</time></trkpt><trkpt lat="43.9047097" lon="12.435132"><ele>347.0</ele><time>2026-04-12T07:07:12.629Z</time></trkpt><trkpt lat="43.9048476" lon="12.4352476"><ele>347.0</ele><time>2026-04-12T07:07:13.63Z</time></trkpt><trkpt lat="43.90507" lon="12.4353684"><ele>348.25</ele><time>2026-04-12T07:07:14.636Z</time></trkpt><trkpt lat="43.9052537" lon="12.4354457"><ele>349.5</ele><time>2026-04-12T07:07:15.631Z</time></trkpt><trkpt lat="43.9053885" lon="12.4354589"><ele>350.75</ele><time>2026-04-12T07:07:16.634Z</time></trkpt><trkpt lat="43.9054891" lon="12.4353993"><ele>352.0</ele><time>2026-04-12T07:07:17.619Z</time></trkpt><trkpt lat="43.9055478" lon="12.4352937"><ele>352.0</ele><time>2026-04-12T07:07:18.633Z</time></trkpt><trkpt lat="43.9054519" lon="12.4350727"><ele>352.0</ele><time>2026-04-12T07:07:20.641Z</time></trkpt><trkpt lat="43.9053098" lon="12.4350037"><ele>352.0</ele><time>2026-04-12T07:07:21.626Z</time></trkpt><trkpt lat="43.9051075" lon="12.434938"><ele>349.5</ele><time>2026-04-12T07:07:22.651Z</time></trkpt><trkpt lat="43.9048799" lon="12.4348409"><ele>347.0</ele><time>2026-04-12T07:07:23.617Z</time></trkpt><trkpt lat="43.9046473" lon="12.434728"><ele>350.0</ele><time>2026-04-12T07:07:24.64Z</time></trkpt><trkpt lat="43.9044389" lon="12.434615"><ele>353.0</ele><time>2026-04-12T07:07:25.632Z</time></trkpt><trkpt lat="43.9042626" lon="12.4344939"><ele>356.0</ele><time>2026-04-12T07:07:26.631Z</time></trkpt><trkpt lat="43.904133" lon="12.4343332"><ele>356.0</ele><time>2026-04-12T07:07:27.63Z</time></trkpt><trkpt lat="43.9040221" lon="12.4341132"><ele>356.0</ele><time>2026-04-12T07:07:28.624Z</time></trkpt><trkpt lat="43.9039059" lon="12.4338403"><ele>356.0</ele><time>2026-04-12T07:07:29.625Z</time></trkpt><trkpt lat="43.9037963" lon="12.4335845"><ele>359.6666666666667</ele><time>2026-04-12T07:07:30.667Z</time></trkpt><trkpt lat="43.9036697" lon="12.4333454"><ele>363.3333333333333</ele><time>2026-04-12T07:07:31.705Z</time></trkpt><trkpt lat="43.9035381" lon="12.4331195"><ele>367.0</ele><time>2026-04-12T07:07:32.613Z</time></trkpt><trkpt lat="43.9034025" lon="12.4329078"><ele>367.0</ele><time>2026-04-12T07:07:33.623Z</time></trkpt><trkpt lat="43.9032519" lon="12.4327091"><ele>367.0</ele><time>2026-04-12T07:07:34.621Z</time></trkpt><trkpt lat="43.9030916" lon="12.4325086"><ele>367.0</ele><time>2026-04-12T07:07:35.635Z</time></trkpt><trkpt lat="43.9029438" lon="12.4323197"><ele>367.0</ele><time>2026-04-12T07:07:36.624Z</time></trkpt><trkpt lat="43.9028273" lon="12.4321558"><ele>367.0</ele><time>2026-04-12T07:07:37.656Z</time></trkpt><trkpt lat="43.9027444" lon="12.4320106"><ele>367.0</ele><time>2026-04-12T07:07:38.625Z</time></trkpt><trkpt lat="43.9027024" lon="12.4318725"><ele>367.0</ele><time>2026-04-12T07:07:39.63Z</time></trkpt><trkpt lat="43.9028084" lon="12.4316323"><ele>368.75</ele><time>2026-04-12T07:07:41.623Z</time></trkpt><trkpt lat="43.9029122" lon="12.4315743"><ele>370.5</ele><time>2026-04-12T07:07:42.631Z</time></trkpt><trkpt lat="43.9030276" lon="12.4315902"><ele>372.25</ele><time>2026-04-12T07:07:43.633Z</time></trkpt><trkpt lat="43.9031547" lon="12.4317261"><ele>374.0</ele><time>2026-04-12T07:07:44.621Z</time></trkpt><trkpt lat="43.90329" lon="12.4318653"><ele>376.33333333333337</ele><time>2026-04-12T07:07:45.617Z</time></trkpt><trkpt lat="43.9034384" lon="12.4320111"><ele>378.6666666666667</ele><time>2026-04-12T07:07:46.627Z</time></trkpt><trkpt lat="43.9035955" lon="12.4321491"><ele>381.0</ele><time>2026-04-12T07:07:47.644Z</time></trkpt><trkpt lat="43.9037564" lon="12.4322816"><ele>381.0</ele><time>2026-04-12T07:07:48.638Z</time></trkpt><trkpt lat="43.9039207" lon="12.4324295"><ele>381.0</ele><time>2026-04-12T07:07:49.647Z</time></trkpt><trkpt lat="43.9040973" lon="12.4326022"><ele>381.0</ele><time>2026-04-12T07:07:50.632Z</time></trkpt><trkpt lat="43.9042657" lon="12.4327784"><ele>380.6666666666667</ele><time>2026-04-12T07:07:51.637Z</time></trkpt><trkpt lat="43.9044255" lon="12.4329635"><ele>380.33333333333337</ele><time>2026-04-12T07:07:52.653Z</time></trkpt><trkpt lat="43.9045415" lon="12.4331718"><ele>380.0</ele><time>2026-04-12T07:07:53.631Z</time></trkpt><trkpt lat="43.9046195" lon="12.4333646"><ele>380.0</ele><time>2026-04-12T07:07:54.729Z</time></trkpt><trkpt lat="43.904706" lon="12.4334952"><ele>380.0</ele><time>2026-04-12T07:07:55.638Z</time></trkpt><trkpt lat="43.9048014" lon="12.4335416"><ele>380.0</ele><time>2026-04-12T07:07:56.626Z</time></trkpt><trkpt lat="43.9049076" lon="12.4335315"><ele>380.0</ele><time>2026-04-12T07:07:57.637Z</time></trkpt><trkpt lat="43.9049992" lon="12.4334391"><ele>380.0</ele><time>2026-04-12T07:07:58.643Z</time></trkpt><trkpt lat="43.9050442" lon="12.4332998"><ele>380.0</ele><time>2026-04-12T07:07:59.643Z</time></trkpt><trkpt lat="43.9050273" lon="12.4331413"><ele>380.0</ele><time>2026-04-12T07:08:00.641Z</time></trkpt><trkpt lat="43.9048541" lon="12.4328136"><ele>380.0</ele><time>2026-04-12T07:08:02.66Z</time></trkpt><trkpt lat="43.9047305" lon="12.4326374"><ele>384.33333333333337</ele><time>2026-04-12T07:08:03.648Z</time></trkpt><trkpt lat="43.9046062" lon="12.4324389"><ele>388.6666666666667</ele><time>2026-04-12T07:08:04.633Z</time></trkpt><trkpt lat="43.9044934" lon="12.4322498"><ele>393.0</ele><time>2026-04-12T07:08:05.635Z</time></trkpt><trkpt lat="43.9044127" lon="12.4320867"><ele>395.0</ele><time>2026-04-12T07:08:06.628Z</time></trkpt><trkpt lat="43.9043987" lon="12.4319263"><ele>397.0</ele><time>2026-04-12T07:08:07.635Z</time></trkpt><trkpt lat="43.9044223" lon="12.4317929"><ele>399.0</ele><time>2026-04-12T07:08:08.627Z</time></trkpt><trkpt lat="43.9045059" lon="12.4316948"><ele>401.0</ele><time>2026-04-12T07:08:09.639Z</time></trkpt><trkpt lat="43.9046247" lon="12.4316726"><ele>403.0</ele><time>2026-04-12T07:08:10.64Z</time></trkpt><trkpt lat="43.9047285" lon="12.4317692"><ele>403.0</ele><time>2026-04-12T07:08:11.636Z</time></trkpt><trkpt lat="43.904826" lon="12.4319512"><ele>403.0</ele><time>2026-04-12T07:08:12.62Z</time></trkpt><trkpt lat="43.9049067" lon="12.4321276"><ele>403.0</ele><time>2026-04-12T07:08:13.654Z</time></trkpt><trkpt lat="43.9050033" lon="12.432289"><ele>401.33333333333337</ele><time>2026-04-12T07:08:14.63Z</time></trkpt><trkpt lat="43.9051386" lon="12.4324238"><ele>399.66666666666663</ele><time>2026-04-12T07:08:15.631Z</time></trkpt><trkpt lat="43.905297" lon="12.4324621"><ele>398.0</ele><time>2026-04-12T07:08:16.629Z</time></trkpt><trkpt lat="43.9054688" lon="12.4324343"><ele>398.0</ele><time>2026-04-12T07:08:17.662Z</time></trkpt><trkpt lat="43.905643" lon="12.4323607"><ele>398.0</ele><time>2026-04-12T07:08:18.633Z</time></trkpt><trkpt lat="43.9058185" lon="12.4322657"><ele>398.0</ele><time>2026-04-12T07:08:19.633Z</time></trkpt><trkpt lat="43.9060021" lon="12.4321876"><ele>403.0</ele><time>2026-04-12T07:08:20.639Z</time></trkpt><trkpt lat="43.9061849" lon="12.4321162"><ele>408.0</ele><time>2026-04-12T07:08:21.663Z</time></trkpt><trkpt lat="43.9065042" lon="12.4319791"><ele>408.0</ele><time>2026-04-12T07:08:23.632Z</time></trkpt><trkpt lat="43.9065937" lon="12.4318721"><ele>408.0</ele><time>2026-04-12T07:08:24.648Z</time></trkpt><trkpt lat="43.9066451" lon="12.4317404"><ele>408.0</ele><time>2026-04-12T07:08:25.632Z</time></trkpt><trkpt lat="43.9066423" lon="12.4315223"><ele>408.0</ele><time>2026-04-12T07:08:26.645Z</time></trkpt><trkpt lat="43.9066166" lon="12.4312791"><ele>410.0</ele><time>2026-04-12T07:08:27.628Z</time></trkpt><trkpt lat="43.9065883" lon="12.4310145"><ele>412.0</ele><time>2026-04-12T07:08:28.635Z</time></trkpt><trkpt lat="43.9065716" lon="12.4307328"><ele>414.0</ele><time>2026-04-12T07:08:29.634Z</time></trkpt><trkpt lat="43.9065625" lon="12.430475"><ele>415.25</ele><time>2026-04-12T07:08:30.632Z</time></trkpt><trkpt lat="43.9065529" lon="12.4302482"><ele>416.5</ele><time>2026-04-12T07:08:31.632Z</time></trkpt><trkpt lat="43.9065483" lon="12.4300418"><ele>417.75</ele><time>2026-04-12T07:08:32.626Z</time></trkpt><trkpt lat="43.9065449" lon="12.4298594"><ele>419.0</ele><time>2026-04-12T07:08:33.619Z</time></trkpt><trkpt lat="43.9065466" lon="12.4297006"><ele>419.0</ele><time>2026-04-12T07:08:34.629Z</time></trkpt><trkpt lat="43.9065456" lon="12.4295582"><ele>419.0</ele><time>2026-04-12T07:08:35.639Z</time></trkpt><trkpt lat="43.9065339" lon="12.429424"><ele>419.0</ele><time>2026-04-12T07:08:36.63Z</time></trkpt><trkpt lat="43.9065168" lon="12.4293131"><ele>419.0</ele><time>2026-04-12T07:08:37.638Z</time></trkpt><trkpt lat="43.9064796" lon="12.4292368"><ele>419.0</ele><time>2026-04-12T07:08:38.648Z</time></trkpt><trkpt lat="43.9063261" lon="12.4292298"><ele>419.0</ele><time>2026-04-12T07:08:40.633Z</time></trkpt><trkpt lat="43.9062324" lon="12.4292292"><ele>419.0</ele><time>2026-04-12T07:08:41.673Z</time></trkpt><trkpt lat="43.9061468" lon="12.4292328"><ele>419.0</ele><time>2026-04-12T07:08:42.64Z</time></trkpt><trkpt lat="43.9059777" lon="12.429237"><ele>419.0</ele><time>2026-04-12T07:08:44.633Z</time></trkpt><trkpt lat="43.9059091" lon="12.4292005"><ele>419.0</ele><time>2026-04-12T07:08:45.631Z</time></trkpt><trkpt lat="43.9058349" lon="12.4291482"><ele>421.0</ele><time>2026-04-12T07:08:46.665Z</time></trkpt><trkpt lat="43.9057566" lon="12.4290944"><ele>423.0</ele><time>2026-04-12T07:08:47.632Z</time></trkpt><trkpt lat="43.9056871" lon="12.4290376"><ele>425.0</ele><time>2026-04-12T07:08:48.655Z</time></trkpt><trkpt lat="43.9056218" lon="12.4290046"><ele>427.0</ele><time>2026-04-12T07:08:49.657Z</time></trkpt><trkpt lat="43.9055238" lon="12.4289791"><ele>429.0</ele><time>2026-04-12T07:08:50.646Z</time></trkpt><trkpt lat="43.9054085" lon="12.4289322"><ele>429.0</ele><time>2026-04-12T07:08:51.649Z</time></trkpt><trkpt lat="43.9053012" lon="12.4288666"><ele>429.0</ele><time>2026-04-12T07:08:52.625Z</time></trkpt><trkpt lat="43.9052028" lon="12.4287688"><ele>429.0</ele><time>2026-04-12T07:08:53.64Z</time></trkpt><trkpt lat="43.9051086" lon="12.4286474"><ele>429.0</ele><time>2026-04-12T07:08:54.63Z</time></trkpt><trkpt lat="43.9050277" lon="12.4285118"><ele>431.4</ele><time>2026-04-12T07:08:55.643Z</time></trkpt><trkpt lat="43.9049725" lon="12.4283777"><ele>433.79999999999995</ele><time>2026-04-12T07:08:56.65Z</time></trkpt><trkpt lat="43.90491" lon="12.4282675"><ele>436.20000000000005</ele><time>2026-04-12T07:08:57.63Z</time></trkpt><trkpt lat="43.9048352" lon="12.4281763"><ele>438.6</ele><time>2026-04-12T07:08:58.645Z</time></trkpt><trkpt lat="43.9047528" lon="12.4281011"><ele>441.0</ele><time>2026-04-12T07:08:59.641Z</time></trkpt><trkpt lat="43.904654" lon="12.4280836"><ele>441.0</ele><time>2026-04-12T07:09:00.657Z</time></trkpt><trkpt lat="43.9045419" lon="12.4280576"><ele>441.0</ele><time>2026-04-12T07:09:01.641Z</time></trkpt><trkpt lat="43.9044356" lon="12.428014"><ele>441.0</ele><time>2026-04-12T07:09:02.639Z</time></trkpt><trkpt lat="43.9043185" lon="12.4279183"><ele>441.0</ele><time>2026-04-12T07:09:03.63Z</time></trkpt><trkpt lat="43.9041489" lon="12.4276383"><ele>445.75</ele><time>2026-04-12T07:09:05.629Z</time></trkpt><trkpt lat="43.9040916" lon="12.4274929"><ele>450.5</ele><time>2026-04-12T07:09:06.633Z</time></trkpt><trkpt lat="43.9040152" lon="12.4273554"><ele>455.25</ele><time>2026-04-12T07:09:07.642Z</time></trkpt><trkpt lat="43.903913" lon="12.4272215"><ele>460.0</ele><time>2026-04-12T07:09:08.626Z</time></trkpt><trkpt lat="43.9037988" lon="12.4270901"><ele>461.25</ele><time>2026-04-12T07:09:09.621Z</time></trkpt><trkpt lat="43.9036916" lon="12.4269526"><ele>462.5</ele><time>2026-04-12T07:09:10.634Z</time></trkpt><trkpt lat="43.9035856" lon="12.426832"><ele>463.75</ele><time>2026-04-12T07:09:11.63Z</time></trkpt><trkpt lat="43.9034869" lon="12.4267058"><ele>465.0</ele><time>2026-04-12T07:09:12.628Z</time></trkpt><trkpt lat="43.9033969" lon="12.4265764"><ele>467.5</ele><time>2026-04-12T07:09:13.639Z</time></trkpt><trkpt lat="43.9033276" lon="12.4264293"><ele>470.0</ele><time>2026-04-12T07:09:14.63Z</time></trkpt><trkpt lat="43.9032738" lon="12.4262602"><ele>472.5</ele><time>2026-04-12T07:09:15.642Z</time></trkpt><trkpt lat="43.9032436" lon="12.4260833"><ele>475.0</ele><time>2026-04-12T07:09:16.661Z</time></trkpt><trkpt lat="43.9032235" lon="12.425888"><ele>477.0</ele><time>2026-04-12T07:09:17.661Z</time></trkpt><trkpt lat="43.9032206" lon="12.4256892"><ele>479.0</ele><time>2026-04-12T07:09:18.674Z</time></trkpt><trkpt lat="43.9032089" lon="12.4255036"><ele>481.0</ele><time>2026-04-12T07:09:19.636Z</time></trkpt><trkpt lat="43.9031827" lon="12.425349"><ele>483.0</ele><time>2026-04-12T07:09:20.656Z</time></trkpt><trkpt lat="43.9031352" lon="12.4251808"><ele>483.0</ele><time>2026-04-12T07:09:21.639Z</time></trkpt><trkpt lat="43.9030687" lon="12.42501"><ele>483.0</ele><time>2026-04-12T07:09:22.724Z</time></trkpt><trkpt lat="43.9029823" lon="12.4248427"><ele>483.0</ele><time>2026-04-12T07:09:23.648Z</time></trkpt><trkpt lat="43.9028805" lon="12.4247004"><ele>483.0</ele><time>2026-04-12T07:09:24.658Z</time></trkpt><trkpt lat="43.9026165" lon="12.4244895"><ele>486.75</ele><time>2026-04-12T07:09:26.662Z</time></trkpt><trkpt lat="43.9024739" lon="12.4244122"><ele>490.5</ele><time>2026-04-12T07:09:27.637Z</time></trkpt><trkpt lat="43.9023505" lon="12.4243442"><ele>494.25</ele><time>2026-04-12T07:09:28.649Z</time></trkpt><trkpt lat="43.9022363" lon="12.4242939"><ele>498.0</ele><time>2026-04-12T07:09:29.631Z</time></trkpt><trkpt lat="43.9021211" lon="12.4242241"><ele>498.0</ele><time>2026-04-12T07:09:30.632Z</time></trkpt><trkpt lat="43.9019977" lon="12.4241831"><ele>498.0</ele><time>2026-04-12T07:09:31.635Z</time></trkpt><trkpt lat="43.9018787" lon="12.4241644"><ele>498.0</ele><time>2026-04-12T07:09:32.624Z</time></trkpt><trkpt lat="43.901766" lon="12.4241286"><ele>498.0</ele><time>2026-04-12T07:09:33.639Z</time></trkpt><trkpt lat="43.9016523" lon="12.4240585"><ele>498.25</ele><time>2026-04-12T07:09:34.626Z</time></trkpt><trkpt lat="43.9015412" lon="12.4239363"><ele>498.5</ele><time>2026-04-12T07:09:35.64Z</time></trkpt><trkpt lat="43.9014485" lon="12.4238048"><ele>498.75</ele><time>2026-04-12T07:09:36.639Z</time></trkpt><trkpt lat="43.9013724" lon="12.423669"><ele>499.0</ele><time>2026-04-12T07:09:37.652Z</time></trkpt><trkpt lat="43.9013162" lon="12.423513"><ele>500.25</ele><time>2026-04-12T07:09:38.635Z</time></trkpt><trkpt lat="43.9012798" lon="12.4233307"><ele>501.5</ele><time>2026-04-12T07:09:39.622Z</time></trkpt><trkpt lat="43.9012596" lon="12.4231329"><ele>502.75</ele><time>2026-04-12T07:09:40.64Z</time></trkpt><trkpt lat="43.9012446" lon="12.4229388"><ele>504.0</ele><time>2026-04-12T07:09:41.64Z</time></trkpt><trkpt lat="43.901224" lon="12.4227365"><ele>504.25</ele><time>2026-04-12T07:09:42.649Z</time></trkpt><trkpt lat="43.9012014" lon="12.4225354"><ele>504.5</ele><time>2026-04-12T07:09:43.639Z</time></trkpt><trkpt lat="43.9011714" lon="12.422337"><ele>504.75</ele><time>2026-04-12T07:09:44.635Z</time></trkpt><trkpt lat="43.901134" lon="12.4221295"><ele>505.0</ele><time>2026-04-12T07:09:45.633Z</time></trkpt><trkpt lat="43.9010773" lon="12.4217345"><ele>505.0</ele><time>2026-04-12T07:09:47.645Z</time></trkpt><trkpt lat="43.9010439" lon="12.4215384"><ele>505.0</ele><time>2026-04-12T07:09:48.628Z</time></trkpt><trkpt lat="43.9010013" lon="12.4213479"><ele>505.0</ele><time>2026-04-12T07:09:49.622Z</time></trkpt><trkpt lat="43.9009527" lon="12.4211841"><ele>505.0</ele><time>2026-04-12T07:09:50.64Z</time></trkpt><trkpt lat="43.9009141" lon="12.4210421"><ele>505.25</ele><time>2026-04-12T07:09:51.722Z</time></trkpt><trkpt lat="43.9008234" lon="12.4207645"><ele>505.5</ele><time>2026-04-12T07:09:53.636Z</time></trkpt><trkpt lat="43.9007845" lon="12.4206469"><ele>505.75</ele><time>2026-04-12T07:09:54.639Z</time></trkpt><trkpt lat="43.9007531" lon="12.4205393"><ele>506.0</ele><time>2026-04-12T07:09:55.631Z</time></trkpt><trkpt lat="43.9007262" lon="12.4204533"><ele>506.0</ele><time>2026-04-12T07:09:56.634Z</time></trkpt><trkpt lat="43.9006821" lon="12.4202952"><ele>506.0</ele><time>2026-04-12T07:09:58.63Z</time></trkpt><trkpt lat="43.900659" lon="12.4201821"><ele>506.0</ele><time>2026-04-12T07:10:00.631Z</time></trkpt><trkpt lat="43.9005943" lon="12.4201191"><ele>506.0</ele><time>2026-04-12T07:10:02.626Z</time></trkpt><trkpt lat="43.9004833" lon="12.4200307"><ele>506.0</ele><time>2026-04-12T07:10:04.634Z</time></trkpt><trkpt lat="43.9004093" lon="12.4199597"><ele>506.0</ele><time>2026-04-12T07:10:05.64Z</time></trkpt><trkpt lat="43.9003311" lon="12.4198873"><ele>506.0</ele><time>2026-04-12T07:10:06.632Z</time></trkpt><trkpt lat="43.9001612" lon="12.4197678"><ele>506.0</ele><time>2026-04-12T07:10:08.62Z</time></trkpt><trkpt lat="43.9000809" lon="12.4197041"><ele>506.0</ele><time>2026-04-12T07:10:09.651Z</time></trkpt><trkpt lat="43.9000025" lon="12.4196384"><ele>507.20000000000005</ele><time>2026-04-12T07:10:10.629Z</time></trkpt><trkpt lat="43.8999228" lon="12.4195742"><ele>508.40000000000003</ele><time>2026-04-12T07:10:11.625Z</time></trkpt><trkpt lat="43.8998433" lon="12.4195117"><ele>509.6</ele><time>2026-04-12T07:10:12.643Z</time></trkpt><trkpt lat="43.8997656" lon="12.4194499"><ele>510.8</ele><time>2026-04-12T07:10:13.637Z</time></trkpt><trkpt lat="43.8996903" lon="12.4193878"><ele>512.0</ele><time>2026-04-12T07:10:14.633Z</time></trkpt><trkpt lat="43.8996061" lon="12.4193161"><ele>512.0</ele><time>2026-04-12T07:10:15.632Z</time></trkpt><trkpt lat="43.8995139" lon="12.4192451"><ele>512.0</ele><time>2026-04-12T07:10:16.626Z</time></trkpt><trkpt lat="43.8994235" lon="12.4191755"><ele>512.0</ele><time>2026-04-12T07:10:17.652Z</time></trkpt><trkpt lat="43.8993423" lon="12.4191016"><ele>512.0</ele><time>2026-04-12T07:10:18.624Z</time></trkpt><trkpt lat="43.8992637" lon="12.4190328"><ele>512.0</ele><time>2026-04-12T07:10:19.643Z</time></trkpt><trkpt lat="43.8991886" lon="12.4189731"><ele>512.6</ele><time>2026-04-12T07:10:20.63Z</time></trkpt><trkpt lat="43.8991101" lon="12.4189109"><ele>513.2</ele><time>2026-04-12T07:10:21.627Z</time></trkpt><trkpt lat="43.8990344" lon="12.4188458"><ele>513.8</ele><time>2026-04-12T07:10:22.634Z</time></trkpt><trkpt lat="43.8989494" lon="12.4187678"><ele>514.4</ele><time>2026-04-12T07:10:23.627Z</time></trkpt><trkpt lat="43.8988634" lon="12.4186898"><ele>515.0</ele><time>2026-04-12T07:10:24.634Z</time></trkpt><trkpt lat="43.8987656" lon="12.4185964"><ele>517.0</ele><time>2026-04-12T07:10:25.637Z</time></trkpt><trkpt lat="43.8986685" lon="12.4185011"><ele>519.0</ele><time>2026-04-12T07:10:26.745Z</time></trkpt><trkpt lat="43.8985176" lon="12.4183542"><ele>521.0</ele><time>2026-04-12T07:10:28.636Z</time></trkpt><trkpt lat="43.8983833" lon="12.4182299"><ele>521.0</ele><time>2026-04-12T07:10:30.629Z</time></trkpt><trkpt lat="43.8983236" lon="12.4181905"><ele>521.0</ele><time>2026-04-12T07:10:31.648Z</time></trkpt><trkpt lat="43.8982277" lon="12.4181658"><ele>521.0</ele><time>2026-04-12T07:10:33.619Z</time></trkpt><trkpt lat="43.8981484" lon="12.4181392"><ele>521.0</ele><time>2026-04-12T07:10:35.626Z</time></trkpt><trkpt lat="43.8980896" lon="12.4179797"><ele>521.0</ele><time>2026-04-12T07:10:37.63Z</time></trkpt><trkpt lat="43.898078" lon="12.4178893"><ele>521.0</ele><time>2026-04-12T07:10:38.629Z</time></trkpt><trkpt lat="43.8980658" lon="12.417772"><ele>520.1666666666666</ele><time>2026-04-12T07:10:40.637Z</time></trkpt><trkpt lat="43.8979948" lon="12.4177288"><ele>519.3333333333333</ele><time>2026-04-12T07:10:43.632Z</time></trkpt><trkpt lat="43.8979267" lon="12.4177472"><ele>518.5</ele><time>2026-04-12T07:10:44.627Z</time></trkpt><trkpt lat="43.8978455" lon="12.417797"><ele>517.6666666666666</ele><time>2026-04-12T07:10:45.63Z</time></trkpt><trkpt lat="43.8977602" lon="12.4178531"><ele>516.8333333333334</ele><time>2026-04-12T07:10:46.634Z</time></trkpt><trkpt lat="43.8976797" lon="12.4179009"><ele>516.0</ele><time>2026-04-12T07:10:47.628Z</time></trkpt><trkpt lat="43.8975965" lon="12.4179561"><ele>517.75</ele><time>2026-04-12T07:10:48.647Z</time></trkpt><trkpt lat="43.8975118" lon="12.4180154"><ele>519.5</ele><time>2026-04-12T07:10:49.641Z</time></trkpt><trkpt lat="43.8973275" lon="12.4181343"><ele>521.25</ele><time>2026-04-12T07:10:51.623Z</time></trkpt><trkpt lat="43.8972257" lon="12.418198"><ele>523.0</ele><time>2026-04-12T07:10:52.719Z</time></trkpt><trkpt lat="43.8971238" lon="12.4182621"><ele>523.0</ele><time>2026-04-12T07:10:53.638Z</time></trkpt><trkpt lat="43.8970265" lon="12.4183191"><ele>523.0</ele><time>2026-04-12T07:10:54.633Z</time></trkpt><trkpt lat="43.8969296" lon="12.4183572"><ele>523.0</ele><time>2026-04-12T07:10:55.639Z</time></trkpt><trkpt lat="43.8968284" lon="12.4183738"><ele>523.0</ele><time>2026-04-12T07:10:56.632Z</time></trkpt><trkpt lat="43.896723" lon="12.418368"><ele>523.0</ele><time>2026-04-12T07:10:57.647Z</time></trkpt><trkpt lat="43.8966216" lon="12.4183486"><ele>523.4285714285713</ele><time>2026-04-12T07:10:58.624Z</time></trkpt><trkpt lat="43.8965316" lon="12.4183169"><ele>523.8571428571429</ele><time>2026-04-12T07:10:59.649Z</time></trkpt><trkpt lat="43.8964608" lon="12.4182656"><ele>524.2857142857142</ele><time>2026-04-12T07:11:00.637Z</time></trkpt><trkpt lat="43.8964052" lon="12.4182006"><ele>524.7142857142857</ele><time>2026-04-12T07:11:01.638Z</time></trkpt><trkpt lat="43.8963643" lon="12.4181296"><ele>525.1428571428571</ele><time>2026-04-12T07:11:02.666Z</time></trkpt><trkpt lat="43.8963405" lon="12.4180474"><ele>525.5714285714286</ele><time>2026-04-12T07:11:03.621Z</time></trkpt><trkpt lat="43.8963188" lon="12.4179632"><ele>526.0</ele><time>2026-04-12T07:11:04.629Z</time></trkpt><trkpt lat="43.8962798" lon="12.4178063"><ele>523.5</ele><time>2026-04-12T07:11:06.632Z</time></trkpt><trkpt lat="43.8962531" lon="12.4176723"><ele>521.0</ele><time>2026-04-12T07:11:08.64Z</time></trkpt><trkpt lat="43.8962204" lon="12.4175336"><ele>518.5</ele><time>2026-04-12T07:11:10.645Z</time></trkpt><trkpt lat="43.8961228" lon="12.4173246"><ele>516.0</ele><time>2026-04-12T07:11:14.707Z</time></trkpt><trkpt lat="43.8960614" lon="12.4172638"><ele>516.0</ele><time>2026-04-12T07:11:16.654Z</time></trkpt><trkpt lat="43.8959959" lon="12.4172627"><ele>516.0</ele><time>2026-04-12T07:11:18.839Z</time></trkpt><trkpt lat="43.8959288" lon="12.4172407"><ele>516.0</ele><time>2026-04-12T07:11:21.654Z</time></trkpt><trkpt lat="43.8958292" lon="12.4172757"><ele>516.0</ele><time>2026-04-12T07:11:28.648Z</time></trkpt><trkpt lat="43.895747" lon="12.4173044"><ele>516.0</ele><time>2026-04-12T07:11:29.647Z</time></trkpt><trkpt lat="43.895651" lon="12.4173449"><ele>516.0</ele><time>2026-04-12T07:11:30.668Z</time></trkpt><trkpt lat="43.8955389" lon="12.4173693"><ele>515.0</ele><time>2026-04-12T07:11:31.648Z</time></trkpt><trkpt lat="43.8952832" lon="12.4172922"><ele>514.0</ele><time>2026-04-12T07:11:33.662Z</time></trkpt><trkpt lat="43.8951553" lon="12.4172285"><ele>513.0</ele><time>2026-04-12T07:11:34.662Z</time></trkpt><trkpt lat="43.8950289" lon="12.4171477"><ele>513.0</ele><time>2026-04-12T07:11:35.673Z</time></trkpt><trkpt lat="43.8949022" lon="12.417055"><ele>513.0</ele><time>2026-04-12T07:11:36.664Z</time></trkpt><trkpt lat="43.8947819" lon="12.4169622"><ele>513.0</ele><time>2026-04-12T07:11:37.651Z</time></trkpt><trkpt lat="43.8946634" lon="12.4168621"><ele>513.0</ele><time>2026-04-12T07:11:38.661Z</time></trkpt><trkpt lat="43.894559" lon="12.4167271"><ele>513.0</ele><time>2026-04-12T07:11:39.642Z</time></trkpt><trkpt lat="43.894459" lon="12.4165569"><ele>513.0</ele><time>2026-04-12T07:11:40.638Z</time></trkpt><trkpt lat="43.8943552" lon="12.4163943"><ele>513.0</ele><time>2026-04-12T07:11:41.633Z</time></trkpt><trkpt lat="43.8942453" lon="12.4162399"><ele>513.3333333333334</ele><time>2026-04-12T07:11:42.632Z</time></trkpt><trkpt lat="43.8941226" lon="12.4160845"><ele>513.6666666666667</ele><time>2026-04-12T07:11:43.637Z</time></trkpt><trkpt lat="43.8939985" lon="12.4159278"><ele>514.0</ele><time>2026-04-12T07:11:44.644Z</time></trkpt><trkpt lat="43.8938841" lon="12.4157638"><ele>514.0</ele><time>2026-04-12T07:11:45.635Z</time></trkpt><trkpt lat="43.8937726" lon="12.4156135"><ele>514.0</ele><time>2026-04-12T07:11:46.641Z</time></trkpt><trkpt lat="43.8936505" lon="12.4154782"><ele>514.0</ele><time>2026-04-12T07:11:47.626Z</time></trkpt><trkpt lat="43.8935156" lon="12.4153382"><ele>513.6666666666667</ele><time>2026-04-12T07:11:48.625Z</time></trkpt><trkpt lat="43.8933893" lon="12.4151903"><ele>513.3333333333334</ele><time>2026-04-12T07:11:49.638Z</time></trkpt><trkpt lat="43.8932745" lon="12.4150295"><ele>513.0</ele><time>2026-04-12T07:11:50.637Z</time></trkpt><trkpt lat="43.8931722" lon="12.41486"><ele>513.0</ele><time>2026-04-12T07:11:51.624Z</time></trkpt><trkpt lat="43.8930616" lon="12.4146995"><ele>513.0</ele><time>2026-04-12T07:11:52.625Z</time></trkpt><trkpt lat="43.8928061" lon="12.4143957"><ele>512.6666666666666</ele><time>2026-04-12T07:11:54.634Z</time></trkpt><trkpt lat="43.8926818" lon="12.4142443"><ele>512.3333333333333</ele><time>2026-04-12T07:11:55.627Z</time></trkpt><trkpt lat="43.8925737" lon="12.4140888"><ele>512.0</ele><time>2026-04-12T07:11:56.631Z</time></trkpt><trkpt lat="43.8924781" lon="12.4139521"><ele>512.0</ele><time>2026-04-12T07:11:57.641Z</time></trkpt><trkpt lat="43.8923909" lon="12.4138573"><ele>512.0</ele><time>2026-04-12T07:11:58.629Z</time></trkpt><trkpt lat="43.8923033" lon="12.413795"><ele>512.0</ele><time>2026-04-12T07:11:59.626Z</time></trkpt><trkpt lat="43.8921984" lon="12.4137651"><ele>512.0</ele><time>2026-04-12T07:12:00.625Z</time></trkpt><trkpt lat="43.8920673" lon="12.4137513"><ele>512.0</ele><time>2026-04-12T07:12:01.729Z</time></trkpt><trkpt lat="43.8919385" lon="12.4137636"><ele>510.40000000000003</ele><time>2026-04-12T07:12:02.634Z</time></trkpt><trkpt lat="43.8918236" lon="12.4137743"><ele>508.80000000000007</ele><time>2026-04-12T07:12:03.641Z</time></trkpt><trkpt lat="43.8917218" lon="12.4137699"><ele>507.2</ele><time>2026-04-12T07:12:04.63Z</time></trkpt><trkpt lat="43.8916469" lon="12.4137157"><ele>505.6</ele><time>2026-04-12T07:12:05.629Z</time></trkpt><trkpt lat="43.8915844" lon="12.413644"><ele>504.0</ele><time>2026-04-12T07:12:06.624Z</time></trkpt><trkpt lat="43.8915705" lon="12.4135145"><ele>504.0</ele><time>2026-04-12T07:12:07.622Z</time></trkpt><trkpt lat="43.8915758" lon="12.4133882"><ele>504.0</ele><time>2026-04-12T07:12:08.613Z</time></trkpt><trkpt lat="43.8916005" lon="12.4132744"><ele>504.0</ele><time>2026-04-12T07:12:09.63Z</time></trkpt><trkpt lat="43.8915865" lon="12.4131716"><ele>504.0</ele><time>2026-04-12T07:12:10.634Z</time></trkpt><trkpt lat="43.8915402" lon="12.4130684"><ele>504.0</ele><time>2026-04-12T07:12:11.624Z</time></trkpt><trkpt lat="43.8914788" lon="12.4129487"><ele>504.0</ele><time>2026-04-12T07:12:12.72Z</time></trkpt><trkpt lat="43.8914079" lon="12.4128206"><ele>503.33333333333337</ele><time>2026-04-12T07:12:13.624Z</time></trkpt><trkpt lat="43.8912346" lon="12.412615"><ele>502.6666666666667</ele><time>2026-04-12T07:12:15.632Z</time></trkpt><trkpt lat="43.8911291" lon="12.4125341"><ele>502.0</ele><time>2026-04-12T07:12:16.642Z</time></trkpt><trkpt lat="43.891021" lon="12.4124635"><ele>500.0</ele><time>2026-04-12T07:12:17.621Z</time></trkpt><trkpt lat="43.8909199" lon="12.4124012"><ele>498.00000000000006</ele><time>2026-04-12T07:12:18.654Z</time></trkpt><trkpt lat="43.8908211" lon="12.4123647"><ele>496.00000000000006</ele><time>2026-04-12T07:12:19.636Z</time></trkpt><trkpt lat="43.8907267" lon="12.4123852"><ele>494.0</ele><time>2026-04-12T07:12:20.631Z</time></trkpt><trkpt lat="43.8906375" lon="12.4124556"><ele>492.0</ele><time>2026-04-12T07:12:21.657Z</time></trkpt><trkpt lat="43.8905327" lon="12.4125503"><ele>492.0</ele><time>2026-04-12T07:12:22.627Z</time></trkpt><trkpt lat="43.8904221" lon="12.412671"><ele>492.0</ele><time>2026-04-12T07:12:23.74Z</time></trkpt><trkpt lat="43.8902941" lon="12.4128012"><ele>492.0</ele><time>2026-04-12T07:12:24.666Z</time></trkpt><trkpt lat="43.8901558" lon="12.4129361"><ele>489.5</ele><time>2026-04-12T07:12:25.713Z</time></trkpt><trkpt lat="43.8900277" lon="12.4130627"><ele>487.0</ele><time>2026-04-12T07:12:26.641Z</time></trkpt><trkpt lat="43.8899062" lon="12.413172"><ele>484.5</ele><time>2026-04-12T07:12:27.652Z</time></trkpt><trkpt lat="43.8897886" lon="12.4132629"><ele>482.0</ele><time>2026-04-12T07:12:28.629Z</time></trkpt><trkpt lat="43.8896857" lon="12.4133579"><ele>482.0</ele><time>2026-04-12T07:12:29.647Z</time></trkpt><trkpt lat="43.8895929" lon="12.4134567"><ele>482.0</ele><time>2026-04-12T07:12:30.629Z</time></trkpt><trkpt lat="43.889535" lon="12.4135802"><ele>482.0</ele><time>2026-04-12T07:12:31.669Z</time></trkpt><trkpt lat="43.8894977" lon="12.4137108"><ele>482.0</ele><time>2026-04-12T07:12:32.643Z</time></trkpt><trkpt lat="43.8894758" lon="12.413882"><ele>483.5</ele><time>2026-04-12T07:12:33.63Z</time></trkpt><trkpt lat="43.8894514" lon="12.4140956"><ele>485.0</ele><time>2026-04-12T07:12:34.642Z</time></trkpt><trkpt lat="43.8893503" lon="12.414538"><ele>484.25</ele><time>2026-04-12T07:12:36.645Z</time></trkpt><trkpt lat="43.8892741" lon="12.4147063"><ele>483.5</ele><time>2026-04-12T07:12:37.637Z</time></trkpt><trkpt lat="43.8891949" lon="12.4148717"><ele>482.75</ele><time>2026-04-12T07:12:38.636Z</time></trkpt><trkpt lat="43.8890903" lon="12.4149919"><ele>482.0</ele><time>2026-04-12T07:12:39.662Z</time></trkpt><trkpt lat="43.8889804" lon="12.4150902"><ele>482.0</ele><time>2026-04-12T07:12:40.638Z</time></trkpt><trkpt lat="43.888848" lon="12.4151202"><ele>482.0</ele><time>2026-04-12T07:12:41.661Z</time></trkpt><trkpt lat="43.8886875" lon="12.4151513"><ele>482.0</ele><time>2026-04-12T07:12:42.637Z</time></trkpt><trkpt lat="43.8885102" lon="12.4151876"><ele>479.25</ele><time>2026-04-12T07:12:43.671Z</time></trkpt><trkpt lat="43.8883525" lon="12.4152447"><ele>476.5</ele><time>2026-04-12T07:12:44.738Z</time></trkpt><trkpt lat="43.8882127" lon="12.4152964"><ele>473.75</ele><time>2026-04-12T07:12:45.641Z</time></trkpt><trkpt lat="43.8880825" lon="12.4153137"><ele>471.0</ele><time>2026-04-12T07:12:46.633Z</time></trkpt><trkpt lat="43.8879717" lon="12.4152993"><ele>471.0</ele><time>2026-04-12T07:12:47.625Z</time></trkpt><trkpt lat="43.8878776" lon="12.4152292"><ele>471.0</ele><time>2026-04-12T07:12:48.629Z</time></trkpt><trkpt lat="43.8878135" lon="12.4151219"><ele>471.0</ele><time>2026-04-12T07:12:49.658Z</time></trkpt><trkpt lat="43.8877489" lon="12.4149892"><ele>471.0</ele><time>2026-04-12T07:12:50.638Z</time></trkpt><trkpt lat="43.8876739" lon="12.414893"><ele>471.0</ele><time>2026-04-12T07:12:51.656Z</time></trkpt><trkpt lat="43.887569" lon="12.414841"><ele>469.75</ele><time>2026-04-12T07:12:52.639Z</time></trkpt><trkpt lat="43.8874425" lon="12.4148141"><ele>468.5</ele><time>2026-04-12T07:12:53.653Z</time></trkpt><trkpt lat="43.887325" lon="12.4147595"><ele>467.25</ele><time>2026-04-12T07:12:54.638Z</time></trkpt><trkpt lat="43.8872319" lon="12.4146793"><ele>466.0</ele><time>2026-04-12T07:12:55.718Z</time></trkpt><trkpt lat="43.8871013" lon="12.4144379"><ele>464.25</ele><time>2026-04-12T07:12:57.631Z</time></trkpt><trkpt lat="43.8870236" lon="12.4143154"><ele>462.5</ele><time>2026-04-12T07:12:58.66Z</time></trkpt><trkpt lat="43.8869281" lon="12.4141925"><ele>460.75</ele><time>2026-04-12T07:12:59.644Z</time></trkpt><trkpt lat="43.8868238" lon="12.414087"><ele>459.0</ele><time>2026-04-12T07:13:00.655Z</time></trkpt><trkpt lat="43.8867197" lon="12.4139723"><ele>459.0</ele><time>2026-04-12T07:13:01.641Z</time></trkpt><trkpt lat="43.8866095" lon="12.413851"><ele>459.0</ele><time>2026-04-12T07:13:02.649Z</time></trkpt><trkpt lat="43.8864922" lon="12.4137291"><ele>459.0</ele><time>2026-04-12T07:13:03.637Z</time></trkpt><trkpt lat="43.8863739" lon="12.4136126"><ele>459.0</ele><time>2026-04-12T07:13:04.644Z</time></trkpt><trkpt lat="43.8862366" lon="12.413492"><ele>457.0</ele><time>2026-04-12T07:13:05.655Z</time></trkpt><trkpt lat="43.8860908" lon="12.4133881"><ele>455.0</ele><time>2026-04-12T07:13:06.714Z</time></trkpt><trkpt lat="43.8859527" lon="12.4133044"><ele>453.0</ele><time>2026-04-12T07:13:07.659Z</time></trkpt><trkpt lat="43.8858317" lon="12.4132072"><ele>453.0</ele><time>2026-04-12T07:13:08.632Z</time></trkpt><trkpt lat="43.8857332" lon="12.4130791"><ele>453.0</ele><time>2026-04-12T07:13:09.63Z</time></trkpt><trkpt lat="43.885653" lon="12.4129297"><ele>453.0</ele><time>2026-04-12T07:13:10.635Z</time></trkpt><trkpt lat="43.8855757" lon="12.4127782"><ele>453.0</ele><time>2026-04-12T07:13:11.636Z</time></trkpt><trkpt lat="43.8855063" lon="12.4126477"><ele>452.25</ele><time>2026-04-12T07:13:12.65Z</time></trkpt><trkpt lat="43.8854311" lon="12.4125253"><ele>451.5</ele><time>2026-04-12T07:13:13.623Z</time></trkpt><trkpt lat="43.8853463" lon="12.4123887"><ele>450.75</ele><time>2026-04-12T07:13:14.659Z</time></trkpt><trkpt lat="43.8852606" lon="12.4122406"><ele>450.0</ele><time>2026-04-12T07:13:15.632Z</time></trkpt><trkpt lat="43.8851741" lon="12.4120906"><ele>449.75</ele><time>2026-04-12T07:13:16.648Z</time></trkpt><trkpt lat="43.8850097" lon="12.4118344"><ele>449.5</ele><time>2026-04-12T07:13:18.634Z</time></trkpt><trkpt lat="43.8849471" lon="12.4117293"><ele>449.25</ele><time>2026-04-12T07:13:19.641Z</time></trkpt><trkpt lat="43.8849044" lon="12.4115994"><ele>449.0</ele><time>2026-04-12T07:13:20.631Z</time></trkpt><trkpt lat="43.8848688" lon="12.4114387"><ele>446.5</ele><time>2026-04-12T07:13:21.651Z</time></trkpt><trkpt lat="43.8848305" lon="12.411267"><ele>444.0</ele><time>2026-04-12T07:13:22.645Z</time></trkpt><trkpt lat="43.8847696" lon="12.4111049"><ele>441.5</ele><time>2026-04-12T07:13:23.643Z</time></trkpt><trkpt lat="43.8847022" lon="12.41096"><ele>439.0</ele><time>2026-04-12T07:13:24.646Z</time></trkpt><trkpt lat="43.8846665" lon="12.4108119"><ele>439.0</ele><time>2026-04-12T07:13:25.653Z</time></trkpt><trkpt lat="43.88466" lon="12.410655"><ele>439.0</ele><time>2026-04-12T07:13:26.664Z</time></trkpt><trkpt lat="43.8846715" lon="12.4104955"><ele>439.0</ele><time>2026-04-12T07:13:27.65Z</time></trkpt><trkpt lat="43.8847038" lon="12.4103334"><ele>439.0</ele><time>2026-04-12T07:13:28.655Z</time></trkpt><trkpt lat="43.884755" lon="12.4101981"><ele>437.6</ele><time>2026-04-12T07:13:29.647Z</time></trkpt><trkpt lat="43.8847879" lon="12.4100539"><ele>436.2</ele><time>2026-04-12T07:13:30.645Z</time></trkpt><trkpt lat="43.8847916" lon="12.409907"><ele>434.80000000000007</ele><time>2026-04-12T07:13:31.642Z</time></trkpt><trkpt lat="43.8847679" lon="12.4097653"><ele>433.40000000000003</ele><time>2026-04-12T07:13:32.667Z</time></trkpt><trkpt lat="43.8847077" lon="12.4096403"><ele>432.0</ele><time>2026-04-12T07:13:33.658Z</time></trkpt><trkpt lat="43.8846016" lon="12.4095449"><ele>429.25</ele><time>2026-04-12T07:13:34.661Z</time></trkpt><trkpt lat="43.8844742" lon="12.4094832"><ele>426.5</ele><time>2026-04-12T07:13:35.685Z</time></trkpt><trkpt lat="43.8843408" lon="12.4094439"><ele>423.75</ele><time>2026-04-12T07:13:36.633Z</time></trkpt><trkpt lat="43.8842097" lon="12.4093963"><ele>421.0</ele><time>2026-04-12T07:13:37.65Z</time></trkpt><trkpt lat="43.8839653" lon="12.4092567"><ele>421.0</ele><time>2026-04-12T07:13:39.658Z</time></trkpt><trkpt lat="43.8838433" lon="12.4091854"><ele>421.0</ele><time>2026-04-12T07:13:40.66Z</time></trkpt><trkpt lat="43.8837234" lon="12.4091156"><ele>421.0</ele><time>2026-04-12T07:13:41.634Z</time></trkpt><trkpt lat="43.8836124" lon="12.4090693"><ele>421.0</ele><time>2026-04-12T07:13:42.65Z</time></trkpt><trkpt lat="43.8835008" lon="12.4090227"><ele>419.5</ele><time>2026-04-12T07:13:43.648Z</time></trkpt><trkpt lat="43.8833811" lon="12.4089861"><ele>418.0</ele><time>2026-04-12T07:13:44.645Z</time></trkpt><trkpt lat="43.8832443" lon="12.4089556"><ele>416.5</ele><time>2026-04-12T07:13:45.648Z</time></trkpt><trkpt lat="43.8830935" lon="12.40893"><ele>415.0</ele><time>2026-04-12T07:13:46.656Z</time></trkpt><trkpt lat="43.882942" lon="12.40891"><ele>415.0</ele><time>2026-04-12T07:13:47.647Z</time></trkpt><trkpt lat="43.8828062" lon="12.4088956"><ele>415.0</ele><time>2026-04-12T07:13:48.644Z</time></trkpt><trkpt lat="43.8826843" lon="12.4088813"><ele>415.0</ele><time>2026-04-12T07:13:49.643Z</time></trkpt><trkpt lat="43.8825787" lon="12.4088764"><ele>415.0</ele><time>2026-04-12T07:13:50.648Z</time></trkpt><trkpt lat="43.8824824" lon="12.408871"><ele>414.33333333333337</ele><time>2026-04-12T07:13:51.64Z</time></trkpt><trkpt lat="43.8824015" lon="12.4088408"><ele>413.6666666666667</ele><time>2026-04-12T07:13:52.684Z</time></trkpt><trkpt lat="43.8823527" lon="12.4087706"><ele>413.0</ele><time>2026-04-12T07:13:53.626Z</time></trkpt><trkpt lat="43.8823986" lon="12.4086192"><ele>412.33333333333337</ele><time>2026-04-12T07:13:55.648Z</time></trkpt><trkpt lat="43.8824616" lon="12.4085458"><ele>411.6666666666667</ele><time>2026-04-12T07:13:56.636Z</time></trkpt><trkpt lat="43.8825333" lon="12.408476"><ele>411.0</ele><time>2026-04-12T07:13:57.641Z</time></trkpt><trkpt lat="43.8826118" lon="12.4084094"><ele>408.5</ele><time>2026-04-12T07:13:58.661Z</time></trkpt><trkpt lat="43.8827563" lon="12.4082292"><ele>406.0</ele><time>2026-04-12T07:14:00.666Z</time></trkpt><trkpt lat="43.8828043" lon="12.4081033"><ele>403.5</ele><time>2026-04-12T07:14:01.649Z</time></trkpt><trkpt lat="43.8828185" lon="12.4079515"><ele>401.0</ele><time>2026-04-12T07:14:02.643Z</time></trkpt><trkpt lat="43.8828054" lon="12.4077888"><ele>398.6</ele><time>2026-04-12T07:14:03.649Z</time></trkpt><trkpt lat="43.882801" lon="12.4076433"><ele>396.20000000000005</ele><time>2026-04-12T07:14:04.644Z</time></trkpt><trkpt lat="43.8828088" lon="12.4075069"><ele>393.79999999999995</ele><time>2026-04-12T07:14:05.66Z</time></trkpt><trkpt lat="43.8828414" lon="12.4073721"><ele>391.4</ele><time>2026-04-12T07:14:06.632Z</time></trkpt><trkpt lat="43.8828944" lon="12.4072517"><ele>389.0</ele><time>2026-04-12T07:14:07.648Z</time></trkpt><trkpt lat="43.8829361" lon="12.4071319"><ele>388.4</ele><time>2026-04-12T07:14:08.668Z</time></trkpt><trkpt lat="43.8829589" lon="12.4070201"><ele>387.79999999999995</ele><time>2026-04-12T07:14:09.632Z</time></trkpt><trkpt lat="43.8829521" lon="12.4069258"><ele>387.20000000000005</ele><time>2026-04-12T07:14:10.667Z</time></trkpt><trkpt lat="43.8828631" lon="12.4067995"><ele>386.6</ele><time>2026-04-12T07:14:12.637Z</time></trkpt><trkpt lat="43.8827719" lon="12.4067348"><ele>386.0</ele><time>2026-04-12T07:14:13.644Z</time></trkpt><trkpt lat="43.8826689" lon="12.4066513"><ele>388.25</ele><time>2026-04-12T07:14:14.625Z</time></trkpt><trkpt lat="43.8825587" lon="12.4065306"><ele>390.5</ele><time>2026-04-12T07:14:15.639Z</time></trkpt><trkpt lat="43.8824516" lon="12.4063995"><ele>392.75</ele><time>2026-04-12T07:14:16.656Z</time></trkpt><trkpt lat="43.8823474" lon="12.4062714"><ele>395.0</ele><time>2026-04-12T07:14:17.638Z</time></trkpt><trkpt lat="43.8822479" lon="12.4061436"><ele>395.3333333333333</ele><time>2026-04-12T07:14:18.648Z</time></trkpt><trkpt lat="43.8821644" lon="12.4060154"><ele>395.66666666666663</ele><time>2026-04-12T07:14:19.64Z</time></trkpt><trkpt lat="43.8820736" lon="12.4056941"><ele>396.0</ele><time>2026-04-12T07:14:21.643Z</time></trkpt><trkpt lat="43.8820552" lon="12.4055057"><ele>396.75</ele><time>2026-04-12T07:14:22.645Z</time></trkpt><trkpt lat="43.8820525" lon="12.4053147"><ele>397.5</ele><time>2026-04-12T07:14:23.651Z</time></trkpt><trkpt lat="43.8820475" lon="12.4051314"><ele>398.25</ele><time>2026-04-12T07:14:24.692Z</time></trkpt><trkpt lat="43.882042" lon="12.404975"><ele>399.0</ele><time>2026-04-12T07:14:25.649Z</time></trkpt><trkpt lat="43.8820275" lon="12.4048574"><ele>399.0</ele><time>2026-04-12T07:14:26.644Z</time></trkpt><trkpt lat="43.8819859" lon="12.404774"><ele>399.0</ele><time>2026-04-12T07:14:27.639Z</time></trkpt><trkpt lat="43.8819262" lon="12.4047095"><ele>399.0</ele><time>2026-04-12T07:14:28.631Z</time></trkpt><trkpt lat="43.8818361" lon="12.4046692"><ele>399.0</ele><time>2026-04-12T07:14:29.637Z</time></trkpt><trkpt lat="43.8817378" lon="12.4046413"><ele>399.0</ele><time>2026-04-12T07:14:30.636Z</time></trkpt><trkpt lat="43.8816314" lon="12.404642"><ele>401.4</ele><time>2026-04-12T07:14:31.637Z</time></trkpt><trkpt lat="43.8815367" lon="12.4046051"><ele>403.79999999999995</ele><time>2026-04-12T07:14:32.741Z</time></trkpt><trkpt lat="43.8814503" lon="12.4045456"><ele>406.20000000000005</ele><time>2026-04-12T07:14:33.658Z</time></trkpt><trkpt lat="43.8813681" lon="12.4044713"><ele>408.6</ele><time>2026-04-12T07:14:34.647Z</time></trkpt><trkpt lat="43.8812895" lon="12.4043937"><ele>411.0</ele><time>2026-04-12T07:14:35.64Z</time></trkpt><trkpt lat="43.8812188" lon="12.4043186"><ele>411.0</ele><time>2026-04-12T07:14:36.639Z</time></trkpt><trkpt lat="43.8811422" lon="12.4042455"><ele>411.0</ele><time>2026-04-12T07:14:37.645Z</time></trkpt><trkpt lat="43.8810564" lon="12.4041864"><ele>411.0</ele><time>2026-04-12T07:14:38.654Z</time></trkpt><trkpt lat="43.8809622" lon="12.4041497"><ele>411.0</ele><time>2026-04-12T07:14:39.668Z</time></trkpt><trkpt lat="43.8808608" lon="12.4041369"><ele>411.0</ele><time>2026-04-12T07:14:40.646Z</time></trkpt><trkpt lat="43.8806503" lon="12.4041068"><ele>411.6</ele><time>2026-04-12T07:14:42.649Z</time></trkpt><trkpt lat="43.8805636" lon="12.4040731"><ele>412.20000000000005</ele><time>2026-04-12T07:14:43.701Z</time></trkpt><trkpt lat="43.8804799" lon="12.4040438"><ele>412.79999999999995</ele><time>2026-04-12T07:14:44.643Z</time></trkpt><trkpt lat="43.88039" lon="12.4040341"><ele>413.4</ele><time>2026-04-12T07:14:45.653Z</time></trkpt><trkpt lat="43.8802799" lon="12.4040234"><ele>414.0</ele><time>2026-04-12T07:14:46.642Z</time></trkpt><trkpt lat="43.8801721" lon="12.4040386"><ele>414.0</ele><time>2026-04-12T07:14:47.671Z</time></trkpt><trkpt lat="43.8800791" lon="12.4040189"><ele>414.0</ele><time>2026-04-12T07:14:48.639Z</time></trkpt><trkpt lat="43.8799924" lon="12.4039753"><ele>414.0</ele><time>2026-04-12T07:14:49.647Z</time></trkpt><trkpt lat="43.8799088" lon="12.4039065"><ele>414.0</ele><time>2026-04-12T07:14:50.648Z</time></trkpt><trkpt lat="43.879833" lon="12.4038433"><ele>414.0</ele><time>2026-04-12T07:14:51.663Z</time></trkpt><trkpt lat="43.8797634" lon="12.4037993"><ele>414.0</ele><time>2026-04-12T07:14:52.64Z</time></trkpt><trkpt lat="43.8797059" lon="12.4037341"><ele>411.79999999999995</ele><time>2026-04-12T07:14:53.644Z</time></trkpt><trkpt lat="43.8796599" lon="12.4036365"><ele>409.59999999999997</ele><time>2026-04-12T07:14:54.64Z</time></trkpt><trkpt lat="43.8796191" lon="12.4035178"><ele>407.4</ele><time>2026-04-12T07:14:55.638Z</time></trkpt><trkpt lat="43.8795833" lon="12.4033973"><ele>405.2</ele><time>2026-04-12T07:14:56.735Z</time></trkpt><trkpt lat="43.8795499" lon="12.4032764"><ele>403.0</ele><time>2026-04-12T07:14:57.722Z</time></trkpt><trkpt lat="43.8795115" lon="12.4031422"><ele>403.0</ele><time>2026-04-12T07:14:58.638Z</time></trkpt><trkpt lat="43.87949" lon="12.4030296"><ele>403.0</ele><time>2026-04-12T07:14:59.653Z</time></trkpt><trkpt lat="43.8794422" lon="12.4029214"><ele>403.0</ele><time>2026-04-12T07:15:00.624Z</time></trkpt><trkpt lat="43.8793891" lon="12.4028094"><ele>403.0</ele><time>2026-04-12T07:15:01.665Z</time></trkpt><trkpt lat="43.8793013" lon="12.4025821"><ele>400.25</ele><time>2026-04-12T07:15:03.659Z</time></trkpt><trkpt lat="43.8792474" lon="12.4024677"><ele>397.5</ele><time>2026-04-12T07:15:04.75Z</time></trkpt><trkpt lat="43.8791468" lon="12.4022392"><ele>394.75</ele><time>2026-04-12T07:15:06.633Z</time></trkpt><trkpt lat="43.8790942" lon="12.4021399"><ele>392.0</ele><time>2026-04-12T07:15:07.657Z</time></trkpt><trkpt lat="43.8790374" lon="12.402054"><ele>389.20000000000005</ele><time>2026-04-12T07:15:08.656Z</time></trkpt><trkpt lat="43.8789859" lon="12.4019779"><ele>386.4</ele><time>2026-04-12T07:15:09.637Z</time></trkpt><trkpt lat="43.8789174" lon="12.4019212"><ele>383.6</ele><time>2026-04-12T07:15:10.668Z</time></trkpt><trkpt lat="43.8788232" lon="12.4018948"><ele>380.79999999999995</ele><time>2026-04-12T07:15:11.652Z</time></trkpt><trkpt lat="43.8786946" lon="12.4018717"><ele>378.0</ele><time>2026-04-12T07:15:12.634Z</time></trkpt><trkpt lat="43.8785717" lon="12.4018426"><ele>378.0</ele><time>2026-04-12T07:15:13.633Z</time></trkpt><trkpt lat="43.8784574" lon="12.4018096"><ele>378.0</ele><time>2026-04-12T07:15:14.631Z</time></trkpt><trkpt lat="43.8783461" lon="12.4017463"><ele>378.0</ele><time>2026-04-12T07:15:15.667Z</time></trkpt><trkpt lat="43.8782413" lon="12.4016592"><ele>378.0</ele><time>2026-04-12T07:15:16.63Z</time></trkpt><trkpt lat="43.8781442" lon="12.4015457"><ele>380.0</ele><time>2026-04-12T07:15:17.743Z</time></trkpt><trkpt lat="43.8779199" lon="12.4012278"><ele>382.0</ele><time>2026-04-12T07:15:19.662Z</time></trkpt><trkpt lat="43.8777966" lon="12.4010395"><ele>382.0</ele><time>2026-04-12T07:15:20.629Z</time></trkpt><trkpt lat="43.8776843" lon="12.4008699"><ele>382.0</ele><time>2026-04-12T07:15:21.634Z</time></trkpt><trkpt lat="43.8775943" lon="12.4007239"><ele>382.0</ele><time>2026-04-12T07:15:22.64Z</time></trkpt><trkpt lat="43.8774703" lon="12.4004662"><ele>385.6</ele><time>2026-04-12T07:15:24.649Z</time></trkpt><trkpt lat="43.877449" lon="12.4003386"><ele>389.20000000000005</ele><time>2026-04-12T07:15:25.623Z</time></trkpt><trkpt lat="43.877457" lon="12.4002206"><ele>392.8</ele><time>2026-04-12T07:15:26.634Z</time></trkpt><trkpt lat="43.8774804" lon="12.4001005"><ele>396.4</ele><time>2026-04-12T07:15:27.66Z</time></trkpt><trkpt lat="43.8775052" lon="12.3999564"><ele>400.0</ele><time>2026-04-12T07:15:28.629Z</time></trkpt><trkpt lat="43.8775282" lon="12.3998036"><ele>400.00000000000006</ele><time>2026-04-12T07:15:29.653Z</time></trkpt><trkpt lat="43.8775278" lon="12.3996761"><ele>400.0</ele><time>2026-04-12T07:15:30.637Z</time></trkpt><trkpt lat="43.8775002" lon="12.3995758"><ele>400.0</ele><time>2026-04-12T07:15:31.633Z</time></trkpt><trkpt lat="43.8774571" lon="12.3995013"><ele>400.0</ele><time>2026-04-12T07:15:32.643Z</time></trkpt><trkpt lat="43.8773821" lon="12.3994399"><ele>400.00000000000006</ele><time>2026-04-12T07:15:33.65Z</time></trkpt><trkpt lat="43.8772963" lon="12.3993853"><ele>400.0</ele><time>2026-04-12T07:15:34.641Z</time></trkpt><trkpt lat="43.8772061" lon="12.3993582"><ele>402.2</ele><time>2026-04-12T07:15:35.633Z</time></trkpt><trkpt lat="43.8771054" lon="12.3993769"><ele>404.4</ele><time>2026-04-12T07:15:36.716Z</time></trkpt><trkpt lat="43.8770128" lon="12.3994359"><ele>406.6</ele><time>2026-04-12T07:15:37.638Z</time></trkpt><trkpt lat="43.8769165" lon="12.3995106"><ele>408.8</ele><time>2026-04-12T07:15:38.63Z</time></trkpt><trkpt lat="43.8768145" lon="12.3995644"><ele>411.0</ele><time>2026-04-12T07:15:39.643Z</time></trkpt><trkpt lat="43.8766943" lon="12.3995894"><ele>411.25</ele><time>2026-04-12T07:15:40.644Z</time></trkpt><trkpt lat="43.876567" lon="12.3995916"><ele>411.5</ele><time>2026-04-12T07:15:41.658Z</time></trkpt><trkpt lat="43.8764452" lon="12.3995884"><ele>411.75</ele><time>2026-04-12T07:15:42.632Z</time></trkpt><trkpt lat="43.8763246" lon="12.3996178"><ele>412.0</ele><time>2026-04-12T07:15:43.647Z</time></trkpt><trkpt lat="43.8760652" lon="12.3996841"><ele>416.33333333333337</ele><time>2026-04-12T07:15:45.644Z</time></trkpt><trkpt lat="43.8759238" lon="12.3997072"><ele>420.66666666666663</ele><time>2026-04-12T07:15:46.642Z</time></trkpt><trkpt lat="43.8758088" lon="12.3997133"><ele>425.0</ele><time>2026-04-12T07:15:47.727Z</time></trkpt><trkpt lat="43.8756121" lon="12.3996973"><ele>426.0</ele><time>2026-04-12T07:15:49.639Z</time></trkpt><trkpt lat="43.8755215" lon="12.3996461"><ele>427.0</ele><time>2026-04-12T07:15:50.631Z</time></trkpt><trkpt lat="43.8754301" lon="12.3995644"><ele>428.0</ele><time>2026-04-12T07:15:51.627Z</time></trkpt><trkpt lat="43.8753248" lon="12.3994775"><ele>429.0</ele><time>2026-04-12T07:15:52.648Z</time></trkpt><trkpt lat="43.875208" lon="12.3993913"><ele>430.25</ele><time>2026-04-12T07:15:53.655Z</time></trkpt><trkpt lat="43.8750823" lon="12.3992977"><ele>431.5</ele><time>2026-04-12T07:15:54.624Z</time></trkpt><trkpt lat="43.8749691" lon="12.3991928"><ele>432.75</ele><time>2026-04-12T07:15:55.665Z</time></trkpt><trkpt lat="43.8748685" lon="12.3990979"><ele>434.0</ele><time>2026-04-12T07:15:56.628Z</time></trkpt><trkpt lat="43.8747646" lon="12.3990127"><ele>434.0</ele><time>2026-04-12T07:15:57.653Z</time></trkpt><trkpt lat="43.8746567" lon="12.3989427"><ele>434.0</ele><time>2026-04-12T07:15:58.634Z</time></trkpt><trkpt lat="43.8745563" lon="12.3988842"><ele>434.0</ele><time>2026-04-12T07:15:59.642Z</time></trkpt><trkpt lat="43.8744457" lon="12.3988238"><ele>434.0</ele><time>2026-04-12T07:16:00.622Z</time></trkpt><trkpt lat="43.8743357" lon="12.3987621"><ele>437.25</ele><time>2026-04-12T07:16:01.643Z</time></trkpt><trkpt lat="43.874234" lon="12.3987181"><ele>440.5</ele><time>2026-04-12T07:16:02.636Z</time></trkpt><trkpt lat="43.8741368" lon="12.3987137"><ele>443.75</ele><time>2026-04-12T07:16:03.633Z</time></trkpt><trkpt lat="43.8740399" lon="12.3987325"><ele>447.0</ele><time>2026-04-12T07:16:04.631Z</time></trkpt><trkpt lat="43.8738342" lon="12.3987359"><ele>447.0</ele><time>2026-04-12T07:16:06.652Z</time></trkpt><trkpt lat="43.8737252" lon="12.3987089"><ele>447.0</ele><time>2026-04-12T07:16:07.635Z</time></trkpt><trkpt lat="43.8736237" lon="12.3986743"><ele>447.0</ele><time>2026-04-12T07:16:08.661Z</time></trkpt><trkpt lat="43.8735076" lon="12.3986388"><ele>447.0</ele><time>2026-04-12T07:16:09.651Z</time></trkpt><trkpt lat="43.8733792" lon="12.3986048"><ele>449.66666666666663</ele><time>2026-04-12T07:16:10.656Z</time></trkpt><trkpt lat="43.8732328" lon="12.3985481"><ele>452.3333333333333</ele><time>2026-04-12T07:16:11.64Z</time></trkpt><trkpt lat="43.8730772" lon="12.3984848"><ele>455.0</ele><time>2026-04-12T07:16:12.634Z</time></trkpt><trkpt lat="43.8729111" lon="12.3984349"><ele>455.0</ele><time>2026-04-12T07:16:13.638Z</time></trkpt><trkpt lat="43.8727345" lon="12.3984082"><ele>455.0</ele><time>2026-04-12T07:16:14.639Z</time></trkpt><trkpt lat="43.8725515" lon="12.3984013"><ele>455.0</ele><time>2026-04-12T07:16:15.626Z</time></trkpt><trkpt lat="43.8723605" lon="12.3984251"><ele>458.0</ele><time>2026-04-12T07:16:16.651Z</time></trkpt><trkpt lat="43.8721604" lon="12.39846"><ele>461.0</ele><time>2026-04-12T07:16:17.636Z</time></trkpt><trkpt lat="43.8719563" lon="12.3984979"><ele>464.0</ele><time>2026-04-12T07:16:18.635Z</time></trkpt><trkpt lat="43.8717625" lon="12.3985308"><ele>468.3333333333333</ele><time>2026-04-12T07:16:19.654Z</time></trkpt><trkpt lat="43.8715869" lon="12.3985552"><ele>472.66666666666663</ele><time>2026-04-12T07:16:20.637Z</time></trkpt><trkpt lat="43.8714142" lon="12.3985863"><ele>477.0</ele><time>2026-04-12T07:16:21.66Z</time></trkpt><trkpt lat="43.8712376" lon="12.39863"><ele>477.0</ele><time>2026-04-12T07:16:22.649Z</time></trkpt><trkpt lat="43.8710569" lon="12.3986694"><ele>477.0</ele><time>2026-04-12T07:16:23.632Z</time></trkpt><trkpt lat="43.8708809" lon="12.3987092"><ele>477.0</ele><time>2026-04-12T07:16:24.661Z</time></trkpt><trkpt lat="43.8707226" lon="12.3987484"><ele>479.66666666666663</ele><time>2026-04-12T07:16:25.623Z</time></trkpt><trkpt lat="43.8704388" lon="12.3988258"><ele>482.3333333333333</ele><time>2026-04-12T07:16:27.633Z</time></trkpt><trkpt lat="43.870328" lon="12.3988634"><ele>485.0</ele><time>2026-04-12T07:16:28.643Z</time></trkpt><trkpt lat="43.8702207" lon="12.3989101"><ele>485.0</ele><time>2026-04-12T07:16:29.645Z</time></trkpt><trkpt lat="43.8701213" lon="12.3989778"><ele>485.0</ele><time>2026-04-12T07:16:30.665Z</time></trkpt><trkpt lat="43.8700279" lon="12.3990714"><ele>485.0</ele><time>2026-04-12T07:16:31.66Z</time></trkpt><trkpt lat="43.8699545" lon="12.3991729"><ele>485.0</ele><time>2026-04-12T07:16:32.679Z</time></trkpt><trkpt lat="43.8698949" lon="12.399277"><ele>485.0</ele><time>2026-04-12T07:16:33.677Z</time></trkpt><trkpt lat="43.8698555" lon="12.3993817"><ele>486.66666666666663</ele><time>2026-04-12T07:16:34.651Z</time></trkpt><trkpt lat="43.8698528" lon="12.3994789"><ele>488.3333333333333</ele><time>2026-04-12T07:16:35.636Z</time></trkpt><trkpt lat="43.8698822" lon="12.3996499"><ele>490.0</ele><time>2026-04-12T07:16:37.653Z</time></trkpt><trkpt lat="43.869896" lon="12.3997467"><ele>491.66666666666663</ele><time>2026-04-12T07:16:38.629Z</time></trkpt><trkpt lat="43.8699177" lon="12.3998717"><ele>493.3333333333333</ele><time>2026-04-12T07:16:39.654Z</time></trkpt><trkpt lat="43.8699445" lon="12.3999872"><ele>495.0</ele><time>2026-04-12T07:16:40.751Z</time></trkpt><trkpt lat="43.8699894" lon="12.4001957"><ele>495.8</ele><time>2026-04-12T07:16:42.661Z</time></trkpt><trkpt lat="43.8699931" lon="12.4003108"><ele>496.6</ele><time>2026-04-12T07:16:43.66Z</time></trkpt><trkpt lat="43.8699864" lon="12.4004542"><ele>497.4</ele><time>2026-04-12T07:16:44.643Z</time></trkpt><trkpt lat="43.8699824" lon="12.4006215"><ele>498.2</ele><time>2026-04-12T07:16:45.659Z</time></trkpt><trkpt lat="43.8699715" lon="12.4007833"><ele>499.0</ele><time>2026-04-12T07:16:46.645Z</time></trkpt><trkpt lat="43.8699137" lon="12.4010899"><ele>500.79999999999995</ele><time>2026-04-12T07:16:48.657Z</time></trkpt><trkpt lat="43.8698622" lon="12.4012139"><ele>502.59999999999997</ele><time>2026-04-12T07:16:49.693Z</time></trkpt><trkpt lat="43.8698049" lon="12.4012987"><ele>504.4</ele><time>2026-04-12T07:16:50.639Z</time></trkpt><trkpt lat="43.8697311" lon="12.4013257"><ele>506.2</ele><time>2026-04-12T07:16:51.656Z</time></trkpt><trkpt lat="43.8696387" lon="12.401297"><ele>508.0</ele><time>2026-04-12T07:16:52.618Z</time></trkpt><trkpt lat="43.869535" lon="12.4012479"><ele>508.0</ele><time>2026-04-12T07:16:53.635Z</time></trkpt><trkpt lat="43.8694222" lon="12.4011637"><ele>508.0</ele><time>2026-04-12T07:16:54.647Z</time></trkpt><trkpt lat="43.8693035" lon="12.401065"><ele>508.0</ele><time>2026-04-12T07:16:55.642Z</time></trkpt><trkpt lat="43.8691794" lon="12.4009897"><ele>508.0</ele><time>2026-04-12T07:16:56.643Z</time></trkpt><trkpt lat="43.8690495" lon="12.4009624"><ele>510.75</ele><time>2026-04-12T07:16:57.639Z</time></trkpt><trkpt lat="43.8689241" lon="12.4009877"><ele>513.5</ele><time>2026-04-12T07:16:58.636Z</time></trkpt><trkpt lat="43.8687871" lon="12.4010109"><ele>516.25</ele><time>2026-04-12T07:16:59.644Z</time></trkpt><trkpt lat="43.8686532" lon="12.4010174"><ele>519.0</ele><time>2026-04-12T07:17:00.647Z</time></trkpt><trkpt lat="43.8685331" lon="12.4009752"><ele>521.75</ele><time>2026-04-12T07:17:01.647Z</time></trkpt><trkpt lat="43.8684114" lon="12.4008931"><ele>524.5</ele><time>2026-04-12T07:17:02.645Z</time></trkpt><trkpt lat="43.8682768" lon="12.4008273"><ele>527.25</ele><time>2026-04-12T07:17:03.662Z</time></trkpt><trkpt lat="43.8681295" lon="12.4007843"><ele>530.0</ele><time>2026-04-12T07:17:04.717Z</time></trkpt><trkpt lat="43.8679697" lon="12.4007649"><ele>530.0</ele><time>2026-04-12T07:17:05.642Z</time></trkpt><trkpt lat="43.8678078" lon="12.4007549"><ele>530.0</ele><time>2026-04-12T07:17:06.644Z</time></trkpt><trkpt lat="43.8676631" lon="12.4007217"><ele>530.0</ele><time>2026-04-12T07:17:07.644Z</time></trkpt><trkpt lat="43.8674635" lon="12.4006138"><ele>533.8</ele><time>2026-04-12T07:17:09.635Z</time></trkpt><trkpt lat="43.8674048" lon="12.4005299"><ele>537.6</ele><time>2026-04-12T07:17:10.633Z</time></trkpt><trkpt lat="43.8673589" lon="12.4004375"><ele>541.4</ele><time>2026-04-12T07:17:11.633Z</time></trkpt><trkpt lat="43.8672961" lon="12.4003592"><ele>545.2</ele><time>2026-04-12T07:17:12.641Z</time></trkpt><trkpt lat="43.8672014" lon="12.4003199"><ele>549.0</ele><time>2026-04-12T07:17:13.645Z</time></trkpt><trkpt lat="43.8670879" lon="12.4003161"><ele>549.0</ele><time>2026-04-12T07:17:14.624Z</time></trkpt><trkpt lat="43.866957" lon="12.4003159"><ele>549.0</ele><time>2026-04-12T07:17:15.661Z</time></trkpt><trkpt lat="43.8668122" lon="12.400313"><ele>549.0</ele><time>2026-04-12T07:17:16.642Z</time></trkpt><trkpt lat="43.8666711" lon="12.400316"><ele>549.0</ele><time>2026-04-12T07:17:17.641Z</time></trkpt><trkpt lat="43.8665266" lon="12.400335"><ele>554.3333333333334</ele><time>2026-04-12T07:17:18.642Z</time></trkpt><trkpt lat="43.8663828" lon="12.4003622"><ele>559.6666666666667</ele><time>2026-04-12T07:17:19.642Z</time></trkpt><trkpt lat="43.8662373" lon="12.400361"><ele>565.0</ele><time>2026-04-12T07:17:20.645Z</time></trkpt><trkpt lat="43.8660737" lon="12.4003484"><ele>568.0</ele><time>2026-04-12T07:17:21.679Z</time></trkpt><trkpt lat="43.8659026" lon="12.4003372"><ele>571.0</ele><time>2026-04-12T07:17:22.635Z</time></trkpt><trkpt lat="43.8657718" lon="12.4003217"><ele>574.0</ele><time>2026-04-12T07:17:23.717Z</time></trkpt><trkpt lat="43.865673" lon="12.4003142"><ele>577.0</ele><time>2026-04-12T07:17:24.635Z</time></trkpt><trkpt lat="43.8655885" lon="12.400286"><ele>577.0</ele><time>2026-04-12T07:17:25.648Z</time></trkpt><trkpt lat="43.865497" lon="12.4002318"><ele>577.0</ele><time>2026-04-12T07:17:26.719Z</time></trkpt><trkpt lat="43.8653963" lon="12.4001328"><ele>577.0</ele><time>2026-04-12T07:17:27.632Z</time></trkpt><trkpt lat="43.865295" lon="12.4000085"><ele>577.0</ele><time>2026-04-12T07:17:28.638Z</time></trkpt><trkpt lat="43.8651238" lon="12.3998243"><ele>578.0</ele><time>2026-04-12T07:17:30.648Z</time></trkpt><trkpt lat="43.8650478" lon="12.3997794"><ele>579.0</ele><time>2026-04-12T07:17:31.651Z</time></trkpt><trkpt lat="43.8649793" lon="12.3997772"><ele>580.0</ele><time>2026-04-12T07:17:32.633Z</time></trkpt><trkpt lat="43.8648885" lon="12.3998192"><ele>581.0</ele><time>2026-04-12T07:17:33.644Z</time></trkpt><trkpt lat="43.8647824" lon="12.3999008"><ele>582.0</ele><time>2026-04-12T07:17:34.637Z</time></trkpt><trkpt lat="43.864676" lon="12.3999883"><ele>582.0</ele><time>2026-04-12T07:17:35.731Z</time></trkpt><trkpt lat="43.8645581" lon="12.4000436"><ele>582.0</ele><time>2026-04-12T07:17:36.639Z</time></trkpt><trkpt lat="43.8644234" lon="12.4000581"><ele>582.0</ele><time>2026-04-12T07:17:37.645Z</time></trkpt><trkpt lat="43.8642853" lon="12.4000457"><ele>582.0</ele><time>2026-04-12T07:17:38.654Z</time></trkpt><trkpt lat="43.8641523" lon="12.4000153"><ele>583.25</ele><time>2026-04-12T07:17:39.637Z</time></trkpt><trkpt lat="43.8640435" lon="12.3999631"><ele>584.5</ele><time>2026-04-12T07:17:40.633Z</time></trkpt><trkpt lat="43.8639163" lon="12.3998774"><ele>585.75</ele><time>2026-04-12T07:17:41.631Z</time></trkpt><trkpt lat="43.8637789" lon="12.3997737"><ele>587.0</ele><time>2026-04-12T07:17:42.639Z</time></trkpt><trkpt lat="43.8636387" lon="12.3996545"><ele>587.0</ele><time>2026-04-12T07:17:43.656Z</time></trkpt><trkpt lat="43.8635171" lon="12.3995336"><ele>587.0</ele><time>2026-04-12T07:17:44.738Z</time></trkpt><trkpt lat="43.8634117" lon="12.3994368"><ele>587.0</ele><time>2026-04-12T07:17:45.645Z</time></trkpt><trkpt lat="43.8633053" lon="12.3993527"><ele>587.0</ele><time>2026-04-12T07:17:46.64Z</time></trkpt><trkpt lat="43.863186" lon="12.3992848"><ele>592.0</ele><time>2026-04-12T07:17:47.641Z</time></trkpt><trkpt lat="43.8630524" lon="12.3992354"><ele>597.0</ele><time>2026-04-12T07:17:48.649Z</time></trkpt><trkpt lat="43.8629319" lon="12.3992064"><ele>602.0</ele><time>2026-04-12T07:17:49.645Z</time></trkpt><trkpt lat="43.8626933" lon="12.39918"><ele>606.6666666666666</ele><time>2026-04-12T07:17:51.656Z</time></trkpt><trkpt lat="43.8625492" lon="12.3992043"><ele>611.3333333333334</ele><time>2026-04-12T07:17:52.647Z</time></trkpt><trkpt lat="43.8623773" lon="12.3992211"><ele>616.0</ele><time>2026-04-12T07:17:53.634Z</time></trkpt><trkpt lat="43.8622124" lon="12.3992375"><ele>616.0</ele><time>2026-04-12T07:17:54.631Z</time></trkpt><trkpt lat="43.8620496" lon="12.3992504"><ele>616.0</ele><time>2026-04-12T07:17:55.637Z</time></trkpt><trkpt lat="43.8619304" lon="12.3992589"><ele>616.0</ele><time>2026-04-12T07:17:56.632Z</time></trkpt><trkpt lat="43.8618284" lon="12.3992423"><ele>616.0</ele><time>2026-04-12T07:17:57.638Z</time></trkpt><trkpt lat="43.861713" lon="12.3992061"><ele>618.5</ele><time>2026-04-12T07:17:58.633Z</time></trkpt><trkpt lat="43.8615814" lon="12.39914"><ele>621.0</ele><time>2026-04-12T07:17:59.637Z</time></trkpt><trkpt lat="43.8614392" lon="12.3990604"><ele>623.5</ele><time>2026-04-12T07:18:00.643Z</time></trkpt><trkpt lat="43.8613125" lon="12.3989816"><ele>626.0</ele><time>2026-04-12T07:18:01.629Z</time></trkpt><trkpt lat="43.8612019" lon="12.3989205"><ele>626.0</ele><time>2026-04-12T07:18:02.628Z</time></trkpt><trkpt lat="43.8611021" lon="12.3988877"><ele>626.0</ele><time>2026-04-12T07:18:03.631Z</time></trkpt><trkpt lat="43.8610006" lon="12.3988521"><ele>626.0</ele><time>2026-04-12T07:18:04.646Z</time></trkpt><trkpt lat="43.8609059" lon="12.3988006"><ele>626.0</ele><time>2026-04-12T07:18:05.626Z</time></trkpt><trkpt lat="43.8608296" lon="12.3987373"><ele>626.0</ele><time>2026-04-12T07:18:06.629Z</time></trkpt><trkpt lat="43.8607658" lon="12.3987063"><ele>627.75</ele><time>2026-04-12T07:18:07.631Z</time></trkpt><trkpt lat="43.8606839" lon="12.3987135"><ele>629.5</ele><time>2026-04-12T07:18:09.648Z</time></trkpt><trkpt lat="43.8606214" lon="12.3987311"><ele>631.25</ele><time>2026-04-12T07:18:11.633Z</time></trkpt><trkpt lat="43.8603568" lon="12.3988516"><ele>633.0</ele><time>2026-04-12T07:18:43.642Z</time></trkpt><trkpt lat="43.8602761" lon="12.3988811"><ele>633.0</ele><time>2026-04-12T07:18:44.635Z</time></trkpt><trkpt lat="43.8601821" lon="12.3989168"><ele>633.0</ele><time>2026-04-12T07:18:45.641Z</time></trkpt><trkpt lat="43.8600796" lon="12.3989574"><ele>633.0</ele><time>2026-04-12T07:18:46.644Z</time></trkpt><trkpt lat="43.8599822" lon="12.3990007"><ele>633.0</ele><time>2026-04-12T07:18:47.63Z</time></trkpt><trkpt lat="43.8598903" lon="12.3990444"><ele>633.0</ele><time>2026-04-12T07:18:48.637Z</time></trkpt><trkpt lat="43.8597916" lon="12.3990847"><ele>634.5</ele><time>2026-04-12T07:18:49.732Z</time></trkpt><trkpt lat="43.8596899" lon="12.3991216"><ele>636.0</ele><time>2026-04-12T07:18:50.637Z</time></trkpt><trkpt lat="43.8595784" lon="12.3991504"><ele>637.5</ele><time>2026-04-12T07:18:51.647Z</time></trkpt><trkpt lat="43.8594611" lon="12.3991775"><ele>639.0</ele><time>2026-04-12T07:18:52.729Z</time></trkpt><trkpt lat="43.8593494" lon="12.3992201"><ele>641.5</ele><time>2026-04-12T07:18:53.634Z</time></trkpt><trkpt lat="43.859239" lon="12.3992828"><ele>644.0</ele><time>2026-04-12T07:18:54.649Z</time></trkpt><trkpt lat="43.8591301" lon="12.399368"><ele>646.5</ele><time>2026-04-12T07:18:55.639Z</time></trkpt><trkpt lat="43.8590242" lon="12.3994591"><ele>649.0</ele><time>2026-04-12T07:18:56.627Z</time></trkpt><trkpt lat="43.8589269" lon="12.3995612"><ele>649.0</ele><time>2026-04-12T07:18:57.632Z</time></trkpt><trkpt lat="43.8588351" lon="12.3996485"><ele>649.0</ele><time>2026-04-12T07:18:58.63Z</time></trkpt><trkpt lat="43.8587385" lon="12.3997186"><ele>649.0</ele><time>2026-04-12T07:18:59.635Z</time></trkpt><trkpt lat="43.8586435" lon="12.399742"><ele>649.0</ele><time>2026-04-12T07:19:00.649Z</time></trkpt><trkpt lat="43.8585692" lon="12.3997322"><ele>649.0</ele><time>2026-04-12T07:19:01.634Z</time></trkpt><trkpt lat="43.8584285" lon="12.399553"><ele>649.0</ele><time>2026-04-12T07:19:04.646Z</time></trkpt><trkpt lat="43.8584225" lon="12.3994196"><ele>649.0</ele><time>2026-04-12T07:19:05.653Z</time></trkpt><trkpt lat="43.8584319" lon="12.3992625"><ele>649.0</ele><time>2026-04-12T07:19:06.645Z</time></trkpt><trkpt lat="43.8584417" lon="12.3991017"><ele>649.0</ele><time>2026-04-12T07:19:07.654Z</time></trkpt><trkpt lat="43.8584516" lon="12.3989512"><ele>649.0</ele><time>2026-04-12T07:19:08.662Z</time></trkpt><trkpt lat="43.8584707" lon="12.3987907"><ele>651.0</ele><time>2026-04-12T07:19:09.646Z</time></trkpt><trkpt lat="43.8584947" lon="12.3986138"><ele>653.0</ele><time>2026-04-12T07:19:10.661Z</time></trkpt><trkpt lat="43.8585266" lon="12.398432"><ele>655.0</ele><time>2026-04-12T07:19:11.652Z</time></trkpt><trkpt lat="43.8585641" lon="12.3982527"><ele>657.0</ele><time>2026-04-12T07:19:12.631Z</time></trkpt><trkpt lat="43.8586032" lon="12.3980756"><ele>659.0</ele><time>2026-04-12T07:19:13.639Z</time></trkpt><trkpt lat="43.8586464" lon="12.3978969"><ele>661.0</ele><time>2026-04-12T07:19:14.639Z</time></trkpt><trkpt lat="43.8586871" lon="12.3977184"><ele>663.0</ele><time>2026-04-12T07:19:15.64Z</time></trkpt><trkpt lat="43.8587181" lon="12.397539"><ele>665.0</ele><time>2026-04-12T07:19:16.652Z</time></trkpt><trkpt lat="43.8587383" lon="12.3973645"><ele>665.0</ele><time>2026-04-12T07:19:17.643Z</time></trkpt><trkpt lat="43.858746" lon="12.3971861"><ele>665.0</ele><time>2026-04-12T07:19:18.655Z</time></trkpt><trkpt lat="43.8587492" lon="12.397008"><ele>665.0</ele><time>2026-04-12T07:19:19.647Z</time></trkpt><trkpt lat="43.8587433" lon="12.3968178"><ele>665.0</ele><time>2026-04-12T07:19:20.65Z</time></trkpt><trkpt lat="43.8587344" lon="12.3966268"><ele>667.3333333333333</ele><time>2026-04-12T07:19:21.644Z</time></trkpt><trkpt lat="43.8587164" lon="12.3964439"><ele>669.6666666666666</ele><time>2026-04-12T07:19:22.628Z</time></trkpt><trkpt lat="43.8586849" lon="12.396073"><ele>672.0</ele><time>2026-04-12T07:19:24.639Z</time></trkpt><trkpt lat="43.8586641" lon="12.39588"><ele>673.0</ele><time>2026-04-12T07:19:25.639Z</time></trkpt><trkpt lat="43.8586378" lon="12.3956873"><ele>674.0</ele><time>2026-04-12T07:19:26.658Z</time></trkpt><trkpt lat="43.8586062" lon="12.3955022"><ele>675.0</ele><time>2026-04-12T07:19:27.654Z</time></trkpt><trkpt lat="43.8585799" lon="12.3953107"><ele>676.0</ele><time>2026-04-12T07:19:28.656Z</time></trkpt><trkpt lat="43.8585644" lon="12.3951238"><ele>677.0</ele><time>2026-04-12T07:19:29.648Z</time></trkpt><trkpt lat="43.8585621" lon="12.3949399"><ele>678.0</ele><time>2026-04-12T07:19:30.646Z</time></trkpt><trkpt lat="43.8585619" lon="12.394748"><ele>679.0</ele><time>2026-04-12T07:19:31.643Z</time></trkpt><trkpt lat="43.8585611" lon="12.394548"><ele>680.0</ele><time>2026-04-12T07:19:32.667Z</time></trkpt><trkpt lat="43.8585626" lon="12.3943446"><ele>680.75</ele><time>2026-04-12T07:19:33.634Z</time></trkpt><trkpt lat="43.8585544" lon="12.3941448"><ele>681.5</ele><time>2026-04-12T07:19:34.669Z</time></trkpt><trkpt lat="43.8585314" lon="12.393936"><ele>682.25</ele><time>2026-04-12T07:19:35.63Z</time></trkpt><trkpt lat="43.8584971" lon="12.3937424"><ele>683.0</ele><time>2026-04-12T07:19:36.655Z</time></trkpt><trkpt lat="43.8584576" lon="12.3935718"><ele>688.25</ele><time>2026-04-12T07:19:37.632Z</time></trkpt><trkpt lat="43.858401" lon="12.393397"><ele>693.5</ele><time>2026-04-12T07:19:38.644Z</time></trkpt><trkpt lat="43.8583223" lon="12.3932239"><ele>698.75</ele><time>2026-04-12T07:19:39.633Z</time></trkpt><trkpt lat="43.8582376" lon="12.3930559"><ele>704.0</ele><time>2026-04-12T07:19:40.645Z</time></trkpt><trkpt lat="43.8581611" lon="12.3928922"><ele>705.3333333333333</ele><time>2026-04-12T07:19:41.645Z</time></trkpt><trkpt lat="43.8581087" lon="12.3926987"><ele>706.6666666666666</ele><time>2026-04-12T07:19:42.653Z</time></trkpt><trkpt lat="43.858071" lon="12.3925119"><ele>708.0</ele><time>2026-04-12T07:19:43.645Z</time></trkpt><trkpt lat="43.8580743" lon="12.3921059"><ele>708.5</ele><time>2026-04-12T07:19:45.645Z</time></trkpt><trkpt lat="43.8580869" lon="12.3919237"><ele>709.0</ele><time>2026-04-12T07:19:46.658Z</time></trkpt><trkpt lat="43.8580721" lon="12.3917708"><ele>709.5</ele><time>2026-04-12T07:19:47.649Z</time></trkpt><trkpt lat="43.8580245" lon="12.3916298"><ele>710.0</ele><time>2026-04-12T07:19:48.662Z</time></trkpt><trkpt lat="43.8579515" lon="12.3914726"><ele>709.25</ele><time>2026-04-12T07:19:49.654Z</time></trkpt><trkpt lat="43.8578635" lon="12.3913146"><ele>708.5</ele><time>2026-04-12T07:19:50.641Z</time></trkpt><trkpt lat="43.8577741" lon="12.391146"><ele>707.75</ele><time>2026-04-12T07:19:51.656Z</time></trkpt><trkpt lat="43.8576858" lon="12.3909758"><ele>707.0</ele><time>2026-04-12T07:19:52.663Z</time></trkpt><trkpt lat="43.8576" lon="12.3908179"><ele>709.75</ele><time>2026-04-12T07:19:53.639Z</time></trkpt><trkpt lat="43.8575198" lon="12.3906781"><ele>712.5</ele><time>2026-04-12T07:19:54.668Z</time></trkpt><trkpt lat="43.8574337" lon="12.390535"><ele>715.25</ele><time>2026-04-12T07:19:55.651Z</time></trkpt><trkpt lat="43.8573461" lon="12.390393"><ele>718.0</ele><time>2026-04-12T07:19:56.64Z</time></trkpt><trkpt lat="43.857252" lon="12.3902497"><ele>718.0</ele><time>2026-04-12T07:19:57.632Z</time></trkpt><trkpt lat="43.8571478" lon="12.3901057"><ele>718.0</ele><time>2026-04-12T07:19:58.635Z</time></trkpt><trkpt lat="43.8570379" lon="12.3899672"><ele>718.0</ele><time>2026-04-12T07:19:59.681Z</time></trkpt><trkpt lat="43.8569321" lon="12.389832"><ele>718.0</ele><time>2026-04-12T07:20:00.659Z</time></trkpt><trkpt lat="43.8568452" lon="12.3896847"><ele>718.0</ele><time>2026-04-12T07:20:01.666Z</time></trkpt><trkpt lat="43.8567908" lon="12.3895111"><ele>718.0</ele><time>2026-04-12T07:20:02.63Z</time></trkpt><trkpt lat="43.8567633" lon="12.3893193"><ele>718.0</ele><time>2026-04-12T07:20:03.636Z</time></trkpt><trkpt lat="43.8567331" lon="12.3891233"><ele>718.0</ele><time>2026-04-12T07:20:04.645Z</time></trkpt><trkpt lat="43.8566285" lon="12.3887518"><ele>717.25</ele><time>2026-04-12T07:20:06.641Z</time></trkpt><trkpt lat="43.8565686" lon="12.3885557"><ele>716.5</ele><time>2026-04-12T07:20:07.637Z</time></trkpt><trkpt lat="43.856512" lon="12.3883619"><ele>715.75</ele><time>2026-04-12T07:20:08.645Z</time></trkpt><trkpt lat="43.8564567" lon="12.3881784"><ele>715.0</ele><time>2026-04-12T07:20:09.64Z</time></trkpt><trkpt lat="43.8563986" lon="12.3880153"><ele>713.25</ele><time>2026-04-12T07:20:10.63Z</time></trkpt><trkpt lat="43.8563374" lon="12.3878745"><ele>711.5</ele><time>2026-04-12T07:20:11.64Z</time></trkpt><trkpt lat="43.856264" lon="12.3877477"><ele>709.75</ele><time>2026-04-12T07:20:12.649Z</time></trkpt><trkpt lat="43.8561902" lon="12.3876422"><ele>708.0</ele><time>2026-04-12T07:20:13.636Z</time></trkpt><trkpt lat="43.8560902" lon="12.3875484"><ele>708.0</ele><time>2026-04-12T07:20:14.641Z</time></trkpt><trkpt lat="43.8559857" lon="12.3874523"><ele>708.0</ele><time>2026-04-12T07:20:15.629Z</time></trkpt><trkpt lat="43.8558837" lon="12.3873427"><ele>708.0</ele><time>2026-04-12T07:20:16.632Z</time></trkpt><trkpt lat="43.8557981" lon="12.3872141"><ele>708.0</ele><time>2026-04-12T07:20:17.637Z</time></trkpt><trkpt lat="43.8557258" lon="12.3870762"><ele>710.0</ele><time>2026-04-12T07:20:18.648Z</time></trkpt><trkpt lat="43.8556711" lon="12.3869141"><ele>712.0</ele><time>2026-04-12T07:20:19.645Z</time></trkpt><trkpt lat="43.8556298" lon="12.386738"><ele>714.0</ele><time>2026-04-12T07:20:20.641Z</time></trkpt><trkpt lat="43.8555977" lon="12.3865587"><ele>716.0</ele><time>2026-04-12T07:20:21.643Z</time></trkpt><trkpt lat="43.8555524" lon="12.3863717"><ele>714.75</ele><time>2026-04-12T07:20:22.652Z</time></trkpt><trkpt lat="43.8555055" lon="12.3861881"><ele>713.5</ele><time>2026-04-12T07:20:23.652Z</time></trkpt><trkpt lat="43.8554576" lon="12.3860036"><ele>712.25</ele><time>2026-04-12T07:20:24.652Z</time></trkpt><trkpt lat="43.8554111" lon="12.3858299"><ele>711.0</ele><time>2026-04-12T07:20:25.633Z</time></trkpt><trkpt lat="43.8553045" lon="12.3855001"><ele>710.0</ele><time>2026-04-12T07:20:27.634Z</time></trkpt><trkpt lat="43.8552582" lon="12.3853373"><ele>709.0</ele><time>2026-04-12T07:20:28.647Z</time></trkpt><trkpt lat="43.8552269" lon="12.3851628"><ele>708.0</ele><time>2026-04-12T07:20:29.631Z</time></trkpt><trkpt lat="43.8552048" lon="12.3849898"><ele>707.0</ele><time>2026-04-12T07:20:30.624Z</time></trkpt><trkpt lat="43.8551773" lon="12.3848069"><ele>708.0</ele><time>2026-04-12T07:20:31.639Z</time></trkpt><trkpt lat="43.8551425" lon="12.3846314"><ele>709.0</ele><time>2026-04-12T07:20:32.636Z</time></trkpt><trkpt lat="43.8551021" lon="12.384466"><ele>710.0</ele><time>2026-04-12T07:20:33.641Z</time></trkpt><trkpt lat="43.8550607" lon="12.3843218"><ele>711.0</ele><time>2026-04-12T07:20:34.634Z</time></trkpt><trkpt lat="43.8550262" lon="12.3841838"><ele>714.0</ele><time>2026-04-12T07:20:35.638Z</time></trkpt><trkpt lat="43.854992" lon="12.3840521"><ele>717.0</ele><time>2026-04-12T07:20:36.644Z</time></trkpt><trkpt lat="43.8549561" lon="12.3839285"><ele>720.0</ele><time>2026-04-12T07:20:37.643Z</time></trkpt><trkpt lat="43.8549278" lon="12.3838049"><ele>723.0</ele><time>2026-04-12T07:20:38.648Z</time></trkpt><trkpt lat="43.85491" lon="12.3836853"><ele>726.0</ele><time>2026-04-12T07:20:39.662Z</time></trkpt><trkpt lat="43.854904" lon="12.3835735"><ele>726.8</ele><time>2026-04-12T07:20:40.757Z</time></trkpt><trkpt lat="43.8548921" lon="12.3833672"><ele>727.5999999999999</ele><time>2026-04-12T07:20:42.676Z</time></trkpt><trkpt lat="43.8548782" lon="12.3832657"><ele>728.4</ele><time>2026-04-12T07:20:43.649Z</time></trkpt><trkpt lat="43.8548576" lon="12.3831723"><ele>729.2</ele><time>2026-04-12T07:20:44.64Z</time></trkpt><trkpt lat="43.8548353" lon="12.3830807"><ele>730.0</ele><time>2026-04-12T07:20:45.636Z</time></trkpt><trkpt lat="43.8547949" lon="12.3828919"><ele>731.0</ele><time>2026-04-12T07:20:47.649Z</time></trkpt><trkpt lat="43.8547254" lon="12.3826561"><ele>732.0</ele><time>2026-04-12T07:20:49.741Z</time></trkpt><trkpt lat="43.8546886" lon="12.3825518"><ele>733.0</ele><time>2026-04-12T07:20:50.722Z</time></trkpt><trkpt lat="43.8546479" lon="12.3824625"><ele>734.0</ele><time>2026-04-12T07:20:51.746Z</time></trkpt><trkpt lat="43.8545561" lon="12.3822959"><ele>734.0</ele><time>2026-04-12T07:20:53.632Z</time></trkpt><trkpt lat="43.8545114" lon="12.3822226"><ele>734.0</ele><time>2026-04-12T07:20:54.636Z</time></trkpt><trkpt lat="43.854465" lon="12.3821603"><ele>734.0</ele><time>2026-04-12T07:20:55.634Z</time></trkpt><trkpt lat="43.8544098" lon="12.3821033"><ele>734.0</ele><time>2026-04-12T07:20:56.645Z</time></trkpt><trkpt lat="43.8543398" lon="12.3820543"><ele>734.0</ele><time>2026-04-12T07:20:57.631Z</time></trkpt><trkpt lat="43.8542516" lon="12.3820153"><ele>734.0</ele><time>2026-04-12T07:20:58.721Z</time></trkpt><trkpt lat="43.8541549" lon="12.3819857"><ele>738.0</ele><time>2026-04-12T07:20:59.626Z</time></trkpt><trkpt lat="43.8540576" lon="12.3819838"><ele>742.0</ele><time>2026-04-12T07:21:00.633Z</time></trkpt><trkpt lat="43.8539629" lon="12.3819989"><ele>746.0</ele><time>2026-04-12T07:21:01.708Z</time></trkpt><trkpt lat="43.8538696" lon="12.3820206"><ele>750.0</ele><time>2026-04-12T07:21:02.618Z</time></trkpt><trkpt lat="43.853777" lon="12.3820191"><ele>754.0</ele><time>2026-04-12T07:21:03.63Z</time></trkpt><trkpt lat="43.8537048" lon="12.3820179"><ele>754.0</ele><time>2026-04-12T07:21:04.631Z</time></trkpt><trkpt lat="43.853641" lon="12.3819768"><ele>754.0</ele><time>2026-04-12T07:21:06.628Z</time></trkpt><trkpt lat="43.8536677" lon="12.3818195"><ele>754.0</ele><time>2026-04-12T07:21:08.637Z</time></trkpt><trkpt lat="43.8537136" lon="12.3816391"><ele>754.0</ele><time>2026-04-12T07:21:10.639Z</time></trkpt><trkpt lat="43.853746" lon="12.381532"><ele>754.0</ele><time>2026-04-12T07:21:11.641Z</time></trkpt><trkpt lat="43.8537734" lon="12.3814075"><ele>755.6</ele><time>2026-04-12T07:21:12.657Z</time></trkpt><trkpt lat="43.85379" lon="12.3812967"><ele>757.2</ele><time>2026-04-12T07:21:13.635Z</time></trkpt><trkpt lat="43.8537866" lon="12.3812041"><ele>758.8000000000001</ele><time>2026-04-12T07:21:14.642Z</time></trkpt><trkpt lat="43.8537446" lon="12.3810596"><ele>760.4000000000001</ele><time>2026-04-12T07:21:16.629Z</time></trkpt><trkpt lat="43.8536403" lon="12.3810248"><ele>762.0</ele><time>2026-04-12T07:21:18.637Z</time></trkpt><trkpt lat="43.8535343" lon="12.3809622"><ele>763.1666666666666</ele><time>2026-04-12T07:21:20.728Z</time></trkpt><trkpt lat="43.8534294" lon="12.3808689"><ele>764.3333333333333</ele><time>2026-04-12T07:21:22.632Z</time></trkpt><trkpt lat="43.853374" lon="12.3808047"><ele>765.5</ele><time>2026-04-12T07:21:23.628Z</time></trkpt><trkpt lat="43.8533219" lon="12.3807344"><ele>766.6666666666666</ele><time>2026-04-12T07:21:24.637Z</time></trkpt><trkpt lat="43.8532769" lon="12.3806643"><ele>767.8333333333333</ele><time>2026-04-12T07:21:25.638Z</time></trkpt><trkpt lat="43.8532419" lon="12.3805783"><ele>769.0</ele><time>2026-04-12T07:21:26.65Z</time></trkpt><trkpt lat="43.8532054" lon="12.3804804"><ele>770.6</ele><time>2026-04-12T07:21:27.628Z</time></trkpt><trkpt lat="43.8531685" lon="12.3803766"><ele>772.2</ele><time>2026-04-12T07:21:28.649Z</time></trkpt><trkpt lat="43.8531278" lon="12.3802801"><ele>773.8000000000001</ele><time>2026-04-12T07:21:29.642Z</time></trkpt><trkpt lat="43.8530365" lon="12.3800925"><ele>775.4000000000001</ele><time>2026-04-12T07:21:31.638Z</time></trkpt><trkpt lat="43.8529904" lon="12.3799956"><ele>777.0</ele><time>2026-04-12T07:21:32.631Z</time></trkpt><trkpt lat="43.852941" lon="12.379894"><ele>777.0</ele><time>2026-04-12T07:21:33.639Z</time></trkpt><trkpt lat="43.8528981" lon="12.3797912"><ele>777.0</ele><time>2026-04-12T07:21:34.644Z</time></trkpt><trkpt lat="43.8528583" lon="12.379676"><ele>777.0</ele><time>2026-04-12T07:21:35.629Z</time></trkpt><trkpt lat="43.852821" lon="12.3795545"><ele>777.0</ele><time>2026-04-12T07:21:36.638Z</time></trkpt><trkpt lat="43.8527884" lon="12.3794439"><ele>777.0</ele><time>2026-04-12T07:21:37.628Z</time></trkpt><trkpt lat="43.852756" lon="12.3793222"><ele>778.6</ele><time>2026-04-12T07:21:38.642Z</time></trkpt><trkpt lat="43.8527259" lon="12.379188"><ele>780.2</ele><time>2026-04-12T07:21:39.629Z</time></trkpt><trkpt lat="43.8527078" lon="12.379037"><ele>781.8</ele><time>2026-04-12T07:21:40.642Z</time></trkpt><trkpt lat="43.8526959" lon="12.3788812"><ele>783.4</ele><time>2026-04-12T07:21:41.73Z</time></trkpt><trkpt lat="43.8526817" lon="12.3787314"><ele>785.0</ele><time>2026-04-12T07:21:42.7Z</time></trkpt><trkpt lat="43.8526585" lon="12.3786073"><ele>786.0</ele><time>2026-04-12T07:21:43.636Z</time></trkpt><trkpt lat="43.8526152" lon="12.3784967"><ele>787.0</ele><time>2026-04-12T07:21:44.645Z</time></trkpt><trkpt lat="43.8525403" lon="12.3783967"><ele>788.0</ele><time>2026-04-12T07:21:45.634Z</time></trkpt><trkpt lat="43.852456" lon="12.3783016"><ele>789.0</ele><time>2026-04-12T07:21:46.641Z</time></trkpt><trkpt lat="43.8523512" lon="12.3782157"><ele>790.0</ele><time>2026-04-12T07:21:47.632Z</time></trkpt><trkpt lat="43.8522346" lon="12.3781086"><ele>791.3333333333333</ele><time>2026-04-12T07:21:48.628Z</time></trkpt><trkpt lat="43.8521108" lon="12.3779915"><ele>792.6666666666667</ele><time>2026-04-12T07:21:49.631Z</time></trkpt><trkpt lat="43.8520021" lon="12.3778798"><ele>794.0</ele><time>2026-04-12T07:21:50.636Z</time></trkpt><trkpt lat="43.8518177" lon="12.3776949"><ele>794.6</ele><time>2026-04-12T07:21:52.726Z</time></trkpt><trkpt lat="43.851742" lon="12.3776194"><ele>795.2</ele><time>2026-04-12T07:21:53.727Z</time></trkpt><trkpt lat="43.8516867" lon="12.3775525"><ele>795.8000000000001</ele><time>2026-04-12T07:21:54.627Z</time></trkpt><trkpt lat="43.8516248" lon="12.3774332"><ele>796.4000000000001</ele><time>2026-04-12T07:21:56.631Z</time></trkpt><trkpt lat="43.8515975" lon="12.3772692"><ele>797.0</ele><time>2026-04-12T07:21:58.668Z</time></trkpt><trkpt lat="43.8515825" lon="12.377169"><ele>798.2</ele><time>2026-04-12T07:21:59.64Z</time></trkpt><trkpt lat="43.8515521" lon="12.3770668"><ele>799.4000000000001</ele><time>2026-04-12T07:22:00.641Z</time></trkpt><trkpt lat="43.8515174" lon="12.3769632"><ele>800.5999999999999</ele><time>2026-04-12T07:22:01.633Z</time></trkpt><trkpt lat="43.8514706" lon="12.376862"><ele>801.8</ele><time>2026-04-12T07:22:02.636Z</time></trkpt><trkpt lat="43.8514229" lon="12.3767488"><ele>803.0</ele><time>2026-04-12T07:22:03.64Z</time></trkpt><trkpt lat="43.8513705" lon="12.3766161"><ele>803.0</ele><time>2026-04-12T07:22:04.658Z</time></trkpt><trkpt lat="43.8513186" lon="12.3764664"><ele>803.0</ele><time>2026-04-12T07:22:05.639Z</time></trkpt><trkpt lat="43.8512637" lon="12.3763005"><ele>803.0</ele><time>2026-04-12T07:22:06.639Z</time></trkpt><trkpt lat="43.8512071" lon="12.3761199"><ele>803.0</ele><time>2026-04-12T07:22:07.632Z</time></trkpt><trkpt lat="43.8511454" lon="12.3759419"><ele>804.25</ele><time>2026-04-12T07:22:08.636Z</time></trkpt><trkpt lat="43.8510772" lon="12.3757557"><ele>805.5</ele><time>2026-04-12T07:22:09.645Z</time></trkpt><trkpt lat="43.8510122" lon="12.3755663"><ele>806.75</ele><time>2026-04-12T07:22:10.634Z</time></trkpt><trkpt lat="43.8509638" lon="12.3753747"><ele>808.0</ele><time>2026-04-12T07:22:11.636Z</time></trkpt><trkpt lat="43.8509104" lon="12.3749431"><ele>809.25</ele><time>2026-04-12T07:22:13.639Z</time></trkpt><trkpt lat="43.8508994" lon="12.3747221"><ele>810.5</ele><time>2026-04-12T07:22:14.629Z</time></trkpt><trkpt lat="43.850886" lon="12.3745255"><ele>811.75</ele><time>2026-04-12T07:22:15.629Z</time></trkpt><trkpt lat="43.8508736" lon="12.374344"><ele>813.0</ele><time>2026-04-12T07:22:16.732Z</time></trkpt><trkpt lat="43.8508607" lon="12.3741862"><ele>814.5999999999999</ele><time>2026-04-12T07:22:17.635Z</time></trkpt><trkpt lat="43.8508417" lon="12.3740415"><ele>816.1999999999999</ele><time>2026-04-12T07:22:18.683Z</time></trkpt><trkpt lat="43.8508144" lon="12.3739205"><ele>817.8</ele><time>2026-04-12T07:22:19.633Z</time></trkpt><trkpt lat="43.850756" lon="12.3738204"><ele>819.4</ele><time>2026-04-12T07:22:20.634Z</time></trkpt><trkpt lat="43.8506656" lon="12.3737739"><ele>821.0</ele><time>2026-04-12T07:22:21.629Z</time></trkpt><trkpt lat="43.8505621" lon="12.3737548"><ele>822.75</ele><time>2026-04-12T07:22:22.658Z</time></trkpt><trkpt lat="43.850442" lon="12.3737832"><ele>824.5</ele><time>2026-04-12T07:22:23.628Z</time></trkpt><trkpt lat="43.8503134" lon="12.3737897"><ele>826.25</ele><time>2026-04-12T07:22:24.72Z</time></trkpt><trkpt lat="43.8501753" lon="12.3737579"><ele>828.0</ele><time>2026-04-12T07:22:25.654Z</time></trkpt><trkpt lat="43.8500344" lon="12.3737117"><ele>830.5</ele><time>2026-04-12T07:22:26.634Z</time></trkpt><trkpt lat="43.8498985" lon="12.3736524"><ele>833.0</ele><time>2026-04-12T07:22:27.639Z</time></trkpt><trkpt lat="43.8497648" lon="12.3736008"><ele>835.5</ele><time>2026-04-12T07:22:28.633Z</time></trkpt><trkpt lat="43.849627" lon="12.3735433"><ele>838.0</ele><time>2026-04-12T07:22:29.635Z</time></trkpt><trkpt lat="43.8494883" lon="12.3734784"><ele>838.0</ele><time>2026-04-12T07:22:30.653Z</time></trkpt><trkpt lat="43.8493488" lon="12.3734177"><ele>838.0</ele><time>2026-04-12T07:22:31.641Z</time></trkpt><trkpt lat="43.8492035" lon="12.3733588"><ele>838.0</ele><time>2026-04-12T07:22:32.641Z</time></trkpt><trkpt lat="43.8489068" lon="12.3733413"><ele>838.0</ele><time>2026-04-12T07:22:34.621Z</time></trkpt><trkpt lat="43.8487451" lon="12.3734007"><ele>838.0</ele><time>2026-04-12T07:22:35.653Z</time></trkpt><trkpt lat="43.8485944" lon="12.37345"><ele>838.0</ele><time>2026-04-12T07:22:36.724Z</time></trkpt><trkpt lat="43.848442" lon="12.3734764"><ele>841.3333333333333</ele><time>2026-04-12T07:22:37.639Z</time></trkpt><trkpt lat="43.8482951" lon="12.3735072"><ele>844.6666666666667</ele><time>2026-04-12T07:22:38.743Z</time></trkpt><trkpt lat="43.8481436" lon="12.373524"><ele>848.0</ele><time>2026-04-12T07:22:39.65Z</time></trkpt><trkpt lat="43.8479806" lon="12.3735416"><ele>848.0</ele><time>2026-04-12T07:22:40.635Z</time></trkpt><trkpt lat="43.847815" lon="12.3735764"><ele>848.0</ele><time>2026-04-12T07:22:41.657Z</time></trkpt><trkpt lat="43.8476516" lon="12.3736124"><ele>848.0</ele><time>2026-04-12T07:22:42.635Z</time></trkpt><trkpt lat="43.8474999" lon="12.3736717"><ele>848.0</ele><time>2026-04-12T07:22:43.662Z</time></trkpt><trkpt lat="43.8473499" lon="12.3737121"><ele>848.0</ele><time>2026-04-12T07:22:44.629Z</time></trkpt><trkpt lat="43.8471984" lon="12.3737411"><ele>848.0</ele><time>2026-04-12T07:22:45.632Z</time></trkpt><trkpt lat="43.8470406" lon="12.3737694"><ele>848.0</ele><time>2026-04-12T07:22:46.636Z</time></trkpt><trkpt lat="43.8468726" lon="12.3737962"><ele>848.0</ele><time>2026-04-12T07:22:47.645Z</time></trkpt><trkpt lat="43.846692" lon="12.3738143"><ele>848.0</ele><time>2026-04-12T07:22:48.649Z</time></trkpt><trkpt lat="43.8465049" lon="12.3738343"><ele>847.6666666666667</ele><time>2026-04-12T07:22:49.624Z</time></trkpt><trkpt lat="43.8463273" lon="12.373846"><ele>847.3333333333333</ele><time>2026-04-12T07:22:50.64Z</time></trkpt><trkpt lat="43.8461588" lon="12.3738658"><ele>847.0</ele><time>2026-04-12T07:22:51.639Z</time></trkpt><trkpt lat="43.8460037" lon="12.3738794"><ele>847.0</ele><time>2026-04-12T07:22:52.647Z</time></trkpt><trkpt lat="43.8458603" lon="12.3738789"><ele>847.0</ele><time>2026-04-12T07:22:53.634Z</time></trkpt><trkpt lat="43.8455751" lon="12.3738403"><ele>847.0</ele><time>2026-04-12T07:22:55.635Z</time></trkpt><trkpt lat="43.8454195" lon="12.3738035"><ele>847.0</ele><time>2026-04-12T07:22:56.661Z</time></trkpt><trkpt lat="43.8452641" lon="12.3737524"><ele>847.0</ele><time>2026-04-12T07:22:57.639Z</time></trkpt><trkpt lat="43.8451021" lon="12.3736871"><ele>847.0</ele><time>2026-04-12T07:22:58.627Z</time></trkpt><trkpt lat="43.8449313" lon="12.3736348"><ele>848.0</ele><time>2026-04-12T07:22:59.624Z</time></trkpt><trkpt lat="43.8447519" lon="12.3735951"><ele>849.0</ele><time>2026-04-12T07:23:00.643Z</time></trkpt><trkpt lat="43.8445651" lon="12.3735644"><ele>850.0</ele><time>2026-04-12T07:23:01.646Z</time></trkpt><trkpt lat="43.8443744" lon="12.3735526"><ele>848.3333333333333</ele><time>2026-04-12T07:23:02.666Z</time></trkpt><trkpt lat="43.8441819" lon="12.3735424"><ele>846.6666666666667</ele><time>2026-04-12T07:23:03.622Z</time></trkpt><trkpt lat="43.8439815" lon="12.3735219"><ele>845.0</ele><time>2026-04-12T07:23:04.623Z</time></trkpt><trkpt lat="43.8437757" lon="12.3734825"><ele>845.0</ele><time>2026-04-12T07:23:05.655Z</time></trkpt><trkpt lat="43.8435723" lon="12.3734251"><ele>845.0</ele><time>2026-04-12T07:23:06.618Z</time></trkpt><trkpt lat="43.8433689" lon="12.3733667"><ele>845.0</ele><time>2026-04-12T07:23:07.756Z</time></trkpt><trkpt lat="43.8431563" lon="12.3733303"><ele>843.3333333333334</ele><time>2026-04-12T07:23:08.66Z</time></trkpt><trkpt lat="43.8429412" lon="12.373294"><ele>841.6666666666667</ele><time>2026-04-12T07:23:09.652Z</time></trkpt><trkpt lat="43.8427247" lon="12.3732555"><ele>840.0</ele><time>2026-04-12T07:23:10.731Z</time></trkpt><trkpt lat="43.8425178" lon="12.3732106"><ele>838.0</ele><time>2026-04-12T07:23:11.637Z</time></trkpt><trkpt lat="43.8423213" lon="12.3731647"><ele>836.0</ele><time>2026-04-12T07:23:12.662Z</time></trkpt><trkpt lat="43.842133" lon="12.3731102"><ele>834.0</ele><time>2026-04-12T07:23:13.647Z</time></trkpt><trkpt lat="43.841962" lon="12.3730563"><ele>837.0</ele><time>2026-04-12T07:23:14.658Z</time></trkpt><trkpt lat="43.8416442" lon="12.3729068"><ele>840.0</ele><time>2026-04-12T07:23:16.64Z</time></trkpt><trkpt lat="43.8414998" lon="12.372789"><ele>840.0</ele><time>2026-04-12T07:23:17.681Z</time></trkpt><trkpt lat="43.8413588" lon="12.3726437"><ele>840.0</ele><time>2026-04-12T07:23:18.639Z</time></trkpt><trkpt lat="43.8412145" lon="12.3724851"><ele>840.0</ele><time>2026-04-12T07:23:19.648Z</time></trkpt><trkpt lat="43.8410682" lon="12.3723197"><ele>840.3333333333333</ele><time>2026-04-12T07:23:20.639Z</time></trkpt><trkpt lat="43.8409171" lon="12.3721498"><ele>840.6666666666666</ele><time>2026-04-12T07:23:21.648Z</time></trkpt><trkpt lat="43.8407628" lon="12.3719786"><ele>841.0</ele><time>2026-04-12T07:23:22.646Z</time></trkpt><trkpt lat="43.8406089" lon="12.3718204"><ele>841.0</ele><time>2026-04-12T07:23:23.642Z</time></trkpt><trkpt lat="43.8404442" lon="12.3716828"><ele>841.0</ele><time>2026-04-12T07:23:24.649Z</time></trkpt><trkpt lat="43.8402791" lon="12.3715689"><ele>841.0</ele><time>2026-04-12T07:23:25.638Z</time></trkpt><trkpt lat="43.8401153" lon="12.3714669"><ele>841.6666666666666</ele><time>2026-04-12T07:23:26.635Z</time></trkpt><trkpt lat="43.8399622" lon="12.371364"><ele>842.3333333333333</ele><time>2026-04-12T07:23:27.63Z</time></trkpt><trkpt lat="43.8398068" lon="12.3712496"><ele>843.0</ele><time>2026-04-12T07:23:28.631Z</time></trkpt><trkpt lat="43.8396546" lon="12.3711413"><ele>847.0</ele><time>2026-04-12T07:23:29.639Z</time></trkpt><trkpt lat="43.8394999" lon="12.3710384"><ele>851.0</ele><time>2026-04-12T07:23:30.658Z</time></trkpt><trkpt lat="43.8393389" lon="12.3709397"><ele>855.0</ele><time>2026-04-12T07:23:31.645Z</time></trkpt><trkpt lat="43.839173" lon="12.3708519"><ele>855.0</ele><time>2026-04-12T07:23:32.646Z</time></trkpt><trkpt lat="43.839007" lon="12.3707732"><ele>855.0</ele><time>2026-04-12T07:23:33.635Z</time></trkpt><trkpt lat="43.8388347" lon="12.3706921"><ele>855.0</ele><time>2026-04-12T07:23:34.644Z</time></trkpt><trkpt lat="43.8386652" lon="12.3706094"><ele>857.0</ele><time>2026-04-12T07:23:35.635Z</time></trkpt><trkpt lat="43.8383381" lon="12.3704786"><ele>859.0</ele><time>2026-04-12T07:23:37.639Z</time></trkpt><trkpt lat="43.8381597" lon="12.3704323"><ele>859.0</ele><time>2026-04-12T07:23:38.626Z</time></trkpt><trkpt lat="43.8379829" lon="12.3703978"><ele>859.0</ele><time>2026-04-12T07:23:39.637Z</time></trkpt><trkpt lat="43.8378165" lon="12.3703668"><ele>859.0</ele><time>2026-04-12T07:23:40.74Z</time></trkpt><trkpt lat="43.8376622" lon="12.3703485"><ele>858.6666666666666</ele><time>2026-04-12T07:23:41.641Z</time></trkpt><trkpt lat="43.8375156" lon="12.3703181"><ele>858.3333333333333</ele><time>2026-04-12T07:23:42.748Z</time></trkpt><trkpt lat="43.8372563" lon="12.3702112"><ele>858.0</ele><time>2026-04-12T07:23:44.667Z</time></trkpt><trkpt lat="43.8371519" lon="12.370112"><ele>858.0</ele><time>2026-04-12T07:23:45.644Z</time></trkpt><trkpt lat="43.8370852" lon="12.3699755"><ele>858.0</ele><time>2026-04-12T07:23:46.649Z</time></trkpt><trkpt lat="43.8370427" lon="12.3698009"><ele>858.0</ele><time>2026-04-12T07:23:47.635Z</time></trkpt><trkpt lat="43.8370094" lon="12.3695966"><ele>858.0</ele><time>2026-04-12T07:23:48.66Z</time></trkpt><trkpt lat="43.836958" lon="12.3693876"><ele>858.3333333333333</ele><time>2026-04-12T07:23:49.644Z</time></trkpt><trkpt lat="43.8368972" lon="12.3691633"><ele>858.6666666666666</ele><time>2026-04-12T07:23:50.636Z</time></trkpt><trkpt lat="43.836821" lon="12.3689398"><ele>859.0</ele><time>2026-04-12T07:23:51.643Z</time></trkpt><trkpt lat="43.8367436" lon="12.3687003"><ele>859.0</ele><time>2026-04-12T07:23:52.65Z</time></trkpt><trkpt lat="43.8366637" lon="12.3684617"><ele>859.0</ele><time>2026-04-12T07:23:53.629Z</time></trkpt><trkpt lat="43.8365796" lon="12.3682013"><ele>859.0</ele><time>2026-04-12T07:23:54.668Z</time></trkpt><trkpt lat="43.8364952" lon="12.3679453"><ele>862.0</ele><time>2026-04-12T07:23:55.629Z</time></trkpt><trkpt lat="43.8364136" lon="12.3676846"><ele>865.0</ele><time>2026-04-12T07:23:56.647Z</time></trkpt><trkpt lat="43.8362354" lon="12.3671631"><ele>868.6666666666666</ele><time>2026-04-12T07:23:58.63Z</time></trkpt><trkpt lat="43.8361419" lon="12.3668973"><ele>872.3333333333333</ele><time>2026-04-12T07:23:59.633Z</time></trkpt><trkpt lat="43.8360427" lon="12.3666443"><ele>876.0</ele><time>2026-04-12T07:24:00.647Z</time></trkpt><trkpt lat="43.8359433" lon="12.3664108"><ele>865.6666666666667</ele><time>2026-04-12T07:24:01.645Z</time></trkpt><trkpt lat="43.8358534" lon="12.3661956"><ele>855.3333333333334</ele><time>2026-04-12T07:24:02.642Z</time></trkpt><trkpt lat="43.8358" lon="12.3659917"><ele>845.0</ele><time>2026-04-12T07:24:03.631Z</time></trkpt><trkpt lat="43.8357762" lon="12.365788"><ele>845.0</ele><time>2026-04-12T07:24:04.634Z</time></trkpt><trkpt lat="43.8357945" lon="12.3655758"><ele>845.0</ele><time>2026-04-12T07:24:05.632Z</time></trkpt><trkpt lat="43.835843" lon="12.3653615"><ele>845.0</ele><time>2026-04-12T07:24:06.628Z</time></trkpt><trkpt lat="43.8359096" lon="12.3651473"><ele>848.0</ele><time>2026-04-12T07:24:07.636Z</time></trkpt><trkpt lat="43.8360004" lon="12.3649391"><ele>851.0</ele><time>2026-04-12T07:24:08.631Z</time></trkpt><trkpt lat="43.8361095" lon="12.3647445"><ele>854.0</ele><time>2026-04-12T07:24:09.651Z</time></trkpt><trkpt lat="43.8362332" lon="12.3645799"><ele>854.0</ele><time>2026-04-12T07:24:10.629Z</time></trkpt><trkpt lat="43.8363779" lon="12.3644542"><ele>854.0</ele><time>2026-04-12T07:24:11.63Z</time></trkpt><trkpt lat="43.8365451" lon="12.3643679"><ele>854.0</ele><time>2026-04-12T07:24:12.723Z</time></trkpt><trkpt lat="43.8367197" lon="12.3642753"><ele>862.6666666666667</ele><time>2026-04-12T07:24:13.627Z</time></trkpt><trkpt lat="43.8368936" lon="12.3641594"><ele>871.3333333333333</ele><time>2026-04-12T07:24:14.635Z</time></trkpt><trkpt lat="43.8370643" lon="12.3640289"><ele>880.0</ele><time>2026-04-12T07:24:15.705Z</time></trkpt><trkpt lat="43.8372196" lon="12.3638885"><ele>880.0</ele><time>2026-04-12T07:24:16.647Z</time></trkpt><trkpt lat="43.8373701" lon="12.3637302"><ele>880.0</ele><time>2026-04-12T07:24:17.734Z</time></trkpt><trkpt lat="43.8376707" lon="12.3634394"><ele>880.0</ele><time>2026-04-12T07:24:19.622Z</time></trkpt><trkpt lat="43.8378281" lon="12.3633068"><ele>880.0</ele><time>2026-04-12T07:24:20.632Z</time></trkpt><trkpt lat="43.8379723" lon="12.3631972"><ele>880.0</ele><time>2026-04-12T07:24:21.643Z</time></trkpt><trkpt lat="43.8381001" lon="12.3630991"><ele>879.5</ele><time>2026-04-12T07:24:22.644Z</time></trkpt><trkpt lat="43.8382215" lon="12.3630109"><ele>879.0</ele><time>2026-04-12T07:24:23.635Z</time></trkpt><trkpt lat="43.838343" lon="12.3629286"><ele>878.5</ele><time>2026-04-12T07:24:24.667Z</time></trkpt><trkpt lat="43.8384613" lon="12.3628257"><ele>878.0</ele><time>2026-04-12T07:24:25.635Z</time></trkpt><trkpt lat="43.8385648" lon="12.3626984"><ele>878.0</ele><time>2026-04-12T07:24:26.643Z</time></trkpt><trkpt lat="43.8386702" lon="12.3625383"><ele>878.0</ele><time>2026-04-12T07:24:27.633Z</time></trkpt><trkpt lat="43.838769" lon="12.3623566"><ele>878.0</ele><time>2026-04-12T07:24:28.633Z</time></trkpt><trkpt lat="43.8388576" lon="12.3621496"><ele>876.3333333333334</ele><time>2026-04-12T07:24:29.655Z</time></trkpt><trkpt lat="43.8389306" lon="12.3619386"><ele>874.6666666666667</ele><time>2026-04-12T07:24:30.633Z</time></trkpt><trkpt lat="43.8389877" lon="12.3617279"><ele>873.0</ele><time>2026-04-12T07:24:31.626Z</time></trkpt><trkpt lat="43.8390135" lon="12.361523"><ele>874.0</ele><time>2026-04-12T07:24:32.63Z</time></trkpt><trkpt lat="43.8390083" lon="12.3613062"><ele>875.0</ele><time>2026-04-12T07:24:33.635Z</time></trkpt><trkpt lat="43.8389832" lon="12.3610896"><ele>876.0</ele><time>2026-04-12T07:24:34.705Z</time></trkpt><trkpt lat="43.838943" lon="12.3608647"><ele>876.0</ele><time>2026-04-12T07:24:35.619Z</time></trkpt><trkpt lat="43.8389059" lon="12.3606321"><ele>876.0</ele><time>2026-04-12T07:24:36.639Z</time></trkpt><trkpt lat="43.8388688" lon="12.3604001"><ele>876.0</ele><time>2026-04-12T07:24:37.62Z</time></trkpt><trkpt lat="43.8388456" lon="12.360176"><ele>876.5</ele><time>2026-04-12T07:24:38.635Z</time></trkpt><trkpt lat="43.8388653" lon="12.3597381"><ele>877.0</ele><time>2026-04-12T07:24:40.624Z</time></trkpt><trkpt lat="43.8389032" lon="12.3595077"><ele>876.0</ele><time>2026-04-12T07:24:41.62Z</time></trkpt><trkpt lat="43.8389707" lon="12.3592792"><ele>875.0</ele><time>2026-04-12T07:24:42.631Z</time></trkpt><trkpt lat="43.8390522" lon="12.3590565"><ele>874.0</ele><time>2026-04-12T07:24:43.633Z</time></trkpt><trkpt lat="43.839141" lon="12.3588195"><ele>873.6666666666666</ele><time>2026-04-12T07:24:44.63Z</time></trkpt><trkpt lat="43.8392281" lon="12.3585755"><ele>873.3333333333333</ele><time>2026-04-12T07:24:45.63Z</time></trkpt><trkpt lat="43.8393113" lon="12.3583266"><ele>873.0</ele><time>2026-04-12T07:24:46.623Z</time></trkpt><trkpt lat="43.8393946" lon="12.3580868"><ele>878.3333333333333</ele><time>2026-04-12T07:24:47.632Z</time></trkpt><trkpt lat="43.8394845" lon="12.3578607"><ele>883.6666666666666</ele><time>2026-04-12T07:24:48.63Z</time></trkpt><trkpt lat="43.8395665" lon="12.3576452"><ele>889.0</ele><time>2026-04-12T07:24:49.625Z</time></trkpt><trkpt lat="43.8396384" lon="12.3574519"><ele>889.0</ele><time>2026-04-12T07:24:50.622Z</time></trkpt><trkpt lat="43.8397032" lon="12.3572929"><ele>889.0000000000001</ele><time>2026-04-12T07:24:51.619Z</time></trkpt><trkpt lat="43.8397534" lon="12.3571745"><ele>889.0000000000001</ele><time>2026-04-12T07:24:52.615Z</time></trkpt><trkpt lat="43.8397875" lon="12.3570959"><ele>889.0</ele><time>2026-04-12T07:24:53.624Z</time></trkpt><trkpt lat="43.8398134" lon="12.3570101"><ele>889.0</ele><time>2026-04-12T07:24:55.635Z</time></trkpt><trkpt lat="43.8397752" lon="12.3568767"><ele>889.5</ele><time>2026-04-12T07:24:57.637Z</time></trkpt><trkpt lat="43.8397103" lon="12.3568207"><ele>890.0</ele><time>2026-04-12T07:24:58.625Z</time></trkpt><trkpt lat="43.8396295" lon="12.356794"><ele>890.5</ele><time>2026-04-12T07:24:59.672Z</time></trkpt><trkpt lat="43.8394097" lon="12.3567834"><ele>891.0</ele><time>2026-04-12T07:25:01.649Z</time></trkpt><trkpt lat="43.8392842" lon="12.356836"><ele>889.75</ele><time>2026-04-12T07:25:02.617Z</time></trkpt><trkpt lat="43.8391666" lon="12.3569429"><ele>888.5</ele><time>2026-04-12T07:25:03.638Z</time></trkpt><trkpt lat="43.8390692" lon="12.357085"><ele>887.25</ele><time>2026-04-12T07:25:04.617Z</time></trkpt><trkpt lat="43.8389795" lon="12.3572574"><ele>886.0</ele><time>2026-04-12T07:25:05.64Z</time></trkpt><trkpt lat="43.838884" lon="12.3574331"><ele>884.0</ele><time>2026-04-12T07:25:06.64Z</time></trkpt><trkpt lat="43.8387839" lon="12.3576159"><ele>882.0</ele><time>2026-04-12T07:25:07.635Z</time></trkpt><trkpt lat="43.8386858" lon="12.3577973"><ele>880.0</ele><time>2026-04-12T07:25:08.636Z</time></trkpt><trkpt lat="43.8386064" lon="12.3579738"><ele>878.25</ele><time>2026-04-12T07:25:09.624Z</time></trkpt><trkpt lat="43.8385243" lon="12.3581264"><ele>876.5</ele><time>2026-04-12T07:25:10.66Z</time></trkpt><trkpt lat="43.8384394" lon="12.3582558"><ele>874.75</ele><time>2026-04-12T07:25:11.63Z</time></trkpt><trkpt lat="43.8383326" lon="12.3583489"><ele>873.0</ele><time>2026-04-12T07:25:12.637Z</time></trkpt><trkpt lat="43.8382077" lon="12.358397"><ele>871.75</ele><time>2026-04-12T07:25:13.639Z</time></trkpt><trkpt lat="43.8380721" lon="12.3583742"><ele>870.5</ele><time>2026-04-12T07:25:14.638Z</time></trkpt><trkpt lat="43.8379378" lon="12.3583303"><ele>869.25</ele><time>2026-04-12T07:25:15.624Z</time></trkpt><trkpt lat="43.8377932" lon="12.3582743"><ele>868.0</ele><time>2026-04-12T07:25:16.643Z</time></trkpt><trkpt lat="43.8376522" lon="12.3582234"><ele>868.5</ele><time>2026-04-12T07:25:17.633Z</time></trkpt><trkpt lat="43.837512" lon="12.3581815"><ele>869.0</ele><time>2026-04-12T07:25:18.637Z</time></trkpt><trkpt lat="43.8373786" lon="12.3581417"><ele>869.5</ele><time>2026-04-12T07:25:19.641Z</time></trkpt><trkpt lat="43.837249" lon="12.3581045"><ele>870.0</ele><time>2026-04-12T07:25:20.638Z</time></trkpt><trkpt lat="43.8369879" lon="12.3580343"><ele>870.0</ele><time>2026-04-12T07:25:22.646Z</time></trkpt><trkpt lat="43.8368453" lon="12.3579975"><ele>870.0</ele><time>2026-04-12T07:25:23.637Z</time></trkpt><trkpt lat="43.8366913" lon="12.3579611"><ele>870.0</ele><time>2026-04-12T07:25:24.638Z</time></trkpt><trkpt lat="43.836537" lon="12.3579306"><ele>867.3333333333333</ele><time>2026-04-12T07:25:25.638Z</time></trkpt><trkpt lat="43.836387" lon="12.3578975"><ele>864.6666666666666</ele><time>2026-04-12T07:25:26.643Z</time></trkpt><trkpt lat="43.836232" lon="12.3578611"><ele>862.0</ele><time>2026-04-12T07:25:27.731Z</time></trkpt><trkpt lat="43.8360796" lon="12.3578248"><ele>859.3333333333333</ele><time>2026-04-12T07:25:28.644Z</time></trkpt><trkpt lat="43.8359264" lon="12.3577971"><ele>856.6666666666667</ele><time>2026-04-12T07:25:29.668Z</time></trkpt><trkpt lat="43.8357723" lon="12.3577867"><ele>854.0</ele><time>2026-04-12T07:25:30.636Z</time></trkpt><trkpt lat="43.835607" lon="12.3577966"><ele>854.0</ele><time>2026-04-12T07:25:31.634Z</time></trkpt><trkpt lat="43.8354413" lon="12.357826"><ele>854.0</ele><time>2026-04-12T07:25:32.639Z</time></trkpt><trkpt lat="43.8352813" lon="12.3578618"><ele>854.0</ele><time>2026-04-12T07:25:33.652Z</time></trkpt><trkpt lat="43.835123" lon="12.3578907"><ele>853.0</ele><time>2026-04-12T07:25:34.651Z</time></trkpt><trkpt lat="43.834975" lon="12.357911"><ele>852.0</ele><time>2026-04-12T07:25:35.644Z</time></trkpt><trkpt lat="43.8348267" lon="12.3579184"><ele>851.0</ele><time>2026-04-12T07:25:36.64Z</time></trkpt><trkpt lat="43.834677" lon="12.3579313"><ele>850.0</ele><time>2026-04-12T07:25:37.646Z</time></trkpt><trkpt lat="43.8345219" lon="12.3579503"><ele>850.0</ele><time>2026-04-12T07:25:38.635Z</time></trkpt><trkpt lat="43.8343624" lon="12.3579655"><ele>850.0</ele><time>2026-04-12T07:25:39.736Z</time></trkpt><trkpt lat="43.8342082" lon="12.3579849"><ele>850.0</ele><time>2026-04-12T07:25:40.635Z</time></trkpt><trkpt lat="43.8340611" lon="12.3580108"><ele>845.0</ele><time>2026-04-12T07:25:41.641Z</time></trkpt><trkpt lat="43.8337849" lon="12.3580602"><ele>840.0</ele><time>2026-04-12T07:25:43.637Z</time></trkpt><trkpt lat="43.8336515" lon="12.3581212"><ele>835.0</ele><time>2026-04-12T07:25:44.648Z</time></trkpt><trkpt lat="43.833521" lon="12.3582278"><ele>835.3333333333333</ele><time>2026-04-12T07:25:45.629Z</time></trkpt><trkpt lat="43.8334132" lon="12.358376"><ele>835.6666666666667</ele><time>2026-04-12T07:25:46.624Z</time></trkpt><trkpt lat="43.8333022" lon="12.358528"><ele>836.0</ele><time>2026-04-12T07:25:47.629Z</time></trkpt><trkpt lat="43.8331849" lon="12.3586488"><ele>836.0</ele><time>2026-04-12T07:25:48.667Z</time></trkpt><trkpt lat="43.833073" lon="12.3587521"><ele>836.0</ele><time>2026-04-12T07:25:49.687Z</time></trkpt><trkpt lat="43.8329419" lon="12.3588507"><ele>836.0</ele><time>2026-04-12T07:25:50.654Z</time></trkpt><trkpt lat="43.8328046" lon="12.3589572"><ele>836.0</ele><time>2026-04-12T07:25:51.655Z</time></trkpt><trkpt lat="43.8326651" lon="12.3590766"><ele>833.0</ele><time>2026-04-12T07:25:52.64Z</time></trkpt><trkpt lat="43.8325355" lon="12.3591937"><ele>830.0</ele><time>2026-04-12T07:25:53.628Z</time></trkpt><trkpt lat="43.8324127" lon="12.3593083"><ele>827.0</ele><time>2026-04-12T07:25:54.646Z</time></trkpt><trkpt lat="43.8322928" lon="12.3594265"><ele>827.0</ele><time>2026-04-12T07:25:55.645Z</time></trkpt><trkpt lat="43.8321741" lon="12.3595381"><ele>827.0</ele><time>2026-04-12T07:25:56.656Z</time></trkpt><trkpt lat="43.83205" lon="12.3596493"><ele>827.0</ele><time>2026-04-12T07:25:57.629Z</time></trkpt><trkpt lat="43.831924" lon="12.3597593"><ele>827.0</ele><time>2026-04-12T07:25:58.638Z</time></trkpt><trkpt lat="43.8318001" lon="12.359858"><ele>825.0</ele><time>2026-04-12T07:25:59.637Z</time></trkpt><trkpt lat="43.8316637" lon="12.3599625"><ele>823.0</ele><time>2026-04-12T07:26:00.663Z</time></trkpt><trkpt lat="43.8315164" lon="12.3600806"><ele>821.0</ele><time>2026-04-12T07:26:01.64Z</time></trkpt><trkpt lat="43.8313508" lon="12.3602068"><ele>821.0</ele><time>2026-04-12T07:26:02.633Z</time></trkpt><trkpt lat="43.8309894" lon="12.3604534"><ele>821.0</ele><time>2026-04-12T07:26:04.64Z</time></trkpt><trkpt lat="43.8307994" lon="12.3605807"><ele>816.3333333333334</ele><time>2026-04-12T07:26:05.656Z</time></trkpt><trkpt lat="43.8306106" lon="12.3607054"><ele>811.6666666666667</ele><time>2026-04-12T07:26:06.626Z</time></trkpt><trkpt lat="43.8304326" lon="12.3608273"><ele>807.0</ele><time>2026-04-12T07:26:07.657Z</time></trkpt><trkpt lat="43.8302639" lon="12.3609423"><ele>804.3333333333333</ele><time>2026-04-12T07:26:08.642Z</time></trkpt><trkpt lat="43.8301065" lon="12.3610719"><ele>801.6666666666666</ele><time>2026-04-12T07:26:09.637Z</time></trkpt><trkpt lat="43.8299704" lon="12.3612272"><ele>799.0</ele><time>2026-04-12T07:26:10.83Z</time></trkpt><trkpt lat="43.8297916" lon="12.3616171"><ele>799.0</ele><time>2026-04-12T07:26:12.635Z</time></trkpt><trkpt lat="43.8297192" lon="12.3618178"><ele>799.0</ele><time>2026-04-12T07:26:13.641Z</time></trkpt><trkpt lat="43.8296435" lon="12.3619824"><ele>799.0</ele><time>2026-04-12T07:26:14.649Z</time></trkpt><trkpt lat="43.8295366" lon="12.3620937"><ele>799.0</ele><time>2026-04-12T07:26:15.66Z</time></trkpt><trkpt lat="43.8294048" lon="12.3621647"><ele>795.6666666666666</ele><time>2026-04-12T07:26:16.632Z</time></trkpt><trkpt lat="43.8292599" lon="12.3622107"><ele>792.3333333333333</ele><time>2026-04-12T07:26:17.638Z</time></trkpt><trkpt lat="43.8291058" lon="12.3622656"><ele>789.0</ele><time>2026-04-12T07:26:18.627Z</time></trkpt><trkpt lat="43.8289635" lon="12.3623856"><ele>789.0</ele><time>2026-04-12T07:26:19.638Z</time></trkpt><trkpt lat="43.8288304" lon="12.362551"><ele>789.0</ele><time>2026-04-12T07:26:20.627Z</time></trkpt><trkpt lat="43.8287077" lon="12.3627253"><ele>789.0</ele><time>2026-04-12T07:26:21.66Z</time></trkpt><trkpt lat="43.8285946" lon="12.3628828"><ele>789.0</ele><time>2026-04-12T07:26:22.633Z</time></trkpt><trkpt lat="43.8284852" lon="12.3630219"><ele>789.0</ele><time>2026-04-12T07:26:23.644Z</time></trkpt><trkpt lat="43.8282268" lon="12.3632729"><ele>786.3333333333333</ele><time>2026-04-12T07:26:25.644Z</time></trkpt><trkpt lat="43.8280806" lon="12.3634016"><ele>783.6666666666666</ele><time>2026-04-12T07:26:26.688Z</time></trkpt><trkpt lat="43.8279288" lon="12.3635487"><ele>781.0</ele><time>2026-04-12T07:26:27.655Z</time></trkpt><trkpt lat="43.8277816" lon="12.3637031"><ele>781.0</ele><time>2026-04-12T07:26:28.644Z</time></trkpt><trkpt lat="43.8276443" lon="12.3638529"><ele>781.0</ele><time>2026-04-12T07:26:29.635Z</time></trkpt><trkpt lat="43.8275067" lon="12.3640085"><ele>781.0</ele><time>2026-04-12T07:26:30.637Z</time></trkpt><trkpt lat="43.8273696" lon="12.3641544"><ele>779.6666666666666</ele><time>2026-04-12T07:26:31.647Z</time></trkpt><trkpt lat="43.827226" lon="12.3642859"><ele>778.3333333333333</ele><time>2026-04-12T07:26:32.632Z</time></trkpt><trkpt lat="43.827084" lon="12.3643933"><ele>777.0</ele><time>2026-04-12T07:26:33.662Z</time></trkpt><trkpt lat="43.8269322" lon="12.3644837"><ele>781.0</ele><time>2026-04-12T07:26:34.647Z</time></trkpt><trkpt lat="43.8267864" lon="12.3645513"><ele>785.0</ele><time>2026-04-12T07:26:35.633Z</time></trkpt><trkpt lat="43.8266303" lon="12.3645989"><ele>789.0</ele><time>2026-04-12T07:26:36.654Z</time></trkpt><trkpt lat="43.8264615" lon="12.3645962"><ele>789.0</ele><time>2026-04-12T07:26:37.638Z</time></trkpt><trkpt lat="43.8263028" lon="12.3645321"><ele>789.0</ele><time>2026-04-12T07:26:38.647Z</time></trkpt><trkpt lat="43.8261371" lon="12.364451"><ele>789.0</ele><time>2026-04-12T07:26:39.659Z</time></trkpt><trkpt lat="43.8259818" lon="12.3643552"><ele>782.3333333333333</ele><time>2026-04-12T07:26:40.627Z</time></trkpt><trkpt lat="43.825838" lon="12.3642335"><ele>775.6666666666666</ele><time>2026-04-12T07:26:41.652Z</time></trkpt><trkpt lat="43.8257057" lon="12.3640817"><ele>769.0</ele><time>2026-04-12T07:26:42.631Z</time></trkpt><trkpt lat="43.8255744" lon="12.3639147"><ele>781.0</ele><time>2026-04-12T07:26:43.642Z</time></trkpt><trkpt lat="43.8254465" lon="12.3637432"><ele>793.0</ele><time>2026-04-12T07:26:44.704Z</time></trkpt><trkpt lat="43.8251574" lon="12.3634269"><ele>783.6666666666666</ele><time>2026-04-12T07:26:46.642Z</time></trkpt><trkpt lat="43.8250029" lon="12.3633061"><ele>774.3333333333333</ele><time>2026-04-12T07:26:47.637Z</time></trkpt><trkpt lat="43.8248446" lon="12.3632194"><ele>765.0</ele><time>2026-04-12T07:26:48.625Z</time></trkpt><trkpt lat="43.8246805" lon="12.3631675"><ele>765.0</ele><time>2026-04-12T07:26:49.638Z</time></trkpt><trkpt lat="43.8245212" lon="12.3631622"><ele>765.0</ele><time>2026-04-12T07:26:50.64Z</time></trkpt><trkpt lat="43.8243709" lon="12.363155"><ele>765.0</ele><time>2026-04-12T07:26:51.637Z</time></trkpt><trkpt lat="43.8242473" lon="12.3631345"><ele>765.0</ele><time>2026-04-12T07:26:52.664Z</time></trkpt><trkpt lat="43.8241414" lon="12.3630749"><ele>762.0</ele><time>2026-04-12T07:26:53.633Z</time></trkpt><trkpt lat="43.8240654" lon="12.3629875"><ele>759.0</ele><time>2026-04-12T07:26:54.625Z</time></trkpt><trkpt lat="43.8240712" lon="12.3628498"><ele>756.0</ele><time>2026-04-12T07:26:55.631Z</time></trkpt><trkpt lat="43.824122" lon="12.3627209"><ele>753.0</ele><time>2026-04-12T07:26:56.63Z</time></trkpt><trkpt lat="43.8241971" lon="12.362589"><ele>750.0</ele><time>2026-04-12T07:26:57.651Z</time></trkpt><trkpt lat="43.8242805" lon="12.3624393"><ele>750.0</ele><time>2026-04-12T07:26:58.64Z</time></trkpt><trkpt lat="43.8242968" lon="12.3622338"><ele>750.0</ele><time>2026-04-12T07:26:59.641Z</time></trkpt><trkpt lat="43.8242564" lon="12.3620306"><ele>750.0</ele><time>2026-04-12T07:27:00.645Z</time></trkpt><trkpt lat="43.8241929" lon="12.3618343"><ele>751.5</ele><time>2026-04-12T07:27:01.66Z</time></trkpt><trkpt lat="43.8241102" lon="12.3616721"><ele>753.0</ele><time>2026-04-12T07:27:02.633Z</time></trkpt><trkpt lat="43.8239873" lon="12.3615642"><ele>754.5</ele><time>2026-04-12T07:27:03.635Z</time></trkpt><trkpt lat="43.823842" lon="12.361487"><ele>756.0</ele><time>2026-04-12T07:27:04.719Z</time></trkpt><trkpt lat="43.8234948" lon="12.3614644"><ele>744.5</ele><time>2026-04-12T07:27:06.662Z</time></trkpt><trkpt lat="43.8231461" lon="12.36157"><ele>733.0</ele><time>2026-04-12T07:27:08.63Z</time></trkpt><trkpt lat="43.8229705" lon="12.3616295"><ele>733.0</ele><time>2026-04-12T07:27:09.625Z</time></trkpt><trkpt lat="43.8227938" lon="12.3616872"><ele>733.0</ele><time>2026-04-12T07:27:10.64Z</time></trkpt><trkpt lat="43.8226123" lon="12.3617478"><ele>733.0</ele><time>2026-04-12T07:27:11.638Z</time></trkpt><trkpt lat="43.8224333" lon="12.3618121"><ele>731.6666666666667</ele><time>2026-04-12T07:27:12.626Z</time></trkpt><trkpt lat="43.8222613" lon="12.3618815"><ele>730.3333333333334</ele><time>2026-04-12T07:27:13.649Z</time></trkpt><trkpt lat="43.8220904" lon="12.3619783"><ele>729.0</ele><time>2026-04-12T07:27:14.653Z</time></trkpt><trkpt lat="43.8219277" lon="12.3621096"><ele>734.3333333333334</ele><time>2026-04-12T07:27:15.71Z</time></trkpt><trkpt lat="43.8217753" lon="12.3622745"><ele>739.6666666666667</ele><time>2026-04-12T07:27:16.631Z</time></trkpt><trkpt lat="43.8216276" lon="12.3624542"><ele>745.0</ele><time>2026-04-12T07:27:17.731Z</time></trkpt><trkpt lat="43.8214845" lon="12.3626421"><ele>745.0</ele><time>2026-04-12T07:27:18.649Z</time></trkpt><trkpt lat="43.8213443" lon="12.3628289"><ele>745.0</ele><time>2026-04-12T07:27:19.705Z</time></trkpt><trkpt lat="43.8212095" lon="12.363016"><ele>745.0</ele><time>2026-04-12T07:27:20.644Z</time></trkpt><trkpt lat="43.8210881" lon="12.3631988"><ele>748.6666666666667</ele><time>2026-04-12T07:27:21.641Z</time></trkpt><trkpt lat="43.8209664" lon="12.3633716"><ele>752.3333333333334</ele><time>2026-04-12T07:27:22.622Z</time></trkpt><trkpt lat="43.8208485" lon="12.3635352"><ele>756.0</ele><time>2026-04-12T07:27:23.635Z</time></trkpt><trkpt lat="43.8207355" lon="12.3636634"><ele>756.0</ele><time>2026-04-12T07:27:24.633Z</time></trkpt><trkpt lat="43.8206366" lon="12.3637515"><ele>756.0</ele><time>2026-04-12T07:27:25.628Z</time></trkpt><trkpt lat="43.8204907" lon="12.3637837"><ele>756.0</ele><time>2026-04-12T07:27:26.724Z</time></trkpt><trkpt lat="43.8203229" lon="12.3637684"><ele>756.0</ele><time>2026-04-12T07:27:27.628Z</time></trkpt><trkpt lat="43.8199683" lon="12.3636936"><ele>758.3333333333334</ele><time>2026-04-12T07:27:29.638Z</time></trkpt><trkpt lat="43.8197955" lon="12.3636541"><ele>760.6666666666667</ele><time>2026-04-12T07:27:30.623Z</time></trkpt><trkpt lat="43.8196219" lon="12.3635839"><ele>763.0</ele><time>2026-04-12T07:27:31.633Z</time></trkpt><trkpt lat="43.8194614" lon="12.3634701"><ele>762.3333333333334</ele><time>2026-04-12T07:27:32.629Z</time></trkpt><trkpt lat="43.8192964" lon="12.3633282"><ele>761.6666666666666</ele><time>2026-04-12T07:27:33.627Z</time></trkpt><trkpt lat="43.8191435" lon="12.3632152"><ele>761.0</ele><time>2026-04-12T07:27:34.646Z</time></trkpt><trkpt lat="43.8189693" lon="12.3631747"><ele>761.0</ele><time>2026-04-12T07:27:35.621Z</time></trkpt><trkpt lat="43.8187918" lon="12.3631729"><ele>761.0</ele><time>2026-04-12T07:27:36.629Z</time></trkpt><trkpt lat="43.818615" lon="12.3632058"><ele>761.0</ele><time>2026-04-12T07:27:37.631Z</time></trkpt><trkpt lat="43.8184334" lon="12.3632552"><ele>762.3333333333333</ele><time>2026-04-12T07:27:38.628Z</time></trkpt><trkpt lat="43.8182519" lon="12.3633045"><ele>763.6666666666666</ele><time>2026-04-12T07:27:39.634Z</time></trkpt><trkpt lat="43.8180767" lon="12.3633418"><ele>765.0</ele><time>2026-04-12T07:27:40.618Z</time></trkpt><trkpt lat="43.817903" lon="12.3633866"><ele>765.0</ele><time>2026-04-12T07:27:41.627Z</time></trkpt><trkpt lat="43.8177176" lon="12.3634131"><ele>765.0</ele><time>2026-04-12T07:27:42.62Z</time></trkpt><trkpt lat="43.8175515" lon="12.3634354"><ele>765.0</ele><time>2026-04-12T07:27:43.641Z</time></trkpt><trkpt lat="43.8174042" lon="12.3634656"><ele>767.6666666666667</ele><time>2026-04-12T07:27:44.631Z</time></trkpt><trkpt lat="43.8172558" lon="12.3635279"><ele>770.3333333333334</ele><time>2026-04-12T07:27:45.666Z</time></trkpt><trkpt lat="43.8171219" lon="12.3636379"><ele>773.0</ele><time>2026-04-12T07:27:46.632Z</time></trkpt><trkpt lat="43.817011" lon="12.3637795"><ele>769.0</ele><time>2026-04-12T07:27:47.62Z</time></trkpt><trkpt lat="43.8169371" lon="12.363916"><ele>765.0</ele><time>2026-04-12T07:27:48.638Z</time></trkpt><trkpt lat="43.8168615" lon="12.3641799"><ele>761.0</ele><time>2026-04-12T07:27:50.632Z</time></trkpt><trkpt lat="43.8168546" lon="12.364277"><ele>757.0</ele><time>2026-04-12T07:27:51.637Z</time></trkpt><trkpt lat="43.8168293" lon="12.364389"><ele>761.0</ele><time>2026-04-12T07:27:53.636Z</time></trkpt><trkpt lat="43.8167095" lon="12.3644522"><ele>765.0</ele><time>2026-04-12T07:27:55.628Z</time></trkpt><trkpt lat="43.8166312" lon="12.3644918"><ele>769.0</ele><time>2026-04-12T07:27:56.624Z</time></trkpt><trkpt lat="43.8165411" lon="12.3645386"><ele>773.0</ele><time>2026-04-12T07:27:57.629Z</time></trkpt><trkpt lat="43.8164592" lon="12.3645782"><ele>777.0</ele><time>2026-04-12T07:27:58.619Z</time></trkpt><trkpt lat="43.8163851" lon="12.3646061"><ele>777.0</ele><time>2026-04-12T07:27:59.648Z</time></trkpt><trkpt lat="43.8163222" lon="12.3645946"><ele>777.0</ele><time>2026-04-12T07:28:00.738Z</time></trkpt><trkpt lat="43.8162299" lon="12.3645008"><ele>777.0</ele><time>2026-04-12T07:28:02.656Z</time></trkpt><trkpt lat="43.8161896" lon="12.3644225"><ele>777.0</ele><time>2026-04-12T07:28:03.657Z</time></trkpt><trkpt lat="43.8161353" lon="12.3643285"><ele>777.0</ele><time>2026-04-12T07:28:04.661Z</time></trkpt><trkpt lat="43.8160729" lon="12.3642151"><ele>777.0</ele><time>2026-04-12T07:28:05.649Z</time></trkpt><trkpt lat="43.8159924" lon="12.3641053"><ele>777.25</ele><time>2026-04-12T07:28:06.653Z</time></trkpt><trkpt lat="43.815897" lon="12.3639976"><ele>777.5</ele><time>2026-04-12T07:28:07.641Z</time></trkpt><trkpt lat="43.8157891" lon="12.3639039"><ele>777.75</ele><time>2026-04-12T07:28:08.64Z</time></trkpt><trkpt lat="43.8156796" lon="12.363816"><ele>778.0</ele><time>2026-04-12T07:28:09.633Z</time></trkpt><trkpt lat="43.815469" lon="12.3636238"><ele>778.0</ele><time>2026-04-12T07:28:11.64Z</time></trkpt><trkpt lat="43.8153684" lon="12.3634964"><ele>778.0</ele><time>2026-04-12T07:28:12.636Z</time></trkpt><trkpt lat="43.8152635" lon="12.363371"><ele>778.0</ele><time>2026-04-12T07:28:13.651Z</time></trkpt><trkpt lat="43.8151605" lon="12.36325"><ele>778.0</ele><time>2026-04-12T07:28:14.622Z</time></trkpt><trkpt lat="43.8150532" lon="12.3631386"><ele>778.0</ele><time>2026-04-12T07:28:15.632Z</time></trkpt><trkpt lat="43.8149326" lon="12.363047"><ele>778.0</ele><time>2026-04-12T07:28:16.648Z</time></trkpt><trkpt lat="43.8147941" lon="12.3629763"><ele>778.0</ele><time>2026-04-12T07:28:17.632Z</time></trkpt><trkpt lat="43.814666" lon="12.362931"><ele>778.0</ele><time>2026-04-12T07:28:18.656Z</time></trkpt><trkpt lat="43.8145603" lon="12.3628938"><ele>780.2</ele><time>2026-04-12T07:28:19.643Z</time></trkpt><trkpt lat="43.8144565" lon="12.3628515"><ele>782.4</ele><time>2026-04-12T07:28:20.623Z</time></trkpt><trkpt lat="43.8143938" lon="12.3628098"><ele>784.6</ele><time>2026-04-12T07:28:21.64Z</time></trkpt><trkpt lat="43.8143041" lon="12.3627617"><ele>786.8000000000001</ele><time>2026-04-12T07:28:22.65Z</time></trkpt><trkpt lat="43.8142189" lon="12.3626913"><ele>789.0</ele><time>2026-04-12T07:28:23.643Z</time></trkpt><trkpt lat="43.8141462" lon="12.3626024"><ele>789.0</ele><time>2026-04-12T07:28:24.63Z</time></trkpt><trkpt lat="43.8140707" lon="12.3625223"><ele>789.0</ele><time>2026-04-12T07:28:25.66Z</time></trkpt><trkpt lat="43.8139747" lon="12.3624736"><ele>789.0</ele><time>2026-04-12T07:28:26.633Z</time></trkpt><trkpt lat="43.8138626" lon="12.3624505"><ele>789.0</ele><time>2026-04-12T07:28:27.647Z</time></trkpt><trkpt lat="43.813746" lon="12.3624652"><ele>789.0</ele><time>2026-04-12T07:28:28.632Z</time></trkpt><trkpt lat="43.8136346" lon="12.3624696"><ele>789.0</ele><time>2026-04-12T07:28:29.625Z</time></trkpt><trkpt lat="43.8135321" lon="12.362464"><ele>789.0</ele><time>2026-04-12T07:28:30.64Z</time></trkpt><trkpt lat="43.8133582" lon="12.3623636"><ele>789.0</ele><time>2026-04-12T07:28:32.62Z</time></trkpt><trkpt lat="43.8132742" lon="12.3622925"><ele>789.0</ele><time>2026-04-12T07:28:33.654Z</time></trkpt><trkpt lat="43.8131994" lon="12.3622117"><ele>789.4000000000001</ele><time>2026-04-12T07:28:34.652Z</time></trkpt><trkpt lat="43.8131335" lon="12.3621149"><ele>789.8</ele><time>2026-04-12T07:28:35.641Z</time></trkpt><trkpt lat="43.8130768" lon="12.3619905"><ele>790.2</ele><time>2026-04-12T07:28:36.667Z</time></trkpt><trkpt lat="43.8130192" lon="12.3618645"><ele>790.5999999999999</ele><time>2026-04-12T07:28:37.652Z</time></trkpt><trkpt lat="43.8129748" lon="12.3617392"><ele>791.0</ele><time>2026-04-12T07:28:38.633Z</time></trkpt><trkpt lat="43.8129397" lon="12.3615963"><ele>791.0</ele><time>2026-04-12T07:28:39.643Z</time></trkpt><trkpt lat="43.8129068" lon="12.3614402"><ele>791.0</ele><time>2026-04-12T07:28:40.67Z</time></trkpt><trkpt lat="43.8128686" lon="12.3612873"><ele>791.0</ele><time>2026-04-12T07:28:41.643Z</time></trkpt><trkpt lat="43.812837" lon="12.3611424"><ele>791.0</ele><time>2026-04-12T07:28:42.648Z</time></trkpt><trkpt lat="43.8127967" lon="12.3610003"><ele>793.0</ele><time>2026-04-12T07:28:43.647Z</time></trkpt><trkpt lat="43.8127506" lon="12.3608666"><ele>795.0</ele><time>2026-04-12T07:28:44.729Z</time></trkpt><trkpt lat="43.8127072" lon="12.3607259"><ele>797.0</ele><time>2026-04-12T07:28:45.721Z</time></trkpt><trkpt lat="43.8126669" lon="12.3605764"><ele>799.0</ele><time>2026-04-12T07:28:46.643Z</time></trkpt><trkpt lat="43.8126213" lon="12.3604199"><ele>794.0</ele><time>2026-04-12T07:28:47.631Z</time></trkpt><trkpt lat="43.8125753" lon="12.3602829"><ele>789.0</ele><time>2026-04-12T07:28:48.63Z</time></trkpt><trkpt lat="43.8125232" lon="12.3601599"><ele>784.0</ele><time>2026-04-12T07:28:49.63Z</time></trkpt><trkpt lat="43.8124635" lon="12.3600515"><ele>779.0</ele><time>2026-04-12T07:28:50.643Z</time></trkpt><trkpt lat="43.8123971" lon="12.3599749"><ele>774.0</ele><time>2026-04-12T07:28:51.624Z</time></trkpt><trkpt lat="43.8122432" lon="12.3598506"><ele>774.0</ele><time>2026-04-12T07:28:53.628Z</time></trkpt><trkpt lat="43.8121513" lon="12.3597974"><ele>774.0</ele><time>2026-04-12T07:28:54.654Z</time></trkpt><trkpt lat="43.8120517" lon="12.3597434"><ele>774.0</ele><time>2026-04-12T07:28:55.645Z</time></trkpt><trkpt lat="43.8119441" lon="12.3596815"><ele>774.0</ele><time>2026-04-12T07:28:56.628Z</time></trkpt><trkpt lat="43.8118363" lon="12.359629"><ele>774.0</ele><time>2026-04-12T07:28:57.633Z</time></trkpt><trkpt lat="43.8117388" lon="12.359572"><ele>773.8000000000001</ele><time>2026-04-12T07:28:58.644Z</time></trkpt><trkpt lat="43.8116459" lon="12.3595061"><ele>773.6</ele><time>2026-04-12T07:28:59.653Z</time></trkpt><trkpt lat="43.81155" lon="12.3594337"><ele>773.4</ele><time>2026-04-12T07:29:00.634Z</time></trkpt><trkpt lat="43.8114631" lon="12.3593601"><ele>773.2</ele><time>2026-04-12T07:29:01.639Z</time></trkpt><trkpt lat="43.811362" lon="12.359299"><ele>773.0</ele><time>2026-04-12T07:29:02.629Z</time></trkpt><trkpt lat="43.8112466" lon="12.3592759"><ele>773.0</ele><time>2026-04-12T07:29:03.68Z</time></trkpt><trkpt lat="43.8111234" lon="12.3592656"><ele>773.0</ele><time>2026-04-12T07:29:04.632Z</time></trkpt><trkpt lat="43.8109861" lon="12.3592725"><ele>773.0</ele><time>2026-04-12T07:29:05.637Z</time></trkpt><trkpt lat="43.8108299" lon="12.3592674"><ele>773.0</ele><time>2026-04-12T07:29:06.625Z</time></trkpt><trkpt lat="43.8106829" lon="12.3592564"><ele>775.0</ele><time>2026-04-12T07:29:07.62Z</time></trkpt><trkpt lat="43.8105505" lon="12.3592638"><ele>777.0</ele><time>2026-04-12T07:29:08.614Z</time></trkpt><trkpt lat="43.8104234" lon="12.3593042"><ele>779.0</ele><time>2026-04-12T07:29:09.615Z</time></trkpt><trkpt lat="43.8103051" lon="12.3593451"><ele>781.0</ele><time>2026-04-12T07:29:10.629Z</time></trkpt><trkpt lat="43.8101997" lon="12.359369"><ele>781.0</ele><time>2026-04-12T07:29:11.62Z</time></trkpt><trkpt lat="43.8101089" lon="12.3593662"><ele>781.0</ele><time>2026-04-12T07:29:12.626Z</time></trkpt><trkpt lat="43.8099332" lon="12.3592845"><ele>781.0</ele><time>2026-04-12T07:29:14.616Z</time></trkpt><trkpt lat="43.8098394" lon="12.35924"><ele>781.0</ele><time>2026-04-12T07:29:15.622Z</time></trkpt><trkpt lat="43.8097407" lon="12.35921"><ele>780.9999999999999</ele><time>2026-04-12T07:29:16.633Z</time></trkpt><trkpt lat="43.8096592" lon="12.3591659"><ele>781.0</ele><time>2026-04-12T07:29:17.631Z</time></trkpt><trkpt lat="43.8095899" lon="12.3591362"><ele>781.0</ele><time>2026-04-12T07:29:18.624Z</time></trkpt><trkpt lat="43.8094991" lon="12.359108"><ele>781.0</ele><time>2026-04-12T07:29:20.636Z</time></trkpt><trkpt lat="43.8094166" lon="12.3590997"><ele>780.9999999999999</ele><time>2026-04-12T07:29:22.652Z</time></trkpt><trkpt lat="43.8093574" lon="12.3590636"><ele>781.0</ele><time>2026-04-12T07:29:23.625Z</time></trkpt><trkpt lat="43.8092999" lon="12.3590128"><ele>780.1999999999999</ele><time>2026-04-12T07:29:24.635Z</time></trkpt><trkpt lat="43.8092555" lon="12.3589264"><ele>779.4</ele><time>2026-04-12T07:29:26.629Z</time></trkpt><trkpt lat="43.8092181" lon="12.3588431"><ele>778.6</ele><time>2026-04-12T07:29:28.624Z</time></trkpt><trkpt lat="43.8091367" lon="12.3588599"><ele>777.8</ele><time>2026-04-12T07:29:31.619Z</time></trkpt><trkpt lat="43.8090958" lon="12.3589351"><ele>777.0</ele><time>2026-04-12T07:29:33.627Z</time></trkpt><trkpt lat="43.8090031" lon="12.3591705"><ele>777.0</ele><time>2026-04-12T07:29:37.634Z</time></trkpt><trkpt lat="43.8089595" lon="12.3592605"><ele>777.0</ele><time>2026-04-12T07:29:38.701Z</time></trkpt><trkpt lat="43.808911" lon="12.3593406"><ele>777.0</ele><time>2026-04-12T07:29:39.711Z</time></trkpt><trkpt lat="43.8088563" lon="12.3594193"><ele>777.0</ele><time>2026-04-12T07:29:40.643Z</time></trkpt><trkpt lat="43.8087628" lon="12.3595149"><ele>777.0</ele><time>2026-04-12T07:29:42.632Z</time></trkpt><trkpt lat="43.8087087" lon="12.3595665"><ele>777.0</ele><time>2026-04-12T07:29:43.637Z</time></trkpt><trkpt lat="43.8086358" lon="12.3596272"><ele>777.0</ele><time>2026-04-12T07:29:44.653Z</time></trkpt><trkpt lat="43.8085603" lon="12.3596991"><ele>777.0</ele><time>2026-04-12T07:29:45.629Z</time></trkpt><trkpt lat="43.8084951" lon="12.3597786"><ele>777.0</ele><time>2026-04-12T07:29:46.649Z</time></trkpt><trkpt lat="43.8084346" lon="12.3598732"><ele>777.0</ele><time>2026-04-12T07:29:47.628Z</time></trkpt><trkpt lat="43.8083853" lon="12.3599655"><ele>777.0</ele><time>2026-04-12T07:29:48.644Z</time></trkpt><trkpt lat="43.8083393" lon="12.3600462"><ele>777.0</ele><time>2026-04-12T07:29:49.625Z</time></trkpt><trkpt lat="43.8082927" lon="12.3601122"><ele>773.25</ele><time>2026-04-12T07:29:50.621Z</time></trkpt><trkpt lat="43.8082103" lon="12.360193"><ele>769.5</ele><time>2026-04-12T07:29:52.62Z</time></trkpt><trkpt lat="43.8081025" lon="12.360233"><ele>765.75</ele><time>2026-04-12T07:29:54.652Z</time></trkpt><trkpt lat="43.8079214" lon="12.3603362"><ele>762.0</ele><time>2026-04-12T07:29:57.642Z</time></trkpt><trkpt lat="43.8078568" lon="12.3603749"><ele>762.0</ele><time>2026-04-12T07:29:58.63Z</time></trkpt><trkpt lat="43.8077837" lon="12.3604161"><ele>762.0</ele><time>2026-04-12T07:29:59.651Z</time></trkpt><trkpt lat="43.8077098" lon="12.3604623"><ele>762.0</ele><time>2026-04-12T07:30:00.649Z</time></trkpt><trkpt lat="43.8076428" lon="12.3605055"><ele>762.0</ele><time>2026-04-12T07:30:01.629Z</time></trkpt><trkpt lat="43.8075791" lon="12.3605537"><ele>762.0</ele><time>2026-04-12T07:30:02.626Z</time></trkpt><trkpt lat="43.8075086" lon="12.3606081"><ele>762.0</ele><time>2026-04-12T07:30:03.623Z</time></trkpt><trkpt lat="43.8074305" lon="12.3606536"><ele>759.8333333333334</ele><time>2026-04-12T07:30:04.644Z</time></trkpt><trkpt lat="43.8073555" lon="12.3607006"><ele>757.6666666666666</ele><time>2026-04-12T07:30:05.636Z</time></trkpt><trkpt lat="43.8072808" lon="12.3607587"><ele>755.5</ele><time>2026-04-12T07:30:06.645Z</time></trkpt><trkpt lat="43.8072012" lon="12.3608151"><ele>753.3333333333333</ele><time>2026-04-12T07:30:07.635Z</time></trkpt><trkpt lat="43.8071188" lon="12.3608719"><ele>751.1666666666666</ele><time>2026-04-12T07:30:08.626Z</time></trkpt><trkpt lat="43.807031" lon="12.3609176"><ele>749.0</ele><time>2026-04-12T07:30:09.639Z</time></trkpt><trkpt lat="43.8069514" lon="12.3609524"><ele>749.0</ele><time>2026-04-12T07:30:10.616Z</time></trkpt><trkpt lat="43.8068718" lon="12.3609808"><ele>749.0</ele><time>2026-04-12T07:30:11.646Z</time></trkpt><trkpt lat="43.8067938" lon="12.3610061"><ele>749.0</ele><time>2026-04-12T07:30:12.736Z</time></trkpt><trkpt lat="43.8067267" lon="12.3610357"><ele>749.0</ele><time>2026-04-12T07:30:13.722Z</time></trkpt><trkpt lat="43.8066223" lon="12.3610921"><ele>749.0</ele><time>2026-04-12T07:30:15.616Z</time></trkpt><trkpt lat="43.8064788" lon="12.36128"><ele>749.6</ele><time>2026-04-12T07:30:19.652Z</time></trkpt><trkpt lat="43.8063829" lon="12.36137"><ele>750.2</ele><time>2026-04-12T07:30:21.63Z</time></trkpt><trkpt lat="43.8062689" lon="12.3613933"><ele>750.8000000000001</ele><time>2026-04-12T07:30:23.664Z</time></trkpt><trkpt lat="43.8061614" lon="12.3613628"><ele>751.4000000000001</ele><time>2026-04-12T07:30:25.648Z</time></trkpt><trkpt lat="43.8060638" lon="12.3612978"><ele>752.0</ele><time>2026-04-12T07:30:27.64Z</time></trkpt><trkpt lat="43.8059811" lon="12.3612427"><ele>748.0</ele><time>2026-04-12T07:30:29.652Z</time></trkpt><trkpt lat="43.8058971" lon="12.3612079"><ele>744.0</ele><time>2026-04-12T07:30:31.628Z</time></trkpt><trkpt lat="43.8058173" lon="12.3612414"><ele>740.0</ele><time>2026-04-12T07:30:33.63Z</time></trkpt><trkpt lat="43.8057511" lon="12.3613522"><ele>736.0</ele><time>2026-04-12T07:30:35.665Z</time></trkpt><trkpt lat="43.8056606" lon="12.3614569"><ele>732.0</ele><time>2026-04-12T07:30:37.65Z</time></trkpt><trkpt lat="43.8055271" lon="12.3615076"><ele>729.8333333333334</ele><time>2026-04-12T07:30:39.629Z</time></trkpt><trkpt lat="43.8054618" lon="12.3615224"><ele>727.6666666666666</ele><time>2026-04-12T07:30:40.63Z</time></trkpt><trkpt lat="43.8053361" lon="12.3615347"><ele>725.5</ele><time>2026-04-12T07:30:42.621Z</time></trkpt><trkpt lat="43.8052713" lon="12.3615286"><ele>723.3333333333333</ele><time>2026-04-12T07:30:43.721Z</time></trkpt><trkpt lat="43.8052027" lon="12.361524"><ele>721.1666666666666</ele><time>2026-04-12T07:30:44.639Z</time></trkpt><trkpt lat="43.8051268" lon="12.361512"><ele>719.0</ele><time>2026-04-12T07:30:45.639Z</time></trkpt><trkpt lat="43.8050503" lon="12.3615088"><ele>716.8333333333333</ele><time>2026-04-12T07:30:46.631Z</time></trkpt><trkpt lat="43.8049746" lon="12.3615269"><ele>714.6666666666666</ele><time>2026-04-12T07:30:47.639Z</time></trkpt><trkpt lat="43.8049043" lon="12.3615331"><ele>712.5</ele><time>2026-04-12T07:30:48.65Z</time></trkpt><trkpt lat="43.8047896" lon="12.3615234"><ele>710.3333333333334</ele><time>2026-04-12T07:30:50.649Z</time></trkpt><trkpt lat="43.8047244" lon="12.3615129"><ele>708.1666666666667</ele><time>2026-04-12T07:30:51.646Z</time></trkpt><trkpt lat="43.8046441" lon="12.3614969"><ele>706.0</ele><time>2026-04-12T07:30:52.63Z</time></trkpt><trkpt lat="43.8045639" lon="12.3614856"><ele>706.0</ele><time>2026-04-12T07:30:53.655Z</time></trkpt><trkpt lat="43.8044897" lon="12.3614778"><ele>706.0</ele><time>2026-04-12T07:30:54.668Z</time></trkpt><trkpt lat="43.8044237" lon="12.3614648"><ele>706.0</ele><time>2026-04-12T07:30:55.653Z</time></trkpt><trkpt lat="43.8043024" lon="12.361461"><ele>706.0</ele><time>2026-04-12T07:30:57.651Z</time></trkpt><trkpt lat="43.8042346" lon="12.3614632"><ele>706.0</ele><time>2026-04-12T07:30:58.642Z</time></trkpt><trkpt lat="43.8039931" lon="12.3615103"><ele>705.6666666666667</ele><time>2026-04-12T07:31:02.646Z</time></trkpt><trkpt lat="43.8039188" lon="12.3615278"><ele>705.3333333333334</ele><time>2026-04-12T07:31:03.654Z</time></trkpt><trkpt lat="43.8038392" lon="12.3615409"><ele>705.0</ele><time>2026-04-12T07:31:04.654Z</time></trkpt><trkpt lat="43.8037533" lon="12.3615601"><ele>704.6666666666666</ele><time>2026-04-12T07:31:05.636Z</time></trkpt><trkpt lat="43.8036751" lon="12.3615743"><ele>704.3333333333333</ele><time>2026-04-12T07:31:06.635Z</time></trkpt><trkpt lat="43.8036027" lon="12.3615886"><ele>704.0</ele><time>2026-04-12T07:31:07.641Z</time></trkpt><trkpt lat="43.8035325" lon="12.3615891"><ele>704.1666666666666</ele><time>2026-04-12T07:31:08.641Z</time></trkpt><trkpt lat="43.8034609" lon="12.3615913"><ele>704.3333333333333</ele><time>2026-04-12T07:31:09.629Z</time></trkpt><trkpt lat="43.8033863" lon="12.3616083"><ele>704.5</ele><time>2026-04-12T07:31:10.643Z</time></trkpt><trkpt lat="43.8033158" lon="12.361635"><ele>704.6666666666666</ele><time>2026-04-12T07:31:11.635Z</time></trkpt><trkpt lat="43.8032441" lon="12.3616696"><ele>704.8333333333334</ele><time>2026-04-12T07:31:12.653Z</time></trkpt><trkpt lat="43.8031719" lon="12.3617115"><ele>705.0</ele><time>2026-04-12T07:31:13.65Z</time></trkpt><trkpt lat="43.8030976" lon="12.3617519"><ele>705.0</ele><time>2026-04-12T07:31:14.637Z</time></trkpt><trkpt lat="43.8030262" lon="12.3617865"><ele>705.0</ele><time>2026-04-12T07:31:15.64Z</time></trkpt><trkpt lat="43.8029514" lon="12.3618186"><ele>705.0</ele><time>2026-04-12T07:31:16.636Z</time></trkpt><trkpt lat="43.8028798" lon="12.3618601"><ele>705.0</ele><time>2026-04-12T07:31:17.634Z</time></trkpt><trkpt lat="43.8028167" lon="12.3619022"><ele>705.0</ele><time>2026-04-12T07:31:18.637Z</time></trkpt><trkpt lat="43.8027154" lon="12.3619718"><ele>705.0</ele><time>2026-04-12T07:31:20.642Z</time></trkpt><trkpt lat="43.8025961" lon="12.3620769"><ele>703.75</ele><time>2026-04-12T07:31:45.633Z</time></trkpt><trkpt lat="43.8023962" lon="12.3621623"><ele>702.5</ele><time>2026-04-12T07:31:49.637Z</time></trkpt><trkpt lat="43.802312" lon="12.3622026"><ele>701.25</ele><time>2026-04-12T07:31:50.633Z</time></trkpt><trkpt lat="43.8022311" lon="12.362251"><ele>700.0</ele><time>2026-04-12T07:31:51.638Z</time></trkpt><trkpt lat="43.8021634" lon="12.3623055"><ele>699.2</ele><time>2026-04-12T07:31:52.638Z</time></trkpt><trkpt lat="43.8021013" lon="12.3624125"><ele>698.4</ele><time>2026-04-12T07:31:53.681Z</time></trkpt><trkpt lat="43.8020448" lon="12.3625376"><ele>697.5999999999999</ele><time>2026-04-12T07:31:54.642Z</time></trkpt><trkpt lat="43.8019978" lon="12.3626674"><ele>696.8</ele><time>2026-04-12T07:31:55.638Z</time></trkpt><trkpt lat="43.8019485" lon="12.3627903"><ele>696.0</ele><time>2026-04-12T07:31:56.638Z</time></trkpt><trkpt lat="43.8019052" lon="12.362911"><ele>696.0</ele><time>2026-04-12T07:31:57.64Z</time></trkpt><trkpt lat="43.8018618" lon="12.363026"><ele>696.0</ele><time>2026-04-12T07:31:58.637Z</time></trkpt><trkpt lat="43.8018251" lon="12.363141"><ele>696.0</ele><time>2026-04-12T07:31:59.648Z</time></trkpt><trkpt lat="43.8017901" lon="12.3632507"><ele>696.0</ele><time>2026-04-12T07:32:00.643Z</time></trkpt><trkpt lat="43.8017649" lon="12.3633353"><ele>696.0</ele><time>2026-04-12T07:32:01.73Z</time></trkpt><trkpt lat="43.801715" lon="12.3634587"><ele>696.0</ele><time>2026-04-12T07:32:03.641Z</time></trkpt><trkpt lat="43.801589" lon="12.3633749"><ele>693.5</ele><time>2026-04-12T07:32:07.641Z</time></trkpt><trkpt lat="43.8014463" lon="12.3632311"><ele>691.0</ele><time>2026-04-12T07:32:09.662Z</time></trkpt><trkpt lat="43.8013538" lon="12.363174"><ele>688.5</ele><time>2026-04-12T07:32:10.648Z</time></trkpt><trkpt lat="43.8012526" lon="12.3631203"><ele>686.0</ele><time>2026-04-12T07:32:11.634Z</time></trkpt><trkpt lat="43.8011501" lon="12.3630579"><ele>687.25</ele><time>2026-04-12T07:32:12.646Z</time></trkpt><trkpt lat="43.8010383" lon="12.3629993"><ele>688.5</ele><time>2026-04-12T07:32:13.665Z</time></trkpt><trkpt lat="43.8009242" lon="12.362932"><ele>689.75</ele><time>2026-04-12T07:32:14.623Z</time></trkpt><trkpt lat="43.8008051" lon="12.3628656"><ele>691.0</ele><time>2026-04-12T07:32:15.654Z</time></trkpt><trkpt lat="43.800683" lon="12.3627921"><ele>691.0</ele><time>2026-04-12T07:32:16.64Z</time></trkpt><trkpt lat="43.8005592" lon="12.3627193"><ele>691.0</ele><time>2026-04-12T07:32:17.66Z</time></trkpt><trkpt lat="43.8004296" lon="12.3626417"><ele>691.0</ele><time>2026-04-12T07:32:18.623Z</time></trkpt><trkpt lat="43.8002993" lon="12.362566"><ele>691.0</ele><time>2026-04-12T07:32:19.638Z</time></trkpt><trkpt lat="43.8001699" lon="12.3624878"><ele>691.75</ele><time>2026-04-12T07:32:20.638Z</time></trkpt><trkpt lat="43.80004" lon="12.3624113"><ele>692.5</ele><time>2026-04-12T07:32:21.64Z</time></trkpt><trkpt lat="43.7999097" lon="12.3623331"><ele>693.25</ele><time>2026-04-12T07:32:22.639Z</time></trkpt><trkpt lat="43.7997834" lon="12.3622575"><ele>694.0</ele><time>2026-04-12T07:32:23.658Z</time></trkpt><trkpt lat="43.7996649" lon="12.3621869"><ele>694.0</ele><time>2026-04-12T07:32:24.638Z</time></trkpt><trkpt lat="43.7995579" lon="12.3621497"><ele>694.0</ele><time>2026-04-12T07:32:25.679Z</time></trkpt><trkpt lat="43.7994508" lon="12.3621631"><ele>694.0</ele><time>2026-04-12T07:32:26.64Z</time></trkpt><trkpt lat="43.7993394" lon="12.3622331"><ele>694.0</ele><time>2026-04-12T07:32:27.64Z</time></trkpt><trkpt lat="43.799249" lon="12.3623556"><ele>697.0</ele><time>2026-04-12T07:32:28.737Z</time></trkpt><trkpt lat="43.7990836" lon="12.3626601"><ele>700.0</ele><time>2026-04-12T07:32:30.67Z</time></trkpt><trkpt lat="43.7989974" lon="12.3628055"><ele>703.0</ele><time>2026-04-12T07:32:31.648Z</time></trkpt><trkpt lat="43.7988887" lon="12.3629433"><ele>701.0</ele><time>2026-04-12T07:32:32.641Z</time></trkpt><trkpt lat="43.7987636" lon="12.3630609"><ele>699.0</ele><time>2026-04-12T07:32:33.666Z</time></trkpt><trkpt lat="43.7986254" lon="12.36315"><ele>697.0</ele><time>2026-04-12T07:32:34.665Z</time></trkpt><trkpt lat="43.7984802" lon="12.3632012"><ele>702.0</ele><time>2026-04-12T07:32:35.652Z</time></trkpt><trkpt lat="43.7983236" lon="12.3632178"><ele>707.0</ele><time>2026-04-12T07:32:36.679Z</time></trkpt><trkpt lat="43.7981543" lon="12.3632372"><ele>712.0</ele><time>2026-04-12T07:32:37.653Z</time></trkpt><trkpt lat="43.7979833" lon="12.3632878"><ele>712.0</ele><time>2026-04-12T07:32:38.653Z</time></trkpt><trkpt lat="43.7978288" lon="12.3633582"><ele>712.0</ele><time>2026-04-12T07:32:39.642Z</time></trkpt><trkpt lat="43.7976752" lon="12.3634348"><ele>712.0</ele><time>2026-04-12T07:32:40.676Z</time></trkpt><trkpt lat="43.7975419" lon="12.3635144"><ele>712.5</ele><time>2026-04-12T07:32:41.639Z</time></trkpt><trkpt lat="43.7974234" lon="12.3635975"><ele>713.0</ele><time>2026-04-12T07:32:42.653Z</time></trkpt><trkpt lat="43.7973135" lon="12.3637054"><ele>713.5</ele><time>2026-04-12T07:32:43.623Z</time></trkpt><trkpt lat="43.7972217" lon="12.3638429"><ele>714.0</ele><time>2026-04-12T07:32:44.637Z</time></trkpt><trkpt lat="43.7971523" lon="12.3640066"><ele>714.0</ele><time>2026-04-12T07:32:45.642Z</time></trkpt><trkpt lat="43.7971149" lon="12.3641997"><ele>714.0</ele><time>2026-04-12T07:32:46.647Z</time></trkpt><trkpt lat="43.7971184" lon="12.364404"><ele>714.0</ele><time>2026-04-12T07:32:47.628Z</time></trkpt><trkpt lat="43.797152" lon="12.3646038"><ele>714.0</ele><time>2026-04-12T07:32:48.635Z</time></trkpt><trkpt lat="43.7971712" lon="12.3647913"><ele>714.3333333333334</ele><time>2026-04-12T07:32:49.652Z</time></trkpt><trkpt lat="43.7971288" lon="12.3651657"><ele>714.6666666666667</ele><time>2026-04-12T07:32:51.641Z</time></trkpt><trkpt lat="43.7970753" lon="12.3653252"><ele>715.0</ele><time>2026-04-12T07:32:52.636Z</time></trkpt><trkpt lat="43.797022" lon="12.3654912"><ele>714.25</ele><time>2026-04-12T07:32:53.699Z</time></trkpt><trkpt lat="43.7969706" lon="12.3656578"><ele>713.5</ele><time>2026-04-12T07:32:54.649Z</time></trkpt><trkpt lat="43.7969209" lon="12.3658191"><ele>712.75</ele><time>2026-04-12T07:32:55.641Z</time></trkpt><trkpt lat="43.7968703" lon="12.3659704"><ele>712.0</ele><time>2026-04-12T07:32:56.642Z</time></trkpt><trkpt lat="43.7968248" lon="12.3661141"><ele>714.0</ele><time>2026-04-12T07:32:57.655Z</time></trkpt><trkpt lat="43.7967857" lon="12.3662451"><ele>716.0</ele><time>2026-04-12T07:32:58.65Z</time></trkpt><trkpt lat="43.7967298" lon="12.3663483"><ele>718.0</ele><time>2026-04-12T07:32:59.654Z</time></trkpt><trkpt lat="43.7966441" lon="12.3664284"><ele>720.0</ele><time>2026-04-12T07:33:00.632Z</time></trkpt><trkpt lat="43.7965221" lon="12.3663904"><ele>722.0</ele><time>2026-04-12T07:33:01.658Z</time></trkpt><trkpt lat="43.7964349" lon="12.3663059"><ele>723.25</ele><time>2026-04-12T07:33:02.654Z</time></trkpt><trkpt lat="43.796335" lon="12.3661885"><ele>724.5</ele><time>2026-04-12T07:33:03.652Z</time></trkpt><trkpt lat="43.7962589" lon="12.3660813"><ele>725.75</ele><time>2026-04-12T07:33:04.676Z</time></trkpt><trkpt lat="43.7961782" lon="12.3659617"><ele>727.0</ele><time>2026-04-12T07:33:05.648Z</time></trkpt><trkpt lat="43.7961013" lon="12.365833"><ele>727.0</ele><time>2026-04-12T07:33:06.673Z</time></trkpt><trkpt lat="43.7960159" lon="12.3657092"><ele>727.0</ele><time>2026-04-12T07:33:07.643Z</time></trkpt><trkpt lat="43.7959144" lon="12.3655821"><ele>727.0</ele><time>2026-04-12T07:33:08.634Z</time></trkpt><trkpt lat="43.7958025" lon="12.3654699"><ele>727.0</ele><time>2026-04-12T07:33:09.649Z</time></trkpt><trkpt lat="43.7956678" lon="12.3653773"><ele>731.5</ele><time>2026-04-12T07:33:10.698Z</time></trkpt><trkpt lat="43.795359" lon="12.3652251"><ele>736.0</ele><time>2026-04-12T07:33:12.663Z</time></trkpt><trkpt lat="43.7952027" lon="12.3651611"><ele>734.3333333333334</ele><time>2026-04-12T07:33:13.674Z</time></trkpt><trkpt lat="43.7950407" lon="12.3650859"><ele>732.6666666666666</ele><time>2026-04-12T07:33:14.665Z</time></trkpt><trkpt lat="43.794877" lon="12.3650069"><ele>731.0</ele><time>2026-04-12T07:33:15.657Z</time></trkpt><trkpt lat="43.7947" lon="12.3649418"><ele>731.0</ele><time>2026-04-12T07:33:16.649Z</time></trkpt><trkpt lat="43.7945133" lon="12.3648898"><ele>731.0</ele><time>2026-04-12T07:33:17.658Z</time></trkpt><trkpt lat="43.7943126" lon="12.3648572"><ele>731.0</ele><time>2026-04-12T07:33:18.641Z</time></trkpt><trkpt lat="43.7941059" lon="12.3648508"><ele>730.3333333333333</ele><time>2026-04-12T07:33:19.651Z</time></trkpt><trkpt lat="43.7939005" lon="12.3648852"><ele>729.6666666666666</ele><time>2026-04-12T07:33:20.645Z</time></trkpt><trkpt lat="43.7937055" lon="12.364966"><ele>729.0</ele><time>2026-04-12T07:33:21.663Z</time></trkpt><trkpt lat="43.7935119" lon="12.3650629"><ele>731.6666666666666</ele><time>2026-04-12T07:33:22.656Z</time></trkpt><trkpt lat="43.793329" lon="12.3651507"><ele>734.3333333333333</ele><time>2026-04-12T07:33:23.665Z</time></trkpt><trkpt lat="43.7931479" lon="12.3652271"><ele>737.0</ele><time>2026-04-12T07:33:24.649Z</time></trkpt><trkpt lat="43.7929799" lon="12.3653139"><ele>737.0</ele><time>2026-04-12T07:33:25.662Z</time></trkpt><trkpt lat="43.792822" lon="12.3654528"><ele>737.0</ele><time>2026-04-12T07:33:26.637Z</time></trkpt><trkpt lat="43.7926818" lon="12.3656338"><ele>737.0</ele><time>2026-04-12T07:33:27.65Z</time></trkpt><trkpt lat="43.7925609" lon="12.3658357"><ele>740.0</ele><time>2026-04-12T07:33:28.647Z</time></trkpt><trkpt lat="43.7924572" lon="12.3660466"><ele>743.0</ele><time>2026-04-12T07:33:29.643Z</time></trkpt><trkpt lat="43.7923632" lon="12.366226"><ele>746.0</ele><time>2026-04-12T07:33:30.643Z</time></trkpt><trkpt lat="43.7922835" lon="12.366361"><ele>746.0</ele><time>2026-04-12T07:33:31.643Z</time></trkpt><trkpt lat="43.7921315" lon="12.3665293"><ele>746.0</ele><time>2026-04-12T07:33:33.633Z</time></trkpt><trkpt lat="43.7920383" lon="12.3665459"><ele>746.0</ele><time>2026-04-12T07:33:34.774Z</time></trkpt><trkpt lat="43.7919616" lon="12.3664553"><ele>746.0</ele><time>2026-04-12T07:33:35.735Z</time></trkpt><trkpt lat="43.7918971" lon="12.3663213"><ele>746.0</ele><time>2026-04-12T07:33:36.669Z</time></trkpt><trkpt lat="43.7918831" lon="12.3661508"><ele>746.0</ele><time>2026-04-12T07:33:37.661Z</time></trkpt><trkpt lat="43.7918958" lon="12.3659586"><ele>746.0</ele><time>2026-04-12T07:33:38.641Z</time></trkpt><trkpt lat="43.7919268" lon="12.3657504"><ele>746.0</ele><time>2026-04-12T07:33:39.674Z</time></trkpt><trkpt lat="43.7919461" lon="12.3655414"><ele>747.6666666666666</ele><time>2026-04-12T07:33:40.647Z</time></trkpt><trkpt lat="43.7919651" lon="12.3653223"><ele>749.3333333333334</ele><time>2026-04-12T07:33:41.656Z</time></trkpt><trkpt lat="43.7919862" lon="12.3651006"><ele>751.0</ele><time>2026-04-12T07:33:42.656Z</time></trkpt><trkpt lat="43.7920076" lon="12.3648724"><ele>751.0</ele><time>2026-04-12T07:33:43.637Z</time></trkpt><trkpt lat="43.7920271" lon="12.364638"><ele>751.0</ele><time>2026-04-12T07:33:44.647Z</time></trkpt><trkpt lat="43.792048" lon="12.3644018"><ele>751.0</ele><time>2026-04-12T07:33:45.64Z</time></trkpt><trkpt lat="43.7920652" lon="12.3641786"><ele>751.0</ele><time>2026-04-12T07:33:46.646Z</time></trkpt><trkpt lat="43.7920533" lon="12.3639577"><ele>751.0</ele><time>2026-04-12T07:33:47.639Z</time></trkpt><trkpt lat="43.7919992" lon="12.3637428"><ele>751.0</ele><time>2026-04-12T07:33:48.671Z</time></trkpt><trkpt lat="43.7919058" lon="12.3635327"><ele>749.3333333333334</ele><time>2026-04-12T07:33:49.645Z</time></trkpt><trkpt lat="43.7917865" lon="12.3633343"><ele>747.6666666666666</ele><time>2026-04-12T07:33:50.633Z</time></trkpt><trkpt lat="43.7916566" lon="12.3631566"><ele>746.0</ele><time>2026-04-12T07:33:51.647Z</time></trkpt><trkpt lat="43.7915236" lon="12.362971"><ele>746.0</ele><time>2026-04-12T07:33:52.66Z</time></trkpt><trkpt lat="43.7912553" lon="12.3625557"><ele>746.0</ele><time>2026-04-12T07:33:54.669Z</time></trkpt><trkpt lat="43.7911248" lon="12.36235"><ele>742.3333333333333</ele><time>2026-04-12T07:33:55.643Z</time></trkpt><trkpt lat="43.7910004" lon="12.3621521"><ele>738.6666666666666</ele><time>2026-04-12T07:33:56.663Z</time></trkpt><trkpt lat="43.7908744" lon="12.361976"><ele>735.0</ele><time>2026-04-12T07:33:57.637Z</time></trkpt><trkpt lat="43.7907425" lon="12.3618108"><ele>735.0</ele><time>2026-04-12T07:33:58.644Z</time></trkpt><trkpt lat="43.7905876" lon="12.3616782"><ele>735.0</ele><time>2026-04-12T07:33:59.661Z</time></trkpt><trkpt lat="43.7904104" lon="12.3616058"><ele>735.0</ele><time>2026-04-12T07:34:00.643Z</time></trkpt><trkpt lat="43.790226" lon="12.3615645"><ele>731.0</ele><time>2026-04-12T07:34:01.654Z</time></trkpt><trkpt lat="43.7900372" lon="12.3615516"><ele>727.0</ele><time>2026-04-12T07:34:02.647Z</time></trkpt><trkpt lat="43.789859" lon="12.3615586"><ele>723.0</ele><time>2026-04-12T07:34:03.647Z</time></trkpt><trkpt lat="43.7896891" lon="12.3615556"><ele>723.0</ele><time>2026-04-12T07:34:04.682Z</time></trkpt><trkpt lat="43.7895516" lon="12.3615528"><ele>723.0</ele><time>2026-04-12T07:34:05.657Z</time></trkpt><trkpt lat="43.7894366" lon="12.3615302"><ele>723.0</ele><time>2026-04-12T07:34:06.65Z</time></trkpt><trkpt lat="43.7893431" lon="12.3614855"><ele>723.0</ele><time>2026-04-12T07:34:07.66Z</time></trkpt><trkpt lat="43.7892773" lon="12.3613896"><ele>723.0</ele><time>2026-04-12T07:34:08.633Z</time></trkpt><trkpt lat="43.7892584" lon="12.3612584"><ele>724.75</ele><time>2026-04-12T07:34:09.667Z</time></trkpt><trkpt lat="43.7892757" lon="12.3611161"><ele>726.5</ele><time>2026-04-12T07:34:10.668Z</time></trkpt><trkpt lat="43.7893386" lon="12.3609572"><ele>728.25</ele><time>2026-04-12T07:34:11.662Z</time></trkpt><trkpt lat="43.7894086" lon="12.3607766"><ele>730.0</ele><time>2026-04-12T07:34:12.638Z</time></trkpt><trkpt lat="43.7894836" lon="12.3605856"><ele>727.0</ele><time>2026-04-12T07:34:13.65Z</time></trkpt><trkpt lat="43.7896458" lon="12.3601694"><ele>724.0</ele><time>2026-04-12T07:34:15.66Z</time></trkpt><trkpt lat="43.7897243" lon="12.3599744"><ele>724.0</ele><time>2026-04-12T07:34:16.65Z</time></trkpt><trkpt lat="43.7897808" lon="12.3597793"><ele>724.0</ele><time>2026-04-12T07:34:17.655Z</time></trkpt><trkpt lat="43.7898086" lon="12.3595584"><ele>724.0</ele><time>2026-04-12T07:34:18.647Z</time></trkpt><trkpt lat="43.7898093" lon="12.3593368"><ele>724.3333333333334</ele><time>2026-04-12T07:34:19.654Z</time></trkpt><trkpt lat="43.7897624" lon="12.3591276"><ele>724.6666666666666</ele><time>2026-04-12T07:34:20.641Z</time></trkpt><trkpt lat="43.7896756" lon="12.3589495"><ele>725.0</ele><time>2026-04-12T07:34:21.662Z</time></trkpt><trkpt lat="43.7895568" lon="12.3587782"><ele>727.6666666666666</ele><time>2026-04-12T07:34:22.639Z</time></trkpt><trkpt lat="43.7894294" lon="12.3586059"><ele>730.3333333333334</ele><time>2026-04-12T07:34:23.653Z</time></trkpt><trkpt lat="43.7893018" lon="12.3584417"><ele>733.0</ele><time>2026-04-12T07:34:24.668Z</time></trkpt><trkpt lat="43.7891745" lon="12.3582935"><ele>730.6666666666667</ele><time>2026-04-12T07:34:25.651Z</time></trkpt><trkpt lat="43.7890339" lon="12.3581598"><ele>728.3333333333334</ele><time>2026-04-12T07:34:26.669Z</time></trkpt><trkpt lat="43.7888616" lon="12.3580618"><ele>726.0</ele><time>2026-04-12T07:34:27.649Z</time></trkpt><trkpt lat="43.78867" lon="12.3579915"><ele>722.0</ele><time>2026-04-12T07:34:28.641Z</time></trkpt><trkpt lat="43.788493" lon="12.3579424"><ele>718.0</ele><time>2026-04-12T07:34:29.651Z</time></trkpt><trkpt lat="43.7883226" lon="12.3578789"><ele>714.0</ele><time>2026-04-12T07:34:30.633Z</time></trkpt><trkpt lat="43.7881682" lon="12.3578001"><ele>714.0</ele><time>2026-04-12T07:34:31.681Z</time></trkpt><trkpt lat="43.7880238" lon="12.3576969"><ele>714.0</ele><time>2026-04-12T07:34:32.627Z</time></trkpt><trkpt lat="43.787907" lon="12.3575581"><ele>714.0</ele><time>2026-04-12T07:34:33.646Z</time></trkpt><trkpt lat="43.7878147" lon="12.3573705"><ele>708.5</ele><time>2026-04-12T07:34:34.642Z</time></trkpt><trkpt lat="43.7876641" lon="12.3569156"><ele>703.0</ele><time>2026-04-12T07:34:36.646Z</time></trkpt><trkpt lat="43.7875895" lon="12.3566688"><ele>703.0</ele><time>2026-04-12T07:34:37.64Z</time></trkpt><trkpt lat="43.7875222" lon="12.3564225"><ele>703.0</ele><time>2026-04-12T07:34:38.63Z</time></trkpt><trkpt lat="43.7874748" lon="12.3561859"><ele>703.0</ele><time>2026-04-12T07:34:39.65Z</time></trkpt><trkpt lat="43.7874444" lon="12.3559518"><ele>703.6666666666667</ele><time>2026-04-12T07:34:40.639Z</time></trkpt><trkpt lat="43.7874301" lon="12.355707"><ele>704.3333333333334</ele><time>2026-04-12T07:34:41.639Z</time></trkpt><trkpt lat="43.7874266" lon="12.3554562"><ele>705.0</ele><time>2026-04-12T07:34:42.636Z</time></trkpt><trkpt lat="43.7874266" lon="12.3552072"><ele>705.3333333333334</ele><time>2026-04-12T07:34:43.636Z</time></trkpt><trkpt lat="43.7874179" lon="12.3549667"><ele>705.6666666666667</ele><time>2026-04-12T07:34:44.627Z</time></trkpt><trkpt lat="43.7874145" lon="12.354742"><ele>706.0</ele><time>2026-04-12T07:34:45.636Z</time></trkpt><trkpt lat="43.7873995" lon="12.3545229"><ele>707.0</ele><time>2026-04-12T07:34:46.645Z</time></trkpt><trkpt lat="43.7873706" lon="12.3542994"><ele>708.0</ele><time>2026-04-12T07:34:47.655Z</time></trkpt><trkpt lat="43.7873182" lon="12.3540721"><ele>709.0</ele><time>2026-04-12T07:34:48.64Z</time></trkpt><trkpt lat="43.7872446" lon="12.3538432"><ele>711.3333333333334</ele><time>2026-04-12T07:34:49.636Z</time></trkpt><trkpt lat="43.7871672" lon="12.3536116"><ele>713.6666666666666</ele><time>2026-04-12T07:34:50.641Z</time></trkpt><trkpt lat="43.7870865" lon="12.3533794"><ele>716.0</ele><time>2026-04-12T07:34:51.631Z</time></trkpt><trkpt lat="43.7870067" lon="12.3531417"><ele>716.6666666666666</ele><time>2026-04-12T07:34:52.647Z</time></trkpt><trkpt lat="43.7869271" lon="12.3529067"><ele>717.3333333333334</ele><time>2026-04-12T07:34:53.639Z</time></trkpt><trkpt lat="43.7868424" lon="12.3526845"><ele>718.0</ele><time>2026-04-12T07:34:54.63Z</time></trkpt><trkpt lat="43.7867603" lon="12.3524699"><ele>708.0</ele><time>2026-04-12T07:34:55.63Z</time></trkpt><trkpt lat="43.786612" lon="12.352086"><ele>698.0</ele><time>2026-04-12T07:34:57.638Z</time></trkpt><trkpt lat="43.7865414" lon="12.3519067"><ele>698.0</ele><time>2026-04-12T07:34:58.646Z</time></trkpt><trkpt lat="43.7864823" lon="12.3517439"><ele>698.0</ele><time>2026-04-12T07:34:59.628Z</time></trkpt><trkpt lat="43.7864458" lon="12.3515913"><ele>698.0</ele><time>2026-04-12T07:35:00.639Z</time></trkpt><trkpt lat="43.786439" lon="12.351437"><ele>698.0</ele><time>2026-04-12T07:35:01.651Z</time></trkpt><trkpt lat="43.7864524" lon="12.3512834"><ele>698.0</ele><time>2026-04-12T07:35:02.635Z</time></trkpt><trkpt lat="43.7864925" lon="12.3511239"><ele>698.0</ele><time>2026-04-12T07:35:03.641Z</time></trkpt><trkpt lat="43.7865622" lon="12.3509715"><ele>698.0</ele><time>2026-04-12T07:35:04.65Z</time></trkpt><trkpt lat="43.7866541" lon="12.3508304"><ele>698.0</ele><time>2026-04-12T07:35:05.751Z</time></trkpt><trkpt lat="43.7868521" lon="12.3504749"><ele>705.0</ele><time>2026-04-12T07:35:07.656Z</time></trkpt><trkpt lat="43.7869123" lon="12.3502467"><ele>712.0</ele><time>2026-04-12T07:35:08.647Z</time></trkpt><trkpt lat="43.786946" lon="12.3500068"><ele>719.0</ele><time>2026-04-12T07:35:09.651Z</time></trkpt><trkpt lat="43.7869477" lon="12.3497892"><ele>718.75</ele><time>2026-04-12T07:35:10.669Z</time></trkpt><trkpt lat="43.7869204" lon="12.3495859"><ele>718.5</ele><time>2026-04-12T07:35:11.642Z</time></trkpt><trkpt lat="43.7868602" lon="12.3494028"><ele>718.25</ele><time>2026-04-12T07:35:12.647Z</time></trkpt><trkpt lat="43.7867883" lon="12.3492133"><ele>718.0</ele><time>2026-04-12T07:35:13.643Z</time></trkpt><trkpt lat="43.7867025" lon="12.3490141"><ele>716.3333333333334</ele><time>2026-04-12T07:35:14.641Z</time></trkpt><trkpt lat="43.7866107" lon="12.3488212"><ele>714.6666666666666</ele><time>2026-04-12T07:35:15.667Z</time></trkpt><trkpt lat="43.786536" lon="12.3486455"><ele>713.0</ele><time>2026-04-12T07:35:16.643Z</time></trkpt><trkpt lat="43.7864277" lon="12.3482735"><ele>713.0</ele><time>2026-04-12T07:35:18.641Z</time></trkpt><trkpt lat="43.7864242" lon="12.3480822"><ele>713.0</ele><time>2026-04-12T07:35:19.644Z</time></trkpt><trkpt lat="43.7864504" lon="12.347892"><ele>713.0</ele><time>2026-04-12T07:35:20.638Z</time></trkpt><trkpt lat="43.7864904" lon="12.3476955"><ele>713.0</ele><time>2026-04-12T07:35:21.634Z</time></trkpt><trkpt lat="43.7865127" lon="12.3475137"><ele>715.0</ele><time>2026-04-12T07:35:22.64Z</time></trkpt><trkpt lat="43.7864756" lon="12.3473386"><ele>717.0</ele><time>2026-04-12T07:35:23.645Z</time></trkpt><trkpt lat="43.7863974" lon="12.347196"><ele>719.0</ele><time>2026-04-12T07:35:24.646Z</time></trkpt><trkpt lat="43.7862791" lon="12.347106"><ele>721.0</ele><time>2026-04-12T07:35:25.639Z</time></trkpt><trkpt lat="43.7861276" lon="12.3470623"><ele>720.25</ele><time>2026-04-12T07:35:26.737Z</time></trkpt><trkpt lat="43.785983" lon="12.3470087"><ele>719.5</ele><time>2026-04-12T07:35:27.644Z</time></trkpt><trkpt lat="43.7858551" lon="12.3469169"><ele>718.75</ele><time>2026-04-12T07:35:28.651Z</time></trkpt><trkpt lat="43.785773" lon="12.3467839"><ele>718.0</ele><time>2026-04-12T07:35:29.655Z</time></trkpt><trkpt lat="43.7857299" lon="12.3466176"><ele>718.0</ele><time>2026-04-12T07:35:30.669Z</time></trkpt><trkpt lat="43.7857061" lon="12.3464228"><ele>718.0</ele><time>2026-04-12T07:35:31.674Z</time></trkpt><trkpt lat="43.7856807" lon="12.3462048"><ele>718.0</ele><time>2026-04-12T07:35:32.654Z</time></trkpt><trkpt lat="43.7856485" lon="12.3459661"><ele>720.3333333333334</ele><time>2026-04-12T07:35:33.64Z</time></trkpt><trkpt lat="43.7856108" lon="12.3457331"><ele>722.6666666666666</ele><time>2026-04-12T07:35:34.639Z</time></trkpt><trkpt lat="43.7855756" lon="12.3455137"><ele>725.0</ele><time>2026-04-12T07:35:35.647Z</time></trkpt><trkpt lat="43.7855265" lon="12.3453238"><ele>725.5</ele><time>2026-04-12T07:35:36.647Z</time></trkpt><trkpt lat="43.785439" lon="12.3451658"><ele>726.0</ele><time>2026-04-12T07:35:37.645Z</time></trkpt><trkpt lat="43.7851679" lon="12.3449694"><ele>726.0</ele><time>2026-04-12T07:35:39.646Z</time></trkpt><trkpt lat="43.7850218" lon="12.3448621"><ele>726.0</ele><time>2026-04-12T07:35:40.637Z</time></trkpt><trkpt lat="43.7848892" lon="12.3447451"><ele>726.0</ele><time>2026-04-12T07:35:41.648Z</time></trkpt><trkpt lat="43.7847823" lon="12.3446077"><ele>730.6666666666666</ele><time>2026-04-12T07:35:42.638Z</time></trkpt><trkpt lat="43.7846827" lon="12.3444445"><ele>735.3333333333333</ele><time>2026-04-12T07:35:43.644Z</time></trkpt><trkpt lat="43.7845791" lon="12.3442753"><ele>740.0</ele><time>2026-04-12T07:35:44.64Z</time></trkpt><trkpt lat="43.7844781" lon="12.3441099"><ele>740.0</ele><time>2026-04-12T07:35:45.639Z</time></trkpt><trkpt lat="43.7843897" lon="12.3439279"><ele>740.0</ele><time>2026-04-12T07:35:46.643Z</time></trkpt><trkpt lat="43.7842945" lon="12.3437422"><ele>740.0</ele><time>2026-04-12T07:35:47.728Z</time></trkpt><trkpt lat="43.7841997" lon="12.3435506"><ele>740.6666666666666</ele><time>2026-04-12T07:35:48.681Z</time></trkpt><trkpt lat="43.7840963" lon="12.3433525"><ele>741.3333333333334</ele><time>2026-04-12T07:35:49.641Z</time></trkpt><trkpt lat="43.783995" lon="12.3431557"><ele>742.0</ele><time>2026-04-12T07:35:50.643Z</time></trkpt><trkpt lat="43.7838963" lon="12.3429686"><ele>742.0</ele><time>2026-04-12T07:35:51.634Z</time></trkpt><trkpt lat="43.7838004" lon="12.3427809"><ele>742.0</ele><time>2026-04-12T07:35:52.638Z</time></trkpt><trkpt lat="43.7837041" lon="12.3426046"><ele>742.0</ele><time>2026-04-12T07:35:53.633Z</time></trkpt><trkpt lat="43.7836051" lon="12.342432"><ele>740.75</ele><time>2026-04-12T07:35:54.648Z</time></trkpt><trkpt lat="43.7835131" lon="12.3422614"><ele>739.5</ele><time>2026-04-12T07:35:55.646Z</time></trkpt><trkpt lat="43.7834253" lon="12.342089"><ele>738.25</ele><time>2026-04-12T07:35:56.653Z</time></trkpt><trkpt lat="43.7833549" lon="12.3419218"><ele>737.0</ele><time>2026-04-12T07:35:57.638Z</time></trkpt><trkpt lat="43.7832884" lon="12.3417554"><ele>737.0</ele><time>2026-04-12T07:35:58.63Z</time></trkpt><trkpt lat="43.7831862" lon="12.341396"><ele>737.0</ele><time>2026-04-12T07:36:00.628Z</time></trkpt><trkpt lat="43.7831741" lon="12.3411877"><ele>737.0</ele><time>2026-04-12T07:36:01.644Z</time></trkpt><trkpt lat="43.78317" lon="12.3409814"><ele>738.0</ele><time>2026-04-12T07:36:02.628Z</time></trkpt><trkpt lat="43.7831692" lon="12.3407689"><ele>739.0</ele><time>2026-04-12T07:36:03.647Z</time></trkpt><trkpt lat="43.7831601" lon="12.3405665"><ele>740.0</ele><time>2026-04-12T07:36:04.634Z</time></trkpt><trkpt lat="43.7831539" lon="12.3403744"><ele>741.0</ele><time>2026-04-12T07:36:05.644Z</time></trkpt><trkpt lat="43.7831477" lon="12.3401921"><ele>743.0</ele><time>2026-04-12T07:36:06.634Z</time></trkpt><trkpt lat="43.7831451" lon="12.3400182"><ele>745.0</ele><time>2026-04-12T07:36:07.634Z</time></trkpt><trkpt lat="43.7831319" lon="12.3398497"><ele>747.0</ele><time>2026-04-12T07:36:08.741Z</time></trkpt><trkpt lat="43.7831221" lon="12.3396914"><ele>749.0</ele><time>2026-04-12T07:36:09.64Z</time></trkpt><trkpt lat="43.7830964" lon="12.3395464"><ele>750.2</ele><time>2026-04-12T07:36:10.637Z</time></trkpt><trkpt lat="43.7830614" lon="12.3394287"><ele>751.4000000000001</ele><time>2026-04-12T07:36:11.63Z</time></trkpt><trkpt lat="43.7830253" lon="12.3393288"><ele>752.6</ele><time>2026-04-12T07:36:12.688Z</time></trkpt><trkpt lat="43.7830002" lon="12.3392395"><ele>753.8</ele><time>2026-04-12T07:36:13.648Z</time></trkpt><trkpt lat="43.7830565" lon="12.3390939"><ele>755.0</ele><time>2026-04-12T07:36:15.638Z</time></trkpt><trkpt lat="43.7831499" lon="12.3390493"><ele>755.0</ele><time>2026-04-12T07:36:16.629Z</time></trkpt><trkpt lat="43.7832509" lon="12.3389883"><ele>755.0</ele><time>2026-04-12T07:36:17.635Z</time></trkpt><trkpt lat="43.7833481" lon="12.3389189"><ele>755.0</ele><time>2026-04-12T07:36:18.653Z</time></trkpt><trkpt lat="43.7834328" lon="12.3388547"><ele>755.0</ele><time>2026-04-12T07:36:19.641Z</time></trkpt><trkpt lat="43.7835667" lon="12.3387436"><ele>755.8</ele><time>2026-04-12T07:36:21.647Z</time></trkpt><trkpt lat="43.7836136" lon="12.3386328"><ele>756.6</ele><time>2026-04-12T07:36:23.645Z</time></trkpt><trkpt lat="43.7835816" lon="12.3385558"><ele>757.4000000000001</ele><time>2026-04-12T07:36:24.661Z</time></trkpt><trkpt lat="43.7835232" lon="12.3384781"><ele>758.2</ele><time>2026-04-12T07:36:25.652Z</time></trkpt><trkpt lat="43.7834499" lon="12.3383681"><ele>759.0</ele><time>2026-04-12T07:36:26.638Z</time></trkpt><trkpt lat="43.783378" lon="12.3382447"><ele>759.0</ele><time>2026-04-12T07:36:27.659Z</time></trkpt><trkpt lat="43.7833226" lon="12.338121"><ele>759.0</ele><time>2026-04-12T07:36:28.645Z</time></trkpt><trkpt lat="43.7832892" lon="12.3379884"><ele>759.0</ele><time>2026-04-12T07:36:29.737Z</time></trkpt><trkpt lat="43.7832717" lon="12.3378359"><ele>759.0</ele><time>2026-04-12T07:36:30.649Z</time></trkpt><trkpt lat="43.7832646" lon="12.3376861"><ele>759.0</ele><time>2026-04-12T07:36:31.647Z</time></trkpt><trkpt lat="43.7832637" lon="12.3375252"><ele>760.0</ele><time>2026-04-12T07:36:32.648Z</time></trkpt><trkpt lat="43.7832523" lon="12.3373623"><ele>761.0</ele><time>2026-04-12T07:36:33.642Z</time></trkpt><trkpt lat="43.7832427" lon="12.3371977"><ele>762.0</ele><time>2026-04-12T07:36:34.644Z</time></trkpt><trkpt lat="43.7832258" lon="12.3370222"><ele>763.0</ele><time>2026-04-12T07:36:35.631Z</time></trkpt><trkpt lat="43.7831964" lon="12.336842"><ele>764.0</ele><time>2026-04-12T07:36:36.646Z</time></trkpt><trkpt lat="43.7831756" lon="12.3366567"><ele>765.0</ele><time>2026-04-12T07:36:37.642Z</time></trkpt><trkpt lat="43.7831574" lon="12.3364773"><ele>766.0</ele><time>2026-04-12T07:36:38.646Z</time></trkpt><trkpt lat="43.78314" lon="12.3363002"><ele>767.0</ele><time>2026-04-12T07:36:39.735Z</time></trkpt><trkpt lat="43.7830994" lon="12.3359559"><ele>767.5</ele><time>2026-04-12T07:36:41.639Z</time></trkpt><trkpt lat="43.7830565" lon="12.3357878"><ele>768.0</ele><time>2026-04-12T07:36:42.628Z</time></trkpt><trkpt lat="43.7829855" lon="12.3356216"><ele>768.5</ele><time>2026-04-12T07:36:43.634Z</time></trkpt><trkpt lat="43.7829084" lon="12.3354663"><ele>769.0</ele><time>2026-04-12T07:36:44.639Z</time></trkpt><trkpt lat="43.7828283" lon="12.3353145"><ele>769.0</ele><time>2026-04-12T07:36:45.624Z</time></trkpt><trkpt lat="43.7827504" lon="12.3351516"><ele>769.0</ele><time>2026-04-12T07:36:46.641Z</time></trkpt><trkpt lat="43.7826726" lon="12.334997"><ele>769.0</ele><time>2026-04-12T07:36:47.626Z</time></trkpt><trkpt lat="43.7825946" lon="12.33485"><ele>769.0</ele><time>2026-04-12T07:36:48.63Z</time></trkpt><trkpt lat="43.7825288" lon="12.3347445"><ele>769.8333333333333</ele><time>2026-04-12T07:36:49.637Z</time></trkpt><trkpt lat="43.7824743" lon="12.3346608"><ele>770.6666666666666</ele><time>2026-04-12T07:36:50.632Z</time></trkpt><trkpt lat="43.7824295" lon="12.3345692"><ele>771.5</ele><time>2026-04-12T07:36:51.633Z</time></trkpt><trkpt lat="43.7823934" lon="12.3344871"><ele>772.3333333333333</ele><time>2026-04-12T07:36:52.625Z</time></trkpt><trkpt lat="43.782395" lon="12.3343025"><ele>773.1666666666666</ele><time>2026-04-12T07:36:54.653Z</time></trkpt><trkpt lat="43.7823838" lon="12.334197"><ele>774.0</ele><time>2026-04-12T07:36:55.639Z</time></trkpt><trkpt lat="43.782342" lon="12.3340755"><ele>774.0</ele><time>2026-04-12T07:36:56.638Z</time></trkpt><trkpt lat="43.7822867" lon="12.3339922"><ele>774.0</ele><time>2026-04-12T07:36:57.64Z</time></trkpt><trkpt lat="43.782216" lon="12.3339496"><ele>774.0</ele><time>2026-04-12T07:36:58.634Z</time></trkpt><trkpt lat="43.7821441" lon="12.3338833"><ele>774.0</ele><time>2026-04-12T07:36:59.643Z</time></trkpt><trkpt lat="43.7820785" lon="12.333821"><ele>774.0</ele><time>2026-04-12T07:37:00.727Z</time></trkpt><trkpt lat="43.7819608" lon="12.3337324"><ele>774.1666666666666</ele><time>2026-04-12T07:37:02.647Z</time></trkpt><trkpt lat="43.7819078" lon="12.3336694"><ele>774.3333333333333</ele><time>2026-04-12T07:37:03.631Z</time></trkpt><trkpt lat="43.7818605" lon="12.3336103"><ele>774.5</ele><time>2026-04-12T07:37:04.649Z</time></trkpt><trkpt lat="43.7818177" lon="12.3335358"><ele>774.6666666666666</ele><time>2026-04-12T07:37:05.629Z</time></trkpt><trkpt lat="43.7817845" lon="12.3334535"><ele>774.8333333333333</ele><time>2026-04-12T07:37:06.634Z</time></trkpt><trkpt lat="43.781792" lon="12.333293"><ele>775.0</ele><time>2026-04-12T07:37:08.644Z</time></trkpt><trkpt lat="43.7818306" lon="12.3332048"><ele>775.2</ele><time>2026-04-12T07:37:09.646Z</time></trkpt><trkpt lat="43.7818817" lon="12.3331362"><ele>775.4</ele><time>2026-04-12T07:37:10.721Z</time></trkpt><trkpt lat="43.7819483" lon="12.3330742"><ele>775.5999999999999</ele><time>2026-04-12T07:37:11.632Z</time></trkpt><trkpt lat="43.7820695" lon="12.3330239"><ele>775.8</ele><time>2026-04-12T07:37:12.641Z</time></trkpt><trkpt lat="43.7821407" lon="12.3329244"><ele>776.0</ele><time>2026-04-12T07:37:13.634Z</time></trkpt><trkpt lat="43.7822176" lon="12.3327889"><ele>777.0</ele><time>2026-04-12T07:37:14.659Z</time></trkpt><trkpt lat="43.7822627" lon="12.3326613"><ele>778.0</ele><time>2026-04-12T07:37:15.643Z</time></trkpt><trkpt lat="43.782275" lon="12.3325246"><ele>779.0</ele><time>2026-04-12T07:37:16.669Z</time></trkpt><trkpt lat="43.7822787" lon="12.3323947"><ele>780.0</ele><time>2026-04-12T07:37:17.641Z</time></trkpt><trkpt lat="43.782289" lon="12.3322723"><ele>781.0</ele><time>2026-04-12T07:37:18.633Z</time></trkpt><trkpt lat="43.7823086" lon="12.3321651"><ele>782.0</ele><time>2026-04-12T07:37:19.648Z</time></trkpt><trkpt lat="43.7823327" lon="12.3320698"><ele>783.0</ele><time>2026-04-12T07:37:20.635Z</time></trkpt><trkpt lat="43.7823557" lon="12.3319805"><ele>784.0</ele><time>2026-04-12T07:37:21.743Z</time></trkpt><trkpt lat="43.7823926" lon="12.3317366"><ele>785.0</ele><time>2026-04-12T07:37:24.651Z</time></trkpt><trkpt lat="43.7823807" lon="12.3316376"><ele>786.0</ele><time>2026-04-12T07:37:26.648Z</time></trkpt><trkpt lat="43.7823148" lon="12.331491"><ele>787.75</ele><time>2026-04-12T07:37:28.651Z</time></trkpt><trkpt lat="43.782259" lon="12.3313547"><ele>789.5</ele><time>2026-04-12T07:37:29.642Z</time></trkpt><trkpt lat="43.7821907" lon="12.331216"><ele>791.25</ele><time>2026-04-12T07:37:30.644Z</time></trkpt><trkpt lat="43.7821242" lon="12.3310641"><ele>793.0</ele><time>2026-04-12T07:37:31.643Z</time></trkpt><trkpt lat="43.7820704" lon="12.3309258"><ele>793.0</ele><time>2026-04-12T07:37:32.735Z</time></trkpt><trkpt lat="43.7820194" lon="12.3307835"><ele>793.0</ele><time>2026-04-12T07:37:33.64Z</time></trkpt><trkpt lat="43.7819735" lon="12.330646"><ele>793.0</ele><time>2026-04-12T07:37:34.64Z</time></trkpt><trkpt lat="43.7819301" lon="12.3305168"><ele>793.0</ele><time>2026-04-12T07:37:35.649Z</time></trkpt><trkpt lat="43.781883" lon="12.3303893"><ele>793.0</ele><time>2026-04-12T07:37:36.635Z</time></trkpt><trkpt lat="43.7818262" lon="12.3302434"><ele>792.5</ele><time>2026-04-12T07:37:37.651Z</time></trkpt><trkpt lat="43.7817551" lon="12.3301153"><ele>792.0</ele><time>2026-04-12T07:37:38.67Z</time></trkpt><trkpt lat="43.7816814" lon="12.3299689"><ele>791.5</ele><time>2026-04-12T07:37:39.633Z</time></trkpt><trkpt lat="43.7816183" lon="12.3298121"><ele>791.0</ele><time>2026-04-12T07:37:40.629Z</time></trkpt><trkpt lat="43.7815623" lon="12.3296459"><ele>794.6666666666667</ele><time>2026-04-12T07:37:41.654Z</time></trkpt><trkpt lat="43.7815128" lon="12.329473"><ele>798.3333333333333</ele><time>2026-04-12T07:37:42.65Z</time></trkpt><trkpt lat="43.7813995" lon="12.3291108"><ele>802.0</ele><time>2026-04-12T07:37:44.634Z</time></trkpt><trkpt lat="43.7813357" lon="12.3289274"><ele>805.25</ele><time>2026-04-12T07:37:45.652Z</time></trkpt><trkpt lat="43.7812654" lon="12.3287514"><ele>808.5</ele><time>2026-04-12T07:37:46.634Z</time></trkpt><trkpt lat="43.781205" lon="12.3285903"><ele>811.75</ele><time>2026-04-12T07:37:47.631Z</time></trkpt><trkpt lat="43.7811484" lon="12.3284383"><ele>815.0</ele><time>2026-04-12T07:37:48.646Z</time></trkpt><trkpt lat="43.7811026" lon="12.3283044"><ele>815.0</ele><time>2026-04-12T07:37:49.64Z</time></trkpt><trkpt lat="43.7810661" lon="12.3281778"><ele>815.0</ele><time>2026-04-12T07:37:50.633Z</time></trkpt><trkpt lat="43.7810413" lon="12.3280448"><ele>815.0</ele><time>2026-04-12T07:37:51.651Z</time></trkpt><trkpt lat="43.781027" lon="12.3279314"><ele>815.0</ele><time>2026-04-12T07:37:52.639Z</time></trkpt><trkpt lat="43.7810212" lon="12.3277986"><ele>815.0</ele><time>2026-04-12T07:37:53.644Z</time></trkpt><trkpt lat="43.7810172" lon="12.3276481"><ele>815.8</ele><time>2026-04-12T07:37:54.623Z</time></trkpt><trkpt lat="43.7810078" lon="12.3274962"><ele>816.6</ele><time>2026-04-12T07:37:55.653Z</time></trkpt><trkpt lat="43.7809984" lon="12.3273407"><ele>817.4000000000001</ele><time>2026-04-12T07:37:56.63Z</time></trkpt><trkpt lat="43.7809962" lon="12.3271951"><ele>818.2</ele><time>2026-04-12T07:37:57.636Z</time></trkpt><trkpt lat="43.7809894" lon="12.3270747"><ele>819.0</ele><time>2026-04-12T07:37:58.624Z</time></trkpt><trkpt lat="43.7809845" lon="12.326978"><ele>820.5</ele><time>2026-04-12T07:37:59.631Z</time></trkpt><trkpt lat="43.7810011" lon="12.3268487"><ele>822.0</ele><time>2026-04-12T07:38:01.631Z</time></trkpt><trkpt lat="43.7810689" lon="12.3267426"><ele>823.5</ele><time>2026-04-12T07:38:03.628Z</time></trkpt><trkpt lat="43.7810623" lon="12.3264867"><ele>825.0</ele><time>2026-04-12T07:38:05.637Z</time></trkpt><trkpt lat="43.7810625" lon="12.3263433"><ele>829.6</ele><time>2026-04-12T07:38:06.64Z</time></trkpt><trkpt lat="43.7810593" lon="12.3261974"><ele>834.2</ele><time>2026-04-12T07:38:07.629Z</time></trkpt><trkpt lat="43.7810643" lon="12.3260461"><ele>838.8</ele><time>2026-04-12T07:38:08.629Z</time></trkpt><trkpt lat="43.781081" lon="12.3258909"><ele>843.4</ele><time>2026-04-12T07:38:09.633Z</time></trkpt><trkpt lat="43.7811094" lon="12.3257307"><ele>848.0</ele><time>2026-04-12T07:38:10.643Z</time></trkpt><trkpt lat="43.7811621" lon="12.3255807"><ele>848.0</ele><time>2026-04-12T07:38:11.64Z</time></trkpt><trkpt lat="43.7812103" lon="12.3254014"><ele>848.0</ele><time>2026-04-12T07:38:12.644Z</time></trkpt><trkpt lat="43.7812621" lon="12.3252158"><ele>848.0</ele><time>2026-04-12T07:38:13.644Z</time></trkpt><trkpt lat="43.7813118" lon="12.3250158"><ele>848.0</ele><time>2026-04-12T07:38:14.732Z</time></trkpt><trkpt lat="43.7813521" lon="12.324854"><ele>846.8</ele><time>2026-04-12T07:38:15.735Z</time></trkpt><trkpt lat="43.7813903" lon="12.324702"><ele>845.5999999999999</ele><time>2026-04-12T07:38:16.652Z</time></trkpt><trkpt lat="43.7814219" lon="12.3245569"><ele>844.4000000000001</ele><time>2026-04-12T07:38:17.646Z</time></trkpt><trkpt lat="43.7814539" lon="12.3244156"><ele>843.2</ele><time>2026-04-12T07:38:18.625Z</time></trkpt><trkpt lat="43.7814935" lon="12.3242691"><ele>842.0</ele><time>2026-04-12T07:38:19.648Z</time></trkpt><trkpt lat="43.7815502" lon="12.3241259"><ele>842.0</ele><time>2026-04-12T07:38:20.635Z</time></trkpt><trkpt lat="43.7816126" lon="12.3239818"><ele>842.0</ele><time>2026-04-12T07:38:21.645Z</time></trkpt><trkpt lat="43.7816672" lon="12.3238438"><ele>842.0</ele><time>2026-04-12T07:38:22.639Z</time></trkpt><trkpt lat="43.7816921" lon="12.3237004"><ele>842.0</ele><time>2026-04-12T07:38:23.636Z</time></trkpt><trkpt lat="43.7816897" lon="12.3235515"><ele>842.0</ele><time>2026-04-12T07:38:24.624Z</time></trkpt><trkpt lat="43.7816813" lon="12.3232123"><ele>841.8</ele><time>2026-04-12T07:38:27.629Z</time></trkpt><trkpt lat="43.78169" lon="12.3231036"><ele>841.6</ele><time>2026-04-12T07:38:28.643Z</time></trkpt><trkpt lat="43.7817053" lon="12.3229829"><ele>841.4</ele><time>2026-04-12T07:38:29.63Z</time></trkpt><trkpt lat="43.7817116" lon="12.3228402"><ele>841.1999999999999</ele><time>2026-04-12T07:38:30.72Z</time></trkpt><trkpt lat="43.7817148" lon="12.3226864"><ele>841.0</ele><time>2026-04-12T07:38:31.625Z</time></trkpt><trkpt lat="43.7817216" lon="12.3225308"><ele>841.0</ele><time>2026-04-12T07:38:32.653Z</time></trkpt><trkpt lat="43.781735" lon="12.3223858"><ele>841.0</ele><time>2026-04-12T07:38:33.638Z</time></trkpt><trkpt lat="43.7817395" lon="12.3222343"><ele>841.0</ele><time>2026-04-12T07:38:34.637Z</time></trkpt><trkpt lat="43.7817318" lon="12.3220696"><ele>841.0</ele><time>2026-04-12T07:38:35.629Z</time></trkpt><trkpt lat="43.7817193" lon="12.3219197"><ele>841.0</ele><time>2026-04-12T07:38:36.736Z</time></trkpt><trkpt lat="43.7817128" lon="12.3217805"><ele>842.0</ele><time>2026-04-12T07:38:37.638Z</time></trkpt><trkpt lat="43.7817165" lon="12.3216365"><ele>843.0</ele><time>2026-04-12T07:38:38.631Z</time></trkpt><trkpt lat="43.78174" lon="12.321509"><ele>844.0</ele><time>2026-04-12T07:38:39.632Z</time></trkpt><trkpt lat="43.7817831" lon="12.3213559"><ele>845.0</ele><time>2026-04-12T07:38:40.633Z</time></trkpt><trkpt lat="43.7818119" lon="12.3211919"><ele>846.0</ele><time>2026-04-12T07:38:41.636Z</time></trkpt><trkpt lat="43.7818239" lon="12.3210143"><ele>846.5</ele><time>2026-04-12T07:38:42.623Z</time></trkpt><trkpt lat="43.781828" lon="12.3208398"><ele>847.0</ele><time>2026-04-12T07:38:43.632Z</time></trkpt><trkpt lat="43.7818333" lon="12.3206744"><ele>847.5</ele><time>2026-04-12T07:38:44.629Z</time></trkpt><trkpt lat="43.7818477" lon="12.3205128"><ele>848.0</ele><time>2026-04-12T07:38:45.641Z</time></trkpt><trkpt lat="43.7818845" lon="12.3202317"><ele>849.8333333333334</ele><time>2026-04-12T07:38:47.641Z</time></trkpt><trkpt lat="43.7819174" lon="12.3201193"><ele>851.6666666666667</ele><time>2026-04-12T07:38:48.626Z</time></trkpt><trkpt lat="43.7819575" lon="12.3200309"><ele>853.5</ele><time>2026-04-12T07:38:49.648Z</time></trkpt><trkpt lat="43.7819854" lon="12.3199457"><ele>855.3333333333333</ele><time>2026-04-12T07:38:50.639Z</time></trkpt><trkpt lat="43.7819888" lon="12.3198413"><ele>857.1666666666666</ele><time>2026-04-12T07:38:51.63Z</time></trkpt><trkpt lat="43.781971" lon="12.3196977"><ele>859.0</ele><time>2026-04-12T07:38:52.632Z</time></trkpt><trkpt lat="43.7819221" lon="12.3195405"><ele>859.0</ele><time>2026-04-12T07:38:53.648Z</time></trkpt><trkpt lat="43.7818732" lon="12.3193754"><ele>859.0</ele><time>2026-04-12T07:38:54.631Z</time></trkpt><trkpt lat="43.7818433" lon="12.319221"><ele>859.0</ele><time>2026-04-12T07:38:55.632Z</time></trkpt><trkpt lat="43.7818237" lon="12.3190739"><ele>859.0</ele><time>2026-04-12T07:38:56.639Z</time></trkpt><trkpt lat="43.7818088" lon="12.3189327"><ele>859.25</ele><time>2026-04-12T07:38:57.742Z</time></trkpt><trkpt lat="43.7818372" lon="12.3186988"><ele>859.5</ele><time>2026-04-12T07:38:59.657Z</time></trkpt><trkpt lat="43.7818984" lon="12.3185854"><ele>859.75</ele><time>2026-04-12T07:39:00.625Z</time></trkpt><trkpt lat="43.781971" lon="12.3184888"><ele>860.0</ele><time>2026-04-12T07:39:01.631Z</time></trkpt><trkpt lat="43.7820558" lon="12.3184008"><ele>860.75</ele><time>2026-04-12T07:39:02.633Z</time></trkpt><trkpt lat="43.782144" lon="12.3183069"><ele>861.5</ele><time>2026-04-12T07:39:03.631Z</time></trkpt><trkpt lat="43.782234" lon="12.3182118"><ele>862.25</ele><time>2026-04-12T07:39:04.643Z</time></trkpt><trkpt lat="43.7823161" lon="12.3181055"><ele>863.0</ele><time>2026-04-12T07:39:05.645Z</time></trkpt><trkpt lat="43.7823895" lon="12.3179779"><ele>863.25</ele><time>2026-04-12T07:39:06.649Z</time></trkpt><trkpt lat="43.7824978" lon="12.3176995"><ele>863.5</ele><time>2026-04-12T07:39:08.736Z</time></trkpt><trkpt lat="43.7825289" lon="12.3175793"><ele>863.75</ele><time>2026-04-12T07:39:09.646Z</time></trkpt><trkpt lat="43.78254" lon="12.3174858"><ele>864.0</ele><time>2026-04-12T07:39:10.65Z</time></trkpt><trkpt lat="43.7825057" lon="12.317343"><ele>864.0</ele><time>2026-04-12T07:39:12.644Z</time></trkpt><trkpt lat="43.7823869" lon="12.3173059"><ele>864.0000000000001</ele><time>2026-04-12T07:39:14.659Z</time></trkpt><trkpt lat="43.7822956" lon="12.3173824"><ele>864.0000000000001</ele><time>2026-04-12T07:39:15.636Z</time></trkpt><trkpt lat="43.7821914" lon="12.3174293"><ele>864.0</ele><time>2026-04-12T07:39:16.643Z</time></trkpt><trkpt lat="43.7820995" lon="12.3174602"><ele>864.0</ele><time>2026-04-12T07:39:17.654Z</time></trkpt><trkpt lat="43.7820334" lon="12.3174226"><ele>865.8000000000001</ele><time>2026-04-12T07:39:18.632Z</time></trkpt><trkpt lat="43.7819995" lon="12.3171822"><ele>867.6000000000001</ele><time>2026-04-12T07:39:21.645Z</time></trkpt><trkpt lat="43.7820143" lon="12.3170837"><ele>869.4</ele><time>2026-04-12T07:39:22.646Z</time></trkpt><trkpt lat="43.7820273" lon="12.3169682"><ele>871.2</ele><time>2026-04-12T07:39:23.65Z</time></trkpt><trkpt lat="43.7820267" lon="12.316839"><ele>873.0</ele><time>2026-04-12T07:39:24.68Z</time></trkpt><trkpt lat="43.7820212" lon="12.3166892"><ele>873.0</ele><time>2026-04-12T07:39:25.659Z</time></trkpt><trkpt lat="43.7820189" lon="12.3165304"><ele>873.0</ele><time>2026-04-12T07:39:26.648Z</time></trkpt><trkpt lat="43.7820104" lon="12.3163588"><ele>873.0</ele><time>2026-04-12T07:39:27.708Z</time></trkpt><trkpt lat="43.7820067" lon="12.3160261"><ele>874.75</ele><time>2026-04-12T07:39:29.657Z</time></trkpt><trkpt lat="43.7820202" lon="12.3158711"><ele>876.5</ele><time>2026-04-12T07:39:30.642Z</time></trkpt><trkpt lat="43.7820619" lon="12.3157058"><ele>878.25</ele><time>2026-04-12T07:39:31.676Z</time></trkpt><trkpt lat="43.7821262" lon="12.3155485"><ele>880.0</ele><time>2026-04-12T07:39:32.643Z</time></trkpt><trkpt lat="43.7821919" lon="12.3153817"><ele>883.75</ele><time>2026-04-12T07:39:33.658Z</time></trkpt><trkpt lat="43.7822675" lon="12.3152257"><ele>887.5</ele><time>2026-04-12T07:39:34.643Z</time></trkpt><trkpt lat="43.7823385" lon="12.3150668"><ele>891.25</ele><time>2026-04-12T07:39:35.648Z</time></trkpt><trkpt lat="43.7824017" lon="12.3148925"><ele>895.0</ele><time>2026-04-12T07:39:36.641Z</time></trkpt><trkpt lat="43.7824612" lon="12.3147304"><ele>897.75</ele><time>2026-04-12T07:39:37.653Z</time></trkpt><trkpt lat="43.782512" lon="12.3145798"><ele>900.5</ele><time>2026-04-12T07:39:38.659Z</time></trkpt><trkpt lat="43.7825557" lon="12.3144153"><ele>903.25</ele><time>2026-04-12T07:39:39.641Z</time></trkpt><trkpt lat="43.7826002" lon="12.3142491"><ele>906.0</ele><time>2026-04-12T07:39:40.639Z</time></trkpt><trkpt lat="43.7826321" lon="12.3140734"><ele>907.5</ele><time>2026-04-12T07:39:41.651Z</time></trkpt><trkpt lat="43.782664" lon="12.3138786"><ele>909.0</ele><time>2026-04-12T07:39:42.659Z</time></trkpt><trkpt lat="43.782701" lon="12.3136771"><ele>910.5</ele><time>2026-04-12T07:39:43.64Z</time></trkpt><trkpt lat="43.7827413" lon="12.3134793"><ele>912.0</ele><time>2026-04-12T07:39:44.633Z</time></trkpt><trkpt lat="43.7827774" lon="12.3132874"><ele>912.0</ele><time>2026-04-12T07:39:45.654Z</time></trkpt><trkpt lat="43.7827953" lon="12.3131328"><ele>912.0</ele><time>2026-04-12T07:39:46.635Z</time></trkpt><trkpt lat="43.7828094" lon="12.3130334"><ele>912.0</ele><time>2026-04-12T07:39:47.651Z</time></trkpt><trkpt lat="43.7828474" lon="12.3129283"><ele>912.0</ele><time>2026-04-12T07:39:48.667Z</time></trkpt><trkpt lat="43.7829501" lon="12.3126815"><ele>915.6666666666667</ele><time>2026-04-12T07:39:50.673Z</time></trkpt><trkpt lat="43.7830052" lon="12.3125517"><ele>919.3333333333334</ele><time>2026-04-12T07:39:51.747Z</time></trkpt><trkpt lat="43.7831317" lon="12.3122812"><ele>923.0</ele><time>2026-04-12T07:39:53.663Z</time></trkpt><trkpt lat="43.7831978" lon="12.3121469"><ele>925.75</ele><time>2026-04-12T07:39:54.664Z</time></trkpt><trkpt lat="43.7832507" lon="12.3120095"><ele>928.5</ele><time>2026-04-12T07:39:55.758Z</time></trkpt><trkpt lat="43.7833126" lon="12.3118685"><ele>931.25</ele><time>2026-04-12T07:39:56.66Z</time></trkpt><trkpt lat="43.7833786" lon="12.311726"><ele>934.0</ele><time>2026-04-12T07:39:57.663Z</time></trkpt><trkpt lat="43.7834349" lon="12.3116177"><ele>933.9999999999999</ele><time>2026-04-12T07:39:58.664Z</time></trkpt><trkpt lat="43.7834704" lon="12.3115205"><ele>934.0</ele><time>2026-04-12T07:39:59.658Z</time></trkpt><trkpt lat="43.7834869" lon="12.3114174"><ele>934.0</ele><time>2026-04-12T07:40:00.669Z</time></trkpt><trkpt lat="43.7835126" lon="12.3113127"><ele>934.0</ele><time>2026-04-12T07:40:01.647Z</time></trkpt><trkpt lat="43.7835339" lon="12.3112089"><ele>933.9999999999999</ele><time>2026-04-12T07:40:02.666Z</time></trkpt><trkpt lat="43.783541" lon="12.311106"><ele>934.0</ele><time>2026-04-12T07:40:03.652Z</time></trkpt><trkpt lat="43.7835281" lon="12.3109949"><ele>935.6666666666666</ele><time>2026-04-12T07:40:04.632Z</time></trkpt><trkpt lat="43.7835078" lon="12.3108755"><ele>937.3333333333333</ele><time>2026-04-12T07:40:05.654Z</time></trkpt><trkpt lat="43.7834996" lon="12.3107685"><ele>939.0</ele><time>2026-04-12T07:40:06.658Z</time></trkpt><trkpt lat="43.783515" lon="12.3106618"><ele>940.6666666666667</ele><time>2026-04-12T07:40:07.657Z</time></trkpt><trkpt lat="43.7835449" lon="12.3105432"><ele>942.3333333333334</ele><time>2026-04-12T07:40:08.653Z</time></trkpt><trkpt lat="43.7835735" lon="12.3104008"><ele>944.0</ele><time>2026-04-12T07:40:09.652Z</time></trkpt><trkpt lat="43.7836165" lon="12.3101336"><ele>947.4000000000001</ele><time>2026-04-12T07:40:11.625Z</time></trkpt><trkpt lat="43.7836423" lon="12.3100207"><ele>950.8000000000001</ele><time>2026-04-12T07:40:12.653Z</time></trkpt><trkpt lat="43.7836734" lon="12.3098977"><ele>954.1999999999999</ele><time>2026-04-12T07:40:13.64Z</time></trkpt><trkpt lat="43.7837194" lon="12.309778"><ele>957.5999999999999</ele><time>2026-04-12T07:40:14.639Z</time></trkpt><trkpt lat="43.7837711" lon="12.3096471"><ele>961.0</ele><time>2026-04-12T07:40:15.648Z</time></trkpt><trkpt lat="43.7838247" lon="12.3095049"><ele>961.8</ele><time>2026-04-12T07:40:16.647Z</time></trkpt><trkpt lat="43.7838646" lon="12.3093688"><ele>962.5999999999999</ele><time>2026-04-12T07:40:17.654Z</time></trkpt><trkpt lat="43.7839052" lon="12.309248"><ele>963.4</ele><time>2026-04-12T07:40:18.644Z</time></trkpt><trkpt lat="43.7839528" lon="12.3091333"><ele>964.2</ele><time>2026-04-12T07:40:19.642Z</time></trkpt><trkpt lat="43.7840109" lon="12.3090067"><ele>965.0</ele><time>2026-04-12T07:40:20.651Z</time></trkpt><trkpt lat="43.7840732" lon="12.308869"><ele>965.4</ele><time>2026-04-12T07:40:21.637Z</time></trkpt><trkpt lat="43.7841295" lon="12.3087386"><ele>965.8</ele><time>2026-04-12T07:40:22.648Z</time></trkpt><trkpt lat="43.7841775" lon="12.3086077"><ele>966.2</ele><time>2026-04-12T07:40:23.655Z</time></trkpt><trkpt lat="43.7842149" lon="12.3084704"><ele>966.6</ele><time>2026-04-12T07:40:24.643Z</time></trkpt><trkpt lat="43.7842469" lon="12.3083204"><ele>967.0</ele><time>2026-04-12T07:40:25.661Z</time></trkpt><trkpt lat="43.7842742" lon="12.3081786"><ele>968.0</ele><time>2026-04-12T07:40:26.648Z</time></trkpt><trkpt lat="43.7842935" lon="12.3080495"><ele>969.0</ele><time>2026-04-12T07:40:27.757Z</time></trkpt><trkpt lat="43.7843005" lon="12.3077633"><ele>970.0</ele><time>2026-04-12T07:40:29.653Z</time></trkpt><trkpt lat="43.784301" lon="12.3076118"><ele>971.0</ele><time>2026-04-12T07:40:30.631Z</time></trkpt><trkpt lat="43.7843016" lon="12.307351"><ele>971.0</ele><time>2026-04-12T07:40:32.648Z</time></trkpt><trkpt lat="43.7843158" lon="12.3072402"><ele>971.0</ele><time>2026-04-12T07:40:33.648Z</time></trkpt><trkpt lat="43.7843567" lon="12.3071193"><ele>971.0</ele><time>2026-04-12T07:40:34.747Z</time></trkpt><trkpt lat="43.7844594" lon="12.3068692"><ele>971.0</ele><time>2026-04-12T07:40:36.648Z</time></trkpt><trkpt lat="43.7845253" lon="12.3067223"><ele>973.8</ele><time>2026-04-12T07:40:37.653Z</time></trkpt><trkpt lat="43.7845958" lon="12.3065829"><ele>976.5999999999999</ele><time>2026-04-12T07:40:38.64Z</time></trkpt><trkpt lat="43.7846468" lon="12.3064758"><ele>979.4</ele><time>2026-04-12T07:40:39.644Z</time></trkpt><trkpt lat="43.7846794" lon="12.3063798"><ele>982.2</ele><time>2026-04-12T07:40:40.652Z</time></trkpt><trkpt lat="43.7847214" lon="12.306261"><ele>985.0</ele><time>2026-04-12T07:40:41.634Z</time></trkpt><trkpt lat="43.7847714" lon="12.3061334"><ele>985.8</ele><time>2026-04-12T07:40:42.629Z</time></trkpt><trkpt lat="43.7848118" lon="12.3060146"><ele>986.6</ele><time>2026-04-12T07:40:43.641Z</time></trkpt><trkpt lat="43.7848542" lon="12.3059177"><ele>987.4000000000001</ele><time>2026-04-12T07:40:44.633Z</time></trkpt><trkpt lat="43.7849006" lon="12.3058066"><ele>988.2</ele><time>2026-04-12T07:40:45.644Z</time></trkpt><trkpt lat="43.7849377" lon="12.3056968"><ele>989.0</ele><time>2026-04-12T07:40:46.634Z</time></trkpt><trkpt lat="43.7849653" lon="12.3055638"><ele>989.6</ele><time>2026-04-12T07:40:47.649Z</time></trkpt><trkpt lat="43.784998" lon="12.3054339"><ele>990.2</ele><time>2026-04-12T07:40:48.631Z</time></trkpt><trkpt lat="43.7850254" lon="12.3053129"><ele>990.8000000000001</ele><time>2026-04-12T07:40:49.633Z</time></trkpt><trkpt lat="43.7850363" lon="12.305193"><ele>991.4000000000001</ele><time>2026-04-12T07:40:50.645Z</time></trkpt><trkpt lat="43.7850425" lon="12.3050735"><ele>992.0</ele><time>2026-04-12T07:40:51.647Z</time></trkpt><trkpt lat="43.7850868" lon="12.3048527"><ele>992.0000000000001</ele><time>2026-04-12T07:40:53.636Z</time></trkpt><trkpt lat="43.7851293" lon="12.30475"><ele>992.0</ele><time>2026-04-12T07:40:54.637Z</time></trkpt><trkpt lat="43.7851787" lon="12.3046634"><ele>992.0</ele><time>2026-04-12T07:40:55.655Z</time></trkpt><trkpt lat="43.7852165" lon="12.3045806"><ele>992.0</ele><time>2026-04-12T07:40:56.65Z</time></trkpt><trkpt lat="43.7852271" lon="12.3044869"><ele>992.0000000000001</ele><time>2026-04-12T07:40:57.644Z</time></trkpt><trkpt lat="43.7851973" lon="12.3043497"><ele>992.0</ele><time>2026-04-12T07:40:59.646Z</time></trkpt><trkpt lat="43.7851595" lon="12.304268"><ele>992.6</ele><time>2026-04-12T07:41:01.652Z</time></trkpt><trkpt lat="43.7851139" lon="12.3041752"><ele>993.2</ele><time>2026-04-12T07:41:04.65Z</time></trkpt><trkpt lat="43.7850628" lon="12.3040884"><ele>993.8</ele><time>2026-04-12T07:41:07.655Z</time></trkpt><trkpt lat="43.7850163" lon="12.3040112"><ele>994.4</ele><time>2026-04-12T07:41:10.646Z</time></trkpt><trkpt lat="43.7849816" lon="12.3039336"><ele>995.0</ele><time>2026-04-12T07:41:46.638Z</time></trkpt><trkpt lat="43.7848715" lon="12.3037787"><ele>995.8</ele><time>2026-04-12T07:41:49.658Z</time></trkpt><trkpt lat="43.7848212" lon="12.3037018"><ele>996.6</ele><time>2026-04-12T07:41:50.65Z</time></trkpt><trkpt lat="43.7847546" lon="12.3036163"><ele>997.4000000000001</ele><time>2026-04-12T07:41:51.651Z</time></trkpt><trkpt lat="43.7846727" lon="12.3035154"><ele>998.2</ele><time>2026-04-12T07:41:52.643Z</time></trkpt><trkpt lat="43.7846022" lon="12.3034202"><ele>999.0</ele><time>2026-04-12T07:41:53.642Z</time></trkpt><trkpt lat="43.7845365" lon="12.3033366"><ele>999.0</ele><time>2026-04-12T07:41:54.64Z</time></trkpt><trkpt lat="43.7844727" lon="12.303256"><ele>999.0</ele><time>2026-04-12T07:41:55.639Z</time></trkpt><trkpt lat="43.7844119" lon="12.3031778"><ele>999.0</ele><time>2026-04-12T07:41:56.654Z</time></trkpt><trkpt lat="43.7843484" lon="12.3030959"><ele>999.0</ele><time>2026-04-12T07:41:57.642Z</time></trkpt><trkpt lat="43.7842899" lon="12.3030153"><ele>999.0</ele><time>2026-04-12T07:41:58.65Z</time></trkpt><trkpt lat="43.7842466" lon="12.3029364"><ele>999.0</ele><time>2026-04-12T07:41:59.639Z</time></trkpt><trkpt lat="43.7842104" lon="12.3027797"><ele>998.8000000000001</ele><time>2026-04-12T07:42:01.643Z</time></trkpt><trkpt lat="43.7842357" lon="12.302634"><ele>998.6000000000001</ele><time>2026-04-12T07:42:03.758Z</time></trkpt><trkpt lat="43.7843004" lon="12.3025809"><ele>998.4</ele><time>2026-04-12T07:42:04.675Z</time></trkpt><trkpt lat="43.7843852" lon="12.3025311"><ele>998.2</ele><time>2026-04-12T07:42:05.66Z</time></trkpt><trkpt lat="43.7844816" lon="12.3024709"><ele>998.0</ele><time>2026-04-12T07:42:06.642Z</time></trkpt><trkpt lat="43.7845896" lon="12.3023992"><ele>996.6666666666667</ele><time>2026-04-12T07:42:07.652Z</time></trkpt><trkpt lat="43.784818" lon="12.302216"><ele>995.3333333333333</ele><time>2026-04-12T07:42:09.648Z</time></trkpt><trkpt lat="43.7849483" lon="12.3021244"><ele>994.0</ele><time>2026-04-12T07:42:10.652Z</time></trkpt><trkpt lat="43.7850754" lon="12.3020295"><ele>997.25</ele><time>2026-04-12T07:42:11.626Z</time></trkpt><trkpt lat="43.7851933" lon="12.3019237"><ele>1000.5</ele><time>2026-04-12T07:42:12.631Z</time></trkpt><trkpt lat="43.7852945" lon="12.3017961"><ele>1003.75</ele><time>2026-04-12T07:42:13.644Z</time></trkpt><trkpt lat="43.7853752" lon="12.3016517"><ele>1007.0</ele><time>2026-04-12T07:42:14.638Z</time></trkpt><trkpt lat="43.7854368" lon="12.3014776"><ele>1007.5</ele><time>2026-04-12T07:42:15.643Z</time></trkpt><trkpt lat="43.7854753" lon="12.3012828"><ele>1008.0</ele><time>2026-04-12T07:42:16.638Z</time></trkpt><trkpt lat="43.7854967" lon="12.3010855"><ele>1008.5</ele><time>2026-04-12T07:42:17.632Z</time></trkpt><trkpt lat="43.7854922" lon="12.3008905"><ele>1009.0</ele><time>2026-04-12T07:42:18.63Z</time></trkpt><trkpt lat="43.7854624" lon="12.3006953"><ele>1010.0</ele><time>2026-04-12T07:42:19.635Z</time></trkpt><trkpt lat="43.7854162" lon="12.3005193"><ele>1011.0</ele><time>2026-04-12T07:42:20.649Z</time></trkpt><trkpt lat="43.7853803" lon="12.3003511"><ele>1012.0</ele><time>2026-04-12T07:42:21.636Z</time></trkpt><trkpt lat="43.7853485" lon="12.3002127"><ele>1013.0</ele><time>2026-04-12T07:42:22.648Z</time></trkpt><trkpt lat="43.7853325" lon="12.3000928"><ele>1013.0</ele><time>2026-04-12T07:42:23.636Z</time></trkpt><trkpt lat="43.7853123" lon="12.3"><ele>1013.0</ele><time>2026-04-12T07:42:24.648Z</time></trkpt><trkpt lat="43.7851925" lon="12.2999353"><ele>1013.0</ele><time>2026-04-12T07:42:26.628Z</time></trkpt><trkpt lat="43.7851012" lon="12.2999324"><ele>1013.0</ele><time>2026-04-12T07:42:27.643Z</time></trkpt><trkpt lat="43.7849963" lon="12.2999205"><ele>1013.0</ele><time>2026-04-12T07:42:28.655Z</time></trkpt><trkpt lat="43.7847621" lon="12.2998376"><ele>1012.8</ele><time>2026-04-12T07:42:30.639Z</time></trkpt><trkpt lat="43.7846548" lon="12.299778"><ele>1012.5999999999999</ele><time>2026-04-12T07:42:31.637Z</time></trkpt><trkpt lat="43.7845491" lon="12.2997186"><ele>1012.4000000000001</ele><time>2026-04-12T07:42:32.645Z</time></trkpt><trkpt lat="43.7844494" lon="12.2996528"><ele>1012.2</ele><time>2026-04-12T07:42:33.639Z</time></trkpt><trkpt lat="43.7843506" lon="12.2995895"><ele>1012.0</ele><time>2026-04-12T07:42:34.636Z</time></trkpt><trkpt lat="43.7842607" lon="12.2995227"><ele>1011.25</ele><time>2026-04-12T07:42:35.638Z</time></trkpt><trkpt lat="43.784178" lon="12.2994375"><ele>1010.5</ele><time>2026-04-12T07:42:36.65Z</time></trkpt><trkpt lat="43.7840964" lon="12.2993308"><ele>1009.75</ele><time>2026-04-12T07:42:37.641Z</time></trkpt><trkpt lat="43.7840158" lon="12.299197"><ele>1009.0</ele><time>2026-04-12T07:42:38.656Z</time></trkpt><trkpt lat="43.7839363" lon="12.2990378"><ele>1010.0</ele><time>2026-04-12T07:42:39.659Z</time></trkpt><trkpt lat="43.7838574" lon="12.2988634"><ele>1011.0</ele><time>2026-04-12T07:42:40.643Z</time></trkpt><trkpt lat="43.7837793" lon="12.2986891"><ele>1012.0</ele><time>2026-04-12T07:42:41.662Z</time></trkpt><trkpt lat="43.7836989" lon="12.2985088"><ele>1012.0</ele><time>2026-04-12T07:42:42.667Z</time></trkpt><trkpt lat="43.7836219" lon="12.2983328"><ele>1012.0</ele><time>2026-04-12T07:42:43.644Z</time></trkpt><trkpt lat="43.7835368" lon="12.2981563"><ele>1012.0</ele><time>2026-04-12T07:42:44.667Z</time></trkpt><trkpt lat="43.7834375" lon="12.2979865"><ele>1009.6666666666666</ele><time>2026-04-12T07:42:45.664Z</time></trkpt><trkpt lat="43.7833103" lon="12.297835"><ele>1007.3333333333333</ele><time>2026-04-12T07:42:46.643Z</time></trkpt><trkpt lat="43.7831719" lon="12.2977024"><ele>1005.0</ele><time>2026-04-12T07:42:47.638Z</time></trkpt><trkpt lat="43.7830291" lon="12.2975844"><ele>1005.0</ele><time>2026-04-12T07:42:48.649Z</time></trkpt><trkpt lat="43.7828616" lon="12.2974886"><ele>1005.0</ele><time>2026-04-12T07:42:49.64Z</time></trkpt><trkpt lat="43.7825353" lon="12.297275"><ele>1004.3333333333333</ele><time>2026-04-12T07:42:51.637Z</time></trkpt><trkpt lat="43.7823698" lon="12.2971638"><ele>1003.6666666666666</ele><time>2026-04-12T07:42:52.64Z</time></trkpt><trkpt lat="43.7822" lon="12.2970469"><ele>1003.0</ele><time>2026-04-12T07:42:53.637Z</time></trkpt><trkpt lat="43.7820248" lon="12.2969319"><ele>1003.0</ele><time>2026-04-12T07:42:54.627Z</time></trkpt><trkpt lat="43.781849" lon="12.2968139"><ele>1003.0</ele><time>2026-04-12T07:42:55.654Z</time></trkpt><trkpt lat="43.7816706" lon="12.2966942"><ele>1003.0</ele><time>2026-04-12T07:42:56.668Z</time></trkpt><trkpt lat="43.7814896" lon="12.2965723"><ele>1002.3333333333333</ele><time>2026-04-12T07:42:57.632Z</time></trkpt><trkpt lat="43.7813074" lon="12.2964494"><ele>1001.6666666666667</ele><time>2026-04-12T07:42:58.655Z</time></trkpt><trkpt lat="43.7811258" lon="12.296326"><ele>1001.0</ele><time>2026-04-12T07:42:59.642Z</time></trkpt><trkpt lat="43.7809457" lon="12.2961966"><ele>999.3333333333334</ele><time>2026-04-12T07:43:00.654Z</time></trkpt><trkpt lat="43.7807675" lon="12.2960695"><ele>997.6666666666667</ele><time>2026-04-12T07:43:01.651Z</time></trkpt><trkpt lat="43.780594" lon="12.2959521"><ele>996.0</ele><time>2026-04-12T07:43:02.66Z</time></trkpt><trkpt lat="43.7804311" lon="12.2958386"><ele>996.0</ele><time>2026-04-12T07:43:03.641Z</time></trkpt><trkpt lat="43.7802774" lon="12.2957339"><ele>996.0</ele><time>2026-04-12T07:43:04.764Z</time></trkpt><trkpt lat="43.780136" lon="12.2956342"><ele>996.0</ele><time>2026-04-12T07:43:05.817Z</time></trkpt><trkpt lat="43.7798856" lon="12.2953874"><ele>995.0</ele><time>2026-04-12T07:43:07.647Z</time></trkpt><trkpt lat="43.7797983" lon="12.2952247"><ele>994.0</ele><time>2026-04-12T07:43:08.663Z</time></trkpt><trkpt lat="43.7797388" lon="12.2950391"><ele>993.0</ele><time>2026-04-12T07:43:09.636Z</time></trkpt><trkpt lat="43.7797075" lon="12.2948403"><ele>992.0</ele><time>2026-04-12T07:43:10.631Z</time></trkpt><trkpt lat="43.7797074" lon="12.2943925"><ele>991.6666666666667</ele><time>2026-04-12T07:43:12.655Z</time></trkpt><trkpt lat="43.7797083" lon="12.2941576"><ele>991.3333333333333</ele><time>2026-04-12T07:43:13.625Z</time></trkpt><trkpt lat="43.7797099" lon="12.2939237"><ele>991.0</ele><time>2026-04-12T07:43:14.658Z</time></trkpt><trkpt lat="43.779713" lon="12.2936904"><ele>992.3333333333333</ele><time>2026-04-12T07:43:15.639Z</time></trkpt><trkpt lat="43.7797102" lon="12.2934521"><ele>993.6666666666667</ele><time>2026-04-12T07:43:16.647Z</time></trkpt><trkpt lat="43.7797024" lon="12.293211"><ele>995.0</ele><time>2026-04-12T07:43:17.636Z</time></trkpt><trkpt lat="43.7796837" lon="12.2929616"><ele>995.3333333333334</ele><time>2026-04-12T07:43:18.645Z</time></trkpt><trkpt lat="43.779648" lon="12.2927047"><ele>995.6666666666667</ele><time>2026-04-12T07:43:19.715Z</time></trkpt><trkpt lat="43.7796025" lon="12.2924429"><ele>996.0</ele><time>2026-04-12T07:43:20.631Z</time></trkpt><trkpt lat="43.7795606" lon="12.2921737"><ele>997.0</ele><time>2026-04-12T07:43:21.639Z</time></trkpt><trkpt lat="43.7795219" lon="12.2918996"><ele>998.0</ele><time>2026-04-12T07:43:22.643Z</time></trkpt><trkpt lat="43.779478" lon="12.2916303"><ele>999.0</ele><time>2026-04-12T07:43:23.639Z</time></trkpt><trkpt lat="43.7794364" lon="12.2913661"><ele>1000.3333333333333</ele><time>2026-04-12T07:43:24.668Z</time></trkpt><trkpt lat="43.7793962" lon="12.2911081"><ele>1001.6666666666666</ele><time>2026-04-12T07:43:25.641Z</time></trkpt><trkpt lat="43.7793528" lon="12.2908566"><ele>1003.0</ele><time>2026-04-12T07:43:26.726Z</time></trkpt><trkpt lat="43.7793095" lon="12.2906068"><ele>1004.6666666666666</ele><time>2026-04-12T07:43:27.648Z</time></trkpt><trkpt lat="43.7792669" lon="12.2903586"><ele>1006.3333333333333</ele><time>2026-04-12T07:43:28.637Z</time></trkpt><trkpt lat="43.7792281" lon="12.2901184"><ele>1008.0</ele><time>2026-04-12T07:43:29.653Z</time></trkpt><trkpt lat="43.7791916" lon="12.2898796"><ele>1006.0</ele><time>2026-04-12T07:43:30.619Z</time></trkpt><trkpt lat="43.7791616" lon="12.2896437"><ele>1004.0</ele><time>2026-04-12T07:43:31.658Z</time></trkpt><trkpt lat="43.7791364" lon="12.2891928"><ele>1004.0</ele><time>2026-04-12T07:43:33.627Z</time></trkpt><trkpt lat="43.779158" lon="12.2889722"><ele>1004.0</ele><time>2026-04-12T07:43:34.663Z</time></trkpt><trkpt lat="43.7792147" lon="12.2887687"><ele>1004.0</ele><time>2026-04-12T07:43:35.655Z</time></trkpt><trkpt lat="43.7792962" lon="12.2885772"><ele>1002.6666666666667</ele><time>2026-04-12T07:43:36.642Z</time></trkpt><trkpt lat="43.7793983" lon="12.2883904"><ele>1001.3333333333333</ele><time>2026-04-12T07:43:37.641Z</time></trkpt><trkpt lat="43.7794911" lon="12.2881866"><ele>1000.0</ele><time>2026-04-12T07:43:38.637Z</time></trkpt><trkpt lat="43.7795578" lon="12.2879524"><ele>1000.0</ele><time>2026-04-12T07:43:39.632Z</time></trkpt><trkpt lat="43.7795963" lon="12.2876998"><ele>1000.0</ele><time>2026-04-12T07:43:40.649Z</time></trkpt><trkpt lat="43.7796275" lon="12.2874488"><ele>1000.0</ele><time>2026-04-12T07:43:41.625Z</time></trkpt><trkpt lat="43.7796609" lon="12.2872059"><ele>1001.0</ele><time>2026-04-12T07:43:42.64Z</time></trkpt><trkpt lat="43.7796925" lon="12.2869784"><ele>1002.0</ele><time>2026-04-12T07:43:43.638Z</time></trkpt><trkpt lat="43.779714" lon="12.2867568"><ele>1003.0</ele><time>2026-04-12T07:43:44.637Z</time></trkpt><trkpt lat="43.7797091" lon="12.2865237"><ele>1001.6666666666666</ele><time>2026-04-12T07:43:45.649Z</time></trkpt><trkpt lat="43.7796682" lon="12.2862813"><ele>1000.3333333333333</ele><time>2026-04-12T07:43:46.632Z</time></trkpt><trkpt lat="43.7796105" lon="12.2860275"><ele>999.0</ele><time>2026-04-12T07:43:47.631Z</time></trkpt><trkpt lat="43.7795436" lon="12.2857628"><ele>998.0</ele><time>2026-04-12T07:43:48.673Z</time></trkpt><trkpt lat="43.7794779" lon="12.2854895"><ele>997.0</ele><time>2026-04-12T07:43:49.641Z</time></trkpt><trkpt lat="43.7794098" lon="12.2852135"><ele>996.0</ele><time>2026-04-12T07:43:50.768Z</time></trkpt><trkpt lat="43.7792753" lon="12.2846653"><ele>999.0</ele><time>2026-04-12T07:43:52.667Z</time></trkpt><trkpt lat="43.7791498" lon="12.284109"><ele>1002.0</ele><time>2026-04-12T07:43:54.641Z</time></trkpt><trkpt lat="43.7790883" lon="12.2838524"><ele>1002.0</ele><time>2026-04-12T07:43:55.643Z</time></trkpt><trkpt lat="43.7790222" lon="12.2835895"><ele>1002.0</ele><time>2026-04-12T07:43:56.637Z</time></trkpt><trkpt lat="43.7789616" lon="12.2833249"><ele>1002.0</ele><time>2026-04-12T07:43:57.642Z</time></trkpt><trkpt lat="43.7789017" lon="12.283059"><ele>1001.0</ele><time>2026-04-12T07:43:58.633Z</time></trkpt><trkpt lat="43.7788492" lon="12.2827883"><ele>1000.0</ele><time>2026-04-12T07:43:59.635Z</time></trkpt><trkpt lat="43.7788123" lon="12.2825204"><ele>999.0</ele><time>2026-04-12T07:44:00.63Z</time></trkpt><trkpt lat="43.7787918" lon="12.2822486"><ele>999.0</ele><time>2026-04-12T07:44:01.646Z</time></trkpt><trkpt lat="43.7787906" lon="12.2819742"><ele>999.0</ele><time>2026-04-12T07:44:02.629Z</time></trkpt><trkpt lat="43.778799" lon="12.2817"><ele>999.0</ele><time>2026-04-12T07:44:03.624Z</time></trkpt><trkpt lat="43.778807" lon="12.2814228"><ele>999.6666666666667</ele><time>2026-04-12T07:44:04.659Z</time></trkpt><trkpt lat="43.7788133" lon="12.2811468"><ele>1000.3333333333334</ele><time>2026-04-12T07:44:05.642Z</time></trkpt><trkpt lat="43.7788162" lon="12.280879"><ele>1001.0</ele><time>2026-04-12T07:44:06.637Z</time></trkpt><trkpt lat="43.7788246" lon="12.28063"><ele>1000.5</ele><time>2026-04-12T07:44:07.644Z</time></trkpt><trkpt lat="43.7788347" lon="12.2803938"><ele>1000.0</ele><time>2026-04-12T07:44:08.735Z</time></trkpt><trkpt lat="43.7789033" lon="12.2800041"><ele>1000.0</ele><time>2026-04-12T07:44:10.666Z</time></trkpt><trkpt lat="43.7789769" lon="12.2798572"><ele>1000.0</ele><time>2026-04-12T07:44:11.708Z</time></trkpt><trkpt lat="43.7790775" lon="12.2797503"><ele>1000.0</ele><time>2026-04-12T07:44:12.656Z</time></trkpt><trkpt lat="43.7792161" lon="12.2796877"><ele>1000.0</ele><time>2026-04-12T07:44:13.621Z</time></trkpt><trkpt lat="43.7795502" lon="12.2796497"><ele>1002.3333333333333</ele><time>2026-04-12T07:44:15.627Z</time></trkpt><trkpt lat="43.7797156" lon="12.2796422"><ele>1004.6666666666667</ele><time>2026-04-12T07:44:16.651Z</time></trkpt><trkpt lat="43.7798652" lon="12.2796073"><ele>1007.0</ele><time>2026-04-12T07:44:17.645Z</time></trkpt><trkpt lat="43.78" lon="12.2795288"><ele>1007.0</ele><time>2026-04-12T07:44:18.647Z</time></trkpt><trkpt lat="43.7801165" lon="12.2794031"><ele>1007.0</ele><time>2026-04-12T07:44:19.757Z</time></trkpt><trkpt lat="43.7802715" lon="12.2790138"><ele>1005.3333333333334</ele><time>2026-04-12T07:44:21.673Z</time></trkpt><trkpt lat="43.7803089" lon="12.2787758"><ele>1003.6666666666667</ele><time>2026-04-12T07:44:22.642Z</time></trkpt><trkpt lat="43.7803445" lon="12.2785324"><ele>1002.0</ele><time>2026-04-12T07:44:23.652Z</time></trkpt><trkpt lat="43.7804" lon="12.2782855"><ele>1002.0</ele><time>2026-04-12T07:44:24.631Z</time></trkpt><trkpt lat="43.7804639" lon="12.2780294"><ele>1002.0</ele><time>2026-04-12T07:44:25.648Z</time></trkpt><trkpt lat="43.7805182" lon="12.277761"><ele>1002.0</ele><time>2026-04-12T07:44:26.633Z</time></trkpt><trkpt lat="43.7805801" lon="12.2774891"><ele>1001.6666666666667</ele><time>2026-04-12T07:44:27.656Z</time></trkpt><trkpt lat="43.7806402" lon="12.2772288"><ele>1001.3333333333334</ele><time>2026-04-12T07:44:28.634Z</time></trkpt><trkpt lat="43.7806898" lon="12.2769642"><ele>1001.0</ele><time>2026-04-12T07:44:29.644Z</time></trkpt><trkpt lat="43.7807426" lon="12.2766953"><ele>1001.3333333333334</ele><time>2026-04-12T07:44:30.669Z</time></trkpt><trkpt lat="43.7808095" lon="12.2764306"><ele>1001.6666666666667</ele><time>2026-04-12T07:44:31.654Z</time></trkpt><trkpt lat="43.7808696" lon="12.2761545"><ele>1002.0</ele><time>2026-04-12T07:44:32.679Z</time></trkpt><trkpt lat="43.7809241" lon="12.275866"><ele>1003.5</ele><time>2026-04-12T07:44:33.646Z</time></trkpt><trkpt lat="43.780981" lon="12.2755791"><ele>1005.0</ele><time>2026-04-12T07:44:34.632Z</time></trkpt><trkpt lat="43.7811098" lon="12.2749897"><ele>1000.3333333333333</ele><time>2026-04-12T07:44:36.64Z</time></trkpt><trkpt lat="43.7811737" lon="12.2746931"><ele>995.6666666666666</ele><time>2026-04-12T07:44:37.644Z</time></trkpt><trkpt lat="43.7812367" lon="12.2743953"><ele>991.0</ele><time>2026-04-12T07:44:38.638Z</time></trkpt><trkpt lat="43.7812971" lon="12.2740949"><ele>991.5</ele><time>2026-04-12T07:44:39.644Z</time></trkpt><trkpt lat="43.7813602" lon="12.2737867"><ele>992.0</ele><time>2026-04-12T07:44:40.633Z</time></trkpt><trkpt lat="43.7814234" lon="12.273492"><ele>992.0</ele><time>2026-04-12T07:44:41.679Z</time></trkpt><trkpt lat="43.781488" lon="12.2731815"><ele>992.0</ele><time>2026-04-12T07:44:42.681Z</time></trkpt><trkpt lat="43.781553" lon="12.272872"><ele>992.0</ele><time>2026-04-12T07:44:43.631Z</time></trkpt><trkpt lat="43.781616" lon="12.2725741"><ele>992.0</ele><time>2026-04-12T07:44:44.645Z</time></trkpt><trkpt lat="43.7816812" lon="12.2722935"><ele>992.0</ele><time>2026-04-12T07:44:45.643Z</time></trkpt><trkpt lat="43.7817498" lon="12.272026"><ele>992.0</ele><time>2026-04-12T07:44:46.663Z</time></trkpt><trkpt lat="43.7818094" lon="12.2717586"><ele>992.0</ele><time>2026-04-12T07:44:47.636Z</time></trkpt><trkpt lat="43.7818615" lon="12.2714904"><ele>992.0</ele><time>2026-04-12T07:44:48.631Z</time></trkpt><trkpt lat="43.7818858" lon="12.2712137"><ele>993.0</ele><time>2026-04-12T07:44:49.632Z</time></trkpt><trkpt lat="43.7818769" lon="12.2709345"><ele>994.0</ele><time>2026-04-12T07:44:50.635Z</time></trkpt><trkpt lat="43.7818356" lon="12.2706458"><ele>995.0</ele><time>2026-04-12T07:44:51.734Z</time></trkpt><trkpt lat="43.7817622" lon="12.2703566"><ele>993.0</ele><time>2026-04-12T07:44:52.652Z</time></trkpt><trkpt lat="43.7816621" lon="12.2700915"><ele>991.0</ele><time>2026-04-12T07:44:53.653Z</time></trkpt><trkpt lat="43.7815532" lon="12.2698151"><ele>989.0</ele><time>2026-04-12T07:44:54.665Z</time></trkpt><trkpt lat="43.7814445" lon="12.2695249"><ele>992.0</ele><time>2026-04-12T07:44:55.636Z</time></trkpt><trkpt lat="43.781229" lon="12.2689373"><ele>992.0</ele><time>2026-04-12T07:44:57.661Z</time></trkpt><trkpt lat="43.7811249" lon="12.2686439"><ele>992.0</ele><time>2026-04-12T07:44:58.657Z</time></trkpt><trkpt lat="43.7810227" lon="12.2683594"><ele>988.5</ele><time>2026-04-12T07:44:59.658Z</time></trkpt><trkpt lat="43.7809341" lon="12.2680672"><ele>985.0</ele><time>2026-04-12T07:45:00.638Z</time></trkpt><trkpt lat="43.7808497" lon="12.2677797"><ele>985.0</ele><time>2026-04-12T07:45:01.647Z</time></trkpt><trkpt lat="43.7807757" lon="12.267492"><ele>985.0</ele><time>2026-04-12T07:45:02.637Z</time></trkpt><trkpt lat="43.7807045" lon="12.2672155"><ele>985.0</ele><time>2026-04-12T07:45:03.649Z</time></trkpt><trkpt lat="43.7806354" lon="12.266967"><ele>985.0</ele><time>2026-04-12T07:45:04.654Z</time></trkpt><trkpt lat="43.7805717" lon="12.2667238"><ele>985.0</ele><time>2026-04-12T07:45:05.653Z</time></trkpt><trkpt lat="43.7805237" lon="12.2664848"><ele>985.0</ele><time>2026-04-12T07:45:06.656Z</time></trkpt><trkpt lat="43.780494" lon="12.2662452"><ele>985.0</ele><time>2026-04-12T07:45:07.64Z</time></trkpt><trkpt lat="43.7804988" lon="12.2660228"><ele>985.0</ele><time>2026-04-12T07:45:08.645Z</time></trkpt><trkpt lat="43.7805465" lon="12.2658116"><ele>985.0</ele><time>2026-04-12T07:45:09.653Z</time></trkpt><trkpt lat="43.7806396" lon="12.2656314"><ele>980.3333333333333</ele><time>2026-04-12T07:45:10.635Z</time></trkpt><trkpt lat="43.7807503" lon="12.2655014"><ele>975.6666666666667</ele><time>2026-04-12T07:45:11.659Z</time></trkpt><trkpt lat="43.7809057" lon="12.2653873"><ele>971.0</ele><time>2026-04-12T07:45:12.671Z</time></trkpt><trkpt lat="43.7810818" lon="12.2652929"><ele>971.0</ele><time>2026-04-12T07:45:13.654Z</time></trkpt><trkpt lat="43.7812641" lon="12.2652054"><ele>971.0</ele><time>2026-04-12T07:45:14.752Z</time></trkpt><trkpt lat="43.7816317" lon="12.2650522"><ele>972.5</ele><time>2026-04-12T07:45:16.653Z</time></trkpt><trkpt lat="43.781977" lon="12.2649033"><ele>974.0</ele><time>2026-04-12T07:45:18.667Z</time></trkpt><trkpt lat="43.7821311" lon="12.2648163"><ele>970.3333333333334</ele><time>2026-04-12T07:45:19.644Z</time></trkpt><trkpt lat="43.7822757" lon="12.2646923"><ele>966.6666666666667</ele><time>2026-04-12T07:45:20.725Z</time></trkpt><trkpt lat="43.7824064" lon="12.2645301"><ele>963.0</ele><time>2026-04-12T07:45:21.646Z</time></trkpt><trkpt lat="43.7825282" lon="12.2643506"><ele>963.0</ele><time>2026-04-12T07:45:22.661Z</time></trkpt><trkpt lat="43.7826349" lon="12.2641837"><ele>963.0</ele><time>2026-04-12T07:45:23.637Z</time></trkpt><trkpt lat="43.7827469" lon="12.2640139"><ele>963.0</ele><time>2026-04-12T07:45:24.639Z</time></trkpt><trkpt lat="43.7828603" lon="12.2638468"><ele>960.3333333333333</ele><time>2026-04-12T07:45:25.633Z</time></trkpt><trkpt lat="43.7829737" lon="12.2636799"><ele>957.6666666666666</ele><time>2026-04-12T07:45:26.738Z</time></trkpt><trkpt lat="43.7830871" lon="12.263517"><ele>955.0</ele><time>2026-04-12T07:45:27.648Z</time></trkpt><trkpt lat="43.7832052" lon="12.2633593"><ele>955.0</ele><time>2026-04-12T07:45:28.643Z</time></trkpt><trkpt lat="43.7833352" lon="12.2632175"><ele>955.0</ele><time>2026-04-12T07:45:29.636Z</time></trkpt><trkpt lat="43.7834722" lon="12.2630889"><ele>955.0</ele><time>2026-04-12T07:45:30.666Z</time></trkpt><trkpt lat="43.7836061" lon="12.2629672"><ele>952.5</ele><time>2026-04-12T07:45:31.622Z</time></trkpt><trkpt lat="43.7837291" lon="12.2628513"><ele>950.0</ele><time>2026-04-12T07:45:32.619Z</time></trkpt><trkpt lat="43.7838281" lon="12.2627383"><ele>947.5</ele><time>2026-04-12T07:45:33.633Z</time></trkpt><trkpt lat="43.7838936" lon="12.2626066"><ele>945.0</ele><time>2026-04-12T07:45:34.721Z</time></trkpt><trkpt lat="43.7839093" lon="12.2624638"><ele>945.0</ele><time>2026-04-12T07:45:35.632Z</time></trkpt><trkpt lat="43.7838795" lon="12.2623316"><ele>945.0</ele><time>2026-04-12T07:45:36.647Z</time></trkpt><trkpt lat="43.7838042" lon="12.2622324"><ele>945.0</ele><time>2026-04-12T07:45:37.646Z</time></trkpt><trkpt lat="43.783588" lon="12.2622277"><ele>945.0</ele><time>2026-04-12T07:45:39.646Z</time></trkpt><trkpt lat="43.7834686" lon="12.2623125"><ele>943.25</ele><time>2026-04-12T07:45:40.702Z</time></trkpt><trkpt lat="43.7833434" lon="12.2624107"><ele>941.5</ele><time>2026-04-12T07:45:41.664Z</time></trkpt><trkpt lat="43.7832234" lon="12.2625109"><ele>939.75</ele><time>2026-04-12T07:45:42.654Z</time></trkpt><trkpt lat="43.7830845" lon="12.2625993"><ele>938.0</ele><time>2026-04-12T07:45:43.646Z</time></trkpt><trkpt lat="43.7829466" lon="12.2626773"><ele>938.0</ele><time>2026-04-12T07:45:44.659Z</time></trkpt><trkpt lat="43.7828058" lon="12.2627363"><ele>938.0</ele><time>2026-04-12T07:45:45.645Z</time></trkpt><trkpt lat="43.7826628" lon="12.2627645"><ele>938.0</ele><time>2026-04-12T07:45:46.636Z</time></trkpt><trkpt lat="43.7825135" lon="12.2627554"><ele>938.0</ele><time>2026-04-12T07:45:47.644Z</time></trkpt><trkpt lat="43.7823618" lon="12.2627014"><ele>934.3333333333334</ele><time>2026-04-12T07:45:48.636Z</time></trkpt><trkpt lat="43.7821984" lon="12.2626292"><ele>930.6666666666667</ele><time>2026-04-12T07:45:49.725Z</time></trkpt><trkpt lat="43.7820332" lon="12.2625558"><ele>927.0</ele><time>2026-04-12T07:45:50.634Z</time></trkpt><trkpt lat="43.7818801" lon="12.262488"><ele>925.25</ele><time>2026-04-12T07:45:51.645Z</time></trkpt><trkpt lat="43.7817423" lon="12.2624238"><ele>923.5</ele><time>2026-04-12T07:45:52.63Z</time></trkpt><trkpt lat="43.7816202" lon="12.2623556"><ele>921.75</ele><time>2026-04-12T07:45:53.629Z</time></trkpt><trkpt lat="43.781518" lon="12.2622684"><ele>920.0</ele><time>2026-04-12T07:45:54.651Z</time></trkpt><trkpt lat="43.7814496" lon="12.2621534"><ele>917.0</ele><time>2026-04-12T07:45:55.687Z</time></trkpt><trkpt lat="43.7814324" lon="12.2620068"><ele>914.0</ele><time>2026-04-12T07:45:56.633Z</time></trkpt><trkpt lat="43.7814588" lon="12.2618635"><ele>911.0</ele><time>2026-04-12T07:45:57.637Z</time></trkpt><trkpt lat="43.7815331" lon="12.261739"><ele>908.0</ele><time>2026-04-12T07:45:58.664Z</time></trkpt><trkpt lat="43.7817884" lon="12.2616132"><ele>906.6666666666667</ele><time>2026-04-12T07:46:00.644Z</time></trkpt><trkpt lat="43.7819353" lon="12.2615546"><ele>905.3333333333333</ele><time>2026-04-12T07:46:01.63Z</time></trkpt><trkpt lat="43.7820812" lon="12.2614925"><ele>904.0</ele><time>2026-04-12T07:46:02.637Z</time></trkpt><trkpt lat="43.7822234" lon="12.2614302"><ele>904.0</ele><time>2026-04-12T07:46:03.674Z</time></trkpt><trkpt lat="43.7823454" lon="12.2613469"><ele>904.0</ele><time>2026-04-12T07:46:04.634Z</time></trkpt><trkpt lat="43.7824493" lon="12.2612449"><ele>904.0</ele><time>2026-04-12T07:46:05.659Z</time></trkpt><trkpt lat="43.7825364" lon="12.2610757"><ele>904.0</ele><time>2026-04-12T07:46:06.623Z</time></trkpt><trkpt lat="43.7825982" lon="12.2608737"><ele>904.0</ele><time>2026-04-12T07:46:07.666Z</time></trkpt><trkpt lat="43.7826397" lon="12.2606466"><ele>904.0</ele><time>2026-04-12T07:46:08.629Z</time></trkpt><trkpt lat="43.7826849" lon="12.2604221"><ele>904.0</ele><time>2026-04-12T07:46:09.636Z</time></trkpt><trkpt lat="43.7827322" lon="12.2601891"><ele>895.5</ele><time>2026-04-12T07:46:10.761Z</time></trkpt><trkpt lat="43.7828327" lon="12.2597452"><ele>887.0</ele><time>2026-04-12T07:46:12.668Z</time></trkpt><trkpt lat="43.7828683" lon="12.2595311"><ele>887.0</ele><time>2026-04-12T07:46:13.636Z</time></trkpt><trkpt lat="43.7828905" lon="12.2593127"><ele>887.0</ele><time>2026-04-12T07:46:14.622Z</time></trkpt><trkpt lat="43.782892" lon="12.2590811"><ele>887.0</ele><time>2026-04-12T07:46:15.652Z</time></trkpt><trkpt lat="43.7828674" lon="12.2588413"><ele>886.0</ele><time>2026-04-12T07:46:16.661Z</time></trkpt><trkpt lat="43.7828267" lon="12.2586077"><ele>885.0</ele><time>2026-04-12T07:46:17.644Z</time></trkpt><trkpt lat="43.7827843" lon="12.2583982"><ele>884.0</ele><time>2026-04-12T07:46:18.66Z</time></trkpt><trkpt lat="43.782753" lon="12.2581671"><ele>882.0</ele><time>2026-04-12T07:46:19.645Z</time></trkpt><trkpt lat="43.782731" lon="12.2576503"><ele>880.0</ele><time>2026-04-12T07:46:21.733Z</time></trkpt><trkpt lat="43.7827334" lon="12.2573756"><ele>878.0</ele><time>2026-04-12T07:46:22.638Z</time></trkpt><trkpt lat="43.7827397" lon="12.2570944"><ele>876.0</ele><time>2026-04-12T07:46:23.65Z</time></trkpt><trkpt lat="43.7827512" lon="12.2568296"><ele>874.0</ele><time>2026-04-12T07:46:24.637Z</time></trkpt><trkpt lat="43.7827708" lon="12.2565646"><ele>872.0</ele><time>2026-04-12T07:46:25.626Z</time></trkpt><trkpt lat="43.7828024" lon="12.2563027"><ele>870.0</ele><time>2026-04-12T07:46:26.659Z</time></trkpt><trkpt lat="43.7828494" lon="12.2560543"><ele>868.0</ele><time>2026-04-12T07:46:27.639Z</time></trkpt><trkpt lat="43.7829057" lon="12.2558029"><ele>865.0</ele><time>2026-04-12T07:46:28.67Z</time></trkpt><trkpt lat="43.782962" lon="12.2555339"><ele>862.0</ele><time>2026-04-12T07:46:29.627Z</time></trkpt><trkpt lat="43.7830132" lon="12.2552602"><ele>859.0</ele><time>2026-04-12T07:46:30.653Z</time></trkpt><trkpt lat="43.7830656" lon="12.2549888"><ele>858.0</ele><time>2026-04-12T07:46:31.628Z</time></trkpt><trkpt lat="43.7831158" lon="12.2547272"><ele>857.0</ele><time>2026-04-12T07:46:32.646Z</time></trkpt><trkpt lat="43.7831704" lon="12.2544716"><ele>856.0</ele><time>2026-04-12T07:46:33.661Z</time></trkpt><trkpt lat="43.7832228" lon="12.2542316"><ele>856.0</ele><time>2026-04-12T07:46:34.646Z</time></trkpt><trkpt lat="43.7832703" lon="12.2539839"><ele>856.0</ele><time>2026-04-12T07:46:35.64Z</time></trkpt><trkpt lat="43.7833134" lon="12.2537419"><ele>856.0</ele><time>2026-04-12T07:46:36.641Z</time></trkpt><trkpt lat="43.7833493" lon="12.2535011"><ele>855.6666666666666</ele><time>2026-04-12T07:46:37.623Z</time></trkpt><trkpt lat="43.7833628" lon="12.253248"><ele>855.3333333333333</ele><time>2026-04-12T07:46:38.64Z</time></trkpt><trkpt lat="43.783364" lon="12.2529771"><ele>855.0</ele><time>2026-04-12T07:46:39.637Z</time></trkpt><trkpt lat="43.78336" lon="12.2527075"><ele>847.0</ele><time>2026-04-12T07:46:40.739Z</time></trkpt><trkpt lat="43.783343" lon="12.2519315"><ele>847.0</ele><time>2026-04-12T07:46:43.635Z</time></trkpt><trkpt lat="43.7833388" lon="12.2516729"><ele>847.0</ele><time>2026-04-12T07:46:44.632Z</time></trkpt><trkpt lat="43.7833251" lon="12.2514106"><ele>847.0</ele><time>2026-04-12T07:46:45.632Z</time></trkpt><trkpt lat="43.783298" lon="12.2511436"><ele>845.3333333333333</ele><time>2026-04-12T07:46:46.638Z</time></trkpt><trkpt lat="43.7832679" lon="12.2508813"><ele>843.6666666666667</ele><time>2026-04-12T07:46:47.634Z</time></trkpt><trkpt lat="43.783243" lon="12.2506198"><ele>842.0</ele><time>2026-04-12T07:46:48.648Z</time></trkpt><trkpt lat="43.7832306" lon="12.2503506"><ele>840.3333333333334</ele><time>2026-04-12T07:46:49.636Z</time></trkpt><trkpt lat="43.7832328" lon="12.2500839"><ele>838.6666666666667</ele><time>2026-04-12T07:46:50.63Z</time></trkpt><trkpt lat="43.7832413" lon="12.2498337"><ele>837.0</ele><time>2026-04-12T07:46:51.659Z</time></trkpt><trkpt lat="43.7832493" lon="12.2495881"><ele>835.6666666666667</ele><time>2026-04-12T07:46:52.628Z</time></trkpt><trkpt lat="43.7832527" lon="12.2493464"><ele>834.3333333333334</ele><time>2026-04-12T07:46:53.635Z</time></trkpt><trkpt lat="43.7832565" lon="12.2491169"><ele>833.0</ele><time>2026-04-12T07:46:54.633Z</time></trkpt><trkpt lat="43.7832605" lon="12.2489057"><ele>832.8</ele><time>2026-04-12T07:46:55.619Z</time></trkpt><trkpt lat="43.7832642" lon="12.2487277"><ele>832.5999999999999</ele><time>2026-04-12T07:46:56.632Z</time></trkpt><trkpt lat="43.7832651" lon="12.2485743"><ele>832.4000000000001</ele><time>2026-04-12T07:46:57.619Z</time></trkpt><trkpt lat="43.7832653" lon="12.248444"><ele>832.2</ele><time>2026-04-12T07:46:58.623Z</time></trkpt><trkpt lat="43.7832575" lon="12.2483416"><ele>832.0</ele><time>2026-04-12T07:46:59.632Z</time></trkpt><trkpt lat="43.7831956" lon="12.2482469"><ele>832.0</ele><time>2026-04-12T07:47:01.626Z</time></trkpt><trkpt lat="43.7830438" lon="12.2483799"><ele>832.0</ele><time>2026-04-12T07:47:04.746Z</time></trkpt><trkpt lat="43.7829267" lon="12.2485756"><ele>832.0</ele><time>2026-04-12T07:47:06.722Z</time></trkpt><trkpt lat="43.7828612" lon="12.2486924"><ele>832.0</ele><time>2026-04-12T07:47:07.651Z</time></trkpt><trkpt lat="43.782786" lon="12.2488285"><ele>832.0</ele><time>2026-04-12T07:47:08.646Z</time></trkpt><trkpt lat="43.7827028" lon="12.2489768"><ele>832.0</ele><time>2026-04-12T07:47:09.64Z</time></trkpt><trkpt lat="43.7826066" lon="12.2491382"><ele>832.0</ele><time>2026-04-12T07:47:10.631Z</time></trkpt><trkpt lat="43.7824977" lon="12.249299"><ele>832.5</ele><time>2026-04-12T07:47:11.63Z</time></trkpt><trkpt lat="43.7823811" lon="12.2494394"><ele>833.0</ele><time>2026-04-12T07:47:12.637Z</time></trkpt><trkpt lat="43.7822694" lon="12.2495684"><ele>833.5</ele><time>2026-04-12T07:47:13.642Z</time></trkpt><trkpt lat="43.7821631" lon="12.2496929"><ele>834.0</ele><time>2026-04-12T07:47:14.625Z</time></trkpt><trkpt lat="43.7820684" lon="12.2498459"><ele>837.0</ele><time>2026-04-12T07:47:15.675Z</time></trkpt><trkpt lat="43.7819948" lon="12.2500273"><ele>840.0</ele><time>2026-04-12T07:47:16.639Z</time></trkpt><trkpt lat="43.7819453" lon="12.2502447"><ele>843.0</ele><time>2026-04-12T07:47:17.65Z</time></trkpt><trkpt lat="43.7819092" lon="12.2504851"><ele>845.0</ele><time>2026-04-12T07:47:18.634Z</time></trkpt><trkpt lat="43.781866" lon="12.2507329"><ele>847.0</ele><time>2026-04-12T07:47:19.648Z</time></trkpt><trkpt lat="43.7818006" lon="12.2509769"><ele>849.0</ele><time>2026-04-12T07:47:20.639Z</time></trkpt><trkpt lat="43.7817211" lon="12.2511773"><ele>844.5</ele><time>2026-04-12T07:47:21.688Z</time></trkpt><trkpt lat="43.7816438" lon="12.2513896"><ele>840.0</ele><time>2026-04-12T07:47:22.642Z</time></trkpt><trkpt lat="43.7815271" lon="12.2518462"><ele>840.0</ele><time>2026-04-12T07:47:24.639Z</time></trkpt><trkpt lat="43.7815011" lon="12.2520898"><ele>840.0</ele><time>2026-04-12T07:47:25.635Z</time></trkpt><trkpt lat="43.7815115" lon="12.2523455"><ele>840.0</ele><time>2026-04-12T07:47:26.714Z</time></trkpt><trkpt lat="43.7815278" lon="12.252595"><ele>840.0</ele><time>2026-04-12T07:47:27.715Z</time></trkpt><trkpt lat="43.781532" lon="12.2528434"><ele>840.0</ele><time>2026-04-12T07:47:28.626Z</time></trkpt><trkpt lat="43.7815131" lon="12.2530733"><ele>840.0</ele><time>2026-04-12T07:47:29.637Z</time></trkpt><trkpt lat="43.7814527" lon="12.2532824"><ele>840.0</ele><time>2026-04-12T07:47:30.634Z</time></trkpt><trkpt lat="43.7813741" lon="12.2534944"><ele>840.0</ele><time>2026-04-12T07:47:31.625Z</time></trkpt><trkpt lat="43.7812708" lon="12.2537005"><ele>840.0</ele><time>2026-04-12T07:47:32.638Z</time></trkpt><trkpt lat="43.7811523" lon="12.2539177"><ele>841.0</ele><time>2026-04-12T07:47:33.627Z</time></trkpt><trkpt lat="43.7810172" lon="12.2541217"><ele>842.0</ele><time>2026-04-12T07:47:34.646Z</time></trkpt><trkpt lat="43.7808868" lon="12.2543424"><ele>843.0</ele><time>2026-04-12T07:47:35.624Z</time></trkpt><trkpt lat="43.780764" lon="12.2545823"><ele>840.0</ele><time>2026-04-12T07:47:36.63Z</time></trkpt><trkpt lat="43.7806453" lon="12.2548289"><ele>837.0</ele><time>2026-04-12T07:47:37.72Z</time></trkpt><trkpt lat="43.7805236" lon="12.2550816"><ele>834.0</ele><time>2026-04-12T07:47:38.633Z</time></trkpt><trkpt lat="43.7804019" lon="12.2553275"><ele>834.0</ele><time>2026-04-12T07:47:39.625Z</time></trkpt><trkpt lat="43.7802746" lon="12.2555448"><ele>834.0</ele><time>2026-04-12T07:47:40.652Z</time></trkpt><trkpt lat="43.7801314" lon="12.2557421"><ele>834.0</ele><time>2026-04-12T07:47:41.632Z</time></trkpt><trkpt lat="43.7799742" lon="12.2559326"><ele>835.0</ele><time>2026-04-12T07:47:42.644Z</time></trkpt><trkpt lat="43.7798194" lon="12.2561119"><ele>836.0</ele><time>2026-04-12T07:47:43.64Z</time></trkpt><trkpt lat="43.7795324" lon="12.2564774"><ele>836.0</ele><time>2026-04-12T07:47:45.631Z</time></trkpt><trkpt lat="43.7793781" lon="12.2566456"><ele>836.0</ele><time>2026-04-12T07:47:46.624Z</time></trkpt><trkpt lat="43.7792096" lon="12.2568004"><ele>836.0</ele><time>2026-04-12T07:47:47.633Z</time></trkpt><trkpt lat="43.77903" lon="12.256948"><ele>831.6666666666667</ele><time>2026-04-12T07:47:48.626Z</time></trkpt><trkpt lat="43.7788325" lon="12.2570912"><ele>827.3333333333333</ele><time>2026-04-12T07:47:49.635Z</time></trkpt><trkpt lat="43.7786477" lon="12.2572397"><ele>823.0</ele><time>2026-04-12T07:47:50.636Z</time></trkpt><trkpt lat="43.7784773" lon="12.2573655"><ele>821.25</ele><time>2026-04-12T07:47:51.632Z</time></trkpt><trkpt lat="43.7783285" lon="12.2574704"><ele>819.5</ele><time>2026-04-12T07:47:52.631Z</time></trkpt><trkpt lat="43.7781986" lon="12.2575492"><ele>817.75</ele><time>2026-04-12T07:47:53.627Z</time></trkpt><trkpt lat="43.7780838" lon="12.2576044"><ele>816.0</ele><time>2026-04-12T07:47:54.639Z</time></trkpt><trkpt lat="43.7779596" lon="12.25761"><ele>816.0</ele><time>2026-04-12T07:47:55.642Z</time></trkpt><trkpt lat="43.7778128" lon="12.2576048"><ele>816.0</ele><time>2026-04-12T07:47:56.705Z</time></trkpt><trkpt lat="43.7776522" lon="12.2575953"><ele>816.0</ele><time>2026-04-12T07:47:57.635Z</time></trkpt><trkpt lat="43.777489" lon="12.2575843"><ele>813.6666666666667</ele><time>2026-04-12T07:47:58.627Z</time></trkpt><trkpt lat="43.7773063" lon="12.2575854"><ele>811.3333333333334</ele><time>2026-04-12T07:47:59.619Z</time></trkpt><trkpt lat="43.7771111" lon="12.2575905"><ele>809.0</ele><time>2026-04-12T07:48:00.651Z</time></trkpt><trkpt lat="43.7769193" lon="12.2575931"><ele>805.0</ele><time>2026-04-12T07:48:01.623Z</time></trkpt><trkpt lat="43.7767285" lon="12.2575968"><ele>801.0</ele><time>2026-04-12T07:48:02.622Z</time></trkpt><trkpt lat="43.7765432" lon="12.2575958"><ele>797.0</ele><time>2026-04-12T07:48:03.635Z</time></trkpt><trkpt lat="43.776361" lon="12.2576"><ele>797.0</ele><time>2026-04-12T07:48:04.629Z</time></trkpt><trkpt lat="43.7760297" lon="12.2576128"><ele>797.0</ele><time>2026-04-12T07:48:06.639Z</time></trkpt><trkpt lat="43.7758837" lon="12.2576115"><ele>795.0</ele><time>2026-04-12T07:48:07.632Z</time></trkpt><trkpt lat="43.7757584" lon="12.2575974"><ele>793.0</ele><time>2026-04-12T07:48:08.623Z</time></trkpt><trkpt lat="43.7756551" lon="12.2575438"><ele>791.0</ele><time>2026-04-12T07:48:09.711Z</time></trkpt><trkpt lat="43.775563" lon="12.2574429"><ele>789.0</ele><time>2026-04-12T07:48:10.64Z</time></trkpt><trkpt lat="43.7755183" lon="12.2573141"><ele>788.2</ele><time>2026-04-12T07:48:11.637Z</time></trkpt><trkpt lat="43.775513" lon="12.2571644"><ele>787.4000000000001</ele><time>2026-04-12T07:48:12.637Z</time></trkpt><trkpt lat="43.7755284" lon="12.2570222"><ele>786.6</ele><time>2026-04-12T07:48:13.631Z</time></trkpt><trkpt lat="43.7756002" lon="12.2568993"><ele>785.8</ele><time>2026-04-12T07:48:14.666Z</time></trkpt><trkpt lat="43.7756789" lon="12.2568034"><ele>785.0</ele><time>2026-04-12T07:48:15.636Z</time></trkpt><trkpt lat="43.7757987" lon="12.2567271"><ele>785.0</ele><time>2026-04-12T07:48:16.645Z</time></trkpt><trkpt lat="43.7759088" lon="12.2566385"><ele>785.0</ele><time>2026-04-12T07:48:17.665Z</time></trkpt><trkpt lat="43.7760045" lon="12.2565233"><ele>785.0</ele><time>2026-04-12T07:48:18.648Z</time></trkpt><trkpt lat="43.7760826" lon="12.2563842"><ele>785.0</ele><time>2026-04-12T07:48:19.655Z</time></trkpt><trkpt lat="43.7761354" lon="12.256225"><ele>784.25</ele><time>2026-04-12T07:48:20.654Z</time></trkpt><trkpt lat="43.7761612" lon="12.2560537"><ele>783.5</ele><time>2026-04-12T07:48:21.645Z</time></trkpt><trkpt lat="43.7761831" lon="12.2558735"><ele>782.75</ele><time>2026-04-12T07:48:22.653Z</time></trkpt><trkpt lat="43.7761992" lon="12.2556962"><ele>782.0</ele><time>2026-04-12T07:48:23.65Z</time></trkpt><trkpt lat="43.7762105" lon="12.2555272"><ele>780.0</ele><time>2026-04-12T07:48:24.655Z</time></trkpt><trkpt lat="43.7762101" lon="12.2553336"><ele>778.0</ele><time>2026-04-12T07:48:25.651Z</time></trkpt><trkpt lat="43.7761457" lon="12.2549587"><ele>776.0</ele><time>2026-04-12T07:48:27.644Z</time></trkpt><trkpt lat="43.7761017" lon="12.2548023"><ele>774.5</ele><time>2026-04-12T07:48:28.646Z</time></trkpt><trkpt lat="43.7760377" lon="12.2546915"><ele>773.0</ele><time>2026-04-12T07:48:29.66Z</time></trkpt><trkpt lat="43.7759584" lon="12.2545711"><ele>771.5</ele><time>2026-04-12T07:48:30.629Z</time></trkpt><trkpt lat="43.7758885" lon="12.2544272"><ele>770.0</ele><time>2026-04-12T07:48:31.64Z</time></trkpt><trkpt lat="43.7758271" lon="12.2542692"><ele>769.3333333333334</ele><time>2026-04-12T07:48:32.716Z</time></trkpt><trkpt lat="43.7757875" lon="12.2540626"><ele>768.6666666666667</ele><time>2026-04-12T07:48:33.641Z</time></trkpt><trkpt lat="43.775751" lon="12.2538632"><ele>768.0</ele><time>2026-04-12T07:48:34.665Z</time></trkpt><trkpt lat="43.7757084" lon="12.2536571"><ele>765.0</ele><time>2026-04-12T07:48:35.643Z</time></trkpt><trkpt lat="43.7756708" lon="12.2534482"><ele>762.0</ele><time>2026-04-12T07:48:36.646Z</time></trkpt><trkpt lat="43.7756334" lon="12.2532438"><ele>759.0</ele><time>2026-04-12T07:48:37.633Z</time></trkpt><trkpt lat="43.7756029" lon="12.2530419"><ele>758.0</ele><time>2026-04-12T07:48:38.63Z</time></trkpt><trkpt lat="43.7755922" lon="12.2528482"><ele>757.0</ele><time>2026-04-12T07:48:39.649Z</time></trkpt><trkpt lat="43.7756004" lon="12.2526608"><ele>756.0</ele><time>2026-04-12T07:48:40.733Z</time></trkpt><trkpt lat="43.7756117" lon="12.2524656"><ele>755.0</ele><time>2026-04-12T07:48:41.633Z</time></trkpt><trkpt lat="43.7756334" lon="12.2522683"><ele>753.5</ele><time>2026-04-12T07:48:42.66Z</time></trkpt><trkpt lat="43.775668" lon="12.2520809"><ele>752.0</ele><time>2026-04-12T07:48:43.722Z</time></trkpt><trkpt lat="43.7757034" lon="12.2518874"><ele>750.5</ele><time>2026-04-12T07:48:44.647Z</time></trkpt><trkpt lat="43.7757482" lon="12.2517003"><ele>749.0</ele><time>2026-04-12T07:48:45.642Z</time></trkpt><trkpt lat="43.7758197" lon="12.2515197"><ele>749.0</ele><time>2026-04-12T07:48:46.63Z</time></trkpt><trkpt lat="43.7759945" lon="12.2511337"><ele>749.0</ele><time>2026-04-12T07:48:48.645Z</time></trkpt><trkpt lat="43.7760446" lon="12.2508969"><ele>749.0</ele><time>2026-04-12T07:48:49.642Z</time></trkpt><trkpt lat="43.7760715" lon="12.2506539"><ele>749.0</ele><time>2026-04-12T07:48:50.637Z</time></trkpt><trkpt lat="43.7760924" lon="12.250406"><ele>749.0</ele><time>2026-04-12T07:48:51.634Z</time></trkpt><trkpt lat="43.7761008" lon="12.25017"><ele>748.6666666666666</ele><time>2026-04-12T07:48:52.623Z</time></trkpt><trkpt lat="43.7761102" lon="12.2499526"><ele>748.3333333333334</ele><time>2026-04-12T07:48:53.644Z</time></trkpt><trkpt lat="43.7761241" lon="12.2497463"><ele>748.0</ele><time>2026-04-12T07:48:54.646Z</time></trkpt><trkpt lat="43.7761338" lon="12.2495398"><ele>746.0</ele><time>2026-04-12T07:48:55.641Z</time></trkpt><trkpt lat="43.7761216" lon="12.2493298"><ele>744.0</ele><time>2026-04-12T07:48:56.648Z</time></trkpt><trkpt lat="43.7760811" lon="12.249109"><ele>742.0</ele><time>2026-04-12T07:48:57.651Z</time></trkpt><trkpt lat="43.7760327" lon="12.2488894"><ele>737.6666666666667</ele><time>2026-04-12T07:48:58.646Z</time></trkpt><trkpt lat="43.7759909" lon="12.2486874"><ele>733.3333333333334</ele><time>2026-04-12T07:48:59.639Z</time></trkpt><trkpt lat="43.7759469" lon="12.2484882"><ele>729.0</ele><time>2026-04-12T07:49:00.643Z</time></trkpt><trkpt lat="43.7758975" lon="12.2482785"><ele>728.5</ele><time>2026-04-12T07:49:01.627Z</time></trkpt><trkpt lat="43.7758543" lon="12.2480713"><ele>728.0</ele><time>2026-04-12T07:49:02.727Z</time></trkpt><trkpt lat="43.7758061" lon="12.2479011"><ele>727.5</ele><time>2026-04-12T07:49:03.637Z</time></trkpt><trkpt lat="43.7757826" lon="12.2477328"><ele>727.0</ele><time>2026-04-12T07:49:04.642Z</time></trkpt><trkpt lat="43.7757769" lon="12.2475751"><ele>727.0</ele><time>2026-04-12T07:49:05.653Z</time></trkpt><trkpt lat="43.77581" lon="12.2474192"><ele>727.0</ele><time>2026-04-12T07:49:06.636Z</time></trkpt><trkpt lat="43.7758841" lon="12.2472912"><ele>727.0</ele><time>2026-04-12T07:49:07.647Z</time></trkpt><trkpt lat="43.7760448" lon="12.2470094"><ele>727.0</ele><time>2026-04-12T07:49:09.644Z</time></trkpt><trkpt lat="43.7760728" lon="12.2468063"><ele>727.0</ele><time>2026-04-12T07:49:10.655Z</time></trkpt><trkpt lat="43.7761084" lon="12.2465761"><ele>727.0</ele><time>2026-04-12T07:49:11.634Z</time></trkpt><trkpt lat="43.7761726" lon="12.246345"><ele>727.0</ele><time>2026-04-12T07:49:12.634Z</time></trkpt><trkpt lat="43.7762372" lon="12.2461192"><ele>727.0</ele><time>2026-04-12T07:49:13.721Z</time></trkpt><trkpt lat="43.7762769" lon="12.2458833"><ele>727.0</ele><time>2026-04-12T07:49:14.641Z</time></trkpt><trkpt lat="43.7762903" lon="12.2456445"><ele>726.6666666666667</ele><time>2026-04-12T07:49:15.628Z</time></trkpt><trkpt lat="43.7762784" lon="12.2454238"><ele>726.3333333333334</ele><time>2026-04-12T07:49:16.645Z</time></trkpt><trkpt lat="43.7762608" lon="12.2452249"><ele>726.0</ele><time>2026-04-12T07:49:17.642Z</time></trkpt><trkpt lat="43.776258" lon="12.2450104"><ele>725.25</ele><time>2026-04-12T07:49:18.626Z</time></trkpt><trkpt lat="43.7762783" lon="12.2447936"><ele>724.5</ele><time>2026-04-12T07:49:19.64Z</time></trkpt><trkpt lat="43.7763127" lon="12.2445938"><ele>723.75</ele><time>2026-04-12T07:49:20.622Z</time></trkpt><trkpt lat="43.7763543" lon="12.2444164"><ele>723.0</ele><time>2026-04-12T07:49:21.631Z</time></trkpt><trkpt lat="43.7764112" lon="12.244259"><ele>723.0</ele><time>2026-04-12T07:49:22.634Z</time></trkpt><trkpt lat="43.7764741" lon="12.2441253"><ele>723.0</ele><time>2026-04-12T07:49:23.646Z</time></trkpt><trkpt lat="43.7765221" lon="12.243992"><ele>723.0</ele><time>2026-04-12T07:49:24.646Z</time></trkpt><trkpt lat="43.7765364" lon="12.2438532"><ele>723.0</ele><time>2026-04-12T07:49:25.636Z</time></trkpt><trkpt lat="43.7765086" lon="12.2437328"><ele>723.0</ele><time>2026-04-12T07:49:26.713Z</time></trkpt><trkpt lat="43.7764576" lon="12.2436339"><ele>721.6666666666666</ele><time>2026-04-12T07:49:27.634Z</time></trkpt><trkpt lat="43.776379" lon="12.2435606"><ele>720.3333333333333</ele><time>2026-04-12T07:49:28.633Z</time></trkpt><trkpt lat="43.7761615" lon="12.2433657"><ele>719.0</ele><time>2026-04-12T07:49:30.625Z</time></trkpt><trkpt lat="43.7760538" lon="12.2432829"><ele>716.8000000000001</ele><time>2026-04-12T07:49:31.635Z</time></trkpt><trkpt lat="43.7759565" lon="12.2432074"><ele>714.6</ele><time>2026-04-12T07:49:32.645Z</time></trkpt><trkpt lat="43.7758758" lon="12.2431078"><ele>712.4</ele><time>2026-04-12T07:49:33.634Z</time></trkpt><trkpt lat="43.7758258" lon="12.2429703"><ele>710.2</ele><time>2026-04-12T07:49:34.62Z</time></trkpt><trkpt lat="43.7757909" lon="12.2428221"><ele>708.0</ele><time>2026-04-12T07:49:35.625Z</time></trkpt><trkpt lat="43.7757427" lon="12.2426794"><ele>706.5</ele><time>2026-04-12T07:49:36.635Z</time></trkpt><trkpt lat="43.7756813" lon="12.2425339"><ele>705.0</ele><time>2026-04-12T07:49:37.625Z</time></trkpt><trkpt lat="43.7756145" lon="12.2423892"><ele>703.5</ele><time>2026-04-12T07:49:38.634Z</time></trkpt><trkpt lat="43.7755233" lon="12.2422479"><ele>702.0</ele><time>2026-04-12T07:49:39.644Z</time></trkpt><trkpt lat="43.7754128" lon="12.2421169"><ele>701.0</ele><time>2026-04-12T07:49:40.644Z</time></trkpt><trkpt lat="43.7753069" lon="12.2419844"><ele>700.0</ele><time>2026-04-12T07:49:41.636Z</time></trkpt><trkpt lat="43.7752138" lon="12.2418589"><ele>699.0</ele><time>2026-04-12T07:49:42.679Z</time></trkpt><trkpt lat="43.7751335" lon="12.2417229"><ele>698.0</ele><time>2026-04-12T07:49:43.653Z</time></trkpt><trkpt lat="43.7750672" lon="12.2415802"><ele>694.2</ele><time>2026-04-12T07:49:44.665Z</time></trkpt><trkpt lat="43.7750012" lon="12.2414562"><ele>690.4</ele><time>2026-04-12T07:49:45.653Z</time></trkpt><trkpt lat="43.7749281" lon="12.2413533"><ele>686.6</ele><time>2026-04-12T07:49:46.646Z</time></trkpt><trkpt lat="43.7748366" lon="12.2413004"><ele>682.8000000000001</ele><time>2026-04-12T07:49:47.646Z</time></trkpt><trkpt lat="43.7747085" lon="12.2412953"><ele>679.0</ele><time>2026-04-12T07:49:48.647Z</time></trkpt><trkpt lat="43.7745863" lon="12.2413404"><ele>679.0</ele><time>2026-04-12T07:49:49.661Z</time></trkpt><trkpt lat="43.7743975" lon="12.2413707"><ele>679.0</ele><time>2026-04-12T07:49:51.632Z</time></trkpt><trkpt lat="43.7743177" lon="12.2412605"><ele>679.0</ele><time>2026-04-12T07:49:52.658Z</time></trkpt><trkpt lat="43.7742725" lon="12.2411401"><ele>679.0</ele><time>2026-04-12T07:49:53.627Z</time></trkpt><trkpt lat="43.7742678" lon="12.2409793"><ele>675.25</ele><time>2026-04-12T07:49:54.649Z</time></trkpt><trkpt lat="43.7742674" lon="12.2407995"><ele>671.5</ele><time>2026-04-12T07:49:55.647Z</time></trkpt><trkpt lat="43.7742802" lon="12.240605"><ele>667.75</ele><time>2026-04-12T07:49:56.643Z</time></trkpt><trkpt lat="43.7742867" lon="12.2403937"><ele>664.0</ele><time>2026-04-12T07:49:57.663Z</time></trkpt><trkpt lat="43.774284" lon="12.2401776"><ele>662.0</ele><time>2026-04-12T07:49:58.645Z</time></trkpt><trkpt lat="43.774264" lon="12.2399861"><ele>660.0</ele><time>2026-04-12T07:49:59.637Z</time></trkpt><trkpt lat="43.774247" lon="12.2397913"><ele>658.0</ele><time>2026-04-12T07:50:00.65Z</time></trkpt><trkpt lat="43.7742182" lon="12.2396359"><ele>656.0</ele><time>2026-04-12T07:50:01.636Z</time></trkpt><trkpt lat="43.7741758" lon="12.2395014"><ele>654.0</ele><time>2026-04-12T07:50:02.645Z</time></trkpt><trkpt lat="43.7741274" lon="12.2393686"><ele>652.0</ele><time>2026-04-12T07:50:03.656Z</time></trkpt><trkpt lat="43.7741069" lon="12.2392097"><ele>650.0</ele><time>2026-04-12T07:50:04.637Z</time></trkpt><trkpt lat="43.774125" lon="12.2390368"><ele>648.0</ele><time>2026-04-12T07:50:05.665Z</time></trkpt><trkpt lat="43.7741732" lon="12.2388713"><ele>646.5</ele><time>2026-04-12T07:50:06.652Z</time></trkpt><trkpt lat="43.7742287" lon="12.2386903"><ele>645.0</ele><time>2026-04-12T07:50:07.737Z</time></trkpt><trkpt lat="43.7742832" lon="12.2384991"><ele>643.5</ele><time>2026-04-12T07:50:08.641Z</time></trkpt><trkpt lat="43.7743218" lon="12.2383288"><ele>642.0</ele><time>2026-04-12T07:50:09.743Z</time></trkpt><trkpt lat="43.7743361" lon="12.2380216"><ele>644.0</ele><time>2026-04-12T07:50:11.642Z</time></trkpt><trkpt lat="43.774364" lon="12.2376573"><ele>646.0</ele><time>2026-04-12T07:50:13.635Z</time></trkpt><trkpt lat="43.7743879" lon="12.2374871"><ele>648.0</ele><time>2026-04-12T07:50:14.654Z</time></trkpt><trkpt lat="43.7743862" lon="12.2373035"><ele>644.75</ele><time>2026-04-12T07:50:15.625Z</time></trkpt><trkpt lat="43.7743531" lon="12.237123"><ele>641.5</ele><time>2026-04-12T07:50:16.649Z</time></trkpt><trkpt lat="43.7743023" lon="12.2369847"><ele>638.25</ele><time>2026-04-12T07:50:17.678Z</time></trkpt><trkpt lat="43.7742647" lon="12.2368378"><ele>635.0</ele><time>2026-04-12T07:50:18.73Z</time></trkpt><trkpt lat="43.7742564" lon="12.2366856"><ele>635.0</ele><time>2026-04-12T07:50:19.642Z</time></trkpt><trkpt lat="43.7742825" lon="12.2365403"><ele>635.0</ele><time>2026-04-12T07:50:20.748Z</time></trkpt><trkpt lat="43.7744261" lon="12.2363028"><ele>635.0</ele><time>2026-04-12T07:50:22.65Z</time></trkpt><trkpt lat="43.7745262" lon="12.2362211"><ele>635.0</ele><time>2026-04-12T07:50:23.642Z</time></trkpt><trkpt lat="43.7746351" lon="12.2361783"><ele>635.6</ele><time>2026-04-12T07:50:24.659Z</time></trkpt><trkpt lat="43.7747324" lon="12.2361647"><ele>636.2</ele><time>2026-04-12T07:50:25.646Z</time></trkpt><trkpt lat="43.7748266" lon="12.2361645"><ele>636.8</ele><time>2026-04-12T07:50:26.641Z</time></trkpt><trkpt lat="43.774915" lon="12.2361412"><ele>637.4</ele><time>2026-04-12T07:50:27.65Z</time></trkpt><trkpt lat="43.7750087" lon="12.2360654"><ele>638.0</ele><time>2026-04-12T07:50:28.645Z</time></trkpt><trkpt lat="43.7750817" lon="12.2359719"><ele>638.0</ele><time>2026-04-12T07:50:29.643Z</time></trkpt><trkpt lat="43.7751454" lon="12.2358595"><ele>638.0</ele><time>2026-04-12T07:50:30.639Z</time></trkpt><trkpt lat="43.775206" lon="12.2357165"><ele>638.0</ele><time>2026-04-12T07:50:31.648Z</time></trkpt><trkpt lat="43.7752496" lon="12.2355479"><ele>638.0</ele><time>2026-04-12T07:50:32.635Z</time></trkpt><trkpt lat="43.7752949" lon="12.2351991"><ele>639.5</ele><time>2026-04-12T07:50:34.673Z</time></trkpt><trkpt lat="43.7753328" lon="12.2350471"><ele>641.0</ele><time>2026-04-12T07:50:35.633Z</time></trkpt><trkpt lat="43.7753861" lon="12.2348927"><ele>642.5</ele><time>2026-04-12T07:50:36.646Z</time></trkpt><trkpt lat="43.7754437" lon="12.2347323"><ele>644.0</ele><time>2026-04-12T07:50:37.656Z</time></trkpt><trkpt lat="43.7754701" lon="12.2345402"><ele>644.0</ele><time>2026-04-12T07:50:38.647Z</time></trkpt><trkpt lat="43.7754569" lon="12.2343366"><ele>644.0</ele><time>2026-04-12T07:50:39.632Z</time></trkpt><trkpt lat="43.7754156" lon="12.2341573"><ele>644.0</ele><time>2026-04-12T07:50:40.633Z</time></trkpt><trkpt lat="43.7753509" lon="12.2340062"><ele>644.0</ele><time>2026-04-12T07:50:41.737Z</time></trkpt><trkpt lat="43.7752893" lon="12.2338723"><ele>642.75</ele><time>2026-04-12T07:50:42.644Z</time></trkpt><trkpt lat="43.7752368" lon="12.2337211"><ele>641.5</ele><time>2026-04-12T07:50:43.646Z</time></trkpt><trkpt lat="43.7751906" lon="12.2335503"><ele>640.25</ele><time>2026-04-12T07:50:44.622Z</time></trkpt><trkpt lat="43.7751738" lon="12.2333446"><ele>639.0</ele><time>2026-04-12T07:50:45.629Z</time></trkpt><trkpt lat="43.7751984" lon="12.2331408"><ele>637.6666666666666</ele><time>2026-04-12T07:50:46.66Z</time></trkpt><trkpt lat="43.7752607" lon="12.2329478"><ele>636.3333333333333</ele><time>2026-04-12T07:50:47.638Z</time></trkpt><trkpt lat="43.7753256" lon="12.2327512"><ele>635.0</ele><time>2026-04-12T07:50:48.654Z</time></trkpt><trkpt lat="43.775398" lon="12.2325449"><ele>635.0</ele><time>2026-04-12T07:50:49.632Z</time></trkpt><trkpt lat="43.7754655" lon="12.2323241"><ele>635.0</ele><time>2026-04-12T07:50:50.729Z</time></trkpt><trkpt lat="43.7755127" lon="12.232078"><ele>635.0</ele><time>2026-04-12T07:50:51.651Z</time></trkpt><trkpt lat="43.7755372" lon="12.2318366"><ele>633.5</ele><time>2026-04-12T07:50:52.647Z</time></trkpt><trkpt lat="43.7755488" lon="12.2316157"><ele>632.0</ele><time>2026-04-12T07:50:53.658Z</time></trkpt><trkpt lat="43.775555" lon="12.2311933"><ele>630.0</ele><time>2026-04-12T07:50:55.64Z</time></trkpt><trkpt lat="43.7755526" lon="12.2309925"><ele>628.0</ele><time>2026-04-12T07:50:56.634Z</time></trkpt><trkpt lat="43.7755522" lon="12.2308061"><ele>626.0</ele><time>2026-04-12T07:50:57.643Z</time></trkpt><trkpt lat="43.7755588" lon="12.2306233"><ele>624.0</ele><time>2026-04-12T07:50:58.625Z</time></trkpt><trkpt lat="43.7755786" lon="12.2304416"><ele>621.0</ele><time>2026-04-12T07:50:59.641Z</time></trkpt><trkpt lat="43.7756197" lon="12.2302661"><ele>618.0</ele><time>2026-04-12T07:51:00.625Z</time></trkpt><trkpt lat="43.7756689" lon="12.2300994"><ele>615.0</ele><time>2026-04-12T07:51:01.631Z</time></trkpt><trkpt lat="43.7757536" lon="12.2299514"><ele>612.0</ele><time>2026-04-12T07:51:02.645Z</time></trkpt><trkpt lat="43.7758565" lon="12.2298258"><ele>612.6</ele><time>2026-04-12T07:51:03.639Z</time></trkpt><trkpt lat="43.7759517" lon="12.2297267"><ele>613.2</ele><time>2026-04-12T07:51:04.657Z</time></trkpt><trkpt lat="43.7760194" lon="12.2296122"><ele>613.8</ele><time>2026-04-12T07:51:05.633Z</time></trkpt><trkpt lat="43.776047" lon="12.2294808"><ele>614.4</ele><time>2026-04-12T07:51:06.664Z</time></trkpt><trkpt lat="43.7760289" lon="12.2293548"><ele>615.0</ele><time>2026-04-12T07:51:07.642Z</time></trkpt><trkpt lat="43.7759655" lon="12.2292685"><ele>611.75</ele><time>2026-04-12T07:51:08.653Z</time></trkpt><trkpt lat="43.7758837" lon="12.2291508"><ele>608.5</ele><time>2026-04-12T07:51:09.643Z</time></trkpt><trkpt lat="43.7757878" lon="12.2290503"><ele>605.25</ele><time>2026-04-12T07:51:10.653Z</time></trkpt><trkpt lat="43.7756685" lon="12.2289737"><ele>602.0</ele><time>2026-04-12T07:51:11.672Z</time></trkpt><trkpt lat="43.7755383" lon="12.2289084"><ele>600.0</ele><time>2026-04-12T07:51:12.637Z</time></trkpt><trkpt lat="43.7754163" lon="12.2288468"><ele>598.0</ele><time>2026-04-12T07:51:13.651Z</time></trkpt><trkpt lat="43.7753072" lon="12.2287765"><ele>596.0</ele><time>2026-04-12T07:51:14.656Z</time></trkpt><trkpt lat="43.7750907" lon="12.2287142"><ele>593.2</ele><time>2026-04-12T07:51:16.619Z</time></trkpt><trkpt lat="43.774971" lon="12.228747"><ele>590.4000000000001</ele><time>2026-04-12T07:51:17.644Z</time></trkpt><trkpt lat="43.7748634" lon="12.2288034"><ele>587.6</ele><time>2026-04-12T07:51:18.631Z</time></trkpt><trkpt lat="43.774783" lon="12.2288893"><ele>584.8000000000001</ele><time>2026-04-12T07:51:19.664Z</time></trkpt><trkpt lat="43.7747041" lon="12.2289463"><ele>582.0</ele><time>2026-04-12T07:51:20.639Z</time></trkpt><trkpt lat="43.774626" lon="12.2289506"><ele>582.0</ele><time>2026-04-12T07:51:21.651Z</time></trkpt><trkpt lat="43.774538" lon="12.2288413"><ele>582.0</ele><time>2026-04-12T07:51:22.627Z</time></trkpt><trkpt lat="43.7744713" lon="12.2286972"><ele>582.0</ele><time>2026-04-12T07:51:23.648Z</time></trkpt><trkpt lat="43.774446" lon="12.2285297"><ele>582.0</ele><time>2026-04-12T07:51:24.647Z</time></trkpt><trkpt lat="43.7744476" lon="12.2283596"><ele>582.0</ele><time>2026-04-12T07:51:25.636Z</time></trkpt><trkpt lat="43.7744843" lon="12.2281957"><ele>582.0</ele><time>2026-04-12T07:51:26.664Z</time></trkpt><trkpt lat="43.774556" lon="12.228045"><ele>582.0</ele><time>2026-04-12T07:51:27.645Z</time></trkpt><trkpt lat="43.7746603" lon="12.2279197"><ele>582.0</ele><time>2026-04-12T07:51:28.643Z</time></trkpt><trkpt lat="43.7747783" lon="12.2278001"><ele>578.6666666666666</ele><time>2026-04-12T07:51:29.652Z</time></trkpt><trkpt lat="43.7748869" lon="12.2276274"><ele>575.3333333333333</ele><time>2026-04-12T07:51:30.637Z</time></trkpt><trkpt lat="43.7749748" lon="12.2274153"><ele>572.0</ele><time>2026-04-12T07:51:31.662Z</time></trkpt><trkpt lat="43.7750459" lon="12.2272031"><ele>569.6666666666666</ele><time>2026-04-12T07:51:32.626Z</time></trkpt><trkpt lat="43.7751219" lon="12.2269899"><ele>567.3333333333334</ele><time>2026-04-12T07:51:33.627Z</time></trkpt><trkpt lat="43.7752024" lon="12.2268018"><ele>565.0</ele><time>2026-04-12T07:51:34.668Z</time></trkpt><trkpt lat="43.7752918" lon="12.2266489"><ele>571.0</ele><time>2026-04-12T07:51:35.644Z</time></trkpt><trkpt lat="43.7754755" lon="12.2263319"><ele>577.0</ele><time>2026-04-12T07:51:37.663Z</time></trkpt><trkpt lat="43.7755518" lon="12.2261376"><ele>577.0</ele><time>2026-04-12T07:51:38.627Z</time></trkpt><trkpt lat="43.7756131" lon="12.2259457"><ele>577.0</ele><time>2026-04-12T07:51:39.644Z</time></trkpt><trkpt lat="43.7756665" lon="12.2257719"><ele>577.0</ele><time>2026-04-12T07:51:40.646Z</time></trkpt><trkpt lat="43.7757134" lon="12.2255954"><ele>577.0</ele><time>2026-04-12T07:51:41.652Z</time></trkpt><trkpt lat="43.7757547" lon="12.2254196"><ele>575.5</ele><time>2026-04-12T07:51:42.641Z</time></trkpt><trkpt lat="43.7757794" lon="12.2252221"><ele>574.0</ele><time>2026-04-12T07:51:43.654Z</time></trkpt><trkpt lat="43.7757888" lon="12.2250293"><ele>572.5</ele><time>2026-04-12T07:51:44.724Z</time></trkpt><trkpt lat="43.7758165" lon="12.2248535"><ele>571.0</ele><time>2026-04-12T07:51:45.65Z</time></trkpt><trkpt lat="43.7758523" lon="12.2246901"><ele>571.25</ele><time>2026-04-12T07:51:46.767Z</time></trkpt><trkpt lat="43.7759235" lon="12.2245387"><ele>571.5</ele><time>2026-04-12T07:51:47.713Z</time></trkpt><trkpt lat="43.7760275" lon="12.2244036"><ele>571.75</ele><time>2026-04-12T07:51:48.63Z</time></trkpt><trkpt lat="43.7761346" lon="12.2242289"><ele>572.0</ele><time>2026-04-12T07:51:49.663Z</time></trkpt><trkpt lat="43.7762229" lon="12.2240465"><ele>568.75</ele><time>2026-04-12T07:51:50.658Z</time></trkpt><trkpt lat="43.7763053" lon="12.2238721"><ele>565.5</ele><time>2026-04-12T07:51:51.639Z</time></trkpt><trkpt lat="43.7763851" lon="12.2237133"><ele>562.25</ele><time>2026-04-12T07:51:52.636Z</time></trkpt><trkpt lat="43.7764765" lon="12.2235586"><ele>559.0</ele><time>2026-04-12T07:51:53.635Z</time></trkpt><trkpt lat="43.7765817" lon="12.2234229"><ele>559.0</ele><time>2026-04-12T07:51:54.652Z</time></trkpt><trkpt lat="43.7766979" lon="12.2233163"><ele>559.0</ele><time>2026-04-12T07:51:55.637Z</time></trkpt><trkpt lat="43.7768243" lon="12.2232216"><ele>559.0</ele><time>2026-04-12T07:51:56.65Z</time></trkpt><trkpt lat="43.7771058" lon="12.223085"><ele>557.5</ele><time>2026-04-12T07:51:58.637Z</time></trkpt><trkpt lat="43.7772322" lon="12.2229842"><ele>556.0</ele><time>2026-04-12T07:51:59.643Z</time></trkpt><trkpt lat="43.7773276" lon="12.2228685"><ele>554.5</ele><time>2026-04-12T07:52:00.645Z</time></trkpt><trkpt lat="43.7774254" lon="12.2226825"><ele>553.0</ele><time>2026-04-12T07:52:01.626Z</time></trkpt><trkpt lat="43.7774988" lon="12.222469"><ele>554.0</ele><time>2026-04-12T07:52:02.653Z</time></trkpt><trkpt lat="43.7775456" lon="12.2222637"><ele>555.0</ele><time>2026-04-12T07:52:03.64Z</time></trkpt><trkpt lat="43.7775879" lon="12.2220676"><ele>556.0</ele><time>2026-04-12T07:52:04.644Z</time></trkpt><trkpt lat="43.7776321" lon="12.2218797"><ele>557.0</ele><time>2026-04-12T07:52:05.621Z</time></trkpt><trkpt lat="43.7776971" lon="12.2217013"><ele>557.0</ele><time>2026-04-12T07:52:06.711Z</time></trkpt><trkpt lat="43.7777751" lon="12.2215246"><ele>557.0</ele><time>2026-04-12T07:52:07.633Z</time></trkpt><trkpt lat="43.777871" lon="12.221355"><ele>557.0</ele><time>2026-04-12T07:52:08.636Z</time></trkpt><trkpt lat="43.7779779" lon="12.2212055"><ele>554.25</ele><time>2026-04-12T07:52:09.621Z</time></trkpt><trkpt lat="43.7780959" lon="12.2210756"><ele>551.5</ele><time>2026-04-12T07:52:10.644Z</time></trkpt><trkpt lat="43.7782078" lon="12.2209725"><ele>548.75</ele><time>2026-04-12T07:52:11.617Z</time></trkpt><trkpt lat="43.7782968" lon="12.2208716"><ele>546.0</ele><time>2026-04-12T07:52:12.634Z</time></trkpt><trkpt lat="43.7783531" lon="12.2207637"><ele>544.0</ele><time>2026-04-12T07:52:13.631Z</time></trkpt><trkpt lat="43.7783888" lon="12.2206206"><ele>542.0</ele><time>2026-04-12T07:52:14.632Z</time></trkpt><trkpt lat="43.7784104" lon="12.2204677"><ele>540.0</ele><time>2026-04-12T07:52:15.631Z</time></trkpt><trkpt lat="43.7784331" lon="12.2203147"><ele>538.0</ele><time>2026-04-12T07:52:16.642Z</time></trkpt><trkpt lat="43.7784584" lon="12.2201787"><ele>536.0</ele><time>2026-04-12T07:52:17.716Z</time></trkpt><trkpt lat="43.7785276" lon="12.2199478"><ele>536.0</ele><time>2026-04-12T07:52:19.668Z</time></trkpt><trkpt lat="43.7786111" lon="12.2198455"><ele>536.0</ele><time>2026-04-12T07:52:20.652Z</time></trkpt><trkpt lat="43.7787263" lon="12.219747"><ele>536.0</ele><time>2026-04-12T07:52:21.632Z</time></trkpt><trkpt lat="43.7788602" lon="12.2196541"><ele>536.0</ele><time>2026-04-12T07:52:22.632Z</time></trkpt><trkpt lat="43.7789796" lon="12.2195492"><ele>534.0</ele><time>2026-04-12T07:52:23.637Z</time></trkpt><trkpt lat="43.7790911" lon="12.2194399"><ele>532.0</ele><time>2026-04-12T07:52:24.634Z</time></trkpt><trkpt lat="43.7791851" lon="12.2193149"><ele>530.0</ele><time>2026-04-12T07:52:25.642Z</time></trkpt><trkpt lat="43.7792541" lon="12.2191695"><ele>528.0</ele><time>2026-04-12T07:52:26.644Z</time></trkpt><trkpt lat="43.7792809" lon="12.2190162"><ele>525.25</ele><time>2026-04-12T07:52:27.635Z</time></trkpt><trkpt lat="43.7792626" lon="12.2188856"><ele>522.5</ele><time>2026-04-12T07:52:28.719Z</time></trkpt><trkpt lat="43.7792106" lon="12.2187425"><ele>519.75</ele><time>2026-04-12T07:52:29.632Z</time></trkpt><trkpt lat="43.7791487" lon="12.2185766"><ele>517.0</ele><time>2026-04-12T07:52:30.649Z</time></trkpt><trkpt lat="43.7791015" lon="12.2184029"><ele>517.0</ele><time>2026-04-12T07:52:31.666Z</time></trkpt><trkpt lat="43.7790803" lon="12.2182112"><ele>517.0</ele><time>2026-04-12T07:52:32.641Z</time></trkpt><trkpt lat="43.7790673" lon="12.2180259"><ele>517.0</ele><time>2026-04-12T07:52:33.634Z</time></trkpt><trkpt lat="43.7790737" lon="12.2178361"><ele>517.0</ele><time>2026-04-12T07:52:34.631Z</time></trkpt><trkpt lat="43.779124" lon="12.2176858"><ele>516.5</ele><time>2026-04-12T07:52:35.643Z</time></trkpt><trkpt lat="43.7792202" lon="12.2175578"><ele>516.0</ele><time>2026-04-12T07:52:36.642Z</time></trkpt><trkpt lat="43.7793499" lon="12.2174579"><ele>515.5</ele><time>2026-04-12T07:52:37.636Z</time></trkpt><trkpt lat="43.7795003" lon="12.2173917"><ele>515.0</ele><time>2026-04-12T07:52:38.633Z</time></trkpt><trkpt lat="43.7797507" lon="12.2172332"><ele>512.6666666666666</ele><time>2026-04-12T07:52:40.639Z</time></trkpt><trkpt lat="43.7798615" lon="12.2170627"><ele>510.33333333333337</ele><time>2026-04-12T07:52:41.647Z</time></trkpt><trkpt lat="43.7799629" lon="12.2168762"><ele>508.0</ele><time>2026-04-12T07:52:42.728Z</time></trkpt><trkpt lat="43.7801757" lon="12.216483"><ele>509.33333333333337</ele><time>2026-04-12T07:52:44.639Z</time></trkpt><trkpt lat="43.7802625" lon="12.2162715"><ele>510.66666666666663</ele><time>2026-04-12T07:52:45.653Z</time></trkpt><trkpt lat="43.7803513" lon="12.2160701"><ele>512.0</ele><time>2026-04-12T07:52:46.636Z</time></trkpt><trkpt lat="43.780451" lon="12.2159114"><ele>512.0</ele><time>2026-04-12T07:52:47.642Z</time></trkpt><trkpt lat="43.7805561" lon="12.2157597"><ele>512.0</ele><time>2026-04-12T07:52:48.632Z</time></trkpt><trkpt lat="43.7806396" lon="12.2155647"><ele>512.0</ele><time>2026-04-12T07:52:49.643Z</time></trkpt><trkpt lat="43.7806893" lon="12.2153509"><ele>507.66666666666663</ele><time>2026-04-12T07:52:50.724Z</time></trkpt><trkpt lat="43.7807257" lon="12.2151433"><ele>503.33333333333337</ele><time>2026-04-12T07:52:51.631Z</time></trkpt><trkpt lat="43.780778" lon="12.2149513"><ele>499.0</ele><time>2026-04-12T07:52:52.651Z</time></trkpt><trkpt lat="43.7808586" lon="12.2147656"><ele>497.33333333333337</ele><time>2026-04-12T07:52:53.721Z</time></trkpt><trkpt lat="43.7809548" lon="12.2145837"><ele>495.66666666666663</ele><time>2026-04-12T07:52:54.634Z</time></trkpt><trkpt lat="43.7810523" lon="12.2144129"><ele>494.0</ele><time>2026-04-12T07:52:55.652Z</time></trkpt><trkpt lat="43.781153" lon="12.2142546"><ele>494.0</ele><time>2026-04-12T07:52:56.633Z</time></trkpt><trkpt lat="43.7812438" lon="12.2141463"><ele>494.0</ele><time>2026-04-12T07:52:57.652Z</time></trkpt><trkpt lat="43.7813629" lon="12.214047"><ele>494.0</ele><time>2026-04-12T07:52:58.644Z</time></trkpt><trkpt lat="43.7814978" lon="12.2139802"><ele>494.0</ele><time>2026-04-12T07:52:59.648Z</time></trkpt><trkpt lat="43.781759" lon="12.2138833"><ele>489.25</ele><time>2026-04-12T07:53:01.675Z</time></trkpt><trkpt lat="43.781866" lon="12.2137992"><ele>484.5</ele><time>2026-04-12T07:53:02.64Z</time></trkpt><trkpt lat="43.7819563" lon="12.213673"><ele>479.75</ele><time>2026-04-12T07:53:03.642Z</time></trkpt><trkpt lat="43.7820202" lon="12.2135434"><ele>475.0</ele><time>2026-04-12T07:53:04.658Z</time></trkpt><trkpt lat="43.7820583" lon="12.2134136"><ele>475.0</ele><time>2026-04-12T07:53:05.641Z</time></trkpt><trkpt lat="43.7820537" lon="12.213286"><ele>475.0</ele><time>2026-04-12T07:53:06.651Z</time></trkpt><trkpt lat="43.7820171" lon="12.2131636"><ele>475.0</ele><time>2026-04-12T07:53:07.624Z</time></trkpt><trkpt lat="43.781941" lon="12.2130627"><ele>475.0</ele><time>2026-04-12T07:53:08.629Z</time></trkpt><trkpt lat="43.7818267" lon="12.2129876"><ele>475.0</ele><time>2026-04-12T07:53:09.643Z</time></trkpt><trkpt lat="43.7816849" lon="12.2129422"><ele>472.5</ele><time>2026-04-12T07:53:10.629Z</time></trkpt><trkpt lat="43.7815464" lon="12.2129175"><ele>470.0</ele><time>2026-04-12T07:53:11.625Z</time></trkpt><trkpt lat="43.7814006" lon="12.212938"><ele>467.5</ele><time>2026-04-12T07:53:12.702Z</time></trkpt><trkpt lat="43.7812575" lon="12.2129814"><ele>465.0</ele><time>2026-04-12T07:53:13.628Z</time></trkpt><trkpt lat="43.7811168" lon="12.2130269"><ele>464.5</ele><time>2026-04-12T07:53:14.64Z</time></trkpt><trkpt lat="43.7809769" lon="12.2130282"><ele>464.0</ele><time>2026-04-12T07:53:15.64Z</time></trkpt><trkpt lat="43.780856" lon="12.2129688"><ele>463.5</ele><time>2026-04-12T07:53:16.624Z</time></trkpt><trkpt lat="43.7807528" lon="12.2128754"><ele>463.0</ele><time>2026-04-12T07:53:17.613Z</time></trkpt><trkpt lat="43.7807" lon="12.2127453"><ele>463.0</ele><time>2026-04-12T07:53:18.63Z</time></trkpt><trkpt lat="43.7806939" lon="12.2125659"><ele>463.0</ele><time>2026-04-12T07:53:19.639Z</time></trkpt><trkpt lat="43.7807105" lon="12.2123801"><ele>463.0</ele><time>2026-04-12T07:53:20.629Z</time></trkpt><trkpt lat="43.7807907" lon="12.2120315"><ele>460.25</ele><time>2026-04-12T07:53:22.625Z</time></trkpt><trkpt lat="43.7808526" lon="12.2118717"><ele>457.5</ele><time>2026-04-12T07:53:23.627Z</time></trkpt><trkpt lat="43.7809479" lon="12.2117415"><ele>454.75</ele><time>2026-04-12T07:53:24.628Z</time></trkpt><trkpt lat="43.7810769" lon="12.2116483"><ele>452.0</ele><time>2026-04-12T07:53:25.624Z</time></trkpt><trkpt lat="43.7812212" lon="12.2115658"><ele>450.66666666666663</ele><time>2026-04-12T07:53:26.631Z</time></trkpt><trkpt lat="43.781371" lon="12.2115061"><ele>449.33333333333337</ele><time>2026-04-12T07:53:27.617Z</time></trkpt><trkpt lat="43.7815206" lon="12.211469"><ele>448.0</ele><time>2026-04-12T07:53:28.621Z</time></trkpt><trkpt lat="43.781671" lon="12.2114268"><ele>443.25</ele><time>2026-04-12T07:53:29.631Z</time></trkpt><trkpt lat="43.7818078" lon="12.211415"><ele>438.5</ele><time>2026-04-12T07:53:30.615Z</time></trkpt><trkpt lat="43.7819266" lon="12.2113616"><ele>433.75</ele><time>2026-04-12T07:53:31.631Z</time></trkpt><trkpt lat="43.7820185" lon="12.2112618"><ele>429.0</ele><time>2026-04-12T07:53:32.626Z</time></trkpt><trkpt lat="43.7821053" lon="12.2111661"><ele>428.75</ele><time>2026-04-12T07:53:33.625Z</time></trkpt><trkpt lat="43.7822065" lon="12.2111123"><ele>428.5</ele><time>2026-04-12T07:53:34.709Z</time></trkpt><trkpt lat="43.7823168" lon="12.2111151"><ele>428.25</ele><time>2026-04-12T07:53:35.627Z</time></trkpt><trkpt lat="43.7824447" lon="12.2111474"><ele>428.0</ele><time>2026-04-12T07:53:36.634Z</time></trkpt><trkpt lat="43.7825904" lon="12.211117"><ele>427.25</ele><time>2026-04-12T07:53:37.635Z</time></trkpt><trkpt lat="43.7827292" lon="12.2111019"><ele>426.5</ele><time>2026-04-12T07:53:38.646Z</time></trkpt><trkpt lat="43.782862" lon="12.2110637"><ele>425.75</ele><time>2026-04-12T07:53:39.635Z</time></trkpt><trkpt lat="43.7829927" lon="12.2110267"><ele>425.0</ele><time>2026-04-12T07:53:40.626Z</time></trkpt><trkpt lat="43.7831163" lon="12.2109891"><ele>425.0</ele><time>2026-04-12T07:53:41.632Z</time></trkpt><trkpt lat="43.78334" lon="12.2109185"><ele>425.0</ele><time>2026-04-12T07:53:43.624Z</time></trkpt><trkpt lat="43.7834294" lon="12.2109054"><ele>425.0</ele><time>2026-04-12T07:53:44.636Z</time></trkpt><trkpt lat="43.7835017" lon="12.2108984"><ele>425.0</ele><time>2026-04-12T07:53:45.627Z</time></trkpt><trkpt lat="43.7835659" lon="12.2108782"><ele>425.0</ele><time>2026-04-12T07:53:47.633Z</time></trkpt><trkpt lat="43.7835284" lon="12.2107721"><ele>425.0</ele><time>2026-04-12T07:53:50.636Z</time></trkpt><trkpt lat="43.7834615" lon="12.2107436"><ele>425.0</ele><time>2026-04-12T07:53:51.638Z</time></trkpt><trkpt lat="43.7833742" lon="12.2107122"><ele>425.0</ele><time>2026-04-12T07:53:52.64Z</time></trkpt><trkpt lat="43.7832718" lon="12.2106826"><ele>425.0</ele><time>2026-04-12T07:53:53.643Z</time></trkpt><trkpt lat="43.7831519" lon="12.2106262"><ele>421.75</ele><time>2026-04-12T07:53:54.64Z</time></trkpt><trkpt lat="43.7830248" lon="12.2105808"><ele>418.5</ele><time>2026-04-12T07:53:55.63Z</time></trkpt><trkpt lat="43.7828789" lon="12.2105531"><ele>415.25</ele><time>2026-04-12T07:53:56.7Z</time></trkpt><trkpt lat="43.7827258" lon="12.2105327"><ele>412.0</ele><time>2026-04-12T07:53:57.619Z</time></trkpt><trkpt lat="43.7825648" lon="12.210519"><ele>412.0</ele><time>2026-04-12T07:53:58.64Z</time></trkpt><trkpt lat="43.7824059" lon="12.2105026"><ele>412.0</ele><time>2026-04-12T07:53:59.642Z</time></trkpt><trkpt lat="43.7822547" lon="12.2104847"><ele>412.0</ele><time>2026-04-12T07:54:00.636Z</time></trkpt><trkpt lat="43.782103" lon="12.2104679"><ele>412.0</ele><time>2026-04-12T07:54:01.634Z</time></trkpt><trkpt lat="43.7819638" lon="12.2104282"><ele>412.0</ele><time>2026-04-12T07:54:02.629Z</time></trkpt><trkpt lat="43.7817629" lon="12.2102052"><ele>412.0</ele><time>2026-04-12T07:54:04.634Z</time></trkpt><trkpt lat="43.7817073" lon="12.2100177"><ele>412.0</ele><time>2026-04-12T07:54:05.626Z</time></trkpt><trkpt lat="43.7816792" lon="12.2098091"><ele>412.0</ele><time>2026-04-12T07:54:06.639Z</time></trkpt><trkpt lat="43.7816427" lon="12.2095579"><ele>412.0</ele><time>2026-04-12T07:54:07.631Z</time></trkpt><trkpt lat="43.7816042" lon="12.2093029"><ele>412.0</ele><time>2026-04-12T07:54:08.628Z</time></trkpt><trkpt lat="43.7815712" lon="12.2090378"><ele>412.0</ele><time>2026-04-12T07:54:09.625Z</time></trkpt><trkpt lat="43.7815299" lon="12.2087607"><ele>412.0</ele><time>2026-04-12T07:54:10.628Z</time></trkpt><trkpt lat="43.7814809" lon="12.208486"><ele>412.33333333333337</ele><time>2026-04-12T07:54:11.634Z</time></trkpt><trkpt lat="43.781408" lon="12.2082199"><ele>412.66666666666663</ele><time>2026-04-12T07:54:12.631Z</time></trkpt><trkpt lat="43.7812981" lon="12.2079826"><ele>413.0</ele><time>2026-04-12T07:54:13.635Z</time></trkpt><trkpt lat="43.7811657" lon="12.207769"><ele>414.3333333333333</ele><time>2026-04-12T07:54:14.616Z</time></trkpt><trkpt lat="43.7810299" lon="12.2075568"><ele>415.66666666666663</ele><time>2026-04-12T07:54:15.644Z</time></trkpt><trkpt lat="43.7808907" lon="12.2073435"><ele>417.0</ele><time>2026-04-12T07:54:16.641Z</time></trkpt><trkpt lat="43.7807499" lon="12.2071298"><ele>417.0</ele><time>2026-04-12T07:54:17.628Z</time></trkpt><trkpt lat="43.7806311" lon="12.2069291"><ele>417.0</ele><time>2026-04-12T07:54:18.621Z</time></trkpt><trkpt lat="43.7805097" lon="12.2067011"><ele>417.0</ele><time>2026-04-12T07:54:19.627Z</time></trkpt><trkpt lat="43.7803981" lon="12.2064736"><ele>415.0</ele><time>2026-04-12T07:54:20.633Z</time></trkpt><trkpt lat="43.7802869" lon="12.2062286"><ele>413.0</ele><time>2026-04-12T07:54:21.624Z</time></trkpt><trkpt lat="43.7801973" lon="12.2059669"><ele>411.0</ele><time>2026-04-12T07:54:22.635Z</time></trkpt><trkpt lat="43.7801436" lon="12.2057018"><ele>413.33333333333337</ele><time>2026-04-12T07:54:23.643Z</time></trkpt><trkpt lat="43.7800531" lon="12.205315"><ele>415.6666666666667</ele><time>2026-04-12T07:54:25.627Z</time></trkpt><trkpt lat="43.7799578" lon="12.2051803"><ele>418.0</ele><time>2026-04-12T07:54:26.67Z</time></trkpt><trkpt lat="43.7798267" lon="12.2051019"><ele>418.0</ele><time>2026-04-12T07:54:27.631Z</time></trkpt><trkpt lat="43.7796614" lon="12.2050129"><ele>418.0</ele><time>2026-04-12T07:54:28.632Z</time></trkpt><trkpt lat="43.7795017" lon="12.2049417"><ele>418.0</ele><time>2026-04-12T07:54:29.625Z</time></trkpt><trkpt lat="43.7793431" lon="12.2049174"><ele>422.33333333333337</ele><time>2026-04-12T07:54:30.632Z</time></trkpt><trkpt lat="43.7791578" lon="12.2049467"><ele>426.66666666666663</ele><time>2026-04-12T07:54:31.651Z</time></trkpt><trkpt lat="43.7789834" lon="12.2050097"><ele>431.0</ele><time>2026-04-12T07:54:32.618Z</time></trkpt><trkpt lat="43.7788323" lon="12.2050589"><ele>431.0</ele><time>2026-04-12T07:54:33.629Z</time></trkpt><trkpt lat="43.7786921" lon="12.2050993"><ele>431.0</ele><time>2026-04-12T07:54:34.628Z</time></trkpt><trkpt lat="43.7785358" lon="12.2050957"><ele>431.0</ele><time>2026-04-12T07:54:35.64Z</time></trkpt><trkpt lat="43.7783793" lon="12.2050261"><ele>432.3333333333333</ele><time>2026-04-12T07:54:36.626Z</time></trkpt><trkpt lat="43.7782172" lon="12.2049173"><ele>433.66666666666663</ele><time>2026-04-12T07:54:37.645Z</time></trkpt><trkpt lat="43.778048" lon="12.2047821"><ele>435.0</ele><time>2026-04-12T07:54:38.634Z</time></trkpt><trkpt lat="43.777881" lon="12.2046486"><ele>433.33333333333337</ele><time>2026-04-12T07:54:39.7Z</time></trkpt><trkpt lat="43.777713" lon="12.2045165"><ele>431.6666666666667</ele><time>2026-04-12T07:54:40.62Z</time></trkpt><trkpt lat="43.7775457" lon="12.2043895"><ele>430.0</ele><time>2026-04-12T07:54:41.714Z</time></trkpt><trkpt lat="43.7773868" lon="12.2042698"><ele>430.0</ele><time>2026-04-12T07:54:42.633Z</time></trkpt><trkpt lat="43.7772277" lon="12.2041535"><ele>430.0</ele><time>2026-04-12T07:54:43.63Z</time></trkpt><trkpt lat="43.7770673" lon="12.2040367"><ele>430.0</ele><time>2026-04-12T07:54:44.63Z</time></trkpt><trkpt lat="43.7767325" lon="12.2037892"><ele>429.0</ele><time>2026-04-12T07:54:46.638Z</time></trkpt><trkpt lat="43.7765542" lon="12.2036593"><ele>428.0</ele><time>2026-04-12T07:54:47.624Z</time></trkpt><trkpt lat="43.7763788" lon="12.2035246"><ele>427.0</ele><time>2026-04-12T07:54:48.627Z</time></trkpt><trkpt lat="43.7761973" lon="12.2033868"><ele>425.6666666666667</ele><time>2026-04-12T07:54:49.629Z</time></trkpt><trkpt lat="43.776009" lon="12.2032449"><ele>424.33333333333337</ele><time>2026-04-12T07:54:50.634Z</time></trkpt><trkpt lat="43.7758224" lon="12.2031021"><ele>423.0</ele><time>2026-04-12T07:54:51.63Z</time></trkpt><trkpt lat="43.7756401" lon="12.202961"><ele>423.0</ele><time>2026-04-12T07:54:52.633Z</time></trkpt><trkpt lat="43.7754777" lon="12.2028219"><ele>423.0</ele><time>2026-04-12T07:54:53.626Z</time></trkpt><trkpt lat="43.775335" lon="12.2026709"><ele>423.0</ele><time>2026-04-12T07:54:54.628Z</time></trkpt><trkpt lat="43.7752125" lon="12.2025077"><ele>424.66666666666663</ele><time>2026-04-12T07:54:55.636Z</time></trkpt><trkpt lat="43.7750939" lon="12.2023499"><ele>426.3333333333333</ele><time>2026-04-12T07:54:56.654Z</time></trkpt><trkpt lat="43.7749605" lon="12.2022187"><ele>428.0</ele><time>2026-04-12T07:54:57.633Z</time></trkpt><trkpt lat="43.7747966" lon="12.2021167"><ele>428.0</ele><time>2026-04-12T07:54:58.634Z</time></trkpt><trkpt lat="43.7746087" lon="12.2020576"><ele>428.0</ele><time>2026-04-12T07:54:59.618Z</time></trkpt><trkpt lat="43.7744201" lon="12.2020239"><ele>428.0</ele><time>2026-04-12T07:55:00.635Z</time></trkpt><trkpt lat="43.7742384" lon="12.2019723"><ele>428.66666666666663</ele><time>2026-04-12T07:55:01.636Z</time></trkpt><trkpt lat="43.7740672" lon="12.2018783"><ele>429.33333333333337</ele><time>2026-04-12T07:55:02.646Z</time></trkpt><trkpt lat="43.7739053" lon="12.2017688"><ele>430.0</ele><time>2026-04-12T07:55:03.656Z</time></trkpt><trkpt lat="43.7737375" lon="12.2016466"><ele>426.0</ele><time>2026-04-12T07:55:04.752Z</time></trkpt><trkpt lat="43.7733715" lon="12.201471"><ele>422.0</ele><time>2026-04-12T07:55:06.639Z</time></trkpt><trkpt lat="43.7729796" lon="12.2013722"><ele>422.0</ele><time>2026-04-12T07:55:08.642Z</time></trkpt><trkpt lat="43.7727832" lon="12.2013607"><ele>422.0</ele><time>2026-04-12T07:55:09.63Z</time></trkpt><trkpt lat="43.7725948" lon="12.2013796"><ele>422.0</ele><time>2026-04-12T07:55:10.637Z</time></trkpt><trkpt lat="43.7724098" lon="12.2014115"><ele>423.3333333333333</ele><time>2026-04-12T07:55:11.639Z</time></trkpt><trkpt lat="43.7722245" lon="12.2014428"><ele>424.66666666666663</ele><time>2026-04-12T07:55:12.631Z</time></trkpt><trkpt lat="43.7720429" lon="12.2014489"><ele>426.0</ele><time>2026-04-12T07:55:13.629Z</time></trkpt><trkpt lat="43.7718672" lon="12.2014009"><ele>426.0</ele><time>2026-04-12T07:55:14.637Z</time></trkpt><trkpt lat="43.7716916" lon="12.2013084"><ele>426.0</ele><time>2026-04-12T07:55:15.646Z</time></trkpt><trkpt lat="43.7715175" lon="12.2011864"><ele>426.0</ele><time>2026-04-12T07:55:16.655Z</time></trkpt><trkpt lat="43.7713612" lon="12.2010405"><ele>426.0</ele><time>2026-04-12T07:55:17.631Z</time></trkpt><trkpt lat="43.7712082" lon="12.2008976"><ele>426.0</ele><time>2026-04-12T07:55:18.655Z</time></trkpt><trkpt lat="43.7710568" lon="12.2007761"><ele>426.0</ele><time>2026-04-12T07:55:19.637Z</time></trkpt><trkpt lat="43.7708878" lon="12.2006931"><ele>424.33333333333337</ele><time>2026-04-12T07:55:20.64Z</time></trkpt><trkpt lat="43.7706998" lon="12.2006543"><ele>422.6666666666667</ele><time>2026-04-12T07:55:21.654Z</time></trkpt><trkpt lat="43.7705117" lon="12.2006588"><ele>421.0</ele><time>2026-04-12T07:55:22.643Z</time></trkpt><trkpt lat="43.7703182" lon="12.2006794"><ele>426.33333333333337</ele><time>2026-04-12T07:55:23.654Z</time></trkpt><trkpt lat="43.7701233" lon="12.2007095"><ele>431.66666666666663</ele><time>2026-04-12T07:55:24.643Z</time></trkpt><trkpt lat="43.7699407" lon="12.2007416"><ele>437.0</ele><time>2026-04-12T07:55:25.651Z</time></trkpt><trkpt lat="43.7697638" lon="12.2007667"><ele>437.0</ele><time>2026-04-12T07:55:26.629Z</time></trkpt><trkpt lat="43.7695976" lon="12.2007749"><ele>437.0</ele><time>2026-04-12T07:55:27.619Z</time></trkpt><trkpt lat="43.7692774" lon="12.2006676"><ele>433.66666666666663</ele><time>2026-04-12T07:55:29.631Z</time></trkpt><trkpt lat="43.7691228" lon="12.2005567"><ele>430.33333333333337</ele><time>2026-04-12T07:55:30.65Z</time></trkpt><trkpt lat="43.7689655" lon="12.2004481"><ele>427.0</ele><time>2026-04-12T07:55:31.633Z</time></trkpt><trkpt lat="43.7687998" lon="12.2003443"><ele>427.0</ele><time>2026-04-12T07:55:32.643Z</time></trkpt><trkpt lat="43.7686316" lon="12.2002648"><ele>427.0</ele><time>2026-04-12T07:55:33.652Z</time></trkpt><trkpt lat="43.7684524" lon="12.200206"><ele>427.0</ele><time>2026-04-12T07:55:34.634Z</time></trkpt><trkpt lat="43.768267" lon="12.2001725"><ele>429.33333333333337</ele><time>2026-04-12T07:55:35.67Z</time></trkpt><trkpt lat="43.7680768" lon="12.2001675"><ele>431.66666666666663</ele><time>2026-04-12T07:55:36.626Z</time></trkpt><trkpt lat="43.7679006" lon="12.2002088"><ele>434.0</ele><time>2026-04-12T07:55:37.637Z</time></trkpt><trkpt lat="43.76773" lon="12.2002911"><ele>433.3333333333333</ele><time>2026-04-12T07:55:38.637Z</time></trkpt><trkpt lat="43.7675619" lon="12.2003909"><ele>432.66666666666663</ele><time>2026-04-12T07:55:39.627Z</time></trkpt><trkpt lat="43.767401" lon="12.2004812"><ele>432.0</ele><time>2026-04-12T07:55:40.628Z</time></trkpt><trkpt lat="43.7672269" lon="12.2005351"><ele>432.0</ele><time>2026-04-12T07:55:41.637Z</time></trkpt><trkpt lat="43.7670521" lon="12.2005553"><ele>432.0</ele><time>2026-04-12T07:55:42.637Z</time></trkpt><trkpt lat="43.7668846" lon="12.2005467"><ele>432.0</ele><time>2026-04-12T07:55:43.646Z</time></trkpt><trkpt lat="43.7667143" lon="12.2005123"><ele>431.75</ele><time>2026-04-12T07:55:44.617Z</time></trkpt><trkpt lat="43.7665696" lon="12.2004787"><ele>431.5</ele><time>2026-04-12T07:55:45.631Z</time></trkpt><trkpt lat="43.7664395" lon="12.2004358"><ele>431.25</ele><time>2026-04-12T07:55:46.631Z</time></trkpt><trkpt lat="43.7663235" lon="12.2003634"><ele>431.0</ele><time>2026-04-12T07:55:47.632Z</time></trkpt><trkpt lat="43.7662156" lon="12.2002283"><ele>431.5</ele><time>2026-04-12T07:55:48.631Z</time></trkpt><trkpt lat="43.7660199" lon="12.1999023"><ele>432.0</ele><time>2026-04-12T07:55:50.676Z</time></trkpt><trkpt lat="43.7659392" lon="12.1997072"><ele>432.0</ele><time>2026-04-12T07:55:51.641Z</time></trkpt><trkpt lat="43.7658574" lon="12.1995229"><ele>432.0</ele><time>2026-04-12T07:55:52.633Z</time></trkpt><trkpt lat="43.7657662" lon="12.1993407"><ele>432.0</ele><time>2026-04-12T07:55:53.647Z</time></trkpt><trkpt lat="43.765674" lon="12.1991531"><ele>431.25</ele><time>2026-04-12T07:55:54.631Z</time></trkpt><trkpt lat="43.7655737" lon="12.1989987"><ele>430.5</ele><time>2026-04-12T07:55:55.638Z</time></trkpt><trkpt lat="43.7654628" lon="12.1988802"><ele>429.75</ele><time>2026-04-12T07:55:56.635Z</time></trkpt><trkpt lat="43.7653303" lon="12.1987864"><ele>429.0</ele><time>2026-04-12T07:55:57.72Z</time></trkpt><trkpt lat="43.7651873" lon="12.1987428"><ele>431.0</ele><time>2026-04-12T07:55:58.631Z</time></trkpt><trkpt lat="43.7650411" lon="12.1987031"><ele>433.0</ele><time>2026-04-12T07:55:59.629Z</time></trkpt><trkpt lat="43.7649078" lon="12.1986551"><ele>435.0</ele><time>2026-04-12T07:56:00.634Z</time></trkpt><trkpt lat="43.7647734" lon="12.1986043"><ele>437.0</ele><time>2026-04-12T07:56:01.64Z</time></trkpt><trkpt lat="43.7646519" lon="12.1985543"><ele>437.0</ele><time>2026-04-12T07:56:02.631Z</time></trkpt><trkpt lat="43.7645515" lon="12.1985072"><ele>437.00000000000006</ele><time>2026-04-12T07:56:03.631Z</time></trkpt><trkpt lat="43.7644883" lon="12.198433"><ele>437.00000000000006</ele><time>2026-04-12T07:56:04.634Z</time></trkpt><trkpt lat="43.7644434" lon="12.1983165"><ele>437.0</ele><time>2026-04-12T07:56:05.636Z</time></trkpt><trkpt lat="43.764416" lon="12.1981651"><ele>437.0</ele><time>2026-04-12T07:56:06.628Z</time></trkpt><trkpt lat="43.764395" lon="12.1979972"><ele>436.0</ele><time>2026-04-12T07:56:07.633Z</time></trkpt><trkpt lat="43.7643727" lon="12.1978218"><ele>435.0</ele><time>2026-04-12T07:56:08.642Z</time></trkpt><trkpt lat="43.764338" lon="12.1976512"><ele>434.0</ele><time>2026-04-12T07:56:09.649Z</time></trkpt><trkpt lat="43.7642598" lon="12.1973424"><ele>434.25</ele><time>2026-04-12T07:56:11.639Z</time></trkpt><trkpt lat="43.764221" lon="12.197194"><ele>434.5</ele><time>2026-04-12T07:56:12.624Z</time></trkpt><trkpt lat="43.7641919" lon="12.1970308"><ele>434.75</ele><time>2026-04-12T07:56:13.648Z</time></trkpt><trkpt lat="43.764155" lon="12.1968687"><ele>435.0</ele><time>2026-04-12T07:56:14.647Z</time></trkpt><trkpt lat="43.7641178" lon="12.1967089"><ele>435.0</ele><time>2026-04-12T07:56:15.676Z</time></trkpt><trkpt lat="43.7640904" lon="12.1965543"><ele>435.0</ele><time>2026-04-12T07:56:16.661Z</time></trkpt><trkpt lat="43.7640797" lon="12.1963982"><ele>435.0</ele><time>2026-04-12T07:56:17.648Z</time></trkpt><trkpt lat="43.7641021" lon="12.1962384"><ele>435.0</ele><time>2026-04-12T07:56:18.629Z</time></trkpt><trkpt lat="43.7641458" lon="12.1960815"><ele>436.75</ele><time>2026-04-12T07:56:19.619Z</time></trkpt><trkpt lat="43.7642075" lon="12.1959108"><ele>438.5</ele><time>2026-04-12T07:56:20.669Z</time></trkpt><trkpt lat="43.7642619" lon="12.1957228"><ele>440.25</ele><time>2026-04-12T07:56:21.628Z</time></trkpt><trkpt lat="43.7643092" lon="12.1955304"><ele>442.0</ele><time>2026-04-12T07:56:22.664Z</time></trkpt><trkpt lat="43.7643591" lon="12.1953393"><ele>447.5</ele><time>2026-04-12T07:56:23.634Z</time></trkpt><trkpt lat="43.7644195" lon="12.1951657"><ele>453.0</ele><time>2026-04-12T07:56:24.646Z</time></trkpt><trkpt lat="43.7645027" lon="12.1949982"><ele>458.5</ele><time>2026-04-12T07:56:25.643Z</time></trkpt><trkpt lat="43.7645962" lon="12.194852"><ele>464.0</ele><time>2026-04-12T07:56:26.644Z</time></trkpt><trkpt lat="43.7646616" lon="12.1947272"><ele>465.0</ele><time>2026-04-12T07:56:27.648Z</time></trkpt><trkpt lat="43.7647103" lon="12.1946192"><ele>466.0</ele><time>2026-04-12T07:56:28.652Z</time></trkpt><trkpt lat="43.764725" lon="12.19452"><ele>467.0</ele><time>2026-04-12T07:56:29.734Z</time></trkpt><trkpt lat="43.7646419" lon="12.1944333"><ele>468.0</ele><time>2026-04-12T07:56:31.635Z</time></trkpt><trkpt lat="43.7644947" lon="12.1945982"><ele>468.0</ele><time>2026-04-12T07:56:33.641Z</time></trkpt><trkpt lat="43.7644081" lon="12.1947158"><ele>468.0</ele><time>2026-04-12T07:56:34.649Z</time></trkpt><trkpt lat="43.7643125" lon="12.194858"><ele>468.0</ele><time>2026-04-12T07:56:35.649Z</time></trkpt><trkpt lat="43.7642115" lon="12.1949951"><ele>468.0</ele><time>2026-04-12T07:56:36.629Z</time></trkpt><trkpt lat="43.7640886" lon="12.1950974"><ele>467.33333333333337</ele><time>2026-04-12T07:56:37.638Z</time></trkpt><trkpt lat="43.7639518" lon="12.1952012"><ele>466.6666666666667</ele><time>2026-04-12T07:56:38.643Z</time></trkpt><trkpt lat="43.7638059" lon="12.1952989"><ele>466.0</ele><time>2026-04-12T07:56:39.648Z</time></trkpt><trkpt lat="43.7636622" lon="12.195409"><ele>469.33333333333337</ele><time>2026-04-12T07:56:40.646Z</time></trkpt><trkpt lat="43.7635148" lon="12.1955271"><ele>472.66666666666663</ele><time>2026-04-12T07:56:41.639Z</time></trkpt><trkpt lat="43.7633904" lon="12.1956301"><ele>476.0</ele><time>2026-04-12T07:56:42.655Z</time></trkpt><trkpt lat="43.7632651" lon="12.1957319"><ele>476.0</ele><time>2026-04-12T07:56:43.645Z</time></trkpt><trkpt lat="43.7631283" lon="12.1957957"><ele>476.0</ele><time>2026-04-12T07:56:44.643Z</time></trkpt><trkpt lat="43.7629903" lon="12.1958476"><ele>476.0</ele><time>2026-04-12T07:56:45.676Z</time></trkpt><trkpt lat="43.7628523" lon="12.1959279"><ele>476.0</ele><time>2026-04-12T07:56:46.648Z</time></trkpt><trkpt lat="43.7627196" lon="12.1960953"><ele>474.3333333333333</ele><time>2026-04-12T07:56:47.647Z</time></trkpt><trkpt lat="43.7625982" lon="12.1962588"><ele>472.66666666666663</ele><time>2026-04-12T07:56:48.642Z</time></trkpt><trkpt lat="43.76249" lon="12.1963978"><ele>471.0</ele><time>2026-04-12T07:56:49.639Z</time></trkpt><trkpt lat="43.7623937" lon="12.1965346"><ele>471.0</ele><time>2026-04-12T07:56:50.627Z</time></trkpt><trkpt lat="43.7623161" lon="12.1966457"><ele>471.0</ele><time>2026-04-12T07:56:51.629Z</time></trkpt><trkpt lat="43.7622466" lon="12.1967288"><ele>471.0</ele><time>2026-04-12T07:56:52.638Z</time></trkpt><trkpt lat="43.7621082" lon="12.1967071"><ele>471.0</ele><time>2026-04-12T07:56:54.643Z</time></trkpt><trkpt lat="43.7621121" lon="12.196587"><ele>471.0</ele><time>2026-04-12T07:56:55.632Z</time></trkpt><trkpt lat="43.7621532" lon="12.1964952"><ele>480.5</ele><time>2026-04-12T07:56:56.62Z</time></trkpt><trkpt lat="43.7622367" lon="12.1964284"><ele>490.0</ele><time>2026-04-12T07:56:57.638Z</time></trkpt><trkpt lat="43.762339" lon="12.1964418"><ele>499.5</ele><time>2026-04-12T07:56:58.625Z</time></trkpt><trkpt lat="43.7624281" lon="12.1963603"><ele>509.0</ele><time>2026-04-12T07:56:59.625Z</time></trkpt><trkpt lat="43.7625187" lon="12.1961502"><ele>509.0</ele><time>2026-04-12T07:57:00.623Z</time></trkpt><trkpt lat="43.7626135" lon="12.195957"><ele>509.0</ele><time>2026-04-12T07:57:01.644Z</time></trkpt><trkpt lat="43.7626984" lon="12.195806"><ele>509.0</ele><time>2026-04-12T07:57:02.63Z</time></trkpt><trkpt lat="43.7628077" lon="12.1956917"><ele>509.0</ele><time>2026-04-12T07:57:03.627Z</time></trkpt><trkpt lat="43.7629108" lon="12.1956003"><ele>506.75</ele><time>2026-04-12T07:57:04.63Z</time></trkpt><trkpt lat="43.7630085" lon="12.1954979"><ele>504.5</ele><time>2026-04-12T07:57:05.704Z</time></trkpt><trkpt lat="43.7630776" lon="12.1953574"><ele>502.25</ele><time>2026-04-12T07:57:06.621Z</time></trkpt><trkpt lat="43.7631317" lon="12.1951833"><ele>500.0</ele><time>2026-04-12T07:57:07.62Z</time></trkpt><trkpt lat="43.763208" lon="12.195011"><ele>507.0</ele><time>2026-04-12T07:57:08.697Z</time></trkpt><trkpt lat="43.7632908" lon="12.1948346"><ele>514.0</ele><time>2026-04-12T07:57:09.627Z</time></trkpt><trkpt lat="43.7633958" lon="12.1946864"><ele>521.0</ele><time>2026-04-12T07:57:10.631Z</time></trkpt><trkpt lat="43.7635156" lon="12.1945575"><ele>510.3333333333333</ele><time>2026-04-12T07:57:11.641Z</time></trkpt><trkpt lat="43.763631" lon="12.1944412"><ele>499.66666666666663</ele><time>2026-04-12T07:57:12.627Z</time></trkpt><trkpt lat="43.7637232" lon="12.1943448"><ele>489.0</ele><time>2026-04-12T07:57:13.665Z</time></trkpt><trkpt lat="43.7638307" lon="12.1940743"><ele>493.0</ele><time>2026-04-12T07:57:15.653Z</time></trkpt><trkpt lat="43.7638716" lon="12.1939055"><ele>497.0</ele><time>2026-04-12T07:57:16.736Z</time></trkpt><trkpt lat="43.7639187" lon="12.1937301"><ele>501.0</ele><time>2026-04-12T07:57:17.718Z</time></trkpt><trkpt lat="43.763965" lon="12.1935508"><ele>505.0</ele><time>2026-04-12T07:57:18.646Z</time></trkpt><trkpt lat="43.764009" lon="12.1933521"><ele>505.0</ele><time>2026-04-12T07:57:19.661Z</time></trkpt><trkpt lat="43.7640582" lon="12.1931763"><ele>505.0</ele><time>2026-04-12T07:57:20.654Z</time></trkpt><trkpt lat="43.7641304" lon="12.1930233"><ele>505.0</ele><time>2026-04-12T07:57:21.68Z</time></trkpt><trkpt lat="43.7642075" lon="12.1929004"><ele>505.0</ele><time>2026-04-12T07:57:22.667Z</time></trkpt><trkpt lat="43.7642592" lon="12.1927938"><ele>506.1666666666667</ele><time>2026-04-12T07:57:23.644Z</time></trkpt><trkpt lat="43.7642782" lon="12.1926935"><ele>507.33333333333337</ele><time>2026-04-12T07:57:24.641Z</time></trkpt><trkpt lat="43.7642583" lon="12.1925888"><ele>508.5</ele><time>2026-04-12T07:57:25.65Z</time></trkpt><trkpt lat="43.764207" lon="12.1925052"><ele>509.66666666666663</ele><time>2026-04-12T07:57:26.628Z</time></trkpt><trkpt lat="43.7641348" lon="12.1924573"><ele>510.8333333333333</ele><time>2026-04-12T07:57:27.664Z</time></trkpt><trkpt lat="43.7640498" lon="12.1924904"><ele>512.0</ele><time>2026-04-12T07:57:28.65Z</time></trkpt><trkpt lat="43.7639768" lon="12.1925663"><ele>512.0</ele><time>2026-04-12T07:57:29.748Z</time></trkpt><trkpt lat="43.7638616" lon="12.1929187"><ele>512.0</ele><time>2026-04-12T07:57:31.652Z</time></trkpt><trkpt lat="43.7638266" lon="12.1930887"><ele>512.0</ele><time>2026-04-12T07:57:32.663Z</time></trkpt><trkpt lat="43.7637705" lon="12.1932151"><ele>512.0</ele><time>2026-04-12T07:57:33.642Z</time></trkpt><trkpt lat="43.7636745" lon="12.1933322"><ele>512.0</ele><time>2026-04-12T07:57:34.642Z</time></trkpt><trkpt lat="43.7635495" lon="12.1931262"><ele>512.0</ele><time>2026-04-12T07:57:36.631Z</time></trkpt><trkpt lat="43.7635383" lon="12.1929503"><ele>512.0</ele><time>2026-04-12T07:57:37.646Z</time></trkpt><trkpt lat="43.7635446" lon="12.1927811"><ele>512.0</ele><time>2026-04-12T07:57:38.701Z</time></trkpt><trkpt lat="43.7635265" lon="12.1925976"><ele>512.0</ele><time>2026-04-12T07:57:39.629Z</time></trkpt><trkpt lat="43.7634849" lon="12.1924225"><ele>512.0</ele><time>2026-04-12T07:57:40.641Z</time></trkpt><trkpt lat="43.7633982" lon="12.192262"><ele>517.6666666666666</ele><time>2026-04-12T07:57:41.718Z</time></trkpt><trkpt lat="43.7632949" lon="12.19209"><ele>523.3333333333334</ele><time>2026-04-12T07:57:42.657Z</time></trkpt><trkpt lat="43.7631975" lon="12.1919244"><ele>529.0</ele><time>2026-04-12T07:57:43.636Z</time></trkpt><trkpt lat="43.7631429" lon="12.1916994"><ele>528.25</ele><time>2026-04-12T07:57:44.642Z</time></trkpt><trkpt lat="43.763117" lon="12.1914813"><ele>527.5</ele><time>2026-04-12T07:57:45.64Z</time></trkpt><trkpt lat="43.7630903" lon="12.191281"><ele>526.75</ele><time>2026-04-12T07:57:46.631Z</time></trkpt><trkpt lat="43.7630293" lon="12.1911111"><ele>526.0</ele><time>2026-04-12T07:57:47.635Z</time></trkpt><trkpt lat="43.7629553" lon="12.1909934"><ele>526.0</ele><time>2026-04-12T07:57:48.638Z</time></trkpt><trkpt lat="43.7628717" lon="12.1909163"><ele>526.0</ele><time>2026-04-12T07:57:49.658Z</time></trkpt><trkpt lat="43.7627591" lon="12.1908681"><ele>526.0</ele><time>2026-04-12T07:57:50.642Z</time></trkpt><trkpt lat="43.7626221" lon="12.1908376"><ele>526.0</ele><time>2026-04-12T07:57:51.638Z</time></trkpt><trkpt lat="43.7624943" lon="12.1908189"><ele>530.0</ele><time>2026-04-12T07:57:52.722Z</time></trkpt><trkpt lat="43.7623927" lon="12.1908167"><ele>534.0</ele><time>2026-04-12T07:57:53.641Z</time></trkpt><trkpt lat="43.7623131" lon="12.1908639"><ele>538.0</ele><time>2026-04-12T07:57:54.645Z</time></trkpt><trkpt lat="43.7622591" lon="12.1909668"><ele>542.0</ele><time>2026-04-12T07:57:55.641Z</time></trkpt><trkpt lat="43.7622401" lon="12.1913187"><ele>542.0</ele><time>2026-04-12T07:57:57.633Z</time></trkpt><trkpt lat="43.7622351" lon="12.1914762"><ele>542.0</ele><time>2026-04-12T07:57:58.634Z</time></trkpt><trkpt lat="43.7622118" lon="12.191615"><ele>542.0</ele><time>2026-04-12T07:57:59.632Z</time></trkpt><trkpt lat="43.7621659" lon="12.1917409"><ele>542.0</ele><time>2026-04-12T07:58:00.737Z</time></trkpt><trkpt lat="43.7621077" lon="12.1918673"><ele>542.0</ele><time>2026-04-12T07:58:01.641Z</time></trkpt><trkpt lat="43.7620268" lon="12.1919903"><ele>543.0</ele><time>2026-04-12T07:58:02.72Z</time></trkpt><trkpt lat="43.7619309" lon="12.1921207"><ele>544.0</ele><time>2026-04-12T07:58:03.639Z</time></trkpt><trkpt lat="43.7618427" lon="12.1922511"><ele>545.0</ele><time>2026-04-12T07:58:04.633Z</time></trkpt><trkpt lat="43.7617736" lon="12.192407"><ele>546.0</ele><time>2026-04-12T07:58:05.631Z</time></trkpt><trkpt lat="43.7617332" lon="12.1925731"><ele>547.6</ele><time>2026-04-12T07:58:06.636Z</time></trkpt><trkpt lat="43.7617051" lon="12.1927235"><ele>549.2</ele><time>2026-04-12T07:58:07.644Z</time></trkpt><trkpt lat="43.7616834" lon="12.1928523"><ele>550.8</ele><time>2026-04-12T07:58:08.628Z</time></trkpt><trkpt lat="43.7616619" lon="12.1929637"><ele>552.4</ele><time>2026-04-12T07:58:09.629Z</time></trkpt><trkpt lat="43.7616382" lon="12.1930525"><ele>554.0</ele><time>2026-04-12T07:58:10.631Z</time></trkpt><trkpt lat="43.7615363" lon="12.1932367"><ele>554.0</ele><time>2026-04-12T07:58:13.621Z</time></trkpt><trkpt lat="43.7614122" lon="12.1932096"><ele>554.0</ele><time>2026-04-12T07:58:16.638Z</time></trkpt><trkpt lat="43.7612666" lon="12.1930386"><ele>554.0</ele><time>2026-04-12T07:58:19.627Z</time></trkpt><trkpt lat="43.7611974" lon="12.1929872"><ele>554.0</ele><time>2026-04-12T07:58:20.638Z</time></trkpt><trkpt lat="43.7611318" lon="12.192935"><ele>554.3333333333333</ele><time>2026-04-12T07:58:21.643Z</time></trkpt><trkpt lat="43.7610695" lon="12.1928774"><ele>554.6666666666666</ele><time>2026-04-12T07:58:22.637Z</time></trkpt><trkpt lat="43.7610002" lon="12.1928159"><ele>555.0</ele><time>2026-04-12T07:58:23.643Z</time></trkpt><trkpt lat="43.7609385" lon="12.1927579"><ele>555.3333333333334</ele><time>2026-04-12T07:58:24.658Z</time></trkpt><trkpt lat="43.7608687" lon="12.1926992"><ele>555.6666666666667</ele><time>2026-04-12T07:58:25.641Z</time></trkpt><trkpt lat="43.7607972" lon="12.192632"><ele>556.0</ele><time>2026-04-12T07:58:26.649Z</time></trkpt><trkpt lat="43.7607324" lon="12.1925622"><ele>558.3333333333334</ele><time>2026-04-12T07:58:27.653Z</time></trkpt><trkpt lat="43.7606646" lon="12.1925053"><ele>560.6666666666667</ele><time>2026-04-12T07:58:28.647Z</time></trkpt><trkpt lat="43.7605951" lon="12.1924424"><ele>563.0</ele><time>2026-04-12T07:58:29.656Z</time></trkpt><trkpt lat="43.7605211" lon="12.1923733"><ele>565.3333333333334</ele><time>2026-04-12T07:58:30.642Z</time></trkpt><trkpt lat="43.7604453" lon="12.1923003"><ele>567.6666666666666</ele><time>2026-04-12T07:58:31.652Z</time></trkpt><trkpt lat="43.7603773" lon="12.1922176"><ele>570.0</ele><time>2026-04-12T07:58:32.632Z</time></trkpt><trkpt lat="43.7603148" lon="12.1921158"><ele>570.0</ele><time>2026-04-12T07:58:33.643Z</time></trkpt><trkpt lat="43.7602573" lon="12.191985"><ele>570.0</ele><time>2026-04-12T07:58:34.642Z</time></trkpt><trkpt lat="43.7601981" lon="12.191814"><ele>570.0</ele><time>2026-04-12T07:58:35.708Z</time></trkpt><trkpt lat="43.7601273" lon="12.1916108"><ele>570.0</ele><time>2026-04-12T07:58:36.636Z</time></trkpt><trkpt lat="43.7600594" lon="12.1914141"><ele>575.0</ele><time>2026-04-12T07:58:37.658Z</time></trkpt><trkpt lat="43.7599362" lon="12.1911054"><ele>580.0</ele><time>2026-04-12T07:58:39.634Z</time></trkpt><trkpt lat="43.7598565" lon="12.1909937"><ele>585.0</ele><time>2026-04-12T07:58:40.648Z</time></trkpt><trkpt lat="43.7597641" lon="12.1908958"><ele>585.0</ele><time>2026-04-12T07:58:41.65Z</time></trkpt><trkpt lat="43.7596606" lon="12.1908157"><ele>585.0</ele><time>2026-04-12T07:58:42.667Z</time></trkpt><trkpt lat="43.759562" lon="12.1907427"><ele>585.0</ele><time>2026-04-12T07:58:43.65Z</time></trkpt><trkpt lat="43.7594901" lon="12.1906717"><ele>585.0</ele><time>2026-04-12T07:58:44.664Z</time></trkpt><trkpt lat="43.7594158" lon="12.1905892"><ele>585.0</ele><time>2026-04-12T07:58:45.641Z</time></trkpt><trkpt lat="43.7593595" lon="12.1904884"><ele>580.75</ele><time>2026-04-12T07:58:46.653Z</time></trkpt><trkpt lat="43.7593159" lon="12.190356"><ele>576.5</ele><time>2026-04-12T07:58:47.635Z</time></trkpt><trkpt lat="43.7592799" lon="12.1902024"><ele>572.25</ele><time>2026-04-12T07:58:48.74Z</time></trkpt><trkpt lat="43.7592457" lon="12.1900251"><ele>568.0</ele><time>2026-04-12T07:58:49.65Z</time></trkpt><trkpt lat="43.7592076" lon="12.1898489"><ele>572.0</ele><time>2026-04-12T07:58:50.66Z</time></trkpt><trkpt lat="43.7591742" lon="12.1896799"><ele>576.0</ele><time>2026-04-12T07:58:51.655Z</time></trkpt><trkpt lat="43.7591363" lon="12.1895161"><ele>580.0</ele><time>2026-04-12T07:58:52.633Z</time></trkpt><trkpt lat="43.7590913" lon="12.1893755"><ele>584.0</ele><time>2026-04-12T07:58:53.661Z</time></trkpt><trkpt lat="43.7590269" lon="12.1892587"><ele>584.0</ele><time>2026-04-12T07:58:54.641Z</time></trkpt><trkpt lat="43.7589455" lon="12.1891779"><ele>584.0</ele><time>2026-04-12T07:58:55.655Z</time></trkpt><trkpt lat="43.7588424" lon="12.1891343"><ele>584.0</ele><time>2026-04-12T07:58:56.626Z</time></trkpt><trkpt lat="43.7587199" lon="12.1891517"><ele>584.0</ele><time>2026-04-12T07:58:57.635Z</time></trkpt><trkpt lat="43.7585999" lon="12.1891823"><ele>585.0</ele><time>2026-04-12T07:58:58.642Z</time></trkpt><trkpt lat="43.7584013" lon="12.1890945"><ele>586.0</ele><time>2026-04-12T07:59:00.65Z</time></trkpt><trkpt lat="43.758315" lon="12.1889891"><ele>587.0</ele><time>2026-04-12T07:59:01.638Z</time></trkpt><trkpt lat="43.7582143" lon="12.1888633"><ele>587.0</ele><time>2026-04-12T07:59:02.647Z</time></trkpt><trkpt lat="43.7581131" lon="12.1887551"><ele>587.0</ele><time>2026-04-12T07:59:03.639Z</time></trkpt><trkpt lat="43.7580045" lon="12.1886742"><ele>587.0</ele><time>2026-04-12T07:59:04.644Z</time></trkpt><trkpt lat="43.7578842" lon="12.1886281"><ele>587.0</ele><time>2026-04-12T07:59:05.626Z</time></trkpt><trkpt lat="43.7577526" lon="12.1886244"><ele>584.3333333333333</ele><time>2026-04-12T07:59:06.643Z</time></trkpt><trkpt lat="43.7576232" lon="12.1886486"><ele>581.6666666666666</ele><time>2026-04-12T07:59:07.626Z</time></trkpt><trkpt lat="43.7575161" lon="12.1887146"><ele>579.0</ele><time>2026-04-12T07:59:08.851Z</time></trkpt><trkpt lat="43.7573846" lon="12.1889902"><ele>570.6666666666666</ele><time>2026-04-12T07:59:10.65Z</time></trkpt><trkpt lat="43.7573482" lon="12.1891902"><ele>562.3333333333333</ele><time>2026-04-12T07:59:11.624Z</time></trkpt><trkpt lat="43.7573057" lon="12.1894076"><ele>554.0</ele><time>2026-04-12T07:59:12.627Z</time></trkpt><trkpt lat="43.757242" lon="12.1896381"><ele>549.3333333333333</ele><time>2026-04-12T07:59:13.649Z</time></trkpt><trkpt lat="43.757218" lon="12.1899456"><ele>544.6666666666666</ele><time>2026-04-12T07:59:14.661Z</time></trkpt><trkpt lat="43.7571713" lon="12.1902511"><ele>540.0</ele><time>2026-04-12T07:59:15.635Z</time></trkpt><trkpt lat="43.7571284" lon="12.1904899"><ele>540.0</ele><time>2026-04-12T07:59:16.639Z</time></trkpt><trkpt lat="43.7570844" lon="12.1906669"><ele>540.0</ele><time>2026-04-12T07:59:17.64Z</time></trkpt><trkpt lat="43.7570459" lon="12.190818"><ele>540.0</ele><time>2026-04-12T07:59:18.651Z</time></trkpt><trkpt lat="43.7570276" lon="12.1909212"><ele>540.0</ele><time>2026-04-12T07:59:19.638Z</time></trkpt><trkpt lat="43.7568598" lon="12.1909156"><ele>539.8333333333334</ele><time>2026-04-12T07:59:22.635Z</time></trkpt><trkpt lat="43.7568171" lon="12.1908431"><ele>539.6666666666666</ele><time>2026-04-12T07:59:23.64Z</time></trkpt><trkpt lat="43.7567842" lon="12.1907447"><ele>539.5</ele><time>2026-04-12T07:59:24.689Z</time></trkpt><trkpt lat="43.7567444" lon="12.190637"><ele>539.3333333333333</ele><time>2026-04-12T07:59:25.633Z</time></trkpt><trkpt lat="43.7567176" lon="12.1905276"><ele>539.1666666666666</ele><time>2026-04-12T07:59:26.663Z</time></trkpt><trkpt lat="43.7566116" lon="12.1904534"><ele>539.0</ele><time>2026-04-12T07:59:27.643Z</time></trkpt><trkpt lat="43.7565111" lon="12.1903867"><ele>542.3333333333333</ele><time>2026-04-12T07:59:28.632Z</time></trkpt><trkpt lat="43.7564101" lon="12.1903548"><ele>545.6666666666666</ele><time>2026-04-12T07:59:29.637Z</time></trkpt><trkpt lat="43.7563383" lon="12.1902964"><ele>549.0</ele><time>2026-04-12T07:59:30.709Z</time></trkpt><trkpt lat="43.7562826" lon="12.190221"><ele>552.3333333333334</ele><time>2026-04-12T07:59:31.629Z</time></trkpt><trkpt lat="43.7562439" lon="12.1901227"><ele>555.6666666666667</ele><time>2026-04-12T07:59:32.639Z</time></trkpt><trkpt lat="43.7562167" lon="12.1900018"><ele>559.0</ele><time>2026-04-12T07:59:33.637Z</time></trkpt><trkpt lat="43.7561963" lon="12.1898591"><ele>556.8</ele><time>2026-04-12T07:59:34.635Z</time></trkpt><trkpt lat="43.7561726" lon="12.1897141"><ele>554.5999999999999</ele><time>2026-04-12T07:59:35.673Z</time></trkpt><trkpt lat="43.7561337" lon="12.189573"><ele>552.4</ele><time>2026-04-12T07:59:36.643Z</time></trkpt><trkpt lat="43.7560769" lon="12.1894559"><ele>550.1999999999999</ele><time>2026-04-12T07:59:37.66Z</time></trkpt><trkpt lat="43.7559913" lon="12.189342"><ele>548.0</ele><time>2026-04-12T07:59:38.639Z</time></trkpt><trkpt lat="43.7559002" lon="12.1892255"><ele>548.0</ele><time>2026-04-12T07:59:39.624Z</time></trkpt><trkpt lat="43.7558368" lon="12.1891448"><ele>548.0</ele><time>2026-04-12T07:59:40.659Z</time></trkpt><trkpt lat="43.7556865" lon="12.189041"><ele>548.0</ele><time>2026-04-12T07:59:42.656Z</time></trkpt><trkpt lat="43.7555919" lon="12.1890301"><ele>548.0</ele><time>2026-04-12T07:59:43.628Z</time></trkpt><trkpt lat="43.755502" lon="12.1890978"><ele>548.0</ele><time>2026-04-12T07:59:44.641Z</time></trkpt><trkpt lat="43.755425" lon="12.1892207"><ele>548.0</ele><time>2026-04-12T07:59:45.708Z</time></trkpt><trkpt lat="43.7553618" lon="12.1893531"><ele>548.0</ele><time>2026-04-12T07:59:46.657Z</time></trkpt><trkpt lat="43.7552783" lon="12.1894732"><ele>548.0</ele><time>2026-04-12T07:59:47.652Z</time></trkpt><trkpt lat="43.7551888" lon="12.1895789"><ele>549.25</ele><time>2026-04-12T07:59:48.624Z</time></trkpt><trkpt lat="43.7551161" lon="12.1897172"><ele>550.5</ele><time>2026-04-12T07:59:49.642Z</time></trkpt><trkpt lat="43.7550647" lon="12.1898634"><ele>551.75</ele><time>2026-04-12T07:59:50.632Z</time></trkpt><trkpt lat="43.7550202" lon="12.1900247"><ele>553.0</ele><time>2026-04-12T07:59:51.638Z</time></trkpt><trkpt lat="43.754983" lon="12.1902168"><ele>548.25</ele><time>2026-04-12T07:59:52.703Z</time></trkpt><trkpt lat="43.7549509" lon="12.1904163"><ele>543.5</ele><time>2026-04-12T07:59:53.624Z</time></trkpt><trkpt lat="43.7549309" lon="12.1905911"><ele>538.75</ele><time>2026-04-12T07:59:54.675Z</time></trkpt><trkpt lat="43.7549224" lon="12.1907509"><ele>534.0</ele><time>2026-04-12T07:59:55.7Z</time></trkpt><trkpt lat="43.7549363" lon="12.1909275"><ele>531.4</ele><time>2026-04-12T07:59:56.642Z</time></trkpt><trkpt lat="43.7549594" lon="12.1910966"><ele>528.8</ele><time>2026-04-12T07:59:57.644Z</time></trkpt><trkpt lat="43.7549856" lon="12.1912331"><ele>526.2</ele><time>2026-04-12T07:59:58.644Z</time></trkpt><trkpt lat="43.754998" lon="12.1913439"><ele>523.6</ele><time>2026-04-12T07:59:59.649Z</time></trkpt><trkpt lat="43.7549903" lon="12.1914512"><ele>521.0</ele><time>2026-04-12T08:00:00.649Z</time></trkpt><trkpt lat="43.7549568" lon="12.1915394"><ele>516.0</ele><time>2026-04-12T08:00:01.65Z</time></trkpt><trkpt lat="43.7548525" lon="12.191685"><ele>511.0</ele><time>2026-04-12T08:00:03.642Z</time></trkpt><trkpt lat="43.7547584" lon="12.1917472"><ele>506.0</ele><time>2026-04-12T08:00:04.64Z</time></trkpt><trkpt lat="43.7546477" lon="12.1918049"><ele>501.0</ele><time>2026-04-12T08:00:05.638Z</time></trkpt><trkpt lat="43.7545916" lon="12.1919093"><ele>501.0</ele><time>2026-04-12T08:00:06.629Z</time></trkpt><trkpt lat="43.7545777" lon="12.1920274"><ele>501.0</ele><time>2026-04-12T08:00:07.641Z</time></trkpt><trkpt lat="43.7545861" lon="12.1921631"><ele>501.0</ele><time>2026-04-12T08:00:08.626Z</time></trkpt><trkpt lat="43.7546018" lon="12.1923109"><ele>501.0</ele><time>2026-04-12T08:00:09.636Z</time></trkpt><trkpt lat="43.754595" lon="12.1924518"><ele>501.0</ele><time>2026-04-12T08:00:10.646Z</time></trkpt><trkpt lat="43.75456" lon="12.1925821"><ele>505.5</ele><time>2026-04-12T08:00:11.63Z</time></trkpt><trkpt lat="43.7545024" lon="12.1927041"><ele>510.0</ele><time>2026-04-12T08:00:12.653Z</time></trkpt><trkpt lat="43.7544145" lon="12.1928233"><ele>514.5</ele><time>2026-04-12T08:00:13.625Z</time></trkpt><trkpt lat="43.7543362" lon="12.1929369"><ele>519.0</ele><time>2026-04-12T08:00:14.623Z</time></trkpt><trkpt lat="43.7542438" lon="12.19304"><ele>519.0</ele><time>2026-04-12T08:00:15.643Z</time></trkpt><trkpt lat="43.754163" lon="12.1931162"><ele>519.0</ele><time>2026-04-12T08:00:16.622Z</time></trkpt><trkpt lat="43.7540729" lon="12.1931605"><ele>519.0</ele><time>2026-04-12T08:00:17.632Z</time></trkpt><trkpt lat="43.7539933" lon="12.1931767"><ele>519.0</ele><time>2026-04-12T08:00:18.636Z</time></trkpt><trkpt lat="43.7539064" lon="12.1931652"><ele>519.0</ele><time>2026-04-12T08:00:19.627Z</time></trkpt><trkpt lat="43.7538028" lon="12.1931408"><ele>519.0</ele><time>2026-04-12T08:00:20.633Z</time></trkpt><trkpt lat="43.7537194" lon="12.1931247"><ele>519.0</ele><time>2026-04-12T08:00:21.623Z</time></trkpt><trkpt lat="43.753646" lon="12.1931347"><ele>519.0</ele><time>2026-04-12T08:00:22.647Z</time></trkpt><trkpt lat="43.7534634" lon="12.1932238"><ele>519.0</ele><time>2026-04-12T08:00:24.633Z</time></trkpt><trkpt lat="43.753393" lon="12.1932762"><ele>519.0</ele><time>2026-04-12T08:00:25.629Z</time></trkpt><trkpt lat="43.7533111" lon="12.1933148"><ele>513.0</ele><time>2026-04-12T08:00:26.641Z</time></trkpt><trkpt lat="43.7532159" lon="12.1933332"><ele>507.0</ele><time>2026-04-12T08:00:27.643Z</time></trkpt><trkpt lat="43.7531088" lon="12.1933124"><ele>501.0</ele><time>2026-04-12T08:00:28.642Z</time></trkpt><trkpt lat="43.7529877" lon="12.1932634"><ele>495.0</ele><time>2026-04-12T08:00:29.637Z</time></trkpt><trkpt lat="43.7528459" lon="12.1932132"><ele>491.33333333333337</ele><time>2026-04-12T08:00:30.651Z</time></trkpt><trkpt lat="43.7526998" lon="12.1931742"><ele>487.6666666666667</ele><time>2026-04-12T08:00:31.647Z</time></trkpt><trkpt lat="43.7525478" lon="12.1931773"><ele>484.0</ele><time>2026-04-12T08:00:32.623Z</time></trkpt><trkpt lat="43.7523916" lon="12.1931855"><ele>484.0</ele><time>2026-04-12T08:00:33.647Z</time></trkpt><trkpt lat="43.7522439" lon="12.193197"><ele>484.0</ele><time>2026-04-12T08:00:34.645Z</time></trkpt><trkpt lat="43.7520999" lon="12.1932049"><ele>484.0</ele><time>2026-04-12T08:00:35.651Z</time></trkpt><trkpt lat="43.7519646" lon="12.1932031"><ele>484.0</ele><time>2026-04-12T08:00:36.629Z</time></trkpt><trkpt lat="43.7518465" lon="12.1932092"><ele>482.25</ele><time>2026-04-12T08:00:37.623Z</time></trkpt><trkpt lat="43.7517261" lon="12.1932163"><ele>480.5</ele><time>2026-04-12T08:00:38.648Z</time></trkpt><trkpt lat="43.7516035" lon="12.1932324"><ele>478.75</ele><time>2026-04-12T08:00:39.65Z</time></trkpt><trkpt lat="43.7514818" lon="12.1932597"><ele>477.0</ele><time>2026-04-12T08:00:40.642Z</time></trkpt><trkpt lat="43.7513635" lon="12.1932954"><ele>477.0</ele><time>2026-04-12T08:00:41.638Z</time></trkpt><trkpt lat="43.7512484" lon="12.1933353"><ele>477.0</ele><time>2026-04-12T08:00:42.648Z</time></trkpt><trkpt lat="43.7511506" lon="12.1933658"><ele>477.0</ele><time>2026-04-12T08:00:43.64Z</time></trkpt><trkpt lat="43.7509589" lon="12.1933768"><ele>477.0</ele><time>2026-04-12T08:00:45.651Z</time></trkpt><trkpt lat="43.750868" lon="12.1933352"><ele>479.0</ele><time>2026-04-12T08:00:46.635Z</time></trkpt><trkpt lat="43.7507951" lon="12.1932519"><ele>481.0</ele><time>2026-04-12T08:00:47.634Z</time></trkpt><trkpt lat="43.7507408" lon="12.1931634"><ele>483.0</ele><time>2026-04-12T08:00:48.641Z</time></trkpt><trkpt lat="43.7506904" lon="12.19303"><ele>485.0</ele><time>2026-04-12T08:00:50.66Z</time></trkpt><trkpt lat="43.7506441" lon="12.1931234"><ele>487.0</ele><time>2026-04-12T08:00:52.619Z</time></trkpt><trkpt lat="43.7506685" lon="12.1932252"><ele>489.0</ele><time>2026-04-12T08:00:53.636Z</time></trkpt><trkpt lat="43.7507067" lon="12.1933069"><ele>489.0</ele><time>2026-04-12T08:00:54.645Z</time></trkpt><trkpt lat="43.7507889" lon="12.1933821"><ele>489.0</ele><time>2026-04-12T08:00:55.641Z</time></trkpt><trkpt lat="43.7508711" lon="12.1934309"><ele>489.0</ele><time>2026-04-12T08:00:56.634Z</time></trkpt><trkpt lat="43.7509385" lon="12.1935037"><ele>489.0</ele><time>2026-04-12T08:00:57.647Z</time></trkpt><trkpt lat="43.7509513" lon="12.1936303"><ele>489.0</ele><time>2026-04-12T08:00:58.636Z</time></trkpt><trkpt lat="43.7509324" lon="12.1937315"><ele>489.0</ele><time>2026-04-12T08:00:59.649Z</time></trkpt><trkpt lat="43.7508096" lon="12.1938352"><ele>489.0</ele><time>2026-04-12T08:01:01.644Z</time></trkpt><trkpt lat="43.75071" lon="12.1938147"><ele>489.0</ele><time>2026-04-12T08:01:02.706Z</time></trkpt><trkpt lat="43.7506127" lon="12.1937724"><ele>489.0</ele><time>2026-04-12T08:01:03.618Z</time></trkpt><trkpt lat="43.7504967" lon="12.1937134"><ele>489.0</ele><time>2026-04-12T08:01:04.641Z</time></trkpt><trkpt lat="43.7502303" lon="12.1936865"><ele>489.5</ele><time>2026-04-12T08:01:06.648Z</time></trkpt><trkpt lat="43.7500995" lon="12.1937268"><ele>490.0</ele><time>2026-04-12T08:01:07.639Z</time></trkpt><trkpt lat="43.74998" lon="12.1938112"><ele>490.5</ele><time>2026-04-12T08:01:08.631Z</time></trkpt><trkpt lat="43.749844" lon="12.1939155"><ele>491.0</ele><time>2026-04-12T08:01:09.635Z</time></trkpt><trkpt lat="43.7496986" lon="12.1940329"><ele>491.0</ele><time>2026-04-12T08:01:10.656Z</time></trkpt><trkpt lat="43.7495639" lon="12.1941396"><ele>491.0</ele><time>2026-04-12T08:01:11.626Z</time></trkpt><trkpt lat="43.7494324" lon="12.1942349"><ele>491.0</ele><time>2026-04-12T08:01:12.639Z</time></trkpt><trkpt lat="43.7493005" lon="12.1943237"><ele>501.25</ele><time>2026-04-12T08:01:13.642Z</time></trkpt><trkpt lat="43.7491747" lon="12.1944221"><ele>511.5</ele><time>2026-04-12T08:01:14.653Z</time></trkpt><trkpt lat="43.7490479" lon="12.1945219"><ele>521.75</ele><time>2026-04-12T08:01:15.646Z</time></trkpt><trkpt lat="43.7489189" lon="12.1946127"><ele>532.0</ele><time>2026-04-12T08:01:16.637Z</time></trkpt><trkpt lat="43.7487752" lon="12.1946857"><ele>532.0</ele><time>2026-04-12T08:01:17.655Z</time></trkpt><trkpt lat="43.7486319" lon="12.1947495"><ele>532.0</ele><time>2026-04-12T08:01:18.629Z</time></trkpt><trkpt lat="43.7484905" lon="12.1948033"><ele>532.0</ele><time>2026-04-12T08:01:19.635Z</time></trkpt><trkpt lat="43.7483545" lon="12.1948396"><ele>532.0</ele><time>2026-04-12T08:01:20.625Z</time></trkpt><trkpt lat="43.74827" lon="12.1948727"><ele>530.6</ele><time>2026-04-12T08:01:21.635Z</time></trkpt><trkpt lat="43.7481821" lon="12.1949113"><ele>529.2</ele><time>2026-04-12T08:01:22.631Z</time></trkpt><trkpt lat="43.7480952" lon="12.1949397"><ele>527.8</ele><time>2026-04-12T08:01:23.63Z</time></trkpt><trkpt lat="43.7480106" lon="12.1949267"><ele>526.4</ele><time>2026-04-12T08:01:24.635Z</time></trkpt><trkpt lat="43.7479368" lon="12.1948824"><ele>525.0</ele><time>2026-04-12T08:01:25.631Z</time></trkpt><trkpt lat="43.7477976" lon="12.1947983"><ele>534.0</ele><time>2026-04-12T08:01:27.716Z</time></trkpt><trkpt lat="43.747711" lon="12.1947877"><ele>543.0</ele><time>2026-04-12T08:01:28.657Z</time></trkpt><trkpt lat="43.747608" lon="12.1947898"><ele>552.0</ele><time>2026-04-12T08:01:29.643Z</time></trkpt><trkpt lat="43.7474944" lon="12.1948031"><ele>561.0</ele><time>2026-04-12T08:01:30.633Z</time></trkpt><trkpt lat="43.7473856" lon="12.194778"><ele>570.0</ele><time>2026-04-12T08:01:31.644Z</time></trkpt><trkpt lat="43.7472816" lon="12.1947375"><ele>570.0</ele><time>2026-04-12T08:01:32.624Z</time></trkpt><trkpt lat="43.7471807" lon="12.1946832"><ele>570.0</ele><time>2026-04-12T08:01:33.641Z</time></trkpt><trkpt lat="43.7471033" lon="12.1946402"><ele>570.0</ele><time>2026-04-12T08:01:34.654Z</time></trkpt><trkpt lat="43.7470206" lon="12.194578"><ele>570.0</ele><time>2026-04-12T08:01:35.63Z</time></trkpt><trkpt lat="43.7469314" lon="12.1944833"><ele>570.0</ele><time>2026-04-12T08:01:36.633Z</time></trkpt><trkpt lat="43.7468367" lon="12.1943828"><ele>570.75</ele><time>2026-04-12T08:01:37.646Z</time></trkpt><trkpt lat="43.7467412" lon="12.1942746"><ele>571.5</ele><time>2026-04-12T08:01:38.665Z</time></trkpt><trkpt lat="43.7466463" lon="12.1941677"><ele>572.25</ele><time>2026-04-12T08:01:39.628Z</time></trkpt><trkpt lat="43.7465537" lon="12.1940551"><ele>573.0</ele><time>2026-04-12T08:01:40.642Z</time></trkpt><trkpt lat="43.7464601" lon="12.1939448"><ele>573.0</ele><time>2026-04-12T08:01:41.655Z</time></trkpt><trkpt lat="43.7463647" lon="12.1938412"><ele>573.0</ele><time>2026-04-12T08:01:42.641Z</time></trkpt><trkpt lat="43.7462643" lon="12.1937458"><ele>573.0</ele><time>2026-04-12T08:01:43.657Z</time></trkpt><trkpt lat="43.7461532" lon="12.1936653"><ele>573.0</ele><time>2026-04-12T08:01:44.633Z</time></trkpt><trkpt lat="43.746049" lon="12.193613"><ele>569.0</ele><time>2026-04-12T08:01:45.622Z</time></trkpt><trkpt lat="43.7459078" lon="12.1935665"><ele>565.0</ele><time>2026-04-12T08:01:46.641Z</time></trkpt><trkpt lat="43.7456004" lon="12.1935104"><ele>565.0</ele><time>2026-04-12T08:01:48.668Z</time></trkpt><trkpt lat="43.7454606" lon="12.1935075"><ele>565.0</ele><time>2026-04-12T08:01:49.647Z</time></trkpt><trkpt lat="43.7453363" lon="12.1935088"><ele>565.0</ele><time>2026-04-12T08:01:50.635Z</time></trkpt><trkpt lat="43.745221" lon="12.1934991"><ele>565.0</ele><time>2026-04-12T08:01:51.631Z</time></trkpt><trkpt lat="43.7451053" lon="12.1934939"><ele>566.25</ele><time>2026-04-12T08:01:52.656Z</time></trkpt><trkpt lat="43.7449879" lon="12.193494"><ele>567.5</ele><time>2026-04-12T08:01:53.642Z</time></trkpt><trkpt lat="43.7448721" lon="12.1934917"><ele>568.75</ele><time>2026-04-12T08:01:54.624Z</time></trkpt><trkpt lat="43.7447566" lon="12.1934832"><ele>570.0</ele><time>2026-04-12T08:01:55.62Z</time></trkpt><trkpt lat="43.7446404" lon="12.1934745"><ele>570.0</ele><time>2026-04-12T08:01:56.65Z</time></trkpt><trkpt lat="43.7445292" lon="12.1934722"><ele>570.0</ele><time>2026-04-12T08:01:57.657Z</time></trkpt><trkpt lat="43.7444223" lon="12.1934627"><ele>570.0</ele><time>2026-04-12T08:01:58.641Z</time></trkpt><trkpt lat="43.7443148" lon="12.1934382"><ele>570.0</ele><time>2026-04-12T08:01:59.66Z</time></trkpt><trkpt lat="43.7441981" lon="12.1934125"><ele>570.0</ele><time>2026-04-12T08:02:00.636Z</time></trkpt><trkpt lat="43.7440745" lon="12.1933804"><ele>571.0</ele><time>2026-04-12T08:02:01.644Z</time></trkpt><trkpt lat="43.7439461" lon="12.1933415"><ele>572.0</ele><time>2026-04-12T08:02:02.647Z</time></trkpt><trkpt lat="43.7438387" lon="12.193301"><ele>573.0</ele><time>2026-04-12T08:02:03.634Z</time></trkpt><trkpt lat="43.7437429" lon="12.1932686"><ele>574.0</ele><time>2026-04-12T08:02:04.669Z</time></trkpt><trkpt lat="43.7436447" lon="12.1932638"><ele>575.0</ele><time>2026-04-12T08:02:05.637Z</time></trkpt><trkpt lat="43.7435668" lon="12.193299"><ele>579.75</ele><time>2026-04-12T08:02:06.626Z</time></trkpt><trkpt lat="43.7435218" lon="12.1933912"><ele>584.5</ele><time>2026-04-12T08:02:07.635Z</time></trkpt><trkpt lat="43.7434476" lon="12.193637"><ele>589.25</ele><time>2026-04-12T08:02:09.631Z</time></trkpt><trkpt lat="43.7434114" lon="12.1937771"><ele>594.0</ele><time>2026-04-12T08:02:10.679Z</time></trkpt><trkpt lat="43.7433773" lon="12.193921"><ele>591.4</ele><time>2026-04-12T08:02:11.646Z</time></trkpt><trkpt lat="43.7433412" lon="12.1940605"><ele>588.8</ele><time>2026-04-12T08:02:12.632Z</time></trkpt><trkpt lat="43.7432984" lon="12.1942044"><ele>586.2</ele><time>2026-04-12T08:02:13.617Z</time></trkpt><trkpt lat="43.7432553" lon="12.1943396"><ele>583.6</ele><time>2026-04-12T08:02:14.659Z</time></trkpt><trkpt lat="43.7431965" lon="12.1944502"><ele>581.0</ele><time>2026-04-12T08:02:15.641Z</time></trkpt><trkpt lat="43.7431306" lon="12.1945433"><ele>581.0</ele><time>2026-04-12T08:02:16.651Z</time></trkpt><trkpt lat="43.7430437" lon="12.1946178"><ele>581.0</ele><time>2026-04-12T08:02:17.679Z</time></trkpt><trkpt lat="43.7429159" lon="12.1946748"><ele>581.0</ele><time>2026-04-12T08:02:18.642Z</time></trkpt><trkpt lat="43.7427802" lon="12.1947093"><ele>581.0</ele><time>2026-04-12T08:02:19.636Z</time></trkpt><trkpt lat="43.7426288" lon="12.1947377"><ele>583.0</ele><time>2026-04-12T08:02:20.643Z</time></trkpt><trkpt lat="43.7424898" lon="12.1947962"><ele>585.0</ele><time>2026-04-12T08:02:21.646Z</time></trkpt><trkpt lat="43.7423472" lon="12.1948624"><ele>587.0</ele><time>2026-04-12T08:02:22.632Z</time></trkpt><trkpt lat="43.7421943" lon="12.1949348"><ele>587.0</ele><time>2026-04-12T08:02:23.657Z</time></trkpt><trkpt lat="43.7420469" lon="12.1950111"><ele>587.0</ele><time>2026-04-12T08:02:24.631Z</time></trkpt><trkpt lat="43.7419344" lon="12.1950707"><ele>587.0</ele><time>2026-04-12T08:02:25.648Z</time></trkpt><trkpt lat="43.7418369" lon="12.1951288"><ele>587.0</ele><time>2026-04-12T08:02:26.662Z</time></trkpt><trkpt lat="43.7417384" lon="12.1951949"><ele>591.25</ele><time>2026-04-12T08:02:27.643Z</time></trkpt><trkpt lat="43.7416377" lon="12.1952606"><ele>595.5</ele><time>2026-04-12T08:02:28.663Z</time></trkpt><trkpt lat="43.7414546" lon="12.1953697"><ele>599.75</ele><time>2026-04-12T08:02:30.654Z</time></trkpt><trkpt lat="43.7413728" lon="12.1954228"><ele>604.0</ele><time>2026-04-12T08:02:31.64Z</time></trkpt><trkpt lat="43.741301" lon="12.1954596"><ele>604.0</ele><time>2026-04-12T08:02:32.649Z</time></trkpt><trkpt lat="43.7411871" lon="12.1954613"><ele>604.0</ele><time>2026-04-12T08:02:34.654Z</time></trkpt><trkpt lat="43.7411049" lon="12.1953249"><ele>604.0</ele><time>2026-04-12T08:02:36.661Z</time></trkpt><trkpt lat="43.7410783" lon="12.1952069"><ele>604.0</ele><time>2026-04-12T08:02:37.647Z</time></trkpt><trkpt lat="43.7410646" lon="12.1950332"><ele>602.75</ele><time>2026-04-12T08:02:38.664Z</time></trkpt><trkpt lat="43.7410377" lon="12.1948614"><ele>601.5</ele><time>2026-04-12T08:02:39.645Z</time></trkpt><trkpt lat="43.7410078" lon="12.1946962"><ele>600.25</ele><time>2026-04-12T08:02:40.667Z</time></trkpt><trkpt lat="43.7409794" lon="12.1945488"><ele>599.0</ele><time>2026-04-12T08:02:41.641Z</time></trkpt><trkpt lat="43.7409568" lon="12.1944146"><ele>599.0</ele><time>2026-04-12T08:02:42.656Z</time></trkpt><trkpt lat="43.7409426" lon="12.1942756"><ele>599.0</ele><time>2026-04-12T08:02:43.648Z</time></trkpt><trkpt lat="43.7409399" lon="12.1941236"><ele>599.0</ele><time>2026-04-12T08:02:44.644Z</time></trkpt><trkpt lat="43.7409502" lon="12.1939533"><ele>599.0</ele><time>2026-04-12T08:02:45.652Z</time></trkpt><trkpt lat="43.740967" lon="12.1937698"><ele>600.0</ele><time>2026-04-12T08:02:46.653Z</time></trkpt><trkpt lat="43.740984" lon="12.1935881"><ele>601.0</ele><time>2026-04-12T08:02:47.67Z</time></trkpt><trkpt lat="43.7409991" lon="12.1934255"><ele>602.0</ele><time>2026-04-12T08:02:48.655Z</time></trkpt><trkpt lat="43.7410084" lon="12.1932716"><ele>603.0</ele><time>2026-04-12T08:02:49.654Z</time></trkpt><trkpt lat="43.7409914" lon="12.1929371"><ele>605.8</ele><time>2026-04-12T08:02:51.64Z</time></trkpt><trkpt lat="43.740972" lon="12.1927811"><ele>608.5999999999999</ele><time>2026-04-12T08:02:52.661Z</time></trkpt><trkpt lat="43.740942" lon="12.1926449"><ele>611.4000000000001</ele><time>2026-04-12T08:02:53.651Z</time></trkpt><trkpt lat="43.7409011" lon="12.1925419"><ele>614.2</ele><time>2026-04-12T08:02:54.639Z</time></trkpt><trkpt lat="43.7408502" lon="12.1924569"><ele>617.0</ele><time>2026-04-12T08:02:55.651Z</time></trkpt><trkpt lat="43.7407788" lon="12.1923651"><ele>620.5</ele><time>2026-04-12T08:02:56.63Z</time></trkpt><trkpt lat="43.7406982" lon="12.1922777"><ele>624.0</ele><time>2026-04-12T08:02:57.673Z</time></trkpt><trkpt lat="43.7406176" lon="12.1922037"><ele>627.5</ele><time>2026-04-12T08:02:58.655Z</time></trkpt><trkpt lat="43.74055" lon="12.1921537"><ele>631.0</ele><time>2026-04-12T08:02:59.642Z</time></trkpt><trkpt lat="43.7404764" lon="12.1921297"><ele>634.5</ele><time>2026-04-12T08:03:00.635Z</time></trkpt><trkpt lat="43.740409" lon="12.1921452"><ele>638.0</ele><time>2026-04-12T08:03:01.65Z</time></trkpt><trkpt lat="43.7403485" lon="12.1921972"><ele>638.0</ele><time>2026-04-12T08:03:02.641Z</time></trkpt><trkpt lat="43.7402868" lon="12.1922672"><ele>638.0</ele><time>2026-04-12T08:03:03.669Z</time></trkpt><trkpt lat="43.7402174" lon="12.1923587"><ele>638.0</ele><time>2026-04-12T08:03:04.627Z</time></trkpt><trkpt lat="43.7401334" lon="12.1924514"><ele>638.0</ele><time>2026-04-12T08:03:05.632Z</time></trkpt><trkpt lat="43.7400337" lon="12.1925426"><ele>638.0</ele><time>2026-04-12T08:03:06.678Z</time></trkpt><trkpt lat="43.7399238" lon="12.1926263"><ele>632.75</ele><time>2026-04-12T08:03:07.635Z</time></trkpt><trkpt lat="43.7398246" lon="12.1927289"><ele>627.5</ele><time>2026-04-12T08:03:08.67Z</time></trkpt><trkpt lat="43.7397238" lon="12.1928929"><ele>622.25</ele><time>2026-04-12T08:03:09.637Z</time></trkpt><trkpt lat="43.7396192" lon="12.1930197"><ele>617.0</ele><time>2026-04-12T08:03:10.634Z</time></trkpt><trkpt lat="43.7394205" lon="12.1932532"><ele>614.1666666666666</ele><time>2026-04-12T08:03:12.636Z</time></trkpt><trkpt lat="43.7393385" lon="12.1933454"><ele>611.3333333333333</ele><time>2026-04-12T08:03:13.626Z</time></trkpt><trkpt lat="43.7392613" lon="12.1934242"><ele>608.5</ele><time>2026-04-12T08:03:14.64Z</time></trkpt><trkpt lat="43.7391962" lon="12.193472"><ele>605.6666666666666</ele><time>2026-04-12T08:03:15.642Z</time></trkpt><trkpt lat="43.739132" lon="12.1935207"><ele>602.8333333333334</ele><time>2026-04-12T08:03:16.655Z</time></trkpt><trkpt lat="43.7390583" lon="12.193527"><ele>600.0</ele><time>2026-04-12T08:03:17.65Z</time></trkpt><trkpt lat="43.7389805" lon="12.1935125"><ele>600.0</ele><time>2026-04-12T08:03:18.638Z</time></trkpt><trkpt lat="43.7389133" lon="12.1934614"><ele>600.0</ele><time>2026-04-12T08:03:19.674Z</time></trkpt><trkpt lat="43.7388741" lon="12.1933445"><ele>600.0</ele><time>2026-04-12T08:03:20.654Z</time></trkpt><trkpt lat="43.7388588" lon="12.1932255"><ele>600.0</ele><time>2026-04-12T08:03:21.629Z</time></trkpt><trkpt lat="43.7388529" lon="12.1930813"><ele>600.0</ele><time>2026-04-12T08:03:22.666Z</time></trkpt><trkpt lat="43.7388454" lon="12.1929226"><ele>606.5</ele><time>2026-04-12T08:03:23.667Z</time></trkpt><trkpt lat="43.7388222" lon="12.1927552"><ele>613.0</ele><time>2026-04-12T08:03:24.639Z</time></trkpt><trkpt lat="43.7387871" lon="12.1926002"><ele>619.5</ele><time>2026-04-12T08:03:25.654Z</time></trkpt><trkpt lat="43.7387419" lon="12.1924438"><ele>626.0</ele><time>2026-04-12T08:03:26.643Z</time></trkpt><trkpt lat="43.7386948" lon="12.192292"><ele>625.4</ele><time>2026-04-12T08:03:27.641Z</time></trkpt><trkpt lat="43.7386591" lon="12.1921649"><ele>624.8</ele><time>2026-04-12T08:03:28.634Z</time></trkpt><trkpt lat="43.7386289" lon="12.1920532"><ele>624.1999999999999</ele><time>2026-04-12T08:03:29.64Z</time></trkpt><trkpt lat="43.738595" lon="12.1919734"><ele>623.6</ele><time>2026-04-12T08:03:30.624Z</time></trkpt><trkpt lat="43.7384933" lon="12.1919101"><ele>623.0</ele><time>2026-04-12T08:03:32.634Z</time></trkpt><trkpt lat="43.7383849" lon="12.1920457"><ele>623.0</ele><time>2026-04-12T08:03:34.628Z</time></trkpt><trkpt lat="43.7383251" lon="12.192118"><ele>623.0</ele><time>2026-04-12T08:03:35.632Z</time></trkpt><trkpt lat="43.7382212" lon="12.1921552"><ele>623.0</ele><time>2026-04-12T08:03:36.627Z</time></trkpt><trkpt lat="43.7381105" lon="12.1921758"><ele>623.0</ele><time>2026-04-12T08:03:37.642Z</time></trkpt><trkpt lat="43.7380142" lon="12.1921988"><ele>623.0</ele><time>2026-04-12T08:03:38.638Z</time></trkpt><trkpt lat="43.7379177" lon="12.1922163"><ele>623.0</ele><time>2026-04-12T08:03:39.638Z</time></trkpt><trkpt lat="43.737805" lon="12.1922402"><ele>623.0</ele><time>2026-04-12T08:03:40.705Z</time></trkpt><trkpt lat="43.7376791" lon="12.1922697"><ele>623.0</ele><time>2026-04-12T08:03:41.631Z</time></trkpt><trkpt lat="43.7375446" lon="12.1923116"><ele>623.0</ele><time>2026-04-12T08:03:42.646Z</time></trkpt><trkpt lat="43.7374052" lon="12.1923769"><ele>618.3333333333333</ele><time>2026-04-12T08:03:43.634Z</time></trkpt><trkpt lat="43.7372513" lon="12.1924495"><ele>613.6666666666666</ele><time>2026-04-12T08:03:44.64Z</time></trkpt><trkpt lat="43.737088" lon="12.1925199"><ele>609.0</ele><time>2026-04-12T08:03:45.631Z</time></trkpt><trkpt lat="43.7369388" lon="12.1925806"><ele>613.6666666666666</ele><time>2026-04-12T08:03:46.642Z</time></trkpt><trkpt lat="43.7367901" lon="12.1926452"><ele>618.3333333333333</ele><time>2026-04-12T08:03:47.64Z</time></trkpt><trkpt lat="43.7366406" lon="12.192715"><ele>623.0</ele><time>2026-04-12T08:03:48.64Z</time></trkpt><trkpt lat="43.736491" lon="12.1927885"><ele>623.0</ele><time>2026-04-12T08:03:49.65Z</time></trkpt><trkpt lat="43.7363425" lon="12.192859"><ele>623.0</ele><time>2026-04-12T08:03:50.636Z</time></trkpt><trkpt lat="43.7362071" lon="12.192906"><ele>623.0</ele><time>2026-04-12T08:03:51.67Z</time></trkpt><trkpt lat="43.7360941" lon="12.1929438"><ele>623.0</ele><time>2026-04-12T08:03:52.642Z</time></trkpt><trkpt lat="43.7359842" lon="12.192983"><ele>624.0</ele><time>2026-04-12T08:03:53.64Z</time></trkpt><trkpt lat="43.7357437" lon="12.1930941"><ele>625.0</ele><time>2026-04-12T08:03:55.658Z</time></trkpt><trkpt lat="43.735635" lon="12.1931618"><ele>626.0</ele><time>2026-04-12T08:03:56.638Z</time></trkpt><trkpt lat="43.7355388" lon="12.1932123"><ele>626.0</ele><time>2026-04-12T08:03:57.652Z</time></trkpt><trkpt lat="43.7354556" lon="12.1932484"><ele>626.0</ele><time>2026-04-12T08:03:58.657Z</time></trkpt><trkpt lat="43.7353544" lon="12.1931941"><ele>626.0</ele><time>2026-04-12T08:04:00.66Z</time></trkpt><trkpt lat="43.7353394" lon="12.1930435"><ele>626.0</ele><time>2026-04-12T08:04:02.64Z</time></trkpt><trkpt lat="43.7353723" lon="12.1929525"><ele>626.0</ele><time>2026-04-12T08:04:03.645Z</time></trkpt><trkpt lat="43.73541" lon="12.1928348"><ele>629.75</ele><time>2026-04-12T08:04:04.635Z</time></trkpt><trkpt lat="43.7354448" lon="12.1927017"><ele>633.5</ele><time>2026-04-12T08:04:05.651Z</time></trkpt><trkpt lat="43.7354781" lon="12.1925509"><ele>637.25</ele><time>2026-04-12T08:04:06.638Z</time></trkpt><trkpt lat="43.735515" lon="12.1923829"><ele>641.0</ele><time>2026-04-12T08:04:07.634Z</time></trkpt><trkpt lat="43.7355647" lon="12.1922087"><ele>646.75</ele><time>2026-04-12T08:04:08.645Z</time></trkpt><trkpt lat="43.7356268" lon="12.1920486"><ele>652.5</ele><time>2026-04-12T08:04:09.643Z</time></trkpt><trkpt lat="43.7357028" lon="12.1919248"><ele>658.25</ele><time>2026-04-12T08:04:10.631Z</time></trkpt><trkpt lat="43.7357936" lon="12.1918362"><ele>664.0</ele><time>2026-04-12T08:04:11.641Z</time></trkpt><trkpt lat="43.7358773" lon="12.1917708"><ele>664.0</ele><time>2026-04-12T08:04:12.638Z</time></trkpt><trkpt lat="43.7359559" lon="12.1916923"><ele>664.0</ele><time>2026-04-12T08:04:13.63Z</time></trkpt><trkpt lat="43.7360189" lon="12.1916185"><ele>664.0</ele><time>2026-04-12T08:04:14.644Z</time></trkpt><trkpt lat="43.7359381" lon="12.1915635"><ele>664.0</ele><time>2026-04-12T08:04:18.64Z</time></trkpt><trkpt lat="43.7358767" lon="12.1916332"><ele>664.0</ele><time>2026-04-12T08:04:19.639Z</time></trkpt><trkpt lat="43.7357972" lon="12.1917194"><ele>664.0</ele><time>2026-04-12T08:04:20.642Z</time></trkpt><trkpt lat="43.735697" lon="12.1917699"><ele>664.0</ele><time>2026-04-12T08:04:21.635Z</time></trkpt><trkpt lat="43.735583" lon="12.1917941"><ele>664.0</ele><time>2026-04-12T08:04:22.633Z</time></trkpt><trkpt lat="43.7354894" lon="12.1918276"><ele>664.0</ele><time>2026-04-12T08:04:23.626Z</time></trkpt><trkpt lat="43.7354007" lon="12.1918552"><ele>664.0</ele><time>2026-04-12T08:04:24.64Z</time></trkpt><trkpt lat="43.7353252" lon="12.1918705"><ele>664.0</ele><time>2026-04-12T08:04:25.645Z</time></trkpt><trkpt lat="43.7352513" lon="12.1918673"><ele>664.0</ele><time>2026-04-12T08:04:26.628Z</time></trkpt><trkpt lat="43.7351844" lon="12.1918265"><ele>664.0</ele><time>2026-04-12T08:04:27.644Z</time></trkpt><trkpt lat="43.7351227" lon="12.1916952"><ele>664.0</ele><time>2026-04-12T08:04:29.636Z</time></trkpt><trkpt lat="43.7351617" lon="12.1915464"><ele>664.0</ele><time>2026-04-12T08:04:31.635Z</time></trkpt><trkpt lat="43.7352295" lon="12.1914387"><ele>666.6</ele><time>2026-04-12T08:04:33.643Z</time></trkpt><trkpt lat="43.7352616" lon="12.191304"><ele>669.2</ele><time>2026-04-12T08:04:35.633Z</time></trkpt><trkpt lat="43.7352848" lon="12.1911129"><ele>671.8000000000001</ele><time>2026-04-12T08:04:39.666Z</time></trkpt><trkpt lat="43.7353016" lon="12.1910068"><ele>674.4000000000001</ele><time>2026-04-12T08:04:42.671Z</time></trkpt><trkpt lat="43.7353069" lon="12.1908874"><ele>677.0</ele><time>2026-04-12T08:04:45.658Z</time></trkpt><trkpt lat="43.7353083" lon="12.1907744"><ele>677.6666666666666</ele><time>2026-04-12T08:04:47.641Z</time></trkpt><trkpt lat="43.7352991" lon="12.1906417"><ele>678.3333333333333</ele><time>2026-04-12T08:04:49.636Z</time></trkpt><trkpt lat="43.7352755" lon="12.1905118"><ele>679.0</ele><time>2026-04-12T08:04:51.668Z</time></trkpt><trkpt lat="43.7352602" lon="12.1904209"><ele>679.6666666666666</ele><time>2026-04-12T08:04:52.665Z</time></trkpt><trkpt lat="43.7352293" lon="12.1903302"><ele>680.3333333333334</ele><time>2026-04-12T08:04:53.632Z</time></trkpt><trkpt lat="43.7351845" lon="12.1902375"><ele>681.0</ele><time>2026-04-12T08:04:54.647Z</time></trkpt><trkpt lat="43.735128" lon="12.1901552"><ele>681.0</ele><time>2026-04-12T08:04:55.651Z</time></trkpt><trkpt lat="43.7350584" lon="12.1900904"><ele>681.0</ele><time>2026-04-12T08:04:56.638Z</time></trkpt><trkpt lat="43.7348702" lon="12.1899954"><ele>681.0</ele><time>2026-04-12T08:04:58.628Z</time></trkpt><trkpt lat="43.7347626" lon="12.1899648"><ele>681.0</ele><time>2026-04-12T08:04:59.645Z</time></trkpt><trkpt lat="43.7346506" lon="12.1899227"><ele>681.0</ele><time>2026-04-12T08:05:00.727Z</time></trkpt><trkpt lat="43.7345397" lon="12.1898755"><ele>681.0</ele><time>2026-04-12T08:05:01.649Z</time></trkpt><trkpt lat="43.7344401" lon="12.1898366"><ele>681.0</ele><time>2026-04-12T08:05:02.631Z</time></trkpt><trkpt lat="43.7343415" lon="12.1898039"><ele>681.0</ele><time>2026-04-12T08:05:03.669Z</time></trkpt><trkpt lat="43.734238" lon="12.1897734"><ele>681.0</ele><time>2026-04-12T08:05:04.652Z</time></trkpt><trkpt lat="43.7341406" lon="12.189733"><ele>680.3333333333334</ele><time>2026-04-12T08:05:05.654Z</time></trkpt><trkpt lat="43.7340644" lon="12.1896693"><ele>679.6666666666666</ele><time>2026-04-12T08:05:06.655Z</time></trkpt><trkpt lat="43.7340165" lon="12.1895867"><ele>679.0</ele><time>2026-04-12T08:05:07.655Z</time></trkpt><trkpt lat="43.733971" lon="12.1894971"><ele>678.3333333333333</ele><time>2026-04-12T08:05:08.647Z</time></trkpt><trkpt lat="43.733947" lon="12.189401"><ele>677.6666666666666</ele><time>2026-04-12T08:05:09.676Z</time></trkpt><trkpt lat="43.7339258" lon="12.1892838"><ele>677.0</ele><time>2026-04-12T08:05:10.653Z</time></trkpt><trkpt lat="43.7339277" lon="12.1891375"><ele>682.0</ele><time>2026-04-12T08:05:11.634Z</time></trkpt><trkpt lat="43.7339242" lon="12.1890039"><ele>687.0</ele><time>2026-04-12T08:05:12.638Z</time></trkpt><trkpt lat="43.7339084" lon="12.1888783"><ele>692.0</ele><time>2026-04-12T08:05:13.637Z</time></trkpt><trkpt lat="43.7338616" lon="12.1887882"><ele>697.0</ele><time>2026-04-12T08:05:14.669Z</time></trkpt><trkpt lat="43.7337912" lon="12.1887121"><ele>702.0</ele><time>2026-04-12T08:05:15.639Z</time></trkpt><trkpt lat="43.7336994" lon="12.1886435"><ele>702.0</ele><time>2026-04-12T08:05:16.641Z</time></trkpt><trkpt lat="43.7335922" lon="12.1885772"><ele>702.0</ele><time>2026-04-12T08:05:17.637Z</time></trkpt><trkpt lat="43.733355" lon="12.188492"><ele>702.0</ele><time>2026-04-12T08:05:19.65Z</time></trkpt><trkpt lat="43.7332385" lon="12.188473"><ele>697.4000000000001</ele><time>2026-04-12T08:05:20.635Z</time></trkpt><trkpt lat="43.7331172" lon="12.1884443"><ele>692.8000000000001</ele><time>2026-04-12T08:05:21.644Z</time></trkpt><trkpt lat="43.7329995" lon="12.1884045"><ele>688.2</ele><time>2026-04-12T08:05:22.697Z</time></trkpt><trkpt lat="43.7329068" lon="12.1883536"><ele>683.6</ele><time>2026-04-12T08:05:23.709Z</time></trkpt><trkpt lat="43.7328102" lon="12.1883021"><ele>679.0</ele><time>2026-04-12T08:05:24.651Z</time></trkpt><trkpt lat="43.7327096" lon="12.1882831"><ele>678.6</ele><time>2026-04-12T08:05:25.645Z</time></trkpt><trkpt lat="43.7325971" lon="12.1882998"><ele>678.2</ele><time>2026-04-12T08:05:26.651Z</time></trkpt><trkpt lat="43.7324853" lon="12.1883511"><ele>677.8000000000001</ele><time>2026-04-12T08:05:27.625Z</time></trkpt><trkpt lat="43.7323843" lon="12.1883997"><ele>677.4000000000001</ele><time>2026-04-12T08:05:28.637Z</time></trkpt><trkpt lat="43.7322897" lon="12.1884201"><ele>677.0</ele><time>2026-04-12T08:05:29.633Z</time></trkpt><trkpt lat="43.7322086" lon="12.1883953"><ele>677.0</ele><time>2026-04-12T08:05:30.632Z</time></trkpt><trkpt lat="43.7321452" lon="12.1883179"><ele>677.0</ele><time>2026-04-12T08:05:31.644Z</time></trkpt><trkpt lat="43.7320671" lon="12.1882213"><ele>677.0</ele><time>2026-04-12T08:05:32.645Z</time></trkpt><trkpt lat="43.7319849" lon="12.1881075"><ele>677.0</ele><time>2026-04-12T08:05:33.644Z</time></trkpt><trkpt lat="43.7319196" lon="12.1879806"><ele>677.0</ele><time>2026-04-12T08:05:34.641Z</time></trkpt><trkpt lat="43.7318574" lon="12.1878568"><ele>675.0</ele><time>2026-04-12T08:05:35.653Z</time></trkpt><trkpt lat="43.7318127" lon="12.1877322"><ele>673.0</ele><time>2026-04-12T08:05:36.64Z</time></trkpt><trkpt lat="43.7318064" lon="12.1876061"><ele>671.0</ele><time>2026-04-12T08:05:37.645Z</time></trkpt><trkpt lat="43.7318193" lon="12.1874665"><ele>669.0</ele><time>2026-04-12T08:05:38.678Z</time></trkpt><trkpt lat="43.7318538" lon="12.1872228"><ele>675.75</ele><time>2026-04-12T08:05:40.638Z</time></trkpt><trkpt lat="43.7318973" lon="12.1870844"><ele>682.5</ele><time>2026-04-12T08:05:41.645Z</time></trkpt><trkpt lat="43.7319414" lon="12.1869352"><ele>689.25</ele><time>2026-04-12T08:05:42.644Z</time></trkpt><trkpt lat="43.7319892" lon="12.1867874"><ele>696.0</ele><time>2026-04-12T08:05:43.634Z</time></trkpt><trkpt lat="43.7320484" lon="12.1866469"><ele>691.75</ele><time>2026-04-12T08:05:44.641Z</time></trkpt><trkpt lat="43.7321173" lon="12.1865074"><ele>687.5</ele><time>2026-04-12T08:05:45.644Z</time></trkpt><trkpt lat="43.7321831" lon="12.1863604"><ele>683.25</ele><time>2026-04-12T08:05:46.644Z</time></trkpt><trkpt lat="43.7322418" lon="12.1862225"><ele>679.0</ele><time>2026-04-12T08:05:47.671Z</time></trkpt><trkpt lat="43.7322906" lon="12.1861032"><ele>679.0</ele><time>2026-04-12T08:05:48.632Z</time></trkpt><trkpt lat="43.7323467" lon="12.1859931"><ele>679.0</ele><time>2026-04-12T08:05:49.648Z</time></trkpt><trkpt lat="43.732405" lon="12.1859023"><ele>679.0</ele><time>2026-04-12T08:05:50.631Z</time></trkpt><trkpt lat="43.7324857" lon="12.1857995"><ele>679.0</ele><time>2026-04-12T08:05:51.658Z</time></trkpt><trkpt lat="43.7325639" lon="12.1856979"><ele>679.0</ele><time>2026-04-12T08:05:52.629Z</time></trkpt><trkpt lat="43.7326231" lon="12.1855867"><ele>681.75</ele><time>2026-04-12T08:05:53.631Z</time></trkpt><trkpt lat="43.7326686" lon="12.1854443"><ele>684.5</ele><time>2026-04-12T08:05:54.65Z</time></trkpt><trkpt lat="43.732715" lon="12.1852964"><ele>687.25</ele><time>2026-04-12T08:05:55.633Z</time></trkpt><trkpt lat="43.7327676" lon="12.1851503"><ele>690.0</ele><time>2026-04-12T08:05:56.648Z</time></trkpt><trkpt lat="43.732819" lon="12.1850207"><ele>690.0</ele><time>2026-04-12T08:05:57.664Z</time></trkpt><trkpt lat="43.7328711" lon="12.1849039"><ele>690.0</ele><time>2026-04-12T08:05:58.664Z</time></trkpt><trkpt lat="43.7329253" lon="12.1847907"><ele>690.0</ele><time>2026-04-12T08:05:59.639Z</time></trkpt><trkpt lat="43.73305" lon="12.1845803"><ele>690.0</ele><time>2026-04-12T08:06:01.655Z</time></trkpt><trkpt lat="43.7331106" lon="12.1844776"><ele>685.0</ele><time>2026-04-12T08:06:02.644Z</time></trkpt><trkpt lat="43.7331763" lon="12.1843876"><ele>680.0</ele><time>2026-04-12T08:06:03.666Z</time></trkpt><trkpt lat="43.7332522" lon="12.1842936"><ele>675.0</ele><time>2026-04-12T08:06:04.718Z</time></trkpt><trkpt lat="43.7333373" lon="12.1842007"><ele>670.0</ele><time>2026-04-12T08:06:05.713Z</time></trkpt><trkpt lat="43.7334214" lon="12.184103"><ele>665.0</ele><time>2026-04-12T08:06:06.732Z</time></trkpt><trkpt lat="43.7334855" lon="12.1840205"><ele>667.8</ele><time>2026-04-12T08:06:07.634Z</time></trkpt><trkpt lat="43.7335551" lon="12.1839429"><ele>670.6</ele><time>2026-04-12T08:06:08.654Z</time></trkpt><trkpt lat="43.7336131" lon="12.1838564"><ele>673.4000000000001</ele><time>2026-04-12T08:06:09.633Z</time></trkpt><trkpt lat="43.7336563" lon="12.1837545"><ele>676.2</ele><time>2026-04-12T08:06:10.646Z</time></trkpt><trkpt lat="43.7336757" lon="12.1836259"><ele>679.0</ele><time>2026-04-12T08:06:11.628Z</time></trkpt><trkpt lat="43.7336789" lon="12.1834886"><ele>679.0</ele><time>2026-04-12T08:06:12.637Z</time></trkpt><trkpt lat="43.7336819" lon="12.1833455"><ele>679.0</ele><time>2026-04-12T08:06:13.64Z</time></trkpt><trkpt lat="43.7336935" lon="12.1832158"><ele>679.0</ele><time>2026-04-12T08:06:14.635Z</time></trkpt><trkpt lat="43.73372" lon="12.1830904"><ele>679.0</ele><time>2026-04-12T08:06:15.644Z</time></trkpt><trkpt lat="43.7337513" lon="12.1829502"><ele>679.0</ele><time>2026-04-12T08:06:16.649Z</time></trkpt><trkpt lat="43.7337736" lon="12.1827845"><ele>676.5</ele><time>2026-04-12T08:06:17.653Z</time></trkpt><trkpt lat="43.7337936" lon="12.1826101"><ele>674.0</ele><time>2026-04-12T08:06:18.651Z</time></trkpt><trkpt lat="43.7338258" lon="12.1824342"><ele>671.5</ele><time>2026-04-12T08:06:19.63Z</time></trkpt><trkpt lat="43.7338583" lon="12.1822722"><ele>669.0</ele><time>2026-04-12T08:06:20.645Z</time></trkpt><trkpt lat="43.733906" lon="12.1820001"><ele>667.5</ele><time>2026-04-12T08:06:22.646Z</time></trkpt><trkpt lat="43.73391" lon="12.1818949"><ele>666.0</ele><time>2026-04-12T08:06:23.625Z</time></trkpt><trkpt lat="43.7339171" lon="12.1817899"><ele>664.5</ele><time>2026-04-12T08:06:24.637Z</time></trkpt><trkpt lat="43.7339318" lon="12.1816775"><ele>663.0</ele><time>2026-04-12T08:06:25.64Z</time></trkpt><trkpt lat="43.7339625" lon="12.181554"><ele>661.5</ele><time>2026-04-12T08:06:26.631Z</time></trkpt><trkpt lat="43.734003" lon="12.181421"><ele>660.0</ele><time>2026-04-12T08:06:27.638Z</time></trkpt><trkpt lat="43.7340461" lon="12.1812936"><ele>657.0</ele><time>2026-04-12T08:06:28.645Z</time></trkpt><trkpt lat="43.7340926" lon="12.1811771"><ele>654.0</ele><time>2026-04-12T08:06:29.728Z</time></trkpt><trkpt lat="43.7341515" lon="12.18107"><ele>651.0</ele><time>2026-04-12T08:06:30.655Z</time></trkpt><trkpt lat="43.7342245" lon="12.180972"><ele>648.0</ele><time>2026-04-12T08:06:31.654Z</time></trkpt><trkpt lat="43.7342873" lon="12.1808815"><ele>645.0</ele><time>2026-04-12T08:06:32.645Z</time></trkpt><trkpt lat="43.7343358" lon="12.1807941"><ele>645.0</ele><time>2026-04-12T08:06:33.653Z</time></trkpt><trkpt lat="43.7343532" lon="12.1807008"><ele>645.0</ele><time>2026-04-12T08:06:34.647Z</time></trkpt><trkpt lat="43.7343462" lon="12.1805954"><ele>645.0</ele><time>2026-04-12T08:06:35.646Z</time></trkpt><trkpt lat="43.7343281" lon="12.1804951"><ele>645.0</ele><time>2026-04-12T08:06:36.637Z</time></trkpt><trkpt lat="43.7342988" lon="12.1804053"><ele>645.0</ele><time>2026-04-12T08:06:37.637Z</time></trkpt><trkpt lat="43.7342745" lon="12.1803056"><ele>645.0</ele><time>2026-04-12T08:06:38.639Z</time></trkpt><trkpt lat="43.7342696" lon="12.1801939"><ele>645.0</ele><time>2026-04-12T08:06:39.637Z</time></trkpt><trkpt lat="43.7342739" lon="12.1800872"><ele>644.25</ele><time>2026-04-12T08:06:40.641Z</time></trkpt><trkpt lat="43.7342921" lon="12.1799708"><ele>643.5</ele><time>2026-04-12T08:06:41.727Z</time></trkpt><trkpt lat="43.7343718" lon="12.1797323"><ele>642.75</ele><time>2026-04-12T08:06:43.661Z</time></trkpt><trkpt lat="43.734403" lon="12.179608"><ele>642.0</ele><time>2026-04-12T08:06:44.646Z</time></trkpt><trkpt lat="43.7344244" lon="12.1794909"><ele>642.0</ele><time>2026-04-12T08:06:45.643Z</time></trkpt><trkpt lat="43.734445" lon="12.1793796"><ele>642.0</ele><time>2026-04-12T08:06:46.643Z</time></trkpt><trkpt lat="43.7344651" lon="12.1792717"><ele>642.0</ele><time>2026-04-12T08:06:47.637Z</time></trkpt><trkpt lat="43.7344763" lon="12.1791691"><ele>642.0</ele><time>2026-04-12T08:06:48.642Z</time></trkpt><trkpt lat="43.7344825" lon="12.1790725"><ele>642.0</ele><time>2026-04-12T08:06:49.643Z</time></trkpt><trkpt lat="43.734492" lon="12.1789849"><ele>642.0</ele><time>2026-04-12T08:06:50.641Z</time></trkpt><trkpt lat="43.7345502" lon="12.1788462"><ele>639.5</ele><time>2026-04-12T08:06:52.62Z</time></trkpt><trkpt lat="43.7346035" lon="12.1787682"><ele>637.0</ele><time>2026-04-12T08:06:53.632Z</time></trkpt><trkpt lat="43.7346646" lon="12.1786698"><ele>634.5</ele><time>2026-04-12T08:06:54.65Z</time></trkpt><trkpt lat="43.7347167" lon="12.1785596"><ele>632.0</ele><time>2026-04-12T08:06:55.637Z</time></trkpt><trkpt lat="43.7347612" lon="12.1784461"><ele>629.5</ele><time>2026-04-12T08:06:56.636Z</time></trkpt><trkpt lat="43.7348004" lon="12.1783579"><ele>627.0</ele><time>2026-04-12T08:06:57.639Z</time></trkpt><trkpt lat="43.7348557" lon="12.178303"><ele>627.0</ele><time>2026-04-12T08:06:58.646Z</time></trkpt><trkpt lat="43.734938" lon="12.1782524"><ele>627.0</ele><time>2026-04-12T08:06:59.637Z</time></trkpt><trkpt lat="43.7350336" lon="12.1782207"><ele>627.0</ele><time>2026-04-12T08:07:00.7Z</time></trkpt><trkpt lat="43.7351131" lon="12.1781731"><ele>627.0</ele><time>2026-04-12T08:07:01.64Z</time></trkpt><trkpt lat="43.7351689" lon="12.1781074"><ele>627.0</ele><time>2026-04-12T08:07:02.632Z</time></trkpt><trkpt lat="43.7351961" lon="12.1779072"><ele>628.0</ele><time>2026-04-12T08:07:04.635Z</time></trkpt><trkpt lat="43.7351845" lon="12.1778059"><ele>629.0</ele><time>2026-04-12T08:07:05.632Z</time></trkpt><trkpt lat="43.7351526" lon="12.1777098"><ele>630.0</ele><time>2026-04-12T08:07:06.62Z</time></trkpt><trkpt lat="43.7350986" lon="12.1776336"><ele>631.0</ele><time>2026-04-12T08:07:07.638Z</time></trkpt><trkpt lat="43.7350192" lon="12.1775741"><ele>632.0</ele><time>2026-04-12T08:07:08.633Z</time></trkpt><trkpt lat="43.7349172" lon="12.1775264"><ele>633.0</ele><time>2026-04-12T08:07:09.643Z</time></trkpt><trkpt lat="43.7348121" lon="12.177501"><ele>633.0</ele><time>2026-04-12T08:07:10.642Z</time></trkpt><trkpt lat="43.7347221" lon="12.1774882"><ele>633.0</ele><time>2026-04-12T08:07:11.71Z</time></trkpt><trkpt lat="43.7346522" lon="12.1774285"><ele>633.0</ele><time>2026-04-12T08:07:12.63Z</time></trkpt><trkpt lat="43.7345819" lon="12.1773326"><ele>633.0</ele><time>2026-04-12T08:07:13.659Z</time></trkpt><trkpt lat="43.7345098" lon="12.1771786"><ele>633.0</ele><time>2026-04-12T08:07:14.636Z</time></trkpt><trkpt lat="43.7344198" lon="12.1770057"><ele>632.5</ele><time>2026-04-12T08:07:15.729Z</time></trkpt><trkpt lat="43.7343128" lon="12.1768547"><ele>632.0</ele><time>2026-04-12T08:07:16.639Z</time></trkpt><trkpt lat="43.7342204" lon="12.176717"><ele>631.5</ele><time>2026-04-12T08:07:17.64Z</time></trkpt><trkpt lat="43.7341203" lon="12.1766084"><ele>631.0</ele><time>2026-04-12T08:07:18.63Z</time></trkpt><trkpt lat="43.7340164" lon="12.1765285"><ele>631.6</ele><time>2026-04-12T08:07:19.629Z</time></trkpt><trkpt lat="43.7339098" lon="12.1764653"><ele>632.2</ele><time>2026-04-12T08:07:20.64Z</time></trkpt><trkpt lat="43.7338225" lon="12.1764036"><ele>632.8</ele><time>2026-04-12T08:07:21.645Z</time></trkpt><trkpt lat="43.7337601" lon="12.1763123"><ele>633.4</ele><time>2026-04-12T08:07:22.636Z</time></trkpt><trkpt lat="43.7337201" lon="12.1761617"><ele>634.0</ele><time>2026-04-12T08:07:24.636Z</time></trkpt><trkpt lat="43.7339444" lon="12.1760088"><ele>634.0</ele><time>2026-04-12T08:07:28.634Z</time></trkpt><trkpt lat="43.7340403" lon="12.1759441"><ele>634.0</ele><time>2026-04-12T08:07:30.633Z</time></trkpt><trkpt lat="43.7341186" lon="12.1758659"><ele>634.0</ele><time>2026-04-12T08:07:32.644Z</time></trkpt><trkpt lat="43.7341848" lon="12.1757741"><ele>634.0</ele><time>2026-04-12T08:07:34.665Z</time></trkpt><trkpt lat="43.7342163" lon="12.1756902"><ele>634.0</ele><time>2026-04-12T08:07:36.637Z</time></trkpt><trkpt lat="43.7342592" lon="12.1755967"><ele>634.0</ele><time>2026-04-12T08:08:46.633Z</time></trkpt><trkpt lat="43.7343521" lon="12.1753965"><ele>636.2</ele><time>2026-04-12T08:08:49.632Z</time></trkpt><trkpt lat="43.7344109" lon="12.1752916"><ele>638.4</ele><time>2026-04-12T08:08:51.638Z</time></trkpt><trkpt lat="43.7344771" lon="12.1751988"><ele>640.6</ele><time>2026-04-12T08:08:53.645Z</time></trkpt><trkpt lat="43.7344989" lon="12.175106"><ele>642.8</ele><time>2026-04-12T08:08:54.657Z</time></trkpt><trkpt lat="43.7345049" lon="12.1749553"><ele>645.0</ele><time>2026-04-12T08:08:56.64Z</time></trkpt><trkpt lat="43.7344265" lon="12.1747057"><ele>646.4</ele><time>2026-04-12T08:08:59.665Z</time></trkpt><trkpt lat="43.734403" lon="12.1745963"><ele>647.8</ele><time>2026-04-12T08:09:00.662Z</time></trkpt><trkpt lat="43.7344384" lon="12.1744473"><ele>649.2</ele><time>2026-04-12T08:09:02.635Z</time></trkpt><trkpt lat="43.7345012" lon="12.1744174"><ele>650.6</ele><time>2026-04-12T08:09:03.727Z</time></trkpt><trkpt lat="43.7345713" lon="12.1744011"><ele>652.0</ele><time>2026-04-12T08:09:04.649Z</time></trkpt><trkpt lat="43.7346803" lon="12.1742944"><ele>652.0</ele><time>2026-04-12T08:09:06.662Z</time></trkpt><trkpt lat="43.7347013" lon="12.1741559"><ele>652.0</ele><time>2026-04-12T08:09:07.654Z</time></trkpt><trkpt lat="43.734667" lon="12.1738695"><ele>652.0</ele><time>2026-04-12T08:09:09.641Z</time></trkpt><trkpt lat="43.7346128" lon="12.1737396"><ele>652.0</ele><time>2026-04-12T08:09:10.661Z</time></trkpt><trkpt lat="43.7345379" lon="12.1736127"><ele>653.0</ele><time>2026-04-12T08:09:11.633Z</time></trkpt><trkpt lat="43.7344561" lon="12.1735241"><ele>654.0</ele><time>2026-04-12T08:09:12.653Z</time></trkpt><trkpt lat="43.7343831" lon="12.1734344"><ele>655.0</ele><time>2026-04-12T08:09:13.65Z</time></trkpt><trkpt lat="43.7343435" lon="12.1733484"><ele>656.0</ele><time>2026-04-12T08:09:14.646Z</time></trkpt><trkpt lat="43.7343501" lon="12.1732388"><ele>657.0</ele><time>2026-04-12T08:09:15.641Z</time></trkpt><trkpt lat="43.7344036" lon="12.1731686"><ele>658.0</ele><time>2026-04-12T08:09:16.658Z</time></trkpt><trkpt lat="43.7344866" lon="12.1731117"><ele>658.3333333333334</ele><time>2026-04-12T08:09:17.757Z</time></trkpt><trkpt lat="43.7346916" lon="12.1730143"><ele>658.6666666666666</ele><time>2026-04-12T08:09:19.657Z</time></trkpt><trkpt lat="43.7348085" lon="12.1729235"><ele>659.0</ele><time>2026-04-12T08:09:20.654Z</time></trkpt><trkpt lat="43.734926" lon="12.1728247"><ele>659.0</ele><time>2026-04-12T08:09:21.654Z</time></trkpt><trkpt lat="43.7350276" lon="12.1726993"><ele>659.0</ele><time>2026-04-12T08:09:22.64Z</time></trkpt><trkpt lat="43.7351173" lon="12.1725581"><ele>659.0</ele><time>2026-04-12T08:09:23.642Z</time></trkpt><trkpt lat="43.7352058" lon="12.1724079"><ele>659.0</ele><time>2026-04-12T08:09:24.63Z</time></trkpt><trkpt lat="43.7352987" lon="12.1722637"><ele>662.75</ele><time>2026-04-12T08:09:25.634Z</time></trkpt><trkpt lat="43.7353855" lon="12.1721406"><ele>666.5</ele><time>2026-04-12T08:09:26.64Z</time></trkpt><trkpt lat="43.7354552" lon="12.1720293"><ele>670.25</ele><time>2026-04-12T08:09:27.642Z</time></trkpt><trkpt lat="43.7355024" lon="12.1719196"><ele>674.0</ele><time>2026-04-12T08:09:28.64Z</time></trkpt><trkpt lat="43.7354694" lon="12.1717334"><ele>674.0</ele><time>2026-04-12T08:09:30.669Z</time></trkpt><trkpt lat="43.7353865" lon="12.1716927"><ele>674.0</ele><time>2026-04-12T08:09:31.638Z</time></trkpt><trkpt lat="43.7352688" lon="12.1716441"><ele>674.0</ele><time>2026-04-12T08:09:32.665Z</time></trkpt><trkpt lat="43.7351358" lon="12.1716391"><ele>674.0</ele><time>2026-04-12T08:09:33.626Z</time></trkpt><trkpt lat="43.7350029" lon="12.1716734"><ele>673.25</ele><time>2026-04-12T08:09:34.654Z</time></trkpt><trkpt lat="43.7348716" lon="12.1717035"><ele>672.5</ele><time>2026-04-12T08:09:35.673Z</time></trkpt><trkpt lat="43.7347318" lon="12.1716932"><ele>671.75</ele><time>2026-04-12T08:09:36.652Z</time></trkpt><trkpt lat="43.7345874" lon="12.1716561"><ele>671.0</ele><time>2026-04-12T08:09:37.656Z</time></trkpt><trkpt lat="43.734463" lon="12.1715862"><ele>673.25</ele><time>2026-04-12T08:09:38.651Z</time></trkpt><trkpt lat="43.7343496" lon="12.1714981"><ele>675.5</ele><time>2026-04-12T08:09:39.654Z</time></trkpt><trkpt lat="43.7342689" lon="12.171381"><ele>677.75</ele><time>2026-04-12T08:09:40.659Z</time></trkpt><trkpt lat="43.7342376" lon="12.1712268"><ele>680.0</ele><time>2026-04-12T08:09:41.638Z</time></trkpt><trkpt lat="43.7342296" lon="12.1710679"><ele>680.0</ele><time>2026-04-12T08:09:42.647Z</time></trkpt><trkpt lat="43.7342363" lon="12.1709039"><ele>680.0</ele><time>2026-04-12T08:09:43.644Z</time></trkpt><trkpt lat="43.7342108" lon="12.170744"><ele>680.0</ele><time>2026-04-12T08:09:44.638Z</time></trkpt><trkpt lat="43.7341417" lon="12.1706261"><ele>680.0</ele><time>2026-04-12T08:09:45.644Z</time></trkpt><trkpt lat="43.7340483" lon="12.1705289"><ele>682.6666666666666</ele><time>2026-04-12T08:09:46.634Z</time></trkpt><trkpt lat="43.733939" lon="12.1704317"><ele>685.3333333333334</ele><time>2026-04-12T08:09:47.74Z</time></trkpt><trkpt lat="43.7337593" lon="12.1702307"><ele>688.0</ele><time>2026-04-12T08:09:49.639Z</time></trkpt><trkpt lat="43.733711" lon="12.1699844"><ele>689.0</ele><time>2026-04-12T08:09:51.75Z</time></trkpt><trkpt lat="43.7338484" lon="12.1697672"><ele>690.0</ele><time>2026-04-12T08:09:53.669Z</time></trkpt><trkpt lat="43.733967" lon="12.1696786"><ele>691.0</ele><time>2026-04-12T08:09:54.638Z</time></trkpt><trkpt lat="43.7340821" lon="12.1695883"><ele>691.0</ele><time>2026-04-12T08:09:55.651Z</time></trkpt><trkpt lat="43.7342023" lon="12.1694941"><ele>691.0</ele><time>2026-04-12T08:09:56.655Z</time></trkpt><trkpt lat="43.7343185" lon="12.1694087"><ele>691.0</ele><time>2026-04-12T08:09:57.644Z</time></trkpt><trkpt lat="43.7344339" lon="12.1693203"><ele>691.0</ele><time>2026-04-12T08:09:58.658Z</time></trkpt><trkpt lat="43.7345505" lon="12.1692196"><ele>693.5999999999999</ele><time>2026-04-12T08:09:59.641Z</time></trkpt><trkpt lat="43.7346492" lon="12.1691275"><ele>696.2</ele><time>2026-04-12T08:10:00.641Z</time></trkpt><trkpt lat="43.7347371" lon="12.1690111"><ele>698.8</ele><time>2026-04-12T08:10:01.647Z</time></trkpt><trkpt lat="43.7348064" lon="12.1688966"><ele>701.4000000000001</ele><time>2026-04-12T08:10:02.655Z</time></trkpt><trkpt lat="43.7348794" lon="12.1688018"><ele>704.0</ele><time>2026-04-12T08:10:03.64Z</time></trkpt><trkpt lat="43.7349684" lon="12.1687321"><ele>705.2</ele><time>2026-04-12T08:10:04.633Z</time></trkpt><trkpt lat="43.7350667" lon="12.1686817"><ele>706.4000000000001</ele><time>2026-04-12T08:10:05.644Z</time></trkpt><trkpt lat="43.7351624" lon="12.1686432"><ele>707.6</ele><time>2026-04-12T08:10:06.636Z</time></trkpt><trkpt lat="43.7352442" lon="12.1685724"><ele>708.8</ele><time>2026-04-12T08:10:07.649Z</time></trkpt><trkpt lat="43.7353077" lon="12.1684698"><ele>710.0</ele><time>2026-04-12T08:10:08.637Z</time></trkpt><trkpt lat="43.7353599" lon="12.1683262"><ele>709.75</ele><time>2026-04-12T08:10:09.644Z</time></trkpt><trkpt lat="43.735411" lon="12.1681728"><ele>709.5</ele><time>2026-04-12T08:10:10.645Z</time></trkpt><trkpt lat="43.7355191" lon="12.1679004"><ele>709.25</ele><time>2026-04-12T08:10:12.647Z</time></trkpt><trkpt lat="43.7355856" lon="12.1678096"><ele>709.0</ele><time>2026-04-12T08:10:13.658Z</time></trkpt><trkpt lat="43.7356816" lon="12.1677729"><ele>709.0</ele><time>2026-04-12T08:10:14.652Z</time></trkpt><trkpt lat="43.7357756" lon="12.1677932"><ele>709.0</ele><time>2026-04-12T08:10:15.658Z</time></trkpt><trkpt lat="43.7358617" lon="12.1678564"><ele>709.0</ele><time>2026-04-12T08:10:16.663Z</time></trkpt><trkpt lat="43.7359274" lon="12.1679836"><ele>709.0</ele><time>2026-04-12T08:10:17.636Z</time></trkpt><trkpt lat="43.7359312" lon="12.1681097"><ele>709.0</ele><time>2026-04-12T08:10:18.654Z</time></trkpt><trkpt lat="43.7359305" lon="12.1682389"><ele>711.25</ele><time>2026-04-12T08:10:19.639Z</time></trkpt><trkpt lat="43.7359247" lon="12.1683934"><ele>713.5</ele><time>2026-04-12T08:10:20.645Z</time></trkpt><trkpt lat="43.7359584" lon="12.1685449"><ele>715.75</ele><time>2026-04-12T08:10:21.746Z</time></trkpt><trkpt lat="43.7360273" lon="12.1686713"><ele>718.0</ele><time>2026-04-12T08:10:22.652Z</time></trkpt><trkpt lat="43.7361384" lon="12.1687511"><ele>721.0</ele><time>2026-04-12T08:10:23.695Z</time></trkpt><trkpt lat="43.7362668" lon="12.1687941"><ele>724.0</ele><time>2026-04-12T08:10:24.716Z</time></trkpt><trkpt lat="43.7363915" lon="12.1688191"><ele>727.0</ele><time>2026-04-12T08:10:25.631Z</time></trkpt><trkpt lat="43.7365136" lon="12.1688559"><ele>730.0</ele><time>2026-04-12T08:10:26.636Z</time></trkpt><trkpt lat="43.7366393" lon="12.1688779"><ele>730.0</ele><time>2026-04-12T08:10:27.64Z</time></trkpt><trkpt lat="43.7367718" lon="12.1688826"><ele>730.0</ele><time>2026-04-12T08:10:28.655Z</time></trkpt><trkpt lat="43.7369161" lon="12.1688652"><ele>730.0</ele><time>2026-04-12T08:10:29.642Z</time></trkpt><trkpt lat="43.7370655" lon="12.1688267"><ele>730.0</ele><time>2026-04-12T08:10:30.648Z</time></trkpt><trkpt lat="43.7372168" lon="12.1687781"><ele>728.5</ele><time>2026-04-12T08:10:31.647Z</time></trkpt><trkpt lat="43.7375254" lon="12.1686477"><ele>727.0</ele><time>2026-04-12T08:10:33.645Z</time></trkpt><trkpt lat="43.737674" lon="12.1685797"><ele>727.25</ele><time>2026-04-12T08:10:34.653Z</time></trkpt><trkpt lat="43.7378209" lon="12.1685081"><ele>727.5</ele><time>2026-04-12T08:10:35.737Z</time></trkpt><trkpt lat="43.7379615" lon="12.1684614"><ele>727.75</ele><time>2026-04-12T08:10:36.656Z</time></trkpt><trkpt lat="43.7381056" lon="12.1684598"><ele>728.0</ele><time>2026-04-12T08:10:37.671Z</time></trkpt><trkpt lat="43.7382591" lon="12.1685328"><ele>728.0</ele><time>2026-04-12T08:10:38.656Z</time></trkpt><trkpt lat="43.7384098" lon="12.1686258"><ele>728.0</ele><time>2026-04-12T08:10:39.641Z</time></trkpt><trkpt lat="43.7385654" lon="12.1687044"><ele>728.0</ele><time>2026-04-12T08:10:40.687Z</time></trkpt><trkpt lat="43.7387262" lon="12.1687788"><ele>732.3333333333333</ele><time>2026-04-12T08:10:41.66Z</time></trkpt><trkpt lat="43.7388831" lon="12.1688788"><ele>736.6666666666666</ele><time>2026-04-12T08:10:42.667Z</time></trkpt><trkpt lat="43.7390469" lon="12.1689722"><ele>741.0</ele><time>2026-04-12T08:10:43.656Z</time></trkpt><trkpt lat="43.7392148" lon="12.1690677"><ele>742.0</ele><time>2026-04-12T08:10:44.646Z</time></trkpt><trkpt lat="43.7393699" lon="12.1691799"><ele>743.0</ele><time>2026-04-12T08:10:45.652Z</time></trkpt><trkpt lat="43.739526" lon="12.1692835"><ele>744.0</ele><time>2026-04-12T08:10:46.727Z</time></trkpt><trkpt lat="43.7396739" lon="12.1693772"><ele>748.3333333333334</ele><time>2026-04-12T08:10:47.742Z</time></trkpt><trkpt lat="43.7399434" lon="12.1695296"><ele>752.6666666666667</ele><time>2026-04-12T08:10:49.666Z</time></trkpt><trkpt lat="43.7400788" lon="12.1695627"><ele>757.0</ele><time>2026-04-12T08:10:50.643Z</time></trkpt><trkpt lat="43.740212" lon="12.1695513"><ele>760.0</ele><time>2026-04-12T08:10:51.638Z</time></trkpt><trkpt lat="43.7403376" lon="12.1694856"><ele>763.0</ele><time>2026-04-12T08:10:52.641Z</time></trkpt><trkpt lat="43.7405396" lon="12.169241"><ele>766.0</ele><time>2026-04-12T08:10:54.653Z</time></trkpt><trkpt lat="43.7406365" lon="12.1691068"><ele>766.0</ele><time>2026-04-12T08:10:55.664Z</time></trkpt><trkpt lat="43.7407426" lon="12.1689787"><ele>766.0</ele><time>2026-04-12T08:10:56.629Z</time></trkpt><trkpt lat="43.7408511" lon="12.1688474"><ele>766.0</ele><time>2026-04-12T08:10:57.651Z</time></trkpt><trkpt lat="43.7409525" lon="12.1687323"><ele>766.0</ele><time>2026-04-12T08:10:58.646Z</time></trkpt><trkpt lat="43.7410687" lon="12.16859"><ele>767.25</ele><time>2026-04-12T08:10:59.644Z</time></trkpt><trkpt lat="43.7411822" lon="12.1684533"><ele>768.5</ele><time>2026-04-12T08:11:00.644Z</time></trkpt><trkpt lat="43.7412946" lon="12.1683126"><ele>769.75</ele><time>2026-04-12T08:11:01.648Z</time></trkpt><trkpt lat="43.7413995" lon="12.1681896"><ele>771.0</ele><time>2026-04-12T08:11:02.667Z</time></trkpt><trkpt lat="43.7415119" lon="12.1680987"><ele>771.0</ele><time>2026-04-12T08:11:03.637Z</time></trkpt><trkpt lat="43.7416398" lon="12.1680388"><ele>771.0</ele><time>2026-04-12T08:11:04.658Z</time></trkpt><trkpt lat="43.7417863" lon="12.1680128"><ele>771.0</ele><time>2026-04-12T08:11:05.635Z</time></trkpt><trkpt lat="43.7419243" lon="12.167999"><ele>771.0</ele><time>2026-04-12T08:11:06.65Z</time></trkpt><trkpt lat="43.7420487" lon="12.1679648"><ele>774.5</ele><time>2026-04-12T08:11:07.647Z</time></trkpt><trkpt lat="43.7421608" lon="12.1678539"><ele>778.0</ele><time>2026-04-12T08:11:08.665Z</time></trkpt><trkpt lat="43.7422622" lon="12.1677121"><ele>781.5</ele><time>2026-04-12T08:11:09.638Z</time></trkpt><trkpt lat="43.7423581" lon="12.1675663"><ele>785.0</ele><time>2026-04-12T08:11:10.659Z</time></trkpt><trkpt lat="43.7424512" lon="12.1674179"><ele>784.0</ele><time>2026-04-12T08:11:11.658Z</time></trkpt><trkpt lat="43.742547" lon="12.1672751"><ele>783.0</ele><time>2026-04-12T08:11:12.638Z</time></trkpt><trkpt lat="43.7426494" lon="12.1671297"><ele>782.0</ele><time>2026-04-12T08:11:13.656Z</time></trkpt><trkpt lat="43.7428724" lon="12.1668284"><ele>786.3333333333334</ele><time>2026-04-12T08:11:15.667Z</time></trkpt><trkpt lat="43.7429858" lon="12.1666738"><ele>790.6666666666667</ele><time>2026-04-12T08:11:16.643Z</time></trkpt><trkpt lat="43.7430985" lon="12.1665101"><ele>795.0</ele><time>2026-04-12T08:11:17.621Z</time></trkpt><trkpt lat="43.7432078" lon="12.1663471"><ele>795.0</ele><time>2026-04-12T08:11:18.637Z</time></trkpt><trkpt lat="43.7433194" lon="12.1661896"><ele>795.0</ele><time>2026-04-12T08:11:19.636Z</time></trkpt><trkpt lat="43.7434271" lon="12.1660505"><ele>795.0</ele><time>2026-04-12T08:11:20.67Z</time></trkpt><trkpt lat="43.743516" lon="12.1659265"><ele>795.0</ele><time>2026-04-12T08:11:21.641Z</time></trkpt><trkpt lat="43.7435937" lon="12.1657795"><ele>801.25</ele><time>2026-04-12T08:11:22.663Z</time></trkpt><trkpt lat="43.7436493" lon="12.1655961"><ele>807.5</ele><time>2026-04-12T08:11:23.645Z</time></trkpt><trkpt lat="43.743665" lon="12.1653989"><ele>813.75</ele><time>2026-04-12T08:11:24.633Z</time></trkpt><trkpt lat="43.7436355" lon="12.1651964"><ele>820.0</ele><time>2026-04-12T08:11:25.618Z</time></trkpt><trkpt lat="43.7435866" lon="12.1649991"><ele>814.25</ele><time>2026-04-12T08:11:26.645Z</time></trkpt><trkpt lat="43.7435388" lon="12.1648149"><ele>808.5</ele><time>2026-04-12T08:11:27.641Z</time></trkpt><trkpt lat="43.743506" lon="12.1646479"><ele>802.75</ele><time>2026-04-12T08:11:28.633Z</time></trkpt><trkpt lat="43.7434921" lon="12.1644905"><ele>797.0</ele><time>2026-04-12T08:11:29.637Z</time></trkpt><trkpt lat="43.7435021" lon="12.1643491"><ele>797.0</ele><time>2026-04-12T08:11:30.691Z</time></trkpt><trkpt lat="43.7435396" lon="12.1642023"><ele>797.0</ele><time>2026-04-12T08:11:31.631Z</time></trkpt><trkpt lat="43.7435992" lon="12.1640899"><ele>797.0</ele><time>2026-04-12T08:11:32.624Z</time></trkpt><trkpt lat="43.7436736" lon="12.1640123"><ele>797.0</ele><time>2026-04-12T08:11:33.654Z</time></trkpt><trkpt lat="43.7437855" lon="12.1639054"><ele>797.0</ele><time>2026-04-12T08:11:34.635Z</time></trkpt><trkpt lat="43.7440278" lon="12.1636207"><ele>802.6666666666667</ele><time>2026-04-12T08:11:36.629Z</time></trkpt><trkpt lat="43.7441553" lon="12.1634755"><ele>808.3333333333333</ele><time>2026-04-12T08:11:37.635Z</time></trkpt><trkpt lat="43.7442689" lon="12.1633222"><ele>814.0</ele><time>2026-04-12T08:11:38.663Z</time></trkpt><trkpt lat="43.7443686" lon="12.1631699"><ele>818.0</ele><time>2026-04-12T08:11:39.644Z</time></trkpt><trkpt lat="43.7444599" lon="12.163"><ele>822.0</ele><time>2026-04-12T08:11:40.655Z</time></trkpt><trkpt lat="43.7445461" lon="12.1628372"><ele>826.0</ele><time>2026-04-12T08:11:41.724Z</time></trkpt><trkpt lat="43.7446093" lon="12.1626787"><ele>830.0</ele><time>2026-04-12T08:11:42.634Z</time></trkpt><trkpt lat="43.7446462" lon="12.1625074"><ele>830.25</ele><time>2026-04-12T08:11:43.629Z</time></trkpt><trkpt lat="43.7446455" lon="12.1623297"><ele>830.5</ele><time>2026-04-12T08:11:44.636Z</time></trkpt><trkpt lat="43.7446184" lon="12.1621357"><ele>830.75</ele><time>2026-04-12T08:11:45.627Z</time></trkpt><trkpt lat="43.7445883" lon="12.1619216"><ele>831.0</ele><time>2026-04-12T08:11:46.634Z</time></trkpt><trkpt lat="43.7445545" lon="12.1617037"><ele>832.3333333333333</ele><time>2026-04-12T08:11:47.636Z</time></trkpt><trkpt lat="43.744537" lon="12.1614746"><ele>833.6666666666666</ele><time>2026-04-12T08:11:48.653Z</time></trkpt><trkpt lat="43.7445246" lon="12.16126"><ele>835.0</ele><time>2026-04-12T08:11:49.712Z</time></trkpt><trkpt lat="43.7444997" lon="12.1610461"><ele>835.0</ele><time>2026-04-12T08:11:50.635Z</time></trkpt><trkpt lat="43.7444552" lon="12.1608208"><ele>835.0</ele><time>2026-04-12T08:11:51.669Z</time></trkpt><trkpt lat="43.7444041" lon="12.1606116"><ele>835.0</ele><time>2026-04-12T08:11:52.644Z</time></trkpt><trkpt lat="43.7443518" lon="12.1604131"><ele>836.6666666666666</ele><time>2026-04-12T08:11:53.678Z</time></trkpt><trkpt lat="43.7442884" lon="12.1602458"><ele>838.3333333333333</ele><time>2026-04-12T08:11:54.642Z</time></trkpt><trkpt lat="43.744207" lon="12.1600988"><ele>840.0</ele><time>2026-04-12T08:11:55.659Z</time></trkpt><trkpt lat="43.7439586" lon="12.1599866"><ele>840.0</ele><time>2026-04-12T08:11:57.641Z</time></trkpt><trkpt lat="43.7438036" lon="12.1599826"><ele>840.0</ele><time>2026-04-12T08:11:58.654Z</time></trkpt><trkpt lat="43.7436415" lon="12.1599815"><ele>840.0</ele><time>2026-04-12T08:11:59.652Z</time></trkpt><trkpt lat="43.7434849" lon="12.1600105"><ele>841.6666666666667</ele><time>2026-04-12T08:12:00.657Z</time></trkpt><trkpt lat="43.7433257" lon="12.1600796"><ele>843.3333333333334</ele><time>2026-04-12T08:12:01.649Z</time></trkpt><trkpt lat="43.7431697" lon="12.1601625"><ele>845.0</ele><time>2026-04-12T08:12:02.742Z</time></trkpt><trkpt lat="43.7428534" lon="12.1603428"><ele>849.3333333333334</ele><time>2026-04-12T08:12:04.649Z</time></trkpt><trkpt lat="43.7426854" lon="12.1604336"><ele>853.6666666666667</ele><time>2026-04-12T08:12:05.631Z</time></trkpt><trkpt lat="43.7425145" lon="12.1605112"><ele>858.0</ele><time>2026-04-12T08:12:06.645Z</time></trkpt><trkpt lat="43.7423401" lon="12.1605822"><ele>858.0</ele><time>2026-04-12T08:12:07.634Z</time></trkpt><trkpt lat="43.7421638" lon="12.1606457"><ele>858.0</ele><time>2026-04-12T08:12:08.645Z</time></trkpt><trkpt lat="43.7419936" lon="12.1607001"><ele>858.0</ele><time>2026-04-12T08:12:09.637Z</time></trkpt><trkpt lat="43.7418429" lon="12.1607487"><ele>855.75</ele><time>2026-04-12T08:12:10.656Z</time></trkpt><trkpt lat="43.741711" lon="12.1607918"><ele>853.5</ele><time>2026-04-12T08:12:11.646Z</time></trkpt><trkpt lat="43.741586" lon="12.160811"><ele>851.25</ele><time>2026-04-12T08:12:12.702Z</time></trkpt><trkpt lat="43.7414618" lon="12.1607988"><ele>849.0</ele><time>2026-04-12T08:12:13.652Z</time></trkpt><trkpt lat="43.7413223" lon="12.1607536"><ele>849.0</ele><time>2026-04-12T08:12:14.649Z</time></trkpt><trkpt lat="43.7411589" lon="12.1607075"><ele>849.0</ele><time>2026-04-12T08:12:15.648Z</time></trkpt><trkpt lat="43.7409988" lon="12.1606519"><ele>849.0</ele><time>2026-04-12T08:12:16.64Z</time></trkpt><trkpt lat="43.7406762" lon="12.1605765"><ele>854.3333333333333</ele><time>2026-04-12T08:12:18.65Z</time></trkpt><trkpt lat="43.7405058" lon="12.1605587"><ele>859.6666666666666</ele><time>2026-04-12T08:12:19.652Z</time></trkpt><trkpt lat="43.7403262" lon="12.1605446"><ele>865.0</ele><time>2026-04-12T08:12:20.662Z</time></trkpt><trkpt lat="43.7401245" lon="12.1605257"><ele>865.0</ele><time>2026-04-12T08:12:21.639Z</time></trkpt><trkpt lat="43.7399098" lon="12.1604965"><ele>865.0</ele><time>2026-04-12T08:12:22.648Z</time></trkpt><trkpt lat="43.7396971" lon="12.1604655"><ele>865.0</ele><time>2026-04-12T08:12:23.642Z</time></trkpt><trkpt lat="43.7394876" lon="12.1604374"><ele>868.0</ele><time>2026-04-12T08:12:24.641Z</time></trkpt><trkpt lat="43.7392932" lon="12.1604102"><ele>871.0</ele><time>2026-04-12T08:12:25.628Z</time></trkpt><trkpt lat="43.739111" lon="12.1603844"><ele>874.0</ele><time>2026-04-12T08:12:26.643Z</time></trkpt><trkpt lat="43.738923" lon="12.1603614"><ele>874.0</ele><time>2026-04-12T08:12:27.661Z</time></trkpt><trkpt lat="43.7387285" lon="12.1603438"><ele>874.0</ele><time>2026-04-12T08:12:28.648Z</time></trkpt><trkpt lat="43.738529" lon="12.1603158"><ele>874.0</ele><time>2026-04-12T08:12:29.641Z</time></trkpt><trkpt lat="43.7383271" lon="12.1602811"><ele>876.0</ele><time>2026-04-12T08:12:30.683Z</time></trkpt><trkpt lat="43.7381209" lon="12.160249"><ele>878.0</ele><time>2026-04-12T08:12:31.64Z</time></trkpt><trkpt lat="43.7379138" lon="12.1602194"><ele>880.0</ele><time>2026-04-12T08:12:32.652Z</time></trkpt><trkpt lat="43.737705" lon="12.1601915"><ele>880.3333333333333</ele><time>2026-04-12T08:12:33.738Z</time></trkpt><trkpt lat="43.7374911" lon="12.1601542"><ele>880.6666666666667</ele><time>2026-04-12T08:12:34.651Z</time></trkpt><trkpt lat="43.7372842" lon="12.1601149"><ele>881.0</ele><time>2026-04-12T08:12:35.654Z</time></trkpt><trkpt lat="43.7370904" lon="12.1600789"><ele>881.0</ele><time>2026-04-12T08:12:36.64Z</time></trkpt><trkpt lat="43.7368909" lon="12.1600409"><ele>881.0</ele><time>2026-04-12T08:12:37.748Z</time></trkpt><trkpt lat="43.736308" lon="12.1598584"><ele>893.6666666666667</ele><time>2026-04-12T08:12:40.64Z</time></trkpt><trkpt lat="43.7361081" lon="12.1598103"><ele>906.3333333333333</ele><time>2026-04-12T08:12:41.644Z</time></trkpt><trkpt lat="43.7359035" lon="12.1597786"><ele>919.0</ele><time>2026-04-12T08:12:42.658Z</time></trkpt><trkpt lat="43.7357064" lon="12.1597392"><ele>920.0</ele><time>2026-04-12T08:12:43.651Z</time></trkpt><trkpt lat="43.735534" lon="12.1597051"><ele>921.0</ele><time>2026-04-12T08:12:44.645Z</time></trkpt><trkpt lat="43.7353988" lon="12.1596828"><ele>922.0</ele><time>2026-04-12T08:12:45.643Z</time></trkpt><trkpt lat="43.7352945" lon="12.1596675"><ele>923.0</ele><time>2026-04-12T08:12:46.646Z</time></trkpt><trkpt lat="43.7352034" lon="12.1596377"><ele>916.5999999999999</ele><time>2026-04-12T08:12:47.636Z</time></trkpt><trkpt lat="43.7351272" lon="12.1595804"><ele>910.1999999999999</ele><time>2026-04-12T08:12:48.644Z</time></trkpt><trkpt lat="43.7350882" lon="12.1594683"><ele>903.8</ele><time>2026-04-12T08:12:49.67Z</time></trkpt><trkpt lat="43.7350704" lon="12.1593464"><ele>897.4</ele><time>2026-04-12T08:12:50.644Z</time></trkpt><trkpt lat="43.7350699" lon="12.1591965"><ele>891.0</ele><time>2026-04-12T08:12:51.677Z</time></trkpt><trkpt lat="43.7350793" lon="12.1590423"><ele>893.6666666666667</ele><time>2026-04-12T08:12:52.649Z</time></trkpt><trkpt lat="43.7350956" lon="12.1588664"><ele>896.3333333333334</ele><time>2026-04-12T08:12:53.664Z</time></trkpt><trkpt lat="43.7351232" lon="12.1586505"><ele>899.0</ele><time>2026-04-12T08:12:54.628Z</time></trkpt><trkpt lat="43.7351676" lon="12.1583868"><ele>898.0</ele><time>2026-04-12T08:12:55.629Z</time></trkpt><trkpt lat="43.7352198" lon="12.1580913"><ele>897.0</ele><time>2026-04-12T08:12:56.665Z</time></trkpt><trkpt lat="43.7352685" lon="12.1578069"><ele>896.0</ele><time>2026-04-12T08:12:57.637Z</time></trkpt><trkpt lat="43.7352973" lon="12.1575553"><ele>929.0</ele><time>2026-04-12T08:12:58.656Z</time></trkpt><trkpt lat="43.735271" lon="12.1571058"><ele>962.0</ele><time>2026-04-12T08:13:00.633Z</time></trkpt><trkpt lat="43.7352263" lon="12.1568394"><ele>952.3333333333334</ele><time>2026-04-12T08:13:01.662Z</time></trkpt><trkpt lat="43.7351817" lon="12.1566005"><ele>942.6666666666667</ele><time>2026-04-12T08:13:02.619Z</time></trkpt><trkpt lat="43.735133" lon="12.1563882"><ele>933.0</ele><time>2026-04-12T08:13:03.651Z</time></trkpt><trkpt lat="43.7350912" lon="12.1562119"><ele>933.0</ele><time>2026-04-12T08:13:04.65Z</time></trkpt><trkpt lat="43.7350323" lon="12.1560665"><ele>933.0</ele><time>2026-04-12T08:13:05.669Z</time></trkpt><trkpt lat="43.7349736" lon="12.1559983"><ele>933.0</ele><time>2026-04-12T08:13:06.626Z</time></trkpt><trkpt lat="43.7348077" lon="12.1560215"><ele>933.0</ele><time>2026-04-12T08:13:08.697Z</time></trkpt><trkpt lat="43.7346666" lon="12.1560514"><ele>933.0</ele><time>2026-04-12T08:13:09.618Z</time></trkpt><trkpt lat="43.7345036" lon="12.1561068"><ele>933.0</ele><time>2026-04-12T08:13:10.629Z</time></trkpt><trkpt lat="43.7343522" lon="12.1561563"><ele>933.0</ele><time>2026-04-12T08:13:11.629Z</time></trkpt><trkpt lat="43.7342149" lon="12.1561712"><ele>929.75</ele><time>2026-04-12T08:13:12.637Z</time></trkpt><trkpt lat="43.7340769" lon="12.1561432"><ele>926.5</ele><time>2026-04-12T08:13:13.639Z</time></trkpt><trkpt lat="43.7339689" lon="12.1560791"><ele>923.25</ele><time>2026-04-12T08:13:14.637Z</time></trkpt><trkpt lat="43.733843" lon="12.1559777"><ele>920.0</ele><time>2026-04-12T08:13:15.63Z</time></trkpt><trkpt lat="43.7336863" lon="12.1558927"><ele>917.0</ele><time>2026-04-12T08:13:16.627Z</time></trkpt><trkpt lat="43.7335288" lon="12.1558511"><ele>914.0</ele><time>2026-04-12T08:13:17.64Z</time></trkpt><trkpt lat="43.7333746" lon="12.155847"><ele>911.0</ele><time>2026-04-12T08:13:18.634Z</time></trkpt><trkpt lat="43.7332218" lon="12.155887"><ele>911.0</ele><time>2026-04-12T08:13:19.719Z</time></trkpt><trkpt lat="43.7329865" lon="12.1559525"><ele>911.0</ele><time>2026-04-12T08:13:21.698Z</time></trkpt><trkpt lat="43.7328946" lon="12.1559617"><ele>911.0</ele><time>2026-04-12T08:13:22.636Z</time></trkpt><trkpt lat="43.732805" lon="12.1559315"><ele>911.0</ele><time>2026-04-12T08:13:23.634Z</time></trkpt><trkpt lat="43.7327307" lon="12.1558397"><ele>908.1999999999999</ele><time>2026-04-12T08:13:24.636Z</time></trkpt><trkpt lat="43.7326871" lon="12.1557174"><ele>905.3999999999999</ele><time>2026-04-12T08:13:25.642Z</time></trkpt><trkpt lat="43.7326676" lon="12.1555626"><ele>902.6</ele><time>2026-04-12T08:13:26.627Z</time></trkpt><trkpt lat="43.7326589" lon="12.1554065"><ele>899.8</ele><time>2026-04-12T08:13:27.642Z</time></trkpt><trkpt lat="43.7326682" lon="12.1552535"><ele>897.0</ele><time>2026-04-12T08:13:28.646Z</time></trkpt><trkpt lat="43.7326864" lon="12.1550893"><ele>897.0</ele><time>2026-04-12T08:13:29.647Z</time></trkpt><trkpt lat="43.7327202" lon="12.1549346"><ele>897.0</ele><time>2026-04-12T08:13:30.651Z</time></trkpt><trkpt lat="43.7327403" lon="12.1547882"><ele>897.0</ele><time>2026-04-12T08:13:31.639Z</time></trkpt><trkpt lat="43.7327349" lon="12.1546415"><ele>897.0</ele><time>2026-04-12T08:13:32.647Z</time></trkpt><trkpt lat="43.7327066" lon="12.1544795"><ele>897.0</ele><time>2026-04-12T08:13:33.644Z</time></trkpt><trkpt lat="43.73266" lon="12.15431"><ele>897.0</ele><time>2026-04-12T08:13:34.644Z</time></trkpt><trkpt lat="43.7326007" lon="12.1541732"><ele>897.0</ele><time>2026-04-12T08:13:35.635Z</time></trkpt><trkpt lat="43.7325562" lon="12.1540169"><ele>897.0</ele><time>2026-04-12T08:13:36.67Z</time></trkpt><trkpt lat="43.7325129" lon="12.1538749"><ele>897.0</ele><time>2026-04-12T08:13:37.64Z</time></trkpt><trkpt lat="43.7324888" lon="12.1537426"><ele>897.0</ele><time>2026-04-12T08:13:38.624Z</time></trkpt><trkpt lat="43.732486" lon="12.1536086"><ele>897.0</ele><time>2026-04-12T08:13:39.627Z</time></trkpt><trkpt lat="43.7324986" lon="12.1534771"><ele>897.0</ele><time>2026-04-12T08:13:40.645Z</time></trkpt><trkpt lat="43.7325751" lon="12.1532369"><ele>896.4000000000001</ele><time>2026-04-12T08:13:42.634Z</time></trkpt><trkpt lat="43.7326331" lon="12.1531247"><ele>895.8000000000001</ele><time>2026-04-12T08:13:43.643Z</time></trkpt><trkpt lat="43.7327049" lon="12.15303"><ele>895.2</ele><time>2026-04-12T08:13:44.632Z</time></trkpt><trkpt lat="43.7327757" lon="12.1529444"><ele>894.6</ele><time>2026-04-12T08:13:45.717Z</time></trkpt><trkpt lat="43.7328328" lon="12.1528548"><ele>894.0</ele><time>2026-04-12T08:13:46.652Z</time></trkpt><trkpt lat="43.7328697" lon="12.1527592"><ele>894.0</ele><time>2026-04-12T08:13:47.638Z</time></trkpt><trkpt lat="43.7328862" lon="12.1526679"><ele>894.0</ele><time>2026-04-12T08:13:48.639Z</time></trkpt><trkpt lat="43.7328244" lon="12.1525305"><ele>894.0</ele><time>2026-04-12T08:13:50.638Z</time></trkpt><trkpt lat="43.732755" lon="12.1525384"><ele>894.0</ele><time>2026-04-12T08:13:51.645Z</time></trkpt><trkpt lat="43.7326932" lon="12.1525872"><ele>894.0</ele><time>2026-04-12T08:13:52.669Z</time></trkpt><trkpt lat="43.7326282" lon="12.1526589"><ele>894.0</ele><time>2026-04-12T08:13:53.638Z</time></trkpt><trkpt lat="43.7325642" lon="12.1527289"><ele>894.0</ele><time>2026-04-12T08:13:54.635Z</time></trkpt><trkpt lat="43.7325053" lon="12.1527854"><ele>894.0000000000001</ele><time>2026-04-12T08:13:55.629Z</time></trkpt><trkpt lat="43.7324523" lon="12.1528362"><ele>894.0000000000001</ele><time>2026-04-12T08:13:56.626Z</time></trkpt><trkpt lat="43.7323733" lon="12.1528899"><ele>894.0</ele><time>2026-04-12T08:13:58.637Z</time></trkpt><trkpt lat="43.7323437" lon="12.1528019"><ele>894.0</ele><time>2026-04-12T08:14:01.66Z</time></trkpt><trkpt lat="43.7324929" lon="12.152669"><ele>894.0</ele><time>2026-04-12T08:14:05.627Z</time></trkpt><trkpt lat="43.732592" lon="12.1525519"><ele>894.0000000000001</ele><time>2026-04-12T08:14:07.638Z</time></trkpt><trkpt lat="43.7326409" lon="12.1524594"><ele>894.0000000000001</ele><time>2026-04-12T08:14:08.681Z</time></trkpt><trkpt lat="43.7326985" lon="12.1523342"><ele>894.0</ele><time>2026-04-12T08:14:09.669Z</time></trkpt><trkpt lat="43.7327601" lon="12.1521993"><ele>894.0</ele><time>2026-04-12T08:14:10.659Z</time></trkpt><trkpt lat="43.7328207" lon="12.1520603"><ele>901.25</ele><time>2026-04-12T08:14:11.641Z</time></trkpt><trkpt lat="43.7328796" lon="12.1518935"><ele>908.5</ele><time>2026-04-12T08:14:12.666Z</time></trkpt><trkpt lat="43.7329412" lon="12.1517241"><ele>915.75</ele><time>2026-04-12T08:14:13.641Z</time></trkpt><trkpt lat="43.7329959" lon="12.1515495"><ele>923.0</ele><time>2026-04-12T08:14:14.787Z</time></trkpt><trkpt lat="43.7330755" lon="12.1512485"><ele>923.0</ele><time>2026-04-12T08:14:16.65Z</time></trkpt><trkpt lat="43.7330963" lon="12.1511121"><ele>923.0</ele><time>2026-04-12T08:14:17.654Z</time></trkpt><trkpt lat="43.7330924" lon="12.1509627"><ele>923.0</ele><time>2026-04-12T08:14:18.642Z</time></trkpt><trkpt lat="43.7330665" lon="12.150817"><ele>923.0</ele><time>2026-04-12T08:14:19.65Z</time></trkpt><trkpt lat="43.7330106" lon="12.1506518"><ele>923.0</ele><time>2026-04-12T08:14:20.647Z</time></trkpt><trkpt lat="43.7329476" lon="12.1504731"><ele>920.6666666666667</ele><time>2026-04-12T08:14:21.643Z</time></trkpt><trkpt lat="43.7328961" lon="12.1503144"><ele>918.3333333333333</ele><time>2026-04-12T08:14:22.673Z</time></trkpt><trkpt lat="43.7328146" lon="12.1499857"><ele>916.0</ele><time>2026-04-12T08:14:24.66Z</time></trkpt><trkpt lat="43.7327984" lon="12.1498592"><ele>909.3333333333333</ele><time>2026-04-12T08:14:25.778Z</time></trkpt><trkpt lat="43.7328354" lon="12.1496244"><ele>902.6666666666667</ele><time>2026-04-12T08:14:27.655Z</time></trkpt><trkpt lat="43.7328932" lon="12.1495548"><ele>896.0</ele><time>2026-04-12T08:14:28.786Z</time></trkpt><trkpt lat="43.7330936" lon="12.1494581"><ele>896.0</ele><time>2026-04-12T08:14:30.662Z</time></trkpt><trkpt lat="43.7332327" lon="12.1494375"><ele>896.0</ele><time>2026-04-12T08:14:31.639Z</time></trkpt><trkpt lat="43.7333736" lon="12.1494332"><ele>896.0</ele><time>2026-04-12T08:14:32.641Z</time></trkpt><trkpt lat="43.7335093" lon="12.1494294"><ele>896.0</ele><time>2026-04-12T08:14:33.664Z</time></trkpt><trkpt lat="43.7336394" lon="12.1494349"><ele>901.5000000000001</ele><time>2026-04-12T08:14:34.638Z</time></trkpt><trkpt lat="43.7337205" lon="12.1493962"><ele>907.0</ele><time>2026-04-12T08:14:35.658Z</time></trkpt><trkpt lat="43.7337815" lon="12.1493283"><ele>912.5</ele><time>2026-04-12T08:14:36.642Z</time></trkpt><trkpt lat="43.7338113" lon="12.149223"><ele>918.0</ele><time>2026-04-12T08:14:37.652Z</time></trkpt><trkpt lat="43.7338094" lon="12.1491081"><ele>923.5000000000001</ele><time>2026-04-12T08:14:38.632Z</time></trkpt><trkpt lat="43.7337792" lon="12.1489697"><ele>929.0</ele><time>2026-04-12T08:14:39.644Z</time></trkpt><trkpt lat="43.7337394" lon="12.1488115"><ele>929.25</ele><time>2026-04-12T08:14:40.663Z</time></trkpt><trkpt lat="43.7336945" lon="12.1486254"><ele>929.5</ele><time>2026-04-12T08:14:41.635Z</time></trkpt><trkpt lat="43.7336554" lon="12.1484211"><ele>929.75</ele><time>2026-04-12T08:14:42.652Z</time></trkpt><trkpt lat="43.7336239" lon="12.1482423"><ele>930.0</ele><time>2026-04-12T08:14:43.644Z</time></trkpt><trkpt lat="43.7335816" lon="12.1479323"><ele>927.6</ele><time>2026-04-12T08:14:45.641Z</time></trkpt><trkpt lat="43.7335623" lon="12.1477786"><ele>925.2</ele><time>2026-04-12T08:14:46.625Z</time></trkpt><trkpt lat="43.7335489" lon="12.1476312"><ele>922.8</ele><time>2026-04-12T08:14:47.643Z</time></trkpt><trkpt lat="43.7335529" lon="12.1474978"><ele>920.4</ele><time>2026-04-12T08:14:48.665Z</time></trkpt><trkpt lat="43.733578" lon="12.147379"><ele>918.0</ele><time>2026-04-12T08:14:49.642Z</time></trkpt><trkpt lat="43.7336259" lon="12.147277"><ele>911.5</ele><time>2026-04-12T08:14:50.68Z</time></trkpt><trkpt lat="43.7337204" lon="12.1472247"><ele>905.0</ele><time>2026-04-12T08:14:51.625Z</time></trkpt><trkpt lat="43.733832" lon="12.1471815"><ele>898.5</ele><time>2026-04-12T08:14:52.638Z</time></trkpt><trkpt lat="43.7339638" lon="12.1471316"><ele>892.0</ele><time>2026-04-12T08:14:53.641Z</time></trkpt><trkpt lat="43.7341152" lon="12.1470828"><ele>892.0</ele><time>2026-04-12T08:14:54.651Z</time></trkpt><trkpt lat="43.734269" lon="12.1470678"><ele>892.0</ele><time>2026-04-12T08:14:55.666Z</time></trkpt><trkpt lat="43.7343925" lon="12.1470662"><ele>892.0</ele><time>2026-04-12T08:14:56.642Z</time></trkpt><trkpt lat="43.7344883" lon="12.1470825"><ele>892.0</ele><time>2026-04-12T08:14:57.639Z</time></trkpt><trkpt lat="43.734576" lon="12.1471363"><ele>895.0</ele><time>2026-04-12T08:14:58.646Z</time></trkpt><trkpt lat="43.7346573" lon="12.1472283"><ele>898.0</ele><time>2026-04-12T08:14:59.647Z</time></trkpt><trkpt lat="43.7347548" lon="12.14736"><ele>901.0</ele><time>2026-04-12T08:15:00.648Z</time></trkpt><trkpt lat="43.7348768" lon="12.1474897"><ele>904.0</ele><time>2026-04-12T08:15:01.638Z</time></trkpt><trkpt lat="43.7349937" lon="12.1476058"><ele>904.0</ele><time>2026-04-12T08:15:02.633Z</time></trkpt><trkpt lat="43.7351078" lon="12.1476959"><ele>904.0</ele><time>2026-04-12T08:15:03.664Z</time></trkpt><trkpt lat="43.7352209" lon="12.1477696"><ele>904.0</ele><time>2026-04-12T08:15:04.638Z</time></trkpt><trkpt lat="43.7354376" lon="12.1478532"><ele>904.6666666666666</ele><time>2026-04-12T08:15:06.646Z</time></trkpt><trkpt lat="43.7355412" lon="12.1478565"><ele>905.3333333333333</ele><time>2026-04-12T08:15:07.648Z</time></trkpt><trkpt lat="43.7356386" lon="12.1478297"><ele>906.0</ele><time>2026-04-12T08:15:08.647Z</time></trkpt><trkpt lat="43.7357204" lon="12.1477882"><ele>906.6666666666667</ele><time>2026-04-12T08:15:09.639Z</time></trkpt><trkpt lat="43.7357798" lon="12.1477193"><ele>907.3333333333334</ele><time>2026-04-12T08:15:10.629Z</time></trkpt><trkpt lat="43.7358186" lon="12.14762"><ele>908.0</ele><time>2026-04-12T08:15:11.626Z</time></trkpt><trkpt lat="43.7358552" lon="12.1474992"><ele>910.0</ele><time>2026-04-12T08:15:12.626Z</time></trkpt><trkpt lat="43.7358963" lon="12.1473219"><ele>912.0</ele><time>2026-04-12T08:15:13.66Z</time></trkpt><trkpt lat="43.735943" lon="12.1471421"><ele>914.0</ele><time>2026-04-12T08:15:14.626Z</time></trkpt><trkpt lat="43.7359942" lon="12.1470045"><ele>916.0</ele><time>2026-04-12T08:15:15.654Z</time></trkpt><trkpt lat="43.736058" lon="12.146897"><ele>916.0</ele><time>2026-04-12T08:15:16.704Z</time></trkpt><trkpt lat="43.7361315" lon="12.1468092"><ele>915.9999999999999</ele><time>2026-04-12T08:15:17.641Z</time></trkpt><trkpt lat="43.736219" lon="12.1467481"><ele>915.9999999999999</ele><time>2026-04-12T08:15:18.622Z</time></trkpt><trkpt lat="43.736331" lon="12.1466901"><ele>916.0</ele><time>2026-04-12T08:15:19.627Z</time></trkpt><trkpt lat="43.7364569" lon="12.1466586"><ele>916.0</ele><time>2026-04-12T08:15:20.632Z</time></trkpt><trkpt lat="43.7365805" lon="12.1466341"><ele>916.0</ele><time>2026-04-12T08:15:21.653Z</time></trkpt><trkpt lat="43.7367077" lon="12.1466035"><ele>916.0</ele><time>2026-04-12T08:15:22.634Z</time></trkpt><trkpt lat="43.7368343" lon="12.146559"><ele>916.0</ele><time>2026-04-12T08:15:23.658Z</time></trkpt><trkpt lat="43.7369559" lon="12.1464937"><ele>916.0</ele><time>2026-04-12T08:15:24.644Z</time></trkpt><trkpt lat="43.7370826" lon="12.1464119"><ele>907.0</ele><time>2026-04-12T08:15:25.638Z</time></trkpt><trkpt lat="43.7373451" lon="12.1462311"><ele>898.0</ele><time>2026-04-12T08:15:27.634Z</time></trkpt><trkpt lat="43.7374765" lon="12.1461544"><ele>889.0</ele><time>2026-04-12T08:15:28.679Z</time></trkpt><trkpt lat="43.7376057" lon="12.1460967"><ele>891.0</ele><time>2026-04-12T08:15:29.63Z</time></trkpt><trkpt lat="43.7377254" lon="12.1460562"><ele>893.0000000000001</ele><time>2026-04-12T08:15:30.664Z</time></trkpt><trkpt lat="43.7378248" lon="12.1460685"><ele>895.0000000000001</ele><time>2026-04-12T08:15:31.644Z</time></trkpt><trkpt lat="43.737914" lon="12.1461177"><ele>897.0</ele><time>2026-04-12T08:15:32.624Z</time></trkpt><trkpt lat="43.7380086" lon="12.1462026"><ele>899.0</ele><time>2026-04-12T08:15:33.636Z</time></trkpt><trkpt lat="43.7381152" lon="12.146302"><ele>899.0</ele><time>2026-04-12T08:15:34.641Z</time></trkpt><trkpt lat="43.7382218" lon="12.1463473"><ele>899.0000000000001</ele><time>2026-04-12T08:15:35.64Z</time></trkpt><trkpt lat="43.7383095" lon="12.1463762"><ele>899.0000000000001</ele><time>2026-04-12T08:15:36.694Z</time></trkpt><trkpt lat="43.7383898" lon="12.1463623"><ele>899.0</ele><time>2026-04-12T08:15:37.637Z</time></trkpt><trkpt lat="43.7384585" lon="12.1462989"><ele>899.0</ele><time>2026-04-12T08:15:38.641Z</time></trkpt><trkpt lat="43.7385157" lon="12.1461925"><ele>900.4000000000001</ele><time>2026-04-12T08:15:39.644Z</time></trkpt><trkpt lat="43.7385541" lon="12.1460573"><ele>901.8000000000001</ele><time>2026-04-12T08:15:40.647Z</time></trkpt><trkpt lat="43.7385887" lon="12.1459079"><ele>903.1999999999999</ele><time>2026-04-12T08:15:41.647Z</time></trkpt><trkpt lat="43.7386279" lon="12.145765"><ele>904.5999999999999</ele><time>2026-04-12T08:15:42.666Z</time></trkpt><trkpt lat="43.7386602" lon="12.1456602"><ele>906.0</ele><time>2026-04-12T08:15:43.652Z</time></trkpt><trkpt lat="43.7387073" lon="12.1455955"><ele>906.0</ele><time>2026-04-12T08:15:44.64Z</time></trkpt><trkpt lat="43.7387645" lon="12.145548"><ele>906.0</ele><time>2026-04-12T08:15:45.646Z</time></trkpt><trkpt lat="43.738893" lon="12.1455784"><ele>906.0</ele><time>2026-04-12T08:15:47.665Z</time></trkpt><trkpt lat="43.7390661" lon="12.1457008"><ele>906.0</ele><time>2026-04-12T08:15:49.633Z</time></trkpt><trkpt lat="43.739183" lon="12.145741"><ele>909.25</ele><time>2026-04-12T08:15:50.713Z</time></trkpt><trkpt lat="43.7393089" lon="12.1457763"><ele>912.5</ele><time>2026-04-12T08:15:51.624Z</time></trkpt><trkpt lat="43.7394317" lon="12.1458048"><ele>915.75</ele><time>2026-04-12T08:15:52.644Z</time></trkpt><trkpt lat="43.7395613" lon="12.1458173"><ele>919.0</ele><time>2026-04-12T08:15:53.644Z</time></trkpt><trkpt lat="43.7397027" lon="12.1458183"><ele>921.2</ele><time>2026-04-12T08:15:54.634Z</time></trkpt><trkpt lat="43.7398289" lon="12.1458258"><ele>923.4000000000001</ele><time>2026-04-12T08:15:55.649Z</time></trkpt><trkpt lat="43.7399298" lon="12.1458083"><ele>925.6</ele><time>2026-04-12T08:15:56.648Z</time></trkpt><trkpt lat="43.7400103" lon="12.1457755"><ele>927.8</ele><time>2026-04-12T08:15:57.643Z</time></trkpt><trkpt lat="43.740071" lon="12.1457255"><ele>930.0</ele><time>2026-04-12T08:15:58.629Z</time></trkpt><trkpt lat="43.7401007" lon="12.1455706"><ele>930.0</ele><time>2026-04-12T08:16:00.633Z</time></trkpt><trkpt lat="43.7400695" lon="12.1454526"><ele>930.0</ele><time>2026-04-12T08:16:01.632Z</time></trkpt><trkpt lat="43.740018" lon="12.1453215"><ele>930.0</ele><time>2026-04-12T08:16:02.645Z</time></trkpt><trkpt lat="43.7399492" lon="12.1452329"><ele>930.0</ele><time>2026-04-12T08:16:03.643Z</time></trkpt><trkpt lat="43.7398802" lon="12.1451753"><ele>930.0</ele><time>2026-04-12T08:16:04.648Z</time></trkpt><trkpt lat="43.7397923" lon="12.1451375"><ele>930.0</ele><time>2026-04-12T08:16:05.652Z</time></trkpt><trkpt lat="43.7397037" lon="12.1451344"><ele>930.0</ele><time>2026-04-12T08:16:06.631Z</time></trkpt><trkpt lat="43.7396353" lon="12.1450851"><ele>930.0</ele><time>2026-04-12T08:16:07.656Z</time></trkpt><trkpt lat="43.7395998" lon="12.1449629"><ele>930.0</ele><time>2026-04-12T08:16:08.662Z</time></trkpt><trkpt lat="43.7396002" lon="12.1447332"><ele>930.0</ele><time>2026-04-12T08:16:10.664Z</time></trkpt><trkpt lat="43.7396938" lon="12.1446083"><ele>932.0</ele><time>2026-04-12T08:16:12.646Z</time></trkpt><trkpt lat="43.7397864" lon="12.144538"><ele>934.0</ele><time>2026-04-12T08:16:13.633Z</time></trkpt><trkpt lat="43.739887" lon="12.1444301"><ele>936.0</ele><time>2026-04-12T08:16:14.659Z</time></trkpt><trkpt lat="43.7399749" lon="12.1443138"><ele>938.0</ele><time>2026-04-12T08:16:15.631Z</time></trkpt><trkpt lat="43.7400496" lon="12.1442086"><ele>938.0000000000001</ele><time>2026-04-12T08:16:16.645Z</time></trkpt><trkpt lat="43.7401116" lon="12.1441078"><ele>938.0</ele><time>2026-04-12T08:16:17.645Z</time></trkpt><trkpt lat="43.7401539" lon="12.1440093"><ele>938.0</ele><time>2026-04-12T08:16:18.639Z</time></trkpt><trkpt lat="43.7401461" lon="12.1439081"><ele>938.0</ele><time>2026-04-12T08:16:19.667Z</time></trkpt><trkpt lat="43.7401153" lon="12.1438101"><ele>938.0000000000001</ele><time>2026-04-12T08:16:20.637Z</time></trkpt><trkpt lat="43.7400593" lon="12.1437178"><ele>938.0</ele><time>2026-04-12T08:16:21.641Z</time></trkpt><trkpt lat="43.7399884" lon="12.1436271"><ele>941.5</ele><time>2026-04-12T08:16:22.635Z</time></trkpt><trkpt lat="43.7399053" lon="12.143524"><ele>945.0</ele><time>2026-04-12T08:16:23.633Z</time></trkpt><trkpt lat="43.7398078" lon="12.143397"><ele>948.5</ele><time>2026-04-12T08:16:24.641Z</time></trkpt><trkpt lat="43.7396961" lon="12.1432828"><ele>952.0</ele><time>2026-04-12T08:16:25.622Z</time></trkpt><trkpt lat="43.7395659" lon="12.1431724"><ele>951.75</ele><time>2026-04-12T08:16:26.661Z</time></trkpt><trkpt lat="43.7394253" lon="12.1430552"><ele>951.5</ele><time>2026-04-12T08:16:27.627Z</time></trkpt><trkpt lat="43.7392937" lon="12.1429582"><ele>951.25</ele><time>2026-04-12T08:16:28.64Z</time></trkpt><trkpt lat="43.7391828" lon="12.1428823"><ele>951.0</ele><time>2026-04-12T08:16:29.634Z</time></trkpt><trkpt lat="43.7390208" lon="12.1427607"><ele>951.0</ele><time>2026-04-12T08:16:31.647Z</time></trkpt><trkpt lat="43.7389868" lon="12.1426817"><ele>951.0</ele><time>2026-04-12T08:16:32.646Z</time></trkpt><trkpt lat="43.7390215" lon="12.1425323"><ele>951.0</ele><time>2026-04-12T08:16:34.631Z</time></trkpt><trkpt lat="43.7390834" lon="12.1424932"><ele>951.0</ele><time>2026-04-12T08:16:35.636Z</time></trkpt><trkpt lat="43.739175" lon="12.1424676"><ele>951.0</ele><time>2026-04-12T08:16:36.644Z</time></trkpt><trkpt lat="43.7392672" lon="12.1424348"><ele>951.0</ele><time>2026-04-12T08:16:37.641Z</time></trkpt><trkpt lat="43.7393632" lon="12.1424258"><ele>954.1999999999999</ele><time>2026-04-12T08:16:38.648Z</time></trkpt><trkpt lat="43.7394626" lon="12.1424432"><ele>957.3999999999999</ele><time>2026-04-12T08:16:39.645Z</time></trkpt><trkpt lat="43.7395485" lon="12.1424986"><ele>960.6</ele><time>2026-04-12T08:16:40.652Z</time></trkpt><trkpt lat="43.7396381" lon="12.1425737"><ele>963.8</ele><time>2026-04-12T08:16:41.656Z</time></trkpt><trkpt lat="43.7397" lon="12.1426858"><ele>967.0</ele><time>2026-04-12T08:16:42.654Z</time></trkpt><trkpt lat="43.7397973" lon="12.1427132"><ele>967.0</ele><time>2026-04-12T08:16:43.638Z</time></trkpt><trkpt lat="43.7399182" lon="12.1426977"><ele>967.0</ele><time>2026-04-12T08:16:44.635Z</time></trkpt><trkpt lat="43.7400619" lon="12.1426655"><ele>967.0</ele><time>2026-04-12T08:16:45.64Z</time></trkpt><trkpt lat="43.7401963" lon="12.1426463"><ele>967.0</ele><time>2026-04-12T08:16:46.658Z</time></trkpt><trkpt lat="43.7403082" lon="12.1426554"><ele>969.25</ele><time>2026-04-12T08:16:47.647Z</time></trkpt><trkpt lat="43.7404203" lon="12.1426692"><ele>971.5</ele><time>2026-04-12T08:16:48.657Z</time></trkpt><trkpt lat="43.7405371" lon="12.1426724"><ele>973.75</ele><time>2026-04-12T08:16:49.639Z</time></trkpt><trkpt lat="43.7406613" lon="12.1426436"><ele>976.0</ele><time>2026-04-12T08:16:50.632Z</time></trkpt><trkpt lat="43.7408829" lon="12.1425468"><ele>976.0</ele><time>2026-04-12T08:16:52.63Z</time></trkpt><trkpt lat="43.7409835" lon="12.1424841"><ele>976.0</ele><time>2026-04-12T08:16:53.641Z</time></trkpt><trkpt lat="43.7410809" lon="12.1424113"><ele>976.0</ele><time>2026-04-12T08:16:54.645Z</time></trkpt><trkpt lat="43.7411816" lon="12.1423375"><ele>976.0</ele><time>2026-04-12T08:16:55.711Z</time></trkpt><trkpt lat="43.7412873" lon="12.1422675"><ele>975.5</ele><time>2026-04-12T08:16:56.734Z</time></trkpt><trkpt lat="43.7414087" lon="12.1422131"><ele>975.0</ele><time>2026-04-12T08:16:57.651Z</time></trkpt><trkpt lat="43.7415326" lon="12.1421727"><ele>974.5</ele><time>2026-04-12T08:16:58.731Z</time></trkpt><trkpt lat="43.7416411" lon="12.1421129"><ele>974.0</ele><time>2026-04-12T08:16:59.666Z</time></trkpt><trkpt lat="43.7417502" lon="12.1420176"><ele>974.0</ele><time>2026-04-12T08:17:00.645Z</time></trkpt><trkpt lat="43.741856" lon="12.1419098"><ele>974.0</ele><time>2026-04-12T08:17:01.631Z</time></trkpt><trkpt lat="43.7419607" lon="12.1418137"><ele>974.0</ele><time>2026-04-12T08:17:02.662Z</time></trkpt><trkpt lat="43.742065" lon="12.1417364"><ele>974.0</ele><time>2026-04-12T08:17:03.646Z</time></trkpt><trkpt lat="43.7421762" lon="12.14167"><ele>974.2</ele><time>2026-04-12T08:17:04.654Z</time></trkpt><trkpt lat="43.7422739" lon="12.1416283"><ele>974.4000000000001</ele><time>2026-04-12T08:17:05.633Z</time></trkpt><trkpt lat="43.7423677" lon="12.1415623"><ele>974.6</ele><time>2026-04-12T08:17:06.639Z</time></trkpt><trkpt lat="43.7424494" lon="12.1414651"><ele>974.8</ele><time>2026-04-12T08:17:07.618Z</time></trkpt><trkpt lat="43.742522" lon="12.1413289"><ele>975.0</ele><time>2026-04-12T08:17:08.625Z</time></trkpt><trkpt lat="43.742599" lon="12.1411959"><ele>975.0</ele><time>2026-04-12T08:17:09.636Z</time></trkpt><trkpt lat="43.7426859" lon="12.1410626"><ele>975.0</ele><time>2026-04-12T08:17:10.65Z</time></trkpt><trkpt lat="43.7427671" lon="12.1409218"><ele>975.0</ele><time>2026-04-12T08:17:11.641Z</time></trkpt><trkpt lat="43.7428834" lon="12.1406192"><ele>976.25</ele><time>2026-04-12T08:17:13.63Z</time></trkpt><trkpt lat="43.7429333" lon="12.1404488"><ele>977.5</ele><time>2026-04-12T08:17:14.644Z</time></trkpt><trkpt lat="43.7429903" lon="12.1402657"><ele>978.75</ele><time>2026-04-12T08:17:15.636Z</time></trkpt><trkpt lat="43.743055" lon="12.1400683"><ele>980.0</ele><time>2026-04-12T08:17:16.64Z</time></trkpt><trkpt lat="43.7431096" lon="12.139857"><ele>980.0</ele><time>2026-04-12T08:17:17.633Z</time></trkpt><trkpt lat="43.7431591" lon="12.1396485"><ele>980.0</ele><time>2026-04-12T08:17:18.675Z</time></trkpt><trkpt lat="43.7432129" lon="12.1394452"><ele>980.0</ele><time>2026-04-12T08:17:19.633Z</time></trkpt><trkpt lat="43.7432649" lon="12.1392577"><ele>980.0</ele><time>2026-04-12T08:17:20.713Z</time></trkpt><trkpt lat="43.743299" lon="12.1390769"><ele>980.0</ele><time>2026-04-12T08:17:21.636Z</time></trkpt><trkpt lat="43.7433171" lon="12.1389121"><ele>980.0</ele><time>2026-04-12T08:17:22.644Z</time></trkpt><trkpt lat="43.7433217" lon="12.1387499"><ele>980.0</ele><time>2026-04-12T08:17:23.627Z</time></trkpt><trkpt lat="43.7433269" lon="12.1385749"><ele>980.0</ele><time>2026-04-12T08:17:24.639Z</time></trkpt><trkpt lat="43.7433376" lon="12.1384095"><ele>980.0</ele><time>2026-04-12T08:17:25.653Z</time></trkpt><trkpt lat="43.7433572" lon="12.1382811"><ele>980.0</ele><time>2026-04-12T08:17:26.657Z</time></trkpt><trkpt lat="43.7433859" lon="12.1381806"><ele>980.0</ele><time>2026-04-12T08:17:27.664Z</time></trkpt><trkpt lat="43.743426" lon="12.1380791"><ele>980.0</ele><time>2026-04-12T08:17:28.649Z</time></trkpt><trkpt lat="43.7434886" lon="12.1379551"><ele>982.0</ele><time>2026-04-12T08:17:29.717Z</time></trkpt><trkpt lat="43.7435591" lon="12.137798"><ele>984.0</ele><time>2026-04-12T08:17:30.649Z</time></trkpt><trkpt lat="43.7436246" lon="12.137615"><ele>986.0</ele><time>2026-04-12T08:17:31.637Z</time></trkpt><trkpt lat="43.74369" lon="12.1374227"><ele>988.0</ele><time>2026-04-12T08:17:32.643Z</time></trkpt><trkpt lat="43.7438371" lon="12.137069"><ele>988.0</ele><time>2026-04-12T08:17:34.635Z</time></trkpt><trkpt lat="43.7439117" lon="12.1368887"><ele>988.0</ele><time>2026-04-12T08:17:35.639Z</time></trkpt><trkpt lat="43.7439862" lon="12.1367204"><ele>988.0</ele><time>2026-04-12T08:17:36.649Z</time></trkpt><trkpt lat="43.7440647" lon="12.1365735"><ele>988.0</ele><time>2026-04-12T08:17:37.64Z</time></trkpt><trkpt lat="43.7441516" lon="12.1364423"><ele>987.5999999999999</ele><time>2026-04-12T08:17:38.659Z</time></trkpt><trkpt lat="43.7442411" lon="12.1363346"><ele>987.1999999999999</ele><time>2026-04-12T08:17:39.645Z</time></trkpt><trkpt lat="43.744327" lon="12.1362337"><ele>986.8</ele><time>2026-04-12T08:17:40.636Z</time></trkpt><trkpt lat="43.7443979" lon="12.1361349"><ele>986.4</ele><time>2026-04-12T08:17:41.647Z</time></trkpt><trkpt lat="43.7444439" lon="12.1360144"><ele>986.0</ele><time>2026-04-12T08:17:42.653Z</time></trkpt><trkpt lat="43.7444505" lon="12.1358996"><ele>988.0</ele><time>2026-04-12T08:17:43.649Z</time></trkpt><trkpt lat="43.7444228" lon="12.1357885"><ele>989.9999999999999</ele><time>2026-04-12T08:17:44.639Z</time></trkpt><trkpt lat="43.7443664" lon="12.1356589"><ele>991.9999999999999</ele><time>2026-04-12T08:17:45.661Z</time></trkpt><trkpt lat="43.7442956" lon="12.1355202"><ele>994.0</ele><time>2026-04-12T08:17:46.642Z</time></trkpt><trkpt lat="43.7442199" lon="12.1353737"><ele>996.0</ele><time>2026-04-12T08:17:47.654Z</time></trkpt><trkpt lat="43.7441488" lon="12.1352154"><ele>996.0</ele><time>2026-04-12T08:17:48.638Z</time></trkpt><trkpt lat="43.7440775" lon="12.1350782"><ele>995.9999999999999</ele><time>2026-04-12T08:17:49.633Z</time></trkpt><trkpt lat="43.7440242" lon="12.1349504"><ele>995.9999999999999</ele><time>2026-04-12T08:17:50.659Z</time></trkpt><trkpt lat="43.7439913" lon="12.1348288"><ele>996.0</ele><time>2026-04-12T08:17:51.635Z</time></trkpt><trkpt lat="43.7439833" lon="12.1346975"><ele>996.0</ele><time>2026-04-12T08:17:52.722Z</time></trkpt><trkpt lat="43.7439776" lon="12.1345835"><ele>997.0</ele><time>2026-04-12T08:17:53.64Z</time></trkpt><trkpt lat="43.7438822" lon="12.1343723"><ele>998.0</ele><time>2026-04-12T08:17:55.637Z</time></trkpt><trkpt lat="43.7437948" lon="12.1342928"><ele>999.0</ele><time>2026-04-12T08:17:56.635Z</time></trkpt><trkpt lat="43.7436949" lon="12.1342126"><ele>1000.0</ele><time>2026-04-12T08:17:57.636Z</time></trkpt><trkpt lat="43.7436166" lon="12.1341669"><ele>997.8</ele><time>2026-04-12T08:17:58.637Z</time></trkpt><trkpt lat="43.7435381" lon="12.1341373"><ele>995.6</ele><time>2026-04-12T08:17:59.653Z</time></trkpt><trkpt lat="43.7434392" lon="12.1341207"><ele>993.4000000000001</ele><time>2026-04-12T08:18:00.639Z</time></trkpt><trkpt lat="43.7433022" lon="12.1341426"><ele>991.2</ele><time>2026-04-12T08:18:01.641Z</time></trkpt><trkpt lat="43.7431751" lon="12.1341579"><ele>989.0</ele><time>2026-04-12T08:18:02.639Z</time></trkpt><trkpt lat="43.7430449" lon="12.1341812"><ele>989.0</ele><time>2026-04-12T08:18:03.645Z</time></trkpt><trkpt lat="43.7429207" lon="12.1342031"><ele>989.0</ele><time>2026-04-12T08:18:04.643Z</time></trkpt><trkpt lat="43.742804" lon="12.1342234"><ele>989.0</ele><time>2026-04-12T08:18:05.634Z</time></trkpt><trkpt lat="43.7426853" lon="12.1342318"><ele>989.0</ele><time>2026-04-12T08:18:06.726Z</time></trkpt><trkpt lat="43.7425717" lon="12.1342409"><ele>988.0000000000001</ele><time>2026-04-12T08:18:07.642Z</time></trkpt><trkpt lat="43.7424723" lon="12.13425"><ele>987.0</ele><time>2026-04-12T08:18:08.636Z</time></trkpt><trkpt lat="43.742387" lon="12.1342449"><ele>986.0</ele><time>2026-04-12T08:18:09.638Z</time></trkpt><trkpt lat="43.742308" lon="12.1342178"><ele>985.0</ele><time>2026-04-12T08:18:10.642Z</time></trkpt><trkpt lat="43.7422454" lon="12.1341554"><ele>984.0000000000001</ele><time>2026-04-12T08:18:11.641Z</time></trkpt><trkpt lat="43.7421932" lon="12.1340832"><ele>983.0</ele><time>2026-04-12T08:18:12.654Z</time></trkpt><trkpt lat="43.742135" lon="12.1339793"><ele>983.0</ele><time>2026-04-12T08:18:13.641Z</time></trkpt><trkpt lat="43.7420702" lon="12.1338362"><ele>983.0</ele><time>2026-04-12T08:18:14.719Z</time></trkpt><trkpt lat="43.741917" lon="12.1334924"><ele>983.0</ele><time>2026-04-12T08:18:16.639Z</time></trkpt><trkpt lat="43.7418273" lon="12.1333451"><ele>981.25</ele><time>2026-04-12T08:18:17.638Z</time></trkpt><trkpt lat="43.741732" lon="12.133207"><ele>979.5</ele><time>2026-04-12T08:18:18.644Z</time></trkpt><trkpt lat="43.7416355" lon="12.1330585"><ele>977.75</ele><time>2026-04-12T08:18:19.622Z</time></trkpt><trkpt lat="43.7415422" lon="12.1329115"><ele>976.0</ele><time>2026-04-12T08:18:20.648Z</time></trkpt><trkpt lat="43.7414537" lon="12.1327885"><ele>976.0</ele><time>2026-04-12T08:18:21.647Z</time></trkpt><trkpt lat="43.7413645" lon="12.1326885"><ele>975.9999999999999</ele><time>2026-04-12T08:18:22.645Z</time></trkpt><trkpt lat="43.7412726" lon="12.1326061"><ele>975.9999999999999</ele><time>2026-04-12T08:18:23.652Z</time></trkpt><trkpt lat="43.7411853" lon="12.1325543"><ele>976.0</ele><time>2026-04-12T08:18:24.632Z</time></trkpt><trkpt lat="43.7411002" lon="12.1325152"><ele>976.0</ele><time>2026-04-12T08:18:25.642Z</time></trkpt><trkpt lat="43.7410172" lon="12.1324992"><ele>974.9999999999999</ele><time>2026-04-12T08:18:26.718Z</time></trkpt><trkpt lat="43.7409444" lon="12.1325111"><ele>974.0</ele><time>2026-04-12T08:18:27.641Z</time></trkpt><trkpt lat="43.7408763" lon="12.1325287"><ele>973.0</ele><time>2026-04-12T08:18:28.703Z</time></trkpt><trkpt lat="43.7407685" lon="12.1325912"><ele>972.0</ele><time>2026-04-12T08:18:30.644Z</time></trkpt><trkpt lat="43.7407369" lon="12.1327119"><ele>970.9999999999999</ele><time>2026-04-12T08:18:32.635Z</time></trkpt><trkpt lat="43.7407182" lon="12.1328337"><ele>970.0</ele><time>2026-04-12T08:18:35.629Z</time></trkpt><trkpt lat="43.7406176" lon="12.1329851"><ele>970.0</ele><time>2026-04-12T08:20:01.639Z</time></trkpt><trkpt lat="43.7404306" lon="12.1330405"><ele>970.0</ele><time>2026-04-12T08:20:04.648Z</time></trkpt><trkpt lat="43.7403584" lon="12.1330665"><ele>970.0</ele><time>2026-04-12T08:20:05.725Z</time></trkpt><trkpt lat="43.7402783" lon="12.1330927"><ele>970.0</ele><time>2026-04-12T08:20:06.638Z</time></trkpt><trkpt lat="43.7402028" lon="12.1331191"><ele>970.0</ele><time>2026-04-12T08:20:07.659Z</time></trkpt><trkpt lat="43.7401256" lon="12.1331457"><ele>969.4</ele><time>2026-04-12T08:20:08.658Z</time></trkpt><trkpt lat="43.7400337" lon="12.1331663"><ele>968.8</ele><time>2026-04-12T08:20:09.646Z</time></trkpt><trkpt lat="43.7399342" lon="12.1331942"><ele>968.2</ele><time>2026-04-12T08:20:10.658Z</time></trkpt><trkpt lat="43.7398271" lon="12.1332305"><ele>967.6</ele><time>2026-04-12T08:20:11.647Z</time></trkpt><trkpt lat="43.7397081" lon="12.1332608"><ele>967.0</ele><time>2026-04-12T08:20:12.659Z</time></trkpt><trkpt lat="43.7395908" lon="12.1332896"><ele>965.5</ele><time>2026-04-12T08:20:13.638Z</time></trkpt><trkpt lat="43.739478" lon="12.1333211"><ele>964.0</ele><time>2026-04-12T08:20:14.633Z</time></trkpt><trkpt lat="43.7393635" lon="12.133358"><ele>962.5</ele><time>2026-04-12T08:20:15.659Z</time></trkpt><trkpt lat="43.7392508" lon="12.1334016"><ele>961.0</ele><time>2026-04-12T08:20:16.634Z</time></trkpt><trkpt lat="43.7391395" lon="12.1334523"><ele>961.0</ele><time>2026-04-12T08:20:17.722Z</time></trkpt><trkpt lat="43.7390243" lon="12.1335072"><ele>961.0</ele><time>2026-04-12T08:20:18.726Z</time></trkpt><trkpt lat="43.7389011" lon="12.1335604"><ele>961.0</ele><time>2026-04-12T08:20:19.638Z</time></trkpt><trkpt lat="43.7387741" lon="12.1335918"><ele>961.0</ele><time>2026-04-12T08:20:20.658Z</time></trkpt><trkpt lat="43.738652" lon="12.1336163"><ele>963.6666666666666</ele><time>2026-04-12T08:20:21.662Z</time></trkpt><trkpt lat="43.7385247" lon="12.1336311"><ele>966.3333333333333</ele><time>2026-04-12T08:20:22.635Z</time></trkpt><trkpt lat="43.7382937" lon="12.1336643"><ele>969.0</ele><time>2026-04-12T08:20:24.653Z</time></trkpt><trkpt lat="43.738192" lon="12.1337004"><ele>969.0</ele><time>2026-04-12T08:20:25.645Z</time></trkpt><trkpt lat="43.7381054" lon="12.1337693"><ele>969.0000000000001</ele><time>2026-04-12T08:20:26.636Z</time></trkpt><trkpt lat="43.7380278" lon="12.133865"><ele>969.0000000000001</ele><time>2026-04-12T08:20:27.656Z</time></trkpt><trkpt lat="43.7379655" lon="12.1339813"><ele>969.0</ele><time>2026-04-12T08:20:28.658Z</time></trkpt><trkpt lat="43.7379045" lon="12.1340943"><ele>969.0</ele><time>2026-04-12T08:20:29.633Z</time></trkpt><trkpt lat="43.7378364" lon="12.134162"><ele>965.8000000000001</ele><time>2026-04-12T08:20:30.664Z</time></trkpt><trkpt lat="43.737761" lon="12.1342039"><ele>962.6000000000001</ele><time>2026-04-12T08:20:31.649Z</time></trkpt><trkpt lat="43.737665" lon="12.1342089"><ele>959.4</ele><time>2026-04-12T08:20:32.635Z</time></trkpt><trkpt lat="43.7375526" lon="12.1341937"><ele>956.2</ele><time>2026-04-12T08:20:33.639Z</time></trkpt><trkpt lat="43.7374356" lon="12.1341648"><ele>953.0</ele><time>2026-04-12T08:20:34.64Z</time></trkpt><trkpt lat="43.7373197" lon="12.1341472"><ele>953.0</ele><time>2026-04-12T08:20:35.645Z</time></trkpt><trkpt lat="43.7372082" lon="12.1341175"><ele>953.0</ele><time>2026-04-12T08:20:36.635Z</time></trkpt><trkpt lat="43.7370984" lon="12.1341327"><ele>953.0</ele><time>2026-04-12T08:20:37.67Z</time></trkpt><trkpt lat="43.7369792" lon="12.1341655"><ele>953.0</ele><time>2026-04-12T08:20:38.643Z</time></trkpt><trkpt lat="43.736853" lon="12.134198"><ele>952.0</ele><time>2026-04-12T08:20:39.628Z</time></trkpt><trkpt lat="43.7367069" lon="12.1342221"><ele>951.0</ele><time>2026-04-12T08:20:40.738Z</time></trkpt><trkpt lat="43.7365623" lon="12.1342521"><ele>950.0</ele><time>2026-04-12T08:20:41.656Z</time></trkpt><trkpt lat="43.7364226" lon="12.1342743"><ele>949.0</ele><time>2026-04-12T08:20:42.635Z</time></trkpt><trkpt lat="43.7362815" lon="12.1342989"><ele>951.0</ele><time>2026-04-12T08:20:43.658Z</time></trkpt><trkpt lat="43.7360129" lon="12.1343376"><ele>953.0</ele><time>2026-04-12T08:20:45.644Z</time></trkpt><trkpt lat="43.7359" lon="12.1343586"><ele>955.0</ele><time>2026-04-12T08:20:46.623Z</time></trkpt><trkpt lat="43.7358062" lon="12.1343654"><ele>955.0</ele><time>2026-04-12T08:20:47.646Z</time></trkpt><trkpt lat="43.7357195" lon="12.134385"><ele>955.0</ele><time>2026-04-12T08:20:48.65Z</time></trkpt><trkpt lat="43.7356353" lon="12.1344251"><ele>955.0</ele><time>2026-04-12T08:20:49.643Z</time></trkpt><trkpt lat="43.7355615" lon="12.1345084"><ele>955.0</ele><time>2026-04-12T08:20:50.647Z</time></trkpt><trkpt lat="43.7354971" lon="12.1346093"><ele>955.0</ele><time>2026-04-12T08:20:51.637Z</time></trkpt><trkpt lat="43.7354453" lon="12.134718"><ele>954.9999999999999</ele><time>2026-04-12T08:20:52.644Z</time></trkpt><trkpt lat="43.7353937" lon="12.1348363"><ele>955.0</ele><time>2026-04-12T08:20:53.64Z</time></trkpt><trkpt lat="43.7353307" lon="12.1349336"><ele>955.0</ele><time>2026-04-12T08:20:54.651Z</time></trkpt><trkpt lat="43.7352691" lon="12.1350089"><ele>955.0</ele><time>2026-04-12T08:20:55.627Z</time></trkpt><trkpt lat="43.7352061" lon="12.1350478"><ele>954.9999999999999</ele><time>2026-04-12T08:20:56.661Z</time></trkpt><trkpt lat="43.7351343" lon="12.1350697"><ele>955.0</ele><time>2026-04-12T08:20:57.67Z</time></trkpt><trkpt lat="43.7350532" lon="12.1350991"><ele>952.8</ele><time>2026-04-12T08:20:58.645Z</time></trkpt><trkpt lat="43.7349693" lon="12.13517"><ele>950.6</ele><time>2026-04-12T08:20:59.652Z</time></trkpt><trkpt lat="43.7348919" lon="12.1352855"><ele>948.4000000000001</ele><time>2026-04-12T08:21:00.645Z</time></trkpt><trkpt lat="43.7348205" lon="12.1353743"><ele>946.2</ele><time>2026-04-12T08:21:01.647Z</time></trkpt><trkpt lat="43.7347464" lon="12.1354259"><ele>944.0</ele><time>2026-04-12T08:21:02.64Z</time></trkpt><trkpt lat="43.7346764" lon="12.1354452"><ele>944.0</ele><time>2026-04-12T08:21:03.738Z</time></trkpt><trkpt lat="43.7346135" lon="12.1354388"><ele>944.0000000000001</ele><time>2026-04-12T08:21:04.645Z</time></trkpt><trkpt lat="43.7344398" lon="12.1353873"><ele>944.0000000000001</ele><time>2026-04-12T08:21:06.638Z</time></trkpt><trkpt lat="43.7343487" lon="12.1353995"><ele>944.0</ele><time>2026-04-12T08:21:07.648Z</time></trkpt><trkpt lat="43.7342455" lon="12.1354308"><ele>944.0</ele><time>2026-04-12T08:21:08.641Z</time></trkpt><trkpt lat="43.7341302" lon="12.1355015"><ele>944.0</ele><time>2026-04-12T08:21:09.635Z</time></trkpt><trkpt lat="43.7340232" lon="12.1355903"><ele>944.0</ele><time>2026-04-12T08:21:10.758Z</time></trkpt><trkpt lat="43.7338038" lon="12.1357013"><ele>944.0</ele><time>2026-04-12T08:21:12.689Z</time></trkpt><trkpt lat="43.7337276" lon="12.1357485"><ele>944.0</ele><time>2026-04-12T08:21:13.643Z</time></trkpt><trkpt lat="43.733666" lon="12.1358032"><ele>939.6</ele><time>2026-04-12T08:21:14.638Z</time></trkpt><trkpt lat="43.7336147" lon="12.1358934"><ele>935.2</ele><time>2026-04-12T08:21:15.65Z</time></trkpt><trkpt lat="43.7335846" lon="12.1360191"><ele>930.8000000000001</ele><time>2026-04-12T08:21:16.636Z</time></trkpt><trkpt lat="43.7335732" lon="12.1361895"><ele>926.4000000000001</ele><time>2026-04-12T08:21:17.615Z</time></trkpt><trkpt lat="43.7335752" lon="12.1363469"><ele>922.0</ele><time>2026-04-12T08:21:18.645Z</time></trkpt><trkpt lat="43.733564" lon="12.1364935"><ele>918.0</ele><time>2026-04-12T08:21:19.64Z</time></trkpt><trkpt lat="43.7335435" lon="12.1366285"><ele>914.0</ele><time>2026-04-12T08:21:20.666Z</time></trkpt><trkpt lat="43.7335133" lon="12.1367505"><ele>910.0</ele><time>2026-04-12T08:21:21.716Z</time></trkpt><trkpt lat="43.7334645" lon="12.1368493"><ele>906.0</ele><time>2026-04-12T08:21:22.638Z</time></trkpt><trkpt lat="43.7334016" lon="12.1369235"><ele>902.0</ele><time>2026-04-12T08:21:23.64Z</time></trkpt><trkpt lat="43.7333189" lon="12.1369647"><ele>902.0</ele><time>2026-04-12T08:21:24.721Z</time></trkpt><trkpt lat="43.7332221" lon="12.1369819"><ele>902.0</ele><time>2026-04-12T08:21:25.644Z</time></trkpt><trkpt lat="43.7329793" lon="12.1369099"><ele>902.0</ele><time>2026-04-12T08:21:27.645Z</time></trkpt><trkpt lat="43.7328551" lon="12.136864"><ele>902.0</ele><time>2026-04-12T08:21:28.629Z</time></trkpt><trkpt lat="43.7327376" lon="12.1368316"><ele>902.0</ele><time>2026-04-12T08:21:29.633Z</time></trkpt><trkpt lat="43.7326217" lon="12.1368084"><ele>902.0</ele><time>2026-04-12T08:21:30.66Z</time></trkpt><trkpt lat="43.7325135" lon="12.1367989"><ele>902.0</ele><time>2026-04-12T08:21:31.645Z</time></trkpt><trkpt lat="43.7324311" lon="12.1367967"><ele>902.0</ele><time>2026-04-12T08:21:32.633Z</time></trkpt><trkpt lat="43.7323662" lon="12.1368065"><ele>900.4000000000001</ele><time>2026-04-12T08:21:33.645Z</time></trkpt><trkpt lat="43.7322764" lon="12.1369015"><ele>898.8000000000001</ele><time>2026-04-12T08:21:35.663Z</time></trkpt><trkpt lat="43.7323315" lon="12.1370244"><ele>897.2</ele><time>2026-04-12T08:21:37.636Z</time></trkpt><trkpt lat="43.7324075" lon="12.1370705"><ele>895.6</ele><time>2026-04-12T08:21:38.635Z</time></trkpt><trkpt lat="43.732492" lon="12.1371235"><ele>894.0</ele><time>2026-04-12T08:21:39.634Z</time></trkpt><trkpt lat="43.7325729" lon="12.1371698"><ele>894.0</ele><time>2026-04-12T08:21:40.636Z</time></trkpt><trkpt lat="43.7326392" lon="12.1372154"><ele>894.0</ele><time>2026-04-12T08:21:41.65Z</time></trkpt><trkpt lat="43.7327141" lon="12.1373466"><ele>894.0</ele><time>2026-04-12T08:21:43.658Z</time></trkpt><trkpt lat="43.7327174" lon="12.1374348"><ele>894.0</ele><time>2026-04-12T08:21:44.734Z</time></trkpt><trkpt lat="43.7326925" lon="12.1375233"><ele>894.0</ele><time>2026-04-12T08:21:45.69Z</time></trkpt><trkpt lat="43.7326448" lon="12.1375957"><ele>894.0</ele><time>2026-04-12T08:21:46.654Z</time></trkpt><trkpt lat="43.7324955" lon="12.137683"><ele>890.6</ele><time>2026-04-12T08:21:48.627Z</time></trkpt><trkpt lat="43.7324123" lon="12.1376874"><ele>887.2</ele><time>2026-04-12T08:21:49.648Z</time></trkpt><trkpt lat="43.7323052" lon="12.1376681"><ele>883.8000000000001</ele><time>2026-04-12T08:21:50.644Z</time></trkpt><trkpt lat="43.7321912" lon="12.1376391"><ele>880.4000000000001</ele><time>2026-04-12T08:21:51.663Z</time></trkpt><trkpt lat="43.7320776" lon="12.1376049"><ele>877.0</ele><time>2026-04-12T08:21:52.636Z</time></trkpt><trkpt lat="43.7319558" lon="12.1375761"><ele>873.0</ele><time>2026-04-12T08:21:53.641Z</time></trkpt><trkpt lat="43.7318287" lon="12.137548"><ele>869.0</ele><time>2026-04-12T08:21:54.661Z</time></trkpt><trkpt lat="43.7317134" lon="12.1375106"><ele>865.0</ele><time>2026-04-12T08:21:55.632Z</time></trkpt><trkpt lat="43.7316066" lon="12.1374695"><ele>861.0</ele><time>2026-04-12T08:21:56.634Z</time></trkpt><trkpt lat="43.7315084" lon="12.1374326"><ele>862.4</ele><time>2026-04-12T08:21:57.732Z</time></trkpt><trkpt lat="43.7314171" lon="12.137383"><ele>863.8</ele><time>2026-04-12T08:21:58.653Z</time></trkpt><trkpt lat="43.7313337" lon="12.1373189"><ele>865.1999999999999</ele><time>2026-04-12T08:21:59.67Z</time></trkpt><trkpt lat="43.7312421" lon="12.1372457"><ele>866.5999999999999</ele><time>2026-04-12T08:22:00.642Z</time></trkpt><trkpt lat="43.7311423" lon="12.1371785"><ele>868.0</ele><time>2026-04-12T08:22:01.674Z</time></trkpt><trkpt lat="43.7310448" lon="12.1371405"><ele>868.0</ele><time>2026-04-12T08:22:02.644Z</time></trkpt><trkpt lat="43.7309537" lon="12.137132"><ele>868.0</ele><time>2026-04-12T08:22:03.666Z</time></trkpt><trkpt lat="43.7308535" lon="12.1371627"><ele>868.0</ele><time>2026-04-12T08:22:04.663Z</time></trkpt><trkpt lat="43.7307614" lon="12.1372141"><ele>868.0</ele><time>2026-04-12T08:22:05.638Z</time></trkpt><trkpt lat="43.7306767" lon="12.1372638"><ele>868.0</ele><time>2026-04-12T08:22:06.662Z</time></trkpt><trkpt lat="43.7305988" lon="12.1373079"><ele>868.0</ele><time>2026-04-12T08:22:07.637Z</time></trkpt><trkpt lat="43.7304388" lon="12.137327"><ele>868.0</ele><time>2026-04-12T08:22:09.641Z</time></trkpt><trkpt lat="43.7303404" lon="12.1373212"><ele>868.0</ele><time>2026-04-12T08:22:10.64Z</time></trkpt><trkpt lat="43.7302346" lon="12.1372961"><ele>868.0</ele><time>2026-04-12T08:22:11.642Z</time></trkpt><trkpt lat="43.7301275" lon="12.1372648"><ele>864.5999999999999</ele><time>2026-04-12T08:22:12.632Z</time></trkpt><trkpt lat="43.7300215" lon="12.1372372"><ele>861.1999999999999</ele><time>2026-04-12T08:22:13.675Z</time></trkpt><trkpt lat="43.7299227" lon="12.1371988"><ele>857.8</ele><time>2026-04-12T08:22:14.656Z</time></trkpt><trkpt lat="43.7298303" lon="12.1371373"><ele>854.4</ele><time>2026-04-12T08:22:15.664Z</time></trkpt><trkpt lat="43.7297561" lon="12.1370574"><ele>851.0</ele><time>2026-04-12T08:22:16.665Z</time></trkpt><trkpt lat="43.7297063" lon="12.1369489"><ele>851.0</ele><time>2026-04-12T08:22:17.715Z</time></trkpt><trkpt lat="43.7296453" lon="12.1367967"><ele>851.0</ele><time>2026-04-12T08:22:18.716Z</time></trkpt><trkpt lat="43.7295805" lon="12.1366285"><ele>851.0</ele><time>2026-04-12T08:22:19.64Z</time></trkpt><trkpt lat="43.7295062" lon="12.1364597"><ele>851.0</ele><time>2026-04-12T08:22:20.641Z</time></trkpt><trkpt lat="43.7294223" lon="12.1362851"><ele>849.5</ele><time>2026-04-12T08:22:21.64Z</time></trkpt><trkpt lat="43.7293329" lon="12.1361167"><ele>848.0</ele><time>2026-04-12T08:22:22.632Z</time></trkpt><trkpt lat="43.7292502" lon="12.1359605"><ele>846.5</ele><time>2026-04-12T08:22:23.652Z</time></trkpt><trkpt lat="43.7291752" lon="12.1358113"><ele>845.0</ele><time>2026-04-12T08:22:24.649Z</time></trkpt><trkpt lat="43.7291018" lon="12.1356803"><ele>845.0</ele><time>2026-04-12T08:22:25.641Z</time></trkpt><trkpt lat="43.7290352" lon="12.1355673"><ele>845.0</ele><time>2026-04-12T08:22:26.633Z</time></trkpt><trkpt lat="43.7289588" lon="12.1354605"><ele>845.0</ele><time>2026-04-12T08:22:27.654Z</time></trkpt><trkpt lat="43.7288753" lon="12.1353694"><ele>845.0</ele><time>2026-04-12T08:22:28.643Z</time></trkpt><trkpt lat="43.7286895" lon="12.1352519"><ele>845.0000000000001</ele><time>2026-04-12T08:22:30.711Z</time></trkpt><trkpt lat="43.7286012" lon="12.1352467"><ele>845.0</ele><time>2026-04-12T08:22:31.642Z</time></trkpt><trkpt lat="43.7285177" lon="12.1352598"><ele>845.0</ele><time>2026-04-12T08:22:32.648Z</time></trkpt><trkpt lat="43.72846" lon="12.1353068"><ele>845.0</ele><time>2026-04-12T08:22:33.634Z</time></trkpt><trkpt lat="43.7284167" lon="12.1353829"><ele>845.0000000000001</ele><time>2026-04-12T08:22:34.643Z</time></trkpt><trkpt lat="43.7283856" lon="12.1354808"><ele>845.0</ele><time>2026-04-12T08:22:35.636Z</time></trkpt><trkpt lat="43.7283616" lon="12.1355963"><ele>842.0000000000001</ele><time>2026-04-12T08:22:36.627Z</time></trkpt><trkpt lat="43.7283536" lon="12.1357164"><ele>839.0</ele><time>2026-04-12T08:22:37.636Z</time></trkpt><trkpt lat="43.7283623" lon="12.1358366"><ele>836.0</ele><time>2026-04-12T08:22:38.64Z</time></trkpt><trkpt lat="43.7283824" lon="12.1359512"><ele>833.0</ele><time>2026-04-12T08:22:39.645Z</time></trkpt><trkpt lat="43.728424" lon="12.1360604"><ele>830.0000000000001</ele><time>2026-04-12T08:22:40.633Z</time></trkpt><trkpt lat="43.7284867" lon="12.1361501"><ele>827.0</ele><time>2026-04-12T08:22:41.628Z</time></trkpt><trkpt lat="43.7285534" lon="12.136227"><ele>826.2</ele><time>2026-04-12T08:22:42.64Z</time></trkpt><trkpt lat="43.7286191" lon="12.1363102"><ele>825.4000000000001</ele><time>2026-04-12T08:22:43.723Z</time></trkpt><trkpt lat="43.7286776" lon="12.1364336"><ele>824.5999999999999</ele><time>2026-04-12T08:22:44.63Z</time></trkpt><trkpt lat="43.7287407" lon="12.136583"><ele>823.8</ele><time>2026-04-12T08:22:45.628Z</time></trkpt><trkpt lat="43.7288049" lon="12.1367295"><ele>823.0</ele><time>2026-04-12T08:22:46.625Z</time></trkpt><trkpt lat="43.7288659" lon="12.1368712"><ele>823.0</ele><time>2026-04-12T08:22:47.633Z</time></trkpt><trkpt lat="43.7289231" lon="12.1370162"><ele>823.0</ele><time>2026-04-12T08:22:48.632Z</time></trkpt><trkpt lat="43.7289713" lon="12.1371556"><ele>823.0</ele><time>2026-04-12T08:22:49.622Z</time></trkpt><trkpt lat="43.7290319" lon="12.1374552"><ele>818.8</ele><time>2026-04-12T08:22:51.633Z</time></trkpt><trkpt lat="43.7290522" lon="12.1376078"><ele>814.5999999999999</ele><time>2026-04-12T08:22:52.631Z</time></trkpt><trkpt lat="43.729067" lon="12.1377487"><ele>810.4000000000001</ele><time>2026-04-12T08:22:53.627Z</time></trkpt><trkpt lat="43.7290741" lon="12.1378714"><ele>806.2</ele><time>2026-04-12T08:22:54.643Z</time></trkpt><trkpt lat="43.7290719" lon="12.1379856"><ele>802.0</ele><time>2026-04-12T08:22:55.639Z</time></trkpt><trkpt lat="43.7290605" lon="12.1380847"><ele>801.9999999999999</ele><time>2026-04-12T08:22:56.624Z</time></trkpt><trkpt lat="43.7290023" lon="12.1381789"><ele>802.0</ele><time>2026-04-12T08:22:58.627Z</time></trkpt><trkpt lat="43.7289108" lon="12.1382092"><ele>802.0</ele><time>2026-04-12T08:23:00.637Z</time></trkpt><trkpt lat="43.7288264" lon="12.1381584"><ele>802.0</ele><time>2026-04-12T08:23:02.644Z</time></trkpt><trkpt lat="43.7287589" lon="12.1381124"><ele>801.9999999999999</ele><time>2026-04-12T08:23:04.649Z</time></trkpt><trkpt lat="43.7286834" lon="12.1380634"><ele>802.0</ele><time>2026-04-12T08:23:07.658Z</time></trkpt><trkpt lat="43.7286151" lon="12.1380134"><ele>798.5</ele><time>2026-04-12T08:23:10.637Z</time></trkpt><trkpt lat="43.7284744" lon="12.1379383"><ele>795.0</ele><time>2026-04-12T08:23:46.632Z</time></trkpt><trkpt lat="43.7283324" lon="12.1378578"><ele>791.5</ele><time>2026-04-12T08:23:48.663Z</time></trkpt><trkpt lat="43.7282534" lon="12.1378025"><ele>788.0</ele><time>2026-04-12T08:23:49.666Z</time></trkpt><trkpt lat="43.7281656" lon="12.1377487"><ele>788.0</ele><time>2026-04-12T08:23:50.646Z</time></trkpt><trkpt lat="43.7280802" lon="12.1376958"><ele>788.0</ele><time>2026-04-12T08:23:51.661Z</time></trkpt><trkpt lat="43.7279956" lon="12.1376449"><ele>788.0</ele><time>2026-04-12T08:23:52.644Z</time></trkpt><trkpt lat="43.7279042" lon="12.1375932"><ele>788.0</ele><time>2026-04-12T08:23:53.648Z</time></trkpt><trkpt lat="43.7278115" lon="12.1375378"><ele>788.0</ele><time>2026-04-12T08:23:54.651Z</time></trkpt><trkpt lat="43.7277153" lon="12.1374863"><ele>788.75</ele><time>2026-04-12T08:23:55.655Z</time></trkpt><trkpt lat="43.7276167" lon="12.1374305"><ele>789.5</ele><time>2026-04-12T08:23:56.657Z</time></trkpt><trkpt lat="43.7275184" lon="12.1373753"><ele>790.25</ele><time>2026-04-12T08:23:57.667Z</time></trkpt><trkpt lat="43.7274136" lon="12.1373158"><ele>791.0</ele><time>2026-04-12T08:23:58.65Z</time></trkpt><trkpt lat="43.7273031" lon="12.1372329"><ele>792.5999999999999</ele><time>2026-04-12T08:23:59.654Z</time></trkpt><trkpt lat="43.7272063" lon="12.1371342"><ele>794.2</ele><time>2026-04-12T08:24:00.662Z</time></trkpt><trkpt lat="43.7271399" lon="12.1370147"><ele>795.8</ele><time>2026-04-12T08:24:01.637Z</time></trkpt><trkpt lat="43.7270901" lon="12.1368863"><ele>797.4000000000001</ele><time>2026-04-12T08:24:02.644Z</time></trkpt><trkpt lat="43.7270389" lon="12.1367587"><ele>799.0</ele><time>2026-04-12T08:24:03.655Z</time></trkpt><trkpt lat="43.7269827" lon="12.1366331"><ele>798.75</ele><time>2026-04-12T08:24:04.639Z</time></trkpt><trkpt lat="43.7269223" lon="12.1364982"><ele>798.5</ele><time>2026-04-12T08:24:05.65Z</time></trkpt><trkpt lat="43.7268599" lon="12.1363547"><ele>798.25</ele><time>2026-04-12T08:24:06.641Z</time></trkpt><trkpt lat="43.7267996" lon="12.1362165"><ele>798.0</ele><time>2026-04-12T08:24:07.64Z</time></trkpt><trkpt lat="43.72661" lon="12.1360309"><ele>798.0</ele><time>2026-04-12T08:24:09.667Z</time></trkpt><trkpt lat="43.7265084" lon="12.1359342"><ele>798.0</ele><time>2026-04-12T08:24:10.67Z</time></trkpt><trkpt lat="43.7264104" lon="12.1358492"><ele>798.0</ele><time>2026-04-12T08:24:11.65Z</time></trkpt><trkpt lat="43.726314" lon="12.1357671"><ele>798.0</ele><time>2026-04-12T08:24:12.639Z</time></trkpt><trkpt lat="43.7262333" lon="12.1357262"><ele>798.0</ele><time>2026-04-12T08:24:13.66Z</time></trkpt><trkpt lat="43.726142" lon="12.1357095"><ele>798.6666666666666</ele><time>2026-04-12T08:24:14.662Z</time></trkpt><trkpt lat="43.7260693" lon="12.1356701"><ele>799.3333333333333</ele><time>2026-04-12T08:24:15.658Z</time></trkpt><trkpt lat="43.7260044" lon="12.1356093"><ele>800.0</ele><time>2026-04-12T08:24:16.664Z</time></trkpt><trkpt lat="43.7259611" lon="12.1355283"><ele>800.6666666666666</ele><time>2026-04-12T08:24:17.658Z</time></trkpt><trkpt lat="43.7259363" lon="12.1354363"><ele>801.3333333333333</ele><time>2026-04-12T08:24:18.66Z</time></trkpt><trkpt lat="43.7259048" lon="12.1353493"><ele>802.0</ele><time>2026-04-12T08:24:19.653Z</time></trkpt><trkpt lat="43.725841" lon="12.1352777"><ele>802.0</ele><time>2026-04-12T08:24:20.647Z</time></trkpt><trkpt lat="43.7257583" lon="12.1352174"><ele>802.0</ele><time>2026-04-12T08:24:21.644Z</time></trkpt><trkpt lat="43.7256571" lon="12.1351357"><ele>802.0</ele><time>2026-04-12T08:24:22.637Z</time></trkpt><trkpt lat="43.7255686" lon="12.1350482"><ele>802.0</ele><time>2026-04-12T08:24:23.641Z</time></trkpt><trkpt lat="43.7255011" lon="12.1349471"><ele>802.0</ele><time>2026-04-12T08:24:24.641Z</time></trkpt><trkpt lat="43.7254182" lon="12.1348558"><ele>801.25</ele><time>2026-04-12T08:24:25.646Z</time></trkpt><trkpt lat="43.7253173" lon="12.134789"><ele>800.5</ele><time>2026-04-12T08:24:26.641Z</time></trkpt><trkpt lat="43.7252215" lon="12.134726"><ele>799.75</ele><time>2026-04-12T08:24:27.64Z</time></trkpt><trkpt lat="43.7251118" lon="12.1347312"><ele>799.0</ele><time>2026-04-12T08:24:28.652Z</time></trkpt><trkpt lat="43.724878" lon="12.1349238"><ele>799.0</ele><time>2026-04-12T08:24:30.671Z</time></trkpt><trkpt lat="43.724787" lon="12.1350225"><ele>799.0</ele><time>2026-04-12T08:24:31.627Z</time></trkpt><trkpt lat="43.7246877" lon="12.1350963"><ele>799.0</ele><time>2026-04-12T08:24:32.65Z</time></trkpt><trkpt lat="43.7245817" lon="12.1351225"><ele>799.0</ele><time>2026-04-12T08:24:33.641Z</time></trkpt><trkpt lat="43.7244725" lon="12.1350921"><ele>799.0</ele><time>2026-04-12T08:24:34.631Z</time></trkpt><trkpt lat="43.7243746" lon="12.1349998"><ele>799.25</ele><time>2026-04-12T08:24:35.642Z</time></trkpt><trkpt lat="43.7242915" lon="12.13489"><ele>799.5</ele><time>2026-04-12T08:24:36.643Z</time></trkpt><trkpt lat="43.724188" lon="12.1347707"><ele>799.75</ele><time>2026-04-12T08:24:37.633Z</time></trkpt><trkpt lat="43.7240989" lon="12.134652"><ele>800.0</ele><time>2026-04-12T08:24:38.638Z</time></trkpt><trkpt lat="43.723997" lon="12.1345396"><ele>801.0</ele><time>2026-04-12T08:24:39.634Z</time></trkpt><trkpt lat="43.7238737" lon="12.1344582"><ele>802.0</ele><time>2026-04-12T08:24:40.648Z</time></trkpt><trkpt lat="43.7237426" lon="12.1343666"><ele>803.0</ele><time>2026-04-12T08:24:41.635Z</time></trkpt><trkpt lat="43.7236188" lon="12.1342999"><ele>804.0</ele><time>2026-04-12T08:24:42.643Z</time></trkpt><trkpt lat="43.7235013" lon="12.1341942"><ele>804.0</ele><time>2026-04-12T08:24:43.647Z</time></trkpt><trkpt lat="43.7234046" lon="12.1340643"><ele>804.0</ele><time>2026-04-12T08:24:44.651Z</time></trkpt><trkpt lat="43.723341" lon="12.1339045"><ele>804.0</ele><time>2026-04-12T08:24:45.636Z</time></trkpt><trkpt lat="43.7233038" lon="12.1337194"><ele>804.0</ele><time>2026-04-12T08:24:46.624Z</time></trkpt><trkpt lat="43.7232578" lon="12.1335613"><ele>807.3333333333333</ele><time>2026-04-12T08:24:47.639Z</time></trkpt><trkpt lat="43.7231797" lon="12.1334291"><ele>810.6666666666666</ele><time>2026-04-12T08:24:48.644Z</time></trkpt><trkpt lat="43.7230664" lon="12.1333436"><ele>814.0</ele><time>2026-04-12T08:24:49.646Z</time></trkpt><trkpt lat="43.7227997" lon="12.1331956"><ele>814.5</ele><time>2026-04-12T08:24:51.628Z</time></trkpt><trkpt lat="43.7226793" lon="12.1331223"><ele>815.0</ele><time>2026-04-12T08:24:52.72Z</time></trkpt><trkpt lat="43.7225759" lon="12.1330532"><ele>815.5</ele><time>2026-04-12T08:24:53.631Z</time></trkpt><trkpt lat="43.722489" lon="12.1329651"><ele>816.0</ele><time>2026-04-12T08:24:54.632Z</time></trkpt><trkpt lat="43.7224392" lon="12.1328283"><ele>816.0</ele><time>2026-04-12T08:24:55.649Z</time></trkpt><trkpt lat="43.7224327" lon="12.132652"><ele>816.0</ele><time>2026-04-12T08:24:56.637Z</time></trkpt><trkpt lat="43.7224535" lon="12.1324658"><ele>816.0</ele><time>2026-04-12T08:24:57.635Z</time></trkpt><trkpt lat="43.7224991" lon="12.1322662"><ele>816.0</ele><time>2026-04-12T08:24:58.628Z</time></trkpt><trkpt lat="43.7225471" lon="12.1320731"><ele>818.6666666666667</ele><time>2026-04-12T08:24:59.642Z</time></trkpt><trkpt lat="43.7225555" lon="12.1318687"><ele>821.3333333333334</ele><time>2026-04-12T08:25:00.634Z</time></trkpt><trkpt lat="43.7225205" lon="12.1316517"><ele>824.0</ele><time>2026-04-12T08:25:01.631Z</time></trkpt><trkpt lat="43.7224715" lon="12.1314338"><ele>826.75</ele><time>2026-04-12T08:25:02.63Z</time></trkpt><trkpt lat="43.7224227" lon="12.1312215"><ele>829.5</ele><time>2026-04-12T08:25:03.713Z</time></trkpt><trkpt lat="43.7223733" lon="12.1310306"><ele>832.25</ele><time>2026-04-12T08:25:04.652Z</time></trkpt><trkpt lat="43.7223348" lon="12.1308583"><ele>835.0</ele><time>2026-04-12T08:25:05.631Z</time></trkpt><trkpt lat="43.7222942" lon="12.1307207"><ele>837.8</ele><time>2026-04-12T08:25:06.625Z</time></trkpt><trkpt lat="43.7222589" lon="12.1306011"><ele>840.6</ele><time>2026-04-12T08:25:07.641Z</time></trkpt><trkpt lat="43.7222298" lon="12.130494"><ele>843.4000000000001</ele><time>2026-04-12T08:25:08.636Z</time></trkpt><trkpt lat="43.722168" lon="12.1304129"><ele>846.2</ele><time>2026-04-12T08:25:10.628Z</time></trkpt><trkpt lat="43.7220636" lon="12.1305682"><ele>849.0</ele><time>2026-04-12T08:25:13.64Z</time></trkpt><trkpt lat="43.7220296" lon="12.1306527"><ele>846.2</ele><time>2026-04-12T08:25:14.701Z</time></trkpt><trkpt lat="43.7219906" lon="12.1307461"><ele>843.4000000000001</ele><time>2026-04-12T08:25:15.642Z</time></trkpt><trkpt lat="43.7219468" lon="12.1308405"><ele>840.6</ele><time>2026-04-12T08:25:16.663Z</time></trkpt><trkpt lat="43.7218849" lon="12.1309552"><ele>837.8</ele><time>2026-04-12T08:25:17.646Z</time></trkpt><trkpt lat="43.7218108" lon="12.1311088"><ele>835.0</ele><time>2026-04-12T08:25:18.639Z</time></trkpt><trkpt lat="43.7217261" lon="12.1312518"><ele>831.5</ele><time>2026-04-12T08:25:19.64Z</time></trkpt><trkpt lat="43.7216374" lon="12.1313839"><ele>828.0</ele><time>2026-04-12T08:25:20.651Z</time></trkpt><trkpt lat="43.7215082" lon="12.1314571"><ele>824.5</ele><time>2026-04-12T08:25:21.649Z</time></trkpt><trkpt lat="43.7213553" lon="12.1314106"><ele>821.0</ele><time>2026-04-12T08:25:22.655Z</time></trkpt><trkpt lat="43.7212804" lon="12.1312934"><ele>821.0</ele><time>2026-04-12T08:25:23.652Z</time></trkpt><trkpt lat="43.7212132" lon="12.1311106"><ele>821.0</ele><time>2026-04-12T08:25:24.642Z</time></trkpt><trkpt lat="43.7211426" lon="12.1309296"><ele>821.0</ele><time>2026-04-12T08:25:25.656Z</time></trkpt><trkpt lat="43.721065" lon="12.1307356"><ele>818.0</ele><time>2026-04-12T08:25:26.712Z</time></trkpt><trkpt lat="43.7209823" lon="12.1305359"><ele>815.0</ele><time>2026-04-12T08:25:27.642Z</time></trkpt><trkpt lat="43.7208992" lon="12.1303267"><ele>812.0</ele><time>2026-04-12T08:25:28.644Z</time></trkpt><trkpt lat="43.7208189" lon="12.1300885"><ele>814.0</ele><time>2026-04-12T08:25:29.637Z</time></trkpt><trkpt lat="43.7207363" lon="12.129852"><ele>816.0</ele><time>2026-04-12T08:25:30.637Z</time></trkpt><trkpt lat="43.7206424" lon="12.1296157"><ele>818.0</ele><time>2026-04-12T08:25:31.657Z</time></trkpt><trkpt lat="43.7204678" lon="12.1291588"><ele>818.3333333333334</ele><time>2026-04-12T08:25:33.645Z</time></trkpt><trkpt lat="43.7203908" lon="12.1289374"><ele>818.6666666666667</ele><time>2026-04-12T08:25:34.671Z</time></trkpt><trkpt lat="43.720315" lon="12.1287145"><ele>819.0</ele><time>2026-04-12T08:25:35.662Z</time></trkpt><trkpt lat="43.7202531" lon="12.1285006"><ele>810.6666666666667</ele><time>2026-04-12T08:25:36.636Z</time></trkpt><trkpt lat="43.7201995" lon="12.1282817"><ele>802.3333333333334</ele><time>2026-04-12T08:25:37.725Z</time></trkpt><trkpt lat="43.7201623" lon="12.1280508"><ele>794.0</ele><time>2026-04-12T08:25:38.656Z</time></trkpt><trkpt lat="43.7201466" lon="12.1278086"><ele>794.3333333333334</ele><time>2026-04-12T08:25:39.662Z</time></trkpt><trkpt lat="43.7201366" lon="12.1275518"><ele>794.6666666666667</ele><time>2026-04-12T08:25:40.626Z</time></trkpt><trkpt lat="43.7201185" lon="12.1273049"><ele>795.0</ele><time>2026-04-12T08:25:41.634Z</time></trkpt><trkpt lat="43.7200893" lon="12.1270647"><ele>795.0</ele><time>2026-04-12T08:25:42.651Z</time></trkpt><trkpt lat="43.7200414" lon="12.1268476"><ele>795.0</ele><time>2026-04-12T08:25:43.651Z</time></trkpt><trkpt lat="43.7199556" lon="12.1266232"><ele>795.0</ele><time>2026-04-12T08:25:44.634Z</time></trkpt><trkpt lat="43.719851" lon="12.1263866"><ele>797.0</ele><time>2026-04-12T08:25:45.64Z</time></trkpt><trkpt lat="43.7197452" lon="12.1261479"><ele>799.0</ele><time>2026-04-12T08:25:46.652Z</time></trkpt><trkpt lat="43.7196356" lon="12.1259075"><ele>801.0</ele><time>2026-04-12T08:25:47.651Z</time></trkpt><trkpt lat="43.7195295" lon="12.1256656"><ele>802.0</ele><time>2026-04-12T08:25:48.725Z</time></trkpt><trkpt lat="43.719434" lon="12.125408"><ele>803.0</ele><time>2026-04-12T08:25:49.644Z</time></trkpt><trkpt lat="43.7193558" lon="12.1251485"><ele>804.0</ele><time>2026-04-12T08:25:50.653Z</time></trkpt><trkpt lat="43.7192812" lon="12.1248899"><ele>789.5</ele><time>2026-04-12T08:25:51.64Z</time></trkpt><trkpt lat="43.7192109" lon="12.1246318"><ele>775.0</ele><time>2026-04-12T08:25:52.637Z</time></trkpt><trkpt lat="43.7190605" lon="12.1241074"><ele>780.3333333333333</ele><time>2026-04-12T08:25:54.648Z</time></trkpt><trkpt lat="43.7189855" lon="12.1238419"><ele>785.6666666666667</ele><time>2026-04-12T08:25:55.655Z</time></trkpt><trkpt lat="43.7189146" lon="12.1235913"><ele>791.0</ele><time>2026-04-12T08:25:56.647Z</time></trkpt><trkpt lat="43.718842" lon="12.1233309"><ele>793.0</ele><time>2026-04-12T08:25:57.652Z</time></trkpt><trkpt lat="43.7187691" lon="12.1230688"><ele>795.0</ele><time>2026-04-12T08:25:58.632Z</time></trkpt><trkpt lat="43.7186972" lon="12.1227895"><ele>797.0</ele><time>2026-04-12T08:25:59.74Z</time></trkpt><trkpt lat="43.7186324" lon="12.1225142"><ele>796.6666666666667</ele><time>2026-04-12T08:26:00.647Z</time></trkpt><trkpt lat="43.7185813" lon="12.1222403"><ele>796.3333333333333</ele><time>2026-04-12T08:26:01.672Z</time></trkpt><trkpt lat="43.7185396" lon="12.1219779"><ele>796.0</ele><time>2026-04-12T08:26:02.645Z</time></trkpt><trkpt lat="43.7184989" lon="12.1217344"><ele>792.0</ele><time>2026-04-12T08:26:03.645Z</time></trkpt><trkpt lat="43.7184534" lon="12.1215051"><ele>788.0</ele><time>2026-04-12T08:26:04.638Z</time></trkpt><trkpt lat="43.7183903" lon="12.1212971"><ele>784.0</ele><time>2026-04-12T08:26:05.636Z</time></trkpt><trkpt lat="43.7183189" lon="12.1211142"><ele>784.0</ele><time>2026-04-12T08:26:06.676Z</time></trkpt><trkpt lat="43.718226" lon="12.1209646"><ele>784.0</ele><time>2026-04-12T08:26:07.643Z</time></trkpt><trkpt lat="43.7181195" lon="12.1208781"><ele>784.0</ele><time>2026-04-12T08:26:08.667Z</time></trkpt><trkpt lat="43.717993" lon="12.1208535"><ele>784.0</ele><time>2026-04-12T08:26:09.651Z</time></trkpt><trkpt lat="43.7178783" lon="12.1208905"><ele>784.0</ele><time>2026-04-12T08:26:10.734Z</time></trkpt><trkpt lat="43.7177582" lon="12.1209853"><ele>784.0</ele><time>2026-04-12T08:26:11.642Z</time></trkpt><trkpt lat="43.7176603" lon="12.1211061"><ele>784.0</ele><time>2026-04-12T08:26:12.648Z</time></trkpt><trkpt lat="43.7175984" lon="12.1212683"><ele>784.0</ele><time>2026-04-12T08:26:13.642Z</time></trkpt><trkpt lat="43.7175982" lon="12.1216216"><ele>782.0</ele><time>2026-04-12T08:26:15.641Z</time></trkpt><trkpt lat="43.7176562" lon="12.1218023"><ele>780.0</ele><time>2026-04-12T08:26:16.658Z</time></trkpt><trkpt lat="43.7177639" lon="12.1219701"><ele>778.0</ele><time>2026-04-12T08:26:17.651Z</time></trkpt><trkpt lat="43.7178815" lon="12.1221284"><ele>778.0</ele><time>2026-04-12T08:26:18.647Z</time></trkpt><trkpt lat="43.7179797" lon="12.1222969"><ele>778.0</ele><time>2026-04-12T08:26:19.665Z</time></trkpt><trkpt lat="43.7180364" lon="12.1224972"><ele>778.0</ele><time>2026-04-12T08:26:20.643Z</time></trkpt><trkpt lat="43.7180539" lon="12.1227177"><ele>776.3333333333333</ele><time>2026-04-12T08:26:21.83Z</time></trkpt><trkpt lat="43.7179793" lon="12.1230917"><ele>774.6666666666667</ele><time>2026-04-12T08:26:23.656Z</time></trkpt><trkpt lat="43.7178856" lon="12.123229"><ele>773.0</ele><time>2026-04-12T08:26:24.655Z</time></trkpt><trkpt lat="43.7177562" lon="12.123351"><ele>766.0</ele><time>2026-04-12T08:26:25.677Z</time></trkpt><trkpt lat="43.7176029" lon="12.1234542"><ele>759.0</ele><time>2026-04-12T08:26:26.662Z</time></trkpt><trkpt lat="43.7174491" lon="12.1235856"><ele>752.0</ele><time>2026-04-12T08:26:27.658Z</time></trkpt><trkpt lat="43.717286" lon="12.1237015"><ele>752.0</ele><time>2026-04-12T08:26:28.664Z</time></trkpt><trkpt lat="43.7171148" lon="12.1238313"><ele>752.0</ele><time>2026-04-12T08:26:29.628Z</time></trkpt><trkpt lat="43.7169499" lon="12.1239562"><ele>752.0</ele><time>2026-04-12T08:26:30.642Z</time></trkpt><trkpt lat="43.7167993" lon="12.1240789"><ele>750.0</ele><time>2026-04-12T08:26:31.664Z</time></trkpt><trkpt lat="43.7166667" lon="12.1242056"><ele>748.0</ele><time>2026-04-12T08:26:32.633Z</time></trkpt><trkpt lat="43.7165644" lon="12.124364"><ele>746.0</ele><time>2026-04-12T08:26:33.658Z</time></trkpt><trkpt lat="43.7164961" lon="12.124563"><ele>748.5</ele><time>2026-04-12T08:26:34.661Z</time></trkpt><trkpt lat="43.7164519" lon="12.1250497"><ele>751.0</ele><time>2026-04-12T08:26:36.649Z</time></trkpt><trkpt lat="43.7164396" lon="12.1253256"><ele>751.0</ele><time>2026-04-12T08:26:37.672Z</time></trkpt><trkpt lat="43.7164183" lon="12.1255925"><ele>751.0</ele><time>2026-04-12T08:26:38.639Z</time></trkpt><trkpt lat="43.7164063" lon="12.1258542"><ele>751.0</ele><time>2026-04-12T08:26:39.649Z</time></trkpt><trkpt lat="43.7164099" lon="12.1261102"><ele>751.0</ele><time>2026-04-12T08:26:40.662Z</time></trkpt><trkpt lat="43.7164442" lon="12.1263714"><ele>751.0</ele><time>2026-04-12T08:26:41.642Z</time></trkpt><trkpt lat="43.7164844" lon="12.1266403"><ele>751.0</ele><time>2026-04-12T08:26:42.651Z</time></trkpt><trkpt lat="43.7165259" lon="12.126899"><ele>749.0</ele><time>2026-04-12T08:26:43.642Z</time></trkpt><trkpt lat="43.7165641" lon="12.1271367"><ele>747.0</ele><time>2026-04-12T08:26:44.729Z</time></trkpt><trkpt lat="43.7165977" lon="12.1273615"><ele>745.0</ele><time>2026-04-12T08:26:45.637Z</time></trkpt><trkpt lat="43.7166175" lon="12.1275682"><ele>743.0</ele><time>2026-04-12T08:26:46.658Z</time></trkpt><trkpt lat="43.7166168" lon="12.1277506"><ele>741.0</ele><time>2026-04-12T08:26:47.649Z</time></trkpt><trkpt lat="43.7165799" lon="12.1279115"><ele>739.0</ele><time>2026-04-12T08:26:48.655Z</time></trkpt><trkpt lat="43.7164917" lon="12.1280213"><ele>737.0</ele><time>2026-04-12T08:26:49.64Z</time></trkpt><trkpt lat="43.7163826" lon="12.128085"><ele>737.0</ele><time>2026-04-12T08:26:50.659Z</time></trkpt><trkpt lat="43.7162597" lon="12.1280712"><ele>737.0</ele><time>2026-04-12T08:26:51.633Z</time></trkpt><trkpt lat="43.7161324" lon="12.1279684"><ele>737.0</ele><time>2026-04-12T08:26:52.65Z</time></trkpt><trkpt lat="43.7160236" lon="12.1278245"><ele>737.0</ele><time>2026-04-12T08:26:53.685Z</time></trkpt><trkpt lat="43.7159054" lon="12.1276884"><ele>733.0</ele><time>2026-04-12T08:26:54.636Z</time></trkpt><trkpt lat="43.7157745" lon="12.1275324"><ele>729.0</ele><time>2026-04-12T08:26:55.736Z</time></trkpt><trkpt lat="43.7155313" lon="12.1272089"><ele>729.0</ele><time>2026-04-12T08:26:57.659Z</time></trkpt><trkpt lat="43.7154536" lon="12.1270132"><ele>729.0</ele><time>2026-04-12T08:26:58.65Z</time></trkpt><trkpt lat="43.7153877" lon="12.1268031"><ele>729.0</ele><time>2026-04-12T08:26:59.648Z</time></trkpt><trkpt lat="43.715344" lon="12.1265708"><ele>730.3333333333334</ele><time>2026-04-12T08:27:00.655Z</time></trkpt><trkpt lat="43.7153065" lon="12.1263157"><ele>731.6666666666667</ele><time>2026-04-12T08:27:01.65Z</time></trkpt><trkpt lat="43.7152584" lon="12.1260359"><ele>733.0</ele><time>2026-04-12T08:27:02.646Z</time></trkpt><trkpt lat="43.7151767" lon="12.1257505"><ele>727.6666666666667</ele><time>2026-04-12T08:27:03.645Z</time></trkpt><trkpt lat="43.7150839" lon="12.1254951"><ele>722.3333333333334</ele><time>2026-04-12T08:27:04.653Z</time></trkpt><trkpt lat="43.7149739" lon="12.1252379"><ele>717.0</ele><time>2026-04-12T08:27:05.633Z</time></trkpt><trkpt lat="43.714866" lon="12.1250054"><ele>717.0</ele><time>2026-04-12T08:27:06.656Z</time></trkpt><trkpt lat="43.7147586" lon="12.1247702"><ele>717.0</ele><time>2026-04-12T08:27:07.641Z</time></trkpt><trkpt lat="43.7146542" lon="12.1245428"><ele>717.0</ele><time>2026-04-12T08:27:08.638Z</time></trkpt><trkpt lat="43.7145605" lon="12.1243291"><ele>717.0</ele><time>2026-04-12T08:27:09.647Z</time></trkpt><trkpt lat="43.7144844" lon="12.1241251"><ele>717.0</ele><time>2026-04-12T08:27:10.697Z</time></trkpt><trkpt lat="43.7144447" lon="12.123896"><ele>717.0</ele><time>2026-04-12T08:27:11.647Z</time></trkpt><trkpt lat="43.7144415" lon="12.1236754"><ele>716.3333333333334</ele><time>2026-04-12T08:27:12.653Z</time></trkpt><trkpt lat="43.7144836" lon="12.1234566"><ele>715.6666666666667</ele><time>2026-04-12T08:27:13.643Z</time></trkpt><trkpt lat="43.7145488" lon="12.1232474"><ele>715.0</ele><time>2026-04-12T08:27:14.638Z</time></trkpt><trkpt lat="43.7145982" lon="12.1230528"><ele>715.0</ele><time>2026-04-12T08:27:15.661Z</time></trkpt><trkpt lat="43.7146116" lon="12.122872"><ele>715.0</ele><time>2026-04-12T08:27:16.659Z</time></trkpt><trkpt lat="43.7145142" lon="12.122624"><ele>715.0</ele><time>2026-04-12T08:27:18.647Z</time></trkpt><trkpt lat="43.7143886" lon="12.1225187"><ele>709.0</ele><time>2026-04-12T08:27:19.65Z</time></trkpt><trkpt lat="43.7142389" lon="12.1224607"><ele>703.0</ele><time>2026-04-12T08:27:20.653Z</time></trkpt><trkpt lat="43.714077" lon="12.1224325"><ele>697.0</ele><time>2026-04-12T08:27:21.648Z</time></trkpt><trkpt lat="43.7139003" lon="12.1224248"><ele>697.0</ele><time>2026-04-12T08:27:22.656Z</time></trkpt><trkpt lat="43.7137302" lon="12.122414"><ele>697.0</ele><time>2026-04-12T08:27:23.646Z</time></trkpt><trkpt lat="43.7135678" lon="12.1223875"><ele>697.0</ele><time>2026-04-12T08:27:24.682Z</time></trkpt><trkpt lat="43.7134121" lon="12.1223668"><ele>696.5</ele><time>2026-04-12T08:27:25.639Z</time></trkpt><trkpt lat="43.7132634" lon="12.122351"><ele>696.0</ele><time>2026-04-12T08:27:26.646Z</time></trkpt><trkpt lat="43.7131299" lon="12.1223643"><ele>695.5</ele><time>2026-04-12T08:27:27.687Z</time></trkpt><trkpt lat="43.713011" lon="12.1224469"><ele>695.0</ele><time>2026-04-12T08:27:28.635Z</time></trkpt><trkpt lat="43.7129313" lon="12.1225882"><ele>695.0</ele><time>2026-04-12T08:27:29.649Z</time></trkpt><trkpt lat="43.7128767" lon="12.1227963"><ele>695.0</ele><time>2026-04-12T08:27:30.658Z</time></trkpt><trkpt lat="43.7128481" lon="12.1230228"><ele>695.0</ele><time>2026-04-12T08:27:31.661Z</time></trkpt><trkpt lat="43.7128422" lon="12.1232498"><ele>694.3333333333333</ele><time>2026-04-12T08:27:32.623Z</time></trkpt><trkpt lat="43.7128726" lon="12.1234935"><ele>693.6666666666666</ele><time>2026-04-12T08:27:33.644Z</time></trkpt><trkpt lat="43.7129121" lon="12.1237336"><ele>693.0</ele><time>2026-04-12T08:27:34.658Z</time></trkpt><trkpt lat="43.7129244" lon="12.1239655"><ele>692.6666666666666</ele><time>2026-04-12T08:27:35.648Z</time></trkpt><trkpt lat="43.7128884" lon="12.1241922"><ele>692.3333333333333</ele><time>2026-04-12T08:27:36.645Z</time></trkpt><trkpt lat="43.7127997" lon="12.1244042"><ele>692.0</ele><time>2026-04-12T08:27:37.643Z</time></trkpt><trkpt lat="43.7125564" lon="12.1247682"><ele>697.6666666666666</ele><time>2026-04-12T08:27:39.646Z</time></trkpt><trkpt lat="43.7124546" lon="12.1249651"><ele>703.3333333333334</ele><time>2026-04-12T08:27:40.653Z</time></trkpt><trkpt lat="43.7124017" lon="12.1252054"><ele>709.0</ele><time>2026-04-12T08:27:41.631Z</time></trkpt><trkpt lat="43.7123631" lon="12.1254705"><ele>709.3333333333334</ele><time>2026-04-12T08:27:42.649Z</time></trkpt><trkpt lat="43.7123318" lon="12.1257499"><ele>709.6666666666666</ele><time>2026-04-12T08:27:43.626Z</time></trkpt><trkpt lat="43.7123033" lon="12.1260282"><ele>710.0</ele><time>2026-04-12T08:27:44.639Z</time></trkpt><trkpt lat="43.7122765" lon="12.1262925"><ele>710.0</ele><time>2026-04-12T08:27:45.637Z</time></trkpt><trkpt lat="43.7122537" lon="12.1265271"><ele>710.0</ele><time>2026-04-12T08:27:46.638Z</time></trkpt><trkpt lat="43.7122257" lon="12.1267144"><ele>710.0</ele><time>2026-04-12T08:27:47.633Z</time></trkpt><trkpt lat="43.7121907" lon="12.1268731"><ele>710.0</ele><time>2026-04-12T08:27:48.645Z</time></trkpt><trkpt lat="43.7121253" lon="12.1269982"><ele>710.0</ele><time>2026-04-12T08:27:49.642Z</time></trkpt><trkpt lat="43.7120197" lon="12.1270821"><ele>710.0</ele><time>2026-04-12T08:27:50.637Z</time></trkpt><trkpt lat="43.7118782" lon="12.1270906"><ele>710.0</ele><time>2026-04-12T08:27:51.635Z</time></trkpt><trkpt lat="43.711706" lon="12.1270423"><ele>710.0</ele><time>2026-04-12T08:27:52.631Z</time></trkpt><trkpt lat="43.7115555" lon="12.1269576"><ele>712.75</ele><time>2026-04-12T08:27:53.632Z</time></trkpt><trkpt lat="43.711426" lon="12.126824"><ele>715.5</ele><time>2026-04-12T08:27:54.634Z</time></trkpt><trkpt lat="43.7113649" lon="12.1266837"><ele>718.25</ele><time>2026-04-12T08:27:55.665Z</time></trkpt><trkpt lat="43.7113426" lon="12.1264744"><ele>721.0</ele><time>2026-04-12T08:27:56.634Z</time></trkpt><trkpt lat="43.7113584" lon="12.1262613"><ele>723.0</ele><time>2026-04-12T08:27:57.661Z</time></trkpt><trkpt lat="43.71141" lon="12.1260512"><ele>725.0</ele><time>2026-04-12T08:27:58.632Z</time></trkpt><trkpt lat="43.7115714" lon="12.1256407"><ele>727.0</ele><time>2026-04-12T08:28:00.642Z</time></trkpt><trkpt lat="43.7116526" lon="12.1254197"><ele>729.0</ele><time>2026-04-12T08:28:01.635Z</time></trkpt><trkpt lat="43.7117262" lon="12.1251944"><ele>731.0</ele><time>2026-04-12T08:28:02.663Z</time></trkpt><trkpt lat="43.7117907" lon="12.1249677"><ele>733.0</ele><time>2026-04-12T08:28:03.65Z</time></trkpt><trkpt lat="43.7118174" lon="12.1247472"><ele>735.0</ele><time>2026-04-12T08:28:04.646Z</time></trkpt><trkpt lat="43.711813" lon="12.1244954"><ele>737.0</ele><time>2026-04-12T08:28:05.642Z</time></trkpt><trkpt lat="43.7117895" lon="12.1242172"><ele>736.3333333333333</ele><time>2026-04-12T08:28:06.635Z</time></trkpt><trkpt lat="43.7117762" lon="12.123937"><ele>735.6666666666666</ele><time>2026-04-12T08:28:07.637Z</time></trkpt><trkpt lat="43.7117636" lon="12.1236523"><ele>735.0</ele><time>2026-04-12T08:28:08.645Z</time></trkpt><trkpt lat="43.7117496" lon="12.1233994"><ele>734.25</ele><time>2026-04-12T08:28:09.635Z</time></trkpt><trkpt lat="43.7117457" lon="12.1231724"><ele>733.5</ele><time>2026-04-12T08:28:10.653Z</time></trkpt><trkpt lat="43.7117353" lon="12.1229982"><ele>732.75</ele><time>2026-04-12T08:28:11.723Z</time></trkpt><trkpt lat="43.7117086" lon="12.1228466"><ele>732.0</ele><time>2026-04-12T08:28:12.64Z</time></trkpt><trkpt lat="43.7116519" lon="12.122709"><ele>732.0</ele><time>2026-04-12T08:28:13.645Z</time></trkpt><trkpt lat="43.7115696" lon="12.1226523"><ele>732.0</ele><time>2026-04-12T08:28:14.653Z</time></trkpt><trkpt lat="43.7114559" lon="12.1226324"><ele>732.0</ele><time>2026-04-12T08:28:15.653Z</time></trkpt><trkpt lat="43.711334" lon="12.1226914"><ele>732.0</ele><time>2026-04-12T08:28:16.664Z</time></trkpt><trkpt lat="43.711216" lon="12.122788"><ele>732.0</ele><time>2026-04-12T08:28:17.66Z</time></trkpt><trkpt lat="43.7111435" lon="12.1229475"><ele>732.0</ele><time>2026-04-12T08:28:18.644Z</time></trkpt><trkpt lat="43.7111209" lon="12.1231344"><ele>732.0</ele><time>2026-04-12T08:28:19.65Z</time></trkpt><trkpt lat="43.7111557" lon="12.1235589"><ele>733.0</ele><time>2026-04-12T08:28:21.649Z</time></trkpt><trkpt lat="43.7111727" lon="12.1237795"><ele>734.0</ele><time>2026-04-12T08:28:22.652Z</time></trkpt><trkpt lat="43.711164" lon="12.124017"><ele>735.0</ele><time>2026-04-12T08:28:23.686Z</time></trkpt><trkpt lat="43.7111552" lon="12.1242519"><ele>735.5</ele><time>2026-04-12T08:28:24.649Z</time></trkpt><trkpt lat="43.711115" lon="12.1244793"><ele>736.0</ele><time>2026-04-12T08:28:25.619Z</time></trkpt><trkpt lat="43.7110522" lon="12.1246714"><ele>736.5</ele><time>2026-04-12T08:28:26.637Z</time></trkpt><trkpt lat="43.7109845" lon="12.1248087"><ele>737.0</ele><time>2026-04-12T08:28:27.644Z</time></trkpt><trkpt lat="43.7108902" lon="12.124935"><ele>741.0</ele><time>2026-04-12T08:28:28.641Z</time></trkpt><trkpt lat="43.7107665" lon="12.1250152"><ele>745.0</ele><time>2026-04-12T08:28:29.633Z</time></trkpt><trkpt lat="43.7106058" lon="12.1250299"><ele>749.0</ele><time>2026-04-12T08:28:30.647Z</time></trkpt><trkpt lat="43.7104439" lon="12.1250003"><ele>749.0</ele><time>2026-04-12T08:28:31.64Z</time></trkpt><trkpt lat="43.7102782" lon="12.1249476"><ele>749.0</ele><time>2026-04-12T08:28:32.644Z</time></trkpt><trkpt lat="43.7101049" lon="12.1248978"><ele>749.0</ele><time>2026-04-12T08:28:33.637Z</time></trkpt><trkpt lat="43.7099359" lon="12.1248761"><ele>754.0</ele><time>2026-04-12T08:28:34.663Z</time></trkpt><trkpt lat="43.7097686" lon="12.1249392"><ele>759.0</ele><time>2026-04-12T08:28:35.645Z</time></trkpt><trkpt lat="43.7096125" lon="12.1250669"><ele>764.0</ele><time>2026-04-12T08:28:36.733Z</time></trkpt><trkpt lat="43.7094714" lon="12.1252258"><ele>768.6666666666666</ele><time>2026-04-12T08:28:37.637Z</time></trkpt><trkpt lat="43.7093184" lon="12.1253993"><ele>773.3333333333333</ele><time>2026-04-12T08:28:38.678Z</time></trkpt><trkpt lat="43.7091577" lon="12.1255649"><ele>778.0</ele><time>2026-04-12T08:28:39.657Z</time></trkpt><trkpt lat="43.7089983" lon="12.1257096"><ele>782.0</ele><time>2026-04-12T08:28:40.663Z</time></trkpt><trkpt lat="43.7086461" lon="12.1260278"><ele>786.0</ele><time>2026-04-12T08:28:42.65Z</time></trkpt><trkpt lat="43.7084627" lon="12.1261942"><ele>786.0</ele><time>2026-04-12T08:28:43.648Z</time></trkpt><trkpt lat="43.7082861" lon="12.1263737"><ele>786.0</ele><time>2026-04-12T08:28:44.648Z</time></trkpt><trkpt lat="43.7081189" lon="12.1265799"><ele>786.0</ele><time>2026-04-12T08:28:45.656Z</time></trkpt><trkpt lat="43.7079693" lon="12.1267867"><ele>786.0</ele><time>2026-04-12T08:28:46.651Z</time></trkpt><trkpt lat="43.7078245" lon="12.1269969"><ele>786.0</ele><time>2026-04-12T08:28:47.642Z</time></trkpt><trkpt lat="43.707677" lon="12.1272041"><ele>786.0</ele><time>2026-04-12T08:28:48.622Z</time></trkpt><trkpt lat="43.7075281" lon="12.1274113"><ele>786.0</ele><time>2026-04-12T08:28:49.66Z</time></trkpt><trkpt lat="43.7073867" lon="12.1276093"><ele>786.0</ele><time>2026-04-12T08:28:50.634Z</time></trkpt><trkpt lat="43.7072476" lon="12.1277917"><ele>786.0</ele><time>2026-04-12T08:28:51.615Z</time></trkpt><trkpt lat="43.7071035" lon="12.1279635"><ele>786.0</ele><time>2026-04-12T08:28:52.651Z</time></trkpt><trkpt lat="43.7069408" lon="12.1281044"><ele>786.0</ele><time>2026-04-12T08:28:53.672Z</time></trkpt><trkpt lat="43.7067666" lon="12.1282257"><ele>786.0</ele><time>2026-04-12T08:28:54.665Z</time></trkpt><trkpt lat="43.7065904" lon="12.1283447"><ele>786.0</ele><time>2026-04-12T08:28:55.652Z</time></trkpt><trkpt lat="43.7064082" lon="12.1284639"><ele>786.0</ele><time>2026-04-12T08:28:56.644Z</time></trkpt><trkpt lat="43.7062246" lon="12.1285781"><ele>786.0</ele><time>2026-04-12T08:28:57.637Z</time></trkpt><trkpt lat="43.7060511" lon="12.1286921"><ele>786.0</ele><time>2026-04-12T08:28:58.629Z</time></trkpt><trkpt lat="43.7058858" lon="12.1287887"><ele>786.0</ele><time>2026-04-12T08:28:59.641Z</time></trkpt><trkpt lat="43.7057297" lon="12.12889"><ele>786.0</ele><time>2026-04-12T08:29:00.642Z</time></trkpt><trkpt lat="43.7055742" lon="12.1289882"><ele>783.5</ele><time>2026-04-12T08:29:01.685Z</time></trkpt><trkpt lat="43.7052714" lon="12.1291937"><ele>781.0</ele><time>2026-04-12T08:29:03.631Z</time></trkpt><trkpt lat="43.7051131" lon="12.1292982"><ele>781.0</ele><time>2026-04-12T08:29:04.652Z</time></trkpt><trkpt lat="43.704961" lon="12.1293926"><ele>781.0</ele><time>2026-04-12T08:29:05.627Z</time></trkpt><trkpt lat="43.7048326" lon="12.1295009"><ele>781.0</ele><time>2026-04-12T08:29:06.65Z</time></trkpt><trkpt lat="43.7047393" lon="12.1296435"><ele>781.0</ele><time>2026-04-12T08:29:07.721Z</time></trkpt><trkpt lat="43.7046872" lon="12.1298117"><ele>781.0</ele><time>2026-04-12T08:29:08.65Z</time></trkpt><trkpt lat="43.7046948" lon="12.1300106"><ele>781.0</ele><time>2026-04-12T08:29:09.643Z</time></trkpt><trkpt lat="43.7047486" lon="12.1301977"><ele>781.0</ele><time>2026-04-12T08:29:10.713Z</time></trkpt><trkpt lat="43.7047971" lon="12.1303666"><ele>778.5</ele><time>2026-04-12T08:29:11.717Z</time></trkpt><trkpt lat="43.7048561" lon="12.1304978"><ele>776.0</ele><time>2026-04-12T08:29:12.646Z</time></trkpt><trkpt lat="43.7049523" lon="12.1305727"><ele>773.5</ele><time>2026-04-12T08:29:13.645Z</time></trkpt><trkpt lat="43.7050849" lon="12.130584"><ele>771.0</ele><time>2026-04-12T08:29:14.648Z</time></trkpt><trkpt lat="43.7052322" lon="12.1305664"><ele>770.0</ele><time>2026-04-12T08:29:15.638Z</time></trkpt><trkpt lat="43.7053846" lon="12.1305434"><ele>769.0</ele><time>2026-04-12T08:29:16.652Z</time></trkpt><trkpt lat="43.705545" lon="12.1305215"><ele>768.0</ele><time>2026-04-12T08:29:17.65Z</time></trkpt><trkpt lat="43.7057023" lon="12.1305133"><ele>768.0</ele><time>2026-04-12T08:29:18.662Z</time></trkpt><trkpt lat="43.705857" lon="12.1305576"><ele>768.0</ele><time>2026-04-12T08:29:19.634Z</time></trkpt><trkpt lat="43.7060087" lon="12.130648"><ele>768.0</ele><time>2026-04-12T08:29:20.663Z</time></trkpt><trkpt lat="43.7061477" lon="12.1307773"><ele>777.0</ele><time>2026-04-12T08:29:21.789Z</time></trkpt><trkpt lat="43.7065426" lon="12.1312265"><ele>777.0</ele><time>2026-04-12T08:29:24.639Z</time></trkpt><trkpt lat="43.7066714" lon="12.1313875"><ele>777.0</ele><time>2026-04-12T08:29:25.64Z</time></trkpt><trkpt lat="43.7068078" lon="12.13155"><ele>777.0</ele><time>2026-04-12T08:29:26.646Z</time></trkpt><trkpt lat="43.7069569" lon="12.1317081"><ele>780.6666666666667</ele><time>2026-04-12T08:29:27.652Z</time></trkpt><trkpt lat="43.7071181" lon="12.1318363"><ele>784.3333333333334</ele><time>2026-04-12T08:29:28.673Z</time></trkpt><trkpt lat="43.7072926" lon="12.131919"><ele>788.0</ele><time>2026-04-12T08:29:29.634Z</time></trkpt><trkpt lat="43.7074796" lon="12.131969"><ele>788.0</ele><time>2026-04-12T08:29:30.735Z</time></trkpt><trkpt lat="43.7076696" lon="12.1320024"><ele>788.0</ele><time>2026-04-12T08:29:31.743Z</time></trkpt><trkpt lat="43.7078627" lon="12.1320253"><ele>788.0</ele><time>2026-04-12T08:29:32.723Z</time></trkpt><trkpt lat="43.7080416" lon="12.1320448"><ele>789.0</ele><time>2026-04-12T08:29:33.627Z</time></trkpt><trkpt lat="43.7081974" lon="12.1320671"><ele>790.0</ele><time>2026-04-12T08:29:34.663Z</time></trkpt><trkpt lat="43.7083373" lon="12.1321094"><ele>791.0</ele><time>2026-04-12T08:29:35.632Z</time></trkpt><trkpt lat="43.7084594" lon="12.1321804"><ele>792.0</ele><time>2026-04-12T08:29:36.641Z</time></trkpt><trkpt lat="43.7085547" lon="12.1323259"><ele>795.3333333333333</ele><time>2026-04-12T08:29:37.642Z</time></trkpt><trkpt lat="43.7086132" lon="12.1325142"><ele>798.6666666666666</ele><time>2026-04-12T08:29:38.636Z</time></trkpt><trkpt lat="43.7086185" lon="12.1327149"><ele>802.0</ele><time>2026-04-12T08:29:39.66Z</time></trkpt><trkpt lat="43.7085586" lon="12.1329224"><ele>802.0</ele><time>2026-04-12T08:29:40.641Z</time></trkpt><trkpt lat="43.7084673" lon="12.1330907"><ele>802.0</ele><time>2026-04-12T08:29:41.64Z</time></trkpt><trkpt lat="43.7083392" lon="12.1332168"><ele>802.0</ele><time>2026-04-12T08:29:42.712Z</time></trkpt><trkpt lat="43.7078607" lon="12.1334922"><ele>804.0</ele><time>2026-04-12T08:29:45.647Z</time></trkpt><trkpt lat="43.7076976" lon="12.1335965"><ele>806.0</ele><time>2026-04-12T08:29:46.648Z</time></trkpt><trkpt lat="43.7075292" lon="12.1337071"><ele>808.0</ele><time>2026-04-12T08:29:47.645Z</time></trkpt><trkpt lat="43.7073587" lon="12.1338123"><ele>808.0</ele><time>2026-04-12T08:29:48.629Z</time></trkpt><trkpt lat="43.7072033" lon="12.1339235"><ele>808.0</ele><time>2026-04-12T08:29:49.64Z</time></trkpt><trkpt lat="43.7070769" lon="12.1340757"><ele>808.0</ele><time>2026-04-12T08:29:50.639Z</time></trkpt><trkpt lat="43.7069725" lon="12.1342847"><ele>810.3333333333333</ele><time>2026-04-12T08:29:51.644Z</time></trkpt><trkpt lat="43.7069025" lon="12.1345419"><ele>812.6666666666667</ele><time>2026-04-12T08:29:52.648Z</time></trkpt><trkpt lat="43.7068374" lon="12.1348202"><ele>815.0</ele><time>2026-04-12T08:29:53.66Z</time></trkpt><trkpt lat="43.7067722" lon="12.1350613"><ele>817.6666666666667</ele><time>2026-04-12T08:29:54.72Z</time></trkpt><trkpt lat="43.7066925" lon="12.1352782"><ele>820.3333333333333</ele><time>2026-04-12T08:29:55.628Z</time></trkpt><trkpt lat="43.7065942" lon="12.1354459"><ele>823.0</ele><time>2026-04-12T08:29:56.635Z</time></trkpt><trkpt lat="43.70648" lon="12.1355423"><ele>823.0</ele><time>2026-04-12T08:29:57.652Z</time></trkpt><trkpt lat="43.7063444" lon="12.1355769"><ele>823.0</ele><time>2026-04-12T08:29:58.669Z</time></trkpt><trkpt lat="43.7061925" lon="12.1355369"><ele>823.0</ele><time>2026-04-12T08:29:59.635Z</time></trkpt><trkpt lat="43.7060261" lon="12.1354323"><ele>823.3333333333333</ele><time>2026-04-12T08:30:00.638Z</time></trkpt><trkpt lat="43.705873" lon="12.1353102"><ele>823.6666666666667</ele><time>2026-04-12T08:30:01.646Z</time></trkpt><trkpt lat="43.7057199" lon="12.1351899"><ele>824.0</ele><time>2026-04-12T08:30:02.636Z</time></trkpt><trkpt lat="43.7055815" lon="12.1350878"><ele>824.0</ele><time>2026-04-12T08:30:03.637Z</time></trkpt><trkpt lat="43.705297" lon="12.1350239"><ele>824.0</ele><time>2026-04-12T08:30:05.655Z</time></trkpt><trkpt lat="43.705155" lon="12.135086"><ele>824.0</ele><time>2026-04-12T08:30:06.665Z</time></trkpt><trkpt lat="43.7050336" lon="12.1352043"><ele>824.25</ele><time>2026-04-12T08:30:07.646Z</time></trkpt><trkpt lat="43.7049588" lon="12.1353776"><ele>824.5</ele><time>2026-04-12T08:30:08.637Z</time></trkpt><trkpt lat="43.7049401" lon="12.135548"><ele>824.75</ele><time>2026-04-12T08:30:09.65Z</time></trkpt><trkpt lat="43.7049801" lon="12.1357121"><ele>825.0</ele><time>2026-04-12T08:30:10.64Z</time></trkpt><trkpt lat="43.7050695" lon="12.1358564"><ele>827.3333333333333</ele><time>2026-04-12T08:30:11.645Z</time></trkpt><trkpt lat="43.7051874" lon="12.1359864"><ele>829.6666666666666</ele><time>2026-04-12T08:30:12.637Z</time></trkpt><trkpt lat="43.7053107" lon="12.1361135"><ele>832.0</ele><time>2026-04-12T08:30:13.643Z</time></trkpt><trkpt lat="43.7053837" lon="12.1363381"><ele>835.6666666666666</ele><time>2026-04-12T08:30:14.638Z</time></trkpt><trkpt lat="43.7054014" lon="12.136578"><ele>839.3333333333333</ele><time>2026-04-12T08:30:15.643Z</time></trkpt><trkpt lat="43.7053722" lon="12.1368429"><ele>843.0</ele><time>2026-04-12T08:30:16.7Z</time></trkpt><trkpt lat="43.7053309" lon="12.1370819"><ele>843.0</ele><time>2026-04-12T08:30:17.625Z</time></trkpt><trkpt lat="43.7052749" lon="12.1373083"><ele>843.0</ele><time>2026-04-12T08:30:18.644Z</time></trkpt><trkpt lat="43.7051779" lon="12.1375"><ele>843.0</ele><time>2026-04-12T08:30:19.643Z</time></trkpt><trkpt lat="43.7050541" lon="12.1376641"><ele>842.6666666666667</ele><time>2026-04-12T08:30:20.652Z</time></trkpt><trkpt lat="43.7049116" lon="12.1378131"><ele>842.3333333333334</ele><time>2026-04-12T08:30:21.641Z</time></trkpt><trkpt lat="43.7047668" lon="12.1379465"><ele>842.0</ele><time>2026-04-12T08:30:22.644Z</time></trkpt><trkpt lat="43.7046403" lon="12.1380682"><ele>842.0</ele><time>2026-04-12T08:30:23.644Z</time></trkpt><trkpt lat="43.7045315" lon="12.1381906"><ele>842.0</ele><time>2026-04-12T08:30:24.638Z</time></trkpt><trkpt lat="43.7043413" lon="12.138381"><ele>842.0</ele><time>2026-04-12T08:30:26.632Z</time></trkpt><trkpt lat="43.7042783" lon="12.138441"><ele>843.0000000000001</ele><time>2026-04-12T08:30:27.63Z</time></trkpt><trkpt lat="43.7042347" lon="12.1385367"><ele>844.0</ele><time>2026-04-12T08:30:29.632Z</time></trkpt><trkpt lat="43.7042914" lon="12.1386347"><ele>845.0</ele><time>2026-04-12T08:30:32.643Z</time></trkpt><trkpt lat="43.7043646" lon="12.138655"><ele>846.0</ele><time>2026-04-12T08:30:34.645Z</time></trkpt><trkpt lat="43.7044328" lon="12.1386646"><ele>847.0000000000001</ele><time>2026-04-12T08:30:37.645Z</time></trkpt><trkpt lat="43.704506" lon="12.1386731"><ele>848.0</ele><time>2026-04-12T08:30:40.646Z</time></trkpt><trkpt lat="43.704567" lon="12.1386472"><ele>848.0</ele><time>2026-04-12T08:31:12.653Z</time></trkpt><trkpt lat="43.7044366" lon="12.1385623"><ele>848.0</ele><time>2026-04-12T08:31:16.643Z</time></trkpt><trkpt lat="43.7043677" lon="12.1385743"><ele>848.0</ele><time>2026-04-12T08:31:17.642Z</time></trkpt><trkpt lat="43.7042736" lon="12.138587"><ele>848.0</ele><time>2026-04-12T08:31:18.641Z</time></trkpt><trkpt lat="43.7041976" lon="12.1386019"><ele>848.0</ele><time>2026-04-12T08:31:19.657Z</time></trkpt><trkpt lat="43.7040934" lon="12.138609"><ele>844.5999999999999</ele><time>2026-04-12T08:31:20.65Z</time></trkpt><trkpt lat="43.7039705" lon="12.1386121"><ele>841.1999999999999</ele><time>2026-04-12T08:31:21.647Z</time></trkpt><trkpt lat="43.7038585" lon="12.1386114"><ele>837.8</ele><time>2026-04-12T08:31:22.641Z</time></trkpt><trkpt lat="43.7037617" lon="12.1386106"><ele>834.4</ele><time>2026-04-12T08:31:23.644Z</time></trkpt><trkpt lat="43.7036896" lon="12.1386042"><ele>831.0</ele><time>2026-04-12T08:31:24.645Z</time></trkpt><trkpt lat="43.7036182" lon="12.1385941"><ele>831.0</ele><time>2026-04-12T08:31:40.64Z</time></trkpt><trkpt lat="43.7034925" lon="12.1384683"><ele>831.0</ele><time>2026-04-12T08:31:54.639Z</time></trkpt><trkpt lat="43.7036274" lon="12.1384673"><ele>831.0</ele><time>2026-04-12T08:54:25.98Z</time></trkpt><trkpt lat="43.7034004" lon="12.1384862"><ele>831.0</ele><time>2026-04-12T08:54:50.675Z</time></trkpt><trkpt lat="43.7033414" lon="12.1385807"><ele>831.0</ele><time>2026-04-12T08:54:57.674Z</time></trkpt><trkpt lat="43.7033975" lon="12.1386353"><ele>831.0</ele><time>2026-04-12T08:55:18.707Z</time></trkpt><trkpt lat="43.7035971" lon="12.1386143"><ele>831.0</ele><time>2026-04-12T08:55:21.675Z</time></trkpt><trkpt lat="43.7037104" lon="12.1386125"><ele>831.0</ele><time>2026-04-12T08:55:22.686Z</time></trkpt><trkpt lat="43.7038346" lon="12.1386159"><ele>831.0</ele><time>2026-04-12T08:55:23.676Z</time></trkpt><trkpt lat="43.7039674" lon="12.1386215"><ele>831.0</ele><time>2026-04-12T08:55:24.675Z</time></trkpt><trkpt lat="43.7041027" lon="12.1386275"><ele>831.0</ele><time>2026-04-12T08:55:25.693Z</time></trkpt><trkpt lat="43.7042368" lon="12.1386288"><ele>831.0</ele><time>2026-04-12T08:55:26.689Z</time></trkpt><trkpt lat="43.7043667" lon="12.1386293"><ele>831.0</ele><time>2026-04-12T08:55:27.681Z</time></trkpt><trkpt lat="43.7044851" lon="12.1386334"><ele>831.0</ele><time>2026-04-12T08:55:28.684Z</time></trkpt><trkpt lat="43.7045894" lon="12.1386454"><ele>831.0</ele><time>2026-04-12T08:55:29.68Z</time></trkpt><trkpt lat="43.7046983" lon="12.1386669"><ele>835.25</ele><time>2026-04-12T08:55:30.744Z</time></trkpt><trkpt lat="43.704795" lon="12.1387201"><ele>839.5</ele><time>2026-04-12T08:55:31.688Z</time></trkpt><trkpt lat="43.7048952" lon="12.1388078"><ele>843.75</ele><time>2026-04-12T08:55:32.707Z</time></trkpt><trkpt lat="43.7049916" lon="12.1389144"><ele>848.0</ele><time>2026-04-12T08:55:33.692Z</time></trkpt><trkpt lat="43.7051025" lon="12.139028"><ele>846.5999999999999</ele><time>2026-04-12T08:55:34.685Z</time></trkpt><trkpt lat="43.7052099" lon="12.139143"><ele>845.1999999999999</ele><time>2026-04-12T08:55:35.695Z</time></trkpt><trkpt lat="43.7052979" lon="12.139251"><ele>843.8</ele><time>2026-04-12T08:55:36.689Z</time></trkpt><trkpt lat="43.705367" lon="12.1393711"><ele>842.4</ele><time>2026-04-12T08:55:37.685Z</time></trkpt><trkpt lat="43.7053966" lon="12.1394763"><ele>841.0</ele><time>2026-04-12T08:55:38.692Z</time></trkpt><trkpt lat="43.7053597" lon="12.1396186"><ele>841.0</ele><time>2026-04-12T08:55:39.686Z</time></trkpt><trkpt lat="43.7052025" lon="12.1398499"><ele>841.0</ele><time>2026-04-12T08:55:41.666Z</time></trkpt><trkpt lat="43.7051044" lon="12.1399417"><ele>841.0</ele><time>2026-04-12T08:55:42.681Z</time></trkpt><trkpt lat="43.7049791" lon="12.1400025"><ele>842.5</ele><time>2026-04-12T08:55:43.697Z</time></trkpt><trkpt lat="43.7048279" lon="12.1400238"><ele>844.0</ele><time>2026-04-12T08:55:44.681Z</time></trkpt><trkpt lat="43.7046829" lon="12.1400435"><ele>845.5</ele><time>2026-04-12T08:55:45.675Z</time></trkpt><trkpt lat="43.7045385" lon="12.1400785"><ele>847.0</ele><time>2026-04-12T08:55:46.689Z</time></trkpt><trkpt lat="43.7043999" lon="12.1401555"><ele>842.25</ele><time>2026-04-12T08:55:47.671Z</time></trkpt><trkpt lat="43.704271" lon="12.1402425"><ele>837.5</ele><time>2026-04-12T08:55:48.691Z</time></trkpt><trkpt lat="43.7041664" lon="12.14035"><ele>832.75</ele><time>2026-04-12T08:55:49.681Z</time></trkpt><trkpt lat="43.7041057" lon="12.1404818"><ele>828.0</ele><time>2026-04-12T08:55:50.673Z</time></trkpt><trkpt lat="43.704095" lon="12.1406408"><ele>831.0</ele><time>2026-04-12T08:55:51.671Z</time></trkpt><trkpt lat="43.7041263" lon="12.1408291"><ele>834.0</ele><time>2026-04-12T08:55:52.679Z</time></trkpt><trkpt lat="43.7042032" lon="12.1410038"><ele>837.0</ele><time>2026-04-12T08:55:53.691Z</time></trkpt><trkpt lat="43.7043166" lon="12.1411782"><ele>841.6666666666667</ele><time>2026-04-12T08:55:54.683Z</time></trkpt><trkpt lat="43.7044392" lon="12.1413249"><ele>846.3333333333334</ele><time>2026-04-12T08:55:55.696Z</time></trkpt><trkpt lat="43.7045716" lon="12.1414738"><ele>851.0</ele><time>2026-04-12T08:55:56.675Z</time></trkpt><trkpt lat="43.7046832" lon="12.1416495"><ele>851.0</ele><time>2026-04-12T08:55:57.686Z</time></trkpt><trkpt lat="43.7047717" lon="12.1418192"><ele>851.0</ele><time>2026-04-12T08:55:58.677Z</time></trkpt><trkpt lat="43.7047787" lon="12.1420311"><ele>851.0</ele><time>2026-04-12T08:55:59.687Z</time></trkpt><trkpt lat="43.7047481" lon="12.1422155"><ele>851.0</ele><time>2026-04-12T08:56:00.693Z</time></trkpt><trkpt lat="43.7045662" lon="12.1425314"><ele>851.6666666666667</ele><time>2026-04-12T08:56:02.698Z</time></trkpt><trkpt lat="43.7044482" lon="12.1427071"><ele>852.3333333333333</ele><time>2026-04-12T08:56:03.69Z</time></trkpt><trkpt lat="43.7043498" lon="12.1429162"><ele>853.0</ele><time>2026-04-12T08:56:04.67Z</time></trkpt><trkpt lat="43.7042772" lon="12.143115"><ele>853.0</ele><time>2026-04-12T08:56:05.682Z</time></trkpt><trkpt lat="43.7042454" lon="12.1432877"><ele>853.0</ele><time>2026-04-12T08:56:06.681Z</time></trkpt><trkpt lat="43.7042611" lon="12.143431"><ele>853.0</ele><time>2026-04-12T08:56:07.68Z</time></trkpt><trkpt lat="43.7043339" lon="12.1435608"><ele>853.0</ele><time>2026-04-12T08:56:08.68Z</time></trkpt><trkpt lat="43.7044571" lon="12.1436658"><ele>853.0</ele><time>2026-04-12T08:56:09.703Z</time></trkpt><trkpt lat="43.7046135" lon="12.1437615"><ele>853.0</ele><time>2026-04-12T08:56:10.677Z</time></trkpt><trkpt lat="43.7047692" lon="12.1438755"><ele>853.0</ele><time>2026-04-12T08:56:11.719Z</time></trkpt><trkpt lat="43.7049031" lon="12.1440096"><ele>850.3333333333333</ele><time>2026-04-12T08:56:12.688Z</time></trkpt><trkpt lat="43.7049639" lon="12.1442134"><ele>847.6666666666667</ele><time>2026-04-12T08:56:13.667Z</time></trkpt><trkpt lat="43.7049446" lon="12.1444734"><ele>845.0</ele><time>2026-04-12T08:56:14.693Z</time></trkpt><trkpt lat="43.7049123" lon="12.1447355"><ele>844.6666666666667</ele><time>2026-04-12T08:56:15.748Z</time></trkpt><trkpt lat="43.7048723" lon="12.145019"><ele>844.3333333333333</ele><time>2026-04-12T08:56:16.681Z</time></trkpt><trkpt lat="43.7048503" lon="12.1452896"><ele>844.0</ele><time>2026-04-12T08:56:17.704Z</time></trkpt><trkpt lat="43.7048331" lon="12.1455714"><ele>842.0</ele><time>2026-04-12T08:56:18.685Z</time></trkpt><trkpt lat="43.7048167" lon="12.1458266"><ele>840.0</ele><time>2026-04-12T08:56:19.739Z</time></trkpt><trkpt lat="43.7048084" lon="12.1460675"><ele>838.0</ele><time>2026-04-12T08:56:20.677Z</time></trkpt><trkpt lat="43.7048997" lon="12.1464736"><ele>832.5</ele><time>2026-04-12T08:56:22.692Z</time></trkpt><trkpt lat="43.7050904" lon="12.1468467"><ele>827.0</ele><time>2026-04-12T08:56:24.715Z</time></trkpt><trkpt lat="43.7051764" lon="12.14703"><ele>827.0</ele><time>2026-04-12T08:56:25.69Z</time></trkpt><trkpt lat="43.705237" lon="12.1472077"><ele>827.0</ele><time>2026-04-12T08:56:26.769Z</time></trkpt><trkpt lat="43.7052561" lon="12.1474168"><ele>827.0</ele><time>2026-04-12T08:56:27.687Z</time></trkpt><trkpt lat="43.7052327" lon="12.1476162"><ele>827.0</ele><time>2026-04-12T08:56:28.692Z</time></trkpt><trkpt lat="43.705224" lon="12.1478023"><ele>826.5</ele><time>2026-04-12T08:56:29.724Z</time></trkpt><trkpt lat="43.7052553" lon="12.1479936"><ele>826.0</ele><time>2026-04-12T08:56:30.693Z</time></trkpt><trkpt lat="43.7053491" lon="12.148156"><ele>825.5</ele><time>2026-04-12T08:56:31.679Z</time></trkpt><trkpt lat="43.7054715" lon="12.1482726"><ele>825.0</ele><time>2026-04-12T08:56:32.691Z</time></trkpt><trkpt lat="43.7055812" lon="12.1483922"><ele>825.0</ele><time>2026-04-12T08:56:33.683Z</time></trkpt><trkpt lat="43.7056301" lon="12.1485518"><ele>825.0</ele><time>2026-04-12T08:56:34.707Z</time></trkpt><trkpt lat="43.7056207" lon="12.1487429"><ele>825.0</ele><time>2026-04-12T08:56:35.684Z</time></trkpt><trkpt lat="43.7055938" lon="12.1489517"><ele>825.0</ele><time>2026-04-12T08:56:36.675Z</time></trkpt><trkpt lat="43.7055382" lon="12.1491097"><ele>823.6666666666667</ele><time>2026-04-12T08:56:37.746Z</time></trkpt><trkpt lat="43.7053971" lon="12.1492277"><ele>822.3333333333334</ele><time>2026-04-12T08:56:38.732Z</time></trkpt><trkpt lat="43.7052535" lon="12.1493495"><ele>821.0</ele><time>2026-04-12T08:56:39.713Z</time></trkpt><trkpt lat="43.7051574" lon="12.1494758"><ele>819.5</ele><time>2026-04-12T08:56:40.767Z</time></trkpt><trkpt lat="43.7051156" lon="12.1496098"><ele>818.0</ele><time>2026-04-12T08:56:41.682Z</time></trkpt><trkpt lat="43.7051327" lon="12.1497313"><ele>816.5</ele><time>2026-04-12T08:56:42.711Z</time></trkpt><trkpt lat="43.7052121" lon="12.1498338"><ele>815.0</ele><time>2026-04-12T08:56:43.686Z</time></trkpt><trkpt lat="43.7054723" lon="12.1499385"><ele>815.0</ele><time>2026-04-12T08:56:45.667Z</time></trkpt><trkpt lat="43.7056262" lon="12.1499914"><ele>815.0</ele><time>2026-04-12T08:56:46.682Z</time></trkpt><trkpt lat="43.7057831" lon="12.150061"><ele>815.0</ele><time>2026-04-12T08:56:47.672Z</time></trkpt><trkpt lat="43.7059067" lon="12.15018"><ele>815.0</ele><time>2026-04-12T08:56:48.685Z</time></trkpt><trkpt lat="43.7060183" lon="12.1503221"><ele>815.0</ele><time>2026-04-12T08:56:49.7Z</time></trkpt><trkpt lat="43.7061353" lon="12.1504298"><ele>815.0</ele><time>2026-04-12T08:56:50.677Z</time></trkpt><trkpt lat="43.7062658" lon="12.1504706"><ele>815.0</ele><time>2026-04-12T08:56:51.677Z</time></trkpt><trkpt lat="43.7063886" lon="12.1504407"><ele>814.25</ele><time>2026-04-12T08:56:52.721Z</time></trkpt><trkpt lat="43.7064987" lon="12.1503302"><ele>813.5</ele><time>2026-04-12T08:56:53.698Z</time></trkpt><trkpt lat="43.7065851" lon="12.1501814"><ele>812.75</ele><time>2026-04-12T08:56:54.681Z</time></trkpt><trkpt lat="43.706673" lon="12.1500264"><ele>812.0</ele><time>2026-04-12T08:56:55.682Z</time></trkpt><trkpt lat="43.7068026" lon="12.1499321"><ele>812.0</ele><time>2026-04-12T08:56:56.684Z</time></trkpt><trkpt lat="43.7069569" lon="12.149899"><ele>812.0</ele><time>2026-04-12T08:56:57.672Z</time></trkpt><trkpt lat="43.7071077" lon="12.1499317"><ele>812.0</ele><time>2026-04-12T08:56:58.705Z</time></trkpt><trkpt lat="43.7072448" lon="12.1500516"><ele>812.0</ele><time>2026-04-12T08:56:59.671Z</time></trkpt><trkpt lat="43.7073355" lon="12.1502558"><ele>812.0</ele><time>2026-04-12T08:57:00.667Z</time></trkpt><trkpt lat="43.7073755" lon="12.1505065"><ele>812.0</ele><time>2026-04-12T08:57:01.687Z</time></trkpt><trkpt lat="43.7074025" lon="12.1507492"><ele>808.6666666666667</ele><time>2026-04-12T08:57:02.705Z</time></trkpt><trkpt lat="43.7074356" lon="12.1509688"><ele>805.3333333333333</ele><time>2026-04-12T08:57:03.678Z</time></trkpt><trkpt lat="43.7074942" lon="12.1511688"><ele>802.0</ele><time>2026-04-12T08:57:04.703Z</time></trkpt><trkpt lat="43.7077084" lon="12.1514505"><ele>806.0</ele><time>2026-04-12T08:57:06.695Z</time></trkpt><trkpt lat="43.7078605" lon="12.1514983"><ele>810.0</ele><time>2026-04-12T08:57:07.707Z</time></trkpt><trkpt lat="43.708029" lon="12.1514765"><ele>814.0</ele><time>2026-04-12T08:57:08.692Z</time></trkpt><trkpt lat="43.7081931" lon="12.1514271"><ele>814.0</ele><time>2026-04-12T08:57:09.684Z</time></trkpt><trkpt lat="43.7083465" lon="12.1514081"><ele>814.0</ele><time>2026-04-12T08:57:10.679Z</time></trkpt><trkpt lat="43.7085017" lon="12.1514471"><ele>814.0</ele><time>2026-04-12T08:57:11.703Z</time></trkpt><trkpt lat="43.7086469" lon="12.1515314"><ele>814.3333333333333</ele><time>2026-04-12T08:57:12.665Z</time></trkpt><trkpt lat="43.7087785" lon="12.1516533"><ele>814.6666666666667</ele><time>2026-04-12T08:57:13.708Z</time></trkpt><trkpt lat="43.7088764" lon="12.1518186"><ele>815.0</ele><time>2026-04-12T08:57:14.679Z</time></trkpt><trkpt lat="43.7089137" lon="12.152055"><ele>815.0</ele><time>2026-04-12T08:57:15.675Z</time></trkpt><trkpt lat="43.7089247" lon="12.1523017"><ele>815.0</ele><time>2026-04-12T08:57:16.67Z</time></trkpt><trkpt lat="43.7089306" lon="12.1525441"><ele>815.0</ele><time>2026-04-12T08:57:17.678Z</time></trkpt><trkpt lat="43.7089326" lon="12.1527806"><ele>812.3333333333334</ele><time>2026-04-12T08:57:18.722Z</time></trkpt><trkpt lat="43.7089085" lon="12.1530163"><ele>809.6666666666667</ele><time>2026-04-12T08:57:19.679Z</time></trkpt><trkpt lat="43.7088304" lon="12.1532416"><ele>807.0</ele><time>2026-04-12T08:57:20.672Z</time></trkpt><trkpt lat="43.7087415" lon="12.1534129"><ele>807.0</ele><time>2026-04-12T08:57:21.677Z</time></trkpt><trkpt lat="43.7086822" lon="12.1535635"><ele>807.0</ele><time>2026-04-12T08:57:22.694Z</time></trkpt><trkpt lat="43.7086837" lon="12.1537115"><ele>807.0</ele><time>2026-04-12T08:57:23.75Z</time></trkpt><trkpt lat="43.7087399" lon="12.1538597"><ele>807.0</ele><time>2026-04-12T08:57:24.687Z</time></trkpt><trkpt lat="43.7088579" lon="12.1540282"><ele>803.5</ele><time>2026-04-12T08:57:25.69Z</time></trkpt><trkpt lat="43.7091038" lon="12.1544046"><ele>800.0</ele><time>2026-04-12T08:57:27.682Z</time></trkpt><trkpt lat="43.7091712" lon="12.1546634"><ele>797.0</ele><time>2026-04-12T08:57:28.699Z</time></trkpt><trkpt lat="43.7092212" lon="12.1549488"><ele>794.0</ele><time>2026-04-12T08:57:29.687Z</time></trkpt><trkpt lat="43.7092786" lon="12.1552275"><ele>791.0</ele><time>2026-04-12T08:57:30.69Z</time></trkpt><trkpt lat="43.7093232" lon="12.1554815"><ele>789.0</ele><time>2026-04-12T08:57:31.698Z</time></trkpt><trkpt lat="43.7093629" lon="12.1557439"><ele>787.0</ele><time>2026-04-12T08:57:32.671Z</time></trkpt><trkpt lat="43.7094161" lon="12.1560083"><ele>785.0</ele><time>2026-04-12T08:57:33.704Z</time></trkpt><trkpt lat="43.7094635" lon="12.156266"><ele>792.3333333333334</ele><time>2026-04-12T08:57:34.697Z</time></trkpt><trkpt lat="43.7095095" lon="12.1565199"><ele>799.6666666666667</ele><time>2026-04-12T08:57:35.704Z</time></trkpt><trkpt lat="43.7095707" lon="12.1567483"><ele>807.0</ele><time>2026-04-12T08:57:36.679Z</time></trkpt><trkpt lat="43.709637" lon="12.156964"><ele>807.0</ele><time>2026-04-12T08:57:37.671Z</time></trkpt><trkpt lat="43.7096801" lon="12.1571943"><ele>807.0</ele><time>2026-04-12T08:57:38.689Z</time></trkpt><trkpt lat="43.7096902" lon="12.157436"><ele>807.0</ele><time>2026-04-12T08:57:39.707Z</time></trkpt><trkpt lat="43.7096686" lon="12.1576796"><ele>805.6666666666667</ele><time>2026-04-12T08:57:40.681Z</time></trkpt><trkpt lat="43.7096329" lon="12.1579229"><ele>804.3333333333334</ele><time>2026-04-12T08:57:41.713Z</time></trkpt><trkpt lat="43.7096033" lon="12.158168"><ele>803.0</ele><time>2026-04-12T08:57:42.688Z</time></trkpt><trkpt lat="43.7095849" lon="12.1584108"><ele>800.3333333333334</ele><time>2026-04-12T08:57:43.697Z</time></trkpt><trkpt lat="43.7095732" lon="12.1586563"><ele>797.6666666666667</ele><time>2026-04-12T08:57:44.672Z</time></trkpt><trkpt lat="43.7095615" lon="12.1588975"><ele>795.0</ele><time>2026-04-12T08:57:45.698Z</time></trkpt><trkpt lat="43.7095489" lon="12.1591219"><ele>793.3333333333333</ele><time>2026-04-12T08:57:46.685Z</time></trkpt><trkpt lat="43.7095268" lon="12.1595188"><ele>791.6666666666666</ele><time>2026-04-12T08:57:48.673Z</time></trkpt><trkpt lat="43.7095205" lon="12.1597087"><ele>790.0</ele><time>2026-04-12T08:57:49.686Z</time></trkpt><trkpt lat="43.7095308" lon="12.15987"><ele>788.25</ele><time>2026-04-12T08:57:50.669Z</time></trkpt><trkpt lat="43.709569" lon="12.1600192"><ele>786.5</ele><time>2026-04-12T08:57:51.69Z</time></trkpt><trkpt lat="43.7096481" lon="12.160156"><ele>784.75</ele><time>2026-04-12T08:57:52.698Z</time></trkpt><trkpt lat="43.7097609" lon="12.1602666"><ele>783.0</ele><time>2026-04-12T08:57:53.682Z</time></trkpt><trkpt lat="43.7098954" lon="12.1603643"><ele>783.0</ele><time>2026-04-12T08:57:54.704Z</time></trkpt><trkpt lat="43.7100319" lon="12.1604518"><ele>783.0</ele><time>2026-04-12T08:57:55.695Z</time></trkpt><trkpt lat="43.7101784" lon="12.1605249"><ele>783.0</ele><time>2026-04-12T08:57:56.689Z</time></trkpt><trkpt lat="43.7103231" lon="12.1605672"><ele>781.5</ele><time>2026-04-12T08:57:57.734Z</time></trkpt><trkpt lat="43.7104656" lon="12.1605673"><ele>780.0</ele><time>2026-04-12T08:57:58.691Z</time></trkpt><trkpt lat="43.7105971" lon="12.1605657"><ele>778.5</ele><time>2026-04-12T08:57:59.718Z</time></trkpt><trkpt lat="43.7107066" lon="12.1606199"><ele>777.0</ele><time>2026-04-12T08:58:00.685Z</time></trkpt><trkpt lat="43.7107855" lon="12.1607367"><ele>777.0</ele><time>2026-04-12T08:58:01.683Z</time></trkpt><trkpt lat="43.7108554" lon="12.1608778"><ele>777.0</ele><time>2026-04-12T08:58:02.693Z</time></trkpt><trkpt lat="43.7109096" lon="12.1610396"><ele>777.0</ele><time>2026-04-12T08:58:03.695Z</time></trkpt><trkpt lat="43.710955" lon="12.1611959"><ele>777.0</ele><time>2026-04-12T08:58:04.706Z</time></trkpt><trkpt lat="43.7110068" lon="12.16137"><ele>777.0</ele><time>2026-04-12T08:58:05.697Z</time></trkpt><trkpt lat="43.7110509" lon="12.1615128"><ele>777.0</ele><time>2026-04-12T08:58:06.708Z</time></trkpt><trkpt lat="43.7111071" lon="12.1616465"><ele>777.0</ele><time>2026-04-12T08:58:07.782Z</time></trkpt><trkpt lat="43.7112754" lon="12.1618775"><ele>778.0</ele><time>2026-04-12T08:58:09.711Z</time></trkpt><trkpt lat="43.7113855" lon="12.1619449"><ele>779.0</ele><time>2026-04-12T08:58:10.679Z</time></trkpt><trkpt lat="43.7115104" lon="12.1619679"><ele>780.0</ele><time>2026-04-12T08:58:11.699Z</time></trkpt><trkpt lat="43.7116471" lon="12.1619573"><ele>781.0</ele><time>2026-04-12T08:58:12.696Z</time></trkpt><trkpt lat="43.7117884" lon="12.1619311"><ele>784.0</ele><time>2026-04-12T08:58:13.711Z</time></trkpt><trkpt lat="43.7119283" lon="12.1619097"><ele>787.0</ele><time>2026-04-12T08:58:14.678Z</time></trkpt><trkpt lat="43.7120544" lon="12.1619304"><ele>790.0</ele><time>2026-04-12T08:58:15.705Z</time></trkpt><trkpt lat="43.7121824" lon="12.1619982"><ele>793.0</ele><time>2026-04-12T08:58:16.696Z</time></trkpt><trkpt lat="43.7122844" lon="12.1621248"><ele>793.0</ele><time>2026-04-12T08:58:17.756Z</time></trkpt><trkpt lat="43.7123607" lon="12.1622797"><ele>793.0</ele><time>2026-04-12T08:58:18.679Z</time></trkpt><trkpt lat="43.7124268" lon="12.1624438"><ele>793.0</ele><time>2026-04-12T08:58:19.693Z</time></trkpt><trkpt lat="43.7124818" lon="12.1626141"><ele>793.0</ele><time>2026-04-12T08:58:20.693Z</time></trkpt><trkpt lat="43.7125008" lon="12.1627919"><ele>790.5</ele><time>2026-04-12T08:58:21.68Z</time></trkpt><trkpt lat="43.7124954" lon="12.1629786"><ele>788.0</ele><time>2026-04-12T08:58:22.692Z</time></trkpt><trkpt lat="43.7124564" lon="12.1631647"><ele>785.5</ele><time>2026-04-12T08:58:23.697Z</time></trkpt><trkpt lat="43.7123835" lon="12.1633342"><ele>783.0</ele><time>2026-04-12T08:58:24.694Z</time></trkpt><trkpt lat="43.7122865" lon="12.1634759"><ele>783.0</ele><time>2026-04-12T08:58:25.699Z</time></trkpt><trkpt lat="43.7121759" lon="12.1635795"><ele>783.0</ele><time>2026-04-12T08:58:26.71Z</time></trkpt><trkpt lat="43.7120633" lon="12.1637201"><ele>783.0</ele><time>2026-04-12T08:58:27.686Z</time></trkpt><trkpt lat="43.7119459" lon="12.1639055"><ele>781.0</ele><time>2026-04-12T08:58:28.784Z</time></trkpt><trkpt lat="43.711712" lon="12.1643842"><ele>779.0</ele><time>2026-04-12T08:58:30.751Z</time></trkpt><trkpt lat="43.7115841" lon="12.1646488"><ele>783.0</ele><time>2026-04-12T08:58:31.678Z</time></trkpt><trkpt lat="43.7114619" lon="12.1649343"><ele>787.0</ele><time>2026-04-12T08:58:32.695Z</time></trkpt><trkpt lat="43.7113455" lon="12.165231"><ele>787.0</ele><time>2026-04-12T08:58:33.675Z</time></trkpt><trkpt lat="43.7112349" lon="12.1655371"><ele>787.0</ele><time>2026-04-12T08:58:34.695Z</time></trkpt><trkpt lat="43.7111215" lon="12.165852"><ele>780.0</ele><time>2026-04-12T08:58:35.677Z</time></trkpt><trkpt lat="43.711002" lon="12.1661622"><ele>773.0</ele><time>2026-04-12T08:58:36.692Z</time></trkpt><trkpt lat="43.7108811" lon="12.1664772"><ele>779.5</ele><time>2026-04-12T08:58:37.691Z</time></trkpt><trkpt lat="43.7107543" lon="12.1667857"><ele>786.0</ele><time>2026-04-12T08:58:38.693Z</time></trkpt><trkpt lat="43.7106284" lon="12.1670778"><ele>786.0</ele><time>2026-04-12T08:58:39.682Z</time></trkpt><trkpt lat="43.7105053" lon="12.1673396"><ele>786.0</ele><time>2026-04-12T08:58:40.71Z</time></trkpt><trkpt lat="43.7103963" lon="12.167589"><ele>786.0</ele><time>2026-04-12T08:58:41.696Z</time></trkpt><trkpt lat="43.7103018" lon="12.1678533"><ele>786.0</ele><time>2026-04-12T08:58:42.695Z</time></trkpt><trkpt lat="43.7102305" lon="12.1681415"><ele>786.0</ele><time>2026-04-12T08:58:43.688Z</time></trkpt><trkpt lat="43.7102047" lon="12.1684477"><ele>786.0</ele><time>2026-04-12T08:58:44.689Z</time></trkpt><trkpt lat="43.7102059" lon="12.168781"><ele>793.5</ele><time>2026-04-12T08:58:45.692Z</time></trkpt><trkpt lat="43.7102185" lon="12.1691214"><ele>801.0</ele><time>2026-04-12T08:58:46.687Z</time></trkpt><trkpt lat="43.7102536" lon="12.169473"><ele>793.0</ele><time>2026-04-12T08:58:47.689Z</time></trkpt><trkpt lat="43.7102432" lon="12.1718173"><ele>782.5</ele><time>2026-04-12T08:58:54.691Z</time></trkpt><trkpt lat="43.7100868" lon="12.1723457"><ele>772.0</ele><time>2026-04-12T08:58:56.693Z</time></trkpt><trkpt lat="43.710071" lon="12.172644"><ele>769.5</ele><time>2026-04-12T08:58:57.665Z</time></trkpt><trkpt lat="43.7100917" lon="12.1729258"><ele>767.0</ele><time>2026-04-12T08:58:58.706Z</time></trkpt><trkpt lat="43.7101993" lon="12.1732345"><ele>775.5</ele><time>2026-04-12T08:58:59.666Z</time></trkpt><trkpt lat="43.710327" lon="12.1734878"><ele>784.0</ele><time>2026-04-12T08:59:00.671Z</time></trkpt><trkpt lat="43.7104492" lon="12.1737732"><ele>775.5</ele><time>2026-04-12T08:59:01.687Z</time></trkpt><trkpt lat="43.7105146" lon="12.1741083"><ele>767.0</ele><time>2026-04-12T08:59:02.695Z</time></trkpt><trkpt lat="43.7105459" lon="12.1745203"><ele>765.0</ele><time>2026-04-12T08:59:03.69Z</time></trkpt><trkpt lat="43.7105839" lon="12.1749471"><ele>763.0</ele><time>2026-04-12T08:59:04.682Z</time></trkpt><trkpt lat="43.7106206" lon="12.1753854"><ele>760.5</ele><time>2026-04-12T08:59:05.692Z</time></trkpt><trkpt lat="43.7106538" lon="12.1758251"><ele>758.0</ele><time>2026-04-12T08:59:06.67Z</time></trkpt><trkpt lat="43.7106867" lon="12.1762261"><ele>753.0</ele><time>2026-04-12T08:59:07.677Z</time></trkpt><trkpt lat="43.7106983" lon="12.1765632"><ele>748.0</ele><time>2026-04-12T08:59:08.68Z</time></trkpt><trkpt lat="43.7106684" lon="12.1769037"><ele>748.0</ele><time>2026-04-12T08:59:09.677Z</time></trkpt><trkpt lat="43.7105792" lon="12.1772245"><ele>748.0</ele><time>2026-04-12T08:59:10.701Z</time></trkpt><trkpt lat="43.7104543" lon="12.1775386"><ele>746.0</ele><time>2026-04-12T08:59:11.678Z</time></trkpt><trkpt lat="43.710337" lon="12.1778391"><ele>744.0</ele><time>2026-04-12T08:59:12.7Z</time></trkpt><trkpt lat="43.7102352" lon="12.1781317"><ele>732.5</ele><time>2026-04-12T08:59:13.704Z</time></trkpt><trkpt lat="43.7101858" lon="12.1784449"><ele>721.0</ele><time>2026-04-12T08:59:14.688Z</time></trkpt><trkpt lat="43.7101938" lon="12.1787746"><ele>741.0</ele><time>2026-04-12T08:59:15.743Z</time></trkpt><trkpt lat="43.7102739" lon="12.179416"><ele>741.0</ele><time>2026-04-12T08:59:17.695Z</time></trkpt><trkpt lat="43.7102939" lon="12.1797041"><ele>741.0</ele><time>2026-04-12T08:59:18.672Z</time></trkpt><trkpt lat="43.7102968" lon="12.1799883"><ele>741.0</ele><time>2026-04-12T08:59:19.671Z</time></trkpt><trkpt lat="43.7102561" lon="12.1802617"><ele>732.0</ele><time>2026-04-12T08:59:20.664Z</time></trkpt><trkpt lat="43.7101844" lon="12.1805125"><ele>723.0</ele><time>2026-04-12T08:59:21.667Z</time></trkpt><trkpt lat="43.7100989" lon="12.1807573"><ele>714.0</ele><time>2026-04-12T08:59:22.676Z</time></trkpt><trkpt lat="43.7100197" lon="12.1809946"><ele>713.0</ele><time>2026-04-12T08:59:23.745Z</time></trkpt><trkpt lat="43.7099404" lon="12.1812154"><ele>712.0</ele><time>2026-04-12T08:59:24.675Z</time></trkpt><trkpt lat="43.7098708" lon="12.1814273"><ele>711.0</ele><time>2026-04-12T08:59:25.672Z</time></trkpt><trkpt lat="43.7098031" lon="12.1816317"><ele>710.0</ele><time>2026-04-12T08:59:26.669Z</time></trkpt><trkpt lat="43.7097415" lon="12.1818298"><ele>709.0</ele><time>2026-04-12T08:59:27.68Z</time></trkpt><trkpt lat="43.7096751" lon="12.1820208"><ele>708.0</ele><time>2026-04-12T08:59:28.694Z</time></trkpt><trkpt lat="43.7096055" lon="12.1822224"><ele>706.6666666666666</ele><time>2026-04-12T08:59:29.68Z</time></trkpt><trkpt lat="43.709534" lon="12.1824273"><ele>705.3333333333333</ele><time>2026-04-12T08:59:30.691Z</time></trkpt><trkpt lat="43.709461" lon="12.1826265"><ele>704.0</ele><time>2026-04-12T08:59:31.669Z</time></trkpt><trkpt lat="43.7093782" lon="12.1828361"><ele>701.6666666666666</ele><time>2026-04-12T08:59:32.687Z</time></trkpt><trkpt lat="43.7092893" lon="12.1830489"><ele>699.3333333333334</ele><time>2026-04-12T08:59:33.693Z</time></trkpt><trkpt lat="43.7091917" lon="12.1832548"><ele>697.0</ele><time>2026-04-12T08:59:34.689Z</time></trkpt><trkpt lat="43.7090834" lon="12.1834594"><ele>697.0</ele><time>2026-04-12T08:59:35.685Z</time></trkpt><trkpt lat="43.7089717" lon="12.183669"><ele>697.0</ele><time>2026-04-12T08:59:36.705Z</time></trkpt><trkpt lat="43.708729" lon="12.1840738"><ele>697.6666666666667</ele><time>2026-04-12T08:59:38.697Z</time></trkpt><trkpt lat="43.7085843" lon="12.1842567"><ele>698.3333333333334</ele><time>2026-04-12T08:59:39.696Z</time></trkpt><trkpt lat="43.7084235" lon="12.1843731"><ele>699.0</ele><time>2026-04-12T08:59:40.711Z</time></trkpt><trkpt lat="43.7082379" lon="12.1844035"><ele>696.6666666666666</ele><time>2026-04-12T08:59:41.695Z</time></trkpt><trkpt lat="43.7080499" lon="12.1843946"><ele>694.3333333333333</ele><time>2026-04-12T08:59:42.699Z</time></trkpt><trkpt lat="43.7078619" lon="12.1843509"><ele>692.0</ele><time>2026-04-12T08:59:43.687Z</time></trkpt><trkpt lat="43.7076676" lon="12.1843053"><ele>691.6666666666666</ele><time>2026-04-12T08:59:44.685Z</time></trkpt><trkpt lat="43.7074752" lon="12.1842701"><ele>691.3333333333334</ele><time>2026-04-12T08:59:45.7Z</time></trkpt><trkpt lat="43.7072845" lon="12.1842453"><ele>691.0</ele><time>2026-04-12T08:59:46.683Z</time></trkpt><trkpt lat="43.707102" lon="12.1842468"><ele>691.0</ele><time>2026-04-12T08:59:47.687Z</time></trkpt><trkpt lat="43.7069293" lon="12.1842971"><ele>691.0</ele><time>2026-04-12T08:59:48.756Z</time></trkpt><trkpt lat="43.7067684" lon="12.1843953"><ele>691.0</ele><time>2026-04-12T08:59:49.687Z</time></trkpt><trkpt lat="43.7066153" lon="12.184554"><ele>691.6666666666667</ele><time>2026-04-12T08:59:50.663Z</time></trkpt><trkpt lat="43.7064743" lon="12.1847519"><ele>692.3333333333334</ele><time>2026-04-12T08:59:51.695Z</time></trkpt><trkpt lat="43.7063293" lon="12.1849625"><ele>693.0</ele><time>2026-04-12T08:59:52.689Z</time></trkpt><trkpt lat="43.70618" lon="12.1851746"><ele>692.6666666666666</ele><time>2026-04-12T08:59:53.7Z</time></trkpt><trkpt lat="43.7060252" lon="12.1853836"><ele>692.3333333333333</ele><time>2026-04-12T08:59:54.707Z</time></trkpt><trkpt lat="43.7058814" lon="12.1855827"><ele>692.0</ele><time>2026-04-12T08:59:55.684Z</time></trkpt><trkpt lat="43.705739" lon="12.18578"><ele>695.5</ele><time>2026-04-12T08:59:56.697Z</time></trkpt><trkpt lat="43.7055941" lon="12.1859803"><ele>699.0</ele><time>2026-04-12T08:59:57.693Z</time></trkpt><trkpt lat="43.7053003" lon="12.1863794"><ele>696.6666666666666</ele><time>2026-04-12T08:59:59.696Z</time></trkpt><trkpt lat="43.705155" lon="12.1865647"><ele>694.3333333333333</ele><time>2026-04-12T09:00:00.697Z</time></trkpt><trkpt lat="43.7050126" lon="12.186734"><ele>692.0</ele><time>2026-04-12T09:00:01.691Z</time></trkpt><trkpt lat="43.7048836" lon="12.1868848"><ele>692.0</ele><time>2026-04-12T09:00:02.693Z</time></trkpt><trkpt lat="43.7047552" lon="12.1870167"><ele>692.0</ele><time>2026-04-12T09:00:03.703Z</time></trkpt><trkpt lat="43.7046343" lon="12.1871317"><ele>692.0</ele><time>2026-04-12T09:00:04.706Z</time></trkpt><trkpt lat="43.7045226" lon="12.1872401"><ele>692.0</ele><time>2026-04-12T09:00:05.686Z</time></trkpt><trkpt lat="43.704425" lon="12.1873295"><ele>692.0</ele><time>2026-04-12T09:00:06.68Z</time></trkpt><trkpt lat="43.7043432" lon="12.1874065"><ele>692.0</ele><time>2026-04-12T09:00:07.697Z</time></trkpt><trkpt lat="43.7042611" lon="12.1874139"><ele>692.0</ele><time>2026-04-12T09:00:08.711Z</time></trkpt><trkpt lat="43.7041923" lon="12.1873833"><ele>692.0</ele><time>2026-04-12T09:00:09.697Z</time></trkpt><trkpt lat="43.7041203" lon="12.1874196"><ele>692.0</ele><time>2026-04-12T09:00:11.755Z</time></trkpt><trkpt lat="43.7040659" lon="12.1874754"><ele>692.0</ele><time>2026-04-12T09:03:48.698Z</time></trkpt><trkpt lat="43.7040435" lon="12.1876784"><ele>692.0</ele><time>2026-04-12T09:03:52.691Z</time></trkpt><trkpt lat="43.7040126" lon="12.1878107"><ele>692.0</ele><time>2026-04-12T09:03:54.681Z</time></trkpt><trkpt lat="43.7039473" lon="12.1878791"><ele>692.0</ele><time>2026-04-12T09:03:55.685Z</time></trkpt><trkpt lat="43.7038696" lon="12.1879345"><ele>692.0</ele><time>2026-04-12T09:03:56.692Z</time></trkpt><trkpt lat="43.7037701" lon="12.1880333"><ele>692.0</ele><time>2026-04-12T09:03:57.688Z</time></trkpt><trkpt lat="43.7036639" lon="12.1881356"><ele>691.25</ele><time>2026-04-12T09:03:58.69Z</time></trkpt><trkpt lat="43.7035483" lon="12.1882439"><ele>690.5</ele><time>2026-04-12T09:03:59.779Z</time></trkpt><trkpt lat="43.7034378" lon="12.1883692"><ele>689.75</ele><time>2026-04-12T09:04:00.707Z</time></trkpt><trkpt lat="43.7033262" lon="12.1884914"><ele>689.0</ele><time>2026-04-12T09:04:01.699Z</time></trkpt><trkpt lat="43.7032168" lon="12.1886153"><ele>689.0</ele><time>2026-04-12T09:04:02.677Z</time></trkpt><trkpt lat="43.7031069" lon="12.1887404"><ele>689.0</ele><time>2026-04-12T09:04:03.69Z</time></trkpt><trkpt lat="43.7030133" lon="12.1888988"><ele>689.0</ele><time>2026-04-12T09:04:04.691Z</time></trkpt><trkpt lat="43.7029496" lon="12.1890998"><ele>689.0</ele><time>2026-04-12T09:04:05.71Z</time></trkpt><trkpt lat="43.7029336" lon="12.1893275"><ele>688.0</ele><time>2026-04-12T09:04:06.696Z</time></trkpt><trkpt lat="43.7029494" lon="12.1895542"><ele>687.0</ele><time>2026-04-12T09:04:07.673Z</time></trkpt><trkpt lat="43.7029898" lon="12.189785"><ele>686.0</ele><time>2026-04-12T09:04:08.67Z</time></trkpt><trkpt lat="43.7030607" lon="12.1899987"><ele>686.0</ele><time>2026-04-12T09:04:09.695Z</time></trkpt><trkpt lat="43.7033081" lon="12.1903566"><ele>686.0</ele><time>2026-04-12T09:04:11.687Z</time></trkpt><trkpt lat="43.7034841" lon="12.1904685"><ele>686.0</ele><time>2026-04-12T09:04:12.685Z</time></trkpt><trkpt lat="43.7036812" lon="12.1905474"><ele>686.0</ele><time>2026-04-12T09:04:13.695Z</time></trkpt><trkpt lat="43.7038753" lon="12.1906313"><ele>686.0</ele><time>2026-04-12T09:04:14.694Z</time></trkpt><trkpt lat="43.7040732" lon="12.1907165"><ele>682.6666666666666</ele><time>2026-04-12T09:04:15.704Z</time></trkpt><trkpt lat="43.7042608" lon="12.1907984"><ele>679.3333333333334</ele><time>2026-04-12T09:04:16.713Z</time></trkpt><trkpt lat="43.7044445" lon="12.1908806"><ele>676.0</ele><time>2026-04-12T09:04:17.689Z</time></trkpt><trkpt lat="43.7046338" lon="12.1909498"><ele>676.0</ele><time>2026-04-12T09:04:18.683Z</time></trkpt><trkpt lat="43.7048264" lon="12.1909934"><ele>676.0</ele><time>2026-04-12T09:04:19.696Z</time></trkpt><trkpt lat="43.705033" lon="12.1909994"><ele>676.0</ele><time>2026-04-12T09:04:20.692Z</time></trkpt><trkpt lat="43.7052419" lon="12.1909706"><ele>676.0</ele><time>2026-04-12T09:04:21.714Z</time></trkpt><trkpt lat="43.7054295" lon="12.19094"><ele>676.0</ele><time>2026-04-12T09:04:22.685Z</time></trkpt><trkpt lat="43.7055992" lon="12.1909219"><ele>676.0</ele><time>2026-04-12T09:04:23.683Z</time></trkpt><trkpt lat="43.7057541" lon="12.1909436"><ele>676.0</ele><time>2026-04-12T09:04:24.702Z</time></trkpt><trkpt lat="43.7058594" lon="12.1910155"><ele>676.0</ele><time>2026-04-12T09:04:25.687Z</time></trkpt><trkpt lat="43.7059317" lon="12.1911483"><ele>676.0</ele><time>2026-04-12T09:04:26.715Z</time></trkpt><trkpt lat="43.70596" lon="12.1913411"><ele>676.0</ele><time>2026-04-12T09:04:27.674Z</time></trkpt><trkpt lat="43.7059515" lon="12.1915648"><ele>671.0</ele><time>2026-04-12T09:04:28.687Z</time></trkpt><trkpt lat="43.7058999" lon="12.191755"><ele>666.0</ele><time>2026-04-12T09:04:29.685Z</time></trkpt><trkpt lat="43.7058053" lon="12.1919118"><ele>661.0</ele><time>2026-04-12T09:04:30.709Z</time></trkpt><trkpt lat="43.7054936" lon="12.1920425"><ele>661.0</ele><time>2026-04-12T09:04:32.765Z</time></trkpt><trkpt lat="43.7052613" lon="12.1920843"><ele>661.0</ele><time>2026-04-12T09:04:33.68Z</time></trkpt><trkpt lat="43.7050274" lon="12.1921478"><ele>662.3333333333334</ele><time>2026-04-12T09:04:34.683Z</time></trkpt><trkpt lat="43.7048082" lon="12.1922076"><ele>663.6666666666666</ele><time>2026-04-12T09:04:35.686Z</time></trkpt><trkpt lat="43.704622" lon="12.1922631"><ele>665.0</ele><time>2026-04-12T09:04:36.676Z</time></trkpt><trkpt lat="43.7044708" lon="12.1923488"><ele>661.5</ele><time>2026-04-12T09:04:37.671Z</time></trkpt><trkpt lat="43.7043595" lon="12.1924759"><ele>658.0</ele><time>2026-04-12T09:04:38.682Z</time></trkpt><trkpt lat="43.7042832" lon="12.1926551"><ele>654.5</ele><time>2026-04-12T09:04:39.691Z</time></trkpt><trkpt lat="43.7042712" lon="12.1928551"><ele>651.0</ele><time>2026-04-12T09:04:40.71Z</time></trkpt><trkpt lat="43.7043139" lon="12.1930525"><ele>652.0</ele><time>2026-04-12T09:04:41.688Z</time></trkpt><trkpt lat="43.7043904" lon="12.1932254"><ele>653.0</ele><time>2026-04-12T09:04:42.684Z</time></trkpt><trkpt lat="43.7045109" lon="12.1933498"><ele>654.0</ele><time>2026-04-12T09:04:43.692Z</time></trkpt><trkpt lat="43.7046736" lon="12.1934201"><ele>651.0</ele><time>2026-04-12T09:04:44.692Z</time></trkpt><trkpt lat="43.7048525" lon="12.1934317"><ele>648.0</ele><time>2026-04-12T09:04:45.71Z</time></trkpt><trkpt lat="43.7050479" lon="12.1934301"><ele>645.0</ele><time>2026-04-12T09:04:46.684Z</time></trkpt><trkpt lat="43.7052511" lon="12.1934273"><ele>644.0</ele><time>2026-04-12T09:04:47.712Z</time></trkpt><trkpt lat="43.7054589" lon="12.1934398"><ele>643.0</ele><time>2026-04-12T09:04:48.691Z</time></trkpt><trkpt lat="43.7056696" lon="12.1934754"><ele>642.0</ele><time>2026-04-12T09:04:49.708Z</time></trkpt><trkpt lat="43.7058858" lon="12.1935504"><ele>642.0</ele><time>2026-04-12T09:04:50.691Z</time></trkpt><trkpt lat="43.706092" lon="12.1936836"><ele>642.0</ele><time>2026-04-12T09:04:51.69Z</time></trkpt><trkpt lat="43.7064807" lon="12.1940757"><ele>636.5</ele><time>2026-04-12T09:04:53.681Z</time></trkpt><trkpt lat="43.7066817" lon="12.1942737"><ele>631.0</ele><time>2026-04-12T09:04:54.694Z</time></trkpt><trkpt lat="43.7068829" lon="12.1944728"><ele>627.5</ele><time>2026-04-12T09:04:55.683Z</time></trkpt><trkpt lat="43.7070826" lon="12.1946733"><ele>624.0</ele><time>2026-04-12T09:04:56.717Z</time></trkpt><trkpt lat="43.7072788" lon="12.1948786"><ele>624.0</ele><time>2026-04-12T09:04:57.676Z</time></trkpt><trkpt lat="43.7074749" lon="12.1950865"><ele>624.0</ele><time>2026-04-12T09:04:58.681Z</time></trkpt><trkpt lat="43.707667" lon="12.1952765"><ele>622.0</ele><time>2026-04-12T09:04:59.686Z</time></trkpt><trkpt lat="43.7078602" lon="12.1954421"><ele>620.0</ele><time>2026-04-12T09:05:00.695Z</time></trkpt><trkpt lat="43.7080587" lon="12.1955732"><ele>618.0</ele><time>2026-04-12T09:05:01.679Z</time></trkpt><trkpt lat="43.7082776" lon="12.1956537"><ele>614.0</ele><time>2026-04-12T09:05:02.699Z</time></trkpt><trkpt lat="43.7085077" lon="12.1956827"><ele>610.0</ele><time>2026-04-12T09:05:03.727Z</time></trkpt><trkpt lat="43.7087466" lon="12.1956544"><ele>610.0</ele><time>2026-04-12T09:05:04.691Z</time></trkpt><trkpt lat="43.7089862" lon="12.1955757"><ele>610.0</ele><time>2026-04-12T09:05:05.797Z</time></trkpt><trkpt lat="43.7093957" lon="12.1952522"><ele>602.0</ele><time>2026-04-12T09:05:07.689Z</time></trkpt><trkpt lat="43.7095545" lon="12.1950273"><ele>594.0</ele><time>2026-04-12T09:05:08.681Z</time></trkpt><trkpt lat="43.7096869" lon="12.1947745"><ele>594.0</ele><time>2026-04-12T09:05:09.686Z</time></trkpt><trkpt lat="43.7097829" lon="12.1944745"><ele>594.0</ele><time>2026-04-12T09:05:10.681Z</time></trkpt><trkpt lat="43.7098719" lon="12.1941673"><ele>597.0</ele><time>2026-04-12T09:05:11.682Z</time></trkpt><trkpt lat="43.7099632" lon="12.1938688"><ele>600.0</ele><time>2026-04-12T09:05:12.701Z</time></trkpt><trkpt lat="43.7101419" lon="12.1932966"><ele>597.0</ele><time>2026-04-12T09:05:14.673Z</time></trkpt><trkpt lat="43.7102791" lon="12.193053"><ele>594.0</ele><time>2026-04-12T09:05:15.699Z</time></trkpt><trkpt lat="43.7104436" lon="12.1928397"><ele>591.0</ele><time>2026-04-12T09:05:16.683Z</time></trkpt><trkpt lat="43.7106322" lon="12.1926674"><ele>591.0</ele><time>2026-04-12T09:05:17.672Z</time></trkpt><trkpt lat="43.7108379" lon="12.192531"><ele>591.0</ele><time>2026-04-12T09:05:18.694Z</time></trkpt><trkpt lat="43.7110466" lon="12.1924102"><ele>591.0</ele><time>2026-04-12T09:05:19.681Z</time></trkpt><trkpt lat="43.7112559" lon="12.1923179"><ele>591.0</ele><time>2026-04-12T09:05:20.74Z</time></trkpt><trkpt lat="43.7114602" lon="12.1922798"><ele>591.0</ele><time>2026-04-12T09:05:21.686Z</time></trkpt><trkpt lat="43.71167" lon="12.1922934"><ele>588.3333333333334</ele><time>2026-04-12T09:05:22.688Z</time></trkpt><trkpt lat="43.7118643" lon="12.192356"><ele>585.6666666666667</ele><time>2026-04-12T09:05:23.679Z</time></trkpt><trkpt lat="43.7120318" lon="12.1924635"><ele>583.0</ele><time>2026-04-12T09:05:24.681Z</time></trkpt><trkpt lat="43.7121811" lon="12.1926298"><ele>580.3333333333334</ele><time>2026-04-12T09:05:25.674Z</time></trkpt><trkpt lat="43.7123093" lon="12.1928234"><ele>577.6666666666666</ele><time>2026-04-12T09:05:26.69Z</time></trkpt><trkpt lat="43.7124352" lon="12.1930333"><ele>575.0</ele><time>2026-04-12T09:05:27.681Z</time></trkpt><trkpt lat="43.7125539" lon="12.1932376"><ele>572.6666666666666</ele><time>2026-04-12T09:05:28.699Z</time></trkpt><trkpt lat="43.7126695" lon="12.1934252"><ele>570.3333333333334</ele><time>2026-04-12T09:05:29.682Z</time></trkpt><trkpt lat="43.7127804" lon="12.1935948"><ele>568.0</ele><time>2026-04-12T09:05:30.694Z</time></trkpt><trkpt lat="43.7128816" lon="12.1937456"><ele>565.5</ele><time>2026-04-12T09:05:31.685Z</time></trkpt><trkpt lat="43.7129702" lon="12.1938673"><ele>563.0</ele><time>2026-04-12T09:05:32.677Z</time></trkpt><trkpt lat="43.7130415" lon="12.1939626"><ele>560.5</ele><time>2026-04-12T09:05:33.683Z</time></trkpt><trkpt lat="43.7131482" lon="12.1941039"><ele>558.0</ele><time>2026-04-12T09:05:36.757Z</time></trkpt><trkpt lat="43.7132361" lon="12.1941837"><ele>557.3333333333334</ele><time>2026-04-12T09:06:41.694Z</time></trkpt><trkpt lat="43.7133766" lon="12.1943641"><ele>556.6666666666667</ele><time>2026-04-12T09:06:43.682Z</time></trkpt><trkpt lat="43.7134675" lon="12.1944848"><ele>556.0</ele><time>2026-04-12T09:06:44.684Z</time></trkpt><trkpt lat="43.7135756" lon="12.1946251"><ele>549.6666666666667</ele><time>2026-04-12T09:06:45.688Z</time></trkpt><trkpt lat="43.7136931" lon="12.1947804"><ele>543.3333333333334</ele><time>2026-04-12T09:06:46.689Z</time></trkpt><trkpt lat="43.7138178" lon="12.194941"><ele>537.0</ele><time>2026-04-12T09:06:47.7Z</time></trkpt><trkpt lat="43.713943" lon="12.1951092"><ele>536.6666666666666</ele><time>2026-04-12T09:06:48.678Z</time></trkpt><trkpt lat="43.7140769" lon="12.1952875"><ele>536.3333333333333</ele><time>2026-04-12T09:06:49.69Z</time></trkpt><trkpt lat="43.7142169" lon="12.195484"><ele>536.0</ele><time>2026-04-12T09:06:50.687Z</time></trkpt><trkpt lat="43.7143576" lon="12.195671"><ele>534.6666666666666</ele><time>2026-04-12T09:06:51.709Z</time></trkpt><trkpt lat="43.7144901" lon="12.1958478"><ele>533.3333333333334</ele><time>2026-04-12T09:06:52.689Z</time></trkpt><trkpt lat="43.7146224" lon="12.1960175"><ele>532.0</ele><time>2026-04-12T09:06:53.686Z</time></trkpt><trkpt lat="43.7147505" lon="12.1961915"><ele>532.0</ele><time>2026-04-12T09:06:54.694Z</time></trkpt><trkpt lat="43.7148837" lon="12.1963539"><ele>532.0</ele><time>2026-04-12T09:06:55.695Z</time></trkpt><trkpt lat="43.7150322" lon="12.1964941"><ele>532.0</ele><time>2026-04-12T09:06:56.716Z</time></trkpt><trkpt lat="43.7151922" lon="12.1965916"><ele>538.0</ele><time>2026-04-12T09:06:57.694Z</time></trkpt><trkpt lat="43.7153647" lon="12.1966497"><ele>544.0</ele><time>2026-04-12T09:06:58.696Z</time></trkpt><trkpt lat="43.7155419" lon="12.1966667"><ele>550.0</ele><time>2026-04-12T09:06:59.709Z</time></trkpt><trkpt lat="43.7157124" lon="12.1966521"><ele>550.0</ele><time>2026-04-12T09:07:00.683Z</time></trkpt><trkpt lat="43.7158655" lon="12.1966041"><ele>550.0</ele><time>2026-04-12T09:07:01.697Z</time></trkpt><trkpt lat="43.7160053" lon="12.196538"><ele>550.0</ele><time>2026-04-12T09:07:02.686Z</time></trkpt><trkpt lat="43.716218" lon="12.1964175"><ele>550.5</ele><time>2026-04-12T09:07:04.711Z</time></trkpt><trkpt lat="43.7163091" lon="12.1964287"><ele>551.0</ele><time>2026-04-12T09:07:05.688Z</time></trkpt><trkpt lat="43.7163801" lon="12.1964915"><ele>551.5</ele><time>2026-04-12T09:07:06.679Z</time></trkpt><trkpt lat="43.7164099" lon="12.1966039"><ele>552.0</ele><time>2026-04-12T09:07:07.685Z</time></trkpt><trkpt lat="43.7163903" lon="12.1967288"><ele>552.5</ele><time>2026-04-12T09:07:08.683Z</time></trkpt><trkpt lat="43.7163273" lon="12.1968239"><ele>553.0</ele><time>2026-04-12T09:07:09.687Z</time></trkpt><trkpt lat="43.7162348" lon="12.1968635"><ele>552.25</ele><time>2026-04-12T09:07:10.697Z</time></trkpt><trkpt lat="43.7161195" lon="12.1968483"><ele>551.5</ele><time>2026-04-12T09:07:11.678Z</time></trkpt><trkpt lat="43.715998" lon="12.196835"><ele>550.75</ele><time>2026-04-12T09:07:12.68Z</time></trkpt><trkpt lat="43.7158658" lon="12.1968473"><ele>550.0</ele><time>2026-04-12T09:07:13.69Z</time></trkpt><trkpt lat="43.7157283" lon="12.1968883"><ele>550.0</ele><time>2026-04-12T09:07:14.724Z</time></trkpt><trkpt lat="43.7155898" lon="12.1969752"><ele>550.0</ele><time>2026-04-12T09:07:15.686Z</time></trkpt><trkpt lat="43.7154476" lon="12.1970886"><ele>550.0</ele><time>2026-04-12T09:07:16.691Z</time></trkpt><trkpt lat="43.715304" lon="12.1971981"><ele>549.0</ele><time>2026-04-12T09:07:17.679Z</time></trkpt><trkpt lat="43.7151558" lon="12.1973239"><ele>548.0</ele><time>2026-04-12T09:07:18.691Z</time></trkpt><trkpt lat="43.7150025" lon="12.1974561"><ele>547.0</ele><time>2026-04-12T09:07:19.7Z</time></trkpt><trkpt lat="43.714846" lon="12.1975877"><ele>547.0</ele><time>2026-04-12T09:07:20.693Z</time></trkpt><trkpt lat="43.7146932" lon="12.1977246"><ele>547.0</ele><time>2026-04-12T09:07:21.697Z</time></trkpt><trkpt lat="43.7145389" lon="12.1978549"><ele>547.0</ele><time>2026-04-12T09:07:22.709Z</time></trkpt><trkpt lat="43.7143924" lon="12.1979838"><ele>546.5</ele><time>2026-04-12T09:07:23.694Z</time></trkpt><trkpt lat="43.7141266" lon="12.1982509"><ele>546.0</ele><time>2026-04-12T09:07:25.698Z</time></trkpt><trkpt lat="43.7140161" lon="12.1984201"><ele>546.0</ele><time>2026-04-12T09:07:26.714Z</time></trkpt><trkpt lat="43.7139167" lon="12.1985996"><ele>546.0</ele><time>2026-04-12T09:07:27.705Z</time></trkpt><trkpt lat="43.7138133" lon="12.1987787"><ele>546.0</ele><time>2026-04-12T09:07:28.695Z</time></trkpt><trkpt lat="43.7137068" lon="12.1989614"><ele>544.6666666666666</ele><time>2026-04-12T09:07:29.693Z</time></trkpt><trkpt lat="43.7136049" lon="12.199152"><ele>543.3333333333333</ele><time>2026-04-12T09:07:30.68Z</time></trkpt><trkpt lat="43.7135027" lon="12.1993258"><ele>542.0</ele><time>2026-04-12T09:07:31.682Z</time></trkpt><trkpt lat="43.7134081" lon="12.1994954"><ele>542.0</ele><time>2026-04-12T09:07:32.69Z</time></trkpt><trkpt lat="43.7133124" lon="12.1996565"><ele>542.0</ele><time>2026-04-12T09:07:33.685Z</time></trkpt><trkpt lat="43.7132283" lon="12.1998044"><ele>542.0</ele><time>2026-04-12T09:07:34.686Z</time></trkpt><trkpt lat="43.7131372" lon="12.1999182"><ele>542.0</ele><time>2026-04-12T09:07:35.694Z</time></trkpt><trkpt lat="43.7130315" lon="12.1999808"><ele>541.25</ele><time>2026-04-12T09:07:36.734Z</time></trkpt><trkpt lat="43.7129123" lon="12.2000101"><ele>540.5</ele><time>2026-04-12T09:07:37.672Z</time></trkpt><trkpt lat="43.7127933" lon="12.2000518"><ele>539.75</ele><time>2026-04-12T09:07:38.759Z</time></trkpt><trkpt lat="43.7126751" lon="12.200115"><ele>539.0</ele><time>2026-04-12T09:07:39.692Z</time></trkpt><trkpt lat="43.712571" lon="12.2002252"><ele>539.0</ele><time>2026-04-12T09:07:40.706Z</time></trkpt><trkpt lat="43.7124978" lon="12.200384"><ele>539.0</ele><time>2026-04-12T09:07:41.684Z</time></trkpt><trkpt lat="43.7124335" lon="12.2005579"><ele>539.0</ele><time>2026-04-12T09:07:42.7Z</time></trkpt><trkpt lat="43.7123687" lon="12.2007372"><ele>539.0</ele><time>2026-04-12T09:07:43.697Z</time></trkpt><trkpt lat="43.7123021" lon="12.2009227"><ele>540.6666666666666</ele><time>2026-04-12T09:07:44.714Z</time></trkpt><trkpt lat="43.7122472" lon="12.2012525"><ele>542.3333333333334</ele><time>2026-04-12T09:07:46.701Z</time></trkpt><trkpt lat="43.7122906" lon="12.2013936"><ele>544.0</ele><time>2026-04-12T09:07:47.693Z</time></trkpt><trkpt lat="43.7123805" lon="12.2015278"><ele>544.0</ele><time>2026-04-12T09:07:48.687Z</time></trkpt><trkpt lat="43.712512" lon="12.2016237"><ele>544.0</ele><time>2026-04-12T09:07:49.688Z</time></trkpt><trkpt lat="43.7126775" lon="12.2016903"><ele>544.0</ele><time>2026-04-12T09:07:50.68Z</time></trkpt><trkpt lat="43.7128365" lon="12.2017704"><ele>546.0</ele><time>2026-04-12T09:07:51.709Z</time></trkpt><trkpt lat="43.7129604" lon="12.2019027"><ele>548.0</ele><time>2026-04-12T09:07:52.686Z</time></trkpt><trkpt lat="43.7130329" lon="12.2020864"><ele>550.0</ele><time>2026-04-12T09:07:53.687Z</time></trkpt><trkpt lat="43.7130764" lon="12.2023123"><ele>550.0</ele><time>2026-04-12T09:07:54.696Z</time></trkpt><trkpt lat="43.71305" lon="12.2025004"><ele>550.0</ele><time>2026-04-12T09:07:55.684Z</time></trkpt><trkpt lat="43.7129545" lon="12.2026278"><ele>550.0</ele><time>2026-04-12T09:07:56.686Z</time></trkpt><trkpt lat="43.7128345" lon="12.2026747"><ele>550.0</ele><time>2026-04-12T09:07:57.69Z</time></trkpt><trkpt lat="43.7126974" lon="12.2026746"><ele>549.25</ele><time>2026-04-12T09:07:58.687Z</time></trkpt><trkpt lat="43.7125762" lon="12.2026036"><ele>548.5</ele><time>2026-04-12T09:07:59.679Z</time></trkpt><trkpt lat="43.7124258" lon="12.202536"><ele>547.75</ele><time>2026-04-12T09:08:00.693Z</time></trkpt><trkpt lat="43.7122948" lon="12.202532"><ele>547.0</ele><time>2026-04-12T09:08:01.694Z</time></trkpt><trkpt lat="43.7121517" lon="12.2025768"><ele>547.0</ele><time>2026-04-12T09:08:02.673Z</time></trkpt><trkpt lat="43.712027" lon="12.2026766"><ele>547.0</ele><time>2026-04-12T09:08:03.686Z</time></trkpt><trkpt lat="43.7119267" lon="12.2028589"><ele>547.0</ele><time>2026-04-12T09:08:04.694Z</time></trkpt><trkpt lat="43.7118334" lon="12.2030566"><ele>549.5</ele><time>2026-04-12T09:08:05.68Z</time></trkpt><trkpt lat="43.7116467" lon="12.2034431"><ele>552.0</ele><time>2026-04-12T09:08:07.694Z</time></trkpt><trkpt lat="43.7116014" lon="12.203674"><ele>552.0</ele><time>2026-04-12T09:08:08.688Z</time></trkpt><trkpt lat="43.7115819" lon="12.2039182"><ele>552.0</ele><time>2026-04-12T09:08:09.673Z</time></trkpt><trkpt lat="43.7115597" lon="12.2041685"><ele>552.0</ele><time>2026-04-12T09:08:10.682Z</time></trkpt><trkpt lat="43.7115363" lon="12.204411"><ele>553.3333333333334</ele><time>2026-04-12T09:08:11.681Z</time></trkpt><trkpt lat="43.711517" lon="12.2046435"><ele>554.6666666666667</ele><time>2026-04-12T09:08:12.682Z</time></trkpt><trkpt lat="43.7114979" lon="12.2048693"><ele>556.0</ele><time>2026-04-12T09:08:13.684Z</time></trkpt><trkpt lat="43.711482" lon="12.2050791"><ele>558.3333333333334</ele><time>2026-04-12T09:08:14.686Z</time></trkpt><trkpt lat="43.7114583" lon="12.2052799"><ele>560.6666666666666</ele><time>2026-04-12T09:08:15.677Z</time></trkpt><trkpt lat="43.7114065" lon="12.2054766"><ele>563.0</ele><time>2026-04-12T09:08:16.691Z</time></trkpt><trkpt lat="43.7113272" lon="12.2056556"><ele>564.6666666666666</ele><time>2026-04-12T09:08:17.685Z</time></trkpt><trkpt lat="43.7112178" lon="12.2057953"><ele>566.3333333333334</ele><time>2026-04-12T09:08:18.694Z</time></trkpt><trkpt lat="43.711098" lon="12.2059367"><ele>568.0</ele><time>2026-04-12T09:08:19.77Z</time></trkpt><trkpt lat="43.7109584" lon="12.206041"><ele>568.0</ele><time>2026-04-12T09:08:20.679Z</time></trkpt><trkpt lat="43.7108024" lon="12.2060684"><ele>568.0</ele><time>2026-04-12T09:08:21.757Z</time></trkpt><trkpt lat="43.7106524" lon="12.206069"><ele>568.0</ele><time>2026-04-12T09:08:22.7Z</time></trkpt><trkpt lat="43.710512" lon="12.206053"><ele>568.0</ele><time>2026-04-12T09:08:23.691Z</time></trkpt><trkpt lat="43.7103991" lon="12.2060625"><ele>568.0</ele><time>2026-04-12T09:08:24.705Z</time></trkpt><trkpt lat="43.7103041" lon="12.2061316"><ele>568.0</ele><time>2026-04-12T09:08:25.685Z</time></trkpt><trkpt lat="43.7102392" lon="12.2062332"><ele>568.0</ele><time>2026-04-12T09:08:26.715Z</time></trkpt><trkpt lat="43.7101398" lon="12.2065069"><ele>568.0</ele><time>2026-04-12T09:08:28.687Z</time></trkpt><trkpt lat="43.710107" lon="12.2066471"><ele>570.0</ele><time>2026-04-12T09:08:29.686Z</time></trkpt><trkpt lat="43.7100694" lon="12.2067837"><ele>572.0</ele><time>2026-04-12T09:08:30.708Z</time></trkpt><trkpt lat="43.7100278" lon="12.20693"><ele>574.0</ele><time>2026-04-12T09:08:31.68Z</time></trkpt><trkpt lat="43.7099789" lon="12.2070835"><ele>576.0</ele><time>2026-04-12T09:08:32.741Z</time></trkpt><trkpt lat="43.7099284" lon="12.2072368"><ele>577.5</ele><time>2026-04-12T09:08:33.754Z</time></trkpt><trkpt lat="43.7098633" lon="12.2073872"><ele>579.0</ele><time>2026-04-12T09:08:34.679Z</time></trkpt><trkpt lat="43.7097899" lon="12.2075238"><ele>580.5</ele><time>2026-04-12T09:08:35.707Z</time></trkpt><trkpt lat="43.7096995" lon="12.2076597"><ele>582.0</ele><time>2026-04-12T09:08:36.686Z</time></trkpt><trkpt lat="43.7096028" lon="12.207804"><ele>582.0</ele><time>2026-04-12T09:08:37.683Z</time></trkpt><trkpt lat="43.7095138" lon="12.2079424"><ele>582.0</ele><time>2026-04-12T09:08:38.706Z</time></trkpt><trkpt lat="43.7094385" lon="12.2080654"><ele>582.0</ele><time>2026-04-12T09:08:39.665Z</time></trkpt><trkpt lat="43.709374" lon="12.2081576"><ele>582.0</ele><time>2026-04-12T09:08:40.683Z</time></trkpt><trkpt lat="43.7093216" lon="12.2082364"><ele>582.0</ele><time>2026-04-12T09:08:41.673Z</time></trkpt><trkpt lat="43.7093103" lon="12.2083428"><ele>582.0</ele><time>2026-04-12T09:08:43.761Z</time></trkpt><trkpt lat="43.7093857" lon="12.2082592"><ele>582.0</ele><time>2026-04-12T09:08:45.7Z</time></trkpt><trkpt lat="43.7094053" lon="12.2081755"><ele>582.0</ele><time>2026-04-12T09:08:46.678Z</time></trkpt><trkpt lat="43.7094342" lon="12.2080669"><ele>582.0</ele><time>2026-04-12T09:08:47.683Z</time></trkpt><trkpt lat="43.7095647" lon="12.2078009"><ele>582.0</ele><time>2026-04-12T09:08:49.68Z</time></trkpt><trkpt lat="43.7096527" lon="12.2076509"><ele>582.0</ele><time>2026-04-12T09:08:50.685Z</time></trkpt><trkpt lat="43.7097539" lon="12.2075125"><ele>582.0</ele><time>2026-04-12T09:08:51.674Z</time></trkpt><trkpt lat="43.7098558" lon="12.2073811"><ele>582.0</ele><time>2026-04-12T09:08:52.679Z</time></trkpt><trkpt lat="43.7099379" lon="12.2072339"><ele>580.5</ele><time>2026-04-12T09:08:53.678Z</time></trkpt><trkpt lat="43.7100023" lon="12.207074"><ele>579.0</ele><time>2026-04-12T09:08:54.688Z</time></trkpt><trkpt lat="43.710054" lon="12.2068841"><ele>577.5</ele><time>2026-04-12T09:08:55.689Z</time></trkpt><trkpt lat="43.7101102" lon="12.2066963"><ele>576.0</ele><time>2026-04-12T09:08:56.681Z</time></trkpt><trkpt lat="43.7101727" lon="12.206505"><ele>574.0</ele><time>2026-04-12T09:08:57.755Z</time></trkpt><trkpt lat="43.7102307" lon="12.2063272"><ele>572.0</ele><time>2026-04-12T09:08:58.682Z</time></trkpt><trkpt lat="43.7102885" lon="12.2061704"><ele>570.0</ele><time>2026-04-12T09:08:59.709Z</time></trkpt><trkpt lat="43.7103543" lon="12.2060482"><ele>568.0</ele><time>2026-04-12T09:09:00.686Z</time></trkpt><trkpt lat="43.7104411" lon="12.205971"><ele>568.0</ele><time>2026-04-12T09:09:01.682Z</time></trkpt><trkpt lat="43.7105414" lon="12.2059494"><ele>568.0</ele><time>2026-04-12T09:09:02.685Z</time></trkpt><trkpt lat="43.7106485" lon="12.2059558"><ele>568.0</ele><time>2026-04-12T09:09:03.682Z</time></trkpt><trkpt lat="43.7107368" lon="12.205986"><ele>568.0</ele><time>2026-04-12T09:09:04.691Z</time></trkpt><trkpt lat="43.7108014" lon="12.2059923"><ele>568.0</ele><time>2026-04-12T09:09:05.727Z</time></trkpt><trkpt lat="43.7106962" lon="12.2058618"><ele>568.0</ele><time>2026-04-12T09:09:08.71Z</time></trkpt><trkpt lat="43.7104255" lon="12.2056694"><ele>568.0</ele><time>2026-04-12T09:09:10.7Z</time></trkpt><trkpt lat="43.7102936" lon="12.205554"><ele>565.75</ele><time>2026-04-12T09:09:11.708Z</time></trkpt><trkpt lat="43.7101938" lon="12.2054156"><ele>563.5</ele><time>2026-04-12T09:09:12.708Z</time></trkpt><trkpt lat="43.710136" lon="12.2052519"><ele>561.25</ele><time>2026-04-12T09:09:13.702Z</time></trkpt><trkpt lat="43.710109" lon="12.2050684"><ele>559.0</ele><time>2026-04-12T09:09:14.7Z</time></trkpt><trkpt lat="43.7100957" lon="12.2048691"><ele>557.25</ele><time>2026-04-12T09:09:15.721Z</time></trkpt><trkpt lat="43.7100721" lon="12.2046884"><ele>555.5</ele><time>2026-04-12T09:09:16.693Z</time></trkpt><trkpt lat="43.7100381" lon="12.2045413"><ele>553.75</ele><time>2026-04-12T09:09:17.705Z</time></trkpt><trkpt lat="43.7099819" lon="12.2043977"><ele>552.0</ele><time>2026-04-12T09:09:18.695Z</time></trkpt><trkpt lat="43.7098785" lon="12.204302"><ele>552.0</ele><time>2026-04-12T09:09:19.714Z</time></trkpt><trkpt lat="43.709729" lon="12.204259"><ele>552.0</ele><time>2026-04-12T09:09:20.7Z</time></trkpt><trkpt lat="43.7095551" lon="12.2042158"><ele>552.0</ele><time>2026-04-12T09:09:21.698Z</time></trkpt><trkpt lat="43.7093631" lon="12.2041626"><ele>551.6666666666666</ele><time>2026-04-12T09:09:22.713Z</time></trkpt><trkpt lat="43.7091764" lon="12.2041044"><ele>551.3333333333333</ele><time>2026-04-12T09:09:23.703Z</time></trkpt><trkpt lat="43.7089865" lon="12.2040359"><ele>551.0</ele><time>2026-04-12T09:09:24.725Z</time></trkpt><trkpt lat="43.708801" lon="12.2039718"><ele>549.6666666666666</ele><time>2026-04-12T09:09:25.676Z</time></trkpt><trkpt lat="43.7086324" lon="12.2039141"><ele>548.3333333333334</ele><time>2026-04-12T09:09:26.715Z</time></trkpt><trkpt lat="43.7084793" lon="12.2038546"><ele>547.0</ele><time>2026-04-12T09:09:27.696Z</time></trkpt><trkpt lat="43.7083395" lon="12.2037995"><ele>545.6666666666667</ele><time>2026-04-12T09:09:28.688Z</time></trkpt><trkpt lat="43.708212" lon="12.2037545"><ele>544.3333333333334</ele><time>2026-04-12T09:09:29.702Z</time></trkpt><trkpt lat="43.7079754" lon="12.2037838"><ele>543.0</ele><time>2026-04-12T09:09:31.68Z</time></trkpt><trkpt lat="43.7078757" lon="12.203889"><ele>542.5</ele><time>2026-04-12T09:09:32.683Z</time></trkpt><trkpt lat="43.707789" lon="12.2040364"><ele>542.0</ele><time>2026-04-12T09:09:33.681Z</time></trkpt><trkpt lat="43.7077003" lon="12.2041722"><ele>541.5</ele><time>2026-04-12T09:09:34.691Z</time></trkpt><trkpt lat="43.707595" lon="12.2042626"><ele>541.0</ele><time>2026-04-12T09:09:35.686Z</time></trkpt><trkpt lat="43.7074526" lon="12.2042541"><ele>541.0</ele><time>2026-04-12T09:09:36.682Z</time></trkpt><trkpt lat="43.7073287" lon="12.2042275"><ele>541.0</ele><time>2026-04-12T09:09:37.687Z</time></trkpt><trkpt lat="43.7072267" lon="12.2041777"><ele>541.0</ele><time>2026-04-12T09:09:38.69Z</time></trkpt><trkpt lat="43.7071729" lon="12.2041104"><ele>541.0</ele><time>2026-04-12T09:09:39.696Z</time></trkpt><trkpt lat="43.7071749" lon="12.2040172"><ele>541.0</ele><time>2026-04-12T09:09:40.695Z</time></trkpt><trkpt lat="43.7072091" lon="12.2038946"><ele>540.75</ele><time>2026-04-12T09:09:41.683Z</time></trkpt><trkpt lat="43.7072278" lon="12.2037411"><ele>540.5</ele><time>2026-04-12T09:09:42.687Z</time></trkpt><trkpt lat="43.7072297" lon="12.203578"><ele>540.25</ele><time>2026-04-12T09:09:43.691Z</time></trkpt><trkpt lat="43.7072157" lon="12.203426"><ele>540.0</ele><time>2026-04-12T09:09:44.687Z</time></trkpt><trkpt lat="43.7071811" lon="12.2032712"><ele>539.5</ele><time>2026-04-12T09:09:45.684Z</time></trkpt><trkpt lat="43.7071248" lon="12.2031174"><ele>539.0</ele><time>2026-04-12T09:09:46.702Z</time></trkpt><trkpt lat="43.7070579" lon="12.202949"><ele>538.5</ele><time>2026-04-12T09:09:47.691Z</time></trkpt><trkpt lat="43.7069866" lon="12.2027667"><ele>538.0</ele><time>2026-04-12T09:09:48.682Z</time></trkpt><trkpt lat="43.7069142" lon="12.2025524"><ele>541.5</ele><time>2026-04-12T09:09:49.743Z</time></trkpt><trkpt lat="43.7068402" lon="12.202334"><ele>545.0</ele><time>2026-04-12T09:09:50.685Z</time></trkpt><trkpt lat="43.7066746" lon="12.2018615"><ele>545.0</ele><time>2026-04-12T09:09:52.697Z</time></trkpt><trkpt lat="43.7065971" lon="12.2016432"><ele>545.0</ele><time>2026-04-12T09:09:53.683Z</time></trkpt><trkpt lat="43.7065281" lon="12.2014386"><ele>545.0</ele><time>2026-04-12T09:09:54.684Z</time></trkpt><trkpt lat="43.7064659" lon="12.2012544"><ele>543.75</ele><time>2026-04-12T09:09:55.692Z</time></trkpt><trkpt lat="43.7064007" lon="12.2010915"><ele>542.5</ele><time>2026-04-12T09:09:56.689Z</time></trkpt><trkpt lat="43.7063175" lon="12.2009617"><ele>541.25</ele><time>2026-04-12T09:09:57.676Z</time></trkpt><trkpt lat="43.7062041" lon="12.2008594"><ele>540.0</ele><time>2026-04-12T09:09:58.684Z</time></trkpt><trkpt lat="43.706058" lon="12.2007699"><ele>542.3333333333334</ele><time>2026-04-12T09:09:59.68Z</time></trkpt><trkpt lat="43.7058931" lon="12.2006775"><ele>544.6666666666667</ele><time>2026-04-12T09:10:00.674Z</time></trkpt><trkpt lat="43.7057375" lon="12.2005705"><ele>547.0</ele><time>2026-04-12T09:10:01.678Z</time></trkpt><trkpt lat="43.7055889" lon="12.2004703"><ele>547.0</ele><time>2026-04-12T09:10:02.696Z</time></trkpt><trkpt lat="43.7054329" lon="12.2003762"><ele>547.0</ele><time>2026-04-12T09:10:03.684Z</time></trkpt><trkpt lat="43.7052775" lon="12.2003019"><ele>547.0</ele><time>2026-04-12T09:10:04.691Z</time></trkpt><trkpt lat="43.7051356" lon="12.2002593"><ele>547.5</ele><time>2026-04-12T09:10:05.679Z</time></trkpt><trkpt lat="43.704997" lon="12.2002416"><ele>548.0</ele><time>2026-04-12T09:10:06.685Z</time></trkpt><trkpt lat="43.7048673" lon="12.2002654"><ele>548.5</ele><time>2026-04-12T09:10:07.686Z</time></trkpt><trkpt lat="43.7047465" lon="12.2003208"><ele>549.0</ele><time>2026-04-12T09:10:08.691Z</time></trkpt><trkpt lat="43.7046244" lon="12.2003689"><ele>549.0</ele><time>2026-04-12T09:10:09.686Z</time></trkpt><trkpt lat="43.7045031" lon="12.2004064"><ele>549.0</ele><time>2026-04-12T09:10:10.672Z</time></trkpt><trkpt lat="43.7043756" lon="12.2004425"><ele>549.0</ele><time>2026-04-12T09:10:11.672Z</time></trkpt><trkpt lat="43.7041032" lon="12.2005283"><ele>550.5</ele><time>2026-04-12T09:10:13.686Z</time></trkpt><trkpt lat="43.7039641" lon="12.2005575"><ele>552.0</ele><time>2026-04-12T09:10:14.687Z</time></trkpt><trkpt lat="43.7038184" lon="12.2005672"><ele>553.5</ele><time>2026-04-12T09:10:15.682Z</time></trkpt><trkpt lat="43.7036654" lon="12.2005347"><ele>555.0</ele><time>2026-04-12T09:10:16.717Z</time></trkpt><trkpt lat="43.7035112" lon="12.2004892"><ele>557.6666666666666</ele><time>2026-04-12T09:10:17.686Z</time></trkpt><trkpt lat="43.7033552" lon="12.200436"><ele>560.3333333333333</ele><time>2026-04-12T09:10:18.688Z</time></trkpt><trkpt lat="43.7031954" lon="12.2003898"><ele>563.0</ele><time>2026-04-12T09:10:19.691Z</time></trkpt><trkpt lat="43.70303" lon="12.2003371"><ele>563.0</ele><time>2026-04-12T09:10:20.679Z</time></trkpt><trkpt lat="43.7028664" lon="12.2002909"><ele>563.0</ele><time>2026-04-12T09:10:21.701Z</time></trkpt><trkpt lat="43.7027113" lon="12.2002321"><ele>563.0</ele><time>2026-04-12T09:10:22.685Z</time></trkpt><trkpt lat="43.7025662" lon="12.2001569"><ele>563.3333333333333</ele><time>2026-04-12T09:10:23.755Z</time></trkpt><trkpt lat="43.7024391" lon="12.2000503"><ele>563.6666666666666</ele><time>2026-04-12T09:10:24.686Z</time></trkpt><trkpt lat="43.7023273" lon="12.1998991"><ele>564.0</ele><time>2026-04-12T09:10:25.77Z</time></trkpt><trkpt lat="43.7022349" lon="12.1997446"><ele>564.0</ele><time>2026-04-12T09:10:26.69Z</time></trkpt><trkpt lat="43.702133" lon="12.1995952"><ele>564.0</ele><time>2026-04-12T09:10:27.695Z</time></trkpt><trkpt lat="43.7020252" lon="12.1994884"><ele>564.0</ele><time>2026-04-12T09:10:28.704Z</time></trkpt><trkpt lat="43.7019091" lon="12.1994164"><ele>564.0</ele><time>2026-04-12T09:10:29.693Z</time></trkpt><trkpt lat="43.7017851" lon="12.1993582"><ele>566.5</ele><time>2026-04-12T09:10:30.699Z</time></trkpt><trkpt lat="43.7016731" lon="12.1993225"><ele>569.0</ele><time>2026-04-12T09:10:31.705Z</time></trkpt><trkpt lat="43.7015624" lon="12.199325"><ele>571.5</ele><time>2026-04-12T09:10:32.71Z</time></trkpt><trkpt lat="43.7013895" lon="12.1994839"><ele>574.0</ele><time>2026-04-12T09:10:34.685Z</time></trkpt><trkpt lat="43.7013371" lon="12.1996311"><ele>574.0</ele><time>2026-04-12T09:10:35.761Z</time></trkpt><trkpt lat="43.7013111" lon="12.1998192"><ele>574.0</ele><time>2026-04-12T09:10:36.69Z</time></trkpt><trkpt lat="43.7012963" lon="12.2000288"><ele>574.0</ele><time>2026-04-12T09:10:37.705Z</time></trkpt><trkpt lat="43.7012855" lon="12.2002523"><ele>579.6666666666667</ele><time>2026-04-12T09:10:38.681Z</time></trkpt><trkpt lat="43.7012604" lon="12.2004724"><ele>585.3333333333334</ele><time>2026-04-12T09:10:39.703Z</time></trkpt><trkpt lat="43.7012071" lon="12.2006682"><ele>591.0</ele><time>2026-04-12T09:10:40.691Z</time></trkpt><trkpt lat="43.7011275" lon="12.20084"><ele>592.5</ele><time>2026-04-12T09:10:41.701Z</time></trkpt><trkpt lat="43.7010275" lon="12.2009603"><ele>594.0</ele><time>2026-04-12T09:10:42.685Z</time></trkpt><trkpt lat="43.7008934" lon="12.2010319"><ele>595.5</ele><time>2026-04-12T09:10:43.672Z</time></trkpt><trkpt lat="43.700732" lon="12.2010796"><ele>597.0</ele><time>2026-04-12T09:10:44.708Z</time></trkpt><trkpt lat="43.7005731" lon="12.2012008"><ele>597.0</ele><time>2026-04-12T09:10:45.672Z</time></trkpt><trkpt lat="43.7004251" lon="12.20135"><ele>597.0</ele><time>2026-04-12T09:10:46.691Z</time></trkpt><trkpt lat="43.7002844" lon="12.2014918"><ele>597.0</ele><time>2026-04-12T09:10:47.759Z</time></trkpt><trkpt lat="43.700149" lon="12.2016172"><ele>602.0</ele><time>2026-04-12T09:10:48.717Z</time></trkpt><trkpt lat="43.7000243" lon="12.201726"><ele>607.0</ele><time>2026-04-12T09:10:49.723Z</time></trkpt><trkpt lat="43.6998862" lon="12.2017823"><ele>612.0</ele><time>2026-04-12T09:10:50.681Z</time></trkpt><trkpt lat="43.699728" lon="12.2017869"><ele>612.0</ele><time>2026-04-12T09:10:51.693Z</time></trkpt><trkpt lat="43.699567" lon="12.2017663"><ele>612.0</ele><time>2026-04-12T09:10:52.695Z</time></trkpt><trkpt lat="43.6993953" lon="12.2017461"><ele>612.0</ele><time>2026-04-12T09:10:53.692Z</time></trkpt><trkpt lat="43.6991028" lon="12.2016709"><ele>612.5</ele><time>2026-04-12T09:10:55.685Z</time></trkpt><trkpt lat="43.6989712" lon="12.2016489"><ele>613.0</ele><time>2026-04-12T09:10:56.725Z</time></trkpt><trkpt lat="43.6988569" lon="12.2016372"><ele>613.5</ele><time>2026-04-12T09:10:57.681Z</time></trkpt><trkpt lat="43.6987587" lon="12.2016841"><ele>614.0</ele><time>2026-04-12T09:10:58.682Z</time></trkpt><trkpt lat="43.6986729" lon="12.201795"><ele>614.0</ele><time>2026-04-12T09:10:59.68Z</time></trkpt><trkpt lat="43.6986071" lon="12.2019546"><ele>614.0</ele><time>2026-04-12T09:11:00.687Z</time></trkpt><trkpt lat="43.698557" lon="12.202146"><ele>614.0</ele><time>2026-04-12T09:11:01.691Z</time></trkpt><trkpt lat="43.6985058" lon="12.2023305"><ele>614.0</ele><time>2026-04-12T09:11:02.68Z</time></trkpt><trkpt lat="43.6984382" lon="12.2025178"><ele>616.0</ele><time>2026-04-12T09:11:03.685Z</time></trkpt><trkpt lat="43.6983739" lon="12.2027066"><ele>618.0</ele><time>2026-04-12T09:11:04.677Z</time></trkpt><trkpt lat="43.6983017" lon="12.2029081"><ele>620.0</ele><time>2026-04-12T09:11:05.703Z</time></trkpt><trkpt lat="43.6982303" lon="12.203108"><ele>623.0</ele><time>2026-04-12T09:11:06.677Z</time></trkpt><trkpt lat="43.6981515" lon="12.2033041"><ele>626.0</ele><time>2026-04-12T09:11:07.686Z</time></trkpt><trkpt lat="43.6980703" lon="12.203501"><ele>629.0</ele><time>2026-04-12T09:11:08.683Z</time></trkpt><trkpt lat="43.6979801" lon="12.2036991"><ele>629.0</ele><time>2026-04-12T09:11:09.687Z</time></trkpt><trkpt lat="43.697886" lon="12.2038856"><ele>629.0</ele><time>2026-04-12T09:11:10.669Z</time></trkpt><trkpt lat="43.6977889" lon="12.2040689"><ele>629.0</ele><time>2026-04-12T09:11:11.678Z</time></trkpt><trkpt lat="43.6976929" lon="12.2042485"><ele>630.0</ele><time>2026-04-12T09:11:12.679Z</time></trkpt><trkpt lat="43.6975978" lon="12.2044303"><ele>631.0</ele><time>2026-04-12T09:11:13.667Z</time></trkpt><trkpt lat="43.697505" lon="12.2046142"><ele>632.0</ele><time>2026-04-12T09:11:14.675Z</time></trkpt><trkpt lat="43.6973179" lon="12.2049939"><ele>635.6666666666666</ele><time>2026-04-12T09:11:16.701Z</time></trkpt><trkpt lat="43.6972203" lon="12.2051693"><ele>639.3333333333334</ele><time>2026-04-12T09:11:17.663Z</time></trkpt><trkpt lat="43.6971241" lon="12.2053453"><ele>643.0</ele><time>2026-04-12T09:11:18.679Z</time></trkpt><trkpt lat="43.6970347" lon="12.2055246"><ele>641.3333333333334</ele><time>2026-04-12T09:11:19.686Z</time></trkpt><trkpt lat="43.6969574" lon="12.2057054"><ele>639.6666666666666</ele><time>2026-04-12T09:11:20.686Z</time></trkpt><trkpt lat="43.6969078" lon="12.2059118"><ele>638.0</ele><time>2026-04-12T09:11:21.687Z</time></trkpt><trkpt lat="43.6968689" lon="12.2061352"><ele>638.0</ele><time>2026-04-12T09:11:22.69Z</time></trkpt><trkpt lat="43.6968303" lon="12.2063844"><ele>638.0</ele><time>2026-04-12T09:11:23.681Z</time></trkpt><trkpt lat="43.6967843" lon="12.2066458"><ele>638.0</ele><time>2026-04-12T09:11:24.689Z</time></trkpt><trkpt lat="43.6967476" lon="12.2068986"><ele>640.6666666666666</ele><time>2026-04-12T09:11:25.684Z</time></trkpt><trkpt lat="43.6967177" lon="12.2071505"><ele>643.3333333333334</ele><time>2026-04-12T09:11:26.693Z</time></trkpt><trkpt lat="43.6966997" lon="12.2074074"><ele>646.0</ele><time>2026-04-12T09:11:27.682Z</time></trkpt><trkpt lat="43.6966853" lon="12.2076674"><ele>649.0</ele><time>2026-04-12T09:11:28.687Z</time></trkpt><trkpt lat="43.6966464" lon="12.207923"><ele>652.0</ele><time>2026-04-12T09:11:29.684Z</time></trkpt><trkpt lat="43.6965834" lon="12.2081605"><ele>655.0</ele><time>2026-04-12T09:11:30.684Z</time></trkpt><trkpt lat="43.6964996" lon="12.2083856"><ele>659.3333333333334</ele><time>2026-04-12T09:11:31.703Z</time></trkpt><trkpt lat="43.6964051" lon="12.208604"><ele>663.6666666666666</ele><time>2026-04-12T09:11:32.683Z</time></trkpt><trkpt lat="43.6963093" lon="12.2088117"><ele>668.0</ele><time>2026-04-12T09:11:33.719Z</time></trkpt><trkpt lat="43.6962332" lon="12.2090113"><ele>675.5</ele><time>2026-04-12T09:11:34.684Z</time></trkpt><trkpt lat="43.696171" lon="12.2092119"><ele>683.0</ele><time>2026-04-12T09:11:35.689Z</time></trkpt><trkpt lat="43.6961188" lon="12.2096599"><ele>687.6666666666666</ele><time>2026-04-12T09:11:37.676Z</time></trkpt><trkpt lat="43.6961082" lon="12.2098986"><ele>692.3333333333334</ele><time>2026-04-12T09:11:38.676Z</time></trkpt><trkpt lat="43.6961012" lon="12.2101383"><ele>697.0</ele><time>2026-04-12T09:11:39.705Z</time></trkpt><trkpt lat="43.6960792" lon="12.2103648"><ele>691.6666666666667</ele><time>2026-04-12T09:11:40.681Z</time></trkpt><trkpt lat="43.6960265" lon="12.2105653"><ele>686.3333333333334</ele><time>2026-04-12T09:11:41.696Z</time></trkpt><trkpt lat="43.6959361" lon="12.210743"><ele>681.0</ele><time>2026-04-12T09:11:42.717Z</time></trkpt><trkpt lat="43.6958231" lon="12.2108954"><ele>681.0</ele><time>2026-04-12T09:11:43.683Z</time></trkpt><trkpt lat="43.6957139" lon="12.2110337"><ele>681.0</ele><time>2026-04-12T09:11:44.693Z</time></trkpt><trkpt lat="43.6956416" lon="12.2111595"><ele>681.0</ele><time>2026-04-12T09:11:45.684Z</time></trkpt><trkpt lat="43.6956013" lon="12.2112932"><ele>681.0</ele><time>2026-04-12T09:11:46.708Z</time></trkpt><trkpt lat="43.6955929" lon="12.2114595"><ele>685.25</ele><time>2026-04-12T09:11:47.669Z</time></trkpt><trkpt lat="43.6956073" lon="12.2116296"><ele>689.5</ele><time>2026-04-12T09:11:48.685Z</time></trkpt><trkpt lat="43.6956203" lon="12.2117885"><ele>693.75</ele><time>2026-04-12T09:11:49.695Z</time></trkpt><trkpt lat="43.6955707" lon="12.2119506"><ele>698.0</ele><time>2026-04-12T09:11:50.7Z</time></trkpt><trkpt lat="43.6954789" lon="12.2121116"><ele>698.0</ele><time>2026-04-12T09:11:51.719Z</time></trkpt><trkpt lat="43.6953782" lon="12.212268"><ele>698.0</ele><time>2026-04-12T09:11:52.69Z</time></trkpt><trkpt lat="43.6952804" lon="12.21243"><ele>698.0</ele><time>2026-04-12T09:11:53.689Z</time></trkpt><trkpt lat="43.6951902" lon="12.2125892"><ele>695.3333333333333</ele><time>2026-04-12T09:11:54.675Z</time></trkpt><trkpt lat="43.6951199" lon="12.2127521"><ele>692.6666666666666</ele><time>2026-04-12T09:11:55.679Z</time></trkpt><trkpt lat="43.6950782" lon="12.2129237"><ele>690.0</ele><time>2026-04-12T09:11:56.762Z</time></trkpt><trkpt lat="43.6950835" lon="12.2132666"><ele>690.0</ele><time>2026-04-12T09:11:58.705Z</time></trkpt><trkpt lat="43.6951084" lon="12.2134413"><ele>690.0</ele><time>2026-04-12T09:11:59.671Z</time></trkpt><trkpt lat="43.6950912" lon="12.2136509"><ele>690.0</ele><time>2026-04-12T09:12:00.688Z</time></trkpt><trkpt lat="43.6950251" lon="12.2138681"><ele>693.0</ele><time>2026-04-12T09:12:01.682Z</time></trkpt><trkpt lat="43.6949653" lon="12.214067"><ele>696.0</ele><time>2026-04-12T09:12:02.676Z</time></trkpt><trkpt lat="43.6949132" lon="12.214267"><ele>699.0</ele><time>2026-04-12T09:12:03.673Z</time></trkpt><trkpt lat="43.6948806" lon="12.2144653"><ele>699.0</ele><time>2026-04-12T09:12:04.671Z</time></trkpt><trkpt lat="43.694863" lon="12.2146647"><ele>699.0</ele><time>2026-04-12T09:12:05.692Z</time></trkpt><trkpt lat="43.6948599" lon="12.2148427"><ele>699.0</ele><time>2026-04-12T09:12:06.682Z</time></trkpt><trkpt lat="43.6948601" lon="12.2150353"><ele>699.0</ele><time>2026-04-12T09:12:07.707Z</time></trkpt><trkpt lat="43.6948547" lon="12.2152486"><ele>702.0</ele><time>2026-04-12T09:12:08.753Z</time></trkpt><trkpt lat="43.6948358" lon="12.2154802"><ele>705.0</ele><time>2026-04-12T09:12:09.674Z</time></trkpt><trkpt lat="43.6948131" lon="12.2156803"><ele>708.0</ele><time>2026-04-12T09:12:10.704Z</time></trkpt><trkpt lat="43.6947688" lon="12.2158485"><ele>711.0</ele><time>2026-04-12T09:12:11.678Z</time></trkpt><trkpt lat="43.694699" lon="12.2159891"><ele>712.75</ele><time>2026-04-12T09:12:12.703Z</time></trkpt><trkpt lat="43.6945974" lon="12.2160999"><ele>714.5</ele><time>2026-04-12T09:12:13.68Z</time></trkpt><trkpt lat="43.6944789" lon="12.2161982"><ele>716.25</ele><time>2026-04-12T09:12:14.698Z</time></trkpt><trkpt lat="43.6943758" lon="12.2163241"><ele>718.0</ele><time>2026-04-12T09:12:15.673Z</time></trkpt><trkpt lat="43.6943033" lon="12.2164945"><ele>711.0</ele><time>2026-04-12T09:12:16.687Z</time></trkpt><trkpt lat="43.6942524" lon="12.2166885"><ele>704.0</ele><time>2026-04-12T09:12:17.69Z</time></trkpt><trkpt lat="43.694165" lon="12.2171402"><ele>704.6666666666666</ele><time>2026-04-12T09:12:19.675Z</time></trkpt><trkpt lat="43.6941209" lon="12.2173996"><ele>705.3333333333334</ele><time>2026-04-12T09:12:20.689Z</time></trkpt><trkpt lat="43.6940724" lon="12.2176601"><ele>706.0</ele><time>2026-04-12T09:12:21.674Z</time></trkpt><trkpt lat="43.6940191" lon="12.2179071"><ele>706.0</ele><time>2026-04-12T09:12:22.678Z</time></trkpt><trkpt lat="43.693968" lon="12.2181506"><ele>706.0</ele><time>2026-04-12T09:12:23.691Z</time></trkpt><trkpt lat="43.6939202" lon="12.2184058"><ele>706.0</ele><time>2026-04-12T09:12:24.688Z</time></trkpt><trkpt lat="43.6938619" lon="12.2186536"><ele>706.3333333333334</ele><time>2026-04-12T09:12:25.684Z</time></trkpt><trkpt lat="43.6938018" lon="12.2188923"><ele>706.6666666666666</ele><time>2026-04-12T09:12:26.683Z</time></trkpt><trkpt lat="43.6937431" lon="12.2191179"><ele>707.0</ele><time>2026-04-12T09:12:27.688Z</time></trkpt><trkpt lat="43.6936888" lon="12.2193301"><ele>708.0</ele><time>2026-04-12T09:12:28.692Z</time></trkpt><trkpt lat="43.6936463" lon="12.2195326"><ele>709.0</ele><time>2026-04-12T09:12:29.691Z</time></trkpt><trkpt lat="43.6936162" lon="12.2197396"><ele>710.0</ele><time>2026-04-12T09:12:30.683Z</time></trkpt><trkpt lat="43.6935817" lon="12.2199574"><ele>710.0</ele><time>2026-04-12T09:12:31.692Z</time></trkpt><trkpt lat="43.6935464" lon="12.2201755"><ele>710.0</ele><time>2026-04-12T09:12:32.687Z</time></trkpt><trkpt lat="43.6934934" lon="12.2203887"><ele>710.0</ele><time>2026-04-12T09:12:33.699Z</time></trkpt><trkpt lat="43.6934173" lon="12.2205752"><ele>713.6666666666666</ele><time>2026-04-12T09:12:34.676Z</time></trkpt><trkpt lat="43.693317" lon="12.2207349"><ele>717.3333333333334</ele><time>2026-04-12T09:12:35.692Z</time></trkpt><trkpt lat="43.6932035" lon="12.2208668"><ele>721.0</ele><time>2026-04-12T09:12:36.68Z</time></trkpt><trkpt lat="43.6930798" lon="12.2209868"><ele>721.0</ele><time>2026-04-12T09:12:37.685Z</time></trkpt><trkpt lat="43.6929919" lon="12.2211307"><ele>721.0</ele><time>2026-04-12T09:12:38.698Z</time></trkpt><trkpt lat="43.6928635" lon="12.2214949"><ele>721.0</ele><time>2026-04-12T09:12:40.712Z</time></trkpt><trkpt lat="43.6927949" lon="12.2217015"><ele>719.3333333333334</ele><time>2026-04-12T09:12:41.685Z</time></trkpt><trkpt lat="43.6927256" lon="12.2219155"><ele>717.6666666666666</ele><time>2026-04-12T09:12:42.681Z</time></trkpt><trkpt lat="43.6926557" lon="12.2221362"><ele>716.0</ele><time>2026-04-12T09:12:43.688Z</time></trkpt><trkpt lat="43.6925858" lon="12.2223596"><ele>721.0</ele><time>2026-04-12T09:12:44.672Z</time></trkpt><trkpt lat="43.6925095" lon="12.222565"><ele>726.0</ele><time>2026-04-12T09:12:45.706Z</time></trkpt><trkpt lat="43.6924355" lon="12.2227641"><ele>731.0</ele><time>2026-04-12T09:12:46.764Z</time></trkpt><trkpt lat="43.6923545" lon="12.2229763"><ele>735.0</ele><time>2026-04-12T09:12:47.673Z</time></trkpt><trkpt lat="43.6922729" lon="12.2231768"><ele>739.0</ele><time>2026-04-12T09:12:48.692Z</time></trkpt><trkpt lat="43.6921943" lon="12.2233551"><ele>743.0</ele><time>2026-04-12T09:12:49.676Z</time></trkpt><trkpt lat="43.6921357" lon="12.2235266"><ele>743.0</ele><time>2026-04-12T09:12:50.689Z</time></trkpt><trkpt lat="43.6920826" lon="12.2237047"><ele>743.0</ele><time>2026-04-12T09:12:51.688Z</time></trkpt><trkpt lat="43.6920459" lon="12.2238937"><ele>743.0</ele><time>2026-04-12T09:12:52.686Z</time></trkpt><trkpt lat="43.6920296" lon="12.2241009"><ele>743.0</ele><time>2026-04-12T09:12:53.686Z</time></trkpt><trkpt lat="43.6920337" lon="12.2243201"><ele>745.0</ele><time>2026-04-12T09:12:54.681Z</time></trkpt><trkpt lat="43.6920413" lon="12.2245511"><ele>747.0</ele><time>2026-04-12T09:12:55.703Z</time></trkpt><trkpt lat="43.6920522" lon="12.2247848"><ele>749.0</ele><time>2026-04-12T09:12:56.689Z</time></trkpt><trkpt lat="43.692059" lon="12.225024"><ele>749.0</ele><time>2026-04-12T09:12:57.67Z</time></trkpt><trkpt lat="43.6920644" lon="12.2252567"><ele>749.0</ele><time>2026-04-12T09:12:58.681Z</time></trkpt><trkpt lat="43.6920724" lon="12.2254887"><ele>749.0</ele><time>2026-04-12T09:12:59.678Z</time></trkpt><trkpt lat="43.6921097" lon="12.2259474"><ele>749.0</ele><time>2026-04-12T09:13:01.686Z</time></trkpt><trkpt lat="43.6921438" lon="12.2261743"><ele>749.0</ele><time>2026-04-12T09:13:02.683Z</time></trkpt><trkpt lat="43.6921871" lon="12.2264062"><ele>749.0</ele><time>2026-04-12T09:13:03.693Z</time></trkpt><trkpt lat="43.6922423" lon="12.2266496"><ele>749.0</ele><time>2026-04-12T09:13:04.694Z</time></trkpt><trkpt lat="43.692301" lon="12.2268995"><ele>749.0</ele><time>2026-04-12T09:13:05.668Z</time></trkpt><trkpt lat="43.6923518" lon="12.2271349"><ele>749.0</ele><time>2026-04-12T09:13:06.743Z</time></trkpt><trkpt lat="43.6923879" lon="12.2273498"><ele>748.75</ele><time>2026-04-12T09:13:07.686Z</time></trkpt><trkpt lat="43.6924174" lon="12.2275513"><ele>748.5</ele><time>2026-04-12T09:13:08.683Z</time></trkpt><trkpt lat="43.6924347" lon="12.2277263"><ele>748.25</ele><time>2026-04-12T09:13:09.764Z</time></trkpt><trkpt lat="43.6924371" lon="12.2278776"><ele>748.0</ele><time>2026-04-12T09:13:10.686Z</time></trkpt><trkpt lat="43.6924111" lon="12.2280177"><ele>748.0</ele><time>2026-04-12T09:13:11.689Z</time></trkpt><trkpt lat="43.6923519" lon="12.2281646"><ele>748.0</ele><time>2026-04-12T09:13:12.717Z</time></trkpt><trkpt lat="43.6922665" lon="12.2283123"><ele>748.0</ele><time>2026-04-12T09:13:13.686Z</time></trkpt><trkpt lat="43.692161" lon="12.2284207"><ele>748.0</ele><time>2026-04-12T09:13:14.688Z</time></trkpt><trkpt lat="43.6920919" lon="12.2285931"><ele>748.0</ele><time>2026-04-12T09:13:15.673Z</time></trkpt><trkpt lat="43.6920318" lon="12.2287905"><ele>748.0</ele><time>2026-04-12T09:13:16.716Z</time></trkpt><trkpt lat="43.691969" lon="12.2289922"><ele>748.0</ele><time>2026-04-12T09:13:17.675Z</time></trkpt><trkpt lat="43.6919054" lon="12.2291883"><ele>746.6666666666667</ele><time>2026-04-12T09:13:18.694Z</time></trkpt><trkpt lat="43.6918295" lon="12.2293771"><ele>745.3333333333334</ele><time>2026-04-12T09:13:19.698Z</time></trkpt><trkpt lat="43.6917508" lon="12.2295652"><ele>744.0</ele><time>2026-04-12T09:13:20.682Z</time></trkpt><trkpt lat="43.6916251" lon="12.2299338"><ele>746.6666666666666</ele><time>2026-04-12T09:13:22.681Z</time></trkpt><trkpt lat="43.6915916" lon="12.2301368"><ele>749.3333333333333</ele><time>2026-04-12T09:13:23.677Z</time></trkpt><trkpt lat="43.6915828" lon="12.230351"><ele>752.0</ele><time>2026-04-12T09:13:24.691Z</time></trkpt><trkpt lat="43.6915906" lon="12.2305967"><ele>753.6666666666666</ele><time>2026-04-12T09:13:25.682Z</time></trkpt><trkpt lat="43.6915972" lon="12.2308392"><ele>755.3333333333334</ele><time>2026-04-12T09:13:26.712Z</time></trkpt><trkpt lat="43.6916031" lon="12.2311019"><ele>757.0</ele><time>2026-04-12T09:13:27.685Z</time></trkpt><trkpt lat="43.6916112" lon="12.2313559"><ele>757.3333333333334</ele><time>2026-04-12T09:13:28.68Z</time></trkpt><trkpt lat="43.691617" lon="12.2315906"><ele>757.6666666666666</ele><time>2026-04-12T09:13:29.676Z</time></trkpt><trkpt lat="43.6916235" lon="12.2318095"><ele>758.0</ele><time>2026-04-12T09:13:30.694Z</time></trkpt><trkpt lat="43.6916059" lon="12.2320293"><ele>758.0</ele><time>2026-04-12T09:13:31.679Z</time></trkpt><trkpt lat="43.6915608" lon="12.2322508"><ele>758.0</ele><time>2026-04-12T09:13:32.685Z</time></trkpt><trkpt lat="43.6915078" lon="12.2324739"><ele>758.0</ele><time>2026-04-12T09:13:33.679Z</time></trkpt><trkpt lat="43.6914475" lon="12.2326919"><ele>759.6666666666666</ele><time>2026-04-12T09:13:34.697Z</time></trkpt><trkpt lat="43.6913782" lon="12.232895"><ele>761.3333333333334</ele><time>2026-04-12T09:13:35.686Z</time></trkpt><trkpt lat="43.6913042" lon="12.2330854"><ele>763.0</ele><time>2026-04-12T09:13:36.683Z</time></trkpt><trkpt lat="43.6912165" lon="12.2332323"><ele>764.25</ele><time>2026-04-12T09:13:37.674Z</time></trkpt><trkpt lat="43.6911152" lon="12.2333707"><ele>765.5</ele><time>2026-04-12T09:13:38.684Z</time></trkpt><trkpt lat="43.6910073" lon="12.233478"><ele>766.75</ele><time>2026-04-12T09:13:39.694Z</time></trkpt><trkpt lat="43.6908928" lon="12.2335561"><ele>768.0</ele><time>2026-04-12T09:13:40.687Z</time></trkpt><trkpt lat="43.6907661" lon="12.2335831"><ele>768.0</ele><time>2026-04-12T09:13:41.709Z</time></trkpt><trkpt lat="43.6904888" lon="12.2335598"><ele>768.0</ele><time>2026-04-12T09:13:43.702Z</time></trkpt><trkpt lat="43.6903392" lon="12.233522"><ele>768.0</ele><time>2026-04-12T09:13:44.687Z</time></trkpt><trkpt lat="43.6901777" lon="12.2334697"><ele>770.6666666666667</ele><time>2026-04-12T09:13:45.677Z</time></trkpt><trkpt lat="43.6900191" lon="12.2334468"><ele>773.3333333333334</ele><time>2026-04-12T09:13:46.683Z</time></trkpt><trkpt lat="43.6898586" lon="12.2334352"><ele>776.0</ele><time>2026-04-12T09:13:47.692Z</time></trkpt><trkpt lat="43.6897077" lon="12.2334142"><ele>776.0</ele><time>2026-04-12T09:13:48.677Z</time></trkpt><trkpt lat="43.689565" lon="12.2333769"><ele>776.0</ele><time>2026-04-12T09:13:49.683Z</time></trkpt><trkpt lat="43.6894319" lon="12.2333308"><ele>776.0</ele><time>2026-04-12T09:13:50.688Z</time></trkpt><trkpt lat="43.6893229" lon="12.2332499"><ele>776.0</ele><time>2026-04-12T09:13:51.75Z</time></trkpt><trkpt lat="43.6892468" lon="12.2331511"><ele>780.25</ele><time>2026-04-12T09:13:52.691Z</time></trkpt><trkpt lat="43.6891985" lon="12.2330352"><ele>784.5</ele><time>2026-04-12T09:13:53.69Z</time></trkpt><trkpt lat="43.6891667" lon="12.2328853"><ele>788.75</ele><time>2026-04-12T09:13:54.749Z</time></trkpt><trkpt lat="43.6891579" lon="12.2327183"><ele>793.0</ele><time>2026-04-12T09:13:55.691Z</time></trkpt><trkpt lat="43.6891775" lon="12.232529"><ele>793.0</ele><time>2026-04-12T09:13:56.687Z</time></trkpt><trkpt lat="43.6892162" lon="12.2323224"><ele>793.0</ele><time>2026-04-12T09:13:57.691Z</time></trkpt><trkpt lat="43.6892787" lon="12.2320972"><ele>793.0</ele><time>2026-04-12T09:13:58.692Z</time></trkpt><trkpt lat="43.6893519" lon="12.2318544"><ele>791.6666666666666</ele><time>2026-04-12T09:13:59.69Z</time></trkpt><trkpt lat="43.6894241" lon="12.2316337"><ele>790.3333333333333</ele><time>2026-04-12T09:14:00.695Z</time></trkpt><trkpt lat="43.6894896" lon="12.2314123"><ele>789.0</ele><time>2026-04-12T09:14:01.714Z</time></trkpt><trkpt lat="43.6895518" lon="12.2312217"><ele>789.0</ele><time>2026-04-12T09:14:02.683Z</time></trkpt><trkpt lat="43.6896417" lon="12.2308435"><ele>789.0</ele><time>2026-04-12T09:14:04.678Z</time></trkpt><trkpt lat="43.6896554" lon="12.2306674"><ele>789.0</ele><time>2026-04-12T09:14:05.686Z</time></trkpt><trkpt lat="43.6896473" lon="12.2305032"><ele>785.75</ele><time>2026-04-12T09:14:06.715Z</time></trkpt><trkpt lat="43.6896077" lon="12.2303568"><ele>782.5</ele><time>2026-04-12T09:14:07.679Z</time></trkpt><trkpt lat="43.6895468" lon="12.2302135"><ele>779.25</ele><time>2026-04-12T09:14:08.679Z</time></trkpt><trkpt lat="43.6894775" lon="12.2300553"><ele>776.0</ele><time>2026-04-12T09:14:09.71Z</time></trkpt><trkpt lat="43.6894017" lon="12.2299102"><ele>785.0</ele><time>2026-04-12T09:14:10.696Z</time></trkpt><trkpt lat="43.6893314" lon="12.2297881"><ele>794.0</ele><time>2026-04-12T09:14:11.683Z</time></trkpt><trkpt lat="43.689219" lon="12.2296942"><ele>803.0</ele><time>2026-04-12T09:14:12.681Z</time></trkpt><trkpt lat="43.6891046" lon="12.2296128"><ele>812.0</ele><time>2026-04-12T09:14:13.755Z</time></trkpt><trkpt lat="43.6890154" lon="12.2295154"><ele>812.0</ele><time>2026-04-12T09:14:14.696Z</time></trkpt><trkpt lat="43.6889761" lon="12.2293969"><ele>812.0</ele><time>2026-04-12T09:14:15.711Z</time></trkpt><trkpt lat="43.6889851" lon="12.2292524"><ele>812.0</ele><time>2026-04-12T09:14:16.698Z</time></trkpt><trkpt lat="43.6889909" lon="12.2291163"><ele>812.0</ele><time>2026-04-12T09:14:17.695Z</time></trkpt><trkpt lat="43.6889714" lon="12.2289977"><ele>812.0</ele><time>2026-04-12T09:14:18.712Z</time></trkpt><trkpt lat="43.6889031" lon="12.2289308"><ele>812.0</ele><time>2026-04-12T09:14:19.675Z</time></trkpt><trkpt lat="43.6888056" lon="12.228898"><ele>812.0</ele><time>2026-04-12T09:14:20.705Z</time></trkpt><trkpt lat="43.6886904" lon="12.2289184"><ele>812.0</ele><time>2026-04-12T09:14:21.687Z</time></trkpt><trkpt lat="43.688561" lon="12.2289661"><ele>812.0</ele><time>2026-04-12T09:14:22.681Z</time></trkpt><trkpt lat="43.6884284" lon="12.229004"><ele>812.0</ele><time>2026-04-12T09:14:23.702Z</time></trkpt><trkpt lat="43.6881309" lon="12.2289447"><ele>812.0</ele><time>2026-04-12T09:14:25.688Z</time></trkpt><trkpt lat="43.6879776" lon="12.2288666"><ele>812.0</ele><time>2026-04-12T09:14:26.688Z</time></trkpt><trkpt lat="43.6878219" lon="12.2287769"><ele>812.0</ele><time>2026-04-12T09:14:27.688Z</time></trkpt><trkpt lat="43.6876895" lon="12.2286516"><ele>812.0</ele><time>2026-04-12T09:14:28.687Z</time></trkpt><trkpt lat="43.6875749" lon="12.2285103"><ele>817.5</ele><time>2026-04-12T09:14:29.678Z</time></trkpt><trkpt lat="43.6874615" lon="12.2283583"><ele>823.0</ele><time>2026-04-12T09:14:30.705Z</time></trkpt><trkpt lat="43.6873692" lon="12.2281894"><ele>828.5</ele><time>2026-04-12T09:14:31.699Z</time></trkpt><trkpt lat="43.6872873" lon="12.2280358"><ele>834.0</ele><time>2026-04-12T09:14:32.723Z</time></trkpt><trkpt lat="43.687236" lon="12.2278947"><ele>834.0</ele><time>2026-04-12T09:14:33.68Z</time></trkpt><trkpt lat="43.6872178" lon="12.2277498"><ele>834.0</ele><time>2026-04-12T09:14:34.67Z</time></trkpt><trkpt lat="43.6872565" lon="12.2275954"><ele>834.0</ele><time>2026-04-12T09:14:35.698Z</time></trkpt><trkpt lat="43.6873153" lon="12.2274312"><ele>834.0</ele><time>2026-04-12T09:14:36.69Z</time></trkpt><trkpt lat="43.6873568" lon="12.2272903"><ele>831.2</ele><time>2026-04-12T09:14:37.698Z</time></trkpt><trkpt lat="43.6873456" lon="12.2271569"><ele>828.4000000000001</ele><time>2026-04-12T09:14:38.698Z</time></trkpt><trkpt lat="43.6872912" lon="12.2270518"><ele>825.6</ele><time>2026-04-12T09:14:39.684Z</time></trkpt><trkpt lat="43.6871925" lon="12.2269661"><ele>822.8</ele><time>2026-04-12T09:14:40.684Z</time></trkpt><trkpt lat="43.6870815" lon="12.2268844"><ele>820.0</ele><time>2026-04-12T09:14:41.668Z</time></trkpt><trkpt lat="43.6869488" lon="12.2268394"><ele>829.3333333333333</ele><time>2026-04-12T09:14:42.666Z</time></trkpt><trkpt lat="43.6868188" lon="12.2268536"><ele>838.6666666666667</ele><time>2026-04-12T09:14:43.685Z</time></trkpt><trkpt lat="43.686695" lon="12.2269008"><ele>848.0</ele><time>2026-04-12T09:14:44.682Z</time></trkpt><trkpt lat="43.6864847" lon="12.2269193"><ele>848.0</ele><time>2026-04-12T09:14:46.695Z</time></trkpt><trkpt lat="43.6863942" lon="12.2268478"><ele>848.0</ele><time>2026-04-12T09:14:47.676Z</time></trkpt><trkpt lat="43.6862949" lon="12.2267319"><ele>848.0</ele><time>2026-04-12T09:14:48.669Z</time></trkpt><trkpt lat="43.686189" lon="12.2265939"><ele>848.0</ele><time>2026-04-12T09:14:49.673Z</time></trkpt><trkpt lat="43.6860809" lon="12.2264458"><ele>850.75</ele><time>2026-04-12T09:14:50.68Z</time></trkpt><trkpt lat="43.6859773" lon="12.2262969"><ele>853.5</ele><time>2026-04-12T09:14:51.738Z</time></trkpt><trkpt lat="43.6858887" lon="12.2261836"><ele>856.25</ele><time>2026-04-12T09:14:52.691Z</time></trkpt><trkpt lat="43.685798" lon="12.2260999"><ele>859.0</ele><time>2026-04-12T09:14:53.715Z</time></trkpt><trkpt lat="43.6856856" lon="12.2260445"><ele>859.0</ele><time>2026-04-12T09:14:54.667Z</time></trkpt><trkpt lat="43.6855792" lon="12.2260242"><ele>859.0</ele><time>2026-04-12T09:14:55.682Z</time></trkpt><trkpt lat="43.6854618" lon="12.2260115"><ele>859.0</ele><time>2026-04-12T09:14:56.681Z</time></trkpt><trkpt lat="43.6853505" lon="12.2259502"><ele>859.0</ele><time>2026-04-12T09:14:57.668Z</time></trkpt><trkpt lat="43.6852527" lon="12.2258739"><ele>859.0</ele><time>2026-04-12T09:14:58.679Z</time></trkpt><trkpt lat="43.6851854" lon="12.2257699"><ele>859.0000000000001</ele><time>2026-04-12T09:14:59.671Z</time></trkpt><trkpt lat="43.6851614" lon="12.2256471"><ele>859.0000000000001</ele><time>2026-04-12T09:15:00.71Z</time></trkpt><trkpt lat="43.6851757" lon="12.2255048"><ele>859.0</ele><time>2026-04-12T09:15:01.678Z</time></trkpt><trkpt lat="43.6851951" lon="12.225315"><ele>859.0</ele><time>2026-04-12T09:15:02.674Z</time></trkpt><trkpt lat="43.6852889" lon="12.2251545"><ele>859.0</ele><time>2026-04-12T09:15:03.668Z</time></trkpt><trkpt lat="43.6853901" lon="12.2250113"><ele>859.0</ele><time>2026-04-12T09:15:04.685Z</time></trkpt><trkpt lat="43.6854909" lon="12.2249158"><ele>859.0</ele><time>2026-04-12T09:15:05.674Z</time></trkpt><trkpt lat="43.6856379" lon="12.2246768"><ele>864.25</ele><time>2026-04-12T09:15:07.672Z</time></trkpt><trkpt lat="43.6856682" lon="12.2245143"><ele>869.5</ele><time>2026-04-12T09:15:08.676Z</time></trkpt><trkpt lat="43.6856907" lon="12.2243195"><ele>874.75</ele><time>2026-04-12T09:15:09.672Z</time></trkpt><trkpt lat="43.6857114" lon="12.2241232"><ele>880.0</ele><time>2026-04-12T09:15:10.666Z</time></trkpt><trkpt lat="43.6857568" lon="12.2239375"><ele>882.0</ele><time>2026-04-12T09:15:11.673Z</time></trkpt><trkpt lat="43.6858196" lon="12.2237791"><ele>884.0</ele><time>2026-04-12T09:15:12.672Z</time></trkpt><trkpt lat="43.6859181" lon="12.2236516"><ele>886.0</ele><time>2026-04-12T09:15:13.697Z</time></trkpt><trkpt lat="43.6860295" lon="12.2235285"><ele>888.0</ele><time>2026-04-12T09:15:14.676Z</time></trkpt><trkpt lat="43.6861461" lon="12.2233908"><ele>888.0</ele><time>2026-04-12T09:15:15.683Z</time></trkpt><trkpt lat="43.6862682" lon="12.2232554"><ele>888.0</ele><time>2026-04-12T09:15:16.69Z</time></trkpt><trkpt lat="43.6863862" lon="12.2231274"><ele>888.0</ele><time>2026-04-12T09:15:17.671Z</time></trkpt><trkpt lat="43.6865108" lon="12.2230126"><ele>889.5</ele><time>2026-04-12T09:15:18.676Z</time></trkpt><trkpt lat="43.6866515" lon="12.222928"><ele>891.0</ele><time>2026-04-12T09:15:19.675Z</time></trkpt><trkpt lat="43.6867923" lon="12.2228706"><ele>892.5</ele><time>2026-04-12T09:15:20.675Z</time></trkpt><trkpt lat="43.6869203" lon="12.2228054"><ele>894.0</ele><time>2026-04-12T09:15:21.711Z</time></trkpt><trkpt lat="43.6870444" lon="12.2227246"><ele>894.0</ele><time>2026-04-12T09:15:22.739Z</time></trkpt><trkpt lat="43.6871652" lon="12.2226245"><ele>894.0</ele><time>2026-04-12T09:15:23.69Z</time></trkpt><trkpt lat="43.6872844" lon="12.2225341"><ele>894.0</ele><time>2026-04-12T09:15:24.681Z</time></trkpt><trkpt lat="43.687401" lon="12.2224425"><ele>894.0</ele><time>2026-04-12T09:15:25.673Z</time></trkpt><trkpt lat="43.6875126" lon="12.2223332"><ele>898.3333333333333</ele><time>2026-04-12T09:15:26.707Z</time></trkpt><trkpt lat="43.6876561" lon="12.2220274"><ele>902.6666666666666</ele><time>2026-04-12T09:15:28.71Z</time></trkpt><trkpt lat="43.6877028" lon="12.2218786"><ele>907.0</ele><time>2026-04-12T09:15:29.684Z</time></trkpt><trkpt lat="43.6877241" lon="12.2217393"><ele>907.0</ele><time>2026-04-12T09:15:30.673Z</time></trkpt><trkpt lat="43.6877117" lon="12.2216034"><ele>907.0</ele><time>2026-04-12T09:15:31.693Z</time></trkpt><trkpt lat="43.6876598" lon="12.2215011"><ele>907.0</ele><time>2026-04-12T09:15:32.687Z</time></trkpt><trkpt lat="43.6875718" lon="12.2213896"><ele>907.0</ele><time>2026-04-12T09:15:33.702Z</time></trkpt><trkpt lat="43.6874691" lon="12.221307"><ele>907.0</ele><time>2026-04-12T09:15:34.778Z</time></trkpt><trkpt lat="43.6873438" lon="12.2212719"><ele>904.6666666666666</ele><time>2026-04-12T09:15:35.697Z</time></trkpt><trkpt lat="43.6872029" lon="12.2212704"><ele>902.3333333333333</ele><time>2026-04-12T09:15:36.709Z</time></trkpt><trkpt lat="43.6870446" lon="12.2212921"><ele>900.0</ele><time>2026-04-12T09:15:37.694Z</time></trkpt><trkpt lat="43.6868726" lon="12.2213256"><ele>899.6666666666667</ele><time>2026-04-12T09:15:38.688Z</time></trkpt><trkpt lat="43.6867061" lon="12.2213814"><ele>899.3333333333334</ele><time>2026-04-12T09:15:39.678Z</time></trkpt><trkpt lat="43.6865411" lon="12.2214387"><ele>899.0</ele><time>2026-04-12T09:15:40.696Z</time></trkpt><trkpt lat="43.6863855" lon="12.2214776"><ele>900.5</ele><time>2026-04-12T09:15:41.678Z</time></trkpt><trkpt lat="43.6862485" lon="12.2214946"><ele>902.0</ele><time>2026-04-12T09:15:42.711Z</time></trkpt><trkpt lat="43.6861138" lon="12.2214837"><ele>903.5</ele><time>2026-04-12T09:15:43.7Z</time></trkpt><trkpt lat="43.685994" lon="12.2214309"><ele>905.0</ele><time>2026-04-12T09:15:44.698Z</time></trkpt><trkpt lat="43.6858849" lon="12.2213519"><ele>905.0</ele><time>2026-04-12T09:15:45.687Z</time></trkpt><trkpt lat="43.685796" lon="12.2212419"><ele>905.0</ele><time>2026-04-12T09:15:46.754Z</time></trkpt><trkpt lat="43.6857142" lon="12.2210908"><ele>905.0</ele><time>2026-04-12T09:15:47.688Z</time></trkpt><trkpt lat="43.6855527" lon="12.2208174"><ele>905.0</ele><time>2026-04-12T09:15:49.69Z</time></trkpt><trkpt lat="43.6854669" lon="12.2207208"><ele>905.0</ele><time>2026-04-12T09:15:50.68Z</time></trkpt><trkpt lat="43.6853752" lon="12.22065"><ele>905.0</ele><time>2026-04-12T09:15:51.695Z</time></trkpt><trkpt lat="43.6852456" lon="12.220609"><ele>905.0</ele><time>2026-04-12T09:15:52.695Z</time></trkpt><trkpt lat="43.6851085" lon="12.2206149"><ele>909.0</ele><time>2026-04-12T09:15:53.7Z</time></trkpt><trkpt lat="43.6849615" lon="12.2206605"><ele>913.0</ele><time>2026-04-12T09:15:54.69Z</time></trkpt><trkpt lat="43.6848146" lon="12.2207228"><ele>917.0</ele><time>2026-04-12T09:15:55.714Z</time></trkpt><trkpt lat="43.6846834" lon="12.2208033"><ele>921.0</ele><time>2026-04-12T09:15:56.704Z</time></trkpt><trkpt lat="43.6845685" lon="12.2208805"><ele>921.0</ele><time>2026-04-12T09:15:57.781Z</time></trkpt><trkpt lat="43.6844717" lon="12.2209737"><ele>921.0</ele><time>2026-04-12T09:15:58.684Z</time></trkpt><trkpt lat="43.6843803" lon="12.221088"><ele>921.0</ele><time>2026-04-12T09:15:59.713Z</time></trkpt><trkpt lat="43.6842946" lon="12.221204"><ele>921.0</ele><time>2026-04-12T09:16:00.685Z</time></trkpt><trkpt lat="43.6842088" lon="12.2213192"><ele>921.0</ele><time>2026-04-12T09:16:01.683Z</time></trkpt><trkpt lat="43.6841152" lon="12.2214188"><ele>921.0</ele><time>2026-04-12T09:16:02.68Z</time></trkpt><trkpt lat="43.6840258" lon="12.2215047"><ele>921.0</ele><time>2026-04-12T09:16:03.708Z</time></trkpt><trkpt lat="43.6839324" lon="12.221593"><ele>921.0</ele><time>2026-04-12T09:16:04.692Z</time></trkpt><trkpt lat="43.6838354" lon="12.2216885"><ele>921.5</ele><time>2026-04-12T09:16:05.687Z</time></trkpt><trkpt lat="43.6837332" lon="12.2217779"><ele>922.0</ele><time>2026-04-12T09:16:06.698Z</time></trkpt><trkpt lat="43.6836417" lon="12.2218632"><ele>922.5</ele><time>2026-04-12T09:16:07.673Z</time></trkpt><trkpt lat="43.6835616" lon="12.221957"><ele>923.0</ele><time>2026-04-12T09:16:08.695Z</time></trkpt><trkpt lat="43.6834359" lon="12.2222018"><ele>919.25</ele><time>2026-04-12T09:16:10.691Z</time></trkpt><trkpt lat="43.6833986" lon="12.2223695"><ele>915.5</ele><time>2026-04-12T09:16:11.683Z</time></trkpt><trkpt lat="43.683367" lon="12.2225782"><ele>911.75</ele><time>2026-04-12T09:16:12.687Z</time></trkpt><trkpt lat="43.6833367" lon="12.2227831"><ele>908.0</ele><time>2026-04-12T09:16:13.724Z</time></trkpt><trkpt lat="43.6833105" lon="12.2229713"><ele>908.0</ele><time>2026-04-12T09:16:14.675Z</time></trkpt><trkpt lat="43.6832878" lon="12.2231411"><ele>908.0</ele><time>2026-04-12T09:16:15.694Z</time></trkpt><trkpt lat="43.6832602" lon="12.2232908"><ele>908.0</ele><time>2026-04-12T09:16:16.694Z</time></trkpt><trkpt lat="43.6832083" lon="12.2234263"><ele>908.0</ele><time>2026-04-12T09:16:17.696Z</time></trkpt><trkpt lat="43.683143" lon="12.223537"><ele>909.5</ele><time>2026-04-12T09:16:18.693Z</time></trkpt><trkpt lat="43.6830641" lon="12.2236249"><ele>911.0</ele><time>2026-04-12T09:16:19.685Z</time></trkpt><trkpt lat="43.6829613" lon="12.2236874"><ele>912.5</ele><time>2026-04-12T09:16:20.687Z</time></trkpt><trkpt lat="43.6828383" lon="12.2237548"><ele>914.0</ele><time>2026-04-12T09:16:21.69Z</time></trkpt><trkpt lat="43.6827046" lon="12.2238341"><ele>909.0</ele><time>2026-04-12T09:16:22.7Z</time></trkpt><trkpt lat="43.6825742" lon="12.2239213"><ele>904.0</ele><time>2026-04-12T09:16:23.683Z</time></trkpt><trkpt lat="43.6824385" lon="12.2240214"><ele>899.0</ele><time>2026-04-12T09:16:24.683Z</time></trkpt><trkpt lat="43.682302" lon="12.2241171"><ele>899.0</ele><time>2026-04-12T09:16:25.678Z</time></trkpt><trkpt lat="43.682172" lon="12.22419"><ele>899.0</ele><time>2026-04-12T09:16:26.68Z</time></trkpt><trkpt lat="43.682057" lon="12.2242588"><ele>899.0</ele><time>2026-04-12T09:16:27.681Z</time></trkpt><trkpt lat="43.6819514" lon="12.224352"><ele>899.0</ele><time>2026-04-12T09:16:28.711Z</time></trkpt><trkpt lat="43.6818543" lon="12.2244579"><ele>895.5</ele><time>2026-04-12T09:16:29.688Z</time></trkpt><trkpt lat="43.6817469" lon="12.224703"><ele>892.0</ele><time>2026-04-12T09:16:31.679Z</time></trkpt><trkpt lat="43.6817354" lon="12.2248427"><ele>888.5</ele><time>2026-04-12T09:16:32.7Z</time></trkpt><trkpt lat="43.6817302" lon="12.224968"><ele>885.0</ele><time>2026-04-12T09:16:33.689Z</time></trkpt><trkpt lat="43.6817003" lon="12.2250779"><ele>885.0</ele><time>2026-04-12T09:16:34.709Z</time></trkpt><trkpt lat="43.6816284" lon="12.2251004"><ele>885.0</ele><time>2026-04-12T09:16:35.677Z</time></trkpt><trkpt lat="43.681525" lon="12.2250113"><ele>885.0</ele><time>2026-04-12T09:16:36.688Z</time></trkpt><trkpt lat="43.6814769" lon="12.2248832"><ele>885.0</ele><time>2026-04-12T09:16:37.692Z</time></trkpt><trkpt lat="43.6814665" lon="12.2247258"><ele>885.0</ele><time>2026-04-12T09:16:38.686Z</time></trkpt><trkpt lat="43.6814656" lon="12.2245658"><ele>882.5</ele><time>2026-04-12T09:16:39.712Z</time></trkpt><trkpt lat="43.6814662" lon="12.2244027"><ele>880.0</ele><time>2026-04-12T09:16:40.689Z</time></trkpt><trkpt lat="43.6814938" lon="12.2242559"><ele>877.5</ele><time>2026-04-12T09:16:41.698Z</time></trkpt><trkpt lat="43.6815538" lon="12.2241213"><ele>875.0</ele><time>2026-04-12T09:16:42.679Z</time></trkpt><trkpt lat="43.6816503" lon="12.2240049"><ele>877.25</ele><time>2026-04-12T09:16:43.692Z</time></trkpt><trkpt lat="43.6817665" lon="12.2238863"><ele>879.5</ele><time>2026-04-12T09:16:44.744Z</time></trkpt><trkpt lat="43.6818739" lon="12.2237748"><ele>881.75</ele><time>2026-04-12T09:16:45.688Z</time></trkpt><trkpt lat="43.6819676" lon="12.2236701"><ele>884.0</ele><time>2026-04-12T09:16:46.693Z</time></trkpt><trkpt lat="43.6820452" lon="12.2235486"><ele>884.0</ele><time>2026-04-12T09:16:47.684Z</time></trkpt><trkpt lat="43.6820875" lon="12.2234165"><ele>884.0</ele><time>2026-04-12T09:16:48.714Z</time></trkpt><trkpt lat="43.6820914" lon="12.223276"><ele>884.0</ele><time>2026-04-12T09:16:49.687Z</time></trkpt><trkpt lat="43.6820678" lon="12.223144"><ele>884.0</ele><time>2026-04-12T09:16:50.673Z</time></trkpt><trkpt lat="43.6819505" lon="12.2229765"><ele>878.8000000000001</ele><time>2026-04-12T09:16:52.682Z</time></trkpt><trkpt lat="43.6818498" lon="12.2229247"><ele>873.6000000000001</ele><time>2026-04-12T09:16:53.721Z</time></trkpt><trkpt lat="43.6817462" lon="12.2229051"><ele>868.4</ele><time>2026-04-12T09:16:54.69Z</time></trkpt><trkpt lat="43.6816615" lon="12.2228669"><ele>863.2</ele><time>2026-04-12T09:16:55.687Z</time></trkpt><trkpt lat="43.6815931" lon="12.2227769"><ele>858.0</ele><time>2026-04-12T09:16:56.698Z</time></trkpt><trkpt lat="43.6815273" lon="12.2226332"><ele>858.0</ele><time>2026-04-12T09:16:57.707Z</time></trkpt><trkpt lat="43.6814835" lon="12.2224896"><ele>858.0</ele><time>2026-04-12T09:16:58.718Z</time></trkpt><trkpt lat="43.6814512" lon="12.2223302"><ele>858.0</ele><time>2026-04-12T09:16:59.686Z</time></trkpt><trkpt lat="43.6814401" lon="12.2221698"><ele>858.0</ele><time>2026-04-12T09:17:00.707Z</time></trkpt><trkpt lat="43.6814519" lon="12.2219984"><ele>858.0</ele><time>2026-04-12T09:17:01.69Z</time></trkpt><trkpt lat="43.6814843" lon="12.2218212"><ele>858.0</ele><time>2026-04-12T09:17:02.685Z</time></trkpt><trkpt lat="43.68153" lon="12.2216459"><ele>858.0</ele><time>2026-04-12T09:17:03.677Z</time></trkpt><trkpt lat="43.6815772" lon="12.2214998"><ele>858.0</ele><time>2026-04-12T09:17:04.695Z</time></trkpt><trkpt lat="43.6816246" lon="12.2213674"><ele>857.1666666666666</ele><time>2026-04-12T09:17:05.692Z</time></trkpt><trkpt lat="43.6816625" lon="12.2212431"><ele>856.3333333333333</ele><time>2026-04-12T09:17:06.761Z</time></trkpt><trkpt lat="43.6816678" lon="12.2211299"><ele>855.5</ele><time>2026-04-12T09:17:07.683Z</time></trkpt><trkpt lat="43.6816463" lon="12.2210273"><ele>854.6666666666666</ele><time>2026-04-12T09:17:08.691Z</time></trkpt><trkpt lat="43.6815917" lon="12.2209565"><ele>853.8333333333333</ele><time>2026-04-12T09:17:09.689Z</time></trkpt><trkpt lat="43.6815243" lon="12.2209292"><ele>853.0</ele><time>2026-04-12T09:17:10.729Z</time></trkpt><trkpt lat="43.6814461" lon="12.2209499"><ele>853.0</ele><time>2026-04-12T09:17:11.695Z</time></trkpt><trkpt lat="43.6812791" lon="12.2211436"><ele>853.0</ele><time>2026-04-12T09:17:13.711Z</time></trkpt><trkpt lat="43.6811925" lon="12.2212592"><ele>853.0</ele><time>2026-04-12T09:17:14.691Z</time></trkpt><trkpt lat="43.6810984" lon="12.2213891"><ele>849.4</ele><time>2026-04-12T09:17:15.694Z</time></trkpt><trkpt lat="43.6810142" lon="12.2215016"><ele>845.8</ele><time>2026-04-12T09:17:16.695Z</time></trkpt><trkpt lat="43.6809247" lon="12.2216221"><ele>842.2</ele><time>2026-04-12T09:17:17.699Z</time></trkpt><trkpt lat="43.6808439" lon="12.2217229"><ele>838.6</ele><time>2026-04-12T09:17:18.692Z</time></trkpt><trkpt lat="43.6807854" lon="12.2218129"><ele>835.0</ele><time>2026-04-12T09:17:19.707Z</time></trkpt><trkpt lat="43.6807614" lon="12.2219435"><ele>835.0</ele><time>2026-04-12T09:17:20.684Z</time></trkpt><trkpt lat="43.6807587" lon="12.2220978"><ele>835.0</ele><time>2026-04-12T09:17:21.718Z</time></trkpt><trkpt lat="43.6807807" lon="12.222256"><ele>835.0</ele><time>2026-04-12T09:17:22.677Z</time></trkpt><trkpt lat="43.6808181" lon="12.2223981"><ele>835.0</ele><time>2026-04-12T09:17:23.691Z</time></trkpt><trkpt lat="43.6808487" lon="12.2225273"><ele>835.0</ele><time>2026-04-12T09:17:24.695Z</time></trkpt><trkpt lat="43.6808649" lon="12.2226537"><ele>835.2</ele><time>2026-04-12T09:17:25.679Z</time></trkpt><trkpt lat="43.680855" lon="12.2227761"><ele>835.4</ele><time>2026-04-12T09:17:26.699Z</time></trkpt><trkpt lat="43.6808149" lon="12.2228916"><ele>835.5999999999999</ele><time>2026-04-12T09:17:27.689Z</time></trkpt><trkpt lat="43.6807502" lon="12.2229805"><ele>835.8</ele><time>2026-04-12T09:17:28.72Z</time></trkpt><trkpt lat="43.68066" lon="12.2230506"><ele>836.0</ele><time>2026-04-12T09:17:29.68Z</time></trkpt><trkpt lat="43.680563" lon="12.2231097"><ele>837.0</ele><time>2026-04-12T09:17:30.695Z</time></trkpt><trkpt lat="43.6804821" lon="12.2231718"><ele>838.0</ele><time>2026-04-12T09:17:31.687Z</time></trkpt><trkpt lat="43.6804204" lon="12.2232683"><ele>839.0</ele><time>2026-04-12T09:17:32.687Z</time></trkpt><trkpt lat="43.6803674" lon="12.2235539"><ele>840.0</ele><time>2026-04-12T09:17:34.688Z</time></trkpt><trkpt lat="43.6803722" lon="12.223715"><ele>840.0</ele><time>2026-04-12T09:17:35.695Z</time></trkpt><trkpt lat="43.6803699" lon="12.2238886"><ele>840.0</ele><time>2026-04-12T09:17:36.765Z</time></trkpt><trkpt lat="43.680336" lon="12.2240743"><ele>840.0</ele><time>2026-04-12T09:17:37.693Z</time></trkpt><trkpt lat="43.6802972" lon="12.2242527"><ele>840.0</ele><time>2026-04-12T09:17:38.691Z</time></trkpt><trkpt lat="43.6802551" lon="12.2244287"><ele>835.5</ele><time>2026-04-12T09:17:39.707Z</time></trkpt><trkpt lat="43.6802147" lon="12.2246143"><ele>831.0</ele><time>2026-04-12T09:17:40.684Z</time></trkpt><trkpt lat="43.6801832" lon="12.224805"><ele>826.5</ele><time>2026-04-12T09:17:41.712Z</time></trkpt><trkpt lat="43.6801562" lon="12.2249887"><ele>822.0</ele><time>2026-04-12T09:17:42.691Z</time></trkpt><trkpt lat="43.6801317" lon="12.2251473"><ele>822.0</ele><time>2026-04-12T09:17:43.674Z</time></trkpt><trkpt lat="43.6801132" lon="12.2252898"><ele>822.0</ele><time>2026-04-12T09:17:44.693Z</time></trkpt><trkpt lat="43.6801159" lon="12.2254213"><ele>822.0</ele><time>2026-04-12T09:17:45.699Z</time></trkpt><trkpt lat="43.6801544" lon="12.2255715"><ele>822.0</ele><time>2026-04-12T09:17:46.682Z</time></trkpt><trkpt lat="43.680224" lon="12.2257479"><ele>826.4000000000001</ele><time>2026-04-12T09:17:47.712Z</time></trkpt><trkpt lat="43.6802981" lon="12.2258967"><ele>830.8000000000001</ele><time>2026-04-12T09:17:48.693Z</time></trkpt><trkpt lat="43.6803477" lon="12.2260003"><ele>835.2</ele><time>2026-04-12T09:17:49.686Z</time></trkpt><trkpt lat="43.680379" lon="12.2261133"><ele>839.6</ele><time>2026-04-12T09:17:50.703Z</time></trkpt><trkpt lat="43.6803931" lon="12.226213"><ele>844.0</ele><time>2026-04-12T09:17:51.687Z</time></trkpt><trkpt lat="43.6803817" lon="12.2263291"><ele>844.0</ele><time>2026-04-12T09:17:52.69Z</time></trkpt><trkpt lat="43.6803457" lon="12.2264357"><ele>844.0</ele><time>2026-04-12T09:17:53.693Z</time></trkpt><trkpt lat="43.6802138" lon="12.2265403"><ele>844.0</ele><time>2026-04-12T09:17:55.675Z</time></trkpt><trkpt lat="43.6801286" lon="12.2265174"><ele>844.0</ele><time>2026-04-12T09:17:56.678Z</time></trkpt><trkpt lat="43.680052" lon="12.2264393"><ele>844.0</ele><time>2026-04-12T09:17:57.669Z</time></trkpt><trkpt lat="43.6799784" lon="12.2263577"><ele>837.0</ele><time>2026-04-12T09:17:58.682Z</time></trkpt><trkpt lat="43.6799031" lon="12.2262563"><ele>830.0</ele><time>2026-04-12T09:17:59.673Z</time></trkpt><trkpt lat="43.6797884" lon="12.2261677"><ele>823.0</ele><time>2026-04-12T09:18:00.698Z</time></trkpt><trkpt lat="43.6796375" lon="12.2260921"><ele>816.0</ele><time>2026-04-12T09:18:01.679Z</time></trkpt><trkpt lat="43.6794813" lon="12.226023"><ele>815.6666666666667</ele><time>2026-04-12T09:18:02.689Z</time></trkpt><trkpt lat="43.6793482" lon="12.2259485"><ele>815.3333333333334</ele><time>2026-04-12T09:18:03.684Z</time></trkpt><trkpt lat="43.6792161" lon="12.2258535"><ele>815.0</ele><time>2026-04-12T09:18:04.7Z</time></trkpt><trkpt lat="43.6790858" lon="12.2257197"><ele>811.3333333333334</ele><time>2026-04-12T09:18:05.684Z</time></trkpt><trkpt lat="43.6789616" lon="12.2255359"><ele>807.6666666666667</ele><time>2026-04-12T09:18:06.69Z</time></trkpt><trkpt lat="43.6788436" lon="12.2253497"><ele>804.0</ele><time>2026-04-12T09:18:07.676Z</time></trkpt><trkpt lat="43.6787275" lon="12.2251629"><ele>804.0</ele><time>2026-04-12T09:18:08.707Z</time></trkpt><trkpt lat="43.6786208" lon="12.2249815"><ele>804.0</ele><time>2026-04-12T09:18:09.685Z</time></trkpt><trkpt lat="43.6785156" lon="12.2248021"><ele>804.0</ele><time>2026-04-12T09:18:10.678Z</time></trkpt><trkpt lat="43.6784161" lon="12.224605"><ele>805.0</ele><time>2026-04-12T09:18:11.693Z</time></trkpt><trkpt lat="43.6783219" lon="12.2244011"><ele>806.0</ele><time>2026-04-12T09:18:12.672Z</time></trkpt><trkpt lat="43.6782382" lon="12.2241946"><ele>807.0</ele><time>2026-04-12T09:18:13.721Z</time></trkpt><trkpt lat="43.6781745" lon="12.2240305"><ele>805.5</ele><time>2026-04-12T09:18:14.696Z</time></trkpt><trkpt lat="43.6780506" lon="12.2237638"><ele>804.0</ele><time>2026-04-12T09:18:16.706Z</time></trkpt><trkpt lat="43.6779652" lon="12.2236811"><ele>802.5</ele><time>2026-04-12T09:18:17.702Z</time></trkpt><trkpt lat="43.677865" lon="12.2236314"><ele>801.0</ele><time>2026-04-12T09:18:18.719Z</time></trkpt><trkpt lat="43.6777526" lon="12.2236161"><ele>805.75</ele><time>2026-04-12T09:18:19.689Z</time></trkpt><trkpt lat="43.6776308" lon="12.2235923"><ele>810.5</ele><time>2026-04-12T09:18:20.682Z</time></trkpt><trkpt lat="43.6775237" lon="12.2235348"><ele>815.25</ele><time>2026-04-12T09:18:21.689Z</time></trkpt><trkpt lat="43.6774337" lon="12.2234395"><ele>820.0</ele><time>2026-04-12T09:18:22.696Z</time></trkpt><trkpt lat="43.6773582" lon="12.2233198"><ele>820.0</ele><time>2026-04-12T09:18:23.712Z</time></trkpt><trkpt lat="43.6772847" lon="12.2231872"><ele>820.0</ele><time>2026-04-12T09:18:24.757Z</time></trkpt><trkpt lat="43.6772035" lon="12.223052"><ele>820.0</ele><time>2026-04-12T09:18:25.674Z</time></trkpt><trkpt lat="43.677119" lon="12.2229012"><ele>820.0</ele><time>2026-04-12T09:18:26.683Z</time></trkpt><trkpt lat="43.6770427" lon="12.2227495"><ele>819.25</ele><time>2026-04-12T09:18:27.685Z</time></trkpt><trkpt lat="43.676988" lon="12.222586"><ele>818.5</ele><time>2026-04-12T09:18:28.695Z</time></trkpt><trkpt lat="43.6769534" lon="12.2224171"><ele>817.75</ele><time>2026-04-12T09:18:29.678Z</time></trkpt><trkpt lat="43.6769558" lon="12.2222392"><ele>817.0</ele><time>2026-04-12T09:18:30.711Z</time></trkpt><trkpt lat="43.6769825" lon="12.2220569"><ele>816.25</ele><time>2026-04-12T09:18:31.693Z</time></trkpt><trkpt lat="43.6770268" lon="12.2218671"><ele>815.5</ele><time>2026-04-12T09:18:32.7Z</time></trkpt><trkpt lat="43.6770616" lon="12.2217094"><ele>814.75</ele><time>2026-04-12T09:18:33.686Z</time></trkpt><trkpt lat="43.6770978" lon="12.2215613"><ele>814.0</ele><time>2026-04-12T09:18:34.693Z</time></trkpt><trkpt lat="43.6771172" lon="12.2214082"><ele>809.0</ele><time>2026-04-12T09:18:35.694Z</time></trkpt><trkpt lat="43.6770875" lon="12.2211073"><ele>804.0</ele><time>2026-04-12T09:18:37.701Z</time></trkpt><trkpt lat="43.6770328" lon="12.2209753"><ele>799.0</ele><time>2026-04-12T09:18:38.677Z</time></trkpt><trkpt lat="43.6769556" lon="12.2208387"><ele>798.8000000000001</ele><time>2026-04-12T09:18:39.696Z</time></trkpt><trkpt lat="43.6768694" lon="12.2207157"><ele>798.6</ele><time>2026-04-12T09:18:40.685Z</time></trkpt><trkpt lat="43.6767942" lon="12.2206101"><ele>798.4</ele><time>2026-04-12T09:18:41.702Z</time></trkpt><trkpt lat="43.6767181" lon="12.2205101"><ele>798.2</ele><time>2026-04-12T09:18:42.687Z</time></trkpt><trkpt lat="43.6766322" lon="12.2204232"><ele>798.0</ele><time>2026-04-12T09:18:43.693Z</time></trkpt><trkpt lat="43.6765412" lon="12.2203647"><ele>798.0</ele><time>2026-04-12T09:18:44.683Z</time></trkpt><trkpt lat="43.6764387" lon="12.2203431"><ele>798.0</ele><time>2026-04-12T09:18:45.684Z</time></trkpt><trkpt lat="43.6763277" lon="12.2203642"><ele>798.0</ele><time>2026-04-12T09:18:46.709Z</time></trkpt><trkpt lat="43.676194" lon="12.2204018"><ele>798.0</ele><time>2026-04-12T09:18:47.679Z</time></trkpt><trkpt lat="43.6760702" lon="12.2204428"><ele>797.8</ele><time>2026-04-12T09:18:48.678Z</time></trkpt><trkpt lat="43.6759578" lon="12.2204681"><ele>797.5999999999999</ele><time>2026-04-12T09:18:49.677Z</time></trkpt><trkpt lat="43.6758516" lon="12.220474"><ele>797.4000000000001</ele><time>2026-04-12T09:18:50.691Z</time></trkpt><trkpt lat="43.6757541" lon="12.220444"><ele>797.2</ele><time>2026-04-12T09:18:51.694Z</time></trkpt><trkpt lat="43.6756546" lon="12.2203693"><ele>797.0</ele><time>2026-04-12T09:18:52.713Z</time></trkpt><trkpt lat="43.6755404" lon="12.220249"><ele>797.0</ele><time>2026-04-12T09:18:53.682Z</time></trkpt><trkpt lat="43.6754136" lon="12.2201138"><ele>797.0</ele><time>2026-04-12T09:18:54.679Z</time></trkpt><trkpt lat="43.6752795" lon="12.2199875"><ele>797.0</ele><time>2026-04-12T09:18:55.7Z</time></trkpt><trkpt lat="43.6751599" lon="12.2198706"><ele>792.6666666666667</ele><time>2026-04-12T09:18:56.749Z</time></trkpt><trkpt lat="43.6749494" lon="12.219643"><ele>788.3333333333333</ele><time>2026-04-12T09:18:58.686Z</time></trkpt><trkpt lat="43.6748574" lon="12.2195259"><ele>784.0</ele><time>2026-04-12T09:18:59.681Z</time></trkpt><trkpt lat="43.6747717" lon="12.2194045"><ele>784.0</ele><time>2026-04-12T09:19:00.689Z</time></trkpt><trkpt lat="43.6746759" lon="12.219311"><ele>784.0</ele><time>2026-04-12T09:19:01.708Z</time></trkpt><trkpt lat="43.6745918" lon="12.2192531"><ele>784.0</ele><time>2026-04-12T09:19:02.685Z</time></trkpt><trkpt lat="43.6744955" lon="12.2192335"><ele>784.0</ele><time>2026-04-12T09:19:03.707Z</time></trkpt><trkpt lat="43.6743824" lon="12.2192346"><ele>784.0</ele><time>2026-04-12T09:19:04.681Z</time></trkpt><trkpt lat="43.6742601" lon="12.2192559"><ele>783.6666666666666</ele><time>2026-04-12T09:19:05.702Z</time></trkpt><trkpt lat="43.6741277" lon="12.2192803"><ele>783.3333333333333</ele><time>2026-04-12T09:19:06.714Z</time></trkpt><trkpt lat="43.673984" lon="12.219313"><ele>783.0</ele><time>2026-04-12T09:19:07.718Z</time></trkpt><trkpt lat="43.6738123" lon="12.2193542"><ele>779.3333333333333</ele><time>2026-04-12T09:19:08.688Z</time></trkpt><trkpt lat="43.6736015" lon="12.2194101"><ele>775.6666666666666</ele><time>2026-04-12T09:19:09.784Z</time></trkpt><trkpt lat="43.6733854" lon="12.2194497"><ele>772.0</ele><time>2026-04-12T09:19:10.759Z</time></trkpt><trkpt lat="43.6731859" lon="12.2194821"><ele>772.0</ele><time>2026-04-12T09:19:11.695Z</time></trkpt><trkpt lat="43.6730039" lon="12.2195015"><ele>772.0</ele><time>2026-04-12T09:19:12.69Z</time></trkpt><trkpt lat="43.6728383" lon="12.2195109"><ele>772.0</ele><time>2026-04-12T09:19:13.699Z</time></trkpt><trkpt lat="43.6726869" lon="12.2195325"><ele>769.3333333333333</ele><time>2026-04-12T09:19:14.725Z</time></trkpt><trkpt lat="43.6725317" lon="12.2195654"><ele>766.6666666666666</ele><time>2026-04-12T09:19:15.693Z</time></trkpt><trkpt lat="43.6723736" lon="12.219626"><ele>764.0</ele><time>2026-04-12T09:19:16.701Z</time></trkpt><trkpt lat="43.6722236" lon="12.2197074"><ele>768.0</ele><time>2026-04-12T09:19:17.696Z</time></trkpt><trkpt lat="43.6719637" lon="12.219832"><ele>772.0</ele><time>2026-04-12T09:19:19.694Z</time></trkpt><trkpt lat="43.6718364" lon="12.2198957"><ele>776.0</ele><time>2026-04-12T09:19:20.686Z</time></trkpt><trkpt lat="43.6717108" lon="12.2199873"><ele>776.0</ele><time>2026-04-12T09:19:21.772Z</time></trkpt><trkpt lat="43.6715784" lon="12.2200758"><ele>776.0</ele><time>2026-04-12T09:19:22.696Z</time></trkpt><trkpt lat="43.671454" lon="12.220168"><ele>776.0</ele><time>2026-04-12T09:19:23.71Z</time></trkpt><trkpt lat="43.6713439" lon="12.2202562"><ele>776.0</ele><time>2026-04-12T09:19:24.699Z</time></trkpt><trkpt lat="43.6712527" lon="12.2203283"><ele>776.0</ele><time>2026-04-12T09:19:25.682Z</time></trkpt><trkpt lat="43.6711731" lon="12.220364"><ele>776.0</ele><time>2026-04-12T09:19:26.687Z</time></trkpt><trkpt lat="43.671097" lon="12.2203634"><ele>776.0</ele><time>2026-04-12T09:19:27.693Z</time></trkpt><trkpt lat="43.6710226" lon="12.2203317"><ele>776.0</ele><time>2026-04-12T09:19:28.711Z</time></trkpt><trkpt lat="43.6709584" lon="12.2202817"><ele>776.0</ele><time>2026-04-12T09:19:29.69Z</time></trkpt><trkpt lat="43.6709216" lon="12.2202031"><ele>776.0</ele><time>2026-04-12T09:19:30.689Z</time></trkpt><trkpt lat="43.6709234" lon="12.220112"><ele>776.0</ele><time>2026-04-12T09:19:31.676Z</time></trkpt><trkpt lat="43.6709604" lon="12.220004"><ele>772.25</ele><time>2026-04-12T09:19:32.762Z</time></trkpt><trkpt lat="43.6710146" lon="12.2199081"><ele>768.5</ele><time>2026-04-12T09:19:33.695Z</time></trkpt><trkpt lat="43.6711243" lon="12.2198013"><ele>764.75</ele><time>2026-04-12T09:19:34.694Z</time></trkpt><trkpt lat="43.6712681" lon="12.2196886"><ele>761.0</ele><time>2026-04-12T09:19:35.698Z</time></trkpt><trkpt lat="43.6713905" lon="12.2195837"><ele>760.75</ele><time>2026-04-12T09:19:36.686Z</time></trkpt><trkpt lat="43.6714857" lon="12.2195015"><ele>760.5</ele><time>2026-04-12T09:19:37.705Z</time></trkpt><trkpt lat="43.6715725" lon="12.2194145"><ele>760.25</ele><time>2026-04-12T09:19:38.686Z</time></trkpt><trkpt lat="43.6716551" lon="12.2191987"><ele>760.0</ele><time>2026-04-12T09:19:40.719Z</time></trkpt><trkpt lat="43.6716468" lon="12.2190829"><ele>760.0</ele><time>2026-04-12T09:19:41.694Z</time></trkpt><trkpt lat="43.6716043" lon="12.2189974"><ele>760.0</ele><time>2026-04-12T09:19:42.714Z</time></trkpt><trkpt lat="43.6715312" lon="12.2189556"><ele>760.0</ele><time>2026-04-12T09:19:43.685Z</time></trkpt><trkpt lat="43.6714229" lon="12.2189837"><ele>760.0</ele><time>2026-04-12T09:19:44.689Z</time></trkpt><trkpt lat="43.6713155" lon="12.2190454"><ele>760.0</ele><time>2026-04-12T09:19:45.687Z</time></trkpt><trkpt lat="43.6712023" lon="12.2191333"><ele>757.5</ele><time>2026-04-12T09:19:46.705Z</time></trkpt><trkpt lat="43.671083" lon="12.2192301"><ele>755.0</ele><time>2026-04-12T09:19:47.679Z</time></trkpt><trkpt lat="43.6709577" lon="12.2193218"><ele>752.5</ele><time>2026-04-12T09:19:48.708Z</time></trkpt><trkpt lat="43.6708384" lon="12.21942"><ele>750.0</ele><time>2026-04-12T09:19:49.684Z</time></trkpt><trkpt lat="43.6707271" lon="12.2195219"><ele>750.0</ele><time>2026-04-12T09:19:50.697Z</time></trkpt><trkpt lat="43.6706218" lon="12.219629"><ele>750.0</ele><time>2026-04-12T09:19:51.701Z</time></trkpt><trkpt lat="43.6705266" lon="12.2197456"><ele>750.0</ele><time>2026-04-12T09:19:52.681Z</time></trkpt><trkpt lat="43.6704313" lon="12.219848"><ele>750.0</ele><time>2026-04-12T09:19:53.679Z</time></trkpt><trkpt lat="43.6703513" lon="12.2199356"><ele>749.6</ele><time>2026-04-12T09:19:54.762Z</time></trkpt><trkpt lat="43.6702782" lon="12.2200009"><ele>749.2</ele><time>2026-04-12T09:19:55.688Z</time></trkpt><trkpt lat="43.6702061" lon="12.2200115"><ele>748.8</ele><time>2026-04-12T09:19:56.696Z</time></trkpt><trkpt lat="43.6701234" lon="12.2199992"><ele>748.4</ele><time>2026-04-12T09:19:57.678Z</time></trkpt><trkpt lat="43.6700276" lon="12.2199408"><ele>748.0</ele><time>2026-04-12T09:19:58.685Z</time></trkpt><trkpt lat="43.6699236" lon="12.219838"><ele>742.3333333333334</ele><time>2026-04-12T09:19:59.68Z</time></trkpt><trkpt lat="43.6697026" lon="12.2196264"><ele>736.6666666666666</ele><time>2026-04-12T09:20:01.677Z</time></trkpt><trkpt lat="43.6696012" lon="12.2195578"><ele>731.0</ele><time>2026-04-12T09:20:02.687Z</time></trkpt><trkpt lat="43.6694996" lon="12.2195088"><ele>729.0</ele><time>2026-04-12T09:20:03.691Z</time></trkpt><trkpt lat="43.6694018" lon="12.2194752"><ele>727.0</ele><time>2026-04-12T09:20:04.68Z</time></trkpt><trkpt lat="43.6692976" lon="12.2194609"><ele>725.0</ele><time>2026-04-12T09:20:05.709Z</time></trkpt><trkpt lat="43.6691954" lon="12.2194724"><ele>723.0</ele><time>2026-04-12T09:20:06.675Z</time></trkpt><trkpt lat="43.6691086" lon="12.219504"><ele>721.0</ele><time>2026-04-12T09:20:07.794Z</time></trkpt><trkpt lat="43.6690364" lon="12.2195698"><ele>721.0</ele><time>2026-04-12T09:20:08.703Z</time></trkpt><trkpt lat="43.668987" lon="12.2196778"><ele>721.0</ele><time>2026-04-12T09:20:09.738Z</time></trkpt><trkpt lat="43.6689746" lon="12.219825"><ele>721.0</ele><time>2026-04-12T09:20:10.684Z</time></trkpt><trkpt lat="43.6689879" lon="12.220004"><ele>721.0</ele><time>2026-04-12T09:20:11.703Z</time></trkpt><trkpt lat="43.6690148" lon="12.2201966"><ele>725.3333333333334</ele><time>2026-04-12T09:20:12.712Z</time></trkpt><trkpt lat="43.6690479" lon="12.2204023"><ele>729.6666666666666</ele><time>2026-04-12T09:20:13.691Z</time></trkpt><trkpt lat="43.6690795" lon="12.2206151"><ele>734.0</ele><time>2026-04-12T09:20:14.708Z</time></trkpt><trkpt lat="43.669104" lon="12.2208302"><ele>734.0</ele><time>2026-04-12T09:20:15.684Z</time></trkpt><trkpt lat="43.669126" lon="12.2210436"><ele>734.0</ele><time>2026-04-12T09:20:16.711Z</time></trkpt><trkpt lat="43.6691537" lon="12.221259"><ele>734.0</ele><time>2026-04-12T09:20:17.712Z</time></trkpt><trkpt lat="43.6691805" lon="12.2214745"><ele>731.0</ele><time>2026-04-12T09:20:18.68Z</time></trkpt><trkpt lat="43.6692089" lon="12.2216953"><ele>728.0</ele><time>2026-04-12T09:20:19.693Z</time></trkpt><trkpt lat="43.6692378" lon="12.222112"><ele>728.0</ele><time>2026-04-12T09:20:21.707Z</time></trkpt><trkpt lat="43.669252" lon="12.2222934"><ele>728.0</ele><time>2026-04-12T09:20:22.684Z</time></trkpt><trkpt lat="43.6692595" lon="12.222449"><ele>728.0</ele><time>2026-04-12T09:20:23.685Z</time></trkpt><trkpt lat="43.6692536" lon="12.2225899"><ele>728.0</ele><time>2026-04-12T09:20:24.699Z</time></trkpt><trkpt lat="43.6692279" lon="12.2227273"><ele>728.0</ele><time>2026-04-12T09:20:25.694Z</time></trkpt><trkpt lat="43.6691786" lon="12.2228478"><ele>728.0</ele><time>2026-04-12T09:20:26.679Z</time></trkpt><trkpt lat="43.6691072" lon="12.2229269"><ele>728.0</ele><time>2026-04-12T09:20:27.702Z</time></trkpt><trkpt lat="43.6690202" lon="12.2229639"><ele>728.0</ele><time>2026-04-12T09:20:28.692Z</time></trkpt><trkpt lat="43.6689307" lon="12.22296"><ele>728.0</ele><time>2026-04-12T09:20:29.699Z</time></trkpt><trkpt lat="43.6688222" lon="12.2228841"><ele>728.0</ele><time>2026-04-12T09:20:30.694Z</time></trkpt><trkpt lat="43.6687064" lon="12.2227717"><ele>728.0</ele><time>2026-04-12T09:20:31.681Z</time></trkpt><trkpt lat="43.6685951" lon="12.2226531"><ele>728.0</ele><time>2026-04-12T09:20:32.677Z</time></trkpt><trkpt lat="43.6684882" lon="12.2225551"><ele>728.0</ele><time>2026-04-12T09:20:33.689Z</time></trkpt><trkpt lat="43.6683816" lon="12.2224732"><ele>724.75</ele><time>2026-04-12T09:20:34.689Z</time></trkpt><trkpt lat="43.668269" lon="12.2224211"><ele>721.5</ele><time>2026-04-12T09:20:35.695Z</time></trkpt><trkpt lat="43.6681484" lon="12.2224064"><ele>718.25</ele><time>2026-04-12T09:20:36.691Z</time></trkpt><trkpt lat="43.6680293" lon="12.2224157"><ele>715.0</ele><time>2026-04-12T09:20:37.701Z</time></trkpt><trkpt lat="43.667908" lon="12.2224663"><ele>715.0</ele><time>2026-04-12T09:20:38.728Z</time></trkpt><trkpt lat="43.667801" lon="12.222568"><ele>715.0</ele><time>2026-04-12T09:20:39.686Z</time></trkpt><trkpt lat="43.6677213" lon="12.2226744"><ele>715.0</ele><time>2026-04-12T09:20:40.696Z</time></trkpt><trkpt lat="43.6675596" lon="12.2227996"><ele>715.0</ele><time>2026-04-12T09:20:42.697Z</time></trkpt><trkpt lat="43.6674345" lon="12.2228068"><ele>711.25</ele><time>2026-04-12T09:20:43.704Z</time></trkpt><trkpt lat="43.6673021" lon="12.2227813"><ele>707.5</ele><time>2026-04-12T09:20:44.681Z</time></trkpt><trkpt lat="43.6671738" lon="12.2227588"><ele>703.75</ele><time>2026-04-12T09:20:45.681Z</time></trkpt><trkpt lat="43.6670502" lon="12.2227583"><ele>700.0</ele><time>2026-04-12T09:20:46.695Z</time></trkpt><trkpt lat="43.6669262" lon="12.2227757"><ele>698.0</ele><time>2026-04-12T09:20:47.682Z</time></trkpt><trkpt lat="43.6668138" lon="12.2228218"><ele>696.0</ele><time>2026-04-12T09:20:48.721Z</time></trkpt><trkpt lat="43.6667213" lon="12.2228808"><ele>694.0</ele><time>2026-04-12T09:20:49.698Z</time></trkpt><trkpt lat="43.6666486" lon="12.2229214"><ele>692.0</ele><time>2026-04-12T09:20:50.694Z</time></trkpt><trkpt lat="43.6665825" lon="12.222918"><ele>690.0</ele><time>2026-04-12T09:20:51.766Z</time></trkpt><trkpt lat="43.66652" lon="12.2228627"><ele>688.0</ele><time>2026-04-12T09:20:52.708Z</time></trkpt><trkpt lat="43.6664798" lon="12.2227726"><ele>688.0</ele><time>2026-04-12T09:20:53.704Z</time></trkpt><trkpt lat="43.6664838" lon="12.2226608"><ele>688.0</ele><time>2026-04-12T09:20:54.69Z</time></trkpt><trkpt lat="43.6665282" lon="12.2225508"><ele>688.0</ele><time>2026-04-12T09:20:55.691Z</time></trkpt><trkpt lat="43.6666122" lon="12.2224866"><ele>688.0</ele><time>2026-04-12T09:20:56.698Z</time></trkpt><trkpt lat="43.666726" lon="12.2224406"><ele>688.0</ele><time>2026-04-12T09:20:57.704Z</time></trkpt><trkpt lat="43.666858" lon="12.2224158"><ele>691.0</ele><time>2026-04-12T09:20:58.709Z</time></trkpt><trkpt lat="43.6669979" lon="12.2224055"><ele>694.0</ele><time>2026-04-12T09:20:59.688Z</time></trkpt><trkpt lat="43.6671467" lon="12.222405"><ele>697.0</ele><time>2026-04-12T09:21:00.681Z</time></trkpt><trkpt lat="43.6672788" lon="12.2224033"><ele>700.0</ele><time>2026-04-12T09:21:01.692Z</time></trkpt><trkpt lat="43.6674879" lon="12.2223437"><ele>696.2</ele><time>2026-04-12T09:21:03.789Z</time></trkpt><trkpt lat="43.667572" lon="12.2222856"><ele>692.4</ele><time>2026-04-12T09:21:04.717Z</time></trkpt><trkpt lat="43.6676299" lon="12.222183"><ele>688.5999999999999</ele><time>2026-04-12T09:21:05.691Z</time></trkpt><trkpt lat="43.6676624" lon="12.2220605"><ele>684.8</ele><time>2026-04-12T09:21:06.694Z</time></trkpt><trkpt lat="43.6676543" lon="12.2219314"><ele>681.0</ele><time>2026-04-12T09:21:07.689Z</time></trkpt><trkpt lat="43.6676078" lon="12.22183"><ele>681.0</ele><time>2026-04-12T09:21:08.685Z</time></trkpt><trkpt lat="43.6675329" lon="12.2217813"><ele>681.0</ele><time>2026-04-12T09:21:09.684Z</time></trkpt><trkpt lat="43.6674232" lon="12.2217941"><ele>681.0</ele><time>2026-04-12T09:21:10.699Z</time></trkpt><trkpt lat="43.6673037" lon="12.2218349"><ele>681.0</ele><time>2026-04-12T09:21:11.685Z</time></trkpt><trkpt lat="43.6671669" lon="12.221888"><ele>681.0</ele><time>2026-04-12T09:21:12.68Z</time></trkpt><trkpt lat="43.6670225" lon="12.2219113"><ele>681.0</ele><time>2026-04-12T09:21:13.673Z</time></trkpt><trkpt lat="43.6668736" lon="12.2219268"><ele>681.0</ele><time>2026-04-12T09:21:14.779Z</time></trkpt><trkpt lat="43.666603" lon="12.221962"><ele>677.5</ele><time>2026-04-12T09:21:16.687Z</time></trkpt><trkpt lat="43.6664765" lon="12.2220188"><ele>674.0</ele><time>2026-04-12T09:21:17.682Z</time></trkpt><trkpt lat="43.6663616" lon="12.2221021"><ele>670.5</ele><time>2026-04-12T09:21:18.678Z</time></trkpt><trkpt lat="43.6662683" lon="12.2221987"><ele>667.0</ele><time>2026-04-12T09:21:19.73Z</time></trkpt><trkpt lat="43.6661886" lon="12.2223078"><ele>664.6666666666667</ele><time>2026-04-12T09:21:20.678Z</time></trkpt><trkpt lat="43.6661227" lon="12.2224364"><ele>662.3333333333334</ele><time>2026-04-12T09:21:21.692Z</time></trkpt><trkpt lat="43.666079" lon="12.2225871"><ele>660.0</ele><time>2026-04-12T09:21:22.676Z</time></trkpt><trkpt lat="43.6660123" lon="12.2229252"><ele>660.0</ele><time>2026-04-12T09:21:24.687Z</time></trkpt><trkpt lat="43.6659615" lon="12.2230761"><ele>660.0</ele><time>2026-04-12T09:21:25.673Z</time></trkpt><trkpt lat="43.6658994" lon="12.2232131"><ele>660.0</ele><time>2026-04-12T09:21:26.69Z</time></trkpt><trkpt lat="43.6658217" lon="12.2233227"><ele>660.0</ele><time>2026-04-12T09:21:27.682Z</time></trkpt><trkpt lat="43.6657438" lon="12.2234439"><ele>662.0</ele><time>2026-04-12T09:21:28.683Z</time></trkpt><trkpt lat="43.6656774" lon="12.2236017"><ele>664.0</ele><time>2026-04-12T09:21:29.687Z</time></trkpt><trkpt lat="43.6656183" lon="12.2237825"><ele>666.0</ele><time>2026-04-12T09:21:30.695Z</time></trkpt><trkpt lat="43.6655656" lon="12.2239402"><ele>668.0</ele><time>2026-04-12T09:21:31.693Z</time></trkpt><trkpt lat="43.6655313" lon="12.2240941"><ele>670.5999999999999</ele><time>2026-04-12T09:21:32.686Z</time></trkpt><trkpt lat="43.6655124" lon="12.2242543"><ele>673.1999999999999</ele><time>2026-04-12T09:21:33.693Z</time></trkpt><trkpt lat="43.6655119" lon="12.2244102"><ele>675.8</ele><time>2026-04-12T09:21:34.684Z</time></trkpt><trkpt lat="43.6655095" lon="12.2245589"><ele>678.4</ele><time>2026-04-12T09:21:35.687Z</time></trkpt><trkpt lat="43.6655003" lon="12.2246958"><ele>681.0</ele><time>2026-04-12T09:21:36.681Z</time></trkpt><trkpt lat="43.6654745" lon="12.2248049"><ele>682.1999999999999</ele><time>2026-04-12T09:21:37.706Z</time></trkpt><trkpt lat="43.665424" lon="12.2248918"><ele>683.4</ele><time>2026-04-12T09:21:38.686Z</time></trkpt><trkpt lat="43.6653469" lon="12.2249553"><ele>684.6</ele><time>2026-04-12T09:21:39.673Z</time></trkpt><trkpt lat="43.6652451" lon="12.2249781"><ele>685.8</ele><time>2026-04-12T09:21:40.678Z</time></trkpt><trkpt lat="43.6651293" lon="12.2249667"><ele>687.0</ele><time>2026-04-12T09:21:41.684Z</time></trkpt><trkpt lat="43.6650059" lon="12.224937"><ele>677.6666666666666</ele><time>2026-04-12T09:21:42.697Z</time></trkpt><trkpt lat="43.6648791" lon="12.2249033"><ele>668.3333333333333</ele><time>2026-04-12T09:21:43.681Z</time></trkpt><trkpt lat="43.6646167" lon="12.2248717"><ele>659.0</ele><time>2026-04-12T09:21:45.664Z</time></trkpt><trkpt lat="43.6644884" lon="12.2248796"><ele>656.75</ele><time>2026-04-12T09:21:46.675Z</time></trkpt><trkpt lat="43.664356" lon="12.2249132"><ele>654.5</ele><time>2026-04-12T09:21:47.668Z</time></trkpt><trkpt lat="43.6642225" lon="12.2249617"><ele>652.25</ele><time>2026-04-12T09:21:48.67Z</time></trkpt><trkpt lat="43.6640924" lon="12.2249903"><ele>650.0</ele><time>2026-04-12T09:21:49.672Z</time></trkpt><trkpt lat="43.6639723" lon="12.2249645"><ele>650.0</ele><time>2026-04-12T09:21:50.673Z</time></trkpt><trkpt lat="43.6638377" lon="12.2248914"><ele>650.0</ele><time>2026-04-12T09:21:51.692Z</time></trkpt><trkpt lat="43.6636944" lon="12.2247984"><ele>650.0</ele><time>2026-04-12T09:21:52.683Z</time></trkpt><trkpt lat="43.6635745" lon="12.2247166"><ele>650.0</ele><time>2026-04-12T09:21:53.694Z</time></trkpt><trkpt lat="43.663481" lon="12.224653"><ele>649.2</ele><time>2026-04-12T09:21:54.685Z</time></trkpt><trkpt lat="43.6634026" lon="12.2246019"><ele>648.4</ele><time>2026-04-12T09:21:55.687Z</time></trkpt><trkpt lat="43.6632664" lon="12.224609"><ele>647.5999999999999</ele><time>2026-04-12T09:21:57.689Z</time></trkpt><trkpt lat="43.6631824" lon="12.2246634"><ele>646.8</ele><time>2026-04-12T09:21:58.752Z</time></trkpt><trkpt lat="43.6630903" lon="12.224741"><ele>646.0</ele><time>2026-04-12T09:21:59.708Z</time></trkpt><trkpt lat="43.6629956" lon="12.2248379"><ele>646.0</ele><time>2026-04-12T09:22:00.713Z</time></trkpt><trkpt lat="43.6629147" lon="12.2249494"><ele>646.0</ele><time>2026-04-12T09:22:01.685Z</time></trkpt><trkpt lat="43.662844" lon="12.2250668"><ele>646.0</ele><time>2026-04-12T09:22:02.704Z</time></trkpt><trkpt lat="43.662774" lon="12.225176"><ele>646.0</ele><time>2026-04-12T09:22:03.695Z</time></trkpt><trkpt lat="43.6626865" lon="12.2252571"><ele>646.0</ele><time>2026-04-12T09:22:04.678Z</time></trkpt><trkpt lat="43.66248" lon="12.2253735"><ele>645.25</ele><time>2026-04-12T09:22:06.68Z</time></trkpt><trkpt lat="43.6623723" lon="12.2254754"><ele>644.5</ele><time>2026-04-12T09:22:07.789Z</time></trkpt><trkpt lat="43.6622093" lon="12.2256626"><ele>643.75</ele><time>2026-04-12T09:22:09.68Z</time></trkpt><trkpt lat="43.6621509" lon="12.2257601"><ele>643.0</ele><time>2026-04-12T09:22:10.688Z</time></trkpt><trkpt lat="43.6621179" lon="12.2258912"><ele>643.0</ele><time>2026-04-12T09:22:11.71Z</time></trkpt><trkpt lat="43.662113" lon="12.2260718"><ele>643.0</ele><time>2026-04-12T09:22:12.693Z</time></trkpt><trkpt lat="43.6621122" lon="12.2262626"><ele>643.0</ele><time>2026-04-12T09:22:13.698Z</time></trkpt><trkpt lat="43.6621092" lon="12.2264395"><ele>643.0</ele><time>2026-04-12T09:22:14.688Z</time></trkpt><trkpt lat="43.6621076" lon="12.2265926"><ele>645.1666666666667</ele><time>2026-04-12T09:22:15.679Z</time></trkpt><trkpt lat="43.6621048" lon="12.2267191"><ele>647.3333333333334</ele><time>2026-04-12T09:22:16.716Z</time></trkpt><trkpt lat="43.6620979" lon="12.2268208"><ele>649.5</ele><time>2026-04-12T09:22:17.683Z</time></trkpt><trkpt lat="43.6620867" lon="12.2269313"><ele>651.6666666666666</ele><time>2026-04-12T09:22:18.706Z</time></trkpt><trkpt lat="43.6620477" lon="12.2270317"><ele>653.8333333333333</ele><time>2026-04-12T09:22:19.711Z</time></trkpt><trkpt lat="43.6619989" lon="12.2270875"><ele>656.0</ele><time>2026-04-12T09:22:20.689Z</time></trkpt><trkpt lat="43.6618854" lon="12.2270279"><ele>652.75</ele><time>2026-04-12T09:22:22.685Z</time></trkpt><trkpt lat="43.6618577" lon="12.2269412"><ele>649.5</ele><time>2026-04-12T09:22:23.713Z</time></trkpt><trkpt lat="43.6618695" lon="12.2268177"><ele>646.25</ele><time>2026-04-12T09:22:24.691Z</time></trkpt><trkpt lat="43.661897" lon="12.2266612"><ele>643.0</ele><time>2026-04-12T09:22:25.699Z</time></trkpt><trkpt lat="43.6619579" lon="12.2262959"><ele>643.0</ele><time>2026-04-12T09:22:27.696Z</time></trkpt><trkpt lat="43.6619754" lon="12.2261108"><ele>643.0</ele><time>2026-04-12T09:22:28.705Z</time></trkpt><trkpt lat="43.6619921" lon="12.2259388"><ele>643.0</ele><time>2026-04-12T09:22:29.684Z</time></trkpt><trkpt lat="43.6620017" lon="12.2257865"><ele>643.0</ele><time>2026-04-12T09:22:30.705Z</time></trkpt><trkpt lat="43.6620022" lon="12.2256519"><ele>639.0</ele><time>2026-04-12T09:22:31.778Z</time></trkpt><trkpt lat="43.6620037" lon="12.2255347"><ele>635.0</ele><time>2026-04-12T09:22:32.754Z</time></trkpt><trkpt lat="43.6620064" lon="12.2254298"><ele>631.0</ele><time>2026-04-12T09:22:33.706Z</time></trkpt><trkpt lat="43.6619895" lon="12.2253454"><ele>627.0</ele><time>2026-04-12T09:22:34.681Z</time></trkpt><trkpt lat="43.6618696" lon="12.2252953"><ele>623.0</ele><time>2026-04-12T09:22:36.703Z</time></trkpt><trkpt lat="43.6617975" lon="12.2253422"><ele>619.0</ele><time>2026-04-12T09:22:37.721Z</time></trkpt><trkpt lat="43.6617644" lon="12.2254399"><ele>617.8</ele><time>2026-04-12T09:22:38.719Z</time></trkpt><trkpt lat="43.661766" lon="12.2255516"><ele>616.5999999999999</ele><time>2026-04-12T09:22:39.701Z</time></trkpt><trkpt lat="43.6617758" lon="12.2256892"><ele>615.4</ele><time>2026-04-12T09:22:40.694Z</time></trkpt><trkpt lat="43.6618122" lon="12.2258208"><ele>614.1999999999999</ele><time>2026-04-12T09:22:41.773Z</time></trkpt><trkpt lat="43.6618038" lon="12.2259685"><ele>613.0</ele><time>2026-04-12T09:22:42.716Z</time></trkpt><trkpt lat="43.66178" lon="12.2261076"><ele>613.0</ele><time>2026-04-12T09:22:43.7Z</time></trkpt><trkpt lat="43.6617579" lon="12.2262469"><ele>613.0</ele><time>2026-04-12T09:22:44.688Z</time></trkpt><trkpt lat="43.6617313" lon="12.2263953"><ele>613.0</ele><time>2026-04-12T09:22:45.685Z</time></trkpt><trkpt lat="43.6616995" lon="12.2265351"><ele>613.0</ele><time>2026-04-12T09:22:46.696Z</time></trkpt><trkpt lat="43.6615936" lon="12.22682"><ele>613.5</ele><time>2026-04-12T09:22:48.723Z</time></trkpt><trkpt lat="43.6615189" lon="12.2269466"><ele>614.0</ele><time>2026-04-12T09:22:49.71Z</time></trkpt><trkpt lat="43.6614223" lon="12.2270423"><ele>614.5</ele><time>2026-04-12T09:22:50.682Z</time></trkpt><trkpt lat="43.661308" lon="12.2271297"><ele>615.0</ele><time>2026-04-12T09:22:51.678Z</time></trkpt><trkpt lat="43.6611792" lon="12.2272157"><ele>610.6666666666666</ele><time>2026-04-12T09:22:52.704Z</time></trkpt><trkpt lat="43.6610436" lon="12.227296"><ele>606.3333333333333</ele><time>2026-04-12T09:22:53.68Z</time></trkpt><trkpt lat="43.6609006" lon="12.2273685"><ele>602.0</ele><time>2026-04-12T09:22:54.674Z</time></trkpt><trkpt lat="43.6607493" lon="12.227427"><ele>602.0</ele><time>2026-04-12T09:22:55.686Z</time></trkpt><trkpt lat="43.6605989" lon="12.227482"><ele>602.0</ele><time>2026-04-12T09:22:56.687Z</time></trkpt><trkpt lat="43.6604617" lon="12.2275338"><ele>602.0</ele><time>2026-04-12T09:22:57.695Z</time></trkpt><trkpt lat="43.6603372" lon="12.2275853"><ele>602.0</ele><time>2026-04-12T09:22:58.684Z</time></trkpt><trkpt lat="43.6602261" lon="12.2276643"><ele>601.25</ele><time>2026-04-12T09:22:59.691Z</time></trkpt><trkpt lat="43.6601104" lon="12.2277755"><ele>600.5</ele><time>2026-04-12T09:23:00.688Z</time></trkpt><trkpt lat="43.6599997" lon="12.2279016"><ele>599.75</ele><time>2026-04-12T09:23:01.68Z</time></trkpt><trkpt lat="43.6598888" lon="12.2280213"><ele>599.0</ele><time>2026-04-12T09:23:02.693Z</time></trkpt><trkpt lat="43.6597741" lon="12.2281193"><ele>604.25</ele><time>2026-04-12T09:23:03.751Z</time></trkpt><trkpt lat="43.6596513" lon="12.2281741"><ele>609.5</ele><time>2026-04-12T09:23:04.669Z</time></trkpt><trkpt lat="43.6595185" lon="12.2281973"><ele>614.75</ele><time>2026-04-12T09:23:05.74Z</time></trkpt><trkpt lat="43.659376" lon="12.2281851"><ele>620.0</ele><time>2026-04-12T09:23:06.684Z</time></trkpt><trkpt lat="43.6592381" lon="12.2281608"><ele>614.0</ele><time>2026-04-12T09:23:07.678Z</time></trkpt><trkpt lat="43.6590132" lon="12.2280669"><ele>608.0</ele><time>2026-04-12T09:23:09.68Z</time></trkpt><trkpt lat="43.6589241" lon="12.2279948"><ele>602.0</ele><time>2026-04-12T09:23:10.677Z</time></trkpt><trkpt lat="43.6588489" lon="12.2279084"><ele>596.0</ele><time>2026-04-12T09:23:11.69Z</time></trkpt><trkpt lat="43.6587895" lon="12.2278163"><ele>596.0</ele><time>2026-04-12T09:23:12.687Z</time></trkpt><trkpt lat="43.6587183" lon="12.227764"><ele>596.0</ele><time>2026-04-12T09:23:13.699Z</time></trkpt><trkpt lat="43.6586325" lon="12.2277508"><ele>596.0</ele><time>2026-04-12T09:23:14.751Z</time></trkpt><trkpt lat="43.6585436" lon="12.2277813"><ele>596.0</ele><time>2026-04-12T09:23:15.684Z</time></trkpt><trkpt lat="43.658449" lon="12.2278554"><ele>596.0</ele><time>2026-04-12T09:23:16.683Z</time></trkpt><trkpt lat="43.6583433" lon="12.2279353"><ele>597.0</ele><time>2026-04-12T09:23:17.685Z</time></trkpt><trkpt lat="43.6582219" lon="12.2280047"><ele>598.0</ele><time>2026-04-12T09:23:18.678Z</time></trkpt><trkpt lat="43.6580849" lon="12.2280458"><ele>599.0</ele><time>2026-04-12T09:23:19.667Z</time></trkpt><trkpt lat="43.657933" lon="12.2280874"><ele>600.0</ele><time>2026-04-12T09:23:20.695Z</time></trkpt><trkpt lat="43.6577879" lon="12.2281744"><ele>601.0</ele><time>2026-04-12T09:23:21.675Z</time></trkpt><trkpt lat="43.6576467" lon="12.2282935"><ele>602.0</ele><time>2026-04-12T09:23:22.682Z</time></trkpt><trkpt lat="43.6575098" lon="12.2284162"><ele>603.0</ele><time>2026-04-12T09:23:23.673Z</time></trkpt><trkpt lat="43.657375" lon="12.2285205"><ele>603.0</ele><time>2026-04-12T09:23:24.682Z</time></trkpt><trkpt lat="43.6572456" lon="12.22862"><ele>603.0</ele><time>2026-04-12T09:23:25.679Z</time></trkpt><trkpt lat="43.6571189" lon="12.2287207"><ele>603.0</ele><time>2026-04-12T09:23:26.679Z</time></trkpt><trkpt lat="43.656998" lon="12.2288185"><ele>603.0</ele><time>2026-04-12T09:23:27.69Z</time></trkpt><trkpt lat="43.6568773" lon="12.2289055"><ele>604.6666666666666</ele><time>2026-04-12T09:23:28.7Z</time></trkpt><trkpt lat="43.6566119" lon="12.2290417"><ele>606.3333333333333</ele><time>2026-04-12T09:23:30.69Z</time></trkpt><trkpt lat="43.6564813" lon="12.2291056"><ele>608.0</ele><time>2026-04-12T09:23:31.682Z</time></trkpt><trkpt lat="43.656366" lon="12.2291669"><ele>608.0</ele><time>2026-04-12T09:23:32.69Z</time></trkpt><trkpt lat="43.6562601" lon="12.2292479"><ele>608.0</ele><time>2026-04-12T09:23:33.7Z</time></trkpt><trkpt lat="43.6561635" lon="12.229342"><ele>608.0</ele><time>2026-04-12T09:23:34.679Z</time></trkpt><trkpt lat="43.6560741" lon="12.2294337"><ele>608.0</ele><time>2026-04-12T09:23:35.686Z</time></trkpt><trkpt lat="43.65599" lon="12.2295252"><ele>608.1999999999999</ele><time>2026-04-12T09:23:36.694Z</time></trkpt><trkpt lat="43.655899" lon="12.2296176"><ele>608.4</ele><time>2026-04-12T09:23:37.68Z</time></trkpt><trkpt lat="43.6558076" lon="12.2297238"><ele>608.5999999999999</ele><time>2026-04-12T09:23:38.715Z</time></trkpt><trkpt lat="43.655724" lon="12.2298227"><ele>608.8</ele><time>2026-04-12T09:23:39.685Z</time></trkpt><trkpt lat="43.6556388" lon="12.2298964"><ele>609.0</ele><time>2026-04-12T09:23:40.688Z</time></trkpt><trkpt lat="43.6555446" lon="12.2299373"><ele>609.0</ele><time>2026-04-12T09:23:41.691Z</time></trkpt><trkpt lat="43.655441" lon="12.2299609"><ele>609.0</ele><time>2026-04-12T09:23:42.679Z</time></trkpt><trkpt lat="43.6553261" lon="12.2299462"><ele>609.0</ele><time>2026-04-12T09:23:43.721Z</time></trkpt><trkpt lat="43.6552168" lon="12.229918"><ele>609.0</ele><time>2026-04-12T09:23:44.699Z</time></trkpt><trkpt lat="43.6551173" lon="12.2299197"><ele>609.0</ele><time>2026-04-12T09:23:45.697Z</time></trkpt><trkpt lat="43.6550089" lon="12.2299607"><ele>603.6666666666666</ele><time>2026-04-12T09:23:46.702Z</time></trkpt><trkpt lat="43.6548775" lon="12.2300559"><ele>598.3333333333333</ele><time>2026-04-12T09:23:47.69Z</time></trkpt><trkpt lat="43.6547362" lon="12.2301762"><ele>593.0</ele><time>2026-04-12T09:23:48.711Z</time></trkpt><trkpt lat="43.6545956" lon="12.2302984"><ele>587.0</ele><time>2026-04-12T09:23:49.763Z</time></trkpt><trkpt lat="43.6542993" lon="12.2305248"><ele>581.0</ele><time>2026-04-12T09:23:51.706Z</time></trkpt><trkpt lat="43.6541551" lon="12.2306348"><ele>586.6666666666666</ele><time>2026-04-12T09:23:52.681Z</time></trkpt><trkpt lat="43.6540137" lon="12.2307458"><ele>592.3333333333334</ele><time>2026-04-12T09:23:53.711Z</time></trkpt><trkpt lat="43.6538742" lon="12.2308493"><ele>598.0</ele><time>2026-04-12T09:23:54.683Z</time></trkpt><trkpt lat="43.6537425" lon="12.230947"><ele>592.75</ele><time>2026-04-12T09:23:55.696Z</time></trkpt><trkpt lat="43.6536175" lon="12.2310415"><ele>587.5</ele><time>2026-04-12T09:23:56.675Z</time></trkpt><trkpt lat="43.6535001" lon="12.2311313"><ele>582.25</ele><time>2026-04-12T09:23:57.693Z</time></trkpt><trkpt lat="43.6533897" lon="12.2312276"><ele>577.0</ele><time>2026-04-12T09:23:58.698Z</time></trkpt><trkpt lat="43.6532881" lon="12.2313491"><ele>579.25</ele><time>2026-04-12T09:23:59.678Z</time></trkpt><trkpt lat="43.6532024" lon="12.2315016"><ele>581.5</ele><time>2026-04-12T09:24:00.723Z</time></trkpt><trkpt lat="43.6531363" lon="12.2316558"><ele>583.75</ele><time>2026-04-12T09:24:01.697Z</time></trkpt><trkpt lat="43.6530889" lon="12.2317921"><ele>586.0</ele><time>2026-04-12T09:24:02.698Z</time></trkpt><trkpt lat="43.653052" lon="12.2319205"><ele>586.0</ele><time>2026-04-12T09:24:03.69Z</time></trkpt><trkpt lat="43.653027" lon="12.2320437"><ele>586.0</ele><time>2026-04-12T09:24:04.714Z</time></trkpt><trkpt lat="43.6530154" lon="12.2321614"><ele>586.0</ele><time>2026-04-12T09:24:05.686Z</time></trkpt><trkpt lat="43.6530163" lon="12.2322898"><ele>586.0</ele><time>2026-04-12T09:24:06.698Z</time></trkpt><trkpt lat="43.6530231" lon="12.2324145"><ele>586.0</ele><time>2026-04-12T09:24:07.692Z</time></trkpt><trkpt lat="43.6530247" lon="12.2325475"><ele>589.0</ele><time>2026-04-12T09:24:08.691Z</time></trkpt><trkpt lat="43.6530287" lon="12.2326925"><ele>592.0</ele><time>2026-04-12T09:24:09.687Z</time></trkpt><trkpt lat="43.6530324" lon="12.2328532"><ele>595.0</ele><time>2026-04-12T09:24:10.704Z</time></trkpt><trkpt lat="43.6530331" lon="12.2332145"><ele>595.25</ele><time>2026-04-12T09:24:12.7Z</time></trkpt><trkpt lat="43.6530334" lon="12.2333994"><ele>595.5</ele><time>2026-04-12T09:24:13.693Z</time></trkpt><trkpt lat="43.6530346" lon="12.2335835"><ele>595.75</ele><time>2026-04-12T09:24:14.678Z</time></trkpt><trkpt lat="43.6530347" lon="12.2337618"><ele>596.0</ele><time>2026-04-12T09:24:15.695Z</time></trkpt><trkpt lat="43.6530329" lon="12.2339317"><ele>594.5</ele><time>2026-04-12T09:24:16.702Z</time></trkpt><trkpt lat="43.6530306" lon="12.2340962"><ele>593.0</ele><time>2026-04-12T09:24:17.697Z</time></trkpt><trkpt lat="43.6530262" lon="12.2342747"><ele>591.5</ele><time>2026-04-12T09:24:18.706Z</time></trkpt><trkpt lat="43.6530265" lon="12.2344457"><ele>590.0</ele><time>2026-04-12T09:24:19.787Z</time></trkpt><trkpt lat="43.6530448" lon="12.2346087"><ele>590.0</ele><time>2026-04-12T09:24:20.687Z</time></trkpt><trkpt lat="43.6530848" lon="12.2347657"><ele>590.0</ele><time>2026-04-12T09:24:21.689Z</time></trkpt><trkpt lat="43.6531247" lon="12.2349077"><ele>590.0</ele><time>2026-04-12T09:24:22.685Z</time></trkpt><trkpt lat="43.6531456" lon="12.2350478"><ele>590.0</ele><time>2026-04-12T09:24:23.765Z</time></trkpt><trkpt lat="43.6531508" lon="12.2351884"><ele>590.0</ele><time>2026-04-12T09:24:24.685Z</time></trkpt><trkpt lat="43.6531367" lon="12.2353336"><ele>590.25</ele><time>2026-04-12T09:24:25.695Z</time></trkpt><trkpt lat="43.6530961" lon="12.2354702"><ele>590.5</ele><time>2026-04-12T09:24:26.674Z</time></trkpt><trkpt lat="43.6530341" lon="12.2355902"><ele>590.75</ele><time>2026-04-12T09:24:27.674Z</time></trkpt><trkpt lat="43.6529493" lon="12.2357038"><ele>591.0</ele><time>2026-04-12T09:24:28.701Z</time></trkpt><trkpt lat="43.6528538" lon="12.2358055"><ele>581.3333333333334</ele><time>2026-04-12T09:24:29.704Z</time></trkpt><trkpt lat="43.6527554" lon="12.2359067"><ele>571.6666666666667</ele><time>2026-04-12T09:24:30.682Z</time></trkpt><trkpt lat="43.6526581" lon="12.2360243"><ele>562.0</ele><time>2026-04-12T09:24:31.783Z</time></trkpt><trkpt lat="43.6524712" lon="12.2362992"><ele>562.0</ele><time>2026-04-12T09:24:33.691Z</time></trkpt><trkpt lat="43.6524009" lon="12.2364592"><ele>562.0</ele><time>2026-04-12T09:24:34.693Z</time></trkpt><trkpt lat="43.6523494" lon="12.2366165"><ele>562.0</ele><time>2026-04-12T09:24:35.761Z</time></trkpt><trkpt lat="43.6523027" lon="12.2367676"><ele>562.0</ele><time>2026-04-12T09:24:36.711Z</time></trkpt><trkpt lat="43.6522595" lon="12.2369054"><ele>562.2</ele><time>2026-04-12T09:24:37.718Z</time></trkpt><trkpt lat="43.6522144" lon="12.2370418"><ele>562.4000000000001</ele><time>2026-04-12T09:24:38.689Z</time></trkpt><trkpt lat="43.6521759" lon="12.2371926"><ele>562.5999999999999</ele><time>2026-04-12T09:24:39.68Z</time></trkpt><trkpt lat="43.6521318" lon="12.2373367"><ele>562.8</ele><time>2026-04-12T09:24:40.696Z</time></trkpt><trkpt lat="43.6520971" lon="12.2374615"><ele>563.0</ele><time>2026-04-12T09:24:41.699Z</time></trkpt><trkpt lat="43.6520766" lon="12.2375985"><ele>564.1999999999999</ele><time>2026-04-12T09:24:42.726Z</time></trkpt><trkpt lat="43.652061" lon="12.2377463"><ele>565.4</ele><time>2026-04-12T09:24:43.688Z</time></trkpt><trkpt lat="43.6520349" lon="12.2379069"><ele>566.5999999999999</ele><time>2026-04-12T09:24:44.708Z</time></trkpt><trkpt lat="43.6520075" lon="12.238051"><ele>567.8</ele><time>2026-04-12T09:24:45.692Z</time></trkpt><trkpt lat="43.6519963" lon="12.2382005"><ele>569.0</ele><time>2026-04-12T09:24:46.691Z</time></trkpt><trkpt lat="43.6519917" lon="12.2383483"><ele>567.2</ele><time>2026-04-12T09:24:47.702Z</time></trkpt><trkpt lat="43.6519817" lon="12.2384893"><ele>565.4</ele><time>2026-04-12T09:24:48.698Z</time></trkpt><trkpt lat="43.6519699" lon="12.2386362"><ele>563.6</ele><time>2026-04-12T09:24:49.684Z</time></trkpt><trkpt lat="43.6519479" lon="12.2387845"><ele>561.8</ele><time>2026-04-12T09:24:50.693Z</time></trkpt><trkpt lat="43.6519193" lon="12.2389305"><ele>560.0</ele><time>2026-04-12T09:24:51.691Z</time></trkpt><trkpt lat="43.6518933" lon="12.2390785"><ele>559.5</ele><time>2026-04-12T09:24:52.695Z</time></trkpt><trkpt lat="43.6518474" lon="12.239369"><ele>559.0</ele><time>2026-04-12T09:24:54.716Z</time></trkpt><trkpt lat="43.6518357" lon="12.2394916"><ele>558.5</ele><time>2026-04-12T09:24:55.707Z</time></trkpt><trkpt lat="43.651836" lon="12.2396245"><ele>558.0</ele><time>2026-04-12T09:24:56.691Z</time></trkpt><trkpt lat="43.651854" lon="12.2397714"><ele>557.1999999999999</ele><time>2026-04-12T09:24:57.697Z</time></trkpt><trkpt lat="43.6518999" lon="12.2399165"><ele>556.4</ele><time>2026-04-12T09:24:58.698Z</time></trkpt><trkpt lat="43.6519603" lon="12.2400525"><ele>555.5999999999999</ele><time>2026-04-12T09:24:59.709Z</time></trkpt><trkpt lat="43.6520169" lon="12.2401722"><ele>554.8</ele><time>2026-04-12T09:25:00.676Z</time></trkpt><trkpt lat="43.6520743" lon="12.2402956"><ele>554.0</ele><time>2026-04-12T09:25:01.714Z</time></trkpt><trkpt lat="43.6521296" lon="12.240414"><ele>556.75</ele><time>2026-04-12T09:25:02.696Z</time></trkpt><trkpt lat="43.6521895" lon="12.2405436"><ele>559.5</ele><time>2026-04-12T09:25:03.687Z</time></trkpt><trkpt lat="43.6522505" lon="12.2406767"><ele>562.25</ele><time>2026-04-12T09:25:04.692Z</time></trkpt><trkpt lat="43.6523131" lon="12.240805"><ele>565.0</ele><time>2026-04-12T09:25:05.688Z</time></trkpt><trkpt lat="43.6523773" lon="12.2409404"><ele>565.0</ele><time>2026-04-12T09:25:06.71Z</time></trkpt><trkpt lat="43.6524364" lon="12.2410823"><ele>565.0</ele><time>2026-04-12T09:25:07.711Z</time></trkpt><trkpt lat="43.6524823" lon="12.2412304"><ele>565.0</ele><time>2026-04-12T09:25:08.672Z</time></trkpt><trkpt lat="43.6525168" lon="12.2413859"><ele>565.0</ele><time>2026-04-12T09:25:09.682Z</time></trkpt><trkpt lat="43.6525437" lon="12.2415387"><ele>562.25</ele><time>2026-04-12T09:25:10.677Z</time></trkpt><trkpt lat="43.6525678" lon="12.2416811"><ele>559.5</ele><time>2026-04-12T09:25:11.702Z</time></trkpt><trkpt lat="43.6525951" lon="12.2418259"><ele>556.75</ele><time>2026-04-12T09:25:12.695Z</time></trkpt><trkpt lat="43.6526211" lon="12.2419676"><ele>554.0</ele><time>2026-04-12T09:25:13.705Z</time></trkpt><trkpt lat="43.6526611" lon="12.2422523"><ele>554.2</ele><time>2026-04-12T09:25:15.696Z</time></trkpt><trkpt lat="43.6526668" lon="12.2423942"><ele>554.4</ele><time>2026-04-12T09:25:16.691Z</time></trkpt><trkpt lat="43.6526651" lon="12.2425374"><ele>554.6</ele><time>2026-04-12T09:25:17.684Z</time></trkpt><trkpt lat="43.6526575" lon="12.2426861"><ele>554.8</ele><time>2026-04-12T09:25:18.692Z</time></trkpt><trkpt lat="43.6526456" lon="12.2428364"><ele>555.0</ele><time>2026-04-12T09:25:19.674Z</time></trkpt><trkpt lat="43.6526327" lon="12.2429905"><ele>555.2</ele><time>2026-04-12T09:25:20.697Z</time></trkpt><trkpt lat="43.6526223" lon="12.2431419"><ele>555.4</ele><time>2026-04-12T09:25:21.699Z</time></trkpt><trkpt lat="43.6526103" lon="12.2432963"><ele>555.6</ele><time>2026-04-12T09:25:22.705Z</time></trkpt><trkpt lat="43.6525963" lon="12.243446"><ele>555.8</ele><time>2026-04-12T09:25:23.7Z</time></trkpt><trkpt lat="43.6525907" lon="12.2436052"><ele>556.0</ele><time>2026-04-12T09:25:24.688Z</time></trkpt><trkpt lat="43.6525978" lon="12.2437631"><ele>556.0</ele><time>2026-04-12T09:25:25.676Z</time></trkpt><trkpt lat="43.6526243" lon="12.2439179"><ele>556.0</ele><time>2026-04-12T09:25:26.691Z</time></trkpt><trkpt lat="43.6526547" lon="12.2440663"><ele>556.0</ele><time>2026-04-12T09:25:27.711Z</time></trkpt><trkpt lat="43.6526817" lon="12.2442206"><ele>556.0</ele><time>2026-04-12T09:25:28.681Z</time></trkpt><trkpt lat="43.6527029" lon="12.2443838"><ele>555.75</ele><time>2026-04-12T09:25:29.711Z</time></trkpt><trkpt lat="43.6527135" lon="12.2445546"><ele>555.5</ele><time>2026-04-12T09:25:30.703Z</time></trkpt><trkpt lat="43.6527153" lon="12.244739"><ele>555.25</ele><time>2026-04-12T09:25:31.746Z</time></trkpt><trkpt lat="43.6527129" lon="12.2449413"><ele>555.0</ele><time>2026-04-12T09:25:32.701Z</time></trkpt><trkpt lat="43.652711" lon="12.2451532"><ele>558.5</ele><time>2026-04-12T09:25:33.694Z</time></trkpt><trkpt lat="43.6527109" lon="12.2453716"><ele>562.0</ele><time>2026-04-12T09:25:34.679Z</time></trkpt><trkpt lat="43.6527282" lon="12.2458197"><ele>564.25</ele><time>2026-04-12T09:25:36.682Z</time></trkpt><trkpt lat="43.6527477" lon="12.2460375"><ele>566.5</ele><time>2026-04-12T09:25:37.682Z</time></trkpt><trkpt lat="43.6527755" lon="12.2462347"><ele>568.75</ele><time>2026-04-12T09:25:38.688Z</time></trkpt><trkpt lat="43.6528082" lon="12.2464247"><ele>571.0</ele><time>2026-04-12T09:25:39.756Z</time></trkpt><trkpt lat="43.6528309" lon="12.2465898"><ele>569.2</ele><time>2026-04-12T09:25:40.688Z</time></trkpt><trkpt lat="43.6528274" lon="12.2467316"><ele>567.4000000000001</ele><time>2026-04-12T09:25:41.741Z</time></trkpt><trkpt lat="43.6527855" lon="12.2468494"><ele>565.6</ele><time>2026-04-12T09:25:42.689Z</time></trkpt><trkpt lat="43.6527127" lon="12.2469234"><ele>563.8000000000001</ele><time>2026-04-12T09:25:43.676Z</time></trkpt><trkpt lat="43.6526173" lon="12.2469625"><ele>562.0</ele><time>2026-04-12T09:25:44.691Z</time></trkpt><trkpt lat="43.652501" lon="12.2470074"><ele>562.0</ele><time>2026-04-12T09:25:45.678Z</time></trkpt><trkpt lat="43.6523769" lon="12.2470941"><ele>562.0</ele><time>2026-04-12T09:25:46.717Z</time></trkpt><trkpt lat="43.6522592" lon="12.2472034"><ele>562.0</ele><time>2026-04-12T09:25:47.684Z</time></trkpt><trkpt lat="43.6521421" lon="12.2473238"><ele>562.0</ele><time>2026-04-12T09:25:48.679Z</time></trkpt><trkpt lat="43.6520243" lon="12.2474404"><ele>563.0</ele><time>2026-04-12T09:25:49.696Z</time></trkpt><trkpt lat="43.651904" lon="12.2475462"><ele>564.0</ele><time>2026-04-12T09:25:50.697Z</time></trkpt><trkpt lat="43.6517809" lon="12.2476427"><ele>565.0</ele><time>2026-04-12T09:25:51.711Z</time></trkpt><trkpt lat="43.6516625" lon="12.2477572"><ele>566.0</ele><time>2026-04-12T09:25:52.687Z</time></trkpt><trkpt lat="43.6515549" lon="12.2479021"><ele>566.0</ele><time>2026-04-12T09:25:53.673Z</time></trkpt><trkpt lat="43.6514592" lon="12.2480697"><ele>566.0</ele><time>2026-04-12T09:25:54.684Z</time></trkpt><trkpt lat="43.6513791" lon="12.2482481"><ele>566.0</ele><time>2026-04-12T09:25:55.68Z</time></trkpt><trkpt lat="43.6513191" lon="12.2486823"><ele>560.0</ele><time>2026-04-12T09:25:57.674Z</time></trkpt><trkpt lat="43.6513133" lon="12.2489108"><ele>554.0</ele><time>2026-04-12T09:25:58.694Z</time></trkpt><trkpt lat="43.6513155" lon="12.2491377"><ele>548.0</ele><time>2026-04-12T09:25:59.68Z</time></trkpt><trkpt lat="43.6513297" lon="12.2493679"><ele>548.0</ele><time>2026-04-12T09:26:00.694Z</time></trkpt><trkpt lat="43.6513589" lon="12.2495867"><ele>548.0</ele><time>2026-04-12T09:26:01.697Z</time></trkpt><trkpt lat="43.6513987" lon="12.2498032"><ele>548.0</ele><time>2026-04-12T09:26:02.747Z</time></trkpt><trkpt lat="43.6514453" lon="12.2500164"><ele>550.0</ele><time>2026-04-12T09:26:03.756Z</time></trkpt><trkpt lat="43.6515124" lon="12.250203"><ele>552.0</ele><time>2026-04-12T09:26:04.691Z</time></trkpt><trkpt lat="43.6515995" lon="12.2503764"><ele>554.0</ele><time>2026-04-12T09:26:05.737Z</time></trkpt><trkpt lat="43.651719" lon="12.2505283"><ele>555.25</ele><time>2026-04-12T09:26:06.705Z</time></trkpt><trkpt lat="43.6518433" lon="12.2506611"><ele>556.5</ele><time>2026-04-12T09:26:07.704Z</time></trkpt><trkpt lat="43.6519638" lon="12.2507725"><ele>557.75</ele><time>2026-04-12T09:26:08.683Z</time></trkpt><trkpt lat="43.652088" lon="12.2508588"><ele>559.0</ele><time>2026-04-12T09:26:09.686Z</time></trkpt><trkpt lat="43.6521843" lon="12.2509245"><ele>556.4</ele><time>2026-04-12T09:26:10.688Z</time></trkpt><trkpt lat="43.6522774" lon="12.2510085"><ele>553.8</ele><time>2026-04-12T09:26:11.692Z</time></trkpt><trkpt lat="43.6523244" lon="12.2511324"><ele>551.2</ele><time>2026-04-12T09:26:12.686Z</time></trkpt><trkpt lat="43.6523372" lon="12.2512783"><ele>548.6</ele><time>2026-04-12T09:26:13.675Z</time></trkpt><trkpt lat="43.6523199" lon="12.2514413"><ele>546.0</ele><time>2026-04-12T09:26:14.705Z</time></trkpt><trkpt lat="43.652299" lon="12.2515859"><ele>545.75</ele><time>2026-04-12T09:26:15.674Z</time></trkpt><trkpt lat="43.6522741" lon="12.2517124"><ele>545.5</ele><time>2026-04-12T09:26:16.705Z</time></trkpt><trkpt lat="43.6522891" lon="12.2519037"><ele>545.25</ele><time>2026-04-12T09:26:18.695Z</time></trkpt><trkpt lat="43.6523867" lon="12.2519668"><ele>545.0</ele><time>2026-04-12T09:26:19.68Z</time></trkpt><trkpt lat="43.6525194" lon="12.2519925"><ele>545.0</ele><time>2026-04-12T09:26:20.668Z</time></trkpt><trkpt lat="43.6526411" lon="12.252022"><ele>545.0</ele><time>2026-04-12T09:26:21.687Z</time></trkpt><trkpt lat="43.6527648" lon="12.2520592"><ele>545.0</ele><time>2026-04-12T09:26:22.671Z</time></trkpt><trkpt lat="43.6529006" lon="12.2521065"><ele>545.0</ele><time>2026-04-12T09:26:23.713Z</time></trkpt><trkpt lat="43.653028" lon="12.2521828"><ele>544.25</ele><time>2026-04-12T09:26:24.688Z</time></trkpt><trkpt lat="43.6531275" lon="12.2522724"><ele>543.5</ele><time>2026-04-12T09:26:25.688Z</time></trkpt><trkpt lat="43.6532086" lon="12.2524123"><ele>542.75</ele><time>2026-04-12T09:26:26.693Z</time></trkpt><trkpt lat="43.6532731" lon="12.252593"><ele>542.0</ele><time>2026-04-12T09:26:27.72Z</time></trkpt><trkpt lat="43.6533498" lon="12.2527754"><ele>542.0</ele><time>2026-04-12T09:26:28.699Z</time></trkpt><trkpt lat="43.6534284" lon="12.2529662"><ele>542.0</ele><time>2026-04-12T09:26:29.676Z</time></trkpt><trkpt lat="43.6534955" lon="12.2531514"><ele>542.0</ele><time>2026-04-12T09:26:30.682Z</time></trkpt><trkpt lat="43.6535491" lon="12.2533446"><ele>539.0</ele><time>2026-04-12T09:26:31.699Z</time></trkpt><trkpt lat="43.6535851" lon="12.2535563"><ele>536.0</ele><time>2026-04-12T09:26:32.689Z</time></trkpt><trkpt lat="43.6536256" lon="12.2537638"><ele>533.0</ele><time>2026-04-12T09:26:33.704Z</time></trkpt><trkpt lat="43.6536691" lon="12.2539815"><ele>533.0</ele><time>2026-04-12T09:26:34.705Z</time></trkpt><trkpt lat="43.6537231" lon="12.2541978"><ele>533.0</ele><time>2026-04-12T09:26:35.673Z</time></trkpt><trkpt lat="43.6537859" lon="12.254417"><ele>533.0</ele><time>2026-04-12T09:26:36.718Z</time></trkpt><trkpt lat="43.6538546" lon="12.254615"><ele>536.0</ele><time>2026-04-12T09:26:37.746Z</time></trkpt><trkpt lat="43.6539966" lon="12.2549596"><ele>539.0</ele><time>2026-04-12T09:26:39.696Z</time></trkpt><trkpt lat="43.6540914" lon="12.255113"><ele>542.0</ele><time>2026-04-12T09:26:40.69Z</time></trkpt><trkpt lat="43.6542059" lon="12.2552587"><ele>542.0</ele><time>2026-04-12T09:26:41.699Z</time></trkpt><trkpt lat="43.6543505" lon="12.2553571"><ele>542.0</ele><time>2026-04-12T09:26:42.675Z</time></trkpt><trkpt lat="43.6545054" lon="12.2554327"><ele>542.0</ele><time>2026-04-12T09:26:43.704Z</time></trkpt><trkpt lat="43.6546636" lon="12.2555136"><ele>541.6666666666666</ele><time>2026-04-12T09:26:44.684Z</time></trkpt><trkpt lat="43.6548223" lon="12.2556013"><ele>541.3333333333334</ele><time>2026-04-12T09:26:45.685Z</time></trkpt><trkpt lat="43.6549917" lon="12.2556905"><ele>541.0</ele><time>2026-04-12T09:26:46.677Z</time></trkpt><trkpt lat="43.6551574" lon="12.2557724"><ele>537.0</ele><time>2026-04-12T09:26:47.689Z</time></trkpt><trkpt lat="43.6553247" lon="12.2558579"><ele>533.0</ele><time>2026-04-12T09:26:48.756Z</time></trkpt><trkpt lat="43.6554893" lon="12.2559442"><ele>529.0</ele><time>2026-04-12T09:26:49.682Z</time></trkpt><trkpt lat="43.6556491" lon="12.2560421"><ele>529.0</ele><time>2026-04-12T09:26:50.713Z</time></trkpt><trkpt lat="43.6558102" lon="12.2561351"><ele>529.0</ele><time>2026-04-12T09:26:51.697Z</time></trkpt><trkpt lat="43.6559695" lon="12.2562239"><ele>529.0</ele><time>2026-04-12T09:26:52.69Z</time></trkpt><trkpt lat="43.6561225" lon="12.2563053"><ele>528.6666666666667</ele><time>2026-04-12T09:26:53.678Z</time></trkpt><trkpt lat="43.6562759" lon="12.2563762"><ele>528.3333333333334</ele><time>2026-04-12T09:26:54.675Z</time></trkpt><trkpt lat="43.6564279" lon="12.256428"><ele>528.0</ele><time>2026-04-12T09:26:55.694Z</time></trkpt><trkpt lat="43.6565704" lon="12.256475"><ele>528.0</ele><time>2026-04-12T09:26:56.689Z</time></trkpt><trkpt lat="43.6567076" lon="12.2565324"><ele>528.0</ele><time>2026-04-12T09:26:57.697Z</time></trkpt><trkpt lat="43.6568319" lon="12.256605"><ele>528.0</ele><time>2026-04-12T09:26:58.704Z</time></trkpt><trkpt lat="43.6570151" lon="12.2568521"><ele>527.0</ele><time>2026-04-12T09:27:00.69Z</time></trkpt><trkpt lat="43.6570704" lon="12.2570283"><ele>526.0</ele><time>2026-04-12T09:27:01.687Z</time></trkpt><trkpt lat="43.6571161" lon="12.2572328"><ele>525.0</ele><time>2026-04-12T09:27:02.706Z</time></trkpt><trkpt lat="43.6571638" lon="12.2574483"><ele>524.3333333333334</ele><time>2026-04-12T09:27:03.69Z</time></trkpt><trkpt lat="43.657215" lon="12.2576718"><ele>523.6666666666667</ele><time>2026-04-12T09:27:04.683Z</time></trkpt><trkpt lat="43.6572708" lon="12.2578926"><ele>523.0</ele><time>2026-04-12T09:27:05.703Z</time></trkpt><trkpt lat="43.6573384" lon="12.2581068"><ele>523.3333333333334</ele><time>2026-04-12T09:27:06.691Z</time></trkpt><trkpt lat="43.6574194" lon="12.2583202"><ele>523.6666666666666</ele><time>2026-04-12T09:27:07.716Z</time></trkpt><trkpt lat="43.6575085" lon="12.2585273"><ele>524.0</ele><time>2026-04-12T09:27:08.684Z</time></trkpt><trkpt lat="43.6576025" lon="12.258734"><ele>524.0</ele><time>2026-04-12T09:27:09.727Z</time></trkpt><trkpt lat="43.657709" lon="12.258934"><ele>524.0</ele><time>2026-04-12T09:27:10.672Z</time></trkpt><trkpt lat="43.6578304" lon="12.2591368"><ele>524.0</ele><time>2026-04-12T09:27:11.751Z</time></trkpt><trkpt lat="43.6579558" lon="12.2593382"><ele>523.3333333333333</ele><time>2026-04-12T09:27:12.676Z</time></trkpt><trkpt lat="43.6580838" lon="12.2595459"><ele>522.6666666666666</ele><time>2026-04-12T09:27:13.691Z</time></trkpt><trkpt lat="43.6582146" lon="12.2597551"><ele>522.0</ele><time>2026-04-12T09:27:14.684Z</time></trkpt><trkpt lat="43.6583397" lon="12.2599583"><ele>521.0</ele><time>2026-04-12T09:27:15.676Z</time></trkpt><trkpt lat="43.658452" lon="12.2601514"><ele>520.0</ele><time>2026-04-12T09:27:16.697Z</time></trkpt><trkpt lat="43.6585424" lon="12.2603518"><ele>519.0</ele><time>2026-04-12T09:27:17.682Z</time></trkpt><trkpt lat="43.6586103" lon="12.2605528"><ele>527.5</ele><time>2026-04-12T09:27:18.689Z</time></trkpt><trkpt lat="43.6586482" lon="12.2607724"><ele>536.0</ele><time>2026-04-12T09:27:19.706Z</time></trkpt><trkpt lat="43.6587205" lon="12.2612579"><ele>533.0</ele><time>2026-04-12T09:27:21.701Z</time></trkpt><trkpt lat="43.6587507" lon="12.261508"><ele>530.0</ele><time>2026-04-12T09:27:22.752Z</time></trkpt><trkpt lat="43.6587558" lon="12.2617639"><ele>527.0</ele><time>2026-04-12T09:27:23.682Z</time></trkpt><trkpt lat="43.6587547" lon="12.2620185"><ele>527.0</ele><time>2026-04-12T09:27:24.7Z</time></trkpt><trkpt lat="43.6587631" lon="12.262256"><ele>527.0</ele><time>2026-04-12T09:27:25.701Z</time></trkpt><trkpt lat="43.6587665" lon="12.2624995"><ele>527.0</ele><time>2026-04-12T09:27:26.679Z</time></trkpt><trkpt lat="43.6587652" lon="12.2627348"><ele>526.3333333333333</ele><time>2026-04-12T09:27:27.697Z</time></trkpt><trkpt lat="43.6587515" lon="12.2629715"><ele>525.6666666666666</ele><time>2026-04-12T09:27:28.702Z</time></trkpt><trkpt lat="43.6587263" lon="12.2632034"><ele>525.0</ele><time>2026-04-12T09:27:29.702Z</time></trkpt><trkpt lat="43.6586788" lon="12.26342"><ele>523.6666666666666</ele><time>2026-04-12T09:27:30.722Z</time></trkpt><trkpt lat="43.658621" lon="12.2636249"><ele>522.3333333333333</ele><time>2026-04-12T09:27:31.687Z</time></trkpt><trkpt lat="43.6585687" lon="12.2638204"><ele>521.0</ele><time>2026-04-12T09:27:32.693Z</time></trkpt><trkpt lat="43.6585378" lon="12.2640199"><ele>519.3333333333333</ele><time>2026-04-12T09:27:33.677Z</time></trkpt><trkpt lat="43.6585337" lon="12.2642278"><ele>517.6666666666666</ele><time>2026-04-12T09:27:34.678Z</time></trkpt><trkpt lat="43.658541" lon="12.2644436"><ele>516.0</ele><time>2026-04-12T09:27:35.686Z</time></trkpt><trkpt lat="43.6585774" lon="12.2646375"><ele>514.6666666666666</ele><time>2026-04-12T09:27:36.698Z</time></trkpt><trkpt lat="43.6586487" lon="12.2648134"><ele>513.3333333333333</ele><time>2026-04-12T09:27:37.694Z</time></trkpt><trkpt lat="43.6587345" lon="12.2649845"><ele>512.0</ele><time>2026-04-12T09:27:38.679Z</time></trkpt><trkpt lat="43.6588371" lon="12.2651429"><ele>512.0</ele><time>2026-04-12T09:27:39.695Z</time></trkpt><trkpt lat="43.658937" lon="12.2652944"><ele>512.0</ele><time>2026-04-12T09:27:40.688Z</time></trkpt><trkpt lat="43.6590897" lon="12.2656308"><ele>512.0</ele><time>2026-04-12T09:27:42.702Z</time></trkpt><trkpt lat="43.6591363" lon="12.2658278"><ele>511.0</ele><time>2026-04-12T09:27:43.677Z</time></trkpt><trkpt lat="43.6591728" lon="12.2660344"><ele>510.0</ele><time>2026-04-12T09:27:44.679Z</time></trkpt><trkpt lat="43.6592044" lon="12.2662395"><ele>509.0</ele><time>2026-04-12T09:27:45.676Z</time></trkpt><trkpt lat="43.6592301" lon="12.2664428"><ele>509.25</ele><time>2026-04-12T09:27:46.696Z</time></trkpt><trkpt lat="43.6592573" lon="12.2666447"><ele>509.5</ele><time>2026-04-12T09:27:47.704Z</time></trkpt><trkpt lat="43.6592799" lon="12.2668342"><ele>509.75</ele><time>2026-04-12T09:27:48.685Z</time></trkpt><trkpt lat="43.659305" lon="12.2670059"><ele>510.0</ele><time>2026-04-12T09:27:49.71Z</time></trkpt><trkpt lat="43.6593449" lon="12.2671442"><ele>510.0</ele><time>2026-04-12T09:27:50.696Z</time></trkpt><trkpt lat="43.6594224" lon="12.2672468"><ele>510.0</ele><time>2026-04-12T09:27:51.69Z</time></trkpt><trkpt lat="43.6595305" lon="12.2673209"><ele>510.0</ele><time>2026-04-12T09:27:52.691Z</time></trkpt><trkpt lat="43.6596503" lon="12.2673968"><ele>510.0</ele><time>2026-04-12T09:27:53.681Z</time></trkpt><trkpt lat="43.6597529" lon="12.2674977"><ele>509.75</ele><time>2026-04-12T09:27:54.701Z</time></trkpt><trkpt lat="43.6598354" lon="12.2676404"><ele>509.5</ele><time>2026-04-12T09:27:55.699Z</time></trkpt><trkpt lat="43.6599045" lon="12.2678234"><ele>509.25</ele><time>2026-04-12T09:27:56.758Z</time></trkpt><trkpt lat="43.6599725" lon="12.2680152"><ele>509.0</ele><time>2026-04-12T09:27:57.684Z</time></trkpt><trkpt lat="43.6600548" lon="12.2681986"><ele>509.0</ele><time>2026-04-12T09:27:58.753Z</time></trkpt><trkpt lat="43.6601481" lon="12.2683789"><ele>509.0</ele><time>2026-04-12T09:27:59.684Z</time></trkpt><trkpt lat="43.660249" lon="12.2685553"><ele>509.0</ele><time>2026-04-12T09:28:00.681Z</time></trkpt><trkpt lat="43.6603436" lon="12.2687316"><ele>512.5</ele><time>2026-04-12T09:28:01.684Z</time></trkpt><trkpt lat="43.660476" lon="12.2691031"><ele>516.0</ele><time>2026-04-12T09:28:03.692Z</time></trkpt><trkpt lat="43.660502" lon="12.2693116"><ele>516.0</ele><time>2026-04-12T09:28:04.684Z</time></trkpt><trkpt lat="43.6604982" lon="12.2695361"><ele>516.0</ele><time>2026-04-12T09:28:05.684Z</time></trkpt><trkpt lat="43.6604634" lon="12.2697599"><ele>516.0</ele><time>2026-04-12T09:28:06.693Z</time></trkpt><trkpt lat="43.6604187" lon="12.2699825"><ele>514.6666666666666</ele><time>2026-04-12T09:28:07.698Z</time></trkpt><trkpt lat="43.6603773" lon="12.2702165"><ele>513.3333333333333</ele><time>2026-04-12T09:28:08.693Z</time></trkpt><trkpt lat="43.6603382" lon="12.2704518"><ele>512.0</ele><time>2026-04-12T09:28:09.77Z</time></trkpt><trkpt lat="43.6602989" lon="12.2706882"><ele>510.3333333333333</ele><time>2026-04-12T09:28:10.685Z</time></trkpt><trkpt lat="43.6602652" lon="12.2709233"><ele>508.66666666666663</ele><time>2026-04-12T09:28:11.696Z</time></trkpt><trkpt lat="43.6602358" lon="12.2711618"><ele>507.0</ele><time>2026-04-12T09:28:12.679Z</time></trkpt><trkpt lat="43.66023" lon="12.2714052"><ele>508.66666666666663</ele><time>2026-04-12T09:28:13.699Z</time></trkpt><trkpt lat="43.6602316" lon="12.2716355"><ele>510.3333333333333</ele><time>2026-04-12T09:28:14.692Z</time></trkpt><trkpt lat="43.6602431" lon="12.2718433"><ele>512.0</ele><time>2026-04-12T09:28:15.67Z</time></trkpt><trkpt lat="43.6602755" lon="12.2720454"><ele>508.3333333333333</ele><time>2026-04-12T09:28:16.682Z</time></trkpt><trkpt lat="43.6603382" lon="12.2722446"><ele>504.66666666666663</ele><time>2026-04-12T09:28:17.696Z</time></trkpt><trkpt lat="43.6604189" lon="12.2724471"><ele>501.0</ele><time>2026-04-12T09:28:18.718Z</time></trkpt><trkpt lat="43.6605003" lon="12.2726655"><ele>501.0</ele><time>2026-04-12T09:28:19.687Z</time></trkpt><trkpt lat="43.6605889" lon="12.2728797"><ele>501.0</ele><time>2026-04-12T09:28:20.756Z</time></trkpt><trkpt lat="43.660683" lon="12.2730871"><ele>501.0</ele><time>2026-04-12T09:28:21.695Z</time></trkpt><trkpt lat="43.6607783" lon="12.2732919"><ele>501.0</ele><time>2026-04-12T09:28:22.684Z</time></trkpt><trkpt lat="43.6609732" lon="12.2736628"><ele>501.0</ele><time>2026-04-12T09:28:24.715Z</time></trkpt><trkpt lat="43.6610585" lon="12.2738183"><ele>500.5</ele><time>2026-04-12T09:28:25.69Z</time></trkpt><trkpt lat="43.6611366" lon="12.2739587"><ele>500.0</ele><time>2026-04-12T09:28:26.691Z</time></trkpt><trkpt lat="43.6612065" lon="12.2740943"><ele>499.5</ele><time>2026-04-12T09:28:27.691Z</time></trkpt><trkpt lat="43.6612578" lon="12.274233"><ele>499.0</ele><time>2026-04-12T09:28:28.707Z</time></trkpt><trkpt lat="43.6612875" lon="12.2743853"><ele>499.0</ele><time>2026-04-12T09:28:29.69Z</time></trkpt><trkpt lat="43.6613098" lon="12.2745634"><ele>499.0</ele><time>2026-04-12T09:28:30.693Z</time></trkpt><trkpt lat="43.6613303" lon="12.2747528"><ele>499.0</ele><time>2026-04-12T09:28:31.697Z</time></trkpt><trkpt lat="43.6613567" lon="12.2749545"><ele>499.0</ele><time>2026-04-12T09:28:32.717Z</time></trkpt><trkpt lat="43.6613899" lon="12.2751678"><ele>499.0</ele><time>2026-04-12T09:28:33.689Z</time></trkpt><trkpt lat="43.6614265" lon="12.2753819"><ele>499.0</ele><time>2026-04-12T09:28:34.723Z</time></trkpt><trkpt lat="43.6614731" lon="12.2755936"><ele>499.0</ele><time>2026-04-12T09:28:35.699Z</time></trkpt><trkpt lat="43.6615378" lon="12.2758042"><ele>499.0</ele><time>2026-04-12T09:28:36.711Z</time></trkpt><trkpt lat="43.6616155" lon="12.2760088"><ele>499.0</ele><time>2026-04-12T09:28:37.686Z</time></trkpt><trkpt lat="43.661694" lon="12.2762079"><ele>499.0</ele><time>2026-04-12T09:28:38.685Z</time></trkpt><trkpt lat="43.6617773" lon="12.2764116"><ele>498.6666666666667</ele><time>2026-04-12T09:28:39.701Z</time></trkpt><trkpt lat="43.6618651" lon="12.276619"><ele>498.33333333333337</ele><time>2026-04-12T09:28:40.7Z</time></trkpt><trkpt lat="43.6619525" lon="12.2768256"><ele>498.0</ele><time>2026-04-12T09:28:41.694Z</time></trkpt><trkpt lat="43.662037" lon="12.2770331"><ele>497.5</ele><time>2026-04-12T09:28:42.693Z</time></trkpt><trkpt lat="43.6621088" lon="12.2772493"><ele>497.0</ele><time>2026-04-12T09:28:43.69Z</time></trkpt><trkpt lat="43.6622041" lon="12.2777292"><ele>495.66666666666663</ele><time>2026-04-12T09:28:45.692Z</time></trkpt><trkpt lat="43.6622451" lon="12.2779741"><ele>494.33333333333337</ele><time>2026-04-12T09:28:46.687Z</time></trkpt><trkpt lat="43.6622872" lon="12.2782263"><ele>493.0</ele><time>2026-04-12T09:28:47.688Z</time></trkpt><trkpt lat="43.6623273" lon="12.278481"><ele>493.0</ele><time>2026-04-12T09:28:48.69Z</time></trkpt><trkpt lat="43.6623686" lon="12.2787327"><ele>493.0</ele><time>2026-04-12T09:28:49.687Z</time></trkpt><trkpt lat="43.6624089" lon="12.2789871"><ele>493.0</ele><time>2026-04-12T09:28:50.76Z</time></trkpt><trkpt lat="43.6624486" lon="12.2792497"><ele>492.6666666666667</ele><time>2026-04-12T09:28:51.683Z</time></trkpt><trkpt lat="43.6624708" lon="12.2795186"><ele>492.33333333333337</ele><time>2026-04-12T09:28:52.712Z</time></trkpt><trkpt lat="43.6624631" lon="12.279792"><ele>492.0</ele><time>2026-04-12T09:28:53.7Z</time></trkpt><trkpt lat="43.6624305" lon="12.2800756"><ele>492.0</ele><time>2026-04-12T09:28:54.698Z</time></trkpt><trkpt lat="43.6623808" lon="12.2803499"><ele>492.0</ele><time>2026-04-12T09:28:55.699Z</time></trkpt><trkpt lat="43.662311" lon="12.2806138"><ele>492.0</ele><time>2026-04-12T09:28:56.703Z</time></trkpt><trkpt lat="43.6622255" lon="12.2808793"><ele>492.0</ele><time>2026-04-12T09:28:57.693Z</time></trkpt><trkpt lat="43.6621311" lon="12.2811333"><ele>492.0</ele><time>2026-04-12T09:28:58.696Z</time></trkpt><trkpt lat="43.6620276" lon="12.2813819"><ele>492.0</ele><time>2026-04-12T09:28:59.678Z</time></trkpt><trkpt lat="43.6619267" lon="12.2816342"><ele>492.0</ele><time>2026-04-12T09:29:00.689Z</time></trkpt><trkpt lat="43.6618202" lon="12.2818808"><ele>492.0</ele><time>2026-04-12T09:29:01.746Z</time></trkpt><trkpt lat="43.6617219" lon="12.2821157"><ele>492.0</ele><time>2026-04-12T09:29:02.687Z</time></trkpt><trkpt lat="43.6616334" lon="12.2823367"><ele>489.0</ele><time>2026-04-12T09:29:03.708Z</time></trkpt><trkpt lat="43.6615721" lon="12.282554"><ele>486.0</ele><time>2026-04-12T09:29:04.686Z</time></trkpt><trkpt lat="43.6615365" lon="12.2829777"><ele>485.5</ele><time>2026-04-12T09:29:06.682Z</time></trkpt><trkpt lat="43.6615639" lon="12.2831779"><ele>485.0</ele><time>2026-04-12T09:29:07.682Z</time></trkpt><trkpt lat="43.661623" lon="12.2833605"><ele>484.5</ele><time>2026-04-12T09:29:08.675Z</time></trkpt><trkpt lat="43.6617059" lon="12.283518"><ele>484.0</ele><time>2026-04-12T09:29:09.712Z</time></trkpt><trkpt lat="43.6617875" lon="12.2836659"><ele>484.0</ele><time>2026-04-12T09:29:10.688Z</time></trkpt><trkpt lat="43.6618584" lon="12.2838163"><ele>484.0</ele><time>2026-04-12T09:29:11.693Z</time></trkpt><trkpt lat="43.6619303" lon="12.2839584"><ele>484.0</ele><time>2026-04-12T09:29:12.779Z</time></trkpt><trkpt lat="43.6619975" lon="12.2841012"><ele>484.0</ele><time>2026-04-12T09:29:13.689Z</time></trkpt><trkpt lat="43.6620416" lon="12.2842539"><ele>483.75</ele><time>2026-04-12T09:29:14.692Z</time></trkpt><trkpt lat="43.6620406" lon="12.2844092"><ele>483.5</ele><time>2026-04-12T09:29:15.696Z</time></trkpt><trkpt lat="43.6620098" lon="12.2845487"><ele>483.25</ele><time>2026-04-12T09:29:16.697Z</time></trkpt><trkpt lat="43.6620058" lon="12.2847071"><ele>483.0</ele><time>2026-04-12T09:29:17.686Z</time></trkpt><trkpt lat="43.6620359" lon="12.2848794"><ele>483.5</ele><time>2026-04-12T09:29:18.68Z</time></trkpt><trkpt lat="43.6620743" lon="12.2850516"><ele>484.0</ele><time>2026-04-12T09:29:19.687Z</time></trkpt><trkpt lat="43.6621175" lon="12.2852199"><ele>484.5</ele><time>2026-04-12T09:29:20.698Z</time></trkpt><trkpt lat="43.6621654" lon="12.2853918"><ele>485.0</ele><time>2026-04-12T09:29:21.68Z</time></trkpt><trkpt lat="43.6622139" lon="12.2855741"><ele>484.75</ele><time>2026-04-12T09:29:22.683Z</time></trkpt><trkpt lat="43.6622638" lon="12.2857511"><ele>484.5</ele><time>2026-04-12T09:29:23.687Z</time></trkpt><trkpt lat="43.6623221" lon="12.285917"><ele>484.25</ele><time>2026-04-12T09:29:24.69Z</time></trkpt><trkpt lat="43.662389" lon="12.2860765"><ele>484.0</ele><time>2026-04-12T09:29:25.681Z</time></trkpt><trkpt lat="43.6624991" lon="12.2864253"><ele>484.0</ele><time>2026-04-12T09:29:27.687Z</time></trkpt><trkpt lat="43.6625205" lon="12.2866257"><ele>484.0</ele><time>2026-04-12T09:29:28.692Z</time></trkpt><trkpt lat="43.6625058" lon="12.2868377"><ele>484.0</ele><time>2026-04-12T09:29:29.692Z</time></trkpt><trkpt lat="43.6624772" lon="12.2870372"><ele>484.0</ele><time>2026-04-12T09:29:30.683Z</time></trkpt><trkpt lat="43.6624403" lon="12.2872473"><ele>484.6666666666667</ele><time>2026-04-12T09:29:31.685Z</time></trkpt><trkpt lat="43.662407" lon="12.2874713"><ele>485.33333333333337</ele><time>2026-04-12T09:29:32.695Z</time></trkpt><trkpt lat="43.6623802" lon="12.2876965"><ele>486.0</ele><time>2026-04-12T09:29:33.689Z</time></trkpt><trkpt lat="43.6623613" lon="12.2879177"><ele>487.20000000000005</ele><time>2026-04-12T09:29:34.693Z</time></trkpt><trkpt lat="43.6623554" lon="12.2881171"><ele>488.40000000000003</ele><time>2026-04-12T09:29:35.685Z</time></trkpt><trkpt lat="43.6623535" lon="12.2882867"><ele>489.6</ele><time>2026-04-12T09:29:36.683Z</time></trkpt><trkpt lat="43.6623414" lon="12.2884228"><ele>490.8</ele><time>2026-04-12T09:29:37.682Z</time></trkpt><trkpt lat="43.6623231" lon="12.2885327"><ele>492.0</ele><time>2026-04-12T09:29:38.689Z</time></trkpt><trkpt lat="43.662289" lon="12.288632"><ele>492.0</ele><time>2026-04-12T09:29:39.676Z</time></trkpt><trkpt lat="43.6622415" lon="12.2887351"><ele>492.00000000000006</ele><time>2026-04-12T09:29:40.691Z</time></trkpt><trkpt lat="43.6621794" lon="12.2888618"><ele>492.00000000000006</ele><time>2026-04-12T09:29:41.681Z</time></trkpt><trkpt lat="43.6621258" lon="12.2890027"><ele>492.0</ele><time>2026-04-12T09:29:42.694Z</time></trkpt><trkpt lat="43.6620722" lon="12.2891701"><ele>492.0</ele><time>2026-04-12T09:29:43.688Z</time></trkpt><trkpt lat="43.6620178" lon="12.2893314"><ele>487.66666666666663</ele><time>2026-04-12T09:29:44.716Z</time></trkpt><trkpt lat="43.6619387" lon="12.2894762"><ele>483.3333333333333</ele><time>2026-04-12T09:29:45.708Z</time></trkpt><trkpt lat="43.6618273" lon="12.2895852"><ele>479.0</ele><time>2026-04-12T09:29:46.689Z</time></trkpt><trkpt lat="43.6615394" lon="12.2897121"><ele>478.66666666666663</ele><time>2026-04-12T09:29:48.691Z</time></trkpt><trkpt lat="43.6613904" lon="12.2897684"><ele>478.33333333333337</ele><time>2026-04-12T09:29:49.725Z</time></trkpt><trkpt lat="43.6612374" lon="12.2898261"><ele>478.0</ele><time>2026-04-12T09:29:50.691Z</time></trkpt><trkpt lat="43.6610869" lon="12.2898934"><ele>478.0</ele><time>2026-04-12T09:29:51.701Z</time></trkpt><trkpt lat="43.660947" lon="12.2899678"><ele>478.0</ele><time>2026-04-12T09:29:52.704Z</time></trkpt><trkpt lat="43.6608196" lon="12.290071"><ele>478.0</ele><time>2026-04-12T09:29:53.695Z</time></trkpt><trkpt lat="43.6607048" lon="12.2902066"><ele>478.0</ele><time>2026-04-12T09:29:54.692Z</time></trkpt><trkpt lat="43.6606047" lon="12.2903604"><ele>478.0</ele><time>2026-04-12T09:29:55.692Z</time></trkpt><trkpt lat="43.660527" lon="12.2905305"><ele>478.0</ele><time>2026-04-12T09:29:56.689Z</time></trkpt><trkpt lat="43.6604692" lon="12.2907196"><ele>478.0</ele><time>2026-04-12T09:29:57.684Z</time></trkpt><trkpt lat="43.6604308" lon="12.290921"><ele>478.0</ele><time>2026-04-12T09:29:58.702Z</time></trkpt><trkpt lat="43.6603954" lon="12.2911155"><ele>478.25</ele><time>2026-04-12T09:29:59.687Z</time></trkpt><trkpt lat="43.6603402" lon="12.2912962"><ele>478.5</ele><time>2026-04-12T09:30:00.716Z</time></trkpt><trkpt lat="43.660252" lon="12.2914435"><ele>478.75</ele><time>2026-04-12T09:30:01.683Z</time></trkpt><trkpt lat="43.6601311" lon="12.2915599"><ele>479.0</ele><time>2026-04-12T09:30:02.689Z</time></trkpt><trkpt lat="43.6599999" lon="12.291651"><ele>476.3333333333333</ele><time>2026-04-12T09:30:03.732Z</time></trkpt><trkpt lat="43.6598704" lon="12.291778"><ele>473.66666666666663</ele><time>2026-04-12T09:30:04.698Z</time></trkpt><trkpt lat="43.6597599" lon="12.2919383"><ele>471.0</ele><time>2026-04-12T09:30:05.7Z</time></trkpt><trkpt lat="43.6596626" lon="12.2921203"><ele>471.5</ele><time>2026-04-12T09:30:06.775Z</time></trkpt><trkpt lat="43.6595683" lon="12.292313"><ele>472.0</ele><time>2026-04-12T09:30:07.706Z</time></trkpt><trkpt lat="43.6593947" lon="12.2926367"><ele>469.75</ele><time>2026-04-12T09:30:09.7Z</time></trkpt><trkpt lat="43.6593083" lon="12.2927637"><ele>467.5</ele><time>2026-04-12T09:30:10.685Z</time></trkpt><trkpt lat="43.6591907" lon="12.2928464"><ele>465.25</ele><time>2026-04-12T09:30:11.699Z</time></trkpt><trkpt lat="43.6590519" lon="12.2928747"><ele>463.0</ele><time>2026-04-12T09:30:12.701Z</time></trkpt><trkpt lat="43.6589145" lon="12.2928141"><ele>463.0</ele><time>2026-04-12T09:30:13.691Z</time></trkpt><trkpt lat="43.6588154" lon="12.2927165"><ele>463.0</ele><time>2026-04-12T09:30:14.695Z</time></trkpt><trkpt lat="43.6587021" lon="12.292629"><ele>463.0</ele><time>2026-04-12T09:30:15.698Z</time></trkpt><trkpt lat="43.6585726" lon="12.2925877"><ele>463.0</ele><time>2026-04-12T09:30:16.685Z</time></trkpt><trkpt lat="43.6584436" lon="12.2925772"><ele>465.0</ele><time>2026-04-12T09:30:17.697Z</time></trkpt><trkpt lat="43.6583167" lon="12.2926289"><ele>467.0</ele><time>2026-04-12T09:30:18.725Z</time></trkpt><trkpt lat="43.658215" lon="12.2927342"><ele>469.0</ele><time>2026-04-12T09:30:19.763Z</time></trkpt><trkpt lat="43.6581384" lon="12.2928754"><ele>471.0</ele><time>2026-04-12T09:30:20.703Z</time></trkpt><trkpt lat="43.6581013" lon="12.2930574"><ele>471.0</ele><time>2026-04-12T09:30:21.689Z</time></trkpt><trkpt lat="43.6580892" lon="12.2932501"><ele>471.0</ele><time>2026-04-12T09:30:22.687Z</time></trkpt><trkpt lat="43.6580891" lon="12.2934407"><ele>471.0</ele><time>2026-04-12T09:30:23.688Z</time></trkpt><trkpt lat="43.6580826" lon="12.29363"><ele>471.0</ele><time>2026-04-12T09:30:24.687Z</time></trkpt><trkpt lat="43.6580772" lon="12.2937875"><ele>470.0</ele><time>2026-04-12T09:30:25.686Z</time></trkpt><trkpt lat="43.6580739" lon="12.2939452"><ele>469.0</ele><time>2026-04-12T09:30:26.692Z</time></trkpt><trkpt lat="43.658056" lon="12.294083"><ele>468.0</ele><time>2026-04-12T09:30:27.685Z</time></trkpt><trkpt lat="43.6580098" lon="12.2941953"><ele>467.0</ele><time>2026-04-12T09:30:28.743Z</time></trkpt><trkpt lat="43.657824" lon="12.2943007"><ele>468.0</ele><time>2026-04-12T09:30:30.686Z</time></trkpt><trkpt lat="43.6577216" lon="12.294331"><ele>469.00000000000006</ele><time>2026-04-12T09:30:31.681Z</time></trkpt><trkpt lat="43.6576185" lon="12.2943699"><ele>470.00000000000006</ele><time>2026-04-12T09:30:32.692Z</time></trkpt><trkpt lat="43.6575139" lon="12.2944195"><ele>471.0</ele><time>2026-04-12T09:30:33.67Z</time></trkpt><trkpt lat="43.6574031" lon="12.2944687"><ele>472.0</ele><time>2026-04-12T09:30:34.689Z</time></trkpt><trkpt lat="43.6572883" lon="12.2945145"><ele>472.0</ele><time>2026-04-12T09:30:35.68Z</time></trkpt><trkpt lat="43.6571709" lon="12.2945597"><ele>472.00000000000006</ele><time>2026-04-12T09:30:36.676Z</time></trkpt><trkpt lat="43.6570543" lon="12.294603"><ele>472.00000000000006</ele><time>2026-04-12T09:30:37.692Z</time></trkpt><trkpt lat="43.6569547" lon="12.2946373"><ele>472.0</ele><time>2026-04-12T09:30:38.73Z</time></trkpt><trkpt lat="43.6568751" lon="12.2946718"><ele>472.0</ele><time>2026-04-12T09:30:39.773Z</time></trkpt><trkpt lat="43.6567884" lon="12.2947477"><ele>471.5</ele><time>2026-04-12T09:30:41.714Z</time></trkpt><trkpt lat="43.6567542" lon="12.2948617"><ele>471.0</ele><time>2026-04-12T09:30:44.7Z</time></trkpt><trkpt lat="43.6568332" lon="12.2950383"><ele>470.5</ele><time>2026-04-12T09:30:46.692Z</time></trkpt><trkpt lat="43.6569018" lon="12.2951554"><ele>470.0</ele><time>2026-04-12T09:30:47.677Z</time></trkpt><trkpt lat="43.6569772" lon="12.2952874"><ele>470.0</ele><time>2026-04-12T09:30:48.699Z</time></trkpt><trkpt lat="43.6570647" lon="12.2954427"><ele>470.0</ele><time>2026-04-12T09:30:49.677Z</time></trkpt><trkpt lat="43.6572495" lon="12.2957997"><ele>469.66666666666663</ele><time>2026-04-12T09:30:51.68Z</time></trkpt><trkpt lat="43.6573366" lon="12.2960033"><ele>469.33333333333337</ele><time>2026-04-12T09:30:52.683Z</time></trkpt><trkpt lat="43.657407" lon="12.2962352"><ele>469.0</ele><time>2026-04-12T09:30:53.679Z</time></trkpt><trkpt lat="43.6574668" lon="12.296489"><ele>469.6666666666667</ele><time>2026-04-12T09:30:54.681Z</time></trkpt><trkpt lat="43.6575258" lon="12.2967451"><ele>470.33333333333337</ele><time>2026-04-12T09:30:55.673Z</time></trkpt><trkpt lat="43.6575872" lon="12.2970097"><ele>471.0</ele><time>2026-04-12T09:30:56.692Z</time></trkpt><trkpt lat="43.6576512" lon="12.2972711"><ele>471.0</ele><time>2026-04-12T09:30:57.681Z</time></trkpt><trkpt lat="43.6577104" lon="12.2975292"><ele>471.0</ele><time>2026-04-12T09:30:58.678Z</time></trkpt><trkpt lat="43.6577621" lon="12.2977861"><ele>471.0</ele><time>2026-04-12T09:30:59.676Z</time></trkpt><trkpt lat="43.6578062" lon="12.2980368"><ele>469.0</ele><time>2026-04-12T09:31:00.687Z</time></trkpt><trkpt lat="43.6578302" lon="12.2983056"><ele>467.0</ele><time>2026-04-12T09:31:01.674Z</time></trkpt><trkpt lat="43.6578199" lon="12.2985809"><ele>465.0</ele><time>2026-04-12T09:31:02.693Z</time></trkpt><trkpt lat="43.6578001" lon="12.2988549"><ele>468.33333333333337</ele><time>2026-04-12T09:31:03.747Z</time></trkpt><trkpt lat="43.6577796" lon="12.2991389"><ele>471.6666666666667</ele><time>2026-04-12T09:31:04.697Z</time></trkpt><trkpt lat="43.6577621" lon="12.2994331"><ele>475.0</ele><time>2026-04-12T09:31:05.698Z</time></trkpt><trkpt lat="43.6577415" lon="12.2997269"><ele>475.33333333333337</ele><time>2026-04-12T09:31:06.689Z</time></trkpt><trkpt lat="43.6577159" lon="12.3000188"><ele>475.66666666666663</ele><time>2026-04-12T09:31:07.682Z</time></trkpt><trkpt lat="43.6576947" lon="12.3003219"><ele>476.0</ele><time>2026-04-12T09:31:08.687Z</time></trkpt><trkpt lat="43.6576765" lon="12.3006172"><ele>474.5</ele><time>2026-04-12T09:31:09.681Z</time></trkpt><trkpt lat="43.6576724" lon="12.3009183"><ele>473.0</ele><time>2026-04-12T09:31:10.716Z</time></trkpt><trkpt lat="43.6576862" lon="12.3015086"><ele>472.66666666666663</ele><time>2026-04-12T09:31:12.696Z</time></trkpt><trkpt lat="43.6576919" lon="12.3018019"><ele>472.33333333333337</ele><time>2026-04-12T09:31:13.677Z</time></trkpt><trkpt lat="43.6576981" lon="12.3020951"><ele>472.0</ele><time>2026-04-12T09:31:14.691Z</time></trkpt><trkpt lat="43.6577043" lon="12.3023918"><ele>474.33333333333337</ele><time>2026-04-12T09:31:15.69Z</time></trkpt><trkpt lat="43.6577115" lon="12.3026852"><ele>476.66666666666663</ele><time>2026-04-12T09:31:16.673Z</time></trkpt><trkpt lat="43.6577189" lon="12.3029784"><ele>479.0</ele><time>2026-04-12T09:31:17.698Z</time></trkpt><trkpt lat="43.6577291" lon="12.3032761"><ele>479.3333333333333</ele><time>2026-04-12T09:31:18.684Z</time></trkpt><trkpt lat="43.6577364" lon="12.3035683"><ele>479.66666666666663</ele><time>2026-04-12T09:31:19.689Z</time></trkpt><trkpt lat="43.6577403" lon="12.3038584"><ele>480.0</ele><time>2026-04-12T09:31:20.678Z</time></trkpt><trkpt lat="43.6577441" lon="12.3041526"><ele>478.33333333333337</ele><time>2026-04-12T09:31:21.691Z</time></trkpt><trkpt lat="43.6577479" lon="12.3044517"><ele>476.6666666666667</ele><time>2026-04-12T09:31:22.678Z</time></trkpt><trkpt lat="43.6577522" lon="12.3047551"><ele>475.0</ele><time>2026-04-12T09:31:23.689Z</time></trkpt><trkpt lat="43.6577607" lon="12.3050602"><ele>474.0</ele><time>2026-04-12T09:31:24.674Z</time></trkpt><trkpt lat="43.6577703" lon="12.3053673"><ele>473.0</ele><time>2026-04-12T09:31:25.677Z</time></trkpt><trkpt lat="43.6577816" lon="12.3056711"><ele>472.0</ele><time>2026-04-12T09:31:26.695Z</time></trkpt><trkpt lat="43.6577878" lon="12.3059511"><ele>470.0</ele><time>2026-04-12T09:31:27.689Z</time></trkpt><trkpt lat="43.6577911" lon="12.3062164"><ele>468.0</ele><time>2026-04-12T09:31:28.703Z</time></trkpt><trkpt lat="43.6577734" lon="12.3064783"><ele>466.0</ele><time>2026-04-12T09:31:29.678Z</time></trkpt><trkpt lat="43.6577298" lon="12.3067423"><ele>466.0</ele><time>2026-04-12T09:31:30.688Z</time></trkpt><trkpt lat="43.657668" lon="12.3070078"><ele>466.0</ele><time>2026-04-12T09:31:31.703Z</time></trkpt><trkpt lat="43.6575187" lon="12.3075268"><ele>464.33333333333337</ele><time>2026-04-12T09:31:33.714Z</time></trkpt><trkpt lat="43.6574442" lon="12.3077927"><ele>462.66666666666663</ele><time>2026-04-12T09:31:34.681Z</time></trkpt><trkpt lat="43.6573694" lon="12.3080632"><ele>461.0</ele><time>2026-04-12T09:31:35.688Z</time></trkpt><trkpt lat="43.6572914" lon="12.3083379"><ele>459.3333333333333</ele><time>2026-04-12T09:31:36.688Z</time></trkpt><trkpt lat="43.65721" lon="12.3086103"><ele>457.66666666666663</ele><time>2026-04-12T09:31:37.684Z</time></trkpt><trkpt lat="43.6571293" lon="12.3088885"><ele>456.0</ele><time>2026-04-12T09:31:38.684Z</time></trkpt><trkpt lat="43.657048" lon="12.309167"><ele>453.0</ele><time>2026-04-12T09:31:39.693Z</time></trkpt><trkpt lat="43.656968" lon="12.3094457"><ele>450.0</ele><time>2026-04-12T09:31:40.675Z</time></trkpt><trkpt lat="43.6568858" lon="12.3097244"><ele>447.0</ele><time>2026-04-12T09:31:41.699Z</time></trkpt><trkpt lat="43.6568045" lon="12.3099968"><ele>453.0</ele><time>2026-04-12T09:31:42.673Z</time></trkpt><trkpt lat="43.6567222" lon="12.3102771"><ele>459.0</ele><time>2026-04-12T09:31:43.674Z</time></trkpt><trkpt lat="43.6566567" lon="12.3105553"><ele>465.0</ele><time>2026-04-12T09:31:44.676Z</time></trkpt><trkpt lat="43.6566079" lon="12.3108447"><ele>465.0</ele><time>2026-04-12T09:31:45.683Z</time></trkpt><trkpt lat="43.6565764" lon="12.3111424"><ele>465.0</ele><time>2026-04-12T09:31:46.685Z</time></trkpt><trkpt lat="43.6565507" lon="12.311444"><ele>465.0</ele><time>2026-04-12T09:31:47.678Z</time></trkpt><trkpt lat="43.6565249" lon="12.3117509"><ele>462.0</ele><time>2026-04-12T09:31:48.682Z</time></trkpt><trkpt lat="43.6564992" lon="12.3120627"><ele>459.0</ele><time>2026-04-12T09:31:49.669Z</time></trkpt><trkpt lat="43.6564741" lon="12.3123669"><ele>456.0</ele><time>2026-04-12T09:31:50.673Z</time></trkpt><trkpt lat="43.6564463" lon="12.312663"><ele>455.0</ele><time>2026-04-12T09:31:51.675Z</time></trkpt><trkpt lat="43.6564188" lon="12.3129607"><ele>454.0</ele><time>2026-04-12T09:31:52.68Z</time></trkpt><trkpt lat="43.6563618" lon="12.3135385"><ele>454.0</ele><time>2026-04-12T09:31:54.697Z</time></trkpt><trkpt lat="43.6563343" lon="12.3138226"><ele>454.0</ele><time>2026-04-12T09:31:55.675Z</time></trkpt><trkpt lat="43.6563055" lon="12.3141042"><ele>454.0</ele><time>2026-04-12T09:31:56.689Z</time></trkpt><trkpt lat="43.6562801" lon="12.3143857"><ele>454.33333333333337</ele><time>2026-04-12T09:31:57.786Z</time></trkpt><trkpt lat="43.6562533" lon="12.3146573"><ele>454.66666666666663</ele><time>2026-04-12T09:31:58.7Z</time></trkpt><trkpt lat="43.6562321" lon="12.3149098"><ele>455.0</ele><time>2026-04-12T09:31:59.718Z</time></trkpt><trkpt lat="43.6562139" lon="12.3151469"><ele>455.25</ele><time>2026-04-12T09:32:00.779Z</time></trkpt><trkpt lat="43.656193" lon="12.3153626"><ele>455.5</ele><time>2026-04-12T09:32:01.692Z</time></trkpt><trkpt lat="43.6561728" lon="12.3155451"><ele>455.75</ele><time>2026-04-12T09:32:02.71Z</time></trkpt><trkpt lat="43.6561566" lon="12.3157053"><ele>456.0</ele><time>2026-04-12T09:32:03.738Z</time></trkpt><trkpt lat="43.6561449" lon="12.3158248"><ele>455.6</ele><time>2026-04-12T09:32:04.706Z</time></trkpt><trkpt lat="43.6561555" lon="12.3159596"><ele>455.20000000000005</ele><time>2026-04-12T09:32:06.684Z</time></trkpt><trkpt lat="43.6562202" lon="12.3159545"><ele>454.79999999999995</ele><time>2026-04-12T09:32:08.692Z</time></trkpt><trkpt lat="43.6562849" lon="12.3159529"><ele>454.4</ele><time>2026-04-12T09:33:04.694Z</time></trkpt><trkpt lat="43.6564901" lon="12.3159718"><ele>454.0</ele><time>2026-04-12T09:34:01.674Z</time></trkpt><trkpt lat="43.6565664" lon="12.3159456"><ele>454.00000000000006</ele><time>2026-04-12T09:34:02.697Z</time></trkpt><trkpt lat="43.6566518" lon="12.3158867"><ele>454.0</ele><time>2026-04-12T09:34:03.689Z</time></trkpt><trkpt lat="43.656731" lon="12.3158297"><ele>454.0</ele><time>2026-04-12T09:34:04.682Z</time></trkpt><trkpt lat="43.6568077" lon="12.3157757"><ele>454.0</ele><time>2026-04-12T09:34:05.684Z</time></trkpt><trkpt lat="43.6568817" lon="12.3157354"><ele>454.00000000000006</ele><time>2026-04-12T09:34:06.687Z</time></trkpt><trkpt lat="43.6569575" lon="12.3157102"><ele>454.0</ele><time>2026-04-12T09:34:07.685Z</time></trkpt><trkpt lat="43.6570324" lon="12.3157063"><ele>450.75</ele><time>2026-04-12T09:34:08.677Z</time></trkpt><trkpt lat="43.6571247" lon="12.3157328"><ele>447.5</ele><time>2026-04-12T09:34:09.68Z</time></trkpt><trkpt lat="43.6572326" lon="12.3157772"><ele>444.25</ele><time>2026-04-12T09:34:10.762Z</time></trkpt><trkpt lat="43.6573532" lon="12.3158245"><ele>441.0</ele><time>2026-04-12T09:34:11.68Z</time></trkpt><trkpt lat="43.6574769" lon="12.3158845"><ele>441.0</ele><time>2026-04-12T09:34:12.685Z</time></trkpt><trkpt lat="43.6575841" lon="12.3159327"><ele>441.0</ele><time>2026-04-12T09:34:13.689Z</time></trkpt><trkpt lat="43.6576728" lon="12.3159772"><ele>441.0</ele><time>2026-04-12T09:34:14.682Z</time></trkpt><trkpt lat="43.6577464" lon="12.3160069"><ele>441.0</ele><time>2026-04-12T09:34:15.689Z</time></trkpt><trkpt lat="43.6578721" lon="12.3159528"><ele>441.0</ele><time>2026-04-12T09:34:17.667Z</time></trkpt><trkpt lat="43.6579451" lon="12.3158749"><ele>442.0</ele><time>2026-04-12T09:34:18.702Z</time></trkpt><trkpt lat="43.6580344" lon="12.3157981"><ele>443.0</ele><time>2026-04-12T09:34:19.681Z</time></trkpt><trkpt lat="43.6581213" lon="12.3157566"><ele>444.0</ele><time>2026-04-12T09:34:20.689Z</time></trkpt><trkpt lat="43.6583037" lon="12.3157685"><ele>445.0</ele><time>2026-04-12T09:34:22.682Z</time></trkpt><trkpt lat="43.6583836" lon="12.3157834"><ele>445.00000000000006</ele><time>2026-04-12T09:34:23.693Z</time></trkpt><trkpt lat="43.6584517" lon="12.3158022"><ele>445.0</ele><time>2026-04-12T09:34:24.711Z</time></trkpt><trkpt lat="43.6585099" lon="12.3158375"><ele>445.0</ele><time>2026-04-12T09:34:25.693Z</time></trkpt><trkpt lat="43.658617" lon="12.3159416"><ele>445.0</ele><time>2026-04-12T09:34:27.719Z</time></trkpt><trkpt lat="43.6586675" lon="12.316026"><ele>445.00000000000006</ele><time>2026-04-12T09:34:28.682Z</time></trkpt><trkpt lat="43.6586986" lon="12.3161244"><ele>445.0</ele><time>2026-04-12T09:34:29.717Z</time></trkpt><trkpt lat="43.6587048" lon="12.3162461"><ele>446.6</ele><time>2026-04-12T09:34:30.69Z</time></trkpt><trkpt lat="43.6586913" lon="12.316378"><ele>448.2</ele><time>2026-04-12T09:34:31.681Z</time></trkpt><trkpt lat="43.6586665" lon="12.3165041"><ele>449.79999999999995</ele><time>2026-04-12T09:34:32.712Z</time></trkpt><trkpt lat="43.6586318" lon="12.31664"><ele>451.4</ele><time>2026-04-12T09:34:33.702Z</time></trkpt><trkpt lat="43.6585959" lon="12.3167831"><ele>453.0</ele><time>2026-04-12T09:34:34.72Z</time></trkpt><trkpt lat="43.6585528" lon="12.316961"><ele>453.0</ele><time>2026-04-12T09:34:35.707Z</time></trkpt><trkpt lat="43.6585139" lon="12.3171556"><ele>453.0</ele><time>2026-04-12T09:34:36.711Z</time></trkpt><trkpt lat="43.6584776" lon="12.3173407"><ele>453.0</ele><time>2026-04-12T09:34:37.705Z</time></trkpt><trkpt lat="43.658448" lon="12.3175111"><ele>453.0</ele><time>2026-04-12T09:34:38.701Z</time></trkpt><trkpt lat="43.6584268" lon="12.3176807"><ele>457.66666666666663</ele><time>2026-04-12T09:34:39.69Z</time></trkpt><trkpt lat="43.6583951" lon="12.3178603"><ele>462.3333333333333</ele><time>2026-04-12T09:34:40.712Z</time></trkpt><trkpt lat="43.6583507" lon="12.3180366"><ele>467.0</ele><time>2026-04-12T09:34:41.7Z</time></trkpt><trkpt lat="43.6581904" lon="12.3184209"><ele>471.0</ele><time>2026-04-12T09:34:43.68Z</time></trkpt><trkpt lat="43.6581036" lon="12.3186346"><ele>475.0</ele><time>2026-04-12T09:34:44.677Z</time></trkpt><trkpt lat="43.6580272" lon="12.3188663"><ele>479.0</ele><time>2026-04-12T09:34:45.753Z</time></trkpt><trkpt lat="43.6579521" lon="12.3191287"><ele>481.3333333333333</ele><time>2026-04-12T09:34:46.687Z</time></trkpt><trkpt lat="43.6578868" lon="12.3193911"><ele>483.66666666666663</ele><time>2026-04-12T09:34:47.755Z</time></trkpt><trkpt lat="43.6578198" lon="12.3196373"><ele>486.0</ele><time>2026-04-12T09:34:48.748Z</time></trkpt><trkpt lat="43.6577364" lon="12.3198881"><ele>480.33333333333337</ele><time>2026-04-12T09:34:49.673Z</time></trkpt><trkpt lat="43.6576305" lon="12.320133"><ele>474.6666666666667</ele><time>2026-04-12T09:34:50.687Z</time></trkpt><trkpt lat="43.6575208" lon="12.320369"><ele>469.0</ele><time>2026-04-12T09:34:51.697Z</time></trkpt><trkpt lat="43.6573971" lon="12.3205955"><ele>469.0</ele><time>2026-04-12T09:34:52.692Z</time></trkpt><trkpt lat="43.6572842" lon="12.3208115"><ele>469.0</ele><time>2026-04-12T09:34:53.684Z</time></trkpt><trkpt lat="43.6571871" lon="12.321009"><ele>469.0</ele><time>2026-04-12T09:34:54.679Z</time></trkpt><trkpt lat="43.6570949" lon="12.3212174"><ele>464.6666666666667</ele><time>2026-04-12T09:34:55.681Z</time></trkpt><trkpt lat="43.6570073" lon="12.3214288"><ele>460.33333333333337</ele><time>2026-04-12T09:34:56.685Z</time></trkpt><trkpt lat="43.6569371" lon="12.32164"><ele>456.0</ele><time>2026-04-12T09:34:57.687Z</time></trkpt><trkpt lat="43.6568778" lon="12.3218668"><ele>456.0</ele><time>2026-04-12T09:34:58.672Z</time></trkpt><trkpt lat="43.6568399" lon="12.3221164"><ele>456.0</ele><time>2026-04-12T09:34:59.696Z</time></trkpt><trkpt lat="43.656818" lon="12.3223429"><ele>456.0</ele><time>2026-04-12T09:35:00.722Z</time></trkpt><trkpt lat="43.6567827" lon="12.3225366"><ele>460.33333333333337</ele><time>2026-04-12T09:35:01.697Z</time></trkpt><trkpt lat="43.6567227" lon="12.3227226"><ele>464.6666666666667</ele><time>2026-04-12T09:35:02.732Z</time></trkpt><trkpt lat="43.6566123" lon="12.3230978"><ele>469.0</ele><time>2026-04-12T09:35:04.683Z</time></trkpt><trkpt lat="43.6565774" lon="12.3232424"><ele>469.4</ele><time>2026-04-12T09:35:05.693Z</time></trkpt><trkpt lat="43.6565488" lon="12.3233632"><ele>469.79999999999995</ele><time>2026-04-12T09:35:06.73Z</time></trkpt><trkpt lat="43.6565508" lon="12.3234613"><ele>470.20000000000005</ele><time>2026-04-12T09:35:07.696Z</time></trkpt><trkpt lat="43.6565733" lon="12.3235506"><ele>470.6</ele><time>2026-04-12T09:35:08.71Z</time></trkpt><trkpt lat="43.6566815" lon="12.3236397"><ele>471.0</ele><time>2026-04-12T09:35:10.703Z</time></trkpt><trkpt lat="43.6567846" lon="12.3236757"><ele>471.0</ele><time>2026-04-12T09:35:11.703Z</time></trkpt><trkpt lat="43.656919" lon="12.3237275"><ele>471.0</ele><time>2026-04-12T09:35:12.684Z</time></trkpt><trkpt lat="43.6570645" lon="12.3237971"><ele>471.0</ele><time>2026-04-12T09:35:13.787Z</time></trkpt><trkpt lat="43.6572165" lon="12.3238985"><ele>475.25</ele><time>2026-04-12T09:35:14.688Z</time></trkpt><trkpt lat="43.6573534" lon="12.3240224"><ele>479.5</ele><time>2026-04-12T09:35:15.687Z</time></trkpt><trkpt lat="43.6574585" lon="12.3241548"><ele>483.75</ele><time>2026-04-12T09:35:16.677Z</time></trkpt><trkpt lat="43.6575458" lon="12.3243095"><ele>488.0</ele><time>2026-04-12T09:35:17.672Z</time></trkpt><trkpt lat="43.6576388" lon="12.3244935"><ele>488.0</ele><time>2026-04-12T09:35:18.691Z</time></trkpt><trkpt lat="43.657727" lon="12.3246795"><ele>488.0</ele><time>2026-04-12T09:35:19.704Z</time></trkpt><trkpt lat="43.6577763" lon="12.3248451"><ele>488.0</ele><time>2026-04-12T09:35:20.706Z</time></trkpt><trkpt lat="43.6578039" lon="12.3249983"><ele>488.0</ele><time>2026-04-12T09:35:21.756Z</time></trkpt><trkpt lat="43.6578328" lon="12.3251165"><ele>490.59999999999997</ele><time>2026-04-12T09:35:22.692Z</time></trkpt><trkpt lat="43.6578748" lon="12.3251874"><ele>493.19999999999993</ele><time>2026-04-12T09:35:23.706Z</time></trkpt><trkpt lat="43.6580317" lon="12.3250805"><ele>495.8</ele><time>2026-04-12T09:35:26.708Z</time></trkpt><trkpt lat="43.6580731" lon="12.3249673"><ele>498.4</ele><time>2026-04-12T09:35:27.683Z</time></trkpt><trkpt lat="43.6580829" lon="12.3248431"><ele>501.0</ele><time>2026-04-12T09:35:28.7Z</time></trkpt><trkpt lat="43.6580643" lon="12.3247042"><ele>498.4</ele><time>2026-04-12T09:35:29.671Z</time></trkpt><trkpt lat="43.6579989" lon="12.3245985"><ele>495.8</ele><time>2026-04-12T09:35:30.685Z</time></trkpt><trkpt lat="43.657918" lon="12.3244952"><ele>493.19999999999993</ele><time>2026-04-12T09:35:31.68Z</time></trkpt><trkpt lat="43.6578548" lon="12.3243763"><ele>490.59999999999997</ele><time>2026-04-12T09:35:32.682Z</time></trkpt><trkpt lat="43.6578005" lon="12.324223"><ele>488.0</ele><time>2026-04-12T09:35:33.681Z</time></trkpt><trkpt lat="43.657736" lon="12.3240173"><ele>495.0</ele><time>2026-04-12T09:35:34.769Z</time></trkpt><trkpt lat="43.6576742" lon="12.3237761"><ele>502.0</ele><time>2026-04-12T09:35:35.678Z</time></trkpt><trkpt lat="43.6575896" lon="12.3235314"><ele>509.0</ele><time>2026-04-12T09:35:36.68Z</time></trkpt><trkpt lat="43.6574898" lon="12.3233299"><ele>509.0</ele><time>2026-04-12T09:35:37.695Z</time></trkpt><trkpt lat="43.6574281" lon="12.3231735"><ele>509.0</ele><time>2026-04-12T09:35:38.688Z</time></trkpt><trkpt lat="43.6574002" lon="12.3230673"><ele>509.0</ele><time>2026-04-12T09:35:39.679Z</time></trkpt><trkpt lat="43.6574088" lon="12.3229403"><ele>509.0</ele><time>2026-04-12T09:35:40.689Z</time></trkpt><trkpt lat="43.6574361" lon="12.3228227"><ele>509.0</ele><time>2026-04-12T09:35:41.697Z</time></trkpt><trkpt lat="43.6574756" lon="12.3227143"><ele>509.25</ele><time>2026-04-12T09:35:42.701Z</time></trkpt><trkpt lat="43.6575442" lon="12.3226138"><ele>509.5</ele><time>2026-04-12T09:35:43.694Z</time></trkpt><trkpt lat="43.6576363" lon="12.3224964"><ele>509.75</ele><time>2026-04-12T09:35:44.675Z</time></trkpt><trkpt lat="43.6577154" lon="12.3222294"><ele>510.0</ele><time>2026-04-12T09:35:47.76Z</time></trkpt><trkpt lat="43.6577813" lon="12.3222245"><ele>510.0</ele><time>2026-04-12T09:35:49.694Z</time></trkpt><trkpt lat="43.6578137" lon="12.3223611"><ele>510.0</ele><time>2026-04-12T09:35:51.685Z</time></trkpt><trkpt lat="43.6577991" lon="12.322483"><ele>510.0</ele><time>2026-04-12T09:35:52.69Z</time></trkpt><trkpt lat="43.6577787" lon="12.3226561"><ele>510.0</ele><time>2026-04-12T09:35:53.675Z</time></trkpt><trkpt lat="43.6577447" lon="12.322822"><ele>510.0</ele><time>2026-04-12T09:35:54.684Z</time></trkpt><trkpt lat="43.6577201" lon="12.3229714"><ele>509.75</ele><time>2026-04-12T09:35:55.685Z</time></trkpt><trkpt lat="43.6577203" lon="12.3231184"><ele>509.5</ele><time>2026-04-12T09:35:56.69Z</time></trkpt><trkpt lat="43.6577492" lon="12.3232714"><ele>509.25</ele><time>2026-04-12T09:35:57.686Z</time></trkpt><trkpt lat="43.6578014" lon="12.3234072"><ele>509.0</ele><time>2026-04-12T09:35:58.682Z</time></trkpt><trkpt lat="43.6578783" lon="12.3235304"><ele>513.0</ele><time>2026-04-12T09:35:59.68Z</time></trkpt><trkpt lat="43.6579766" lon="12.3236521"><ele>517.0</ele><time>2026-04-12T09:36:00.68Z</time></trkpt><trkpt lat="43.6580766" lon="12.323774"><ele>521.0</ele><time>2026-04-12T09:36:01.69Z</time></trkpt><trkpt lat="43.6581767" lon="12.3238724"><ele>525.0</ele><time>2026-04-12T09:36:02.711Z</time></trkpt><trkpt lat="43.6582735" lon="12.3239523"><ele>525.0</ele><time>2026-04-12T09:36:03.676Z</time></trkpt><trkpt lat="43.6583933" lon="12.324015"><ele>525.0</ele><time>2026-04-12T09:36:04.676Z</time></trkpt><trkpt lat="43.6585312" lon="12.3240525"><ele>525.0</ele><time>2026-04-12T09:36:05.694Z</time></trkpt><trkpt lat="43.6588613" lon="12.3241309"><ele>528.5</ele><time>2026-04-12T09:36:07.711Z</time></trkpt><trkpt lat="43.6590219" lon="12.3241857"><ele>532.0</ele><time>2026-04-12T09:36:08.694Z</time></trkpt><trkpt lat="43.659161" lon="12.3242291"><ele>535.5</ele><time>2026-04-12T09:36:09.68Z</time></trkpt><trkpt lat="43.6592881" lon="12.3242721"><ele>539.0</ele><time>2026-04-12T09:36:10.756Z</time></trkpt><trkpt lat="43.6594018" lon="12.3243101"><ele>541.2</ele><time>2026-04-12T09:36:11.688Z</time></trkpt><trkpt lat="43.6594919" lon="12.3243577"><ele>543.4</ele><time>2026-04-12T09:36:12.705Z</time></trkpt><trkpt lat="43.6595747" lon="12.324427"><ele>545.6</ele><time>2026-04-12T09:36:13.693Z</time></trkpt><trkpt lat="43.6596451" lon="12.3245092"><ele>547.8</ele><time>2026-04-12T09:36:14.693Z</time></trkpt><trkpt lat="43.6597035" lon="12.3245969"><ele>550.0</ele><time>2026-04-12T09:36:15.691Z</time></trkpt><trkpt lat="43.6597596" lon="12.3246837"><ele>550.0</ele><time>2026-04-12T09:36:16.688Z</time></trkpt><trkpt lat="43.6598227" lon="12.3247415"><ele>550.0</ele><time>2026-04-12T09:36:17.691Z</time></trkpt><trkpt lat="43.6599007" lon="12.32477"><ele>550.0</ele><time>2026-04-12T09:36:18.697Z</time></trkpt><trkpt lat="43.6599833" lon="12.3247769"><ele>550.0</ele><time>2026-04-12T09:36:19.692Z</time></trkpt><trkpt lat="43.6600635" lon="12.3247708"><ele>550.0</ele><time>2026-04-12T09:36:20.708Z</time></trkpt><trkpt lat="43.6601415" lon="12.3247441"><ele>550.0</ele><time>2026-04-12T09:36:21.682Z</time></trkpt><trkpt lat="43.6602233" lon="12.3246829"><ele>548.5</ele><time>2026-04-12T09:36:22.697Z</time></trkpt><trkpt lat="43.6603079" lon="12.3245871"><ele>547.0</ele><time>2026-04-12T09:36:23.672Z</time></trkpt><trkpt lat="43.6603918" lon="12.3244576"><ele>545.5</ele><time>2026-04-12T09:36:24.695Z</time></trkpt><trkpt lat="43.6604863" lon="12.3243115"><ele>544.0</ele><time>2026-04-12T09:36:25.694Z</time></trkpt><trkpt lat="43.6605984" lon="12.3241561"><ele>557.5</ele><time>2026-04-12T09:36:26.695Z</time></trkpt><trkpt lat="43.6608054" lon="12.3238024"><ele>571.0</ele><time>2026-04-12T09:36:28.673Z</time></trkpt><trkpt lat="43.6609084" lon="12.3236303"><ele>571.0</ele><time>2026-04-12T09:36:29.691Z</time></trkpt><trkpt lat="43.6610296" lon="12.3234895"><ele>571.0</ele><time>2026-04-12T09:36:30.714Z</time></trkpt><trkpt lat="43.661167" lon="12.3233734"><ele>571.0</ele><time>2026-04-12T09:36:31.686Z</time></trkpt><trkpt lat="43.6613021" lon="12.323286"><ele>572.3333333333334</ele><time>2026-04-12T09:36:32.719Z</time></trkpt><trkpt lat="43.6614097" lon="12.3232398"><ele>573.6666666666667</ele><time>2026-04-12T09:36:33.692Z</time></trkpt><trkpt lat="43.6615011" lon="12.3232232"><ele>575.0</ele><time>2026-04-12T09:36:34.69Z</time></trkpt><trkpt lat="43.6615901" lon="12.3232374"><ele>576.3333333333334</ele><time>2026-04-12T09:36:35.672Z</time></trkpt><trkpt lat="43.6616471" lon="12.323293"><ele>577.6666666666666</ele><time>2026-04-12T09:36:36.685Z</time></trkpt><trkpt lat="43.6616829" lon="12.323383"><ele>579.0</ele><time>2026-04-12T09:36:37.696Z</time></trkpt><trkpt lat="43.661708" lon="12.3235024"><ele>579.0</ele><time>2026-04-12T09:36:38.688Z</time></trkpt><trkpt lat="43.6617283" lon="12.3236525"><ele>579.0</ele><time>2026-04-12T09:36:39.675Z</time></trkpt><trkpt lat="43.6617488" lon="12.3238205"><ele>579.0</ele><time>2026-04-12T09:36:40.723Z</time></trkpt><trkpt lat="43.6617854" lon="12.323966"><ele>579.0</ele><time>2026-04-12T09:36:41.675Z</time></trkpt><trkpt lat="43.6618322" lon="12.3240791"><ele>579.0</ele><time>2026-04-12T09:36:42.705Z</time></trkpt><trkpt lat="43.6618916" lon="12.324163"><ele>578.8</ele><time>2026-04-12T09:36:43.682Z</time></trkpt><trkpt lat="43.6619608" lon="12.3242016"><ele>578.5999999999999</ele><time>2026-04-12T09:36:44.711Z</time></trkpt><trkpt lat="43.6620416" lon="12.3242009"><ele>578.4</ele><time>2026-04-12T09:36:45.672Z</time></trkpt><trkpt lat="43.6621374" lon="12.3241449"><ele>578.1999999999999</ele><time>2026-04-12T09:36:46.699Z</time></trkpt><trkpt lat="43.6622352" lon="12.3240639"><ele>578.0</ele><time>2026-04-12T09:36:47.68Z</time></trkpt><trkpt lat="43.6624466" lon="12.3239186"><ele>578.0</ele><time>2026-04-12T09:36:49.682Z</time></trkpt><trkpt lat="43.6625444" lon="12.3239059"><ele>578.0</ele><time>2026-04-12T09:36:50.693Z</time></trkpt><trkpt lat="43.6626276" lon="12.3239352"><ele>578.0</ele><time>2026-04-12T09:36:51.689Z</time></trkpt><trkpt lat="43.6627098" lon="12.3240134"><ele>578.0</ele><time>2026-04-12T09:36:52.693Z</time></trkpt><trkpt lat="43.6627974" lon="12.3240759"><ele>578.0</ele><time>2026-04-12T09:36:53.71Z</time></trkpt><trkpt lat="43.6628913" lon="12.3240991"><ele>581.75</ele><time>2026-04-12T09:36:54.7Z</time></trkpt><trkpt lat="43.6629987" lon="12.3240949"><ele>585.5</ele><time>2026-04-12T09:36:55.703Z</time></trkpt><trkpt lat="43.6631026" lon="12.3240717"><ele>589.25</ele><time>2026-04-12T09:36:56.684Z</time></trkpt><trkpt lat="43.6632208" lon="12.3240756"><ele>593.0</ele><time>2026-04-12T09:36:57.693Z</time></trkpt><trkpt lat="43.6633597" lon="12.324121"><ele>593.0</ele><time>2026-04-12T09:36:58.701Z</time></trkpt><trkpt lat="43.6634936" lon="12.3241929"><ele>593.0</ele><time>2026-04-12T09:36:59.681Z</time></trkpt><trkpt lat="43.6636384" lon="12.3242617"><ele>593.0</ele><time>2026-04-12T09:37:00.714Z</time></trkpt><trkpt lat="43.6637883" lon="12.3243091"><ele>595.75</ele><time>2026-04-12T09:37:01.683Z</time></trkpt><trkpt lat="43.6639412" lon="12.32434"><ele>598.5</ele><time>2026-04-12T09:37:02.687Z</time></trkpt><trkpt lat="43.6640674" lon="12.3243748"><ele>601.25</ele><time>2026-04-12T09:37:03.682Z</time></trkpt><trkpt lat="43.664138" lon="12.3244448"><ele>604.0</ele><time>2026-04-12T09:37:04.699Z</time></trkpt><trkpt lat="43.6641973" lon="12.3245328"><ele>604.0</ele><time>2026-04-12T09:37:05.678Z</time></trkpt><trkpt lat="43.6642684" lon="12.3246451"><ele>604.0</ele><time>2026-04-12T09:37:06.722Z</time></trkpt><trkpt lat="43.6643514" lon="12.3247151"><ele>604.0</ele><time>2026-04-12T09:37:07.666Z</time></trkpt><trkpt lat="43.6644555" lon="12.3247531"><ele>604.0</ele><time>2026-04-12T09:37:08.693Z</time></trkpt><trkpt lat="43.6646999" lon="12.3248111"><ele>605.25</ele><time>2026-04-12T09:37:10.69Z</time></trkpt><trkpt lat="43.6648271" lon="12.3248211"><ele>606.5</ele><time>2026-04-12T09:37:11.707Z</time></trkpt><trkpt lat="43.6649617" lon="12.3247964"><ele>607.75</ele><time>2026-04-12T09:37:12.706Z</time></trkpt><trkpt lat="43.6650783" lon="12.3247765"><ele>609.0</ele><time>2026-04-12T09:37:13.682Z</time></trkpt><trkpt lat="43.6651675" lon="12.3247879"><ele>609.0</ele><time>2026-04-12T09:37:14.686Z</time></trkpt><trkpt lat="43.6652261" lon="12.324844"><ele>609.0</ele><time>2026-04-12T09:37:15.679Z</time></trkpt><trkpt lat="43.6652975" lon="12.324961"><ele>609.0</ele><time>2026-04-12T09:37:16.697Z</time></trkpt><trkpt lat="43.6653826" lon="12.3251081"><ele>609.0</ele><time>2026-04-12T09:37:17.692Z</time></trkpt><trkpt lat="43.665444" lon="12.3252602"><ele>609.0</ele><time>2026-04-12T09:37:18.677Z</time></trkpt><trkpt lat="43.6654618" lon="12.3254051"><ele>608.4</ele><time>2026-04-12T09:37:19.7Z</time></trkpt><trkpt lat="43.6654486" lon="12.3255465"><ele>607.8</ele><time>2026-04-12T09:37:20.7Z</time></trkpt><trkpt lat="43.6654344" lon="12.3256839"><ele>607.2</ele><time>2026-04-12T09:37:21.688Z</time></trkpt><trkpt lat="43.6654812" lon="12.325813"><ele>606.6</ele><time>2026-04-12T09:37:23.685Z</time></trkpt><trkpt lat="43.6655965" lon="12.3258195"><ele>606.0</ele><time>2026-04-12T09:37:25.695Z</time></trkpt><trkpt lat="43.6656642" lon="12.3257763"><ele>606.0</ele><time>2026-04-12T09:37:26.725Z</time></trkpt><trkpt lat="43.6657352" lon="12.3257123"><ele>606.0</ele><time>2026-04-12T09:37:27.716Z</time></trkpt><trkpt lat="43.6657884" lon="12.325653"><ele>606.0</ele><time>2026-04-12T09:37:28.79Z</time></trkpt><trkpt lat="43.6658084" lon="12.3255016"><ele>606.0</ele><time>2026-04-12T09:37:30.709Z</time></trkpt><trkpt lat="43.6657568" lon="12.3252871"><ele>606.0</ele><time>2026-04-12T09:37:32.723Z</time></trkpt><trkpt lat="43.6657319" lon="12.3251327"><ele>608.25</ele><time>2026-04-12T09:37:33.687Z</time></trkpt><trkpt lat="43.6656898" lon="12.3249664"><ele>610.5</ele><time>2026-04-12T09:37:34.714Z</time></trkpt><trkpt lat="43.6656448" lon="12.3248023"><ele>612.75</ele><time>2026-04-12T09:37:35.693Z</time></trkpt><trkpt lat="43.6656004" lon="12.3246444"><ele>615.0</ele><time>2026-04-12T09:37:36.721Z</time></trkpt><trkpt lat="43.6655727" lon="12.3244966"><ele>615.0</ele><time>2026-04-12T09:37:37.712Z</time></trkpt><trkpt lat="43.6655809" lon="12.3243908"><ele>615.0</ele><time>2026-04-12T09:37:38.719Z</time></trkpt><trkpt lat="43.6656661" lon="12.3242566"><ele>615.0</ele><time>2026-04-12T09:37:40.799Z</time></trkpt><trkpt lat="43.6657528" lon="12.3242426"><ele>615.0</ele><time>2026-04-12T09:37:41.711Z</time></trkpt><trkpt lat="43.6658523" lon="12.3242907"><ele>615.0</ele><time>2026-04-12T09:37:42.719Z</time></trkpt><trkpt lat="43.6659551" lon="12.3243566"><ele>615.0</ele><time>2026-04-12T09:37:43.723Z</time></trkpt><trkpt lat="43.6660639" lon="12.3244286"><ele>615.0</ele><time>2026-04-12T09:37:44.708Z</time></trkpt><trkpt lat="43.6661819" lon="12.3245058"><ele>615.0</ele><time>2026-04-12T09:37:45.705Z</time></trkpt><trkpt lat="43.6663152" lon="12.3245775"><ele>615.0</ele><time>2026-04-12T09:37:46.689Z</time></trkpt><trkpt lat="43.6664495" lon="12.3246255"><ele>619.0</ele><time>2026-04-12T09:37:47.698Z</time></trkpt><trkpt lat="43.6665551" lon="12.3246508"><ele>623.0</ele><time>2026-04-12T09:37:48.717Z</time></trkpt><trkpt lat="43.6666532" lon="12.3246325"><ele>627.0</ele><time>2026-04-12T09:37:49.695Z</time></trkpt><trkpt lat="43.6667636" lon="12.3245949"><ele>631.0</ele><time>2026-04-12T09:37:50.701Z</time></trkpt><trkpt lat="43.6668862" lon="12.3245193"><ele>637.6666666666667</ele><time>2026-04-12T09:37:51.691Z</time></trkpt><trkpt lat="43.6671603" lon="12.3243845"><ele>644.3333333333334</ele><time>2026-04-12T09:37:53.706Z</time></trkpt><trkpt lat="43.6673066" lon="12.3243392"><ele>651.0</ele><time>2026-04-12T09:37:54.708Z</time></trkpt><trkpt lat="43.667453" lon="12.3243027"><ele>651.0</ele><time>2026-04-12T09:37:55.703Z</time></trkpt><trkpt lat="43.6675823" lon="12.3242876"><ele>651.0</ele><time>2026-04-12T09:37:56.711Z</time></trkpt><trkpt lat="43.6676802" lon="12.3242768"><ele>651.0</ele><time>2026-04-12T09:37:57.705Z</time></trkpt><trkpt lat="43.6677661" lon="12.3242606"><ele>651.0</ele><time>2026-04-12T09:37:58.71Z</time></trkpt><trkpt lat="43.6678393" lon="12.3242229"><ele>651.0</ele><time>2026-04-12T09:37:59.706Z</time></trkpt><trkpt lat="43.6678923" lon="12.324167"><ele>653.5</ele><time>2026-04-12T09:38:00.708Z</time></trkpt><trkpt lat="43.6679192" lon="12.3240831"><ele>656.0</ele><time>2026-04-12T09:38:01.683Z</time></trkpt><trkpt lat="43.667912" lon="12.3239856"><ele>658.5</ele><time>2026-04-12T09:38:02.725Z</time></trkpt><trkpt lat="43.6678683" lon="12.323907"><ele>661.0</ele><time>2026-04-12T09:38:03.711Z</time></trkpt><trkpt lat="43.6678047" lon="12.3238256"><ele>663.5</ele><time>2026-04-12T09:38:04.716Z</time></trkpt><trkpt lat="43.6677208" lon="12.3237134"><ele>666.0</ele><time>2026-04-12T09:38:05.714Z</time></trkpt><trkpt lat="43.6676098" lon="12.3235718"><ele>666.0</ele><time>2026-04-12T09:38:06.716Z</time></trkpt><trkpt lat="43.667477" lon="12.3234283"><ele>666.0</ele><time>2026-04-12T09:38:07.696Z</time></trkpt><trkpt lat="43.6673146" lon="12.3233133"><ele>666.0</ele><time>2026-04-12T09:38:08.704Z</time></trkpt><trkpt lat="43.667153" lon="12.3232321"><ele>666.0</ele><time>2026-04-12T09:38:09.707Z</time></trkpt><trkpt lat="43.6670028" lon="12.323159"><ele>666.0</ele><time>2026-04-12T09:38:10.708Z</time></trkpt><trkpt lat="43.6668883" lon="12.3231034"><ele>666.0</ele><time>2026-04-12T09:38:11.681Z</time></trkpt><trkpt lat="43.6668234" lon="12.32306"><ele>666.0</ele><time>2026-04-12T09:38:12.714Z</time></trkpt><trkpt lat="43.666742" lon="12.3227912"><ele>666.8333333333334</ele><time>2026-04-12T09:38:15.727Z</time></trkpt><trkpt lat="43.6667535" lon="12.3226947"><ele>667.6666666666666</ele><time>2026-04-12T09:38:16.709Z</time></trkpt><trkpt lat="43.6667783" lon="12.3225847"><ele>668.5</ele><time>2026-04-12T09:38:17.712Z</time></trkpt><trkpt lat="43.6668151" lon="12.3224833"><ele>669.3333333333333</ele><time>2026-04-12T09:38:18.763Z</time></trkpt><trkpt lat="43.6668748" lon="12.3224343"><ele>670.1666666666666</ele><time>2026-04-12T09:38:19.717Z</time></trkpt><trkpt lat="43.6669523" lon="12.3223782"><ele>671.0</ele><time>2026-04-12T09:38:20.719Z</time></trkpt><trkpt lat="43.6670504" lon="12.3223358"><ele>671.0</ele><time>2026-04-12T09:38:21.691Z</time></trkpt><trkpt lat="43.6671668" lon="12.3223225"><ele>671.0</ele><time>2026-04-12T09:38:22.696Z</time></trkpt><trkpt lat="43.6672892" lon="12.3223144"><ele>671.0</ele><time>2026-04-12T09:38:23.694Z</time></trkpt><trkpt lat="43.6674077" lon="12.322297"><ele>671.0</ele><time>2026-04-12T09:38:24.698Z</time></trkpt><trkpt lat="43.667503" lon="12.3222472"><ele>670.1999999999999</ele><time>2026-04-12T09:38:25.693Z</time></trkpt><trkpt lat="43.6675862" lon="12.3221567"><ele>669.4</ele><time>2026-04-12T09:38:26.73Z</time></trkpt><trkpt lat="43.6676649" lon="12.3220323"><ele>668.6</ele><time>2026-04-12T09:38:27.68Z</time></trkpt><trkpt lat="43.6677409" lon="12.3219187"><ele>667.8</ele><time>2026-04-12T09:38:28.693Z</time></trkpt><trkpt lat="43.6678241" lon="12.3218577"><ele>667.0</ele><time>2026-04-12T09:38:29.759Z</time></trkpt><trkpt lat="43.6679378" lon="12.3218163"><ele>667.0</ele><time>2026-04-12T09:38:30.697Z</time></trkpt><trkpt lat="43.6680707" lon="12.3217705"><ele>667.0</ele><time>2026-04-12T09:38:31.707Z</time></trkpt><trkpt lat="43.6681961" lon="12.32172"><ele>667.0</ele><time>2026-04-12T09:38:32.693Z</time></trkpt><trkpt lat="43.6683023" lon="12.3216516"><ele>667.0</ele><time>2026-04-12T09:38:33.679Z</time></trkpt><trkpt lat="43.6685343" lon="12.3215202"><ele>670.0</ele><time>2026-04-12T09:38:35.706Z</time></trkpt><trkpt lat="43.6686515" lon="12.3214853"><ele>673.0</ele><time>2026-04-12T09:38:36.692Z</time></trkpt><trkpt lat="43.6687597" lon="12.3214642"><ele>676.0</ele><time>2026-04-12T09:38:37.701Z</time></trkpt><trkpt lat="43.6688695" lon="12.321462"><ele>679.0</ele><time>2026-04-12T09:38:38.696Z</time></trkpt><trkpt lat="43.6689783" lon="12.3215065"><ele>679.0</ele><time>2026-04-12T09:38:39.685Z</time></trkpt><trkpt lat="43.669103" lon="12.3216037"><ele>679.0</ele><time>2026-04-12T09:38:40.787Z</time></trkpt><trkpt lat="43.669231" lon="12.3217075"><ele>679.0</ele><time>2026-04-12T09:38:41.703Z</time></trkpt><trkpt lat="43.669308" lon="12.3217754"><ele>679.0</ele><time>2026-04-12T09:38:42.687Z</time></trkpt><trkpt lat="43.6693764" lon="12.3218026"><ele>681.5</ele><time>2026-04-12T09:38:44.696Z</time></trkpt><trkpt lat="43.6694432" lon="12.3218349"><ele>684.0</ele><time>2026-04-12T09:38:46.7Z</time></trkpt><trkpt lat="43.6695369" lon="12.3218285"><ele>686.5</ele><time>2026-04-12T09:38:48.679Z</time></trkpt><trkpt lat="43.6696171" lon="12.321797"><ele>689.0</ele><time>2026-04-12T09:38:50.679Z</time></trkpt><trkpt lat="43.6696924" lon="12.3217729"><ele>691.5</ele><time>2026-04-12T09:38:52.744Z</time></trkpt><trkpt lat="43.6697659" lon="12.3217246"><ele>694.0</ele><time>2026-04-12T09:38:54.684Z</time></trkpt><trkpt lat="43.6698919" lon="12.321636"><ele>694.0</ele><time>2026-04-12T09:39:16.695Z</time></trkpt><trkpt lat="43.670006" lon="12.321518"><ele>694.0</ele><time>2026-04-12T09:39:20.722Z</time></trkpt><trkpt lat="43.6700845" lon="12.321427"><ele>694.0</ele><time>2026-04-12T09:39:22.719Z</time></trkpt><trkpt lat="43.6701331" lon="12.3213699"><ele>694.0</ele><time>2026-04-12T09:39:23.747Z</time></trkpt><trkpt lat="43.6701873" lon="12.3213036"><ele>694.0</ele><time>2026-04-12T09:39:24.693Z</time></trkpt><trkpt lat="43.6702456" lon="12.3212266"><ele>695.0</ele><time>2026-04-12T09:39:25.709Z</time></trkpt><trkpt lat="43.6703118" lon="12.321147"><ele>696.0</ele><time>2026-04-12T09:39:26.685Z</time></trkpt><trkpt lat="43.6703868" lon="12.321073"><ele>697.0</ele><time>2026-04-12T09:39:27.705Z</time></trkpt><trkpt lat="43.670473" lon="12.3210142"><ele>698.0</ele><time>2026-04-12T09:39:28.701Z</time></trkpt><trkpt lat="43.670563" lon="12.3209572"><ele>699.0</ele><time>2026-04-12T09:39:29.699Z</time></trkpt><trkpt lat="43.6706648" lon="12.3209037"><ele>699.0</ele><time>2026-04-12T09:39:30.714Z</time></trkpt><trkpt lat="43.6707727" lon="12.3208599"><ele>699.0</ele><time>2026-04-12T09:39:31.712Z</time></trkpt><trkpt lat="43.6708944" lon="12.320786"><ele>699.0</ele><time>2026-04-12T09:39:32.691Z</time></trkpt><trkpt lat="43.6710279" lon="12.3206785"><ele>699.0</ele><time>2026-04-12T09:39:33.71Z</time></trkpt><trkpt lat="43.6711598" lon="12.3205616"><ele>702.25</ele><time>2026-04-12T09:39:34.686Z</time></trkpt><trkpt lat="43.671268" lon="12.3204667"><ele>705.5</ele><time>2026-04-12T09:39:35.705Z</time></trkpt><trkpt lat="43.6713478" lon="12.3203806"><ele>708.75</ele><time>2026-04-12T09:39:36.689Z</time></trkpt><trkpt lat="43.6714123" lon="12.320277"><ele>712.0</ele><time>2026-04-12T09:39:37.709Z</time></trkpt><trkpt lat="43.6714976" lon="12.3200475"><ele>712.0</ele><time>2026-04-12T09:39:39.7Z</time></trkpt><trkpt lat="43.6715312" lon="12.3199524"><ele>712.0</ele><time>2026-04-12T09:39:40.697Z</time></trkpt><trkpt lat="43.6715602" lon="12.3198746"><ele>712.0</ele><time>2026-04-12T09:39:41.69Z</time></trkpt><trkpt lat="43.6716614" lon="12.3198247"><ele>712.0</ele><time>2026-04-12T09:39:43.689Z</time></trkpt><trkpt lat="43.6717105" lon="12.3198873"><ele>712.0</ele><time>2026-04-12T09:39:44.697Z</time></trkpt><trkpt lat="43.6717298" lon="12.3199767"><ele>712.0</ele><time>2026-04-12T09:39:45.684Z</time></trkpt><trkpt lat="43.6717414" lon="12.3200997"><ele>712.0</ele><time>2026-04-12T09:39:46.738Z</time></trkpt><trkpt lat="43.6717284" lon="12.3202531"><ele>712.0</ele><time>2026-04-12T09:39:47.693Z</time></trkpt><trkpt lat="43.6717136" lon="12.3204338"><ele>712.0</ele><time>2026-04-12T09:39:48.672Z</time></trkpt><trkpt lat="43.6716967" lon="12.3206227"><ele>712.0</ele><time>2026-04-12T09:39:49.695Z</time></trkpt><trkpt lat="43.6716482" lon="12.3207947"><ele>717.0</ele><time>2026-04-12T09:39:50.693Z</time></trkpt><trkpt lat="43.6715753" lon="12.3209666"><ele>722.0</ele><time>2026-04-12T09:39:51.689Z</time></trkpt><trkpt lat="43.6714818" lon="12.3211372"><ele>727.0</ele><time>2026-04-12T09:39:52.68Z</time></trkpt><trkpt lat="43.671373" lon="12.3213222"><ele>726.25</ele><time>2026-04-12T09:39:53.714Z</time></trkpt><trkpt lat="43.6712754" lon="12.3215129"><ele>725.5</ele><time>2026-04-12T09:39:54.716Z</time></trkpt><trkpt lat="43.6711855" lon="12.3216764"><ele>724.75</ele><time>2026-04-12T09:39:55.749Z</time></trkpt><trkpt lat="43.6710973" lon="12.3217916"><ele>724.0</ele><time>2026-04-12T09:39:56.705Z</time></trkpt><trkpt lat="43.6709887" lon="12.3218786"><ele>724.0</ele><time>2026-04-12T09:39:57.721Z</time></trkpt><trkpt lat="43.6708605" lon="12.321948"><ele>724.0</ele><time>2026-04-12T09:39:58.704Z</time></trkpt><trkpt lat="43.6706143" lon="12.3221183"><ele>724.0</ele><time>2026-04-12T09:40:00.693Z</time></trkpt><trkpt lat="43.6705137" lon="12.3222506"><ele>722.75</ele><time>2026-04-12T09:40:01.694Z</time></trkpt><trkpt lat="43.6704056" lon="12.3223913"><ele>721.5</ele><time>2026-04-12T09:40:02.713Z</time></trkpt><trkpt lat="43.6702979" lon="12.3225232"><ele>720.25</ele><time>2026-04-12T09:40:03.708Z</time></trkpt><trkpt lat="43.6702107" lon="12.3226429"><ele>719.0</ele><time>2026-04-12T09:40:04.714Z</time></trkpt><trkpt lat="43.6701259" lon="12.3227787"><ele>719.0</ele><time>2026-04-12T09:40:05.697Z</time></trkpt><trkpt lat="43.6700538" lon="12.3229199"><ele>719.0</ele><time>2026-04-12T09:40:06.688Z</time></trkpt><trkpt lat="43.6700019" lon="12.323047"><ele>719.0</ele><time>2026-04-12T09:40:07.702Z</time></trkpt><trkpt lat="43.6699598" lon="12.3231647"><ele>719.0</ele><time>2026-04-12T09:40:08.696Z</time></trkpt><trkpt lat="43.6699394" lon="12.3232825"><ele>719.0</ele><time>2026-04-12T09:40:09.719Z</time></trkpt><trkpt lat="43.6699457" lon="12.323408"><ele>722.0</ele><time>2026-04-12T09:40:10.703Z</time></trkpt><trkpt lat="43.66997" lon="12.3235215"><ele>725.0</ele><time>2026-04-12T09:40:11.703Z</time></trkpt><trkpt lat="43.6700239" lon="12.3236314"><ele>728.0</ele><time>2026-04-12T09:40:12.705Z</time></trkpt><trkpt lat="43.6700925" lon="12.3237396"><ele>731.0</ele><time>2026-04-12T09:40:13.69Z</time></trkpt><trkpt lat="43.6701819" lon="12.323853"><ele>734.0</ele><time>2026-04-12T09:40:14.702Z</time></trkpt><trkpt lat="43.6702676" lon="12.3239733"><ele>735.25</ele><time>2026-04-12T09:40:15.685Z</time></trkpt><trkpt lat="43.6703527" lon="12.3241123"><ele>736.5</ele><time>2026-04-12T09:40:16.732Z</time></trkpt><trkpt lat="43.6704449" lon="12.3242763"><ele>737.75</ele><time>2026-04-12T09:40:17.704Z</time></trkpt><trkpt lat="43.6705366" lon="12.3244495"><ele>739.0</ele><time>2026-04-12T09:40:18.705Z</time></trkpt><trkpt lat="43.6706232" lon="12.3246146"><ele>735.3333333333334</ele><time>2026-04-12T09:40:19.692Z</time></trkpt><trkpt lat="43.6707822" lon="12.3249002"><ele>731.6666666666666</ele><time>2026-04-12T09:40:21.709Z</time></trkpt><trkpt lat="43.6708835" lon="12.3250177"><ele>728.0</ele><time>2026-04-12T09:40:22.704Z</time></trkpt><trkpt lat="43.6709937" lon="12.3251197"><ele>728.0</ele><time>2026-04-12T09:40:23.706Z</time></trkpt><trkpt lat="43.6711044" lon="12.3252097"><ele>728.0</ele><time>2026-04-12T09:40:24.689Z</time></trkpt><trkpt lat="43.6712209" lon="12.3252901"><ele>728.0</ele><time>2026-04-12T09:40:25.682Z</time></trkpt><trkpt lat="43.6713624" lon="12.3253508"><ele>728.0</ele><time>2026-04-12T09:40:26.684Z</time></trkpt><trkpt lat="43.6715217" lon="12.3254144"><ele>728.0</ele><time>2026-04-12T09:40:27.692Z</time></trkpt><trkpt lat="43.6716717" lon="12.3254672"><ele>728.0</ele><time>2026-04-12T09:40:28.729Z</time></trkpt><trkpt lat="43.671791" lon="12.3255408"><ele>728.0</ele><time>2026-04-12T09:40:29.696Z</time></trkpt><trkpt lat="43.6719064" lon="12.3256102"><ele>728.0</ele><time>2026-04-12T09:40:30.709Z</time></trkpt><trkpt lat="43.6720214" lon="12.3257137"><ele>729.25</ele><time>2026-04-12T09:40:31.692Z</time></trkpt><trkpt lat="43.6721323" lon="12.3258418"><ele>730.5</ele><time>2026-04-12T09:40:32.702Z</time></trkpt><trkpt lat="43.6722347" lon="12.3259863"><ele>731.75</ele><time>2026-04-12T09:40:33.721Z</time></trkpt><trkpt lat="43.6723276" lon="12.326142"><ele>733.0</ele><time>2026-04-12T09:40:34.691Z</time></trkpt><trkpt lat="43.67243" lon="12.3263163"><ele>736.0</ele><time>2026-04-12T09:40:35.724Z</time></trkpt><trkpt lat="43.6725463" lon="12.3264726"><ele>739.0</ele><time>2026-04-12T09:40:36.738Z</time></trkpt><trkpt lat="43.6726708" lon="12.3266056"><ele>742.0</ele><time>2026-04-12T09:40:37.693Z</time></trkpt><trkpt lat="43.6727924" lon="12.326703"><ele>744.0</ele><time>2026-04-12T09:40:38.71Z</time></trkpt><trkpt lat="43.6729164" lon="12.326768"><ele>746.0</ele><time>2026-04-12T09:40:39.699Z</time></trkpt><trkpt lat="43.6730405" lon="12.3268182"><ele>748.0</ele><time>2026-04-12T09:40:40.724Z</time></trkpt><trkpt lat="43.6732433" lon="12.3269317"><ele>748.0</ele><time>2026-04-12T09:40:42.698Z</time></trkpt><trkpt lat="43.6733112" lon="12.3269432"><ele>748.0</ele><time>2026-04-12T09:40:43.68Z</time></trkpt><trkpt lat="43.6733812" lon="12.326982"><ele>748.0</ele><time>2026-04-12T09:40:45.701Z</time></trkpt><trkpt lat="43.6733212" lon="12.3270954"><ele>748.0</ele><time>2026-04-12T09:40:47.708Z</time></trkpt><trkpt lat="43.6732224" lon="12.3271922"><ele>748.0</ele><time>2026-04-12T09:40:49.697Z</time></trkpt><trkpt lat="43.6731676" lon="12.327249"><ele>748.0</ele><time>2026-04-12T09:40:50.69Z</time></trkpt><trkpt lat="43.6730733" lon="12.3273355"><ele>749.2</ele><time>2026-04-12T09:40:52.779Z</time></trkpt><trkpt lat="43.6729804" lon="12.3274148"><ele>750.4</ele><time>2026-04-12T09:40:54.698Z</time></trkpt><trkpt lat="43.6728968" lon="12.3275025"><ele>751.6</ele><time>2026-04-12T09:40:56.701Z</time></trkpt><trkpt lat="43.6728151" lon="12.3276133"><ele>752.8000000000001</ele><time>2026-04-12T09:40:58.676Z</time></trkpt><trkpt lat="43.6727278" lon="12.327715"><ele>754.0</ele><time>2026-04-12T09:41:00.693Z</time></trkpt><trkpt lat="43.6726393" lon="12.3278247"><ele>756.6</ele><time>2026-04-12T09:41:02.685Z</time></trkpt><trkpt lat="43.6724772" lon="12.3280695"><ele>759.2</ele><time>2026-04-12T09:41:06.733Z</time></trkpt><trkpt lat="43.672422" lon="12.3281127"><ele>761.8000000000001</ele><time>2026-04-12T09:41:07.685Z</time></trkpt><trkpt lat="43.6723605" lon="12.328142"><ele>764.4000000000001</ele><time>2026-04-12T09:41:08.688Z</time></trkpt><trkpt lat="43.6722946" lon="12.3281527"><ele>767.0</ele><time>2026-04-12T09:41:09.693Z</time></trkpt><trkpt lat="43.6722278" lon="12.3281665"><ele>767.0</ele><time>2026-04-12T09:41:10.698Z</time></trkpt><trkpt lat="43.672163" lon="12.3281733"><ele>767.0</ele><time>2026-04-12T09:41:11.703Z</time></trkpt><trkpt lat="43.6720917" lon="12.3281942"><ele>767.0</ele><time>2026-04-12T09:41:12.692Z</time></trkpt><trkpt lat="43.6720219" lon="12.328233"><ele>767.0</ele><time>2026-04-12T09:41:13.715Z</time></trkpt><trkpt lat="43.6719588" lon="12.3282861"><ele>767.0</ele><time>2026-04-12T09:41:14.701Z</time></trkpt><trkpt lat="43.6719149" lon="12.328353"><ele>767.0</ele><time>2026-04-12T09:41:15.731Z</time></trkpt><trkpt lat="43.6719055" lon="12.328453"><ele>767.0</ele><time>2026-04-12T09:41:16.7Z</time></trkpt><trkpt lat="43.6719251" lon="12.3285684"><ele>767.0</ele><time>2026-04-12T09:41:17.72Z</time></trkpt><trkpt lat="43.6719669" lon="12.3286923"><ele>767.0</ele><time>2026-04-12T09:41:18.703Z</time></trkpt><trkpt lat="43.6720191" lon="12.3288307"><ele>767.0</ele><time>2026-04-12T09:41:19.676Z</time></trkpt><trkpt lat="43.6720739" lon="12.328981"><ele>767.0</ele><time>2026-04-12T09:41:20.704Z</time></trkpt><trkpt lat="43.6721058" lon="12.3291498"><ele>770.25</ele><time>2026-04-12T09:41:21.688Z</time></trkpt><trkpt lat="43.6721052" lon="12.3293101"><ele>773.5</ele><time>2026-04-12T09:41:22.712Z</time></trkpt><trkpt lat="43.6720943" lon="12.3294579"><ele>776.75</ele><time>2026-04-12T09:41:23.691Z</time></trkpt><trkpt lat="43.6720476" lon="12.3297057"><ele>780.0</ele><time>2026-04-12T09:41:25.684Z</time></trkpt><trkpt lat="43.672042" lon="12.3298203"><ele>781.4</ele><time>2026-04-12T09:41:26.694Z</time></trkpt><trkpt lat="43.6720503" lon="12.3299391"><ele>782.8</ele><time>2026-04-12T09:41:27.696Z</time></trkpt><trkpt lat="43.6720884" lon="12.3300565"><ele>784.2</ele><time>2026-04-12T09:41:28.699Z</time></trkpt><trkpt lat="43.6721434" lon="12.3301815"><ele>785.6</ele><time>2026-04-12T09:41:29.703Z</time></trkpt><trkpt lat="43.6722003" lon="12.3303311"><ele>787.0</ele><time>2026-04-12T09:41:30.743Z</time></trkpt><trkpt lat="43.6722624" lon="12.3304775"><ele>785.5</ele><time>2026-04-12T09:41:31.691Z</time></trkpt><trkpt lat="43.6723175" lon="12.3306148"><ele>784.0</ele><time>2026-04-12T09:41:32.717Z</time></trkpt><trkpt lat="43.6723461" lon="12.3307576"><ele>782.5</ele><time>2026-04-12T09:41:33.674Z</time></trkpt><trkpt lat="43.6723477" lon="12.3309115"><ele>781.0</ele><time>2026-04-12T09:41:34.698Z</time></trkpt><trkpt lat="43.6723295" lon="12.3310823"><ele>781.0</ele><time>2026-04-12T09:41:35.704Z</time></trkpt><trkpt lat="43.6723227" lon="12.3312772"><ele>781.0</ele><time>2026-04-12T09:41:36.702Z</time></trkpt><trkpt lat="43.6723261" lon="12.3314444"><ele>781.0</ele><time>2026-04-12T09:41:37.693Z</time></trkpt><trkpt lat="43.672329" lon="12.3315713"><ele>781.0</ele><time>2026-04-12T09:41:38.693Z</time></trkpt><trkpt lat="43.6723368" lon="12.3316927"><ele>781.0</ele><time>2026-04-12T09:41:39.699Z</time></trkpt><trkpt lat="43.6723884" lon="12.3317947"><ele>777.75</ele><time>2026-04-12T09:41:40.727Z</time></trkpt><trkpt lat="43.6724443" lon="12.3319385"><ele>774.5</ele><time>2026-04-12T09:41:41.702Z</time></trkpt><trkpt lat="43.6725121" lon="12.3321342"><ele>771.25</ele><time>2026-04-12T09:41:42.681Z</time></trkpt><trkpt lat="43.6725688" lon="12.3323441"><ele>768.0</ele><time>2026-04-12T09:41:43.689Z</time></trkpt><trkpt lat="43.6726077" lon="12.3325293"><ele>763.5</ele><time>2026-04-12T09:41:44.718Z</time></trkpt><trkpt lat="43.6726314" lon="12.3328292"><ele>759.0</ele><time>2026-04-12T09:41:46.705Z</time></trkpt><trkpt lat="43.6726139" lon="12.3329638"><ele>754.5</ele><time>2026-04-12T09:41:47.689Z</time></trkpt><trkpt lat="43.672578" lon="12.3330721"><ele>750.0</ele><time>2026-04-12T09:41:48.753Z</time></trkpt><trkpt lat="43.6725235" lon="12.3331628"><ele>748.5</ele><time>2026-04-12T09:41:49.701Z</time></trkpt><trkpt lat="43.672437" lon="12.333235"><ele>747.0</ele><time>2026-04-12T09:41:50.69Z</time></trkpt><trkpt lat="43.6723075" lon="12.3333126"><ele>745.5</ele><time>2026-04-12T09:41:51.76Z</time></trkpt><trkpt lat="43.6721499" lon="12.3334291"><ele>744.0</ele><time>2026-04-12T09:41:52.711Z</time></trkpt><trkpt lat="43.6719906" lon="12.3335075"><ele>737.5</ele><time>2026-04-12T09:41:53.731Z</time></trkpt><trkpt lat="43.6718554" lon="12.3336053"><ele>731.0</ele><time>2026-04-12T09:41:54.706Z</time></trkpt><trkpt lat="43.6717309" lon="12.3337138"><ele>724.5</ele><time>2026-04-12T09:41:55.712Z</time></trkpt><trkpt lat="43.6716169" lon="12.3338239"><ele>718.0</ele><time>2026-04-12T09:41:56.688Z</time></trkpt><trkpt lat="43.6715203" lon="12.3339112"><ele>718.0</ele><time>2026-04-12T09:41:57.7Z</time></trkpt><trkpt lat="43.6714163" lon="12.3339672"><ele>718.0</ele><time>2026-04-12T09:41:58.703Z</time></trkpt><trkpt lat="43.6713075" lon="12.3339949"><ele>718.0</ele><time>2026-04-12T09:41:59.703Z</time></trkpt><trkpt lat="43.671189" lon="12.3340058"><ele>718.0</ele><time>2026-04-12T09:42:00.683Z</time></trkpt><trkpt lat="43.6710722" lon="12.3340184"><ele>716.5</ele><time>2026-04-12T09:42:01.707Z</time></trkpt><trkpt lat="43.6709605" lon="12.334042"><ele>715.0</ele><time>2026-04-12T09:42:02.712Z</time></trkpt><trkpt lat="43.6708438" lon="12.3340647"><ele>713.5</ele><time>2026-04-12T09:42:03.7Z</time></trkpt><trkpt lat="43.6707322" lon="12.3340994"><ele>712.0</ele><time>2026-04-12T09:42:04.73Z</time></trkpt><trkpt lat="43.6706196" lon="12.3341475"><ele>712.0</ele><time>2026-04-12T09:42:05.687Z</time></trkpt><trkpt lat="43.6703684" lon="12.334295"><ele>712.0</ele><time>2026-04-12T09:42:07.742Z</time></trkpt><trkpt lat="43.6702364" lon="12.3343724"><ele>712.0</ele><time>2026-04-12T09:42:08.683Z</time></trkpt><trkpt lat="43.6701158" lon="12.3344399"><ele>709.25</ele><time>2026-04-12T09:42:09.715Z</time></trkpt><trkpt lat="43.6699923" lon="12.3344922"><ele>706.5</ele><time>2026-04-12T09:42:10.702Z</time></trkpt><trkpt lat="43.6698586" lon="12.3345423"><ele>703.75</ele><time>2026-04-12T09:42:11.702Z</time></trkpt><trkpt lat="43.6697197" lon="12.3345803"><ele>701.0</ele><time>2026-04-12T09:42:12.698Z</time></trkpt><trkpt lat="43.6695842" lon="12.3346059"><ele>701.0</ele><time>2026-04-12T09:42:13.685Z</time></trkpt><trkpt lat="43.6694565" lon="12.3346252"><ele>701.0</ele><time>2026-04-12T09:42:14.722Z</time></trkpt><trkpt lat="43.6693364" lon="12.3346505"><ele>701.0</ele><time>2026-04-12T09:42:15.699Z</time></trkpt><trkpt lat="43.6692195" lon="12.3346848"><ele>701.0</ele><time>2026-04-12T09:42:16.719Z</time></trkpt><trkpt lat="43.6691029" lon="12.3347349"><ele>699.75</ele><time>2026-04-12T09:42:17.695Z</time></trkpt><trkpt lat="43.6689853" lon="12.3348077"><ele>698.5</ele><time>2026-04-12T09:42:18.697Z</time></trkpt><trkpt lat="43.6688704" lon="12.3348966"><ele>697.25</ele><time>2026-04-12T09:42:19.693Z</time></trkpt><trkpt lat="43.66877" lon="12.3349843"><ele>696.0</ele><time>2026-04-12T09:42:20.698Z</time></trkpt><trkpt lat="43.6686814" lon="12.3350684"><ele>694.5</ele><time>2026-04-12T09:42:21.695Z</time></trkpt><trkpt lat="43.6686061" lon="12.3351478"><ele>693.0</ele><time>2026-04-12T09:42:22.722Z</time></trkpt><trkpt lat="43.6685436" lon="12.3352132"><ele>691.5</ele><time>2026-04-12T09:42:23.793Z</time></trkpt><trkpt lat="43.6684858" lon="12.3352667"><ele>690.0</ele><time>2026-04-12T09:42:24.7Z</time></trkpt><trkpt lat="43.6684276" lon="12.3353049"><ele>688.5</ele><time>2026-04-12T09:42:25.71Z</time></trkpt><trkpt lat="43.6683541" lon="12.3353345"><ele>687.0</ele><time>2026-04-12T09:42:26.693Z</time></trkpt><trkpt lat="43.6681818" lon="12.3354202"><ele>687.0</ele><time>2026-04-12T09:42:28.704Z</time></trkpt><trkpt lat="43.6680956" lon="12.3354628"><ele>687.0</ele><time>2026-04-12T09:42:29.675Z</time></trkpt><trkpt lat="43.6680099" lon="12.3355"><ele>687.0</ele><time>2026-04-12T09:42:30.703Z</time></trkpt><trkpt lat="43.6679246" lon="12.3355377"><ele>687.0</ele><time>2026-04-12T09:42:31.689Z</time></trkpt><trkpt lat="43.6678441" lon="12.335574"><ele>687.0</ele><time>2026-04-12T09:42:32.705Z</time></trkpt><trkpt lat="43.6677638" lon="12.335611"><ele>687.0</ele><time>2026-04-12T09:42:33.704Z</time></trkpt><trkpt lat="43.6676835" lon="12.3356413"><ele>687.5</ele><time>2026-04-12T09:42:34.684Z</time></trkpt><trkpt lat="43.6676008" lon="12.3356675"><ele>688.0</ele><time>2026-04-12T09:42:35.692Z</time></trkpt><trkpt lat="43.667521" lon="12.3356915"><ele>688.5</ele><time>2026-04-12T09:42:36.7Z</time></trkpt><trkpt lat="43.6674437" lon="12.3357126"><ele>689.0</ele><time>2026-04-12T09:42:37.708Z</time></trkpt><trkpt lat="43.6673655" lon="12.3357364"><ele>689.5</ele><time>2026-04-12T09:42:38.684Z</time></trkpt><trkpt lat="43.6672853" lon="12.3357617"><ele>690.0</ele><time>2026-04-12T09:42:39.695Z</time></trkpt><trkpt lat="43.6672064" lon="12.33579"><ele>690.0</ele><time>2026-04-12T09:42:40.687Z</time></trkpt><trkpt lat="43.667132" lon="12.3358181"><ele>690.0</ele><time>2026-04-12T09:42:41.694Z</time></trkpt><trkpt lat="43.6670594" lon="12.3358432"><ele>690.0</ele><time>2026-04-12T09:42:42.69Z</time></trkpt><trkpt lat="43.6669891" lon="12.3358621"><ele>690.0</ele><time>2026-04-12T09:42:43.687Z</time></trkpt><trkpt lat="43.6669094" lon="12.3358786"><ele>690.0</ele><time>2026-04-12T09:42:44.698Z</time></trkpt><trkpt lat="43.6668195" lon="12.3358999"><ele>690.0</ele><time>2026-04-12T09:42:45.682Z</time></trkpt><trkpt lat="43.6667329" lon="12.3359274"><ele>687.25</ele><time>2026-04-12T09:42:46.696Z</time></trkpt><trkpt lat="43.6666519" lon="12.3359554"><ele>684.5</ele><time>2026-04-12T09:42:47.683Z</time></trkpt><trkpt lat="43.6664866" lon="12.3359758"><ele>681.75</ele><time>2026-04-12T09:42:49.698Z</time></trkpt><trkpt lat="43.6663963" lon="12.335963"><ele>679.0</ele><time>2026-04-12T09:42:50.698Z</time></trkpt><trkpt lat="43.6662831" lon="12.3359383"><ele>679.0</ele><time>2026-04-12T09:42:51.684Z</time></trkpt><trkpt lat="43.6661712" lon="12.3359108"><ele>679.0</ele><time>2026-04-12T09:42:52.704Z</time></trkpt><trkpt lat="43.666072" lon="12.3358802"><ele>679.0</ele><time>2026-04-12T09:42:53.745Z</time></trkpt><trkpt lat="43.6659769" lon="12.3358496"><ele>679.0</ele><time>2026-04-12T09:42:54.688Z</time></trkpt><trkpt lat="43.6658766" lon="12.3358224"><ele>679.0</ele><time>2026-04-12T09:42:55.775Z</time></trkpt><trkpt lat="43.6657714" lon="12.3358196"><ele>677.75</ele><time>2026-04-12T09:42:56.679Z</time></trkpt><trkpt lat="43.6656641" lon="12.3358437"><ele>676.5</ele><time>2026-04-12T09:42:57.676Z</time></trkpt><trkpt lat="43.6655453" lon="12.3358909"><ele>675.25</ele><time>2026-04-12T09:42:58.689Z</time></trkpt><trkpt lat="43.6654154" lon="12.3359503"><ele>674.0</ele><time>2026-04-12T09:42:59.683Z</time></trkpt><trkpt lat="43.6652717" lon="12.3360083"><ele>672.75</ele><time>2026-04-12T09:43:00.683Z</time></trkpt><trkpt lat="43.6651231" lon="12.3360454"><ele>671.5</ele><time>2026-04-12T09:43:01.684Z</time></trkpt><trkpt lat="43.6649851" lon="12.3360675"><ele>670.25</ele><time>2026-04-12T09:43:02.689Z</time></trkpt><trkpt lat="43.6648657" lon="12.3360895"><ele>669.0</ele><time>2026-04-12T09:43:03.676Z</time></trkpt><trkpt lat="43.6647634" lon="12.3361237"><ele>669.0</ele><time>2026-04-12T09:43:04.696Z</time></trkpt><trkpt lat="43.6646716" lon="12.3361723"><ele>669.0</ele><time>2026-04-12T09:43:05.681Z</time></trkpt><trkpt lat="43.6645818" lon="12.3362238"><ele>669.0</ele><time>2026-04-12T09:43:06.685Z</time></trkpt><trkpt lat="43.6644816" lon="12.3362654"><ele>669.0</ele><time>2026-04-12T09:43:07.7Z</time></trkpt><trkpt lat="43.6643724" lon="12.3362934"><ele>669.0</ele><time>2026-04-12T09:43:08.698Z</time></trkpt><trkpt lat="43.6641473" lon="12.3363096"><ele>666.25</ele><time>2026-04-12T09:43:10.718Z</time></trkpt><trkpt lat="43.6640281" lon="12.3362874"><ele>663.5</ele><time>2026-04-12T09:43:11.689Z</time></trkpt><trkpt lat="43.6639041" lon="12.3362254"><ele>660.75</ele><time>2026-04-12T09:43:12.695Z</time></trkpt><trkpt lat="43.6637759" lon="12.3361042"><ele>658.0</ele><time>2026-04-12T09:43:13.681Z</time></trkpt><trkpt lat="43.6636565" lon="12.3359675"><ele>657.0</ele><time>2026-04-12T09:43:14.674Z</time></trkpt><trkpt lat="43.6635575" lon="12.3358313"><ele>656.0</ele><time>2026-04-12T09:43:15.691Z</time></trkpt><trkpt lat="43.6634658" lon="12.3357279"><ele>655.0</ele><time>2026-04-12T09:43:16.692Z</time></trkpt><trkpt lat="43.663355" lon="12.3356523"><ele>654.0</ele><time>2026-04-12T09:43:17.678Z</time></trkpt><trkpt lat="43.6632156" lon="12.3355917"><ele>652.75</ele><time>2026-04-12T09:43:18.695Z</time></trkpt><trkpt lat="43.6630487" lon="12.3355296"><ele>651.5</ele><time>2026-04-12T09:43:19.699Z</time></trkpt><trkpt lat="43.6629084" lon="12.3354632"><ele>650.25</ele><time>2026-04-12T09:43:20.7Z</time></trkpt><trkpt lat="43.6627922" lon="12.335394"><ele>649.0</ele><time>2026-04-12T09:43:21.677Z</time></trkpt><trkpt lat="43.6626939" lon="12.335342"><ele>649.0</ele><time>2026-04-12T09:43:22.695Z</time></trkpt><trkpt lat="43.6626207" lon="12.3352701"><ele>649.0</ele><time>2026-04-12T09:43:23.684Z</time></trkpt><trkpt lat="43.6625733" lon="12.335159"><ele>649.0</ele><time>2026-04-12T09:43:24.682Z</time></trkpt><trkpt lat="43.6625514" lon="12.3350343"><ele>649.0</ele><time>2026-04-12T09:43:25.71Z</time></trkpt><trkpt lat="43.6625451" lon="12.3349054"><ele>649.0</ele><time>2026-04-12T09:43:26.696Z</time></trkpt><trkpt lat="43.6625411" lon="12.3348099"><ele>649.0</ele><time>2026-04-12T09:43:27.684Z</time></trkpt><trkpt lat="43.6624537" lon="12.3346969"><ele>646.25</ele><time>2026-04-12T09:43:29.698Z</time></trkpt><trkpt lat="43.6622908" lon="12.334621"><ele>643.5</ele><time>2026-04-12T09:43:32.701Z</time></trkpt><trkpt lat="43.6621887" lon="12.3345458"><ele>640.75</ele><time>2026-04-12T09:43:34.7Z</time></trkpt><trkpt lat="43.6621228" lon="12.334505"><ele>638.0</ele><time>2026-04-12T09:43:35.704Z</time></trkpt><trkpt lat="43.6620328" lon="12.3344763"><ele>635.0</ele><time>2026-04-12T09:43:36.7Z</time></trkpt><trkpt lat="43.6619178" lon="12.3344718"><ele>632.0</ele><time>2026-04-12T09:43:37.692Z</time></trkpt><trkpt lat="43.6617761" lon="12.3344863"><ele>629.0</ele><time>2026-04-12T09:43:38.682Z</time></trkpt><trkpt lat="43.66163" lon="12.3344935"><ele>626.0</ele><time>2026-04-12T09:43:39.767Z</time></trkpt><trkpt lat="43.6615021" lon="12.3344843"><ele>626.0</ele><time>2026-04-12T09:43:40.685Z</time></trkpt><trkpt lat="43.6614003" lon="12.3344672"><ele>626.0</ele><time>2026-04-12T09:43:41.855Z</time></trkpt><trkpt lat="43.6612729" lon="12.3345101"><ele>626.0</ele><time>2026-04-12T09:43:43.71Z</time></trkpt><trkpt lat="43.6612301" lon="12.3346771"><ele>626.0</ele><time>2026-04-12T09:43:45.684Z</time></trkpt><trkpt lat="43.6612349" lon="12.3348002"><ele>630.25</ele><time>2026-04-12T09:43:46.728Z</time></trkpt><trkpt lat="43.6612466" lon="12.3349691"><ele>634.5</ele><time>2026-04-12T09:43:47.699Z</time></trkpt><trkpt lat="43.6612385" lon="12.3351507"><ele>638.75</ele><time>2026-04-12T09:43:48.71Z</time></trkpt><trkpt lat="43.6612109" lon="12.3353138"><ele>643.0</ele><time>2026-04-12T09:43:49.702Z</time></trkpt><trkpt lat="43.6611593" lon="12.3354574"><ele>631.5</ele><time>2026-04-12T09:43:50.693Z</time></trkpt><trkpt lat="43.6610442" lon="12.3358549"><ele>620.0</ele><time>2026-04-12T09:43:52.688Z</time></trkpt><trkpt lat="43.6610041" lon="12.3360477"><ele>620.0</ele><time>2026-04-12T09:43:53.723Z</time></trkpt><trkpt lat="43.6609569" lon="12.3362174"><ele>620.0</ele><time>2026-04-12T09:43:54.778Z</time></trkpt><trkpt lat="43.6608947" lon="12.3363411"><ele>620.0</ele><time>2026-04-12T09:43:55.695Z</time></trkpt><trkpt lat="43.6608242" lon="12.3364332"><ele>620.0</ele><time>2026-04-12T09:43:56.715Z</time></trkpt><trkpt lat="43.6607391" lon="12.3364919"><ele>620.0</ele><time>2026-04-12T09:43:57.68Z</time></trkpt><trkpt lat="43.6606317" lon="12.3365303"><ele>625.6666666666666</ele><time>2026-04-12T09:43:58.69Z</time></trkpt><trkpt lat="43.660502" lon="12.3365252"><ele>631.3333333333334</ele><time>2026-04-12T09:43:59.713Z</time></trkpt><trkpt lat="43.6603392" lon="12.3364941"><ele>637.0</ele><time>2026-04-12T09:44:00.72Z</time></trkpt><trkpt lat="43.6601696" lon="12.3364529"><ele>637.0</ele><time>2026-04-12T09:44:01.699Z</time></trkpt><trkpt lat="43.6600244" lon="12.3364203"><ele>637.0</ele><time>2026-04-12T09:44:02.72Z</time></trkpt><trkpt lat="43.6598855" lon="12.3363723"><ele>637.0</ele><time>2026-04-12T09:44:03.766Z</time></trkpt><trkpt lat="43.6597496" lon="12.3362674"><ele>637.0</ele><time>2026-04-12T09:44:04.709Z</time></trkpt><trkpt lat="43.6596208" lon="12.3361344"><ele>631.5</ele><time>2026-04-12T09:44:05.703Z</time></trkpt><trkpt lat="43.6595108" lon="12.3360056"><ele>626.0</ele><time>2026-04-12T09:44:06.775Z</time></trkpt><trkpt lat="43.6594225" lon="12.3359363"><ele>620.5</ele><time>2026-04-12T09:44:07.693Z</time></trkpt><trkpt lat="43.6593212" lon="12.3358987"><ele>615.0</ele><time>2026-04-12T09:44:08.714Z</time></trkpt><trkpt lat="43.6592144" lon="12.3359071"><ele>615.0</ele><time>2026-04-12T09:44:09.681Z</time></trkpt><trkpt lat="43.6590963" lon="12.335958"><ele>615.0</ele><time>2026-04-12T09:44:10.694Z</time></trkpt><trkpt lat="43.6589549" lon="12.3360227"><ele>615.0</ele><time>2026-04-12T09:44:11.693Z</time></trkpt><trkpt lat="43.6587066" lon="12.3361267"><ele>613.75</ele><time>2026-04-12T09:44:13.681Z</time></trkpt><trkpt lat="43.6586123" lon="12.3361907"><ele>612.5</ele><time>2026-04-12T09:44:14.705Z</time></trkpt><trkpt lat="43.6585476" lon="12.3362838"><ele>611.25</ele><time>2026-04-12T09:44:15.708Z</time></trkpt><trkpt lat="43.6584847" lon="12.3364299"><ele>610.0</ele><time>2026-04-12T09:44:16.707Z</time></trkpt><trkpt lat="43.6584071" lon="12.3366133"><ele>610.0</ele><time>2026-04-12T09:44:17.715Z</time></trkpt><trkpt lat="43.6583196" lon="12.336752"><ele>610.0</ele><time>2026-04-12T09:44:18.705Z</time></trkpt><trkpt lat="43.658234" lon="12.3368448"><ele>610.0</ele><time>2026-04-12T09:44:19.707Z</time></trkpt><trkpt lat="43.6581739" lon="12.3369211"><ele>610.0</ele><time>2026-04-12T09:44:20.684Z</time></trkpt><trkpt lat="43.6581476" lon="12.3370126"><ele>610.0</ele><time>2026-04-12T09:44:21.719Z</time></trkpt><trkpt lat="43.6581534" lon="12.3371159"><ele>610.2</ele><time>2026-04-12T09:44:22.701Z</time></trkpt><trkpt lat="43.6581961" lon="12.3372431"><ele>610.4</ele><time>2026-04-12T09:44:23.686Z</time></trkpt><trkpt lat="43.6582594" lon="12.3373805"><ele>610.6</ele><time>2026-04-12T09:44:24.689Z</time></trkpt><trkpt lat="43.6583099" lon="12.3375222"><ele>610.8</ele><time>2026-04-12T09:44:25.685Z</time></trkpt><trkpt lat="43.6583218" lon="12.3376591"><ele>611.0</ele><time>2026-04-12T09:44:26.709Z</time></trkpt><trkpt lat="43.6583098" lon="12.3377943"><ele>611.0</ele><time>2026-04-12T09:44:27.683Z</time></trkpt><trkpt lat="43.658277" lon="12.3378906"><ele>611.0</ele><time>2026-04-12T09:44:28.708Z</time></trkpt><trkpt lat="43.6582231" lon="12.3379414"><ele>611.0</ele><time>2026-04-12T09:44:29.699Z</time></trkpt><trkpt lat="43.6581177" lon="12.3379495"><ele>611.0</ele><time>2026-04-12T09:44:30.728Z</time></trkpt><trkpt lat="43.6580076" lon="12.3379822"><ele>611.0</ele><time>2026-04-12T09:44:31.695Z</time></trkpt><trkpt lat="43.657894" lon="12.3379958"><ele>604.75</ele><time>2026-04-12T09:44:32.71Z</time></trkpt><trkpt lat="43.6576755" lon="12.3379862"><ele>598.5</ele><time>2026-04-12T09:44:34.691Z</time></trkpt><trkpt lat="43.6575746" lon="12.3379715"><ele>592.25</ele><time>2026-04-12T09:44:35.705Z</time></trkpt><trkpt lat="43.6574637" lon="12.3379609"><ele>586.0</ele><time>2026-04-12T09:44:36.693Z</time></trkpt><trkpt lat="43.6573482" lon="12.337943"><ele>586.0</ele><time>2026-04-12T09:44:37.716Z</time></trkpt><trkpt lat="43.6572278" lon="12.3379098"><ele>586.0</ele><time>2026-04-12T09:44:38.693Z</time></trkpt><trkpt lat="43.6570955" lon="12.3378473"><ele>586.0</ele><time>2026-04-12T09:44:39.7Z</time></trkpt><trkpt lat="43.6569593" lon="12.3377606"><ele>586.0</ele><time>2026-04-12T09:44:40.717Z</time></trkpt><trkpt lat="43.6568289" lon="12.3376793"><ele>585.4</ele><time>2026-04-12T09:44:41.698Z</time></trkpt><trkpt lat="43.6567053" lon="12.3376118"><ele>584.8</ele><time>2026-04-12T09:44:42.726Z</time></trkpt><trkpt lat="43.6565901" lon="12.3375401"><ele>584.1999999999999</ele><time>2026-04-12T09:44:43.699Z</time></trkpt><trkpt lat="43.656495" lon="12.3374897"><ele>583.6</ele><time>2026-04-12T09:44:44.722Z</time></trkpt><trkpt lat="43.65641" lon="12.3374588"><ele>583.0</ele><time>2026-04-12T09:44:45.697Z</time></trkpt><trkpt lat="43.656328" lon="12.3374415"><ele>583.0</ele><time>2026-04-12T09:44:46.696Z</time></trkpt><trkpt lat="43.6562637" lon="12.3374337"><ele>583.0</ele><time>2026-04-12T09:44:47.709Z</time></trkpt><trkpt lat="43.6561644" lon="12.3375106"><ele>583.0</ele><time>2026-04-12T09:44:49.714Z</time></trkpt><trkpt lat="43.6561589" lon="12.3377179"><ele>583.0</ele><time>2026-04-12T09:44:51.724Z</time></trkpt><trkpt lat="43.6561873" lon="12.3378588"><ele>583.0</ele><time>2026-04-12T09:44:52.727Z</time></trkpt><trkpt lat="43.6562271" lon="12.3380041"><ele>581.5</ele><time>2026-04-12T09:44:53.789Z</time></trkpt><trkpt lat="43.6563182" lon="12.3382497"><ele>580.0</ele><time>2026-04-12T09:44:55.724Z</time></trkpt><trkpt lat="43.6563849" lon="12.3383429"><ele>578.5</ele><time>2026-04-12T09:44:56.693Z</time></trkpt><trkpt lat="43.6564681" lon="12.3384153"><ele>577.0</ele><time>2026-04-12T09:44:57.693Z</time></trkpt><trkpt lat="43.6565633" lon="12.3384661"><ele>577.0</ele><time>2026-04-12T09:44:58.716Z</time></trkpt><trkpt lat="43.6566834" lon="12.3384993"><ele>577.0</ele><time>2026-04-12T09:44:59.688Z</time></trkpt><trkpt lat="43.6568018" lon="12.3385048"><ele>577.0</ele><time>2026-04-12T09:45:00.721Z</time></trkpt><trkpt lat="43.6569146" lon="12.3384886"><ele>577.0</ele><time>2026-04-12T09:45:01.701Z</time></trkpt><trkpt lat="43.6570131" lon="12.3384667"><ele>577.0</ele><time>2026-04-12T09:45:02.697Z</time></trkpt><trkpt lat="43.6570961" lon="12.3384566"><ele>577.0</ele><time>2026-04-12T09:45:03.706Z</time></trkpt><trkpt lat="43.6571917" lon="12.3384907"><ele>577.0</ele><time>2026-04-12T09:45:05.672Z</time></trkpt><trkpt lat="43.6571636" lon="12.3386128"><ele>577.0</ele><time>2026-04-12T09:45:07.686Z</time></trkpt><trkpt lat="43.6570291" lon="12.3386425"><ele>577.0</ele><time>2026-04-12T09:45:09.694Z</time></trkpt><trkpt lat="43.6569488" lon="12.338619"><ele>577.0</ele><time>2026-04-12T09:45:10.705Z</time></trkpt><trkpt lat="43.6568336" lon="12.3386574"><ele>577.0</ele><time>2026-04-12T09:45:11.681Z</time></trkpt><trkpt lat="43.6567004" lon="12.3387189"><ele>577.0</ele><time>2026-04-12T09:45:12.71Z</time></trkpt><trkpt lat="43.6565538" lon="12.3387623"><ele>577.0</ele><time>2026-04-12T09:45:13.753Z</time></trkpt><trkpt lat="43.6564087" lon="12.3387959"><ele>577.0</ele><time>2026-04-12T09:45:14.696Z</time></trkpt><trkpt lat="43.6561595" lon="12.338858"><ele>577.0</ele><time>2026-04-12T09:45:16.703Z</time></trkpt><trkpt lat="43.6560534" lon="12.338868"><ele>577.0</ele><time>2026-04-12T09:45:17.69Z</time></trkpt><trkpt lat="43.6559322" lon="12.3388565"><ele>572.75</ele><time>2026-04-12T09:45:18.71Z</time></trkpt><trkpt lat="43.6558068" lon="12.3388364"><ele>568.5</ele><time>2026-04-12T09:45:19.694Z</time></trkpt><trkpt lat="43.6556831" lon="12.3387993"><ele>564.25</ele><time>2026-04-12T09:45:20.697Z</time></trkpt><trkpt lat="43.6555653" lon="12.3387493"><ele>560.0</ele><time>2026-04-12T09:45:21.717Z</time></trkpt><trkpt lat="43.6554374" lon="12.3386759"><ele>560.0</ele><time>2026-04-12T09:45:22.7Z</time></trkpt><trkpt lat="43.655309" lon="12.3385924"><ele>560.0</ele><time>2026-04-12T09:45:23.735Z</time></trkpt><trkpt lat="43.6551855" lon="12.3385169"><ele>560.0</ele><time>2026-04-12T09:45:24.706Z</time></trkpt><trkpt lat="43.6550748" lon="12.3384417"><ele>560.0</ele><time>2026-04-12T09:45:25.692Z</time></trkpt><trkpt lat="43.6549724" lon="12.3383605"><ele>556.6</ele><time>2026-04-12T09:45:26.712Z</time></trkpt><trkpt lat="43.6548712" lon="12.3382938"><ele>553.2</ele><time>2026-04-12T09:45:27.697Z</time></trkpt><trkpt lat="43.6547638" lon="12.3382494"><ele>549.8</ele><time>2026-04-12T09:45:28.71Z</time></trkpt><trkpt lat="43.654653" lon="12.3382205"><ele>546.4</ele><time>2026-04-12T09:45:29.692Z</time></trkpt><trkpt lat="43.6545442" lon="12.3382134"><ele>543.0</ele><time>2026-04-12T09:45:30.707Z</time></trkpt><trkpt lat="43.654416" lon="12.3382607"><ele>540.5</ele><time>2026-04-12T09:45:31.696Z</time></trkpt><trkpt lat="43.6542741" lon="12.3383453"><ele>538.0</ele><time>2026-04-12T09:45:32.696Z</time></trkpt><trkpt lat="43.6541378" lon="12.3384379"><ele>535.5</ele><time>2026-04-12T09:45:33.709Z</time></trkpt><trkpt lat="43.6540224" lon="12.3385382"><ele>533.0</ele><time>2026-04-12T09:45:34.7Z</time></trkpt><trkpt lat="43.6539173" lon="12.3386375"><ele>526.6666666666666</ele><time>2026-04-12T09:45:35.688Z</time></trkpt><trkpt lat="43.6536048" lon="12.3388106"><ele>520.3333333333334</ele><time>2026-04-12T09:45:38.694Z</time></trkpt><trkpt lat="43.653504" lon="12.3387875"><ele>514.0</ele><time>2026-04-12T09:45:39.693Z</time></trkpt><trkpt lat="43.6534261" lon="12.3387567"><ele>514.0</ele><time>2026-04-12T09:45:40.683Z</time></trkpt><trkpt lat="43.6533619" lon="12.3387876"><ele>514.0</ele><time>2026-04-12T09:45:41.709Z</time></trkpt><trkpt lat="43.6533135" lon="12.3388478"><ele>514.0</ele><time>2026-04-12T09:45:42.705Z</time></trkpt><trkpt lat="43.6533105" lon="12.3389966"><ele>514.0</ele><time>2026-04-12T09:45:44.694Z</time></trkpt><trkpt lat="43.6533479" lon="12.3390829"><ele>514.0</ele><time>2026-04-12T09:45:45.694Z</time></trkpt><trkpt lat="43.6534108" lon="12.3391805"><ele>514.0</ele><time>2026-04-12T09:45:46.72Z</time></trkpt><trkpt lat="43.6534795" lon="12.3393023"><ele>514.2</ele><time>2026-04-12T09:45:47.678Z</time></trkpt><trkpt lat="43.6535432" lon="12.3394301"><ele>514.4</ele><time>2026-04-12T09:45:48.711Z</time></trkpt><trkpt lat="43.6535888" lon="12.3395692"><ele>514.6</ele><time>2026-04-12T09:45:49.705Z</time></trkpt><trkpt lat="43.6536159" lon="12.3397074"><ele>514.8</ele><time>2026-04-12T09:45:50.702Z</time></trkpt><trkpt lat="43.653629" lon="12.3398382"><ele>515.0</ele><time>2026-04-12T09:45:51.696Z</time></trkpt><trkpt lat="43.6536278" lon="12.3399461"><ele>515.1666666666666</ele><time>2026-04-12T09:45:52.712Z</time></trkpt><trkpt lat="43.6536147" lon="12.3400441"><ele>515.3333333333333</ele><time>2026-04-12T09:45:53.699Z</time></trkpt><trkpt lat="43.6535732" lon="12.3401307"><ele>515.5</ele><time>2026-04-12T09:45:54.711Z</time></trkpt><trkpt lat="43.6535076" lon="12.3401808"><ele>515.6666666666666</ele><time>2026-04-12T09:45:55.709Z</time></trkpt><trkpt lat="43.6534427" lon="12.3402196"><ele>515.8333333333334</ele><time>2026-04-12T09:45:56.687Z</time></trkpt><trkpt lat="43.6533323" lon="12.3403271"><ele>516.0</ele><time>2026-04-12T09:45:58.71Z</time></trkpt><trkpt lat="43.6532733" lon="12.3403977"><ele>516.0</ele><time>2026-04-12T09:45:59.689Z</time></trkpt><trkpt lat="43.6532019" lon="12.3404882"><ele>516.0</ele><time>2026-04-12T09:46:00.723Z</time></trkpt><trkpt lat="43.6531302" lon="12.3405495"><ele>516.0</ele><time>2026-04-12T09:46:01.68Z</time></trkpt><trkpt lat="43.6530558" lon="12.3405869"><ele>516.0</ele><time>2026-04-12T09:46:02.698Z</time></trkpt><trkpt lat="43.6529794" lon="12.3406205"><ele>516.0</ele><time>2026-04-12T09:46:03.692Z</time></trkpt><trkpt lat="43.6528889" lon="12.3406353"><ele>516.0</ele><time>2026-04-12T09:46:04.69Z</time></trkpt><trkpt lat="43.6527987" lon="12.340629"><ele>512.6</ele><time>2026-04-12T09:46:05.69Z</time></trkpt><trkpt lat="43.6527268" lon="12.3406135"><ele>509.20000000000005</ele><time>2026-04-12T09:46:06.703Z</time></trkpt><trkpt lat="43.6526195" lon="12.340553"><ele>505.79999999999995</ele><time>2026-04-12T09:46:08.69Z</time></trkpt><trkpt lat="43.6525819" lon="12.3404106"><ele>502.4</ele><time>2026-04-12T09:46:10.679Z</time></trkpt><trkpt lat="43.6526103" lon="12.3403253"><ele>499.0</ele><time>2026-04-12T09:46:11.701Z</time></trkpt><trkpt lat="43.6526515" lon="12.3402006"><ele>499.0</ele><time>2026-04-12T09:46:12.696Z</time></trkpt><trkpt lat="43.6527054" lon="12.3400614"><ele>499.0</ele><time>2026-04-12T09:46:13.705Z</time></trkpt><trkpt lat="43.6527407" lon="12.339909"><ele>499.0</ele><time>2026-04-12T09:46:14.702Z</time></trkpt><trkpt lat="43.6527433" lon="12.3397502"><ele>499.0</ele><time>2026-04-12T09:46:15.693Z</time></trkpt><trkpt lat="43.6527396" lon="12.3395633"><ele>498.0</ele><time>2026-04-12T09:46:16.702Z</time></trkpt><trkpt lat="43.6527219" lon="12.3393795"><ele>497.0</ele><time>2026-04-12T09:46:17.695Z</time></trkpt><trkpt lat="43.6526601" lon="12.3390391"><ele>496.0</ele><time>2026-04-12T09:46:19.7Z</time></trkpt><trkpt lat="43.6526088" lon="12.3388775"><ele>495.00000000000006</ele><time>2026-04-12T09:46:20.688Z</time></trkpt><trkpt lat="43.6525589" lon="12.3387396"><ele>494.0</ele><time>2026-04-12T09:46:21.687Z</time></trkpt><trkpt lat="43.6525203" lon="12.3386297"><ele>493.0</ele><time>2026-04-12T09:46:22.692Z</time></trkpt><trkpt lat="43.6524801" lon="12.338551"><ele>492.0</ele><time>2026-04-12T09:46:23.69Z</time></trkpt><trkpt lat="43.6524208" lon="12.3385162"><ele>491.00000000000006</ele><time>2026-04-12T09:46:24.688Z</time></trkpt><trkpt lat="43.652348" lon="12.3385335"><ele>490.0</ele><time>2026-04-12T09:46:25.688Z</time></trkpt><trkpt lat="43.65227" lon="12.3386136"><ele>490.0</ele><time>2026-04-12T09:46:26.707Z</time></trkpt><trkpt lat="43.6522139" lon="12.3387252"><ele>490.0</ele><time>2026-04-12T09:46:27.697Z</time></trkpt><trkpt lat="43.6521507" lon="12.338839"><ele>490.0</ele><time>2026-04-12T09:46:28.724Z</time></trkpt><trkpt lat="43.6520782" lon="12.3389485"><ele>490.0</ele><time>2026-04-12T09:46:29.695Z</time></trkpt><trkpt lat="43.6519889" lon="12.3390439"><ele>490.0</ele><time>2026-04-12T09:46:30.688Z</time></trkpt><trkpt lat="43.651886" lon="12.3391122"><ele>486.8</ele><time>2026-04-12T09:46:31.701Z</time></trkpt><trkpt lat="43.6517818" lon="12.3391442"><ele>483.6</ele><time>2026-04-12T09:46:32.693Z</time></trkpt><trkpt lat="43.6516939" lon="12.339171"><ele>480.4</ele><time>2026-04-12T09:46:33.704Z</time></trkpt><trkpt lat="43.6515952" lon="12.3392452"><ele>477.2</ele><time>2026-04-12T09:46:34.705Z</time></trkpt><trkpt lat="43.6515101" lon="12.3393608"><ele>474.0</ele><time>2026-04-12T09:46:35.78Z</time></trkpt><trkpt lat="43.6514115" lon="12.3395026"><ele>474.0</ele><time>2026-04-12T09:46:36.694Z</time></trkpt><trkpt lat="43.651313" lon="12.3396271"><ele>474.0</ele><time>2026-04-12T09:46:37.717Z</time></trkpt><trkpt lat="43.6512075" lon="12.3397166"><ele>474.0</ele><time>2026-04-12T09:46:38.773Z</time></trkpt><trkpt lat="43.6509776" lon="12.3398752"><ele>473.6</ele><time>2026-04-12T09:46:40.695Z</time></trkpt><trkpt lat="43.6508571" lon="12.3399201"><ele>473.2</ele><time>2026-04-12T09:46:41.71Z</time></trkpt><trkpt lat="43.6507487" lon="12.3399614"><ele>472.80000000000007</ele><time>2026-04-12T09:46:42.686Z</time></trkpt><trkpt lat="43.6506502" lon="12.3400094"><ele>472.40000000000003</ele><time>2026-04-12T09:46:43.7Z</time></trkpt><trkpt lat="43.6505541" lon="12.3400534"><ele>472.0</ele><time>2026-04-12T09:46:44.705Z</time></trkpt><trkpt lat="43.6504591" lon="12.3400971"><ele>472.0</ele><time>2026-04-12T09:46:45.69Z</time></trkpt><trkpt lat="43.6503772" lon="12.3401386"><ele>472.00000000000006</ele><time>2026-04-12T09:46:46.708Z</time></trkpt><trkpt lat="43.6503178" lon="12.3401928"><ele>472.00000000000006</ele><time>2026-04-12T09:46:47.695Z</time></trkpt><trkpt lat="43.6502327" lon="12.3402778"><ele>472.0</ele><time>2026-04-12T09:46:49.697Z</time></trkpt><trkpt lat="43.6502115" lon="12.3401363"><ele>472.0</ele><time>2026-04-12T09:46:51.7Z</time></trkpt><trkpt lat="43.6502428" lon="12.3400251"><ele>470.71428571428567</ele><time>2026-04-12T09:46:52.68Z</time></trkpt><trkpt lat="43.6502645" lon="12.3399257"><ele>469.42857142857144</ele><time>2026-04-12T09:46:53.683Z</time></trkpt><trkpt lat="43.6502787" lon="12.3398341"><ele>468.1428571428571</ele><time>2026-04-12T09:46:54.692Z</time></trkpt><trkpt lat="43.6502872" lon="12.3397346"><ele>466.85714285714283</ele><time>2026-04-12T09:46:55.694Z</time></trkpt><trkpt lat="43.6502874" lon="12.3396379"><ele>465.57142857142856</ele><time>2026-04-12T09:46:56.683Z</time></trkpt><trkpt lat="43.6503048" lon="12.3395326"><ele>464.2857142857143</ele><time>2026-04-12T09:46:57.701Z</time></trkpt><trkpt lat="43.6503348" lon="12.3394421"><ele>463.0</ele><time>2026-04-12T09:46:58.691Z</time></trkpt><trkpt lat="43.650368" lon="12.3393645"><ele>459.25</ele><time>2026-04-12T09:46:59.771Z</time></trkpt><trkpt lat="43.6502746" lon="12.3391766"><ele>455.5</ele><time>2026-04-12T09:47:03.71Z</time></trkpt><trkpt lat="43.6501903" lon="12.3391201"><ele>451.75</ele><time>2026-04-12T09:47:05.687Z</time></trkpt><trkpt lat="43.6501621" lon="12.3392026"><ele>448.0</ele><time>2026-04-12T09:55:17.716Z</time></trkpt><trkpt lat="43.650111" lon="12.3393942"><ele>448.00000000000006</ele><time>2026-04-12T09:55:20.681Z</time></trkpt><trkpt lat="43.6500779" lon="12.3394821"><ele>448.0</ele><time>2026-04-12T09:55:21.804Z</time></trkpt><trkpt lat="43.6500368" lon="12.3395763"><ele>448.0</ele><time>2026-04-12T09:55:22.704Z</time></trkpt><trkpt lat="43.6499805" lon="12.3396722"><ele>448.0</ele><time>2026-04-12T09:55:23.702Z</time></trkpt><trkpt lat="43.6499105" lon="12.3397782"><ele>448.00000000000006</ele><time>2026-04-12T09:55:24.702Z</time></trkpt><trkpt lat="43.6498431" lon="12.3398861"><ele>448.0</ele><time>2026-04-12T09:55:25.706Z</time></trkpt><trkpt lat="43.6497873" lon="12.339992"><ele>449.4</ele><time>2026-04-12T09:55:26.702Z</time></trkpt><trkpt lat="43.6497235" lon="12.3401042"><ele>450.79999999999995</ele><time>2026-04-12T09:55:27.692Z</time></trkpt><trkpt lat="43.6496731" lon="12.3402089"><ele>452.2</ele><time>2026-04-12T09:55:28.705Z</time></trkpt><trkpt lat="43.649639" lon="12.3403128"><ele>453.6</ele><time>2026-04-12T09:55:29.714Z</time></trkpt><trkpt lat="43.6496304" lon="12.3404268"><ele>455.0</ele><time>2026-04-12T09:55:30.693Z</time></trkpt><trkpt lat="43.6496387" lon="12.3405635"><ele>455.25</ele><time>2026-04-12T09:55:31.796Z</time></trkpt><trkpt lat="43.6496397" lon="12.3407121"><ele>455.5</ele><time>2026-04-12T09:55:32.807Z</time></trkpt><trkpt lat="43.6496403" lon="12.3408684"><ele>455.75</ele><time>2026-04-12T09:55:33.714Z</time></trkpt><trkpt lat="43.6496313" lon="12.3410279"><ele>456.0</ele><time>2026-04-12T09:55:34.699Z</time></trkpt><trkpt lat="43.6496113" lon="12.3411881"><ele>456.0</ele><time>2026-04-12T09:55:35.694Z</time></trkpt><trkpt lat="43.6495903" lon="12.3413431"><ele>456.0</ele><time>2026-04-12T09:55:36.695Z</time></trkpt><trkpt lat="43.6495608" lon="12.3415009"><ele>456.0</ele><time>2026-04-12T09:55:37.691Z</time></trkpt><trkpt lat="43.6495198" lon="12.3416716"><ele>456.0</ele><time>2026-04-12T09:55:38.727Z</time></trkpt><trkpt lat="43.6494334" lon="12.341974"><ele>452.0</ele><time>2026-04-12T09:55:40.711Z</time></trkpt><trkpt lat="43.6494028" lon="12.3420933"><ele>448.0</ele><time>2026-04-12T09:55:41.702Z</time></trkpt><trkpt lat="43.6493961" lon="12.3421931"><ele>444.0</ele><time>2026-04-12T09:55:42.696Z</time></trkpt><trkpt lat="43.6494115" lon="12.3422914"><ele>440.0</ele><time>2026-04-12T09:55:43.788Z</time></trkpt><trkpt lat="43.6494533" lon="12.3423709"><ele>436.0</ele><time>2026-04-12T09:55:44.698Z</time></trkpt><trkpt lat="43.6495172" lon="12.3424502"><ele>432.0</ele><time>2026-04-12T09:55:45.722Z</time></trkpt><trkpt lat="43.6495946" lon="12.3425522"><ele>432.0</ele><time>2026-04-12T09:55:46.702Z</time></trkpt><trkpt lat="43.6496478" lon="12.3426659"><ele>432.00000000000006</ele><time>2026-04-12T09:55:47.707Z</time></trkpt><trkpt lat="43.6496671" lon="12.3427843"><ele>432.00000000000006</ele><time>2026-04-12T09:55:48.704Z</time></trkpt><trkpt lat="43.6496411" lon="12.3429169"><ele>432.0</ele><time>2026-04-12T09:55:49.709Z</time></trkpt><trkpt lat="43.6495798" lon="12.3430297"><ele>432.0</ele><time>2026-04-12T09:55:50.701Z</time></trkpt><trkpt lat="43.6495005" lon="12.3431419"><ele>429.0</ele><time>2026-04-12T09:55:51.69Z</time></trkpt><trkpt lat="43.6494435" lon="12.3432527"><ele>426.0</ele><time>2026-04-12T09:55:52.705Z</time></trkpt><trkpt lat="43.6494123" lon="12.3433814"><ele>423.0</ele><time>2026-04-12T09:55:53.708Z</time></trkpt><trkpt lat="43.6493989" lon="12.3435378"><ele>420.0</ele><time>2026-04-12T09:55:54.694Z</time></trkpt><trkpt lat="43.6494155" lon="12.3437286"><ele>421.0</ele><time>2026-04-12T09:55:55.721Z</time></trkpt><trkpt lat="43.6494577" lon="12.3439329"><ele>422.0</ele><time>2026-04-12T09:55:56.708Z</time></trkpt><trkpt lat="43.6494943" lon="12.3441535"><ele>423.0</ele><time>2026-04-12T09:55:57.698Z</time></trkpt><trkpt lat="43.6495228" lon="12.3443695"><ele>428.33333333333337</ele><time>2026-04-12T09:55:58.721Z</time></trkpt><trkpt lat="43.649543" lon="12.3445678"><ele>433.6666666666667</ele><time>2026-04-12T09:55:59.688Z</time></trkpt><trkpt lat="43.6496103" lon="12.3448762"><ele>439.0</ele><time>2026-04-12T09:56:01.682Z</time></trkpt><trkpt lat="43.6496752" lon="12.3449902"><ele>439.0</ele><time>2026-04-12T09:56:02.7Z</time></trkpt><trkpt lat="43.6497611" lon="12.3450796"><ele>439.0</ele><time>2026-04-12T09:56:03.672Z</time></trkpt><trkpt lat="43.6498449" lon="12.3451523"><ele>439.0</ele><time>2026-04-12T09:56:04.694Z</time></trkpt><trkpt lat="43.649897" lon="12.3452203"><ele>439.0</ele><time>2026-04-12T09:56:05.695Z</time></trkpt><trkpt lat="43.6498908" lon="12.3453462"><ele>439.0</ele><time>2026-04-12T09:56:06.688Z</time></trkpt><trkpt lat="43.6498409" lon="12.3454842"><ele>439.0</ele><time>2026-04-12T09:56:07.692Z</time></trkpt><trkpt lat="43.6497682" lon="12.3456381"><ele>439.0</ele><time>2026-04-12T09:56:08.695Z</time></trkpt><trkpt lat="43.6496987" lon="12.3457577"><ele>439.0</ele><time>2026-04-12T09:56:09.678Z</time></trkpt><trkpt lat="43.6496199" lon="12.3458513"><ele>439.0</ele><time>2026-04-12T09:56:10.697Z</time></trkpt><trkpt lat="43.6495268" lon="12.3459576"><ele>435.25</ele><time>2026-04-12T09:56:11.683Z</time></trkpt><trkpt lat="43.6494235" lon="12.3460739"><ele>431.5</ele><time>2026-04-12T09:56:12.705Z</time></trkpt><trkpt lat="43.649327" lon="12.3461928"><ele>427.75</ele><time>2026-04-12T09:56:13.693Z</time></trkpt><trkpt lat="43.6492469" lon="12.3463131"><ele>424.0</ele><time>2026-04-12T09:56:14.706Z</time></trkpt><trkpt lat="43.6491992" lon="12.3464224"><ele>424.00000000000006</ele><time>2026-04-12T09:56:15.704Z</time></trkpt><trkpt lat="43.6491665" lon="12.3465497"><ele>424.0</ele><time>2026-04-12T09:56:16.76Z</time></trkpt><trkpt lat="43.6491563" lon="12.3466825"><ele>424.0</ele><time>2026-04-12T09:56:17.69Z</time></trkpt><trkpt lat="43.6491395" lon="12.3468125"><ele>424.0</ele><time>2026-04-12T09:56:18.703Z</time></trkpt><trkpt lat="43.6491" lon="12.3468984"><ele>424.00000000000006</ele><time>2026-04-12T09:56:19.77Z</time></trkpt><trkpt lat="43.6490396" lon="12.3469707"><ele>424.0</ele><time>2026-04-12T09:56:20.691Z</time></trkpt><trkpt lat="43.6488747" lon="12.3469049"><ele>424.0</ele><time>2026-04-12T09:56:22.699Z</time></trkpt><trkpt lat="43.6488258" lon="12.3467901"><ele>424.0</ele><time>2026-04-12T09:56:23.699Z</time></trkpt><trkpt lat="43.6487924" lon="12.3466502"><ele>424.0</ele><time>2026-04-12T09:56:24.691Z</time></trkpt><trkpt lat="43.6487692" lon="12.3464886"><ele>424.0</ele><time>2026-04-12T09:56:25.714Z</time></trkpt><trkpt lat="43.6487492" lon="12.346334"><ele>424.0</ele><time>2026-04-12T09:56:26.704Z</time></trkpt><trkpt lat="43.6487251" lon="12.3462028"><ele>423.25</ele><time>2026-04-12T09:56:27.696Z</time></trkpt><trkpt lat="43.6486969" lon="12.3460647"><ele>422.5</ele><time>2026-04-12T09:56:28.695Z</time></trkpt><trkpt lat="43.6486596" lon="12.3458993"><ele>421.75</ele><time>2026-04-12T09:56:29.693Z</time></trkpt><trkpt lat="43.6486512" lon="12.3457288"><ele>421.0</ele><time>2026-04-12T09:56:30.711Z</time></trkpt><trkpt lat="43.6486569" lon="12.3455403"><ele>421.0</ele><time>2026-04-12T09:56:31.693Z</time></trkpt><trkpt lat="43.6486844" lon="12.3453593"><ele>421.0</ele><time>2026-04-12T09:56:32.699Z</time></trkpt><trkpt lat="43.6487143" lon="12.3451801"><ele>421.0</ele><time>2026-04-12T09:56:33.691Z</time></trkpt><trkpt lat="43.6487349" lon="12.345037"><ele>421.0</ele><time>2026-04-12T09:56:34.687Z</time></trkpt><trkpt lat="43.6487219" lon="12.3448999"><ele>421.0</ele><time>2026-04-12T09:56:35.705Z</time></trkpt><trkpt lat="43.6486712" lon="12.3447894"><ele>421.0</ele><time>2026-04-12T09:56:36.689Z</time></trkpt><trkpt lat="43.648589" lon="12.344708"><ele>421.0</ele><time>2026-04-12T09:56:37.69Z</time></trkpt><trkpt lat="43.6484722" lon="12.3446424"><ele>421.0</ele><time>2026-04-12T09:56:38.699Z</time></trkpt><trkpt lat="43.6483513" lon="12.3445653"><ele>415.33333333333337</ele><time>2026-04-12T09:56:39.68Z</time></trkpt><trkpt lat="43.6482138" lon="12.3444763"><ele>409.66666666666663</ele><time>2026-04-12T09:56:40.693Z</time></trkpt><trkpt lat="43.6480742" lon="12.3443881"><ele>404.0</ele><time>2026-04-12T09:56:41.77Z</time></trkpt><trkpt lat="43.6478265" lon="12.344266"><ele>405.2</ele><time>2026-04-12T09:56:43.696Z</time></trkpt><trkpt lat="43.6477385" lon="12.3442256"><ele>406.4</ele><time>2026-04-12T09:56:44.682Z</time></trkpt><trkpt lat="43.647673" lon="12.3441768"><ele>407.6</ele><time>2026-04-12T09:56:45.687Z</time></trkpt><trkpt lat="43.6476228" lon="12.3440702"><ele>408.8</ele><time>2026-04-12T09:56:47.687Z</time></trkpt><trkpt lat="43.6476829" lon="12.3438957"><ele>410.0</ele><time>2026-04-12T09:56:49.682Z</time></trkpt><trkpt lat="43.6477335" lon="12.3437808"><ele>410.0</ele><time>2026-04-12T09:56:50.688Z</time></trkpt><trkpt lat="43.6477774" lon="12.3436565"><ele>410.0</ele><time>2026-04-12T09:56:51.759Z</time></trkpt><trkpt lat="43.6478129" lon="12.343496"><ele>410.0</ele><time>2026-04-12T09:56:52.739Z</time></trkpt><trkpt lat="43.6478431" lon="12.3433095"><ele>410.0</ele><time>2026-04-12T09:56:53.707Z</time></trkpt><trkpt lat="43.6478519" lon="12.3431037"><ele>409.3333333333333</ele><time>2026-04-12T09:56:54.723Z</time></trkpt><trkpt lat="43.6478447" lon="12.3428814"><ele>408.66666666666663</ele><time>2026-04-12T09:56:55.703Z</time></trkpt><trkpt lat="43.6478362" lon="12.3426519"><ele>408.0</ele><time>2026-04-12T09:56:56.718Z</time></trkpt><trkpt lat="43.6478231" lon="12.3424226"><ele>407.0</ele><time>2026-04-12T09:56:57.697Z</time></trkpt><trkpt lat="43.6478135" lon="12.3421848"><ele>406.0</ele><time>2026-04-12T09:56:58.708Z</time></trkpt><trkpt lat="43.6477999" lon="12.3419447"><ele>405.0</ele><time>2026-04-12T09:56:59.673Z</time></trkpt><trkpt lat="43.6477937" lon="12.3417144"><ele>405.66666666666663</ele><time>2026-04-12T09:57:00.715Z</time></trkpt><trkpt lat="43.6477826" lon="12.3414888"><ele>406.3333333333333</ele><time>2026-04-12T09:57:01.687Z</time></trkpt><trkpt lat="43.6477732" lon="12.3412644"><ele>407.0</ele><time>2026-04-12T09:57:02.698Z</time></trkpt><trkpt lat="43.6477592" lon="12.3408016"><ele>407.0</ele><time>2026-04-12T09:57:04.698Z</time></trkpt><trkpt lat="43.6477509" lon="12.34056"><ele>407.0</ele><time>2026-04-12T09:57:05.705Z</time></trkpt><trkpt lat="43.6477383" lon="12.340327"><ele>407.0</ele><time>2026-04-12T09:57:06.693Z</time></trkpt><trkpt lat="43.6477177" lon="12.340092"><ele>408.0</ele><time>2026-04-12T09:57:07.697Z</time></trkpt><trkpt lat="43.6476887" lon="12.3398577"><ele>409.0</ele><time>2026-04-12T09:57:08.687Z</time></trkpt><trkpt lat="43.647653" lon="12.3396251"><ele>410.0</ele><time>2026-04-12T09:57:09.687Z</time></trkpt><trkpt lat="43.6476067" lon="12.3393947"><ele>411.3333333333333</ele><time>2026-04-12T09:57:10.701Z</time></trkpt><trkpt lat="43.647539" lon="12.3391705"><ele>412.66666666666663</ele><time>2026-04-12T09:57:11.679Z</time></trkpt><trkpt lat="43.6474589" lon="12.3389555"><ele>414.0</ele><time>2026-04-12T09:57:12.711Z</time></trkpt><trkpt lat="43.6473685" lon="12.3387486"><ele>415.33333333333337</ele><time>2026-04-12T09:57:13.695Z</time></trkpt><trkpt lat="43.6472698" lon="12.3385448"><ele>416.6666666666667</ele><time>2026-04-12T09:57:14.699Z</time></trkpt><trkpt lat="43.6471607" lon="12.3383623"><ele>418.0</ele><time>2026-04-12T09:57:15.73Z</time></trkpt><trkpt lat="43.6470388" lon="12.3381915"><ele>420.6666666666667</ele><time>2026-04-12T09:57:16.688Z</time></trkpt><trkpt lat="43.6469109" lon="12.3380384"><ele>423.33333333333337</ele><time>2026-04-12T09:57:17.685Z</time></trkpt><trkpt lat="43.6467738" lon="12.3379061"><ele>426.0</ele><time>2026-04-12T09:57:18.685Z</time></trkpt><trkpt lat="43.6466255" lon="12.3377824"><ele>426.0</ele><time>2026-04-12T09:57:19.685Z</time></trkpt><trkpt lat="43.6464758" lon="12.337668"><ele>426.0</ele><time>2026-04-12T09:57:20.703Z</time></trkpt><trkpt lat="43.6463203" lon="12.337569"><ele>426.0</ele><time>2026-04-12T09:57:21.687Z</time></trkpt><trkpt lat="43.6461741" lon="12.3374688"><ele>425.5</ele><time>2026-04-12T09:57:22.676Z</time></trkpt><trkpt lat="43.6460304" lon="12.3373624"><ele>425.0</ele><time>2026-04-12T09:57:23.702Z</time></trkpt><trkpt lat="43.6458072" lon="12.337084"><ele>425.0</ele><time>2026-04-12T09:57:25.712Z</time></trkpt><trkpt lat="43.645735" lon="12.3369166"><ele>425.0</ele><time>2026-04-12T09:57:26.69Z</time></trkpt><trkpt lat="43.645713" lon="12.3367805"><ele>425.0</ele><time>2026-04-12T09:57:27.688Z</time></trkpt><trkpt lat="43.6457071" lon="12.3366705"><ele>425.0</ele><time>2026-04-12T09:57:30.691Z</time></trkpt><trkpt lat="43.6456562" lon="12.3365443"><ele>425.0</ele><time>2026-04-12T09:57:50.694Z</time></trkpt><trkpt lat="43.6455954" lon="12.3362245"><ele>425.75</ele><time>2026-04-12T09:57:52.689Z</time></trkpt><trkpt lat="43.6456033" lon="12.3360116"><ele>426.5</ele><time>2026-04-12T09:57:53.696Z</time></trkpt><trkpt lat="43.6455955" lon="12.3358072"><ele>427.25</ele><time>2026-04-12T09:57:54.772Z</time></trkpt><trkpt lat="43.6456349" lon="12.3356214"><ele>428.0</ele><time>2026-04-12T09:57:55.687Z</time></trkpt><trkpt lat="43.6456495" lon="12.3354202"><ele>428.25</ele><time>2026-04-12T09:57:56.684Z</time></trkpt><trkpt lat="43.6457104" lon="12.3352472"><ele>428.5</ele><time>2026-04-12T09:57:57.692Z</time></trkpt><trkpt lat="43.6457691" lon="12.3351023"><ele>428.75</ele><time>2026-04-12T09:57:58.682Z</time></trkpt><trkpt lat="43.645833" lon="12.3349774"><ele>429.0</ele><time>2026-04-12T09:57:59.685Z</time></trkpt><trkpt lat="43.6458863" lon="12.3348619"><ele>429.0</ele><time>2026-04-12T09:58:00.695Z</time></trkpt><trkpt lat="43.645958" lon="12.3347557"><ele>429.0</ele><time>2026-04-12T09:58:01.719Z</time></trkpt><trkpt lat="43.6460276" lon="12.334633"><ele>429.0</ele><time>2026-04-12T09:58:02.694Z</time></trkpt><trkpt lat="43.6460983" lon="12.3345031"><ele>429.0</ele><time>2026-04-12T09:58:03.684Z</time></trkpt><trkpt lat="43.6461843" lon="12.3343719"><ele>429.25</ele><time>2026-04-12T09:58:04.688Z</time></trkpt><trkpt lat="43.6462906" lon="12.3342596"><ele>429.5</ele><time>2026-04-12T09:58:05.676Z</time></trkpt><trkpt lat="43.6463942" lon="12.3341362"><ele>429.75</ele><time>2026-04-12T09:58:06.684Z</time></trkpt><trkpt lat="43.6464962" lon="12.3340198"><ele>430.0</ele><time>2026-04-12T09:58:07.698Z</time></trkpt><trkpt lat="43.6465788" lon="12.3339131"><ele>430.5</ele><time>2026-04-12T09:58:08.715Z</time></trkpt><trkpt lat="43.6466693" lon="12.3338254"><ele>431.0</ele><time>2026-04-12T09:58:09.685Z</time></trkpt><trkpt lat="43.6467482" lon="12.3337392"><ele>431.5</ele><time>2026-04-12T09:58:10.676Z</time></trkpt><trkpt lat="43.6468553" lon="12.3336858"><ele>432.0</ele><time>2026-04-12T09:58:11.7Z</time></trkpt><trkpt lat="43.6470553" lon="12.3335859"><ele>431.3333333333333</ele><time>2026-04-12T09:58:13.681Z</time></trkpt><trkpt lat="43.6471333" lon="12.3335161"><ele>430.66666666666663</ele><time>2026-04-12T09:58:14.711Z</time></trkpt><trkpt lat="43.6471982" lon="12.333436"><ele>430.0</ele><time>2026-04-12T09:58:15.687Z</time></trkpt><trkpt lat="43.6472485" lon="12.3333651"><ele>429.3333333333333</ele><time>2026-04-12T09:58:16.686Z</time></trkpt><trkpt lat="43.647288" lon="12.3332646"><ele>428.66666666666663</ele><time>2026-04-12T09:58:18.686Z</time></trkpt><trkpt lat="43.6472256" lon="12.3333575"><ele>428.0</ele><time>2026-04-12T09:58:27.759Z</time></trkpt><trkpt lat="43.6471681" lon="12.3334666"><ele>428.0</ele><time>2026-04-12T09:58:28.691Z</time></trkpt><trkpt lat="43.647086" lon="12.333572"><ele>428.0</ele><time>2026-04-12T09:58:29.693Z</time></trkpt><trkpt lat="43.6469961" lon="12.333688"><ele>428.0</ele><time>2026-04-12T09:58:30.687Z</time></trkpt><trkpt lat="43.6468974" lon="12.3338061"><ele>428.0</ele><time>2026-04-12T09:58:31.684Z</time></trkpt><trkpt lat="43.646799" lon="12.3339345"><ele>428.66666666666663</ele><time>2026-04-12T09:58:32.697Z</time></trkpt><trkpt lat="43.6465873" lon="12.3342022"><ele>429.33333333333337</ele><time>2026-04-12T09:58:34.711Z</time></trkpt><trkpt lat="43.6464746" lon="12.3343382"><ele>430.0</ele><time>2026-04-12T09:58:35.671Z</time></trkpt><trkpt lat="43.6463595" lon="12.3344746"><ele>430.0</ele><time>2026-04-12T09:58:36.69Z</time></trkpt><trkpt lat="43.6462509" lon="12.334611"><ele>430.0</ele><time>2026-04-12T09:58:37.674Z</time></trkpt><trkpt lat="43.6461469" lon="12.3347406"><ele>430.0</ele><time>2026-04-12T09:58:38.691Z</time></trkpt><trkpt lat="43.6460593" lon="12.3348591"><ele>430.0</ele><time>2026-04-12T09:58:39.682Z</time></trkpt><trkpt lat="43.6459858" lon="12.3349522"><ele>429.8</ele><time>2026-04-12T09:58:40.685Z</time></trkpt><trkpt lat="43.645901" lon="12.334998"><ele>429.6</ele><time>2026-04-12T09:58:42.684Z</time></trkpt><trkpt lat="43.6458775" lon="12.3348655"><ele>429.4</ele><time>2026-04-12T09:58:44.703Z</time></trkpt><trkpt lat="43.6458684" lon="12.3347464"><ele>429.2</ele><time>2026-04-12T09:58:45.707Z</time></trkpt><trkpt lat="43.6458673" lon="12.334589"><ele>429.0</ele><time>2026-04-12T09:58:46.685Z</time></trkpt><trkpt lat="43.645857" lon="12.3344305"><ele>430.25</ele><time>2026-04-12T09:58:47.707Z</time></trkpt><trkpt lat="43.6458386" lon="12.3342712"><ele>431.5</ele><time>2026-04-12T09:58:48.709Z</time></trkpt><trkpt lat="43.645815" lon="12.3341011"><ele>432.75</ele><time>2026-04-12T09:58:49.686Z</time></trkpt><trkpt lat="43.6457642" lon="12.3339311"><ele>434.0</ele><time>2026-04-12T09:58:50.713Z</time></trkpt><trkpt lat="43.6457095" lon="12.3337739"><ele>437.66666666666663</ele><time>2026-04-12T09:58:51.753Z</time></trkpt><trkpt lat="43.6456345" lon="12.3336346"><ele>441.33333333333337</ele><time>2026-04-12T09:58:52.71Z</time></trkpt><trkpt lat="43.6455253" lon="12.3335409"><ele>445.0</ele><time>2026-04-12T09:58:53.717Z</time></trkpt><trkpt lat="43.6452883" lon="12.3334611"><ele>445.0</ele><time>2026-04-12T09:58:55.689Z</time></trkpt><trkpt lat="43.6451894" lon="12.3334011"><ele>445.0</ele><time>2026-04-12T09:58:56.693Z</time></trkpt><trkpt lat="43.645133" lon="12.3333031"><ele>445.0</ele><time>2026-04-12T09:58:57.675Z</time></trkpt><trkpt lat="43.645073" lon="12.3331716"><ele>445.0</ele><time>2026-04-12T09:58:58.721Z</time></trkpt><trkpt lat="43.6449949" lon="12.3330193"><ele>445.0</ele><time>2026-04-12T09:58:59.684Z</time></trkpt><trkpt lat="43.644893" lon="12.3328477"><ele>452.0</ele><time>2026-04-12T09:59:00.678Z</time></trkpt><trkpt lat="43.6447875" lon="12.3326656"><ele>459.0</ele><time>2026-04-12T09:59:01.696Z</time></trkpt><trkpt lat="43.6446805" lon="12.3324817"><ele>466.0</ele><time>2026-04-12T09:59:02.687Z</time></trkpt><trkpt lat="43.6445831" lon="12.3323127"><ele>469.6666666666667</ele><time>2026-04-12T09:59:03.721Z</time></trkpt><trkpt lat="43.6444779" lon="12.3321416"><ele>473.33333333333337</ele><time>2026-04-12T09:59:04.69Z</time></trkpt><trkpt lat="43.6443592" lon="12.3319787"><ele>477.0</ele><time>2026-04-12T09:59:05.707Z</time></trkpt><trkpt lat="43.6442299" lon="12.3318197"><ele>469.66666666666663</ele><time>2026-04-12T09:59:06.697Z</time></trkpt><trkpt lat="43.6441014" lon="12.3316797"><ele>462.3333333333333</ele><time>2026-04-12T09:59:07.694Z</time></trkpt><trkpt lat="43.6439821" lon="12.3315409"><ele>455.0</ele><time>2026-04-12T09:59:08.682Z</time></trkpt><trkpt lat="43.6438724" lon="12.3313873"><ele>455.0</ele><time>2026-04-12T09:59:09.694Z</time></trkpt><trkpt lat="43.6437753" lon="12.3312383"><ele>455.0</ele><time>2026-04-12T09:59:10.707Z</time></trkpt><trkpt lat="43.6436888" lon="12.3310774"><ele>455.0</ele><time>2026-04-12T09:59:11.684Z</time></trkpt><trkpt lat="43.6436111" lon="12.330904"><ele>455.0</ele><time>2026-04-12T09:59:12.708Z</time></trkpt><trkpt lat="43.6435365" lon="12.3307131"><ele>450.0</ele><time>2026-04-12T09:59:13.677Z</time></trkpt><trkpt lat="43.643466" lon="12.3305183"><ele>445.0</ele><time>2026-04-12T09:59:14.693Z</time></trkpt><trkpt lat="43.6433321" lon="12.3301563"><ele>445.0</ele><time>2026-04-12T09:59:16.69Z</time></trkpt><trkpt lat="43.6432642" lon="12.3299678"><ele>445.0</ele><time>2026-04-12T09:59:17.708Z</time></trkpt><trkpt lat="43.6431956" lon="12.3297872"><ele>445.0</ele><time>2026-04-12T09:59:18.712Z</time></trkpt><trkpt lat="43.6431306" lon="12.3296144"><ele>445.0</ele><time>2026-04-12T09:59:19.715Z</time></trkpt><trkpt lat="43.6430573" lon="12.3294398"><ele>445.25</ele><time>2026-04-12T09:59:20.704Z</time></trkpt><trkpt lat="43.6429696" lon="12.3292782"><ele>445.5</ele><time>2026-04-12T09:59:21.684Z</time></trkpt><trkpt lat="43.6428692" lon="12.3291254"><ele>445.75</ele><time>2026-04-12T09:59:22.697Z</time></trkpt><trkpt lat="43.6427662" lon="12.3289752"><ele>446.0</ele><time>2026-04-12T09:59:23.688Z</time></trkpt><trkpt lat="43.6426656" lon="12.3288079"><ele>446.0</ele><time>2026-04-12T09:59:24.728Z</time></trkpt><trkpt lat="43.6425776" lon="12.3286257"><ele>446.0</ele><time>2026-04-12T09:59:25.696Z</time></trkpt><trkpt lat="43.6424916" lon="12.3284237"><ele>446.0</ele><time>2026-04-12T09:59:26.691Z</time></trkpt><trkpt lat="43.6424113" lon="12.3282101"><ele>447.0</ele><time>2026-04-12T09:59:27.699Z</time></trkpt><trkpt lat="43.6423299" lon="12.3279916"><ele>448.0</ele><time>2026-04-12T09:59:28.769Z</time></trkpt><trkpt lat="43.6422429" lon="12.3277641"><ele>449.0</ele><time>2026-04-12T09:59:29.693Z</time></trkpt><trkpt lat="43.6421466" lon="12.3275366"><ele>449.0</ele><time>2026-04-12T09:59:30.708Z</time></trkpt><trkpt lat="43.6420308" lon="12.3273177"><ele>449.0</ele><time>2026-04-12T09:59:31.754Z</time></trkpt><trkpt lat="43.6418996" lon="12.3271062"><ele>449.0</ele><time>2026-04-12T09:59:32.7Z</time></trkpt><trkpt lat="43.6417691" lon="12.3268888"><ele>450.3333333333333</ele><time>2026-04-12T09:59:33.715Z</time></trkpt><trkpt lat="43.6416326" lon="12.3266797"><ele>451.66666666666663</ele><time>2026-04-12T09:59:34.682Z</time></trkpt><trkpt lat="43.6414838" lon="12.3264725"><ele>453.0</ele><time>2026-04-12T09:59:35.683Z</time></trkpt><trkpt lat="43.6411641" lon="12.3260583"><ele>454.66666666666663</ele><time>2026-04-12T09:59:37.687Z</time></trkpt><trkpt lat="43.6409948" lon="12.3258753"><ele>456.3333333333333</ele><time>2026-04-12T09:59:38.761Z</time></trkpt><trkpt lat="43.6408234" lon="12.3256937"><ele>458.0</ele><time>2026-04-12T09:59:39.68Z</time></trkpt><trkpt lat="43.6406447" lon="12.3255292"><ele>458.3333333333333</ele><time>2026-04-12T09:59:40.766Z</time></trkpt><trkpt lat="43.6404791" lon="12.3253545"><ele>458.66666666666663</ele><time>2026-04-12T09:59:41.711Z</time></trkpt><trkpt lat="43.6403252" lon="12.3251733"><ele>459.0</ele><time>2026-04-12T09:59:42.687Z</time></trkpt><trkpt lat="43.6401785" lon="12.3249966"><ele>459.0</ele><time>2026-04-12T09:59:43.712Z</time></trkpt><trkpt lat="43.640042" lon="12.3248227"><ele>459.0</ele><time>2026-04-12T09:59:44.709Z</time></trkpt><trkpt lat="43.6399221" lon="12.3246502"><ele>459.0</ele><time>2026-04-12T09:59:45.717Z</time></trkpt><trkpt lat="43.6398091" lon="12.3244978"><ele>460.0</ele><time>2026-04-12T09:59:46.703Z</time></trkpt><trkpt lat="43.6397006" lon="12.3243546"><ele>461.0</ele><time>2026-04-12T09:59:47.687Z</time></trkpt><trkpt lat="43.6395859" lon="12.3242268"><ele>462.0</ele><time>2026-04-12T09:59:48.691Z</time></trkpt><trkpt lat="43.639471" lon="12.3240968"><ele>463.0</ele><time>2026-04-12T09:59:49.687Z</time></trkpt><trkpt lat="43.6393705" lon="12.3239624"><ele>462.5</ele><time>2026-04-12T09:59:50.719Z</time></trkpt><trkpt lat="43.6392783" lon="12.3238158"><ele>462.0</ele><time>2026-04-12T09:59:51.704Z</time></trkpt><trkpt lat="43.6391899" lon="12.3236834"><ele>461.5</ele><time>2026-04-12T09:59:52.689Z</time></trkpt><trkpt lat="43.6391139" lon="12.323544"><ele>461.0</ele><time>2026-04-12T09:59:53.696Z</time></trkpt><trkpt lat="43.6390489" lon="12.3233834"><ele>461.0</ele><time>2026-04-12T09:59:54.692Z</time></trkpt><trkpt lat="43.6389737" lon="12.3232123"><ele>461.0</ele><time>2026-04-12T09:59:55.726Z</time></trkpt><trkpt lat="43.6388726" lon="12.323032"><ele>461.0</ele><time>2026-04-12T09:59:56.705Z</time></trkpt><trkpt lat="43.6386311" lon="12.3226589"><ele>461.0</ele><time>2026-04-12T09:59:58.685Z</time></trkpt><trkpt lat="43.63849" lon="12.322475"><ele>461.0</ele><time>2026-04-12T09:59:59.701Z</time></trkpt><trkpt lat="43.6383387" lon="12.3222934"><ele>461.0</ele><time>2026-04-12T10:00:00.678Z</time></trkpt><trkpt lat="43.6381859" lon="12.3220941"><ele>461.0</ele><time>2026-04-12T10:00:01.697Z</time></trkpt><trkpt lat="43.6380352" lon="12.3218844"><ele>461.0</ele><time>2026-04-12T10:00:02.708Z</time></trkpt><trkpt lat="43.6378938" lon="12.321674"><ele>461.0</ele><time>2026-04-12T10:00:03.7Z</time></trkpt><trkpt lat="43.6377546" lon="12.3214744"><ele>462.0</ele><time>2026-04-12T10:00:04.703Z</time></trkpt><trkpt lat="43.6376124" lon="12.3212906"><ele>463.0</ele><time>2026-04-12T10:00:05.685Z</time></trkpt><trkpt lat="43.6374674" lon="12.3211319"><ele>464.0</ele><time>2026-04-12T10:00:06.699Z</time></trkpt><trkpt lat="43.6373075" lon="12.3210071"><ele>464.0</ele><time>2026-04-12T10:00:07.697Z</time></trkpt><trkpt lat="43.6371534" lon="12.3209115"><ele>464.0</ele><time>2026-04-12T10:00:08.707Z</time></trkpt><trkpt lat="43.6368953" lon="12.3207637"><ele>464.0</ele><time>2026-04-12T10:00:10.686Z</time></trkpt><trkpt lat="43.6367948" lon="12.3206756"><ele>464.25</ele><time>2026-04-12T10:00:11.7Z</time></trkpt><trkpt lat="43.6367057" lon="12.3205514"><ele>464.5</ele><time>2026-04-12T10:00:12.689Z</time></trkpt><trkpt lat="43.6366226" lon="12.320393"><ele>464.75</ele><time>2026-04-12T10:00:13.72Z</time></trkpt><trkpt lat="43.6365531" lon="12.3201961"><ele>465.0</ele><time>2026-04-12T10:00:14.767Z</time></trkpt><trkpt lat="43.6364559" lon="12.320012"><ele>465.0</ele><time>2026-04-12T10:00:15.697Z</time></trkpt><trkpt lat="43.6363245" lon="12.3198596"><ele>465.0</ele><time>2026-04-12T10:00:16.797Z</time></trkpt><trkpt lat="43.6360349" lon="12.3197013"><ele>465.0</ele><time>2026-04-12T10:00:18.684Z</time></trkpt><trkpt lat="43.6358195" lon="12.3194866"><ele>465.0</ele><time>2026-04-12T10:00:20.688Z</time></trkpt><trkpt lat="43.6357509" lon="12.3193386"><ele>465.0</ele><time>2026-04-12T10:00:21.715Z</time></trkpt><trkpt lat="43.6356962" lon="12.3191744"><ele>465.0</ele><time>2026-04-12T10:00:22.697Z</time></trkpt><trkpt lat="43.6356594" lon="12.3189791"><ele>465.0</ele><time>2026-04-12T10:00:23.679Z</time></trkpt><trkpt lat="43.6356337" lon="12.3187679"><ele>465.0</ele><time>2026-04-12T10:00:24.682Z</time></trkpt><trkpt lat="43.6356241" lon="12.3185402"><ele>467.0</ele><time>2026-04-12T10:00:25.707Z</time></trkpt><trkpt lat="43.6356225" lon="12.3183207"><ele>469.0</ele><time>2026-04-12T10:00:26.699Z</time></trkpt><trkpt lat="43.6356425" lon="12.3181125"><ele>471.0</ele><time>2026-04-12T10:00:27.707Z</time></trkpt><trkpt lat="43.6356603" lon="12.317909"><ele>474.0</ele><time>2026-04-12T10:00:28.701Z</time></trkpt><trkpt lat="43.635655" lon="12.3177087"><ele>477.0</ele><time>2026-04-12T10:00:29.69Z</time></trkpt><trkpt lat="43.6356298" lon="12.3175182"><ele>480.0</ele><time>2026-04-12T10:00:30.717Z</time></trkpt><trkpt lat="43.6355708" lon="12.3173818"><ele>483.0</ele><time>2026-04-12T10:00:31.704Z</time></trkpt><trkpt lat="43.635491" lon="12.3172629"><ele>484.75</ele><time>2026-04-12T10:00:32.696Z</time></trkpt><trkpt lat="43.6353836" lon="12.3171244"><ele>486.5</ele><time>2026-04-12T10:00:33.71Z</time></trkpt><trkpt lat="43.6352794" lon="12.31699"><ele>488.25</ele><time>2026-04-12T10:00:34.694Z</time></trkpt><trkpt lat="43.6351922" lon="12.3168589"><ele>490.0</ele><time>2026-04-12T10:00:35.725Z</time></trkpt><trkpt lat="43.6351189" lon="12.3167325"><ele>489.5</ele><time>2026-04-12T10:00:36.701Z</time></trkpt><trkpt lat="43.6350669" lon="12.3165853"><ele>489.0</ele><time>2026-04-12T10:00:37.708Z</time></trkpt><trkpt lat="43.6350362" lon="12.3163896"><ele>488.5</ele><time>2026-04-12T10:00:38.76Z</time></trkpt><trkpt lat="43.6350076" lon="12.3161681"><ele>488.0</ele><time>2026-04-12T10:00:39.698Z</time></trkpt><trkpt lat="43.6348766" lon="12.3156318"><ele>495.3333333333333</ele><time>2026-04-12T10:00:41.691Z</time></trkpt><trkpt lat="43.6347799" lon="12.3153616"><ele>502.66666666666663</ele><time>2026-04-12T10:00:42.704Z</time></trkpt><trkpt lat="43.6346908" lon="12.3150838"><ele>510.0</ele><time>2026-04-12T10:00:43.685Z</time></trkpt><trkpt lat="43.6345934" lon="12.3148044"><ele>515.3333333333334</ele><time>2026-04-12T10:00:44.696Z</time></trkpt><trkpt lat="43.634507" lon="12.3145365"><ele>520.6666666666667</ele><time>2026-04-12T10:00:45.707Z</time></trkpt><trkpt lat="43.6344358" lon="12.3143026"><ele>526.0</ele><time>2026-04-12T10:00:46.684Z</time></trkpt><trkpt lat="43.6343721" lon="12.3140838"><ele>518.0</ele><time>2026-04-12T10:00:47.766Z</time></trkpt><trkpt lat="43.6343151" lon="12.3138745"><ele>510.0</ele><time>2026-04-12T10:00:48.68Z</time></trkpt><trkpt lat="43.6342557" lon="12.3136561"><ele>502.0</ele><time>2026-04-12T10:00:49.716Z</time></trkpt><trkpt lat="43.6341844" lon="12.3134358"><ele>502.0</ele><time>2026-04-12T10:00:50.693Z</time></trkpt><trkpt lat="43.6340981" lon="12.3132213"><ele>502.0</ele><time>2026-04-12T10:00:51.697Z</time></trkpt><trkpt lat="43.6340007" lon="12.3130258"><ele>502.0</ele><time>2026-04-12T10:00:52.691Z</time></trkpt><trkpt lat="43.6338938" lon="12.3128482"><ele>505.0</ele><time>2026-04-12T10:00:53.674Z</time></trkpt><trkpt lat="43.6337904" lon="12.3126762"><ele>508.0</ele><time>2026-04-12T10:00:54.703Z</time></trkpt><trkpt lat="43.6336981" lon="12.3124895"><ele>511.0</ele><time>2026-04-12T10:00:55.693Z</time></trkpt><trkpt lat="43.633608" lon="12.3122905"><ele>506.6666666666667</ele><time>2026-04-12T10:00:56.685Z</time></trkpt><trkpt lat="43.6334974" lon="12.3121103"><ele>502.33333333333337</ele><time>2026-04-12T10:00:57.685Z</time></trkpt><trkpt lat="43.6333657" lon="12.3119466"><ele>498.0</ele><time>2026-04-12T10:00:58.692Z</time></trkpt><trkpt lat="43.6332289" lon="12.3117915"><ele>498.0</ele><time>2026-04-12T10:00:59.773Z</time></trkpt><trkpt lat="43.6330903" lon="12.3116341"><ele>498.0</ele><time>2026-04-12T10:01:00.685Z</time></trkpt><trkpt lat="43.632839" lon="12.3113271"><ele>495.25</ele><time>2026-04-12T10:01:02.703Z</time></trkpt><trkpt lat="43.632726" lon="12.3111815"><ele>492.5</ele><time>2026-04-12T10:01:03.75Z</time></trkpt><trkpt lat="43.6326287" lon="12.3110375"><ele>489.75</ele><time>2026-04-12T10:01:04.688Z</time></trkpt><trkpt lat="43.6325471" lon="12.3108667"><ele>487.0</ele><time>2026-04-12T10:01:05.711Z</time></trkpt><trkpt lat="43.6324819" lon="12.3106629"><ele>489.0</ele><time>2026-04-12T10:01:06.69Z</time></trkpt><trkpt lat="43.6324199" lon="12.3104339"><ele>491.0</ele><time>2026-04-12T10:01:07.681Z</time></trkpt><trkpt lat="43.6323726" lon="12.3101952"><ele>493.0</ele><time>2026-04-12T10:01:08.684Z</time></trkpt><trkpt lat="43.6323277" lon="12.3099406"><ele>496.33333333333337</ele><time>2026-04-12T10:01:09.682Z</time></trkpt><trkpt lat="43.6322749" lon="12.3096791"><ele>499.66666666666663</ele><time>2026-04-12T10:01:10.709Z</time></trkpt><trkpt lat="43.6322251" lon="12.3094249"><ele>503.0</ele><time>2026-04-12T10:01:11.7Z</time></trkpt><trkpt lat="43.6321779" lon="12.3091822"><ele>503.0</ele><time>2026-04-12T10:01:12.7Z</time></trkpt><trkpt lat="43.632123" lon="12.3089489"><ele>503.0</ele><time>2026-04-12T10:01:13.713Z</time></trkpt><trkpt lat="43.6320438" lon="12.3087355"><ele>503.0</ele><time>2026-04-12T10:01:14.706Z</time></trkpt><trkpt lat="43.6319217" lon="12.3085423"><ele>501.0</ele><time>2026-04-12T10:01:15.684Z</time></trkpt><trkpt lat="43.6317667" lon="12.3083769"><ele>499.0</ele><time>2026-04-12T10:01:16.705Z</time></trkpt><trkpt lat="43.6316129" lon="12.3082366"><ele>497.0</ele><time>2026-04-12T10:01:17.688Z</time></trkpt><trkpt lat="43.631469" lon="12.3080721"><ele>497.0</ele><time>2026-04-12T10:01:18.701Z</time></trkpt><trkpt lat="43.6313412" lon="12.3078889"><ele>497.0</ele><time>2026-04-12T10:01:19.706Z</time></trkpt><trkpt lat="43.631227" lon="12.3076958"><ele>497.0</ele><time>2026-04-12T10:01:20.706Z</time></trkpt><trkpt lat="43.6311023" lon="12.3074975"><ele>498.5</ele><time>2026-04-12T10:01:21.7Z</time></trkpt><trkpt lat="43.6308155" lon="12.307187"><ele>500.0</ele><time>2026-04-12T10:01:23.704Z</time></trkpt><trkpt lat="43.630662" lon="12.307092"><ele>500.0</ele><time>2026-04-12T10:01:24.707Z</time></trkpt><trkpt lat="43.6304816" lon="12.3069896"><ele>500.0</ele><time>2026-04-12T10:01:25.705Z</time></trkpt><trkpt lat="43.630286" lon="12.3069044"><ele>500.0</ele><time>2026-04-12T10:01:26.699Z</time></trkpt><trkpt lat="43.6301168" lon="12.306788"><ele>498.66666666666663</ele><time>2026-04-12T10:01:27.708Z</time></trkpt><trkpt lat="43.6299616" lon="12.3066446"><ele>497.33333333333337</ele><time>2026-04-12T10:01:28.764Z</time></trkpt><trkpt lat="43.6298043" lon="12.3064669"><ele>496.0</ele><time>2026-04-12T10:01:29.712Z</time></trkpt><trkpt lat="43.6296522" lon="12.3062687"><ele>496.0</ele><time>2026-04-12T10:01:30.708Z</time></trkpt><trkpt lat="43.629509" lon="12.3060411"><ele>496.0</ele><time>2026-04-12T10:01:31.709Z</time></trkpt><trkpt lat="43.6293794" lon="12.3058018"><ele>496.0</ele><time>2026-04-12T10:01:32.693Z</time></trkpt><trkpt lat="43.6292562" lon="12.3055501"><ele>493.0</ele><time>2026-04-12T10:01:33.723Z</time></trkpt><trkpt lat="43.6291348" lon="12.3052937"><ele>490.0</ele><time>2026-04-12T10:01:34.69Z</time></trkpt><trkpt lat="43.6290068" lon="12.3050234"><ele>495.5</ele><time>2026-04-12T10:01:35.705Z</time></trkpt><trkpt lat="43.6288791" lon="12.3047403"><ele>501.0</ele><time>2026-04-12T10:01:36.712Z</time></trkpt><trkpt lat="43.628753" lon="12.3044702"><ele>497.66666666666663</ele><time>2026-04-12T10:01:37.688Z</time></trkpt><trkpt lat="43.6286369" lon="12.3042238"><ele>494.3333333333333</ele><time>2026-04-12T10:01:38.706Z</time></trkpt><trkpt lat="43.6285246" lon="12.3040128"><ele>491.0</ele><time>2026-04-12T10:01:39.697Z</time></trkpt><trkpt lat="43.628396" lon="12.303831"><ele>497.66666666666663</ele><time>2026-04-12T10:01:40.713Z</time></trkpt><trkpt lat="43.6282439" lon="12.303688"><ele>504.33333333333337</ele><time>2026-04-12T10:01:41.685Z</time></trkpt><trkpt lat="43.6281024" lon="12.3035352"><ele>511.0</ele><time>2026-04-12T10:01:42.718Z</time></trkpt><trkpt lat="43.6279255" lon="12.3032079"><ele>511.33333333333337</ele><time>2026-04-12T10:01:44.693Z</time></trkpt><trkpt lat="43.627873" lon="12.3030022"><ele>511.66666666666663</ele><time>2026-04-12T10:01:45.693Z</time></trkpt><trkpt lat="43.6277804" lon="12.3028135"><ele>512.0</ele><time>2026-04-12T10:01:46.688Z</time></trkpt><trkpt lat="43.6276421" lon="12.3026454"><ele>512.0</ele><time>2026-04-12T10:01:47.691Z</time></trkpt><trkpt lat="43.6274624" lon="12.3024612"><ele>512.0</ele><time>2026-04-12T10:01:48.74Z</time></trkpt><trkpt lat="43.6272821" lon="12.3022713"><ele>512.0</ele><time>2026-04-12T10:01:49.678Z</time></trkpt><trkpt lat="43.6271192" lon="12.3020813"><ele>512.0</ele><time>2026-04-12T10:01:50.721Z</time></trkpt><trkpt lat="43.6269684" lon="12.3018915"><ele>512.0</ele><time>2026-04-12T10:01:51.698Z</time></trkpt><trkpt lat="43.6268236" lon="12.3016714"><ele>512.0</ele><time>2026-04-12T10:01:52.68Z</time></trkpt><trkpt lat="43.6266941" lon="12.3014345"><ele>512.0</ele><time>2026-04-12T10:01:53.685Z</time></trkpt><trkpt lat="43.6265595" lon="12.3011674"><ele>521.5</ele><time>2026-04-12T10:01:54.684Z</time></trkpt><trkpt lat="43.626426" lon="12.3008879"><ele>531.0</ele><time>2026-04-12T10:01:55.716Z</time></trkpt><trkpt lat="43.6263014" lon="12.3006275"><ele>534.5</ele><time>2026-04-12T10:01:56.692Z</time></trkpt><trkpt lat="43.6261674" lon="12.300392"><ele>538.0</ele><time>2026-04-12T10:01:57.679Z</time></trkpt><trkpt lat="43.6259982" lon="12.3001608"><ele>534.5</ele><time>2026-04-12T10:01:58.704Z</time></trkpt><trkpt lat="43.6258146" lon="12.2999464"><ele>531.0</ele><time>2026-04-12T10:01:59.678Z</time></trkpt><trkpt lat="43.6256475" lon="12.2997316"><ele>531.0</ele><time>2026-04-12T10:02:00.772Z</time></trkpt><trkpt lat="43.6254841" lon="12.2995433"><ele>531.0</ele><time>2026-04-12T10:02:01.694Z</time></trkpt><trkpt lat="43.6253097" lon="12.2993674"><ele>531.0</ele><time>2026-04-12T10:02:02.71Z</time></trkpt><trkpt lat="43.6251363" lon="12.2992061"><ele>531.5</ele><time>2026-04-12T10:02:03.706Z</time></trkpt><trkpt lat="43.6247835" lon="12.2989793"><ele>532.0</ele><time>2026-04-12T10:02:05.701Z</time></trkpt><trkpt lat="43.6245788" lon="12.2988996"><ele>526.3333333333334</ele><time>2026-04-12T10:02:06.693Z</time></trkpt><trkpt lat="43.6243736" lon="12.2988272"><ele>520.6666666666666</ele><time>2026-04-12T10:02:07.723Z</time></trkpt><trkpt lat="43.624194" lon="12.2987694"><ele>515.0</ele><time>2026-04-12T10:02:08.68Z</time></trkpt><trkpt lat="43.6240413" lon="12.29871"><ele>515.0</ele><time>2026-04-12T10:02:09.707Z</time></trkpt><trkpt lat="43.6239" lon="12.2986375"><ele>515.0</ele><time>2026-04-12T10:02:10.699Z</time></trkpt><trkpt lat="43.6237969" lon="12.2985367"><ele>515.0</ele><time>2026-04-12T10:02:11.757Z</time></trkpt><trkpt lat="43.6237292" lon="12.2983817"><ele>515.0</ele><time>2026-04-12T10:02:12.68Z</time></trkpt><trkpt lat="43.6236875" lon="12.2981934"><ele>515.3333333333333</ele><time>2026-04-12T10:02:13.698Z</time></trkpt><trkpt lat="43.6236545" lon="12.2979697"><ele>515.6666666666666</ele><time>2026-04-12T10:02:14.683Z</time></trkpt><trkpt lat="43.6236244" lon="12.297741"><ele>516.0</ele><time>2026-04-12T10:02:15.693Z</time></trkpt><trkpt lat="43.6235739" lon="12.297532"><ele>516.0</ele><time>2026-04-12T10:02:16.705Z</time></trkpt><trkpt lat="43.6234969" lon="12.2973539"><ele>516.0</ele><time>2026-04-12T10:02:17.687Z</time></trkpt><trkpt lat="43.6234017" lon="12.2971884"><ele>516.0</ele><time>2026-04-12T10:02:18.708Z</time></trkpt><trkpt lat="43.6232719" lon="12.2970608"><ele>516.3333333333334</ele><time>2026-04-12T10:02:19.703Z</time></trkpt><trkpt lat="43.623097" lon="12.2969497"><ele>516.6666666666667</ele><time>2026-04-12T10:02:20.704Z</time></trkpt><trkpt lat="43.6228901" lon="12.2968494"><ele>517.0</ele><time>2026-04-12T10:02:21.702Z</time></trkpt><trkpt lat="43.6227226" lon="12.2967698"><ele>517.0</ele><time>2026-04-12T10:02:22.693Z</time></trkpt><trkpt lat="43.6225592" lon="12.2967039"><ele>517.0</ele><time>2026-04-12T10:02:23.696Z</time></trkpt><trkpt lat="43.6224142" lon="12.2965983"><ele>517.0</ele><time>2026-04-12T10:02:24.693Z</time></trkpt><trkpt lat="43.6221901" lon="12.2962957"><ele>519.0</ele><time>2026-04-12T10:02:26.683Z</time></trkpt><trkpt lat="43.6221024" lon="12.2960884"><ele>521.0</ele><time>2026-04-12T10:02:27.718Z</time></trkpt><trkpt lat="43.6219937" lon="12.2958971"><ele>523.0</ele><time>2026-04-12T10:02:28.699Z</time></trkpt><trkpt lat="43.6218567" lon="12.2957304"><ele>526.6666666666667</ele><time>2026-04-12T10:02:29.682Z</time></trkpt><trkpt lat="43.6217078" lon="12.2955615"><ele>530.3333333333334</ele><time>2026-04-12T10:02:30.685Z</time></trkpt><trkpt lat="43.621553" lon="12.2953994"><ele>534.0</ele><time>2026-04-12T10:02:31.691Z</time></trkpt><trkpt lat="43.621405" lon="12.2952574"><ele>534.0</ele><time>2026-04-12T10:02:32.685Z</time></trkpt><trkpt lat="43.6212655" lon="12.2951051"><ele>534.0</ele><time>2026-04-12T10:02:33.687Z</time></trkpt><trkpt lat="43.6211339" lon="12.2949298"><ele>534.0</ele><time>2026-04-12T10:02:34.724Z</time></trkpt><trkpt lat="43.6210422" lon="12.2947548"><ele>534.25</ele><time>2026-04-12T10:02:35.681Z</time></trkpt><trkpt lat="43.6209751" lon="12.2945759"><ele>534.5</ele><time>2026-04-12T10:02:36.682Z</time></trkpt><trkpt lat="43.6209304" lon="12.2943949"><ele>534.75</ele><time>2026-04-12T10:02:37.682Z</time></trkpt><trkpt lat="43.6209103" lon="12.294202"><ele>535.0</ele><time>2026-04-12T10:02:38.676Z</time></trkpt><trkpt lat="43.6208935" lon="12.2940156"><ele>539.75</ele><time>2026-04-12T10:02:39.675Z</time></trkpt><trkpt lat="43.6208527" lon="12.2938613"><ele>544.5</ele><time>2026-04-12T10:02:40.692Z</time></trkpt><trkpt lat="43.6207449" lon="12.2937402"><ele>549.25</ele><time>2026-04-12T10:02:41.697Z</time></trkpt><trkpt lat="43.6205866" lon="12.29363"><ele>554.0</ele><time>2026-04-12T10:02:42.683Z</time></trkpt><trkpt lat="43.6203941" lon="12.2935211"><ele>548.6666666666666</ele><time>2026-04-12T10:02:43.681Z</time></trkpt><trkpt lat="43.6202204" lon="12.2934131"><ele>543.3333333333334</ele><time>2026-04-12T10:02:44.691Z</time></trkpt><trkpt lat="43.6200632" lon="12.2932998"><ele>538.0</ele><time>2026-04-12T10:02:45.702Z</time></trkpt><trkpt lat="43.6197337" lon="12.2931719"><ele>538.0</ele><time>2026-04-12T10:02:47.688Z</time></trkpt><trkpt lat="43.6195366" lon="12.2931473"><ele>538.0</ele><time>2026-04-12T10:02:48.68Z</time></trkpt><trkpt lat="43.619327" lon="12.2931228"><ele>538.0</ele><time>2026-04-12T10:02:49.71Z</time></trkpt><trkpt lat="43.6191172" lon="12.2930896"><ele>546.3333333333334</ele><time>2026-04-12T10:02:50.689Z</time></trkpt><trkpt lat="43.6189001" lon="12.2930529"><ele>554.6666666666666</ele><time>2026-04-12T10:02:51.688Z</time></trkpt><trkpt lat="43.6186966" lon="12.2930369"><ele>563.0</ele><time>2026-04-12T10:02:52.7Z</time></trkpt><trkpt lat="43.6185105" lon="12.2930471"><ele>554.6666666666666</ele><time>2026-04-12T10:02:53.712Z</time></trkpt><trkpt lat="43.6183495" lon="12.2930936"><ele>546.3333333333334</ele><time>2026-04-12T10:02:54.686Z</time></trkpt><trkpt lat="43.6182058" lon="12.293146"><ele>538.0</ele><time>2026-04-12T10:02:55.696Z</time></trkpt><trkpt lat="43.6180609" lon="12.29319"><ele>538.0</ele><time>2026-04-12T10:02:56.687Z</time></trkpt><trkpt lat="43.6179341" lon="12.2932029"><ele>538.0</ele><time>2026-04-12T10:02:57.694Z</time></trkpt><trkpt lat="43.6178131" lon="12.2931831"><ele>538.0</ele><time>2026-04-12T10:02:58.677Z</time></trkpt><trkpt lat="43.6177002" lon="12.293127"><ele>538.0</ele><time>2026-04-12T10:02:59.68Z</time></trkpt><trkpt lat="43.6176314" lon="12.2930032"><ele>539.8333333333334</ele><time>2026-04-12T10:03:00.676Z</time></trkpt><trkpt lat="43.617568" lon="12.2928856"><ele>541.6666666666667</ele><time>2026-04-12T10:03:01.661Z</time></trkpt><trkpt lat="43.6175252" lon="12.2927712"><ele>543.5</ele><time>2026-04-12T10:03:02.68Z</time></trkpt><trkpt lat="43.6174825" lon="12.2926794"><ele>545.3333333333334</ele><time>2026-04-12T10:03:03.685Z</time></trkpt><trkpt lat="43.617436" lon="12.2926202"><ele>547.1666666666666</ele><time>2026-04-12T10:03:04.68Z</time></trkpt><trkpt lat="43.6173658" lon="12.2926154"><ele>549.0</ele><time>2026-04-12T10:03:05.684Z</time></trkpt><trkpt lat="43.6172822" lon="12.2926544"><ele>549.0</ele><time>2026-04-12T10:03:06.68Z</time></trkpt><trkpt lat="43.6170851" lon="12.2928253"><ele>549.0</ele><time>2026-04-12T10:03:08.682Z</time></trkpt><trkpt lat="43.6169799" lon="12.2929068"><ele>549.0</ele><time>2026-04-12T10:03:09.684Z</time></trkpt><trkpt lat="43.6168611" lon="12.2929847"><ele>546.5</ele><time>2026-04-12T10:03:10.685Z</time></trkpt><trkpt lat="43.6167294" lon="12.2930409"><ele>544.0</ele><time>2026-04-12T10:03:11.698Z</time></trkpt><trkpt lat="43.6165794" lon="12.2930491"><ele>541.5</ele><time>2026-04-12T10:03:12.69Z</time></trkpt><trkpt lat="43.6164257" lon="12.2930238"><ele>539.0</ele><time>2026-04-12T10:03:13.669Z</time></trkpt><trkpt lat="43.6162788" lon="12.2930131"><ele>540.25</ele><time>2026-04-12T10:03:14.69Z</time></trkpt><trkpt lat="43.6161318" lon="12.2930105"><ele>541.5</ele><time>2026-04-12T10:03:15.695Z</time></trkpt><trkpt lat="43.6159931" lon="12.2930215"><ele>542.75</ele><time>2026-04-12T10:03:16.697Z</time></trkpt><trkpt lat="43.6158601" lon="12.2930155"><ele>544.0</ele><time>2026-04-12T10:03:17.698Z</time></trkpt><trkpt lat="43.6157126" lon="12.292965"><ele>544.0</ele><time>2026-04-12T10:03:18.692Z</time></trkpt><trkpt lat="43.61558" lon="12.292874"><ele>544.0</ele><time>2026-04-12T10:03:19.767Z</time></trkpt><trkpt lat="43.6155057" lon="12.2927285"><ele>544.0</ele><time>2026-04-12T10:03:20.675Z</time></trkpt><trkpt lat="43.6154306" lon="12.2925765"><ele>544.0</ele><time>2026-04-12T10:03:21.691Z</time></trkpt><trkpt lat="43.6153429" lon="12.2924456"><ele>547.0</ele><time>2026-04-12T10:03:22.679Z</time></trkpt><trkpt lat="43.6152575" lon="12.2923398"><ele>550.0</ele><time>2026-04-12T10:03:23.689Z</time></trkpt><trkpt lat="43.6151559" lon="12.2922986"><ele>553.0</ele><time>2026-04-12T10:03:24.685Z</time></trkpt><trkpt lat="43.6150169" lon="12.2922992"><ele>556.0</ele><time>2026-04-12T10:03:25.69Z</time></trkpt><trkpt lat="43.6148873" lon="12.2923095"><ele>556.0</ele><time>2026-04-12T10:03:26.681Z</time></trkpt><trkpt lat="43.6147675" lon="12.2923228"><ele>556.0</ele><time>2026-04-12T10:03:27.689Z</time></trkpt><trkpt lat="43.6145598" lon="12.2925203"><ele>556.0</ele><time>2026-04-12T10:03:29.669Z</time></trkpt><trkpt lat="43.6144673" lon="12.2926954"><ele>555.6666666666667</ele><time>2026-04-12T10:03:30.678Z</time></trkpt><trkpt lat="43.6144023" lon="12.2929003"><ele>555.3333333333334</ele><time>2026-04-12T10:03:31.682Z</time></trkpt><trkpt lat="43.6143293" lon="12.2931104"><ele>555.0</ele><time>2026-04-12T10:03:32.685Z</time></trkpt><trkpt lat="43.6142656" lon="12.2932784"><ele>557.4</ele><time>2026-04-12T10:03:33.686Z</time></trkpt><trkpt lat="43.6142023" lon="12.2934162"><ele>559.8</ele><time>2026-04-12T10:03:34.681Z</time></trkpt><trkpt lat="43.6141528" lon="12.2935452"><ele>562.2</ele><time>2026-04-12T10:03:35.7Z</time></trkpt><trkpt lat="43.6141441" lon="12.2936382"><ele>564.6</ele><time>2026-04-12T10:03:36.687Z</time></trkpt><trkpt lat="43.6142243" lon="12.2937644"><ele>567.0</ele><time>2026-04-12T10:03:38.687Z</time></trkpt><trkpt lat="43.614302" lon="12.2937917"><ele>567.0</ele><time>2026-04-12T10:03:39.681Z</time></trkpt><trkpt lat="43.6144045" lon="12.2938047"><ele>567.0</ele><time>2026-04-12T10:03:40.7Z</time></trkpt><trkpt lat="43.6145197" lon="12.2938088"><ele>567.0</ele><time>2026-04-12T10:03:41.701Z</time></trkpt><trkpt lat="43.6146326" lon="12.2938231"><ele>567.0</ele><time>2026-04-12T10:03:42.68Z</time></trkpt><trkpt lat="43.6147276" lon="12.2938682"><ele>567.0</ele><time>2026-04-12T10:03:43.756Z</time></trkpt><trkpt lat="43.6147963" lon="12.2939369"><ele>570.4</ele><time>2026-04-12T10:03:44.683Z</time></trkpt><trkpt lat="43.6148287" lon="12.2940339"><ele>573.8000000000001</ele><time>2026-04-12T10:03:45.693Z</time></trkpt><trkpt lat="43.6147536" lon="12.2941997"><ele>577.2</ele><time>2026-04-12T10:03:47.68Z</time></trkpt><trkpt lat="43.6146743" lon="12.2942527"><ele>580.6</ele><time>2026-04-12T10:03:48.696Z</time></trkpt><trkpt lat="43.6145543" lon="12.2943441"><ele>584.0</ele><time>2026-04-12T10:03:50.687Z</time></trkpt><trkpt lat="43.6144982" lon="12.2944295"><ele>583.75</ele><time>2026-04-12T10:03:51.698Z</time></trkpt><trkpt lat="43.6144269" lon="12.2945441"><ele>583.5</ele><time>2026-04-12T10:03:52.679Z</time></trkpt><trkpt lat="43.6143282" lon="12.2946368"><ele>583.25</ele><time>2026-04-12T10:03:53.684Z</time></trkpt><trkpt lat="43.6142034" lon="12.2947156"><ele>583.0</ele><time>2026-04-12T10:03:54.696Z</time></trkpt><trkpt lat="43.6140624" lon="12.2947933"><ele>588.0</ele><time>2026-04-12T10:03:55.692Z</time></trkpt><trkpt lat="43.6139127" lon="12.294887"><ele>593.0</ele><time>2026-04-12T10:03:56.724Z</time></trkpt><trkpt lat="43.6137734" lon="12.2949796"><ele>598.0</ele><time>2026-04-12T10:03:57.69Z</time></trkpt><trkpt lat="43.6136393" lon="12.2950642"><ele>598.0</ele><time>2026-04-12T10:03:58.691Z</time></trkpt><trkpt lat="43.6135089" lon="12.2951327"><ele>598.0</ele><time>2026-04-12T10:03:59.691Z</time></trkpt><trkpt lat="43.6133788" lon="12.2951694"><ele>598.0</ele><time>2026-04-12T10:04:00.693Z</time></trkpt><trkpt lat="43.6132458" lon="12.2951775"><ele>598.0</ele><time>2026-04-12T10:04:01.672Z</time></trkpt><trkpt lat="43.613124" lon="12.2951763"><ele>598.0</ele><time>2026-04-12T10:04:02.699Z</time></trkpt><trkpt lat="43.6130244" lon="12.295175"><ele>598.0</ele><time>2026-04-12T10:04:03.693Z</time></trkpt><trkpt lat="43.6129535" lon="12.295205"><ele>598.0</ele><time>2026-04-12T10:04:04.696Z</time></trkpt><trkpt lat="43.6129009" lon="12.2953437"><ele>598.0</ele><time>2026-04-12T10:04:06.769Z</time></trkpt><trkpt lat="43.6129721" lon="12.2954885"><ele>598.0</ele><time>2026-04-12T10:04:08.696Z</time></trkpt><trkpt lat="43.6130489" lon="12.2955273"><ele>598.0</ele><time>2026-04-12T10:04:09.703Z</time></trkpt><trkpt lat="43.6132585" lon="12.295558"><ele>598.0</ele><time>2026-04-12T10:04:11.705Z</time></trkpt><trkpt lat="43.6133607" lon="12.2955604"><ele>598.0</ele><time>2026-04-12T10:04:12.706Z</time></trkpt><trkpt lat="43.61345" lon="12.2955914"><ele>598.0</ele><time>2026-04-12T10:04:13.692Z</time></trkpt><trkpt lat="43.6135168" lon="12.2956736"><ele>601.3333333333334</ele><time>2026-04-12T10:04:14.744Z</time></trkpt><trkpt lat="43.6135803" lon="12.2957671"><ele>604.6666666666667</ele><time>2026-04-12T10:04:15.682Z</time></trkpt><trkpt lat="43.6136152" lon="12.295875"><ele>608.0</ele><time>2026-04-12T10:04:16.725Z</time></trkpt><trkpt lat="43.6135845" lon="12.2959901"><ele>611.3333333333334</ele><time>2026-04-12T10:04:17.683Z</time></trkpt><trkpt lat="43.6135234" lon="12.296079"><ele>614.6666666666666</ele><time>2026-04-12T10:04:18.686Z</time></trkpt><trkpt lat="43.6134444" lon="12.296142"><ele>618.0</ele><time>2026-04-12T10:04:19.699Z</time></trkpt><trkpt lat="43.6133364" lon="12.2961792"><ele>618.0</ele><time>2026-04-12T10:04:20.699Z</time></trkpt><trkpt lat="43.6132222" lon="12.2962019"><ele>618.0</ele><time>2026-04-12T10:04:21.68Z</time></trkpt><trkpt lat="43.6131045" lon="12.2962105"><ele>618.0</ele><time>2026-04-12T10:04:22.72Z</time></trkpt><trkpt lat="43.6129991" lon="12.2962261"><ele>618.0</ele><time>2026-04-12T10:04:23.715Z</time></trkpt><trkpt lat="43.6128949" lon="12.2962691"><ele>618.0</ele><time>2026-04-12T10:04:24.698Z</time></trkpt><trkpt lat="43.6127776" lon="12.2963536"><ele>623.0</ele><time>2026-04-12T10:04:25.705Z</time></trkpt><trkpt lat="43.612657" lon="12.2964739"><ele>628.0</ele><time>2026-04-12T10:04:26.692Z</time></trkpt><trkpt lat="43.6125264" lon="12.296601"><ele>633.0</ele><time>2026-04-12T10:04:27.694Z</time></trkpt><trkpt lat="43.6123918" lon="12.2967239"><ele>633.0</ele><time>2026-04-12T10:04:28.775Z</time></trkpt><trkpt lat="43.6122707" lon="12.296833"><ele>633.0</ele><time>2026-04-12T10:04:29.685Z</time></trkpt><trkpt lat="43.612163" lon="12.2969247"><ele>633.0</ele><time>2026-04-12T10:04:30.701Z</time></trkpt><trkpt lat="43.6119954" lon="12.2970661"><ele>634.4</ele><time>2026-04-12T10:04:32.682Z</time></trkpt><trkpt lat="43.6119481" lon="12.2971285"><ele>635.8</ele><time>2026-04-12T10:04:33.683Z</time></trkpt><trkpt lat="43.6119485" lon="12.2972704"><ele>637.2</ele><time>2026-04-12T10:04:35.687Z</time></trkpt><trkpt lat="43.61206" lon="12.2973415"><ele>638.6</ele><time>2026-04-12T10:04:37.677Z</time></trkpt><trkpt lat="43.6121508" lon="12.2973153"><ele>640.0</ele><time>2026-04-12T10:04:38.683Z</time></trkpt><trkpt lat="43.6122565" lon="12.2972633"><ele>638.25</ele><time>2026-04-12T10:04:39.751Z</time></trkpt><trkpt lat="43.6123663" lon="12.2971956"><ele>636.5</ele><time>2026-04-12T10:04:40.693Z</time></trkpt><trkpt lat="43.6125043" lon="12.2971521"><ele>634.75</ele><time>2026-04-12T10:04:41.687Z</time></trkpt><trkpt lat="43.6126532" lon="12.2971051"><ele>633.0</ele><time>2026-04-12T10:04:42.693Z</time></trkpt><trkpt lat="43.6127819" lon="12.2970647"><ele>634.0</ele><time>2026-04-12T10:04:43.686Z</time></trkpt><trkpt lat="43.6128982" lon="12.2970426"><ele>635.0</ele><time>2026-04-12T10:04:44.698Z</time></trkpt><trkpt lat="43.6130064" lon="12.2970228"><ele>636.0</ele><time>2026-04-12T10:04:45.689Z</time></trkpt><trkpt lat="43.6131079" lon="12.2970059"><ele>637.0</ele><time>2026-04-12T10:04:46.688Z</time></trkpt><trkpt lat="43.6131994" lon="12.2970097"><ele>638.0</ele><time>2026-04-12T10:04:47.679Z</time></trkpt><trkpt lat="43.6132746" lon="12.2970541"><ele>638.0</ele><time>2026-04-12T10:04:48.698Z</time></trkpt><trkpt lat="43.6133418" lon="12.2971118"><ele>638.0</ele><time>2026-04-12T10:04:49.681Z</time></trkpt><trkpt lat="43.6134018" lon="12.2971756"><ele>638.0</ele><time>2026-04-12T10:04:50.774Z</time></trkpt><trkpt lat="43.6134613" lon="12.2972927"><ele>638.0</ele><time>2026-04-12T10:04:52.711Z</time></trkpt><trkpt lat="43.613343" lon="12.2975284"><ele>641.0</ele><time>2026-04-12T10:04:55.705Z</time></trkpt><trkpt lat="43.6132583" lon="12.2975673"><ele>644.0</ele><time>2026-04-12T10:04:56.71Z</time></trkpt><trkpt lat="43.6131652" lon="12.2975795"><ele>647.0</ele><time>2026-04-12T10:04:57.7Z</time></trkpt><trkpt lat="43.6130714" lon="12.2975787"><ele>650.0</ele><time>2026-04-12T10:04:58.78Z</time></trkpt><trkpt lat="43.6129764" lon="12.2975856"><ele>653.0</ele><time>2026-04-12T10:04:59.759Z</time></trkpt><trkpt lat="43.6128754" lon="12.2976099"><ele>653.5</ele><time>2026-04-12T10:05:00.773Z</time></trkpt><trkpt lat="43.6127762" lon="12.2976423"><ele>654.0</ele><time>2026-04-12T10:05:01.711Z</time></trkpt><trkpt lat="43.6126843" lon="12.297711"><ele>654.5</ele><time>2026-04-12T10:05:02.703Z</time></trkpt><trkpt lat="43.6126203" lon="12.297797"><ele>655.0</ele><time>2026-04-12T10:05:03.689Z</time></trkpt><trkpt lat="43.6125971" lon="12.2978875"><ele>655.5</ele><time>2026-04-12T10:05:04.702Z</time></trkpt><trkpt lat="43.61261" lon="12.2979827"><ele>656.0</ele><time>2026-04-12T10:05:05.705Z</time></trkpt><trkpt lat="43.6126596" lon="12.298072"><ele>657.5</ele><time>2026-04-12T10:05:06.706Z</time></trkpt><trkpt lat="43.6127308" lon="12.2981805"><ele>659.0</ele><time>2026-04-12T10:05:07.687Z</time></trkpt><trkpt lat="43.6128304" lon="12.2983155"><ele>660.5</ele><time>2026-04-12T10:05:08.7Z</time></trkpt><trkpt lat="43.6129301" lon="12.2984835"><ele>662.0</ele><time>2026-04-12T10:05:09.703Z</time></trkpt><trkpt lat="43.6130174" lon="12.2986421"><ele>662.0</ele><time>2026-04-12T10:05:10.684Z</time></trkpt><trkpt lat="43.6130755" lon="12.2987654"><ele>662.0</ele><time>2026-04-12T10:05:11.744Z</time></trkpt><trkpt lat="43.6130979" lon="12.2989031"><ele>662.0</ele><time>2026-04-12T10:05:12.764Z</time></trkpt><trkpt lat="43.6130952" lon="12.2990785"><ele>662.0</ele><time>2026-04-12T10:05:13.683Z</time></trkpt><trkpt lat="43.6130796" lon="12.2994448"><ele>664.75</ele><time>2026-04-12T10:05:15.689Z</time></trkpt><trkpt lat="43.6130995" lon="12.2996003"><ele>667.5</ele><time>2026-04-12T10:05:16.702Z</time></trkpt><trkpt lat="43.6131479" lon="12.2997378"><ele>670.25</ele><time>2026-04-12T10:05:17.692Z</time></trkpt><trkpt lat="43.6132245" lon="12.2998501"><ele>673.0</ele><time>2026-04-12T10:05:18.699Z</time></trkpt><trkpt lat="43.6133259" lon="12.2999185"><ele>675.0</ele><time>2026-04-12T10:05:19.697Z</time></trkpt><trkpt lat="43.6134359" lon="12.2999725"><ele>677.0</ele><time>2026-04-12T10:05:20.695Z</time></trkpt><trkpt lat="43.613543" lon="12.3000092"><ele>679.0</ele><time>2026-04-12T10:05:21.699Z</time></trkpt><trkpt lat="43.6136059" lon="12.3000941"><ele>681.0</ele><time>2026-04-12T10:05:22.778Z</time></trkpt><trkpt lat="43.6136244" lon="12.3002371"><ele>683.0</ele><time>2026-04-12T10:05:23.754Z</time></trkpt><trkpt lat="43.6136341" lon="12.3004217"><ele>678.6666666666666</ele><time>2026-04-12T10:05:24.718Z</time></trkpt><trkpt lat="43.613679" lon="12.3006318"><ele>674.3333333333334</ele><time>2026-04-12T10:05:25.676Z</time></trkpt><trkpt lat="43.6137364" lon="12.3008423"><ele>670.0</ele><time>2026-04-12T10:05:26.695Z</time></trkpt><trkpt lat="43.6137794" lon="12.3010205"><ele>670.0</ele><time>2026-04-12T10:05:27.694Z</time></trkpt><trkpt lat="43.6138053" lon="12.3011953"><ele>670.0</ele><time>2026-04-12T10:05:28.704Z</time></trkpt><trkpt lat="43.6138054" lon="12.3013618"><ele>670.0</ele><time>2026-04-12T10:05:29.699Z</time></trkpt><trkpt lat="43.6137658" lon="12.3015293"><ele>670.0</ele><time>2026-04-12T10:05:30.696Z</time></trkpt><trkpt lat="43.6136895" lon="12.3017181"><ele>681.3333333333334</ele><time>2026-04-12T10:05:31.694Z</time></trkpt><trkpt lat="43.6136327" lon="12.3019851"><ele>692.6666666666666</ele><time>2026-04-12T10:05:32.707Z</time></trkpt><trkpt lat="43.6135854" lon="12.3022764"><ele>704.0</ele><time>2026-04-12T10:05:33.759Z</time></trkpt><trkpt lat="43.6135586" lon="12.3025173"><ele>704.0</ele><time>2026-04-12T10:05:34.762Z</time></trkpt><trkpt lat="43.6135616" lon="12.3028473"><ele>704.0</ele><time>2026-04-12T10:05:36.709Z</time></trkpt><trkpt lat="43.6135243" lon="12.3029654"><ele>704.0</ele><time>2026-04-12T10:05:37.703Z</time></trkpt><trkpt lat="43.6134835" lon="12.3030785"><ele>704.0</ele><time>2026-04-12T10:05:38.718Z</time></trkpt><trkpt lat="43.6134459" lon="12.3031772"><ele>704.0</ele><time>2026-04-12T10:05:39.71Z</time></trkpt><trkpt lat="43.6134048" lon="12.303245"><ele>704.0</ele><time>2026-04-12T10:05:40.69Z</time></trkpt><trkpt lat="43.6132944" lon="12.3032604"><ele>704.0</ele><time>2026-04-12T10:05:42.693Z</time></trkpt><trkpt lat="43.6132215" lon="12.3031758"><ele>704.0</ele><time>2026-04-12T10:05:43.766Z</time></trkpt><trkpt lat="43.6131905" lon="12.3030367"><ele>704.0</ele><time>2026-04-12T10:05:44.693Z</time></trkpt><trkpt lat="43.6131811" lon="12.3028984"><ele>704.0</ele><time>2026-04-12T10:05:45.708Z</time></trkpt><trkpt lat="43.6131915" lon="12.3027235"><ele>704.0</ele><time>2026-04-12T10:05:46.707Z</time></trkpt><trkpt lat="43.6132059" lon="12.3025232"><ele>704.0</ele><time>2026-04-12T10:05:47.683Z</time></trkpt><trkpt lat="43.6132238" lon="12.3023499"><ele>704.0</ele><time>2026-04-12T10:05:48.703Z</time></trkpt><trkpt lat="43.6132163" lon="12.3022215"><ele>704.0</ele><time>2026-04-12T10:05:49.68Z</time></trkpt><trkpt lat="43.6131755" lon="12.3020946"><ele>704.0</ele><time>2026-04-12T10:05:50.705Z</time></trkpt><trkpt lat="43.613108" lon="12.3019873"><ele>704.0</ele><time>2026-04-12T10:05:51.696Z</time></trkpt><trkpt lat="43.6130286" lon="12.301876"><ele>704.0</ele><time>2026-04-12T10:05:52.688Z</time></trkpt><trkpt lat="43.6129418" lon="12.3017662"><ele>704.0</ele><time>2026-04-12T10:05:53.71Z</time></trkpt><trkpt lat="43.6128429" lon="12.3016506"><ele>708.25</ele><time>2026-04-12T10:05:54.695Z</time></trkpt><trkpt lat="43.612746" lon="12.3015477"><ele>712.5</ele><time>2026-04-12T10:05:55.722Z</time></trkpt><trkpt lat="43.6125778" lon="12.3014781"><ele>716.75</ele><time>2026-04-12T10:05:57.77Z</time></trkpt><trkpt lat="43.6124912" lon="12.3015251"><ele>721.0</ele><time>2026-04-12T10:05:58.687Z</time></trkpt><trkpt lat="43.612369" lon="12.3015742"><ele>721.0</ele><time>2026-04-12T10:05:59.702Z</time></trkpt><trkpt lat="43.6122464" lon="12.3015727"><ele>721.0</ele><time>2026-04-12T10:06:00.691Z</time></trkpt><trkpt lat="43.6121249" lon="12.3015308"><ele>721.0</ele><time>2026-04-12T10:06:01.694Z</time></trkpt><trkpt lat="43.6120243" lon="12.3014645"><ele>721.0</ele><time>2026-04-12T10:06:02.692Z</time></trkpt><trkpt lat="43.611962" lon="12.3013926"><ele>721.0</ele><time>2026-04-12T10:06:03.697Z</time></trkpt><trkpt lat="43.6119337" lon="12.3012886"><ele>721.3333333333334</ele><time>2026-04-12T10:06:04.706Z</time></trkpt><trkpt lat="43.6119356" lon="12.3011783"><ele>721.6666666666667</ele><time>2026-04-12T10:06:05.723Z</time></trkpt><trkpt lat="43.6119646" lon="12.3010552"><ele>722.0</ele><time>2026-04-12T10:06:06.711Z</time></trkpt><trkpt lat="43.6119886" lon="12.300935"><ele>722.3333333333334</ele><time>2026-04-12T10:06:07.707Z</time></trkpt><trkpt lat="43.6119875" lon="12.3007965"><ele>722.6666666666666</ele><time>2026-04-12T10:06:08.717Z</time></trkpt><trkpt lat="43.6119394" lon="12.3007338"><ele>723.0</ele><time>2026-04-12T10:06:09.694Z</time></trkpt><trkpt lat="43.6118653" lon="12.3007272"><ele>723.0</ele><time>2026-04-12T10:06:10.729Z</time></trkpt><trkpt lat="43.611783" lon="12.3007576"><ele>723.0</ele><time>2026-04-12T10:06:11.713Z</time></trkpt><trkpt lat="43.6116982" lon="12.3008094"><ele>723.0</ele><time>2026-04-12T10:06:12.708Z</time></trkpt><trkpt lat="43.6116163" lon="12.3008806"><ele>723.0</ele><time>2026-04-12T10:06:13.69Z</time></trkpt><trkpt lat="43.6115014" lon="12.3009777"><ele>723.0</ele><time>2026-04-12T10:06:14.689Z</time></trkpt><trkpt lat="43.6113673" lon="12.3010991"><ele>723.0</ele><time>2026-04-12T10:06:15.682Z</time></trkpt><trkpt lat="43.6112123" lon="12.301244"><ele>723.0</ele><time>2026-04-12T10:06:16.713Z</time></trkpt><trkpt lat="43.6108915" lon="12.3014902"><ele>726.5999999999999</ele><time>2026-04-12T10:06:18.697Z</time></trkpt><trkpt lat="43.6107828" lon="12.3015637"><ele>730.1999999999999</ele><time>2026-04-12T10:06:19.701Z</time></trkpt><trkpt lat="43.6106931" lon="12.3016394"><ele>733.8</ele><time>2026-04-12T10:06:20.691Z</time></trkpt><trkpt lat="43.6106303" lon="12.301741"><ele>737.4</ele><time>2026-04-12T10:06:21.718Z</time></trkpt><trkpt lat="43.6105808" lon="12.3018639"><ele>741.0</ele><time>2026-04-12T10:06:22.718Z</time></trkpt><trkpt lat="43.6105376" lon="12.3020117"><ele>741.0</ele><time>2026-04-12T10:06:23.678Z</time></trkpt><trkpt lat="43.6104904" lon="12.3021778"><ele>741.0</ele><time>2026-04-12T10:06:24.708Z</time></trkpt><trkpt lat="43.6104571" lon="12.3023298"><ele>741.0</ele><time>2026-04-12T10:06:25.691Z</time></trkpt><trkpt lat="43.6104609" lon="12.3024582"><ele>741.0</ele><time>2026-04-12T10:06:26.716Z</time></trkpt><trkpt lat="43.610505" lon="12.3025941"><ele>741.0</ele><time>2026-04-12T10:06:27.702Z</time></trkpt><trkpt lat="43.6105536" lon="12.3027231"><ele>743.4</ele><time>2026-04-12T10:06:28.734Z</time></trkpt><trkpt lat="43.6105721" lon="12.3028593"><ele>745.8</ele><time>2026-04-12T10:06:29.698Z</time></trkpt><trkpt lat="43.6105488" lon="12.3029925"><ele>748.1999999999999</ele><time>2026-04-12T10:06:30.687Z</time></trkpt><trkpt lat="43.6105075" lon="12.3031155"><ele>750.5999999999999</ele><time>2026-04-12T10:06:31.695Z</time></trkpt><trkpt lat="43.6104807" lon="12.3032474"><ele>753.0</ele><time>2026-04-12T10:06:32.696Z</time></trkpt><trkpt lat="43.6104872" lon="12.3034"><ele>754.5999999999999</ele><time>2026-04-12T10:06:33.721Z</time></trkpt><trkpt lat="43.6104983" lon="12.3035709"><ele>756.1999999999999</ele><time>2026-04-12T10:06:34.695Z</time></trkpt><trkpt lat="43.6104839" lon="12.3037275"><ele>757.8</ele><time>2026-04-12T10:06:35.709Z</time></trkpt><trkpt lat="43.6104317" lon="12.3038418"><ele>759.4</ele><time>2026-04-12T10:06:36.688Z</time></trkpt><trkpt lat="43.6103643" lon="12.3039501"><ele>761.0</ele><time>2026-04-12T10:06:37.716Z</time></trkpt><trkpt lat="43.6102259" lon="12.3042496"><ele>761.0</ele><time>2026-04-12T10:06:39.704Z</time></trkpt><trkpt lat="43.6101635" lon="12.3044351"><ele>761.0</ele><time>2026-04-12T10:06:40.791Z</time></trkpt><trkpt lat="43.6100941" lon="12.3046009"><ele>761.0</ele><time>2026-04-12T10:06:41.701Z</time></trkpt><trkpt lat="43.6100189" lon="12.30473"><ele>761.0</ele><time>2026-04-12T10:06:42.704Z</time></trkpt><trkpt lat="43.6099283" lon="12.3048274"><ele>764.1999999999999</ele><time>2026-04-12T10:06:43.678Z</time></trkpt><trkpt lat="43.609851" lon="12.3049369"><ele>767.4</ele><time>2026-04-12T10:06:44.711Z</time></trkpt><trkpt lat="43.609805" lon="12.3050741"><ele>770.6</ele><time>2026-04-12T10:06:45.691Z</time></trkpt><trkpt lat="43.6097653" lon="12.3052223"><ele>773.8</ele><time>2026-04-12T10:06:46.695Z</time></trkpt><trkpt lat="43.6097218" lon="12.3053668"><ele>777.0</ele><time>2026-04-12T10:06:47.726Z</time></trkpt><trkpt lat="43.6096579" lon="12.3054811"><ele>777.0</ele><time>2026-04-12T10:06:48.693Z</time></trkpt><trkpt lat="43.6095734" lon="12.3055682"><ele>777.0</ele><time>2026-04-12T10:06:49.716Z</time></trkpt><trkpt lat="43.609468" lon="12.3056255"><ele>777.0</ele><time>2026-04-12T10:06:50.707Z</time></trkpt><trkpt lat="43.6093443" lon="12.3056456"><ele>777.0</ele><time>2026-04-12T10:06:51.708Z</time></trkpt><trkpt lat="43.6092283" lon="12.3056302"><ele>779.0</ele><time>2026-04-12T10:06:52.697Z</time></trkpt><trkpt lat="43.6091194" lon="12.3056329"><ele>781.0</ele><time>2026-04-12T10:06:53.712Z</time></trkpt><trkpt lat="43.6090325" lon="12.3056839"><ele>783.0</ele><time>2026-04-12T10:06:54.697Z</time></trkpt><trkpt lat="43.6089783" lon="12.3057756"><ele>785.0</ele><time>2026-04-12T10:06:55.713Z</time></trkpt><trkpt lat="43.608969" lon="12.3059057"><ele>787.0</ele><time>2026-04-12T10:06:56.701Z</time></trkpt><trkpt lat="43.6089992" lon="12.30603"><ele>787.0</ele><time>2026-04-12T10:06:57.681Z</time></trkpt><trkpt lat="43.6090502" lon="12.3061345"><ele>787.0</ele><time>2026-04-12T10:06:58.693Z</time></trkpt><trkpt lat="43.6092377" lon="12.306246"><ele>787.0</ele><time>2026-04-12T10:07:00.732Z</time></trkpt><trkpt lat="43.6093528" lon="12.3062594"><ele>787.0</ele><time>2026-04-12T10:07:01.696Z</time></trkpt><trkpt lat="43.609475" lon="12.3062883"><ele>787.0</ele><time>2026-04-12T10:07:02.746Z</time></trkpt><trkpt lat="43.6096073" lon="12.3063503"><ele>787.0</ele><time>2026-04-12T10:07:03.784Z</time></trkpt><trkpt lat="43.6097428" lon="12.3064074"><ele>787.0</ele><time>2026-04-12T10:07:04.711Z</time></trkpt><trkpt lat="43.6098537" lon="12.3065116"><ele>787.0</ele><time>2026-04-12T10:07:05.716Z</time></trkpt><trkpt lat="43.6099281" lon="12.306655"><ele>790.3333333333333</ele><time>2026-04-12T10:07:06.702Z</time></trkpt><trkpt lat="43.6099911" lon="12.3068342"><ele>793.6666666666667</ele><time>2026-04-12T10:07:07.683Z</time></trkpt><trkpt lat="43.6100511" lon="12.3070463"><ele>797.0</ele><time>2026-04-12T10:07:08.693Z</time></trkpt><trkpt lat="43.6101003" lon="12.3072702"><ele>797.2</ele><time>2026-04-12T10:07:09.699Z</time></trkpt><trkpt lat="43.6101375" lon="12.3074711"><ele>797.4000000000001</ele><time>2026-04-12T10:07:10.695Z</time></trkpt><trkpt lat="43.6101559" lon="12.3076163"><ele>797.5999999999999</ele><time>2026-04-12T10:07:11.696Z</time></trkpt><trkpt lat="43.6101917" lon="12.3077139"><ele>797.8</ele><time>2026-04-12T10:07:12.715Z</time></trkpt><trkpt lat="43.6102557" lon="12.3077765"><ele>798.0</ele><time>2026-04-12T10:07:13.739Z</time></trkpt><trkpt lat="43.6103531" lon="12.3077827"><ele>798.0</ele><time>2026-04-12T10:07:14.714Z</time></trkpt><trkpt lat="43.6104738" lon="12.3077486"><ele>798.0</ele><time>2026-04-12T10:07:15.71Z</time></trkpt><trkpt lat="43.6105723" lon="12.3077162"><ele>798.0</ele><time>2026-04-12T10:07:16.685Z</time></trkpt><trkpt lat="43.6106351" lon="12.3077075"><ele>798.0</ele><time>2026-04-12T10:07:17.702Z</time></trkpt><trkpt lat="43.610719" lon="12.3078749"><ele>798.0</ele><time>2026-04-12T10:07:19.702Z</time></trkpt><trkpt lat="43.6107275" lon="12.3082132"><ele>800.0</ele><time>2026-04-12T10:07:21.696Z</time></trkpt><trkpt lat="43.6107325" lon="12.3084646"><ele>802.0</ele><time>2026-04-12T10:07:22.692Z</time></trkpt><trkpt lat="43.610763" lon="12.3087099"><ele>804.0</ele><time>2026-04-12T10:07:23.688Z</time></trkpt><trkpt lat="43.6107971" lon="12.3089341"><ele>806.0</ele><time>2026-04-12T10:07:24.767Z</time></trkpt><trkpt lat="43.610815" lon="12.3091349"><ele>808.0</ele><time>2026-04-12T10:07:25.7Z</time></trkpt><trkpt lat="43.61081" lon="12.3093335"><ele>810.0</ele><time>2026-04-12T10:07:26.7Z</time></trkpt><trkpt lat="43.6107895" lon="12.3095337"><ele>812.0</ele><time>2026-04-12T10:07:27.709Z</time></trkpt><trkpt lat="43.6107755" lon="12.3097109"><ele>814.75</ele><time>2026-04-12T10:07:28.695Z</time></trkpt><trkpt lat="43.6107874" lon="12.3098672"><ele>817.5</ele><time>2026-04-12T10:07:29.683Z</time></trkpt><trkpt lat="43.6108391" lon="12.3100208"><ele>820.25</ele><time>2026-04-12T10:07:30.708Z</time></trkpt><trkpt lat="43.6109289" lon="12.3101836"><ele>823.0</ele><time>2026-04-12T10:07:31.694Z</time></trkpt><trkpt lat="43.6110318" lon="12.310339"><ele>823.0</ele><time>2026-04-12T10:07:32.704Z</time></trkpt><trkpt lat="43.6111078" lon="12.3104543"><ele>823.0</ele><time>2026-04-12T10:07:33.693Z</time></trkpt><trkpt lat="43.6111354" lon="12.3105366"><ele>823.0</ele><time>2026-04-12T10:07:34.699Z</time></trkpt><trkpt lat="43.6111226" lon="12.3106795"><ele>823.0</ele><time>2026-04-12T10:07:36.715Z</time></trkpt><trkpt lat="43.6110013" lon="12.3107047"><ele>823.0</ele><time>2026-04-12T10:07:38.717Z</time></trkpt><trkpt lat="43.6109132" lon="12.3106754"><ele>823.0</ele><time>2026-04-12T10:07:39.708Z</time></trkpt><trkpt lat="43.6107911" lon="12.3106122"><ele>823.0</ele><time>2026-04-12T10:07:40.717Z</time></trkpt><trkpt lat="43.610557" lon="12.310462"><ele>823.0</ele><time>2026-04-12T10:07:42.726Z</time></trkpt><trkpt lat="43.6104742" lon="12.3103579"><ele>823.0</ele><time>2026-04-12T10:07:43.71Z</time></trkpt><trkpt lat="43.61041" lon="12.310265"><ele>823.0</ele><time>2026-04-12T10:07:44.681Z</time></trkpt><trkpt lat="43.6103154" lon="12.3102372"><ele>823.0</ele><time>2026-04-12T10:07:46.781Z</time></trkpt><trkpt lat="43.6102306" lon="12.3102677"><ele>823.0</ele><time>2026-04-12T10:07:47.785Z</time></trkpt><trkpt lat="43.6101244" lon="12.31034"><ele>823.0</ele><time>2026-04-12T10:07:48.718Z</time></trkpt><trkpt lat="43.6099783" lon="12.310433"><ele>824.75</ele><time>2026-04-12T10:07:49.719Z</time></trkpt><trkpt lat="43.6098116" lon="12.3105173"><ele>826.5</ele><time>2026-04-12T10:07:50.71Z</time></trkpt><trkpt lat="43.6096672" lon="12.3105851"><ele>828.25</ele><time>2026-04-12T10:07:51.703Z</time></trkpt><trkpt lat="43.6095529" lon="12.3106263"><ele>830.0</ele><time>2026-04-12T10:07:52.711Z</time></trkpt><trkpt lat="43.6094269" lon="12.3106228"><ele>834.75</ele><time>2026-04-12T10:07:53.704Z</time></trkpt><trkpt lat="43.6092876" lon="12.3105968"><ele>839.5</ele><time>2026-04-12T10:07:54.69Z</time></trkpt><trkpt lat="43.6091683" lon="12.310586"><ele>844.25</ele><time>2026-04-12T10:07:55.71Z</time></trkpt><trkpt lat="43.6090376" lon="12.3106473"><ele>849.0</ele><time>2026-04-12T10:07:56.705Z</time></trkpt><trkpt lat="43.6088941" lon="12.3107603"><ele>849.0</ele><time>2026-04-12T10:07:57.73Z</time></trkpt><trkpt lat="43.608738" lon="12.31091"><ele>849.0</ele><time>2026-04-12T10:07:58.707Z</time></trkpt><trkpt lat="43.6085713" lon="12.3110432"><ele>849.0</ele><time>2026-04-12T10:07:59.707Z</time></trkpt><trkpt lat="43.6084142" lon="12.3111415"><ele>849.5</ele><time>2026-04-12T10:08:00.704Z</time></trkpt><trkpt lat="43.6082326" lon="12.3112016"><ele>850.0</ele><time>2026-04-12T10:08:01.705Z</time></trkpt><trkpt lat="43.6078777" lon="12.3112999"><ele>851.25</ele><time>2026-04-12T10:08:03.711Z</time></trkpt><trkpt lat="43.6077362" lon="12.311335"><ele>852.5</ele><time>2026-04-12T10:08:04.695Z</time></trkpt><trkpt lat="43.6076148" lon="12.3113671"><ele>853.75</ele><time>2026-04-12T10:08:05.701Z</time></trkpt><trkpt lat="43.607511" lon="12.3114145"><ele>855.0</ele><time>2026-04-12T10:08:06.69Z</time></trkpt><trkpt lat="43.6074128" lon="12.3114938"><ele>857.75</ele><time>2026-04-12T10:08:07.697Z</time></trkpt><trkpt lat="43.6073231" lon="12.3116089"><ele>860.5</ele><time>2026-04-12T10:08:08.758Z</time></trkpt><trkpt lat="43.6072528" lon="12.3117479"><ele>863.25</ele><time>2026-04-12T10:08:09.699Z</time></trkpt><trkpt lat="43.6071891" lon="12.3119299"><ele>866.0</ele><time>2026-04-12T10:08:10.722Z</time></trkpt><trkpt lat="43.6071225" lon="12.3121386"><ele>867.0</ele><time>2026-04-12T10:08:11.697Z</time></trkpt><trkpt lat="43.607056" lon="12.3123386"><ele>867.9999999999999</ele><time>2026-04-12T10:08:12.692Z</time></trkpt><trkpt lat="43.6070039" lon="12.3124932"><ele>868.9999999999999</ele><time>2026-04-12T10:08:13.681Z</time></trkpt><trkpt lat="43.6069586" lon="12.312604"><ele>870.0</ele><time>2026-04-12T10:08:14.719Z</time></trkpt><trkpt lat="43.6069444" lon="12.3127003"><ele>871.0</ele><time>2026-04-12T10:08:15.7Z</time></trkpt><trkpt lat="43.6069554" lon="12.3127891"><ele>871.0</ele><time>2026-04-12T10:08:16.713Z</time></trkpt><trkpt lat="43.6070459" lon="12.312901"><ele>871.0</ele><time>2026-04-12T10:08:18.71Z</time></trkpt><trkpt lat="43.6071337" lon="12.3129379"><ele>871.0</ele><time>2026-04-12T10:08:19.807Z</time></trkpt><trkpt lat="43.6072562" lon="12.3129763"><ele>871.0</ele><time>2026-04-12T10:08:20.708Z</time></trkpt><trkpt lat="43.6073878" lon="12.3130273"><ele>871.25</ele><time>2026-04-12T10:08:21.708Z</time></trkpt><trkpt lat="43.6075088" lon="12.313084"><ele>871.5</ele><time>2026-04-12T10:08:22.692Z</time></trkpt><trkpt lat="43.6076478" lon="12.3131895"><ele>871.75</ele><time>2026-04-12T10:08:25.705Z</time></trkpt><trkpt lat="43.6077369" lon="12.3132928"><ele>872.0</ele><time>2026-04-12T10:08:27.793Z</time></trkpt><trkpt lat="43.6077699" lon="12.313387"><ele>872.0</ele><time>2026-04-12T10:09:04.812Z</time></trkpt><trkpt lat="43.6078181" lon="12.3135846"><ele>872.0</ele><time>2026-04-12T10:09:07.72Z</time></trkpt><trkpt lat="43.6078241" lon="12.3136797"><ele>872.0</ele><time>2026-04-12T10:09:08.709Z</time></trkpt><trkpt lat="43.6078302" lon="12.3137848"><ele>872.0</ele><time>2026-04-12T10:09:09.729Z</time></trkpt><trkpt lat="43.6078468" lon="12.3138951"><ele>872.0</ele><time>2026-04-12T10:09:10.689Z</time></trkpt><trkpt lat="43.607877" lon="12.3139879"><ele>873.8333333333334</ele><time>2026-04-12T10:09:11.692Z</time></trkpt><trkpt lat="43.6079337" lon="12.3140538"><ele>875.6666666666667</ele><time>2026-04-12T10:09:12.705Z</time></trkpt><trkpt lat="43.6080007" lon="12.3141145"><ele>877.5</ele><time>2026-04-12T10:09:13.72Z</time></trkpt><trkpt lat="43.6080608" lon="12.3141819"><ele>879.3333333333333</ele><time>2026-04-12T10:09:14.699Z</time></trkpt><trkpt lat="43.6081124" lon="12.3142624"><ele>881.1666666666666</ele><time>2026-04-12T10:09:15.775Z</time></trkpt><trkpt lat="43.6081419" lon="12.3143502"><ele>883.0</ele><time>2026-04-12T10:09:16.703Z</time></trkpt><trkpt lat="43.6081391" lon="12.314456"><ele>882.9999999999999</ele><time>2026-04-12T10:09:17.683Z</time></trkpt><trkpt lat="43.6081122" lon="12.3145632"><ele>883.0</ele><time>2026-04-12T10:09:18.693Z</time></trkpt><trkpt lat="43.6080738" lon="12.3146795"><ele>883.0</ele><time>2026-04-12T10:09:19.713Z</time></trkpt><trkpt lat="43.6080366" lon="12.3147838"><ele>883.0</ele><time>2026-04-12T10:09:20.698Z</time></trkpt><trkpt lat="43.6080087" lon="12.3148693"><ele>882.9999999999999</ele><time>2026-04-12T10:09:21.694Z</time></trkpt><trkpt lat="43.6079531" lon="12.314971"><ele>883.0</ele><time>2026-04-12T10:09:23.776Z</time></trkpt><trkpt lat="43.6078754" lon="12.3149968"><ele>883.0</ele><time>2026-04-12T10:09:25.696Z</time></trkpt><trkpt lat="43.6078693" lon="12.3146767"><ele>883.0</ele><time>2026-04-12T10:09:29.688Z</time></trkpt><trkpt lat="43.6079064" lon="12.3145458"><ele>883.0</ele><time>2026-04-12T10:09:30.71Z</time></trkpt><trkpt lat="43.6079103" lon="12.3144283"><ele>883.0</ele><time>2026-04-12T10:09:31.699Z</time></trkpt><trkpt lat="43.6078807" lon="12.3143418"><ele>883.0</ele><time>2026-04-12T10:09:32.725Z</time></trkpt><trkpt lat="43.6078302" lon="12.3142771"><ele>883.0</ele><time>2026-04-12T10:09:33.71Z</time></trkpt><trkpt lat="43.6077714" lon="12.3142386"><ele>883.0</ele><time>2026-04-12T10:09:34.767Z</time></trkpt><trkpt lat="43.6077067" lon="12.3141926"><ele>883.0</ele><time>2026-04-12T10:09:35.698Z</time></trkpt><trkpt lat="43.6076443" lon="12.3141254"><ele>883.0</ele><time>2026-04-12T10:09:36.701Z</time></trkpt><trkpt lat="43.6075983" lon="12.3140364"><ele>883.0</ele><time>2026-04-12T10:09:37.694Z</time></trkpt><trkpt lat="43.6075572" lon="12.3139581"><ele>883.0</ele><time>2026-04-12T10:09:38.704Z</time></trkpt><trkpt lat="43.6075098" lon="12.3138995"><ele>880.25</ele><time>2026-04-12T10:09:39.695Z</time></trkpt><trkpt lat="43.6074278" lon="12.3138792"><ele>877.5</ele><time>2026-04-12T10:09:40.689Z</time></trkpt><trkpt lat="43.6073257" lon="12.3139188"><ele>874.75</ele><time>2026-04-12T10:09:41.688Z</time></trkpt><trkpt lat="43.6072049" lon="12.3139746"><ele>872.0</ele><time>2026-04-12T10:09:42.691Z</time></trkpt><trkpt lat="43.6070737" lon="12.3140236"><ele>865.5</ele><time>2026-04-12T10:09:43.693Z</time></trkpt><trkpt lat="43.6069554" lon="12.3140788"><ele>859.0</ele><time>2026-04-12T10:09:44.694Z</time></trkpt><trkpt lat="43.6068647" lon="12.3141328"><ele>852.5</ele><time>2026-04-12T10:09:45.758Z</time></trkpt><trkpt lat="43.6067985" lon="12.3141775"><ele>846.0</ele><time>2026-04-12T10:09:46.751Z</time></trkpt><trkpt lat="43.6066024" lon="12.3140744"><ele>846.0</ele><time>2026-04-12T10:09:50.69Z</time></trkpt><trkpt lat="43.6065347" lon="12.3140267"><ele>846.0</ele><time>2026-04-12T10:09:51.672Z</time></trkpt><trkpt lat="43.6064634" lon="12.3139911"><ele>846.0</ele><time>2026-04-12T10:09:52.696Z</time></trkpt><trkpt lat="43.6063842" lon="12.3140269"><ele>846.0</ele><time>2026-04-12T10:09:53.686Z</time></trkpt><trkpt lat="43.6063196" lon="12.3141269"><ele>846.0</ele><time>2026-04-12T10:09:54.691Z</time></trkpt><trkpt lat="43.6062675" lon="12.3142126"><ele>846.0</ele><time>2026-04-12T10:09:55.688Z</time></trkpt><trkpt lat="43.6062083" lon="12.3142905"><ele>847.8333333333334</ele><time>2026-04-12T10:09:56.761Z</time></trkpt><trkpt lat="43.6061298" lon="12.3143366"><ele>849.6666666666667</ele><time>2026-04-12T10:09:57.774Z</time></trkpt><trkpt lat="43.6060651" lon="12.3144032"><ele>851.5</ele><time>2026-04-12T10:09:58.689Z</time></trkpt><trkpt lat="43.6060177" lon="12.3144746"><ele>853.3333333333334</ele><time>2026-04-12T10:09:59.678Z</time></trkpt><trkpt lat="43.605995" lon="12.3145763"><ele>855.1666666666667</ele><time>2026-04-12T10:10:00.69Z</time></trkpt><trkpt lat="43.6059967" lon="12.3147278"><ele>857.0</ele><time>2026-04-12T10:10:01.684Z</time></trkpt><trkpt lat="43.6059921" lon="12.3148954"><ele>850.75</ele><time>2026-04-12T10:10:02.674Z</time></trkpt><trkpt lat="43.6059794" lon="12.3150775"><ele>844.5</ele><time>2026-04-12T10:10:03.68Z</time></trkpt><trkpt lat="43.6059619" lon="12.3152389"><ele>838.25</ele><time>2026-04-12T10:10:04.688Z</time></trkpt><trkpt lat="43.6059387" lon="12.3153858"><ele>832.0</ele><time>2026-04-12T10:10:05.669Z</time></trkpt><trkpt lat="43.6059144" lon="12.315525"><ele>827.4000000000001</ele><time>2026-04-12T10:10:06.678Z</time></trkpt><trkpt lat="43.6058815" lon="12.3156547"><ele>822.8000000000001</ele><time>2026-04-12T10:10:07.753Z</time></trkpt><trkpt lat="43.6057814" lon="12.315881"><ele>818.2</ele><time>2026-04-12T10:10:09.686Z</time></trkpt><trkpt lat="43.605719" lon="12.3159632"><ele>813.6</ele><time>2026-04-12T10:10:10.681Z</time></trkpt><trkpt lat="43.6056596" lon="12.3160104"><ele>809.0</ele><time>2026-04-12T10:10:11.673Z</time></trkpt><trkpt lat="43.6055924" lon="12.3160269"><ele>809.0000000000001</ele><time>2026-04-12T10:10:12.707Z</time></trkpt><trkpt lat="43.60552" lon="12.3160366"><ele>809.0</ele><time>2026-04-12T10:10:13.684Z</time></trkpt><trkpt lat="43.605452" lon="12.316004"><ele>809.0</ele><time>2026-04-12T10:10:14.716Z</time></trkpt><trkpt lat="43.6054048" lon="12.3159391"><ele>809.0</ele><time>2026-04-12T10:10:15.682Z</time></trkpt><trkpt lat="43.6053799" lon="12.3158224"><ele>809.0000000000001</ele><time>2026-04-12T10:10:16.694Z</time></trkpt><trkpt lat="43.605353" lon="12.315682"><ele>809.0</ele><time>2026-04-12T10:10:17.689Z</time></trkpt><trkpt lat="43.6053074" lon="12.3155557"><ele>812.6666666666667</ele><time>2026-04-12T10:10:18.69Z</time></trkpt><trkpt lat="43.6052478" lon="12.3154505"><ele>816.3333333333334</ele><time>2026-04-12T10:10:19.697Z</time></trkpt><trkpt lat="43.6051794" lon="12.3153676"><ele>820.0</ele><time>2026-04-12T10:10:20.707Z</time></trkpt><trkpt lat="43.6051071" lon="12.3153202"><ele>823.6666666666667</ele><time>2026-04-12T10:10:21.691Z</time></trkpt><trkpt lat="43.6050227" lon="12.3153146"><ele>827.3333333333334</ele><time>2026-04-12T10:10:22.749Z</time></trkpt><trkpt lat="43.6049333" lon="12.3153448"><ele>831.0</ele><time>2026-04-12T10:10:23.695Z</time></trkpt><trkpt lat="43.6048494" lon="12.315391"><ele>831.0</ele><time>2026-04-12T10:10:24.703Z</time></trkpt><trkpt lat="43.6047748" lon="12.3154286"><ele>831.0</ele><time>2026-04-12T10:10:25.711Z</time></trkpt><trkpt lat="43.6046528" lon="12.3154202"><ele>831.0</ele><time>2026-04-12T10:10:27.7Z</time></trkpt><trkpt lat="43.6045965" lon="12.3153484"><ele>831.0</ele><time>2026-04-12T10:10:28.726Z</time></trkpt><trkpt lat="43.6044799" lon="12.3152389"><ele>831.0</ele><time>2026-04-12T10:10:30.764Z</time></trkpt><trkpt lat="43.6044097" lon="12.3152293"><ele>829.6666666666666</ele><time>2026-04-12T10:10:31.691Z</time></trkpt><trkpt lat="43.6043445" lon="12.3152881"><ele>828.3333333333333</ele><time>2026-04-12T10:10:32.685Z</time></trkpt><trkpt lat="43.6043047" lon="12.3153727"><ele>827.0</ele><time>2026-04-12T10:10:33.703Z</time></trkpt><trkpt lat="43.60427" lon="12.3154714"><ele>825.6666666666666</ele><time>2026-04-12T10:10:34.701Z</time></trkpt><trkpt lat="43.6042354" lon="12.3155945"><ele>824.3333333333333</ele><time>2026-04-12T10:10:35.698Z</time></trkpt><trkpt lat="43.6041951" lon="12.3157285"><ele>823.0</ele><time>2026-04-12T10:10:36.687Z</time></trkpt><trkpt lat="43.6041601" lon="12.3158644"><ele>819.9999999999999</ele><time>2026-04-12T10:10:37.695Z</time></trkpt><trkpt lat="43.6041276" lon="12.3159829"><ele>817.0</ele><time>2026-04-12T10:10:38.699Z</time></trkpt><trkpt lat="43.6040965" lon="12.3160726"><ele>814.0</ele><time>2026-04-12T10:10:39.703Z</time></trkpt><trkpt lat="43.6041087" lon="12.3161688"><ele>811.0</ele><time>2026-04-12T10:10:41.723Z</time></trkpt><trkpt lat="43.6042036" lon="12.3161138"><ele>807.9999999999999</ele><time>2026-04-12T10:10:43.682Z</time></trkpt><trkpt lat="43.6042547" lon="12.3160238"><ele>805.0</ele><time>2026-04-12T10:10:44.687Z</time></trkpt><trkpt lat="43.6043053" lon="12.3159562"><ele>805.0</ele><time>2026-04-12T10:10:45.698Z</time></trkpt><trkpt lat="43.6044194" lon="12.3158897"><ele>805.0</ele><time>2026-04-12T10:10:47.68Z</time></trkpt><trkpt lat="43.6044975" lon="12.3158902"><ele>805.0</ele><time>2026-04-12T10:10:48.696Z</time></trkpt><trkpt lat="43.6045883" lon="12.3159239"><ele>805.0</ele><time>2026-04-12T10:10:49.693Z</time></trkpt><trkpt lat="43.604745" lon="12.3160218"><ele>804.9999999999999</ele><time>2026-04-12T10:10:52.684Z</time></trkpt><trkpt lat="43.6047307" lon="12.3161298"><ele>805.0</ele><time>2026-04-12T10:10:54.684Z</time></trkpt><trkpt lat="43.6046324" lon="12.3161615"><ele>805.0</ele><time>2026-04-12T10:10:56.678Z</time></trkpt><trkpt lat="43.6045691" lon="12.3162021"><ele>805.0</ele><time>2026-04-12T10:10:57.699Z</time></trkpt><trkpt lat="43.6045161" lon="12.3162663"><ele>804.9999999999999</ele><time>2026-04-12T10:10:58.699Z</time></trkpt><trkpt lat="43.6044761" lon="12.3163497"><ele>805.0</ele><time>2026-04-12T10:10:59.692Z</time></trkpt><trkpt lat="43.6044566" lon="12.3164825"><ele>803.6</ele><time>2026-04-12T10:11:00.684Z</time></trkpt><trkpt lat="43.6044557" lon="12.3166346"><ele>802.2</ele><time>2026-04-12T10:11:01.68Z</time></trkpt><trkpt lat="43.6044603" lon="12.3167874"><ele>800.8</ele><time>2026-04-12T10:11:02.675Z</time></trkpt><trkpt lat="43.604467" lon="12.3169413"><ele>799.4</ele><time>2026-04-12T10:11:03.667Z</time></trkpt><trkpt lat="43.6044745" lon="12.3170835"><ele>798.0</ele><time>2026-04-12T10:11:04.694Z</time></trkpt><trkpt lat="43.6044858" lon="12.3172249"><ele>794.4</ele><time>2026-04-12T10:11:05.689Z</time></trkpt><trkpt lat="43.6045089" lon="12.3173641"><ele>790.8</ele><time>2026-04-12T10:11:06.685Z</time></trkpt><trkpt lat="43.6045492" lon="12.3174957"><ele>787.2</ele><time>2026-04-12T10:11:07.751Z</time></trkpt><trkpt lat="43.6045901" lon="12.3176333"><ele>783.6</ele><time>2026-04-12T10:11:08.69Z</time></trkpt><trkpt lat="43.6046287" lon="12.317772"><ele>780.0</ele><time>2026-04-12T10:11:09.714Z</time></trkpt><trkpt lat="43.6046693" lon="12.3179122"><ele>777.0</ele><time>2026-04-12T10:11:10.679Z</time></trkpt><trkpt lat="43.6047987" lon="12.3181716"><ele>774.0</ele><time>2026-04-12T10:11:12.704Z</time></trkpt><trkpt lat="43.6048737" lon="12.3182871"><ele>771.0</ele><time>2026-04-12T10:11:13.7Z</time></trkpt><trkpt lat="43.6049386" lon="12.3183849"><ele>768.0</ele><time>2026-04-12T10:11:14.682Z</time></trkpt><trkpt lat="43.6049827" lon="12.3184732"><ele>767.9999999999999</ele><time>2026-04-12T10:11:15.698Z</time></trkpt><trkpt lat="43.6049982" lon="12.3185596"><ele>768.0</ele><time>2026-04-12T10:11:16.694Z</time></trkpt><trkpt lat="43.6050082" lon="12.3186511"><ele>768.0</ele><time>2026-04-12T10:11:17.686Z</time></trkpt><trkpt lat="43.6050087" lon="12.3187487"><ele>768.0</ele><time>2026-04-12T10:11:18.782Z</time></trkpt><trkpt lat="43.6049871" lon="12.3188677"><ele>768.0</ele><time>2026-04-12T10:11:19.74Z</time></trkpt><trkpt lat="43.6049592" lon="12.3189657"><ele>767.9999999999999</ele><time>2026-04-12T10:11:20.683Z</time></trkpt><trkpt lat="43.6049201" lon="12.3190436"><ele>768.0</ele><time>2026-04-12T10:11:21.699Z</time></trkpt><trkpt lat="43.6048525" lon="12.3191052"><ele>766.0</ele><time>2026-04-12T10:11:22.696Z</time></trkpt><trkpt lat="43.6047784" lon="12.3191365"><ele>764.0</ele><time>2026-04-12T10:11:23.687Z</time></trkpt><trkpt lat="43.6046764" lon="12.3192128"><ele>762.0</ele><time>2026-04-12T10:11:25.694Z</time></trkpt><trkpt lat="43.6046892" lon="12.319315"><ele>760.0</ele><time>2026-04-12T10:11:27.712Z</time></trkpt><trkpt lat="43.6047976" lon="12.3192944"><ele>758.0</ele><time>2026-04-12T10:11:29.703Z</time></trkpt><trkpt lat="43.6048718" lon="12.3192486"><ele>758.0</ele><time>2026-04-12T10:11:30.68Z</time></trkpt><trkpt lat="43.6049514" lon="12.3191848"><ele>758.0</ele><time>2026-04-12T10:11:31.705Z</time></trkpt><trkpt lat="43.6050948" lon="12.3190609"><ele>758.0</ele><time>2026-04-12T10:11:33.691Z</time></trkpt><trkpt lat="43.605145" lon="12.3190015"><ele>758.0</ele><time>2026-04-12T10:11:34.685Z</time></trkpt><trkpt lat="43.6052203" lon="12.3189164"><ele>758.0</ele><time>2026-04-12T10:11:36.68Z</time></trkpt><trkpt lat="43.6052518" lon="12.3190485"><ele>758.0</ele><time>2026-04-12T10:11:39.686Z</time></trkpt><trkpt lat="43.6051934" lon="12.3192245"><ele>758.0</ele><time>2026-04-12T10:11:41.689Z</time></trkpt><trkpt lat="43.6051395" lon="12.3193309"><ele>758.0</ele><time>2026-04-12T10:11:42.684Z</time></trkpt><trkpt lat="43.6050919" lon="12.3194391"><ele>758.0</ele><time>2026-04-12T10:11:43.69Z</time></trkpt><trkpt lat="43.6050454" lon="12.3195453"><ele>758.0</ele><time>2026-04-12T10:11:44.684Z</time></trkpt><trkpt lat="43.605047" lon="12.3196432"><ele>757.8</ele><time>2026-04-12T10:11:45.703Z</time></trkpt><trkpt lat="43.6050751" lon="12.3197385"><ele>757.5999999999999</ele><time>2026-04-12T10:11:46.686Z</time></trkpt><trkpt lat="43.6051146" lon="12.3198493"><ele>757.4000000000001</ele><time>2026-04-12T10:11:47.686Z</time></trkpt><trkpt lat="43.6051564" lon="12.3199556"><ele>757.2</ele><time>2026-04-12T10:11:48.689Z</time></trkpt><trkpt lat="43.6051852" lon="12.3200975"><ele>757.0</ele><time>2026-04-12T10:11:49.696Z</time></trkpt><trkpt lat="43.6052228" lon="12.3202602"><ele>757.0</ele><time>2026-04-12T10:11:50.693Z</time></trkpt><trkpt lat="43.6052789" lon="12.3204229"><ele>757.0</ele><time>2026-04-12T10:11:51.683Z</time></trkpt><trkpt lat="43.6053671" lon="12.320562"><ele>757.0</ele><time>2026-04-12T10:11:52.688Z</time></trkpt><trkpt lat="43.6056223" lon="12.3207572"><ele>753.75</ele><time>2026-04-12T10:11:54.703Z</time></trkpt><trkpt lat="43.6057357" lon="12.3208465"><ele>750.5</ele><time>2026-04-12T10:11:55.696Z</time></trkpt><trkpt lat="43.6058362" lon="12.3209394"><ele>747.25</ele><time>2026-04-12T10:11:56.698Z</time></trkpt><trkpt lat="43.6059073" lon="12.3210422"><ele>744.0</ele><time>2026-04-12T10:11:57.697Z</time></trkpt><trkpt lat="43.6059577" lon="12.3211664"><ele>744.0</ele><time>2026-04-12T10:11:58.698Z</time></trkpt><trkpt lat="43.6059974" lon="12.3213123"><ele>744.0</ele><time>2026-04-12T10:11:59.685Z</time></trkpt><trkpt lat="43.6060311" lon="12.3214691"><ele>744.0</ele><time>2026-04-12T10:12:00.702Z</time></trkpt><trkpt lat="43.6060773" lon="12.3216269"><ele>744.0</ele><time>2026-04-12T10:12:01.755Z</time></trkpt><trkpt lat="43.6061447" lon="12.3217676"><ele>743.2</ele><time>2026-04-12T10:12:02.7Z</time></trkpt><trkpt lat="43.6062269" lon="12.3218854"><ele>742.4000000000001</ele><time>2026-04-12T10:12:03.69Z</time></trkpt><trkpt lat="43.6062985" lon="12.3219967"><ele>741.6</ele><time>2026-04-12T10:12:04.698Z</time></trkpt><trkpt lat="43.6063562" lon="12.3221118"><ele>740.8</ele><time>2026-04-12T10:12:05.687Z</time></trkpt><trkpt lat="43.6064008" lon="12.3222257"><ele>740.0</ele><time>2026-04-12T10:12:06.729Z</time></trkpt><trkpt lat="43.6064353" lon="12.3223579"><ele>736.0</ele><time>2026-04-12T10:12:07.701Z</time></trkpt><trkpt lat="43.6064617" lon="12.3224974"><ele>732.0</ele><time>2026-04-12T10:12:08.689Z</time></trkpt><trkpt lat="43.6064907" lon="12.3226512"><ele>728.0</ele><time>2026-04-12T10:12:09.692Z</time></trkpt><trkpt lat="43.606524" lon="12.3228029"><ele>724.0</ele><time>2026-04-12T10:12:10.695Z</time></trkpt><trkpt lat="43.6065834" lon="12.3229409"><ele>724.0</ele><time>2026-04-12T10:12:11.699Z</time></trkpt><trkpt lat="43.6066614" lon="12.3230433"><ele>724.0</ele><time>2026-04-12T10:12:12.728Z</time></trkpt><trkpt lat="43.6067367" lon="12.3231121"><ele>724.0</ele><time>2026-04-12T10:12:13.684Z</time></trkpt><trkpt lat="43.6068342" lon="12.3232656"><ele>724.0</ele><time>2026-04-12T10:12:15.699Z</time></trkpt><trkpt lat="43.6068578" lon="12.3233672"><ele>724.0</ele><time>2026-04-12T10:12:16.706Z</time></trkpt><trkpt lat="43.6068523" lon="12.3234844"><ele>723.6</ele><time>2026-04-12T10:12:17.688Z</time></trkpt><trkpt lat="43.6068313" lon="12.3236041"><ele>723.2</ele><time>2026-04-12T10:12:18.677Z</time></trkpt><trkpt lat="43.6068256" lon="12.323719"><ele>722.8000000000001</ele><time>2026-04-12T10:12:19.693Z</time></trkpt><trkpt lat="43.6068503" lon="12.3238319"><ele>722.4000000000001</ele><time>2026-04-12T10:12:20.717Z</time></trkpt><trkpt lat="43.6069077" lon="12.3239614"><ele>722.0</ele><time>2026-04-12T10:12:21.679Z</time></trkpt><trkpt lat="43.6069898" lon="12.3240833"><ele>720.8</ele><time>2026-04-12T10:12:22.689Z</time></trkpt><trkpt lat="43.607075" lon="12.3241752"><ele>719.6</ele><time>2026-04-12T10:12:23.685Z</time></trkpt><trkpt lat="43.6071628" lon="12.3242324"><ele>718.4</ele><time>2026-04-12T10:12:24.772Z</time></trkpt><trkpt lat="43.6072575" lon="12.324268"><ele>717.1999999999999</ele><time>2026-04-12T10:12:25.675Z</time></trkpt><trkpt lat="43.6073641" lon="12.3242894"><ele>716.0</ele><time>2026-04-12T10:12:26.692Z</time></trkpt><trkpt lat="43.6074786" lon="12.324287"><ele>716.0</ele><time>2026-04-12T10:12:27.687Z</time></trkpt><trkpt lat="43.6075989" lon="12.3242766"><ele>716.0</ele><time>2026-04-12T10:12:28.697Z</time></trkpt><trkpt lat="43.6077236" lon="12.3242787"><ele>716.0</ele><time>2026-04-12T10:12:29.707Z</time></trkpt><trkpt lat="43.6078511" lon="12.3242996"><ele>716.0</ele><time>2026-04-12T10:12:30.693Z</time></trkpt><trkpt lat="43.6079678" lon="12.32433"><ele>717.75</ele><time>2026-04-12T10:12:31.701Z</time></trkpt><trkpt lat="43.6080752" lon="12.3243873"><ele>719.5</ele><time>2026-04-12T10:12:32.7Z</time></trkpt><trkpt lat="43.6081691" lon="12.3244755"><ele>721.25</ele><time>2026-04-12T10:12:33.693Z</time></trkpt><trkpt lat="43.6082586" lon="12.3245655"><ele>723.0</ele><time>2026-04-12T10:12:34.699Z</time></trkpt><trkpt lat="43.6084512" lon="12.3246911"><ele>723.0</ele><time>2026-04-12T10:12:36.683Z</time></trkpt><trkpt lat="43.6085507" lon="12.3247045"><ele>723.0</ele><time>2026-04-12T10:12:37.697Z</time></trkpt><trkpt lat="43.6086515" lon="12.3246918"><ele>723.0</ele><time>2026-04-12T10:12:38.712Z</time></trkpt><trkpt lat="43.6087594" lon="12.3246562"><ele>723.0</ele><time>2026-04-12T10:12:39.7Z</time></trkpt><trkpt lat="43.6088697" lon="12.3246119"><ele>723.0</ele><time>2026-04-12T10:12:40.699Z</time></trkpt><trkpt lat="43.6089782" lon="12.3245795"><ele>723.0</ele><time>2026-04-12T10:12:41.696Z</time></trkpt><trkpt lat="43.6090783" lon="12.3245683"><ele>723.0</ele><time>2026-04-12T10:12:42.683Z</time></trkpt><trkpt lat="43.6091802" lon="12.3245783"><ele>723.0</ele><time>2026-04-12T10:12:43.723Z</time></trkpt><trkpt lat="43.6092957" lon="12.3246287"><ele>723.0</ele><time>2026-04-12T10:12:44.69Z</time></trkpt><trkpt lat="43.609425" lon="12.3246747"><ele>723.5</ele><time>2026-04-12T10:12:45.687Z</time></trkpt><trkpt lat="43.6095611" lon="12.3247135"><ele>724.0</ele><time>2026-04-12T10:12:46.695Z</time></trkpt><trkpt lat="43.6096961" lon="12.3247325"><ele>724.5</ele><time>2026-04-12T10:12:47.695Z</time></trkpt><trkpt lat="43.6098234" lon="12.3247322"><ele>725.0</ele><time>2026-04-12T10:12:48.72Z</time></trkpt><trkpt lat="43.60994" lon="12.3247182"><ele>725.0</ele><time>2026-04-12T10:12:49.742Z</time></trkpt><trkpt lat="43.6100559" lon="12.3246798"><ele>725.0</ele><time>2026-04-12T10:12:50.678Z</time></trkpt><trkpt lat="43.6101721" lon="12.3246283"><ele>725.0</ele><time>2026-04-12T10:12:51.691Z</time></trkpt><trkpt lat="43.6102745" lon="12.3245773"><ele>725.0</ele><time>2026-04-12T10:12:52.692Z</time></trkpt><trkpt lat="43.6103541" lon="12.3245405"><ele>725.0</ele><time>2026-04-12T10:12:53.693Z</time></trkpt><trkpt lat="43.6104256" lon="12.3245366"><ele>724.6666666666666</ele><time>2026-04-12T10:12:54.697Z</time></trkpt><trkpt lat="43.6105356" lon="12.3246109"><ele>724.3333333333334</ele><time>2026-04-12T10:12:56.676Z</time></trkpt><trkpt lat="43.6106283" lon="12.3248613"><ele>724.0</ele><time>2026-04-12T10:12:58.693Z</time></trkpt><trkpt lat="43.6106656" lon="12.3250559"><ele>724.0</ele><time>2026-04-12T10:12:59.687Z</time></trkpt><trkpt lat="43.6107232" lon="12.325209"><ele>724.0</ele><time>2026-04-12T10:13:00.688Z</time></trkpt><trkpt lat="43.610786" lon="12.325357"><ele>724.0</ele><time>2026-04-12T10:13:01.707Z</time></trkpt><trkpt lat="43.610848" lon="12.3254827"><ele>724.0</ele><time>2026-04-12T10:13:02.726Z</time></trkpt><trkpt lat="43.6109131" lon="12.3256041"><ele>721.2</ele><time>2026-04-12T10:13:03.698Z</time></trkpt><trkpt lat="43.6109839" lon="12.3257117"><ele>718.4000000000001</ele><time>2026-04-12T10:13:04.685Z</time></trkpt><trkpt lat="43.6110439" lon="12.325803"><ele>715.6</ele><time>2026-04-12T10:13:05.69Z</time></trkpt><trkpt lat="43.6110925" lon="12.3258945"><ele>712.8</ele><time>2026-04-12T10:13:06.702Z</time></trkpt><trkpt lat="43.6111648" lon="12.3259994"><ele>710.0</ele><time>2026-04-12T10:13:08.723Z</time></trkpt><trkpt lat="43.611251" lon="12.3259738"><ele>710.0</ele><time>2026-04-12T10:13:10.7Z</time></trkpt><trkpt lat="43.6113322" lon="12.3258897"><ele>710.0</ele><time>2026-04-12T10:13:12.759Z</time></trkpt><trkpt lat="43.6114146" lon="12.3257828"><ele>710.0</ele><time>2026-04-12T10:13:14.696Z</time></trkpt><trkpt lat="43.6114711" lon="12.3257047"><ele>710.0</ele><time>2026-04-12T10:13:15.692Z</time></trkpt><trkpt lat="43.611526" lon="12.3256133"><ele>710.0</ele><time>2026-04-12T10:13:16.711Z</time></trkpt><trkpt lat="43.6115953" lon="12.3255236"><ele>715.25</ele><time>2026-04-12T10:13:17.694Z</time></trkpt><trkpt lat="43.6117774" lon="12.325405"><ele>720.5</ele><time>2026-04-12T10:13:19.696Z</time></trkpt><trkpt lat="43.6118682" lon="12.3253901"><ele>725.75</ele><time>2026-04-12T10:13:20.68Z</time></trkpt><trkpt lat="43.6119536" lon="12.3254185"><ele>731.0</ele><time>2026-04-12T10:13:21.703Z</time></trkpt><trkpt lat="43.6120364" lon="12.3254862"><ele>730.1999999999999</ele><time>2026-04-12T10:13:22.719Z</time></trkpt><trkpt lat="43.6121155" lon="12.3255887"><ele>729.4</ele><time>2026-04-12T10:13:23.721Z</time></trkpt><trkpt lat="43.612188" lon="12.3257111"><ele>728.6</ele><time>2026-04-12T10:13:24.703Z</time></trkpt><trkpt lat="43.6122537" lon="12.3258362"><ele>727.8</ele><time>2026-04-12T10:13:25.681Z</time></trkpt><trkpt lat="43.6123066" lon="12.3259468"><ele>727.0</ele><time>2026-04-12T10:13:26.696Z</time></trkpt><trkpt lat="43.6123535" lon="12.3260619"><ele>727.0</ele><time>2026-04-12T10:13:27.691Z</time></trkpt><trkpt lat="43.612408" lon="12.3261634"><ele>727.0</ele><time>2026-04-12T10:13:28.711Z</time></trkpt><trkpt lat="43.6124711" lon="12.3262447"><ele>727.0</ele><time>2026-04-12T10:13:29.693Z</time></trkpt><trkpt lat="43.6125493" lon="12.3262954"><ele>727.0</ele><time>2026-04-12T10:13:30.698Z</time></trkpt><trkpt lat="43.6126514" lon="12.3263235"><ele>727.0</ele><time>2026-04-12T10:13:31.7Z</time></trkpt><trkpt lat="43.61276" lon="12.326338"><ele>724.75</ele><time>2026-04-12T10:13:32.779Z</time></trkpt><trkpt lat="43.6128667" lon="12.3263748"><ele>722.5</ele><time>2026-04-12T10:13:33.696Z</time></trkpt><trkpt lat="43.6129712" lon="12.3264442"><ele>720.25</ele><time>2026-04-12T10:13:34.692Z</time></trkpt><trkpt lat="43.613074" lon="12.3265201"><ele>718.0</ele><time>2026-04-12T10:13:35.684Z</time></trkpt><trkpt lat="43.6131786" lon="12.3265787"><ele>718.0</ele><time>2026-04-12T10:13:36.701Z</time></trkpt><trkpt lat="43.6132865" lon="12.3266228"><ele>718.0</ele><time>2026-04-12T10:13:37.721Z</time></trkpt><trkpt lat="43.6133916" lon="12.3266861"><ele>718.0</ele><time>2026-04-12T10:13:38.682Z</time></trkpt><trkpt lat="43.6135682" lon="12.326835"><ele>718.0</ele><time>2026-04-12T10:13:40.741Z</time></trkpt><trkpt lat="43.6136243" lon="12.3269397"><ele>715.5999999999999</ele><time>2026-04-12T10:13:41.692Z</time></trkpt><trkpt lat="43.6137046" lon="12.3270174"><ele>713.1999999999999</ele><time>2026-04-12T10:13:43.685Z</time></trkpt><trkpt lat="43.6138114" lon="12.3269677"><ele>710.8</ele><time>2026-04-12T10:13:45.698Z</time></trkpt><trkpt lat="43.6138586" lon="12.3268889"><ele>708.4</ele><time>2026-04-12T10:13:46.71Z</time></trkpt><trkpt lat="43.6139131" lon="12.3267832"><ele>706.0</ele><time>2026-04-12T10:13:47.692Z</time></trkpt><trkpt lat="43.6139818" lon="12.3266446"><ele>706.0</ele><time>2026-04-12T10:13:48.701Z</time></trkpt><trkpt lat="43.6140482" lon="12.3264759"><ele>706.0</ele><time>2026-04-12T10:13:49.7Z</time></trkpt><trkpt lat="43.6141165" lon="12.3262875"><ele>706.0</ele><time>2026-04-12T10:13:50.695Z</time></trkpt><trkpt lat="43.6141852" lon="12.3260899"><ele>709.6666666666667</ele><time>2026-04-12T10:13:51.698Z</time></trkpt><trkpt lat="43.6142567" lon="12.3258873"><ele>713.3333333333334</ele><time>2026-04-12T10:13:52.705Z</time></trkpt><trkpt lat="43.6143343" lon="12.3256755"><ele>717.0</ele><time>2026-04-12T10:13:53.693Z</time></trkpt><trkpt lat="43.6144185" lon="12.3254698"><ele>709.0</ele><time>2026-04-12T10:13:54.699Z</time></trkpt><trkpt lat="43.6145046" lon="12.3252654"><ele>701.0</ele><time>2026-04-12T10:13:55.698Z</time></trkpt><trkpt lat="43.6145891" lon="12.3250758"><ele>693.0</ele><time>2026-04-12T10:13:56.69Z</time></trkpt><trkpt lat="43.614672" lon="12.3249028"><ele>693.0</ele><time>2026-04-12T10:13:57.768Z</time></trkpt><trkpt lat="43.6147444" lon="12.3247367"><ele>693.0</ele><time>2026-04-12T10:13:58.687Z</time></trkpt><trkpt lat="43.6148099" lon="12.3245762"><ele>693.0</ele><time>2026-04-12T10:13:59.75Z</time></trkpt><trkpt lat="43.614905" lon="12.3242937"><ele>694.8</ele><time>2026-04-12T10:14:01.688Z</time></trkpt><trkpt lat="43.614927" lon="12.3241515"><ele>696.5999999999999</ele><time>2026-04-12T10:14:02.708Z</time></trkpt><trkpt lat="43.614944" lon="12.3240064"><ele>698.4000000000001</ele><time>2026-04-12T10:14:03.689Z</time></trkpt><trkpt lat="43.6149498" lon="12.3238522"><ele>700.2</ele><time>2026-04-12T10:14:04.694Z</time></trkpt><trkpt lat="43.6149433" lon="12.3237033"><ele>702.0</ele><time>2026-04-12T10:14:05.716Z</time></trkpt><trkpt lat="43.6149229" lon="12.3235553"><ele>704.0</ele><time>2026-04-12T10:14:06.7Z</time></trkpt><trkpt lat="43.6148845" lon="12.3234044"><ele>706.0</ele><time>2026-04-12T10:14:07.695Z</time></trkpt><trkpt lat="43.614854" lon="12.3232424"><ele>708.0</ele><time>2026-04-12T10:14:08.707Z</time></trkpt><trkpt lat="43.6148269" lon="12.3230765"><ele>710.0</ele><time>2026-04-12T10:14:09.696Z</time></trkpt><trkpt lat="43.6148037" lon="12.3229131"><ele>712.4</ele><time>2026-04-12T10:14:10.696Z</time></trkpt><trkpt lat="43.6147807" lon="12.3227674"><ele>714.8</ele><time>2026-04-12T10:14:11.706Z</time></trkpt><trkpt lat="43.6147623" lon="12.3226446"><ele>717.2</ele><time>2026-04-12T10:14:12.699Z</time></trkpt><trkpt lat="43.6147623" lon="12.3225368"><ele>719.6</ele><time>2026-04-12T10:14:13.691Z</time></trkpt><trkpt lat="43.6147629" lon="12.3224369"><ele>722.0</ele><time>2026-04-12T10:14:14.723Z</time></trkpt><trkpt lat="43.6148274" lon="12.3223192"><ele>722.0</ele><time>2026-04-12T10:14:16.696Z</time></trkpt><trkpt lat="43.6149216" lon="12.3223457"><ele>722.0</ele><time>2026-04-12T10:14:18.695Z</time></trkpt><trkpt lat="43.6149661" lon="12.3224084"><ele>722.0</ele><time>2026-04-12T10:14:19.69Z</time></trkpt><trkpt lat="43.6150156" lon="12.3225263"><ele>722.0</ele><time>2026-04-12T10:14:20.705Z</time></trkpt><trkpt lat="43.6151315" lon="12.3228048"><ele>722.0</ele><time>2026-04-12T10:14:22.687Z</time></trkpt><trkpt lat="43.6152004" lon="12.3229283"><ele>722.0</ele><time>2026-04-12T10:14:23.682Z</time></trkpt><trkpt lat="43.6152798" lon="12.3230289"><ele>722.0</ele><time>2026-04-12T10:14:24.701Z</time></trkpt><trkpt lat="43.6153664" lon="12.3231136"><ele>722.0</ele><time>2026-04-12T10:14:25.686Z</time></trkpt><trkpt lat="43.6154572" lon="12.323163"><ele>722.0</ele><time>2026-04-12T10:14:26.704Z</time></trkpt><trkpt lat="43.6155382" lon="12.3231977"><ele>720.3333333333333</ele><time>2026-04-12T10:14:27.679Z</time></trkpt><trkpt lat="43.6156181" lon="12.3232045"><ele>718.6666666666666</ele><time>2026-04-12T10:14:28.703Z</time></trkpt><trkpt lat="43.6156895" lon="12.3231954"><ele>717.0</ele><time>2026-04-12T10:14:29.678Z</time></trkpt><trkpt lat="43.6157551" lon="12.3231626"><ele>715.3333333333334</ele><time>2026-04-12T10:14:30.693Z</time></trkpt><trkpt lat="43.615813" lon="12.3231148"><ele>713.6666666666667</ele><time>2026-04-12T10:14:31.765Z</time></trkpt><trkpt lat="43.6158905" lon="12.3230471"><ele>712.0</ele><time>2026-04-12T10:14:32.684Z</time></trkpt><trkpt lat="43.6159739" lon="12.3229738"><ele>717.2</ele><time>2026-04-12T10:14:33.715Z</time></trkpt><trkpt lat="43.6160781" lon="12.3229355"><ele>722.4000000000001</ele><time>2026-04-12T10:14:34.683Z</time></trkpt><trkpt lat="43.6161939" lon="12.3229206"><ele>727.5999999999999</ele><time>2026-04-12T10:14:35.692Z</time></trkpt><trkpt lat="43.6163118" lon="12.3229264"><ele>732.8</ele><time>2026-04-12T10:14:36.692Z</time></trkpt><trkpt lat="43.6164145" lon="12.3229623"><ele>738.0</ele><time>2026-04-12T10:14:37.679Z</time></trkpt><trkpt lat="43.6165025" lon="12.3230321"><ele>736.8</ele><time>2026-04-12T10:14:38.687Z</time></trkpt><trkpt lat="43.6165763" lon="12.3230942"><ele>735.5999999999999</ele><time>2026-04-12T10:14:39.695Z</time></trkpt><trkpt lat="43.6166505" lon="12.3231414"><ele>734.4000000000001</ele><time>2026-04-12T10:14:40.716Z</time></trkpt><trkpt lat="43.6167208" lon="12.3231744"><ele>733.2</ele><time>2026-04-12T10:14:41.679Z</time></trkpt><trkpt lat="43.6168486" lon="12.3233222"><ele>732.0</ele><time>2026-04-12T10:14:44.681Z</time></trkpt><trkpt lat="43.6167955" lon="12.3234868"><ele>732.0</ele><time>2026-04-12T10:14:46.687Z</time></trkpt><trkpt lat="43.6167534" lon="12.3235935"><ele>732.0</ele><time>2026-04-12T10:14:47.685Z</time></trkpt><trkpt lat="43.6167188" lon="12.3237408"><ele>732.0</ele><time>2026-04-12T10:14:48.684Z</time></trkpt><trkpt lat="43.6167001" lon="12.3238785"><ele>732.0</ele><time>2026-04-12T10:14:49.685Z</time></trkpt><trkpt lat="43.6167007" lon="12.3240335"><ele>732.0</ele><time>2026-04-12T10:14:50.677Z</time></trkpt><trkpt lat="43.6167168" lon="12.3241795"><ele>732.1666666666666</ele><time>2026-04-12T10:14:51.699Z</time></trkpt><trkpt lat="43.6167507" lon="12.3242999"><ele>732.3333333333334</ele><time>2026-04-12T10:14:52.7Z</time></trkpt><trkpt lat="43.6168008" lon="12.3243948"><ele>732.5</ele><time>2026-04-12T10:14:53.677Z</time></trkpt><trkpt lat="43.6168494" lon="12.3244745"><ele>732.6666666666667</ele><time>2026-04-12T10:14:54.724Z</time></trkpt><trkpt lat="43.616916" lon="12.3245427"><ele>732.8333333333334</ele><time>2026-04-12T10:14:55.699Z</time></trkpt><trkpt lat="43.6169868" lon="12.3246316"><ele>733.0</ele><time>2026-04-12T10:14:56.697Z</time></trkpt><trkpt lat="43.6170387" lon="12.3247484"><ele>737.2</ele><time>2026-04-12T10:14:57.681Z</time></trkpt><trkpt lat="43.6170816" lon="12.3248736"><ele>741.4</ele><time>2026-04-12T10:14:58.705Z</time></trkpt><trkpt lat="43.6171199" lon="12.325015"><ele>745.6</ele><time>2026-04-12T10:14:59.694Z</time></trkpt><trkpt lat="43.6171255" lon="12.3251679"><ele>749.8000000000001</ele><time>2026-04-12T10:15:00.694Z</time></trkpt><trkpt lat="43.617164" lon="12.3252635"><ele>754.0</ele><time>2026-04-12T10:15:01.69Z</time></trkpt><trkpt lat="43.6172469" lon="12.3253546"><ele>754.0</ele><time>2026-04-12T10:15:02.698Z</time></trkpt><trkpt lat="43.6174297" lon="12.3255415"><ele>754.0</ele><time>2026-04-12T10:15:04.754Z</time></trkpt><trkpt lat="43.6175002" lon="12.3255914"><ele>754.0</ele><time>2026-04-12T10:15:05.799Z</time></trkpt><trkpt lat="43.6176121" lon="12.325586"><ele>754.0</ele><time>2026-04-12T10:15:07.702Z</time></trkpt><trkpt lat="43.6176642" lon="12.3255118"><ele>754.0</ele><time>2026-04-12T10:15:08.722Z</time></trkpt><trkpt lat="43.6177321" lon="12.3253988"><ele>754.0</ele><time>2026-04-12T10:15:09.696Z</time></trkpt><trkpt lat="43.6177934" lon="12.3253089"><ele>754.0</ele><time>2026-04-12T10:15:10.702Z</time></trkpt><trkpt lat="43.617853" lon="12.3252567"><ele>754.0</ele><time>2026-04-12T10:15:11.688Z</time></trkpt><trkpt lat="43.6179376" lon="12.3252351"><ele>754.0</ele><time>2026-04-12T10:15:12.703Z</time></trkpt><trkpt lat="43.6180336" lon="12.3252422"><ele>754.0</ele><time>2026-04-12T10:15:13.698Z</time></trkpt><trkpt lat="43.618136" lon="12.3253053"><ele>756.0</ele><time>2026-04-12T10:15:14.689Z</time></trkpt><trkpt lat="43.6182119" lon="12.3254003"><ele>758.0</ele><time>2026-04-12T10:15:15.696Z</time></trkpt><trkpt lat="43.6182734" lon="12.3255024"><ele>760.0</ele><time>2026-04-12T10:15:16.703Z</time></trkpt><trkpt lat="43.6183221" lon="12.3256158"><ele>762.0</ele><time>2026-04-12T10:15:17.767Z</time></trkpt><trkpt lat="43.6183458" lon="12.325739"><ele>764.0</ele><time>2026-04-12T10:15:18.718Z</time></trkpt><trkpt lat="43.618381" lon="12.3258593"><ele>760.5</ele><time>2026-04-12T10:15:19.689Z</time></trkpt><trkpt lat="43.6184237" lon="12.3259429"><ele>757.0</ele><time>2026-04-12T10:15:20.689Z</time></trkpt><trkpt lat="43.618476" lon="12.3259945"><ele>753.5</ele><time>2026-04-12T10:15:21.708Z</time></trkpt><trkpt lat="43.6186281" lon="12.3259785"><ele>750.0</ele><time>2026-04-12T10:15:23.677Z</time></trkpt><trkpt lat="43.618833" lon="12.325853"><ele>750.0</ele><time>2026-04-12T10:15:25.684Z</time></trkpt><trkpt lat="43.6189419" lon="12.3258007"><ele>750.0</ele><time>2026-04-12T10:15:26.698Z</time></trkpt><trkpt lat="43.6190302" lon="12.3257776"><ele>750.0</ele><time>2026-04-12T10:15:27.71Z</time></trkpt><trkpt lat="43.6191159" lon="12.3257753"><ele>750.0</ele><time>2026-04-12T10:15:28.696Z</time></trkpt><trkpt lat="43.619189" lon="12.3258044"><ele>750.0</ele><time>2026-04-12T10:15:29.691Z</time></trkpt><trkpt lat="43.6192458" lon="12.3259334"><ele>750.0</ele><time>2026-04-12T10:15:31.693Z</time></trkpt><trkpt lat="43.6192471" lon="12.3260604"><ele>750.0</ele><time>2026-04-12T10:15:32.701Z</time></trkpt><trkpt lat="43.6192477" lon="12.3261965"><ele>750.0</ele><time>2026-04-12T10:15:33.69Z</time></trkpt><trkpt lat="43.6192452" lon="12.3263446"><ele>750.0</ele><time>2026-04-12T10:15:34.699Z</time></trkpt><trkpt lat="43.6192457" lon="12.3265213"><ele>750.0</ele><time>2026-04-12T10:15:35.697Z</time></trkpt><trkpt lat="43.6192511" lon="12.3267207"><ele>748.0</ele><time>2026-04-12T10:15:36.683Z</time></trkpt><trkpt lat="43.6192622" lon="12.3269249"><ele>746.0</ele><time>2026-04-12T10:15:37.713Z</time></trkpt><trkpt lat="43.6192519" lon="12.3271088"><ele>744.0</ele><time>2026-04-12T10:15:38.692Z</time></trkpt><trkpt lat="43.6192368" lon="12.3272714"><ele>742.0</ele><time>2026-04-12T10:15:39.683Z</time></trkpt><trkpt lat="43.6192242" lon="12.3273886"><ele>741.5</ele><time>2026-04-12T10:15:40.691Z</time></trkpt><trkpt lat="43.6192235" lon="12.3274818"><ele>741.0</ele><time>2026-04-12T10:15:41.715Z</time></trkpt><trkpt lat="43.6192547" lon="12.3275873"><ele>740.5</ele><time>2026-04-12T10:15:43.71Z</time></trkpt><trkpt lat="43.6193731" lon="12.3275456"><ele>740.0</ele><time>2026-04-12T10:15:45.698Z</time></trkpt><trkpt lat="43.6195274" lon="12.3273692"><ele>746.25</ele><time>2026-04-12T10:15:47.791Z</time></trkpt><trkpt lat="43.6196625" lon="12.3272235"><ele>752.5</ele><time>2026-04-12T10:15:49.71Z</time></trkpt><trkpt lat="43.6197301" lon="12.3272022"><ele>758.75</ele><time>2026-04-12T10:15:50.69Z</time></trkpt><trkpt lat="43.61983" lon="12.3271806"><ele>765.0</ele><time>2026-04-12T10:15:51.685Z</time></trkpt><trkpt lat="43.6199655" lon="12.3271769"><ele>765.0</ele><time>2026-04-12T10:15:52.686Z</time></trkpt><trkpt lat="43.6201041" lon="12.3271968"><ele>765.0</ele><time>2026-04-12T10:15:53.711Z</time></trkpt><trkpt lat="43.6202467" lon="12.3272255"><ele>765.0</ele><time>2026-04-12T10:15:54.687Z</time></trkpt><trkpt lat="43.6203859" lon="12.327283"><ele>765.0</ele><time>2026-04-12T10:15:55.713Z</time></trkpt><trkpt lat="43.6205174" lon="12.3273721"><ele>763.75</ele><time>2026-04-12T10:15:56.691Z</time></trkpt><trkpt lat="43.6206375" lon="12.3274654"><ele>762.5</ele><time>2026-04-12T10:15:57.712Z</time></trkpt><trkpt lat="43.6207331" lon="12.3275854"><ele>761.25</ele><time>2026-04-12T10:15:58.705Z</time></trkpt><trkpt lat="43.6208054" lon="12.3277149"><ele>760.0</ele><time>2026-04-12T10:15:59.705Z</time></trkpt><trkpt lat="43.6208621" lon="12.3278651"><ele>760.0</ele><time>2026-04-12T10:16:00.688Z</time></trkpt><trkpt lat="43.6209072" lon="12.3280236"><ele>760.0</ele><time>2026-04-12T10:16:01.698Z</time></trkpt><trkpt lat="43.6209438" lon="12.3281842"><ele>760.0</ele><time>2026-04-12T10:16:02.717Z</time></trkpt><trkpt lat="43.620967" lon="12.3283231"><ele>760.0</ele><time>2026-04-12T10:16:03.702Z</time></trkpt><trkpt lat="43.6209833" lon="12.3284489"><ele>760.0</ele><time>2026-04-12T10:16:04.686Z</time></trkpt><trkpt lat="43.6209779" lon="12.3285916"><ele>758.2</ele><time>2026-04-12T10:16:05.695Z</time></trkpt><trkpt lat="43.6209486" lon="12.3286926"><ele>756.4</ele><time>2026-04-12T10:16:06.691Z</time></trkpt><trkpt lat="43.620801" lon="12.3288336"><ele>754.5999999999999</ele><time>2026-04-12T10:16:08.706Z</time></trkpt><trkpt lat="43.620705" lon="12.3288571"><ele>752.8</ele><time>2026-04-12T10:16:09.708Z</time></trkpt><trkpt lat="43.6206155" lon="12.3288543"><ele>751.0</ele><time>2026-04-12T10:16:10.694Z</time></trkpt><trkpt lat="43.6205267" lon="12.3289876"><ele>751.0</ele><time>2026-04-12T10:16:12.699Z</time></trkpt><trkpt lat="43.6205225" lon="12.329106"><ele>751.0</ele><time>2026-04-12T10:16:13.704Z</time></trkpt><trkpt lat="43.6205281" lon="12.3292479"><ele>751.0</ele><time>2026-04-12T10:16:14.697Z</time></trkpt><trkpt lat="43.6205573" lon="12.3293894"><ele>751.0</ele><time>2026-04-12T10:16:15.693Z</time></trkpt><trkpt lat="43.6205706" lon="12.329525"><ele>751.0</ele><time>2026-04-12T10:16:16.711Z</time></trkpt><trkpt lat="43.6205614" lon="12.3296641"><ele>752.4</ele><time>2026-04-12T10:16:17.697Z</time></trkpt><trkpt lat="43.620532" lon="12.329791"><ele>753.8</ele><time>2026-04-12T10:16:18.718Z</time></trkpt><trkpt lat="43.6204908" lon="12.3299314"><ele>755.1999999999999</ele><time>2026-04-12T10:16:19.691Z</time></trkpt><trkpt lat="43.620456" lon="12.3300685"><ele>756.5999999999999</ele><time>2026-04-12T10:16:20.7Z</time></trkpt><trkpt lat="43.6204374" lon="12.3301922"><ele>758.0</ele><time>2026-04-12T10:16:21.686Z</time></trkpt><trkpt lat="43.6204106" lon="12.3302875"><ele>758.0</ele><time>2026-04-12T10:16:22.699Z</time></trkpt><trkpt lat="43.6203407" lon="12.3303791"><ele>758.0</ele><time>2026-04-12T10:16:24.708Z</time></trkpt><trkpt lat="43.620278" lon="12.3303641"><ele>758.0</ele><time>2026-04-12T10:16:25.709Z</time></trkpt><trkpt lat="43.6202182" lon="12.3303318"><ele>758.0</ele><time>2026-04-12T10:16:26.7Z</time></trkpt><trkpt lat="43.6201405" lon="12.3302576"><ele>758.0</ele><time>2026-04-12T10:16:27.683Z</time></trkpt><trkpt lat="43.6199338" lon="12.3300335"><ele>754.5</ele><time>2026-04-12T10:16:29.71Z</time></trkpt><trkpt lat="43.619805" lon="12.3299209"><ele>751.0</ele><time>2026-04-12T10:16:30.716Z</time></trkpt><trkpt lat="43.6196814" lon="12.329824"><ele>747.5</ele><time>2026-04-12T10:16:31.715Z</time></trkpt><trkpt lat="43.619577" lon="12.32974"><ele>744.0</ele><time>2026-04-12T10:16:32.687Z</time></trkpt><trkpt lat="43.6194749" lon="12.3296926"><ele>743.0</ele><time>2026-04-12T10:16:33.691Z</time></trkpt><trkpt lat="43.6193724" lon="12.3296893"><ele>742.0</ele><time>2026-04-12T10:16:34.692Z</time></trkpt><trkpt lat="43.6192632" lon="12.3297205"><ele>741.0</ele><time>2026-04-12T10:16:35.708Z</time></trkpt><trkpt lat="43.6191709" lon="12.3297704"><ele>740.0</ele><time>2026-04-12T10:16:36.709Z</time></trkpt><trkpt lat="43.6190883" lon="12.3298296"><ele>739.0</ele><time>2026-04-12T10:16:37.718Z</time></trkpt><trkpt lat="43.6190369" lon="12.3299031"><ele>739.0</ele><time>2026-04-12T10:16:38.693Z</time></trkpt><trkpt lat="43.6190071" lon="12.3299917"><ele>739.0</ele><time>2026-04-12T10:16:39.703Z</time></trkpt><trkpt lat="43.6190105" lon="12.3301117"><ele>739.0</ele><time>2026-04-12T10:16:40.694Z</time></trkpt><trkpt lat="43.6190095" lon="12.3302676"><ele>739.0</ele><time>2026-04-12T10:16:41.697Z</time></trkpt><trkpt lat="43.6189786" lon="12.3304124"><ele>739.0</ele><time>2026-04-12T10:16:42.707Z</time></trkpt><trkpt lat="43.6189059" lon="12.3305308"><ele>741.3333333333334</ele><time>2026-04-12T10:16:43.69Z</time></trkpt><trkpt lat="43.6188442" lon="12.3306341"><ele>743.6666666666667</ele><time>2026-04-12T10:16:44.715Z</time></trkpt><trkpt lat="43.6187989" lon="12.3307131"><ele>746.0</ele><time>2026-04-12T10:16:45.756Z</time></trkpt><trkpt lat="43.6187838" lon="12.3308009"><ele>748.3333333333334</ele><time>2026-04-12T10:16:46.717Z</time></trkpt><trkpt lat="43.6187878" lon="12.330901"><ele>750.6666666666666</ele><time>2026-04-12T10:16:47.715Z</time></trkpt><trkpt lat="43.618795" lon="12.3310071"><ele>753.0</ele><time>2026-04-12T10:16:48.692Z</time></trkpt><trkpt lat="43.6186705" lon="12.3311436"><ele>750.25</ele><time>2026-04-12T10:16:51.698Z</time></trkpt><trkpt lat="43.6185703" lon="12.3311129"><ele>747.5</ele><time>2026-04-12T10:16:52.72Z</time></trkpt><trkpt lat="43.6184479" lon="12.331077"><ele>744.75</ele><time>2026-04-12T10:16:53.705Z</time></trkpt><trkpt lat="43.6183136" lon="12.3310195"><ele>742.0</ele><time>2026-04-12T10:16:54.711Z</time></trkpt><trkpt lat="43.6181783" lon="12.3309443"><ele>742.0</ele><time>2026-04-12T10:16:55.699Z</time></trkpt><trkpt lat="43.6180403" lon="12.3308597"><ele>742.0</ele><time>2026-04-12T10:16:56.699Z</time></trkpt><trkpt lat="43.617888" lon="12.3307801"><ele>742.0</ele><time>2026-04-12T10:16:57.715Z</time></trkpt><trkpt lat="43.6177453" lon="12.330699"><ele>741.75</ele><time>2026-04-12T10:16:58.696Z</time></trkpt><trkpt lat="43.617611" lon="12.3306029"><ele>741.5</ele><time>2026-04-12T10:16:59.724Z</time></trkpt><trkpt lat="43.6174963" lon="12.3305002"><ele>741.25</ele><time>2026-04-12T10:17:00.694Z</time></trkpt><trkpt lat="43.6173922" lon="12.3304225"><ele>741.0</ele><time>2026-04-12T10:17:01.683Z</time></trkpt><trkpt lat="43.6172876" lon="12.3304074"><ele>741.0</ele><time>2026-04-12T10:17:02.719Z</time></trkpt><trkpt lat="43.6171696" lon="12.3304918"><ele>741.0</ele><time>2026-04-12T10:17:04.716Z</time></trkpt><trkpt lat="43.617134" lon="12.3305914"><ele>741.0</ele><time>2026-04-12T10:17:05.709Z</time></trkpt><trkpt lat="43.6171205" lon="12.3307167"><ele>741.0</ele><time>2026-04-12T10:17:06.7Z</time></trkpt><trkpt lat="43.617123" lon="12.3308764"><ele>741.0</ele><time>2026-04-12T10:17:07.7Z</time></trkpt><trkpt lat="43.6171166" lon="12.3310321"><ele>741.0</ele><time>2026-04-12T10:17:08.716Z</time></trkpt><trkpt lat="43.6171298" lon="12.331161"><ele>741.0</ele><time>2026-04-12T10:17:09.722Z</time></trkpt><trkpt lat="43.6172068" lon="12.3313534"><ele>741.0</ele><time>2026-04-12T10:17:11.7Z</time></trkpt><trkpt lat="43.6172829" lon="12.3313992"><ele>741.0</ele><time>2026-04-12T10:17:12.704Z</time></trkpt><trkpt lat="43.6173834" lon="12.3314286"><ele>741.0</ele><time>2026-04-12T10:17:13.695Z</time></trkpt><trkpt lat="43.6174929" lon="12.3314812"><ele>741.0</ele><time>2026-04-12T10:17:14.681Z</time></trkpt><trkpt lat="43.6175842" lon="12.3315809"><ele>741.0</ele><time>2026-04-12T10:17:15.699Z</time></trkpt><trkpt lat="43.6176605" lon="12.3317104"><ele>741.0</ele><time>2026-04-12T10:17:16.704Z</time></trkpt><trkpt lat="43.6177123" lon="12.3318479"><ele>741.0</ele><time>2026-04-12T10:17:17.691Z</time></trkpt><trkpt lat="43.6177424" lon="12.3319986"><ele>741.0</ele><time>2026-04-12T10:17:18.697Z</time></trkpt><trkpt lat="43.6177471" lon="12.3321543"><ele>741.0</ele><time>2026-04-12T10:17:19.704Z</time></trkpt><trkpt lat="43.6177624" lon="12.3323181"><ele>741.0</ele><time>2026-04-12T10:17:20.707Z</time></trkpt><trkpt lat="43.6177933" lon="12.3324768"><ele>741.0</ele><time>2026-04-12T10:17:21.694Z</time></trkpt><trkpt lat="43.6178247" lon="12.332634"><ele>744.5999999999999</ele><time>2026-04-12T10:17:22.713Z</time></trkpt><trkpt lat="43.6178432" lon="12.3327838"><ele>748.2</ele><time>2026-04-12T10:17:23.694Z</time></trkpt><trkpt lat="43.6178612" lon="12.3329047"><ele>751.8</ele><time>2026-04-12T10:17:24.706Z</time></trkpt><trkpt lat="43.6179514" lon="12.3330109"><ele>755.4000000000001</ele><time>2026-04-12T10:17:26.706Z</time></trkpt><trkpt lat="43.618032" lon="12.333"><ele>759.0</ele><time>2026-04-12T10:17:27.699Z</time></trkpt><trkpt lat="43.6181132" lon="12.3329587"><ele>759.0</ele><time>2026-04-12T10:17:28.7Z</time></trkpt><trkpt lat="43.618183" lon="12.3329136"><ele>759.0</ele><time>2026-04-12T10:17:29.786Z</time></trkpt><trkpt lat="43.6182612" lon="12.3329106"><ele>759.0</ele><time>2026-04-12T10:17:30.792Z</time></trkpt><trkpt lat="43.6184383" lon="12.3329875"><ele>759.0</ele><time>2026-04-12T10:17:32.693Z</time></trkpt><trkpt lat="43.6185395" lon="12.3330371"><ele>759.0</ele><time>2026-04-12T10:17:33.703Z</time></trkpt><trkpt lat="43.618651" lon="12.3330932"><ele>757.25</ele><time>2026-04-12T10:17:34.714Z</time></trkpt><trkpt lat="43.6187845" lon="12.3331631"><ele>755.5</ele><time>2026-04-12T10:17:35.703Z</time></trkpt><trkpt lat="43.6189262" lon="12.3332526"><ele>753.75</ele><time>2026-04-12T10:17:36.72Z</time></trkpt><trkpt lat="43.6190502" lon="12.3333421"><ele>752.0</ele><time>2026-04-12T10:17:37.7Z</time></trkpt><trkpt lat="43.6191532" lon="12.3334254"><ele>752.0</ele><time>2026-04-12T10:17:38.687Z</time></trkpt><trkpt lat="43.6192413" lon="12.3335235"><ele>752.0</ele><time>2026-04-12T10:17:39.693Z</time></trkpt><trkpt lat="43.6193092" lon="12.3336314"><ele>752.0</ele><time>2026-04-12T10:17:40.688Z</time></trkpt><trkpt lat="43.619358" lon="12.3337354"><ele>752.0</ele><time>2026-04-12T10:17:41.691Z</time></trkpt><trkpt lat="43.6193829" lon="12.3338536"><ele>752.0</ele><time>2026-04-12T10:17:42.695Z</time></trkpt><trkpt lat="43.6193883" lon="12.3339756"><ele>751.2</ele><time>2026-04-12T10:17:43.691Z</time></trkpt><trkpt lat="43.6193883" lon="12.3341035"><ele>750.4000000000001</ele><time>2026-04-12T10:17:44.688Z</time></trkpt><trkpt lat="43.6193881" lon="12.3342381"><ele>749.5999999999999</ele><time>2026-04-12T10:17:45.69Z</time></trkpt><trkpt lat="43.6193802" lon="12.3344031"><ele>748.8</ele><time>2026-04-12T10:17:46.688Z</time></trkpt><trkpt lat="43.6193542" lon="12.3345842"><ele>748.0</ele><time>2026-04-12T10:17:47.691Z</time></trkpt><trkpt lat="43.619332" lon="12.3347296"><ele>748.0</ele><time>2026-04-12T10:17:48.701Z</time></trkpt><trkpt lat="43.6193183" lon="12.3348389"><ele>748.0</ele><time>2026-04-12T10:17:49.687Z</time></trkpt><trkpt lat="43.6193077" lon="12.334939"><ele>748.0</ele><time>2026-04-12T10:17:50.69Z</time></trkpt><trkpt lat="43.6192951" lon="12.3350317"><ele>748.0</ele><time>2026-04-12T10:17:51.695Z</time></trkpt><trkpt lat="43.6192093" lon="12.3352292"><ele>748.0</ele><time>2026-04-12T10:17:55.725Z</time></trkpt><trkpt lat="43.6191453" lon="12.3353298"><ele>749.5</ele><time>2026-04-12T10:28:34.692Z</time></trkpt><trkpt lat="43.6190301" lon="12.3356249"><ele>751.0</ele><time>2026-04-12T10:28:38.74Z</time></trkpt><trkpt lat="43.6189992" lon="12.3357295"><ele>752.5</ele><time>2026-04-12T10:28:39.687Z</time></trkpt><trkpt lat="43.6189761" lon="12.3358361"><ele>754.0</ele><time>2026-04-12T10:28:40.708Z</time></trkpt><trkpt lat="43.6189514" lon="12.3359445"><ele>754.0</ele><time>2026-04-12T10:28:41.696Z</time></trkpt><trkpt lat="43.6189246" lon="12.3360559"><ele>754.0</ele><time>2026-04-12T10:28:42.718Z</time></trkpt><trkpt lat="43.6188863" lon="12.3361711"><ele>754.0</ele><time>2026-04-12T10:28:43.708Z</time></trkpt><trkpt lat="43.6188411" lon="12.3362941"><ele>754.0</ele><time>2026-04-12T10:28:44.744Z</time></trkpt><trkpt lat="43.6187895" lon="12.3364087"><ele>754.0</ele><time>2026-04-12T10:28:45.708Z</time></trkpt><trkpt lat="43.6187355" lon="12.3365268"><ele>754.2</ele><time>2026-04-12T10:28:46.71Z</time></trkpt><trkpt lat="43.6186761" lon="12.3366433"><ele>754.4000000000001</ele><time>2026-04-12T10:28:47.713Z</time></trkpt><trkpt lat="43.6186121" lon="12.3367541"><ele>754.6</ele><time>2026-04-12T10:28:48.713Z</time></trkpt><trkpt lat="43.6185445" lon="12.3368622"><ele>754.8</ele><time>2026-04-12T10:28:49.722Z</time></trkpt><trkpt lat="43.6184669" lon="12.3369587"><ele>755.0</ele><time>2026-04-12T10:28:50.721Z</time></trkpt><trkpt lat="43.6183826" lon="12.3370531"><ele>755.0</ele><time>2026-04-12T10:28:51.707Z</time></trkpt><trkpt lat="43.6182992" lon="12.3371399"><ele>755.0</ele><time>2026-04-12T10:28:52.718Z</time></trkpt><trkpt lat="43.6182221" lon="12.337222"><ele>755.0</ele><time>2026-04-12T10:28:53.724Z</time></trkpt><trkpt lat="43.6181556" lon="12.3373105"><ele>755.0</ele><time>2026-04-12T10:28:54.705Z</time></trkpt><trkpt lat="43.6180992" lon="12.3374092"><ele>755.0</ele><time>2026-04-12T10:28:55.718Z</time></trkpt><trkpt lat="43.6180064" lon="12.3376379"><ele>755.4</ele><time>2026-04-12T10:28:57.706Z</time></trkpt><trkpt lat="43.6179703" lon="12.3377699"><ele>755.8</ele><time>2026-04-12T10:28:58.72Z</time></trkpt><trkpt lat="43.6179356" lon="12.3379067"><ele>756.2</ele><time>2026-04-12T10:28:59.779Z</time></trkpt><trkpt lat="43.6178994" lon="12.3380464"><ele>756.6</ele><time>2026-04-12T10:29:00.715Z</time></trkpt><trkpt lat="43.6178595" lon="12.3381846"><ele>757.0</ele><time>2026-04-12T10:29:01.732Z</time></trkpt><trkpt lat="43.6178174" lon="12.3383282"><ele>757.0</ele><time>2026-04-12T10:29:02.695Z</time></trkpt><trkpt lat="43.6177797" lon="12.3384828"><ele>757.0</ele><time>2026-04-12T10:29:03.696Z</time></trkpt><trkpt lat="43.6177458" lon="12.3386525"><ele>757.0</ele><time>2026-04-12T10:29:04.703Z</time></trkpt><trkpt lat="43.6177074" lon="12.3388318"><ele>757.0</ele><time>2026-04-12T10:29:05.713Z</time></trkpt><trkpt lat="43.6176611" lon="12.3390311"><ele>754.3333333333334</ele><time>2026-04-12T10:29:06.703Z</time></trkpt><trkpt lat="43.6176146" lon="12.3392415"><ele>751.6666666666666</ele><time>2026-04-12T10:29:07.709Z</time></trkpt><trkpt lat="43.6175599" lon="12.3394371"><ele>749.0</ele><time>2026-04-12T10:29:08.702Z</time></trkpt><trkpt lat="43.6175123" lon="12.3396231"><ele>746.25</ele><time>2026-04-12T10:29:09.706Z</time></trkpt><trkpt lat="43.6174733" lon="12.3397984"><ele>743.5</ele><time>2026-04-12T10:29:10.692Z</time></trkpt><trkpt lat="43.6174476" lon="12.339973"><ele>740.75</ele><time>2026-04-12T10:29:11.707Z</time></trkpt><trkpt lat="43.6174335" lon="12.3401434"><ele>738.0</ele><time>2026-04-12T10:29:12.701Z</time></trkpt><trkpt lat="43.6174287" lon="12.3402997"><ele>738.0</ele><time>2026-04-12T10:29:13.688Z</time></trkpt><trkpt lat="43.6174148" lon="12.3404377"><ele>738.0</ele><time>2026-04-12T10:29:14.709Z</time></trkpt><trkpt lat="43.6173832" lon="12.340568"><ele>738.0</ele><time>2026-04-12T10:29:15.697Z</time></trkpt><trkpt lat="43.6173412" lon="12.3406922"><ele>738.0</ele><time>2026-04-12T10:29:16.728Z</time></trkpt><trkpt lat="43.6172132" lon="12.3409368"><ele>735.25</ele><time>2026-04-12T10:29:18.704Z</time></trkpt><trkpt lat="43.6171637" lon="12.3410702"><ele>732.5</ele><time>2026-04-12T10:29:19.698Z</time></trkpt><trkpt lat="43.6171398" lon="12.3412208"><ele>729.75</ele><time>2026-04-12T10:29:20.749Z</time></trkpt><trkpt lat="43.6171447" lon="12.3413838"><ele>727.0</ele><time>2026-04-12T10:29:21.714Z</time></trkpt><trkpt lat="43.6171718" lon="12.3415556"><ele>726.0</ele><time>2026-04-12T10:29:22.704Z</time></trkpt><trkpt lat="43.617211" lon="12.341732"><ele>725.0</ele><time>2026-04-12T10:29:23.724Z</time></trkpt><trkpt lat="43.6172433" lon="12.341912"><ele>724.0</ele><time>2026-04-12T10:29:24.722Z</time></trkpt><trkpt lat="43.6172741" lon="12.3420855"><ele>723.0</ele><time>2026-04-12T10:29:25.715Z</time></trkpt><trkpt lat="43.6173003" lon="12.3422461"><ele>722.8</ele><time>2026-04-12T10:29:26.716Z</time></trkpt><trkpt lat="43.6173254" lon="12.342397"><ele>722.5999999999999</ele><time>2026-04-12T10:29:27.708Z</time></trkpt><trkpt lat="43.6173534" lon="12.3425361"><ele>722.4000000000001</ele><time>2026-04-12T10:29:28.729Z</time></trkpt><trkpt lat="43.617372" lon="12.3426625"><ele>722.2</ele><time>2026-04-12T10:29:29.713Z</time></trkpt><trkpt lat="43.6173726" lon="12.3427952"><ele>722.0</ele><time>2026-04-12T10:29:30.702Z</time></trkpt><trkpt lat="43.617351" lon="12.3429211"><ele>718.25</ele><time>2026-04-12T10:29:31.709Z</time></trkpt><trkpt lat="43.6173071" lon="12.343054"><ele>714.5</ele><time>2026-04-12T10:29:32.702Z</time></trkpt><trkpt lat="43.6172496" lon="12.3431961"><ele>710.75</ele><time>2026-04-12T10:29:33.712Z</time></trkpt><trkpt lat="43.617177" lon="12.3433381"><ele>707.0</ele><time>2026-04-12T10:29:34.705Z</time></trkpt><trkpt lat="43.6170862" lon="12.3434684"><ele>706.0</ele><time>2026-04-12T10:29:35.726Z</time></trkpt><trkpt lat="43.6169825" lon="12.3435971"><ele>705.0</ele><time>2026-04-12T10:29:36.74Z</time></trkpt><trkpt lat="43.6168781" lon="12.3437188"><ele>704.0</ele><time>2026-04-12T10:29:37.686Z</time></trkpt><trkpt lat="43.6166727" lon="12.3439229"><ele>704.0</ele><time>2026-04-12T10:29:39.722Z</time></trkpt><trkpt lat="43.6165666" lon="12.3440173"><ele>704.0</ele><time>2026-04-12T10:29:40.712Z</time></trkpt><trkpt lat="43.6164735" lon="12.34412"><ele>704.0</ele><time>2026-04-12T10:29:41.731Z</time></trkpt><trkpt lat="43.6163908" lon="12.3442143"><ele>704.0</ele><time>2026-04-12T10:29:42.725Z</time></trkpt><trkpt lat="43.6163124" lon="12.3442975"><ele>704.0</ele><time>2026-04-12T10:29:43.712Z</time></trkpt><trkpt lat="43.6162498" lon="12.3443719"><ele>704.0</ele><time>2026-04-12T10:29:44.71Z</time></trkpt><trkpt lat="43.6161941" lon="12.3444221"><ele>704.0</ele><time>2026-04-12T10:29:45.69Z</time></trkpt><trkpt lat="43.6160783" lon="12.3443989"><ele>704.0</ele><time>2026-04-12T10:29:47.718Z</time></trkpt><trkpt lat="43.6160106" lon="12.3443259"><ele>704.0</ele><time>2026-04-12T10:29:48.707Z</time></trkpt><trkpt lat="43.6159492" lon="12.3442168"><ele>704.25</ele><time>2026-04-12T10:29:49.708Z</time></trkpt><trkpt lat="43.6158782" lon="12.3440855"><ele>704.5</ele><time>2026-04-12T10:29:50.721Z</time></trkpt><trkpt lat="43.6157895" lon="12.3439531"><ele>704.75</ele><time>2026-04-12T10:29:51.716Z</time></trkpt><trkpt lat="43.6156963" lon="12.3438451"><ele>705.0</ele><time>2026-04-12T10:29:52.709Z</time></trkpt><trkpt lat="43.6156109" lon="12.3437464"><ele>704.1666666666666</ele><time>2026-04-12T10:29:53.767Z</time></trkpt><trkpt lat="43.6155322" lon="12.3436903"><ele>703.3333333333334</ele><time>2026-04-12T10:29:54.72Z</time></trkpt><trkpt lat="43.6154653" lon="12.3436795"><ele>702.5</ele><time>2026-04-12T10:29:55.725Z</time></trkpt><trkpt lat="43.6153984" lon="12.3437334"><ele>701.6666666666667</ele><time>2026-04-12T10:29:56.724Z</time></trkpt><trkpt lat="43.6153298" lon="12.3438175"><ele>700.8333333333334</ele><time>2026-04-12T10:29:57.724Z</time></trkpt><trkpt lat="43.6152532" lon="12.3439286"><ele>700.0</ele><time>2026-04-12T10:29:58.695Z</time></trkpt><trkpt lat="43.6150812" lon="12.3442243"><ele>700.0</ele><time>2026-04-12T10:30:00.707Z</time></trkpt><trkpt lat="43.6149909" lon="12.3443696"><ele>700.0</ele><time>2026-04-12T10:30:01.707Z</time></trkpt><trkpt lat="43.6148991" lon="12.3445095"><ele>700.0</ele><time>2026-04-12T10:30:02.696Z</time></trkpt><trkpt lat="43.6147952" lon="12.344643"><ele>700.0</ele><time>2026-04-12T10:30:03.705Z</time></trkpt><trkpt lat="43.6146823" lon="12.3447611"><ele>697.6</ele><time>2026-04-12T10:30:04.717Z</time></trkpt><trkpt lat="43.6145809" lon="12.3448662"><ele>695.2</ele><time>2026-04-12T10:30:05.698Z</time></trkpt><trkpt lat="43.6144963" lon="12.3449655"><ele>692.8</ele><time>2026-04-12T10:30:06.726Z</time></trkpt><trkpt lat="43.6144251" lon="12.3450602"><ele>690.4</ele><time>2026-04-12T10:30:07.694Z</time></trkpt><trkpt lat="43.6143667" lon="12.3451239"><ele>688.0</ele><time>2026-04-12T10:30:08.715Z</time></trkpt><trkpt lat="43.6143038" lon="12.3451529"><ele>688.0</ele><time>2026-04-12T10:30:09.767Z</time></trkpt><trkpt lat="43.614236" lon="12.3451562"><ele>688.0</ele><time>2026-04-12T10:30:10.705Z</time></trkpt><trkpt lat="43.6141666" lon="12.3451231"><ele>688.0</ele><time>2026-04-12T10:30:11.734Z</time></trkpt><trkpt lat="43.6140888" lon="12.3450482"><ele>688.0</ele><time>2026-04-12T10:30:12.707Z</time></trkpt><trkpt lat="43.6140249" lon="12.344948"><ele>688.0</ele><time>2026-04-12T10:30:13.703Z</time></trkpt><trkpt lat="43.613951" lon="12.3448487"><ele>688.0</ele><time>2026-04-12T10:30:14.781Z</time></trkpt><trkpt lat="43.6138676" lon="12.3447342"><ele>688.75</ele><time>2026-04-12T10:30:15.707Z</time></trkpt><trkpt lat="43.6137928" lon="12.3445979"><ele>689.5</ele><time>2026-04-12T10:30:16.741Z</time></trkpt><trkpt lat="43.6137087" lon="12.344455"><ele>690.25</ele><time>2026-04-12T10:30:17.713Z</time></trkpt><trkpt lat="43.6136298" lon="12.3443088"><ele>691.0</ele><time>2026-04-12T10:30:18.692Z</time></trkpt><trkpt lat="43.6135498" lon="12.3441961"><ele>691.0</ele><time>2026-04-12T10:30:19.699Z</time></trkpt><trkpt lat="43.6133598" lon="12.3440357"><ele>691.0</ele><time>2026-04-12T10:30:21.699Z</time></trkpt><trkpt lat="43.6132537" lon="12.3439465"><ele>691.0</ele><time>2026-04-12T10:30:22.734Z</time></trkpt><trkpt lat="43.6131185" lon="12.3438877"><ele>693.75</ele><time>2026-04-12T10:30:23.729Z</time></trkpt><trkpt lat="43.6129889" lon="12.3438283"><ele>696.5</ele><time>2026-04-12T10:30:24.708Z</time></trkpt><trkpt lat="43.6128643" lon="12.3437984"><ele>699.25</ele><time>2026-04-12T10:30:25.735Z</time></trkpt><trkpt lat="43.6127569" lon="12.3437881"><ele>702.0</ele><time>2026-04-12T10:30:26.725Z</time></trkpt><trkpt lat="43.6126584" lon="12.3437879"><ele>702.0</ele><time>2026-04-12T10:30:27.716Z</time></trkpt><trkpt lat="43.6125821" lon="12.3438267"><ele>702.0</ele><time>2026-04-12T10:30:28.722Z</time></trkpt><trkpt lat="43.6125026" lon="12.3438618"><ele>702.0</ele><time>2026-04-12T10:30:29.702Z</time></trkpt><trkpt lat="43.6124389" lon="12.3438828"><ele>702.0</ele><time>2026-04-12T10:30:30.698Z</time></trkpt><trkpt lat="43.6123295" lon="12.343839"><ele>702.0</ele><time>2026-04-12T10:30:32.708Z</time></trkpt><trkpt lat="43.6122679" lon="12.3436852"><ele>702.0</ele><time>2026-04-12T10:30:34.693Z</time></trkpt><trkpt lat="43.6122779" lon="12.3435939"><ele>702.0</ele><time>2026-04-12T10:30:35.725Z</time></trkpt><trkpt lat="43.6122329" lon="12.3434795"><ele>702.0</ele><time>2026-04-12T10:30:36.696Z</time></trkpt><trkpt lat="43.612159" lon="12.3433382"><ele>702.0</ele><time>2026-04-12T10:30:37.764Z</time></trkpt><trkpt lat="43.6120749" lon="12.3432056"><ele>702.0</ele><time>2026-04-12T10:30:38.701Z</time></trkpt><trkpt lat="43.6119879" lon="12.3430926"><ele>695.75</ele><time>2026-04-12T10:30:39.689Z</time></trkpt><trkpt lat="43.6118928" lon="12.3429962"><ele>689.5</ele><time>2026-04-12T10:30:40.707Z</time></trkpt><trkpt lat="43.6116864" lon="12.3429179"><ele>683.25</ele><time>2026-04-12T10:30:42.691Z</time></trkpt><trkpt lat="43.6115803" lon="12.3429173"><ele>677.0</ele><time>2026-04-12T10:30:43.727Z</time></trkpt><trkpt lat="43.6114752" lon="12.3429443"><ele>677.0</ele><time>2026-04-12T10:30:44.702Z</time></trkpt><trkpt lat="43.6113699" lon="12.3429736"><ele>677.0</ele><time>2026-04-12T10:30:45.711Z</time></trkpt><trkpt lat="43.6112842" lon="12.3429941"><ele>677.0</ele><time>2026-04-12T10:30:46.7Z</time></trkpt><trkpt lat="43.6112104" lon="12.3429949"><ele>677.0</ele><time>2026-04-12T10:30:47.709Z</time></trkpt><trkpt lat="43.6111297" lon="12.3429152"><ele>677.0</ele><time>2026-04-12T10:30:49.694Z</time></trkpt><trkpt lat="43.6111275" lon="12.3428258"><ele>677.0</ele><time>2026-04-12T10:30:50.707Z</time></trkpt><trkpt lat="43.6111516" lon="12.3427042"><ele>677.0</ele><time>2026-04-12T10:30:51.693Z</time></trkpt><trkpt lat="43.6111909" lon="12.3425631"><ele>677.0</ele><time>2026-04-12T10:30:52.709Z</time></trkpt><trkpt lat="43.6112546" lon="12.3424098"><ele>677.0</ele><time>2026-04-12T10:30:53.694Z</time></trkpt><trkpt lat="43.6113424" lon="12.3422673"><ele>677.0</ele><time>2026-04-12T10:30:54.719Z</time></trkpt><trkpt lat="43.6114463" lon="12.3421388"><ele>673.25</ele><time>2026-04-12T10:30:55.697Z</time></trkpt><trkpt lat="43.6115442" lon="12.3420108"><ele>669.5</ele><time>2026-04-12T10:30:56.704Z</time></trkpt><trkpt lat="43.6116248" lon="12.3418889"><ele>665.75</ele><time>2026-04-12T10:30:57.731Z</time></trkpt><trkpt lat="43.6116952" lon="12.341769"><ele>662.0</ele><time>2026-04-12T10:30:58.71Z</time></trkpt><trkpt lat="43.6117532" lon="12.3416605"><ele>662.0</ele><time>2026-04-12T10:30:59.761Z</time></trkpt><trkpt lat="43.6118061" lon="12.3415326"><ele>662.0</ele><time>2026-04-12T10:31:00.71Z</time></trkpt><trkpt lat="43.611852" lon="12.3414003"><ele>662.0</ele><time>2026-04-12T10:31:01.702Z</time></trkpt><trkpt lat="43.6119282" lon="12.341134"><ele>662.0</ele><time>2026-04-12T10:31:03.693Z</time></trkpt><trkpt lat="43.6119346" lon="12.3409924"><ele>664.6</ele><time>2026-04-12T10:31:04.722Z</time></trkpt><trkpt lat="43.6119174" lon="12.3408445"><ele>667.2</ele><time>2026-04-12T10:31:05.701Z</time></trkpt><trkpt lat="43.6119112" lon="12.3407164"><ele>669.8</ele><time>2026-04-12T10:31:06.719Z</time></trkpt><trkpt lat="43.6119352" lon="12.3405841"><ele>672.4</ele><time>2026-04-12T10:31:07.709Z</time></trkpt><trkpt lat="43.6119847" lon="12.3404312"><ele>675.0</ele><time>2026-04-12T10:31:08.69Z</time></trkpt><trkpt lat="43.6120375" lon="12.3402937"><ele>675.0</ele><time>2026-04-12T10:31:09.714Z</time></trkpt><trkpt lat="43.6120718" lon="12.3401564"><ele>675.0</ele><time>2026-04-12T10:31:10.712Z</time></trkpt><trkpt lat="43.6120645" lon="12.3400082"><ele>675.0</ele><time>2026-04-12T10:31:11.697Z</time></trkpt><trkpt lat="43.6120205" lon="12.3398488"><ele>675.0</ele><time>2026-04-12T10:31:12.691Z</time></trkpt><trkpt lat="43.6119549" lon="12.3397071"><ele>667.8</ele><time>2026-04-12T10:31:13.689Z</time></trkpt><trkpt lat="43.6118875" lon="12.3395747"><ele>660.6</ele><time>2026-04-12T10:31:14.689Z</time></trkpt><trkpt lat="43.6118419" lon="12.3394502"><ele>653.4</ele><time>2026-04-12T10:31:15.707Z</time></trkpt><trkpt lat="43.6118156" lon="12.3393286"><ele>646.2</ele><time>2026-04-12T10:31:16.716Z</time></trkpt><trkpt lat="43.6118144" lon="12.3392013"><ele>639.0</ele><time>2026-04-12T10:31:17.704Z</time></trkpt><trkpt lat="43.6118252" lon="12.3390651"><ele>639.0</ele><time>2026-04-12T10:31:18.715Z</time></trkpt><trkpt lat="43.6118174" lon="12.3389227"><ele>639.0</ele><time>2026-04-12T10:31:19.712Z</time></trkpt><trkpt lat="43.6117803" lon="12.3387963"><ele>639.0</ele><time>2026-04-12T10:31:20.708Z</time></trkpt><trkpt lat="43.6117093" lon="12.3386754"><ele>639.0</ele><time>2026-04-12T10:31:21.734Z</time></trkpt><trkpt lat="43.6116101" lon="12.3385465"><ele>639.25</ele><time>2026-04-12T10:31:22.704Z</time></trkpt><trkpt lat="43.6114295" lon="12.3382504"><ele>639.5</ele><time>2026-04-12T10:31:24.7Z</time></trkpt><trkpt lat="43.6113766" lon="12.3381351"><ele>639.75</ele><time>2026-04-12T10:31:25.715Z</time></trkpt><trkpt lat="43.611341" lon="12.3380523"><ele>640.0</ele><time>2026-04-12T10:31:26.707Z</time></trkpt><trkpt lat="43.6113177" lon="12.3379169"><ele>639.2</ele><time>2026-04-12T10:31:28.693Z</time></trkpt><trkpt lat="43.6113822" lon="12.3377819"><ele>638.4</ele><time>2026-04-12T10:31:30.696Z</time></trkpt><trkpt lat="43.6114468" lon="12.3377337"><ele>637.6</ele><time>2026-04-12T10:31:31.697Z</time></trkpt><trkpt lat="43.6115243" lon="12.3377068"><ele>636.8</ele><time>2026-04-12T10:31:32.72Z</time></trkpt><trkpt lat="43.6115808" lon="12.3376593"><ele>636.0</ele><time>2026-04-12T10:31:33.686Z</time></trkpt><trkpt lat="43.6116261" lon="12.337485"><ele>636.0</ele><time>2026-04-12T10:31:35.689Z</time></trkpt><trkpt lat="43.6116213" lon="12.3373423"><ele>636.0</ele><time>2026-04-12T10:31:36.694Z</time></trkpt><trkpt lat="43.61162" lon="12.3372024"><ele>636.0</ele><time>2026-04-12T10:31:37.691Z</time></trkpt><trkpt lat="43.6116429" lon="12.3370827"><ele>636.0</ele><time>2026-04-12T10:31:38.687Z</time></trkpt><trkpt lat="43.6116879" lon="12.3369611"><ele>636.0</ele><time>2026-04-12T10:31:39.678Z</time></trkpt><trkpt lat="43.6117327" lon="12.3368049"><ele>634.5</ele><time>2026-04-12T10:31:40.694Z</time></trkpt><trkpt lat="43.6117558" lon="12.3366156"><ele>633.0</ele><time>2026-04-12T10:31:41.681Z</time></trkpt><trkpt lat="43.6117493" lon="12.3364301"><ele>631.5</ele><time>2026-04-12T10:31:42.691Z</time></trkpt><trkpt lat="43.6117299" lon="12.3362715"><ele>630.0</ele><time>2026-04-12T10:31:43.759Z</time></trkpt><trkpt lat="43.6117286" lon="12.3360231"><ele>628.0</ele><time>2026-04-12T10:31:45.703Z</time></trkpt><trkpt lat="43.6117581" lon="12.3359158"><ele>626.0</ele><time>2026-04-12T10:31:46.718Z</time></trkpt><trkpt lat="43.6118202" lon="12.3357762"><ele>624.0</ele><time>2026-04-12T10:31:47.703Z</time></trkpt><trkpt lat="43.6119034" lon="12.3356205"><ele>622.0</ele><time>2026-04-12T10:31:48.711Z</time></trkpt><trkpt lat="43.6119814" lon="12.3354708"><ele>623.4</ele><time>2026-04-12T10:31:49.692Z</time></trkpt><trkpt lat="43.6120433" lon="12.3353474"><ele>624.8000000000001</ele><time>2026-04-12T10:31:50.695Z</time></trkpt><trkpt lat="43.6120928" lon="12.3352208"><ele>626.2</ele><time>2026-04-12T10:31:51.692Z</time></trkpt><trkpt lat="43.6121217" lon="12.3350991"><ele>627.6</ele><time>2026-04-12T10:31:52.704Z</time></trkpt><trkpt lat="43.6121176" lon="12.3349908"><ele>629.0</ele><time>2026-04-12T10:31:53.697Z</time></trkpt><trkpt lat="43.6120821" lon="12.3349124"><ele>627.6</ele><time>2026-04-12T10:31:54.686Z</time></trkpt><trkpt lat="43.6119712" lon="12.3348649"><ele>626.2</ele><time>2026-04-12T10:31:56.704Z</time></trkpt><trkpt lat="43.6119114" lon="12.3349131"><ele>624.8000000000001</ele><time>2026-04-12T10:31:57.693Z</time></trkpt><trkpt lat="43.6118394" lon="12.3350029"><ele>623.4</ele><time>2026-04-12T10:31:58.693Z</time></trkpt><trkpt lat="43.6117495" lon="12.3351238"><ele>622.0</ele><time>2026-04-12T10:31:59.696Z</time></trkpt><trkpt lat="43.6116485" lon="12.3352429"><ele>622.0</ele><time>2026-04-12T10:32:00.684Z</time></trkpt><trkpt lat="43.6115381" lon="12.3353777"><ele>622.0</ele><time>2026-04-12T10:32:01.71Z</time></trkpt><trkpt lat="43.6114314" lon="12.3355252"><ele>622.0</ele><time>2026-04-12T10:32:02.697Z</time></trkpt><trkpt lat="43.6113456" lon="12.3356743"><ele>622.0</ele><time>2026-04-12T10:32:03.672Z</time></trkpt><trkpt lat="43.6112694" lon="12.3358334"><ele>623.0</ele><time>2026-04-12T10:32:04.695Z</time></trkpt><trkpt lat="43.6111566" lon="12.3361967"><ele>624.0</ele><time>2026-04-12T10:32:06.697Z</time></trkpt><trkpt lat="43.611107" lon="12.3363556"><ele>625.0</ele><time>2026-04-12T10:32:07.684Z</time></trkpt><trkpt lat="43.61106" lon="12.3364915"><ele>623.6666666666667</ele><time>2026-04-12T10:32:08.696Z</time></trkpt><trkpt lat="43.6110272" lon="12.336588"><ele>622.3333333333334</ele><time>2026-04-12T10:32:09.697Z</time></trkpt><trkpt lat="43.6109261" lon="12.33669"><ele>621.0</ele><time>2026-04-12T10:32:11.706Z</time></trkpt><trkpt lat="43.6108428" lon="12.3367251"><ele>619.6666666666666</ele><time>2026-04-12T10:32:12.702Z</time></trkpt><trkpt lat="43.6107702" lon="12.3367745"><ele>618.3333333333333</ele><time>2026-04-12T10:32:13.696Z</time></trkpt><trkpt lat="43.6107257" lon="12.336843"><ele>617.0</ele><time>2026-04-12T10:32:14.712Z</time></trkpt><trkpt lat="43.6106885" lon="12.3369368"><ele>617.0</ele><time>2026-04-12T10:32:15.685Z</time></trkpt><trkpt lat="43.6106518" lon="12.3370719"><ele>617.0</ele><time>2026-04-12T10:32:16.699Z</time></trkpt><trkpt lat="43.6106162" lon="12.3372504"><ele>617.0</ele><time>2026-04-12T10:32:17.705Z</time></trkpt><trkpt lat="43.6105815" lon="12.3374497"><ele>617.0</ele><time>2026-04-12T10:32:18.756Z</time></trkpt><trkpt lat="43.610562" lon="12.3376406"><ele>616.5</ele><time>2026-04-12T10:32:19.688Z</time></trkpt><trkpt lat="43.6105599" lon="12.3378186"><ele>616.0</ele><time>2026-04-12T10:32:20.716Z</time></trkpt><trkpt lat="43.6105708" lon="12.3379921"><ele>615.5</ele><time>2026-04-12T10:32:21.729Z</time></trkpt><trkpt lat="43.6105615" lon="12.3381589"><ele>615.0</ele><time>2026-04-12T10:32:22.694Z</time></trkpt><trkpt lat="43.6105295" lon="12.3383083"><ele>615.0</ele><time>2026-04-12T10:32:23.718Z</time></trkpt><trkpt lat="43.6104889" lon="12.3384526"><ele>615.0</ele><time>2026-04-12T10:32:24.691Z</time></trkpt><trkpt lat="43.6104591" lon="12.3385912"><ele>615.0</ele><time>2026-04-12T10:32:25.711Z</time></trkpt><trkpt lat="43.6103658" lon="12.3388022"><ele>615.0</ele><time>2026-04-12T10:32:27.695Z</time></trkpt><trkpt lat="43.610278" lon="12.3388855"><ele>613.0</ele><time>2026-04-12T10:32:28.701Z</time></trkpt><trkpt lat="43.6101627" lon="12.3389876"><ele>611.0</ele><time>2026-04-12T10:32:29.767Z</time></trkpt><trkpt lat="43.6100449" lon="12.3390945"><ele>609.0</ele><time>2026-04-12T10:32:30.699Z</time></trkpt><trkpt lat="43.6099216" lon="12.3392108"><ele>607.0</ele><time>2026-04-12T10:32:31.712Z</time></trkpt><trkpt lat="43.6098192" lon="12.3393316"><ele>607.0</ele><time>2026-04-12T10:32:32.691Z</time></trkpt><trkpt lat="43.6097449" lon="12.3394736"><ele>607.0</ele><time>2026-04-12T10:32:33.688Z</time></trkpt><trkpt lat="43.6096809" lon="12.3396267"><ele>607.0</ele><time>2026-04-12T10:32:34.685Z</time></trkpt><trkpt lat="43.6096143" lon="12.3397818"><ele>607.0</ele><time>2026-04-12T10:32:35.712Z</time></trkpt><trkpt lat="43.6095466" lon="12.3399192"><ele>605.8000000000001</ele><time>2026-04-12T10:32:36.691Z</time></trkpt><trkpt lat="43.6094644" lon="12.3400419"><ele>604.6</ele><time>2026-04-12T10:32:37.705Z</time></trkpt><trkpt lat="43.6093668" lon="12.3401461"><ele>603.4000000000001</ele><time>2026-04-12T10:32:38.692Z</time></trkpt><trkpt lat="43.6092807" lon="12.3402208"><ele>602.2</ele><time>2026-04-12T10:32:39.769Z</time></trkpt><trkpt lat="43.6092107" lon="12.3402336"><ele>601.0</ele><time>2026-04-12T10:32:40.702Z</time></trkpt><trkpt lat="43.6091384" lon="12.3402273"><ele>601.0</ele><time>2026-04-12T10:32:41.714Z</time></trkpt><trkpt lat="43.6090725" lon="12.3401942"><ele>601.0</ele><time>2026-04-12T10:32:42.691Z</time></trkpt><trkpt lat="43.6090096" lon="12.3401242"><ele>601.0</ele><time>2026-04-12T10:32:43.703Z</time></trkpt><trkpt lat="43.6089424" lon="12.3400187"><ele>601.0</ele><time>2026-04-12T10:32:44.716Z</time></trkpt><trkpt lat="43.6088618" lon="12.3398981"><ele>601.0</ele><time>2026-04-12T10:32:45.696Z</time></trkpt><trkpt lat="43.6087657" lon="12.3397751"><ele>606.0</ele><time>2026-04-12T10:32:46.717Z</time></trkpt><trkpt lat="43.6085483" lon="12.3395778"><ele>611.0</ele><time>2026-04-12T10:32:48.709Z</time></trkpt><trkpt lat="43.6084313" lon="12.3395167"><ele>616.0</ele><time>2026-04-12T10:32:49.683Z</time></trkpt><trkpt lat="43.6083121" lon="12.3394775"><ele>616.0</ele><time>2026-04-12T10:32:50.712Z</time></trkpt><trkpt lat="43.6081885" lon="12.33948"><ele>616.0</ele><time>2026-04-12T10:32:51.696Z</time></trkpt><trkpt lat="43.6080655" lon="12.3394699"><ele>616.0</ele><time>2026-04-12T10:32:52.71Z</time></trkpt><trkpt lat="43.6079512" lon="12.3394673"><ele>616.0</ele><time>2026-04-12T10:32:53.699Z</time></trkpt><trkpt lat="43.6078238" lon="12.3394388"><ele>612.0</ele><time>2026-04-12T10:32:54.757Z</time></trkpt><trkpt lat="43.6076947" lon="12.3393815"><ele>608.0</ele><time>2026-04-12T10:32:55.693Z</time></trkpt><trkpt lat="43.6075551" lon="12.3393631"><ele>604.0</ele><time>2026-04-12T10:32:56.721Z</time></trkpt><trkpt lat="43.6074194" lon="12.3393411"><ele>600.0</ele><time>2026-04-12T10:32:57.692Z</time></trkpt><trkpt lat="43.6072937" lon="12.3393142"><ele>600.0</ele><time>2026-04-12T10:32:58.691Z</time></trkpt><trkpt lat="43.6071863" lon="12.3392742"><ele>600.0</ele><time>2026-04-12T10:32:59.712Z</time></trkpt><trkpt lat="43.6070942" lon="12.3392359"><ele>600.0</ele><time>2026-04-12T10:33:00.713Z</time></trkpt><trkpt lat="43.6070127" lon="12.3392072"><ele>600.0</ele><time>2026-04-12T10:33:01.702Z</time></trkpt><trkpt lat="43.6069261" lon="12.3391914"><ele>600.0</ele><time>2026-04-12T10:33:02.704Z</time></trkpt><trkpt lat="43.6068589" lon="12.3392107"><ele>600.0</ele><time>2026-04-12T10:33:03.753Z</time></trkpt><trkpt lat="43.6067912" lon="12.3393302"><ele>600.5</ele><time>2026-04-12T10:33:05.708Z</time></trkpt><trkpt lat="43.606833" lon="12.3394845"><ele>601.0</ele><time>2026-04-12T10:33:07.681Z</time></trkpt><trkpt lat="43.6069531" lon="12.3396745"><ele>601.5</ele><time>2026-04-12T10:33:09.722Z</time></trkpt><trkpt lat="43.6070371" lon="12.3397886"><ele>602.0</ele><time>2026-04-12T10:33:10.74Z</time></trkpt><trkpt lat="43.6071152" lon="12.3399109"><ele>599.6</ele><time>2026-04-12T10:33:11.712Z</time></trkpt><trkpt lat="43.6071809" lon="12.3400352"><ele>597.2</ele><time>2026-04-12T10:33:12.692Z</time></trkpt><trkpt lat="43.6072284" lon="12.3401699"><ele>594.8</ele><time>2026-04-12T10:33:13.69Z</time></trkpt><trkpt lat="43.6072551" lon="12.340304"><ele>592.4</ele><time>2026-04-12T10:33:14.695Z</time></trkpt><trkpt lat="43.6072638" lon="12.3404349"><ele>590.0</ele><time>2026-04-12T10:33:15.697Z</time></trkpt><trkpt lat="43.6072469" lon="12.3405876"><ele>589.75</ele><time>2026-04-12T10:33:16.691Z</time></trkpt><trkpt lat="43.6072247" lon="12.3407673"><ele>589.5</ele><time>2026-04-12T10:33:17.723Z</time></trkpt><trkpt lat="43.6072102" lon="12.3409618"><ele>589.25</ele><time>2026-04-12T10:33:18.709Z</time></trkpt><trkpt lat="43.6072045" lon="12.3411654"><ele>589.0</ele><time>2026-04-12T10:33:19.716Z</time></trkpt><trkpt lat="43.6071938" lon="12.3413512"><ele>588.75</ele><time>2026-04-12T10:33:20.732Z</time></trkpt><trkpt lat="43.6071753" lon="12.3415224"><ele>588.5</ele><time>2026-04-12T10:33:21.719Z</time></trkpt><trkpt lat="43.6071509" lon="12.3416783"><ele>588.25</ele><time>2026-04-12T10:33:22.732Z</time></trkpt><trkpt lat="43.6071095" lon="12.3418107"><ele>588.0</ele><time>2026-04-12T10:33:23.715Z</time></trkpt><trkpt lat="43.607048" lon="12.3419332"><ele>590.8</ele><time>2026-04-12T10:33:24.712Z</time></trkpt><trkpt lat="43.6069605" lon="12.3420471"><ele>593.5999999999999</ele><time>2026-04-12T10:33:25.774Z</time></trkpt><trkpt lat="43.6068757" lon="12.3421362"><ele>596.4000000000001</ele><time>2026-04-12T10:33:26.7Z</time></trkpt><trkpt lat="43.606786" lon="12.3421916"><ele>599.2</ele><time>2026-04-12T10:33:27.719Z</time></trkpt><trkpt lat="43.6066891" lon="12.3422329"><ele>602.0</ele><time>2026-04-12T10:33:28.716Z</time></trkpt><trkpt lat="43.6065267" lon="12.342316"><ele>602.0</ele><time>2026-04-12T10:33:30.721Z</time></trkpt><trkpt lat="43.6064915" lon="12.3423931"><ele>602.0</ele><time>2026-04-12T10:33:31.72Z</time></trkpt><trkpt lat="43.6065015" lon="12.3425687"><ele>602.0</ele><time>2026-04-12T10:33:33.705Z</time></trkpt><trkpt lat="43.6065528" lon="12.342679"><ele>602.0</ele><time>2026-04-12T10:33:34.705Z</time></trkpt><trkpt lat="43.6066291" lon="12.3428063"><ele>602.0</ele><time>2026-04-12T10:33:35.714Z</time></trkpt><trkpt lat="43.6067208" lon="12.3429261"><ele>602.0</ele><time>2026-04-12T10:33:36.683Z</time></trkpt><trkpt lat="43.6068158" lon="12.3430414"><ele>602.0</ele><time>2026-04-12T10:33:37.72Z</time></trkpt><trkpt lat="43.6069082" lon="12.343177"><ele>602.0</ele><time>2026-04-12T10:33:38.774Z</time></trkpt><trkpt lat="43.6069909" lon="12.3433217"><ele>602.0</ele><time>2026-04-12T10:33:39.706Z</time></trkpt><trkpt lat="43.607063" lon="12.343459"><ele>599.0</ele><time>2026-04-12T10:33:40.722Z</time></trkpt><trkpt lat="43.6071003" lon="12.3435661"><ele>596.0</ele><time>2026-04-12T10:33:41.741Z</time></trkpt><trkpt lat="43.6071266" lon="12.3436876"><ele>593.0</ele><time>2026-04-12T10:33:42.698Z</time></trkpt><trkpt lat="43.6071358" lon="12.3437985"><ele>590.0</ele><time>2026-04-12T10:33:43.693Z</time></trkpt><trkpt lat="43.6071198" lon="12.3438985"><ele>587.0</ele><time>2026-04-12T10:33:44.768Z</time></trkpt><trkpt lat="43.6070816" lon="12.3439982"><ele>584.0</ele><time>2026-04-12T10:33:45.69Z</time></trkpt><trkpt lat="43.6070279" lon="12.344099"><ele>588.25</ele><time>2026-04-12T10:33:46.7Z</time></trkpt><trkpt lat="43.6069668" lon="12.3441776"><ele>592.5</ele><time>2026-04-12T10:33:47.711Z</time></trkpt><trkpt lat="43.6068975" lon="12.3442322"><ele>596.75</ele><time>2026-04-12T10:33:48.695Z</time></trkpt><trkpt lat="43.6068036" lon="12.3442733"><ele>601.0</ele><time>2026-04-12T10:33:49.709Z</time></trkpt><trkpt lat="43.6065436" lon="12.3443122"><ele>601.0</ele><time>2026-04-12T10:33:51.694Z</time></trkpt><trkpt lat="43.6064102" lon="12.3443554"><ele>601.0</ele><time>2026-04-12T10:33:52.718Z</time></trkpt><trkpt lat="43.6062773" lon="12.3444367"><ele>601.0</ele><time>2026-04-12T10:33:53.705Z</time></trkpt><trkpt lat="43.6061468" lon="12.3445388"><ele>601.0</ele><time>2026-04-12T10:33:54.674Z</time></trkpt><trkpt lat="43.606022" lon="12.3446426"><ele>602.5</ele><time>2026-04-12T10:33:55.72Z</time></trkpt><trkpt lat="43.6059022" lon="12.3447394"><ele>604.0</ele><time>2026-04-12T10:33:56.689Z</time></trkpt><trkpt lat="43.6057802" lon="12.344836"><ele>605.5</ele><time>2026-04-12T10:33:57.697Z</time></trkpt><trkpt lat="43.6056669" lon="12.3449294"><ele>607.0</ele><time>2026-04-12T10:33:58.694Z</time></trkpt><trkpt lat="43.6055655" lon="12.345021"><ele>607.0</ele><time>2026-04-12T10:33:59.732Z</time></trkpt><trkpt lat="43.6054814" lon="12.3450928"><ele>607.0</ele><time>2026-04-12T10:34:00.697Z</time></trkpt><trkpt lat="43.6054083" lon="12.3451523"><ele>607.0</ele><time>2026-04-12T10:34:01.703Z</time></trkpt><trkpt lat="43.6053374" lon="12.3452046"><ele>607.0</ele><time>2026-04-12T10:34:02.779Z</time></trkpt><trkpt lat="43.6052793" lon="12.3452495"><ele>607.0</ele><time>2026-04-12T10:34:03.708Z</time></trkpt><trkpt lat="43.6052247" lon="12.3453726"><ele>607.0</ele><time>2026-04-12T10:34:05.683Z</time></trkpt><trkpt lat="43.6052687" lon="12.3455323"><ele>609.5</ele><time>2026-04-12T10:34:07.685Z</time></trkpt><trkpt lat="43.6053322" lon="12.3456117"><ele>612.0</ele><time>2026-04-12T10:34:08.718Z</time></trkpt><trkpt lat="43.60542" lon="12.3456961"><ele>614.5</ele><time>2026-04-12T10:34:09.692Z</time></trkpt><trkpt lat="43.6055237" lon="12.3457731"><ele>617.0</ele><time>2026-04-12T10:34:10.676Z</time></trkpt><trkpt lat="43.605802" lon="12.3458626"><ele>617.0</ele><time>2026-04-12T10:34:12.695Z</time></trkpt><trkpt lat="43.6059754" lon="12.3458805"><ele>617.0</ele><time>2026-04-12T10:34:13.685Z</time></trkpt><trkpt lat="43.6061444" lon="12.3459273"><ele>617.0</ele><time>2026-04-12T10:34:14.697Z</time></trkpt><trkpt lat="43.6063097" lon="12.3459882"><ele>613.5</ele><time>2026-04-12T10:34:15.697Z</time></trkpt><trkpt lat="43.6064633" lon="12.3460322"><ele>610.0</ele><time>2026-04-12T10:34:16.706Z</time></trkpt><trkpt lat="43.6065839" lon="12.3460795"><ele>606.5</ele><time>2026-04-12T10:34:17.7Z</time></trkpt><trkpt lat="43.6066804" lon="12.3461303"><ele>603.0</ele><time>2026-04-12T10:34:18.7Z</time></trkpt><trkpt lat="43.6067533" lon="12.3461727"><ele>603.0</ele><time>2026-04-12T10:34:19.708Z</time></trkpt><trkpt lat="43.6067948" lon="12.3462514"><ele>603.0</ele><time>2026-04-12T10:34:20.704Z</time></trkpt><trkpt lat="43.6068173" lon="12.3463436"><ele>603.0</ele><time>2026-04-12T10:34:21.699Z</time></trkpt><trkpt lat="43.6068326" lon="12.3464692"><ele>603.0</ele><time>2026-04-12T10:34:22.703Z</time></trkpt><trkpt lat="43.6068501" lon="12.3466178"><ele>603.0</ele><time>2026-04-12T10:34:23.681Z</time></trkpt><trkpt lat="43.6068893" lon="12.3467533"><ele>603.0</ele><time>2026-04-12T10:34:24.675Z</time></trkpt><trkpt lat="43.6069528" lon="12.3468356"><ele>602.5</ele><time>2026-04-12T10:34:25.772Z</time></trkpt><trkpt lat="43.6070381" lon="12.346884"><ele>602.0</ele><time>2026-04-12T10:34:26.7Z</time></trkpt><trkpt lat="43.6071333" lon="12.3469336"><ele>601.5</ele><time>2026-04-12T10:34:27.699Z</time></trkpt><trkpt lat="43.6072108" lon="12.3469762"><ele>601.0</ele><time>2026-04-12T10:34:28.683Z</time></trkpt><trkpt lat="43.6072353" lon="12.3470794"><ele>600.5</ele><time>2026-04-12T10:34:29.691Z</time></trkpt><trkpt lat="43.6072391" lon="12.3471908"><ele>600.0</ele><time>2026-04-12T10:34:30.695Z</time></trkpt><trkpt lat="43.6072261" lon="12.3472984"><ele>599.4</ele><time>2026-04-12T10:34:31.678Z</time></trkpt><trkpt lat="43.6071621" lon="12.3474873"><ele>598.8</ele><time>2026-04-12T10:34:33.692Z</time></trkpt><trkpt lat="43.6071018" lon="12.3475666"><ele>598.2</ele><time>2026-04-12T10:34:34.694Z</time></trkpt><trkpt lat="43.6070193" lon="12.3476281"><ele>597.6</ele><time>2026-04-12T10:34:35.676Z</time></trkpt><trkpt lat="43.60691" lon="12.3476838"><ele>597.0</ele><time>2026-04-12T10:34:36.763Z</time></trkpt><trkpt lat="43.6067958" lon="12.3477275"><ele>603.0</ele><time>2026-04-12T10:34:37.694Z</time></trkpt><trkpt lat="43.6066723" lon="12.3477412"><ele>609.0</ele><time>2026-04-12T10:34:38.702Z</time></trkpt><trkpt lat="43.6065341" lon="12.3477479"><ele>615.0</ele><time>2026-04-12T10:34:39.689Z</time></trkpt><trkpt lat="43.6063821" lon="12.3477576"><ele>621.0</ele><time>2026-04-12T10:34:40.682Z</time></trkpt><trkpt lat="43.606225" lon="12.3477958"><ele>624.75</ele><time>2026-04-12T10:34:41.685Z</time></trkpt><trkpt lat="43.6060667" lon="12.3478445"><ele>628.5</ele><time>2026-04-12T10:34:42.705Z</time></trkpt><trkpt lat="43.6059356" lon="12.347881"><ele>632.25</ele><time>2026-04-12T10:34:43.691Z</time></trkpt><trkpt lat="43.6058184" lon="12.3479121"><ele>636.0</ele><time>2026-04-12T10:34:44.708Z</time></trkpt><trkpt lat="43.6056954" lon="12.3479545"><ele>636.0</ele><time>2026-04-12T10:34:45.691Z</time></trkpt><trkpt lat="43.6055739" lon="12.3480395"><ele>636.0</ele><time>2026-04-12T10:34:46.701Z</time></trkpt><trkpt lat="43.6054533" lon="12.3481679"><ele>636.0</ele><time>2026-04-12T10:34:47.765Z</time></trkpt><trkpt lat="43.6053299" lon="12.3482861"><ele>636.0</ele><time>2026-04-12T10:34:48.7Z</time></trkpt><trkpt lat="43.605196" lon="12.3483932"><ele>634.3333333333334</ele><time>2026-04-12T10:34:49.717Z</time></trkpt><trkpt lat="43.6050437" lon="12.3484919"><ele>632.6666666666667</ele><time>2026-04-12T10:34:50.693Z</time></trkpt><trkpt lat="43.6049063" lon="12.3485814"><ele>631.0</ele><time>2026-04-12T10:34:51.696Z</time></trkpt><trkpt lat="43.6047884" lon="12.3487043"><ele>634.0</ele><time>2026-04-12T10:34:52.705Z</time></trkpt><trkpt lat="43.6045381" lon="12.3490869"><ele>637.0</ele><time>2026-04-12T10:34:54.735Z</time></trkpt><trkpt lat="43.6044215" lon="12.3493167"><ele>637.0</ele><time>2026-04-12T10:34:55.682Z</time></trkpt><trkpt lat="43.6043148" lon="12.3495148"><ele>637.0</ele><time>2026-04-12T10:34:56.714Z</time></trkpt><trkpt lat="43.6042221" lon="12.3496721"><ele>637.0</ele><time>2026-04-12T10:34:57.687Z</time></trkpt><trkpt lat="43.6041416" lon="12.3497922"><ele>637.0</ele><time>2026-04-12T10:34:58.681Z</time></trkpt><trkpt lat="43.6040731" lon="12.3498796"><ele>633.5</ele><time>2026-04-12T10:34:59.695Z</time></trkpt><trkpt lat="43.6040036" lon="12.3499313"><ele>630.0</ele><time>2026-04-12T10:35:00.698Z</time></trkpt><trkpt lat="43.6039297" lon="12.3499541"><ele>626.5</ele><time>2026-04-12T10:35:01.699Z</time></trkpt><trkpt lat="43.6038409" lon="12.3499588"><ele>623.0</ele><time>2026-04-12T10:35:02.716Z</time></trkpt><trkpt lat="43.6037517" lon="12.3499379"><ele>619.5</ele><time>2026-04-12T10:35:03.696Z</time></trkpt><trkpt lat="43.6036611" lon="12.3498764"><ele>616.0</ele><time>2026-04-12T10:35:04.694Z</time></trkpt><trkpt lat="43.6035654" lon="12.3497753"><ele>619.5</ele><time>2026-04-12T10:35:05.711Z</time></trkpt><trkpt lat="43.6034567" lon="12.3496386"><ele>623.0</ele><time>2026-04-12T10:35:06.698Z</time></trkpt><trkpt lat="43.6033328" lon="12.349514"><ele>626.5</ele><time>2026-04-12T10:35:07.716Z</time></trkpt><trkpt lat="43.6032211" lon="12.3494049"><ele>630.0</ele><time>2026-04-12T10:35:08.691Z</time></trkpt><trkpt lat="43.6031066" lon="12.3492967"><ele>630.0</ele><time>2026-04-12T10:35:09.7Z</time></trkpt><trkpt lat="43.6029846" lon="12.3492128"><ele>630.0</ele><time>2026-04-12T10:35:10.693Z</time></trkpt><trkpt lat="43.6028624" lon="12.3491341"><ele>630.0</ele><time>2026-04-12T10:35:11.782Z</time></trkpt><trkpt lat="43.6027504" lon="12.3490685"><ele>630.0</ele><time>2026-04-12T10:35:12.697Z</time></trkpt><trkpt lat="43.6026517" lon="12.3490332"><ele>631.5</ele><time>2026-04-12T10:35:13.692Z</time></trkpt><trkpt lat="43.6024635" lon="12.3489973"><ele>633.0</ele><time>2026-04-12T10:35:15.757Z</time></trkpt><trkpt lat="43.6023847" lon="12.3489289"><ele>634.5</ele><time>2026-04-12T10:35:16.697Z</time></trkpt><trkpt lat="43.6023222" lon="12.3488308"><ele>636.0</ele><time>2026-04-12T10:35:17.69Z</time></trkpt><trkpt lat="43.6022473" lon="12.3486917"><ele>636.0</ele><time>2026-04-12T10:35:18.701Z</time></trkpt><trkpt lat="43.6021741" lon="12.3485494"><ele>636.0</ele><time>2026-04-12T10:35:19.699Z</time></trkpt><trkpt lat="43.6020957" lon="12.3484545"><ele>636.0</ele><time>2026-04-12T10:35:20.714Z</time></trkpt><trkpt lat="43.6020154" lon="12.3484065"><ele>636.0</ele><time>2026-04-12T10:35:21.698Z</time></trkpt><trkpt lat="43.6019283" lon="12.3484067"><ele>636.0</ele><time>2026-04-12T10:35:22.706Z</time></trkpt><trkpt lat="43.6018229" lon="12.3484492"><ele>633.0</ele><time>2026-04-12T10:35:23.766Z</time></trkpt><trkpt lat="43.6017346" lon="12.3485097"><ele>630.0</ele><time>2026-04-12T10:35:24.693Z</time></trkpt><trkpt lat="43.6016564" lon="12.3485291"><ele>627.0</ele><time>2026-04-12T10:35:25.695Z</time></trkpt><trkpt lat="43.6015543" lon="12.3485329"><ele>624.0</ele><time>2026-04-12T10:35:26.698Z</time></trkpt><trkpt lat="43.6014408" lon="12.3484871"><ele>621.0</ele><time>2026-04-12T10:35:27.687Z</time></trkpt><trkpt lat="43.6013106" lon="12.3484222"><ele>621.0</ele><time>2026-04-12T10:35:28.706Z</time></trkpt><trkpt lat="43.6011864" lon="12.3483723"><ele>621.0</ele><time>2026-04-12T10:35:29.692Z</time></trkpt><trkpt lat="43.601069" lon="12.3483442"><ele>621.0</ele><time>2026-04-12T10:35:30.695Z</time></trkpt><trkpt lat="43.6009678" lon="12.3483184"><ele>621.0</ele><time>2026-04-12T10:35:31.702Z</time></trkpt><trkpt lat="43.6008855" lon="12.3483168"><ele>621.0</ele><time>2026-04-12T10:35:32.696Z</time></trkpt><trkpt lat="43.6008163" lon="12.3483367"><ele>621.3333333333334</ele><time>2026-04-12T10:35:33.69Z</time></trkpt><trkpt lat="43.600761" lon="12.3483809"><ele>621.6666666666667</ele><time>2026-04-12T10:35:34.699Z</time></trkpt><trkpt lat="43.600837" lon="12.3487235"><ele>622.0</ele><time>2026-04-12T10:35:37.7Z</time></trkpt><trkpt lat="43.6008827" lon="12.3488994"><ele>622.0</ele><time>2026-04-12T10:35:38.685Z</time></trkpt><trkpt lat="43.6009393" lon="12.3490603"><ele>622.0</ele><time>2026-04-12T10:35:39.695Z</time></trkpt><trkpt lat="43.6010107" lon="12.3492024"><ele>622.0</ele><time>2026-04-12T10:35:40.697Z</time></trkpt><trkpt lat="43.6011113" lon="12.3493418"><ele>622.0</ele><time>2026-04-12T10:35:41.702Z</time></trkpt><trkpt lat="43.6012139" lon="12.3494745"><ele>618.4</ele><time>2026-04-12T10:35:42.717Z</time></trkpt><trkpt lat="43.6012979" lon="12.349605"><ele>614.8000000000001</ele><time>2026-04-12T10:35:43.72Z</time></trkpt><trkpt lat="43.6013674" lon="12.3497331"><ele>611.2</ele><time>2026-04-12T10:35:44.717Z</time></trkpt><trkpt lat="43.6014119" lon="12.3498567"><ele>607.6</ele><time>2026-04-12T10:35:45.713Z</time></trkpt><trkpt lat="43.6014292" lon="12.3499899"><ele>604.0</ele><time>2026-04-12T10:35:46.799Z</time></trkpt><trkpt lat="43.6014239" lon="12.3503293"><ele>603.75</ele><time>2026-04-12T10:35:48.686Z</time></trkpt><trkpt lat="43.6013994" lon="12.3505217"><ele>603.5</ele><time>2026-04-12T10:35:49.711Z</time></trkpt><trkpt lat="43.6013774" lon="12.3507121"><ele>603.25</ele><time>2026-04-12T10:35:50.693Z</time></trkpt><trkpt lat="43.6013547" lon="12.3508699"><ele>603.0</ele><time>2026-04-12T10:35:51.702Z</time></trkpt><trkpt lat="43.6013247" lon="12.3509833"><ele>603.0</ele><time>2026-04-12T10:35:52.717Z</time></trkpt><trkpt lat="43.6012827" lon="12.3510691"><ele>603.0</ele><time>2026-04-12T10:35:53.695Z</time></trkpt><trkpt lat="43.6012162" lon="12.3511478"><ele>603.0</ele><time>2026-04-12T10:35:54.701Z</time></trkpt><trkpt lat="43.6011312" lon="12.3512259"><ele>603.0</ele><time>2026-04-12T10:35:55.688Z</time></trkpt><trkpt lat="43.6008478" lon="12.3513912"><ele>604.0</ele><time>2026-04-12T10:35:57.742Z</time></trkpt><trkpt lat="43.6006818" lon="12.3514829"><ele>605.0</ele><time>2026-04-12T10:35:58.696Z</time></trkpt><trkpt lat="43.6005069" lon="12.3515843"><ele>606.0</ele><time>2026-04-12T10:35:59.72Z</time></trkpt><trkpt lat="43.6003443" lon="12.3516813"><ele>610.25</ele><time>2026-04-12T10:36:00.685Z</time></trkpt><trkpt lat="43.6002087" lon="12.3517585"><ele>614.5</ele><time>2026-04-12T10:36:01.696Z</time></trkpt><trkpt lat="43.6000943" lon="12.3518103"><ele>618.75</ele><time>2026-04-12T10:36:02.716Z</time></trkpt><trkpt lat="43.5999769" lon="12.3518356"><ele>623.0</ele><time>2026-04-12T10:36:03.691Z</time></trkpt><trkpt lat="43.5998827" lon="12.3518414"><ele>623.0</ele><time>2026-04-12T10:36:04.723Z</time></trkpt><trkpt lat="43.5997977" lon="12.3518723"><ele>623.0</ele><time>2026-04-12T10:36:05.693Z</time></trkpt><trkpt lat="43.5997229" lon="12.3519408"><ele>623.0</ele><time>2026-04-12T10:36:06.691Z</time></trkpt><trkpt lat="43.5996488" lon="12.3520616"><ele>623.0</ele><time>2026-04-12T10:36:07.696Z</time></trkpt><trkpt lat="43.599589" lon="12.3521838"><ele>623.0</ele><time>2026-04-12T10:36:08.764Z</time></trkpt><trkpt lat="43.5995508" lon="12.3523202"><ele>623.4</ele><time>2026-04-12T10:36:09.687Z</time></trkpt><trkpt lat="43.5995286" lon="12.3524503"><ele>623.8</ele><time>2026-04-12T10:36:10.696Z</time></trkpt><trkpt lat="43.5995098" lon="12.3525828"><ele>624.2</ele><time>2026-04-12T10:36:11.7Z</time></trkpt><trkpt lat="43.5994679" lon="12.3527"><ele>624.6</ele><time>2026-04-12T10:36:12.707Z</time></trkpt><trkpt lat="43.5994034" lon="12.3528011"><ele>625.0</ele><time>2026-04-12T10:36:13.708Z</time></trkpt><trkpt lat="43.5993239" lon="12.3528868"><ele>625.0</ele><time>2026-04-12T10:36:14.711Z</time></trkpt><trkpt lat="43.5992334" lon="12.3529616"><ele>625.0</ele><time>2026-04-12T10:36:15.688Z</time></trkpt><trkpt lat="43.5991309" lon="12.3530303"><ele>625.0</ele><time>2026-04-12T10:36:16.709Z</time></trkpt><trkpt lat="43.5989667" lon="12.3531794"><ele>625.0</ele><time>2026-04-12T10:36:18.748Z</time></trkpt><trkpt lat="43.5989077" lon="12.353285"><ele>623.4</ele><time>2026-04-12T10:36:19.791Z</time></trkpt><trkpt lat="43.5988642" lon="12.3533958"><ele>621.8</ele><time>2026-04-12T10:36:20.692Z</time></trkpt><trkpt lat="43.5988402" lon="12.3534997"><ele>620.2</ele><time>2026-04-12T10:36:21.709Z</time></trkpt><trkpt lat="43.5987638" lon="12.3536543"><ele>618.6</ele><time>2026-04-12T10:36:23.714Z</time></trkpt><trkpt lat="43.5986991" lon="12.3537379"><ele>617.0</ele><time>2026-04-12T10:36:24.701Z</time></trkpt><trkpt lat="43.598625" lon="12.3538201"><ele>614.0</ele><time>2026-04-12T10:36:25.701Z</time></trkpt><trkpt lat="43.5985491" lon="12.3539034"><ele>611.0</ele><time>2026-04-12T10:36:26.72Z</time></trkpt><trkpt lat="43.5984683" lon="12.3539672"><ele>608.0</ele><time>2026-04-12T10:36:27.692Z</time></trkpt><trkpt lat="43.598378" lon="12.3540158"><ele>605.0</ele><time>2026-04-12T10:36:28.702Z</time></trkpt><trkpt lat="43.5982925" lon="12.3540267"><ele>602.0</ele><time>2026-04-12T10:36:29.697Z</time></trkpt><trkpt lat="43.5982015" lon="12.3540158"><ele>602.0</ele><time>2026-04-12T10:36:30.688Z</time></trkpt><trkpt lat="43.5981065" lon="12.3539838"><ele>602.0</ele><time>2026-04-12T10:36:31.699Z</time></trkpt><trkpt lat="43.5980173" lon="12.3539074"><ele>602.0</ele><time>2026-04-12T10:36:32.689Z</time></trkpt><trkpt lat="43.5979175" lon="12.3538205"><ele>602.0</ele><time>2026-04-12T10:36:33.722Z</time></trkpt><trkpt lat="43.5977952" lon="12.353752"><ele>605.25</ele><time>2026-04-12T10:36:34.682Z</time></trkpt><trkpt lat="43.5976615" lon="12.3536986"><ele>608.5</ele><time>2026-04-12T10:36:35.696Z</time></trkpt><trkpt lat="43.5975385" lon="12.3536568"><ele>611.75</ele><time>2026-04-12T10:36:36.681Z</time></trkpt><trkpt lat="43.5974232" lon="12.3536326"><ele>615.0</ele><time>2026-04-12T10:36:37.696Z</time></trkpt><trkpt lat="43.5972208" lon="12.3535755"><ele>615.0</ele><time>2026-04-12T10:36:39.689Z</time></trkpt><trkpt lat="43.5971096" lon="12.3535088"><ele>615.0</ele><time>2026-04-12T10:36:40.718Z</time></trkpt><trkpt lat="43.5970048" lon="12.353424"><ele>615.0</ele><time>2026-04-12T10:36:41.692Z</time></trkpt><trkpt lat="43.5968946" lon="12.3533806"><ele>615.0</ele><time>2026-04-12T10:36:42.791Z</time></trkpt><trkpt lat="43.596762" lon="12.3533934"><ele>611.6666666666666</ele><time>2026-04-12T10:36:43.703Z</time></trkpt><trkpt lat="43.5966148" lon="12.3533892"><ele>608.3333333333333</ele><time>2026-04-12T10:36:44.704Z</time></trkpt><trkpt lat="43.5964468" lon="12.353372"><ele>605.0</ele><time>2026-04-12T10:36:45.714Z</time></trkpt><trkpt lat="43.5962805" lon="12.3533405"><ele>601.6666666666666</ele><time>2026-04-12T10:36:46.704Z</time></trkpt><trkpt lat="43.5961081" lon="12.353302"><ele>598.3333333333334</ele><time>2026-04-12T10:36:47.7Z</time></trkpt><trkpt lat="43.595935" lon="12.3532736"><ele>595.0</ele><time>2026-04-12T10:36:48.733Z</time></trkpt><trkpt lat="43.5957624" lon="12.3532445"><ele>595.0</ele><time>2026-04-12T10:36:49.687Z</time></trkpt><trkpt lat="43.5955777" lon="12.3532192"><ele>595.0</ele><time>2026-04-12T10:36:50.701Z</time></trkpt><trkpt lat="43.5954031" lon="12.353187"><ele>595.0</ele><time>2026-04-12T10:36:51.699Z</time></trkpt><trkpt lat="43.5952447" lon="12.3531548"><ele>593.0</ele><time>2026-04-12T10:36:52.711Z</time></trkpt><trkpt lat="43.5950942" lon="12.3531214"><ele>591.0</ele><time>2026-04-12T10:36:53.692Z</time></trkpt><trkpt lat="43.5949463" lon="12.3530915"><ele>589.0</ele><time>2026-04-12T10:36:54.697Z</time></trkpt><trkpt lat="43.5948108" lon="12.3530741"><ele>587.0</ele><time>2026-04-12T10:36:55.699Z</time></trkpt><trkpt lat="43.5946971" lon="12.3530735"><ele>587.0</ele><time>2026-04-12T10:36:56.796Z</time></trkpt><trkpt lat="43.5945939" lon="12.353074"><ele>587.0</ele><time>2026-04-12T10:36:57.706Z</time></trkpt><trkpt lat="43.5945078" lon="12.3530798"><ele>587.0</ele><time>2026-04-12T10:36:58.711Z</time></trkpt><trkpt lat="43.5943624" lon="12.3530962"><ele>587.0</ele><time>2026-04-12T10:37:00.751Z</time></trkpt><trkpt lat="43.5942968" lon="12.3530958"><ele>587.0</ele><time>2026-04-12T10:37:01.702Z</time></trkpt><trkpt lat="43.5942323" lon="12.3530767"><ele>587.8333333333333</ele><time>2026-04-12T10:37:02.706Z</time></trkpt><trkpt lat="43.5941691" lon="12.3530553"><ele>588.6666666666666</ele><time>2026-04-12T10:37:03.698Z</time></trkpt><trkpt lat="43.5941073" lon="12.3530298"><ele>589.5</ele><time>2026-04-12T10:37:04.71Z</time></trkpt><trkpt lat="43.5939964" lon="12.3529767"><ele>590.3333333333334</ele><time>2026-04-12T10:37:06.692Z</time></trkpt><trkpt lat="43.5938934" lon="12.3529203"><ele>591.1666666666667</ele><time>2026-04-12T10:37:08.697Z</time></trkpt><trkpt lat="43.5938281" lon="12.3528679"><ele>592.0</ele><time>2026-04-12T10:37:11.701Z</time></trkpt><trkpt lat="43.5937703" lon="12.3528072"><ele>592.0</ele><time>2026-04-12T10:37:16.797Z</time></trkpt><trkpt lat="43.5937129" lon="12.3526993"><ele>592.0</ele><time>2026-04-12T10:37:43.706Z</time></trkpt><trkpt lat="43.5936129" lon="12.3525304"><ele>592.0</ele><time>2026-04-12T10:37:45.714Z</time></trkpt><trkpt lat="43.5935478" lon="12.352425"><ele>592.0</ele><time>2026-04-12T10:37:46.707Z</time></trkpt><trkpt lat="43.5934623" lon="12.3523034"><ele>590.25</ele><time>2026-04-12T10:37:47.738Z</time></trkpt><trkpt lat="43.5933638" lon="12.3521907"><ele>588.5</ele><time>2026-04-12T10:37:48.692Z</time></trkpt><trkpt lat="43.5932569" lon="12.3521002"><ele>586.75</ele><time>2026-04-12T10:37:49.696Z</time></trkpt><trkpt lat="43.5931551" lon="12.3520341"><ele>585.0</ele><time>2026-04-12T10:37:50.698Z</time></trkpt><trkpt lat="43.5930541" lon="12.3519737"><ele>585.0</ele><time>2026-04-12T10:37:51.702Z</time></trkpt><trkpt lat="43.5929481" lon="12.3519349"><ele>585.0</ele><time>2026-04-12T10:37:52.702Z</time></trkpt><trkpt lat="43.5928361" lon="12.3518899"><ele>585.0</ele><time>2026-04-12T10:37:53.689Z</time></trkpt><trkpt lat="43.5927449" lon="12.3518454"><ele>585.0</ele><time>2026-04-12T10:37:54.694Z</time></trkpt><trkpt lat="43.5926898" lon="12.3517924"><ele>585.0</ele><time>2026-04-12T10:37:55.7Z</time></trkpt><trkpt lat="43.5926504" lon="12.3517166"><ele>585.0</ele><time>2026-04-12T10:37:56.704Z</time></trkpt><trkpt lat="43.5926327" lon="12.3515958"><ele>585.0</ele><time>2026-04-12T10:37:57.702Z</time></trkpt><trkpt lat="43.5926275" lon="12.351462"><ele>585.0</ele><time>2026-04-12T10:37:58.698Z</time></trkpt><trkpt lat="43.5926303" lon="12.3513209"><ele>585.0</ele><time>2026-04-12T10:37:59.689Z</time></trkpt><trkpt lat="43.5926302" lon="12.3511752"><ele>585.0</ele><time>2026-04-12T10:38:00.697Z</time></trkpt><trkpt lat="43.5926308" lon="12.3510263"><ele>585.0</ele><time>2026-04-12T10:38:01.788Z</time></trkpt><trkpt lat="43.5926264" lon="12.3509072"><ele>585.0</ele><time>2026-04-12T10:38:02.731Z</time></trkpt><trkpt lat="43.5926086" lon="12.3508208"><ele>585.0</ele><time>2026-04-12T10:38:03.696Z</time></trkpt><trkpt lat="43.5925289" lon="12.3507482"><ele>585.0</ele><time>2026-04-12T10:38:05.69Z</time></trkpt><trkpt lat="43.5923097" lon="12.3508017"><ele>585.0</ele><time>2026-04-12T10:38:08.695Z</time></trkpt><trkpt lat="43.5922226" lon="12.3508334"><ele>585.0</ele><time>2026-04-12T10:38:09.689Z</time></trkpt><trkpt lat="43.5921399" lon="12.3508296"><ele>585.0</ele><time>2026-04-12T10:38:10.708Z</time></trkpt><trkpt lat="43.5920644" lon="12.3507928"><ele>585.0</ele><time>2026-04-12T10:38:11.686Z</time></trkpt><trkpt lat="43.5919907" lon="12.3507199"><ele>585.0</ele><time>2026-04-12T10:38:12.798Z</time></trkpt><trkpt lat="43.5919246" lon="12.3506301"><ele>585.0</ele><time>2026-04-12T10:38:13.704Z</time></trkpt><trkpt lat="43.5918563" lon="12.3505214"><ele>587.4</ele><time>2026-04-12T10:38:14.723Z</time></trkpt><trkpt lat="43.5917878" lon="12.3504135"><ele>589.8</ele><time>2026-04-12T10:38:15.72Z</time></trkpt><trkpt lat="43.5917233" lon="12.3503064"><ele>592.2</ele><time>2026-04-12T10:38:16.725Z</time></trkpt><trkpt lat="43.5916466" lon="12.3501898"><ele>594.6</ele><time>2026-04-12T10:38:17.699Z</time></trkpt><trkpt lat="43.5915577" lon="12.3500841"><ele>597.0</ele><time>2026-04-12T10:38:18.722Z</time></trkpt><trkpt lat="43.5914556" lon="12.3499888"><ele>597.0</ele><time>2026-04-12T10:38:19.705Z</time></trkpt><trkpt lat="43.5913437" lon="12.3499173"><ele>597.0</ele><time>2026-04-12T10:38:20.712Z</time></trkpt><trkpt lat="43.5912348" lon="12.3498634"><ele>597.0</ele><time>2026-04-12T10:38:21.72Z</time></trkpt><trkpt lat="43.591132" lon="12.3498261"><ele>597.0</ele><time>2026-04-12T10:38:22.714Z</time></trkpt><trkpt lat="43.591044" lon="12.3497889"><ele>597.0</ele><time>2026-04-12T10:38:23.707Z</time></trkpt><trkpt lat="43.5909726" lon="12.3497442"><ele>602.75</ele><time>2026-04-12T10:38:24.699Z</time></trkpt><trkpt lat="43.5909061" lon="12.3496587"><ele>608.5</ele><time>2026-04-12T10:38:25.694Z</time></trkpt><trkpt lat="43.5908401" lon="12.3495608"><ele>614.25</ele><time>2026-04-12T10:38:26.699Z</time></trkpt><trkpt lat="43.5906698" lon="12.3493827"><ele>620.0</ele><time>2026-04-12T10:38:28.734Z</time></trkpt><trkpt lat="43.5905808" lon="12.3492712"><ele>620.0</ele><time>2026-04-12T10:38:29.715Z</time></trkpt><trkpt lat="43.5904915" lon="12.3491397"><ele>620.0</ele><time>2026-04-12T10:38:30.697Z</time></trkpt><trkpt lat="43.5904101" lon="12.3489919"><ele>620.0</ele><time>2026-04-12T10:38:31.713Z</time></trkpt><trkpt lat="43.5903249" lon="12.3488243"><ele>620.0</ele><time>2026-04-12T10:38:32.706Z</time></trkpt><trkpt lat="43.590228" lon="12.3486571"><ele>620.75</ele><time>2026-04-12T10:38:33.726Z</time></trkpt><trkpt lat="43.5901294" lon="12.3485132"><ele>621.5</ele><time>2026-04-12T10:38:34.722Z</time></trkpt><trkpt lat="43.5900254" lon="12.3483849"><ele>622.25</ele><time>2026-04-12T10:38:35.707Z</time></trkpt><trkpt lat="43.5899122" lon="12.3482508"><ele>623.0</ele><time>2026-04-12T10:38:36.713Z</time></trkpt><trkpt lat="43.5898017" lon="12.3481436"><ele>623.0</ele><time>2026-04-12T10:38:37.716Z</time></trkpt><trkpt lat="43.5896961" lon="12.348067"><ele>623.0</ele><time>2026-04-12T10:38:38.706Z</time></trkpt><trkpt lat="43.5896027" lon="12.3480117"><ele>623.0</ele><time>2026-04-12T10:38:39.722Z</time></trkpt><trkpt lat="43.5895175" lon="12.3479659"><ele>623.0</ele><time>2026-04-12T10:38:40.705Z</time></trkpt><trkpt lat="43.5894419" lon="12.3478829"><ele>623.0</ele><time>2026-04-12T10:38:41.697Z</time></trkpt><trkpt lat="43.5893664" lon="12.3477762"><ele>625.0</ele><time>2026-04-12T10:38:42.712Z</time></trkpt><trkpt lat="43.5892552" lon="12.3476853"><ele>627.0</ele><time>2026-04-12T10:38:43.717Z</time></trkpt><trkpt lat="43.5891251" lon="12.3476233"><ele>629.0</ele><time>2026-04-12T10:38:44.72Z</time></trkpt><trkpt lat="43.5889997" lon="12.3476025"><ele>631.0</ele><time>2026-04-12T10:38:45.698Z</time></trkpt><trkpt lat="43.5888851" lon="12.3476126"><ele>631.0</ele><time>2026-04-12T10:38:46.714Z</time></trkpt><trkpt lat="43.5887708" lon="12.3476266"><ele>631.0</ele><time>2026-04-12T10:38:47.695Z</time></trkpt><trkpt lat="43.588543" lon="12.3475808"><ele>631.0</ele><time>2026-04-12T10:38:49.717Z</time></trkpt><trkpt lat="43.5884033" lon="12.3475267"><ele>629.75</ele><time>2026-04-12T10:38:50.703Z</time></trkpt><trkpt lat="43.5882691" lon="12.3474558"><ele>628.5</ele><time>2026-04-12T10:38:51.702Z</time></trkpt><trkpt lat="43.588134" lon="12.3473955"><ele>627.25</ele><time>2026-04-12T10:38:52.713Z</time></trkpt><trkpt lat="43.588011" lon="12.3473568"><ele>626.0</ele><time>2026-04-12T10:38:53.692Z</time></trkpt><trkpt lat="43.5879004" lon="12.3473108"><ele>623.75</ele><time>2026-04-12T10:38:54.719Z</time></trkpt><trkpt lat="43.5877942" lon="12.3472461"><ele>621.5</ele><time>2026-04-12T10:38:55.692Z</time></trkpt><trkpt lat="43.5876885" lon="12.3471299"><ele>619.25</ele><time>2026-04-12T10:38:56.706Z</time></trkpt><trkpt lat="43.5875706" lon="12.3470211"><ele>617.0</ele><time>2026-04-12T10:38:57.695Z</time></trkpt><trkpt lat="43.587438" lon="12.3469707"><ele>622.0</ele><time>2026-04-12T10:38:58.704Z</time></trkpt><trkpt lat="43.5873204" lon="12.3469466"><ele>627.0</ele><time>2026-04-12T10:38:59.785Z</time></trkpt><trkpt lat="43.5872149" lon="12.3469315"><ele>632.0</ele><time>2026-04-12T10:39:00.79Z</time></trkpt><trkpt lat="43.5871361" lon="12.3468901"><ele>637.0</ele><time>2026-04-12T10:39:01.699Z</time></trkpt><trkpt lat="43.5870852" lon="12.3468173"><ele>642.0</ele><time>2026-04-12T10:39:02.728Z</time></trkpt><trkpt lat="43.5870726" lon="12.3467178"><ele>642.0</ele><time>2026-04-12T10:39:03.696Z</time></trkpt><trkpt lat="43.5870988" lon="12.3465761"><ele>642.0</ele><time>2026-04-12T10:39:04.702Z</time></trkpt><trkpt lat="43.5871171" lon="12.3464"><ele>642.0</ele><time>2026-04-12T10:39:05.704Z</time></trkpt><trkpt lat="43.5871359" lon="12.3461951"><ele>642.0</ele><time>2026-04-12T10:39:06.705Z</time></trkpt><trkpt lat="43.5871424" lon="12.3459693"><ele>647.3333333333334</ele><time>2026-04-12T10:39:07.737Z</time></trkpt><trkpt lat="43.5871401" lon="12.3457615"><ele>652.6666666666667</ele><time>2026-04-12T10:39:08.693Z</time></trkpt><trkpt lat="43.5871015" lon="12.3454113"><ele>658.0</ele><time>2026-04-12T10:39:10.714Z</time></trkpt><trkpt lat="43.5870821" lon="12.3452735"><ele>658.8333333333334</ele><time>2026-04-12T10:39:11.706Z</time></trkpt><trkpt lat="43.5870689" lon="12.3451529"><ele>659.6666666666667</ele><time>2026-04-12T10:39:12.704Z</time></trkpt><trkpt lat="43.58705" lon="12.3450463"><ele>660.5</ele><time>2026-04-12T10:39:13.689Z</time></trkpt><trkpt lat="43.5870042" lon="12.3449635"><ele>661.3333333333334</ele><time>2026-04-12T10:39:14.691Z</time></trkpt><trkpt lat="43.5869374" lon="12.3449104"><ele>662.1666666666666</ele><time>2026-04-12T10:39:15.715Z</time></trkpt><trkpt lat="43.5868614" lon="12.3449082"><ele>663.0</ele><time>2026-04-12T10:39:16.713Z</time></trkpt><trkpt lat="43.5867861" lon="12.3449612"><ele>663.0</ele><time>2026-04-12T10:39:17.722Z</time></trkpt><trkpt lat="43.5867301" lon="12.3450713"><ele>663.0</ele><time>2026-04-12T10:39:18.707Z</time></trkpt><trkpt lat="43.5866918" lon="12.3452259"><ele>663.0</ele><time>2026-04-12T10:39:19.707Z</time></trkpt><trkpt lat="43.5866647" lon="12.3453715"><ele>663.0</ele><time>2026-04-12T10:39:20.779Z</time></trkpt><trkpt lat="43.5866404" lon="12.3454883"><ele>663.0</ele><time>2026-04-12T10:39:21.688Z</time></trkpt><trkpt lat="43.586587" lon="12.3455934"><ele>658.0</ele><time>2026-04-12T10:39:22.751Z</time></trkpt><trkpt lat="43.586483" lon="12.3457136"><ele>653.0</ele><time>2026-04-12T10:39:23.711Z</time></trkpt><trkpt lat="43.5863511" lon="12.3458582"><ele>648.0</ele><time>2026-04-12T10:39:24.698Z</time></trkpt><trkpt lat="43.5862549" lon="12.3459869"><ele>643.0</ele><time>2026-04-12T10:39:25.719Z</time></trkpt><trkpt lat="43.5861934" lon="12.3461091"><ele>646.8</ele><time>2026-04-12T10:39:26.687Z</time></trkpt><trkpt lat="43.5861502" lon="12.3462085"><ele>650.5999999999999</ele><time>2026-04-12T10:39:27.708Z</time></trkpt><trkpt lat="43.586091" lon="12.3462653"><ele>654.4000000000001</ele><time>2026-04-12T10:39:28.707Z</time></trkpt><trkpt lat="43.5860093" lon="12.346288"><ele>658.2</ele><time>2026-04-12T10:39:29.698Z</time></trkpt><trkpt lat="43.5858215" lon="12.3461708"><ele>662.0</ele><time>2026-04-12T10:39:31.695Z</time></trkpt><trkpt lat="43.5857096" lon="12.3460755"><ele>662.0</ele><time>2026-04-12T10:39:32.719Z</time></trkpt><trkpt lat="43.585594" lon="12.3460116"><ele>662.0</ele><time>2026-04-12T10:39:33.707Z</time></trkpt><trkpt lat="43.5854763" lon="12.3459882"><ele>662.0</ele><time>2026-04-12T10:39:34.787Z</time></trkpt><trkpt lat="43.5853694" lon="12.3459883"><ele>662.0</ele><time>2026-04-12T10:39:35.78Z</time></trkpt><trkpt lat="43.5852734" lon="12.3459807"><ele>662.0</ele><time>2026-04-12T10:39:36.706Z</time></trkpt><trkpt lat="43.5851809" lon="12.3459366"><ele>661.0</ele><time>2026-04-12T10:39:37.702Z</time></trkpt><trkpt lat="43.5851121" lon="12.3458676"><ele>660.0</ele><time>2026-04-12T10:39:38.703Z</time></trkpt><trkpt lat="43.5850801" lon="12.345757"><ele>659.0</ele><time>2026-04-12T10:39:39.697Z</time></trkpt><trkpt lat="43.5850431" lon="12.3455959"><ele>658.0</ele><time>2026-04-12T10:39:40.681Z</time></trkpt><trkpt lat="43.585066" lon="12.3454164"><ele>657.0</ele><time>2026-04-12T10:39:41.706Z</time></trkpt><trkpt lat="43.5850192" lon="12.345245"><ele>659.4000000000001</ele><time>2026-04-12T10:39:42.707Z</time></trkpt><trkpt lat="43.5849348" lon="12.34511"><ele>661.8000000000001</ele><time>2026-04-12T10:39:43.7Z</time></trkpt><trkpt lat="43.5848592" lon="12.3450002"><ele>664.2</ele><time>2026-04-12T10:39:44.692Z</time></trkpt><trkpt lat="43.5847873" lon="12.3449063"><ele>666.6</ele><time>2026-04-12T10:39:45.703Z</time></trkpt><trkpt lat="43.5847026" lon="12.3448486"><ele>669.0</ele><time>2026-04-12T10:39:46.695Z</time></trkpt><trkpt lat="43.5846193" lon="12.3448439"><ele>669.25</ele><time>2026-04-12T10:39:47.685Z</time></trkpt><trkpt lat="43.5844994" lon="12.3448902"><ele>669.5</ele><time>2026-04-12T10:39:48.704Z</time></trkpt><trkpt lat="43.5843756" lon="12.3449941"><ele>669.75</ele><time>2026-04-12T10:39:49.692Z</time></trkpt><trkpt lat="43.5842714" lon="12.3450841"><ele>670.0</ele><time>2026-04-12T10:39:50.695Z</time></trkpt><trkpt lat="43.5840956" lon="12.3452081"><ele>670.0</ele><time>2026-04-12T10:39:52.691Z</time></trkpt><trkpt lat="43.5840033" lon="12.3452165"><ele>670.0</ele><time>2026-04-12T10:39:53.699Z</time></trkpt><trkpt lat="43.5839216" lon="12.3451885"><ele>670.0</ele><time>2026-04-12T10:39:54.698Z</time></trkpt><trkpt lat="43.5838338" lon="12.3450996"><ele>670.0</ele><time>2026-04-12T10:39:55.703Z</time></trkpt><trkpt lat="43.5837256" lon="12.3449851"><ele>670.0</ele><time>2026-04-12T10:39:56.713Z</time></trkpt><trkpt lat="43.5836045" lon="12.3448965"><ele>668.75</ele><time>2026-04-12T10:39:57.703Z</time></trkpt><trkpt lat="43.5835005" lon="12.3448242"><ele>667.5</ele><time>2026-04-12T10:39:58.699Z</time></trkpt><trkpt lat="43.5834058" lon="12.3447474"><ele>666.25</ele><time>2026-04-12T10:39:59.702Z</time></trkpt><trkpt lat="43.5833245" lon="12.3446268"><ele>665.0</ele><time>2026-04-12T10:40:00.701Z</time></trkpt><trkpt lat="43.5832507" lon="12.3444931"><ele>668.75</ele><time>2026-04-12T10:40:01.692Z</time></trkpt><trkpt lat="43.5831726" lon="12.3443765"><ele>672.5</ele><time>2026-04-12T10:40:02.723Z</time></trkpt><trkpt lat="43.5830769" lon="12.3442823"><ele>676.25</ele><time>2026-04-12T10:40:03.699Z</time></trkpt><trkpt lat="43.5829615" lon="12.3442146"><ele>680.0</ele><time>2026-04-12T10:40:04.709Z</time></trkpt><trkpt lat="43.5828443" lon="12.3441658"><ele>680.0</ele><time>2026-04-12T10:40:05.783Z</time></trkpt><trkpt lat="43.5827542" lon="12.3441073"><ele>680.0</ele><time>2026-04-12T10:40:06.687Z</time></trkpt><trkpt lat="43.5826786" lon="12.3440544"><ele>680.0</ele><time>2026-04-12T10:40:07.703Z</time></trkpt><trkpt lat="43.5826082" lon="12.3440477"><ele>680.0</ele><time>2026-04-12T10:40:08.793Z</time></trkpt><trkpt lat="43.582546" lon="12.3441028"><ele>680.0</ele><time>2026-04-12T10:40:09.699Z</time></trkpt><trkpt lat="43.5825098" lon="12.3442005"><ele>680.0</ele><time>2026-04-12T10:40:10.717Z</time></trkpt><trkpt lat="43.5824819" lon="12.3443337"><ele>680.0</ele><time>2026-04-12T10:40:11.696Z</time></trkpt><trkpt lat="43.582388" lon="12.3445493"><ele>680.0</ele><time>2026-04-12T10:40:13.713Z</time></trkpt><trkpt lat="43.5823294" lon="12.3445968"><ele>680.0</ele><time>2026-04-12T10:40:14.699Z</time></trkpt><trkpt lat="43.5822622" lon="12.3446213"><ele>680.0</ele><time>2026-04-12T10:40:15.737Z</time></trkpt><trkpt lat="43.5821772" lon="12.3445983"><ele>680.0</ele><time>2026-04-12T10:40:16.79Z</time></trkpt><trkpt lat="43.5820997" lon="12.3445491"><ele>680.0</ele><time>2026-04-12T10:40:17.691Z</time></trkpt><trkpt lat="43.5820332" lon="12.3444845"><ele>680.0</ele><time>2026-04-12T10:40:18.722Z</time></trkpt><trkpt lat="43.5819721" lon="12.344429"><ele>680.0</ele><time>2026-04-12T10:40:19.795Z</time></trkpt><trkpt lat="43.5818959" lon="12.3443834"><ele>680.0</ele><time>2026-04-12T10:40:20.721Z</time></trkpt><trkpt lat="43.5818015" lon="12.3443404"><ele>680.0</ele><time>2026-04-12T10:40:21.731Z</time></trkpt><trkpt lat="43.5817001" lon="12.3443223"><ele>680.0</ele><time>2026-04-12T10:40:22.71Z</time></trkpt><trkpt lat="43.5816062" lon="12.3443301"><ele>680.8333333333333</ele><time>2026-04-12T10:40:23.704Z</time></trkpt><trkpt lat="43.5815226" lon="12.3443504"><ele>681.6666666666666</ele><time>2026-04-12T10:40:24.699Z</time></trkpt><trkpt lat="43.5814473" lon="12.3443728"><ele>682.5</ele><time>2026-04-12T10:40:25.714Z</time></trkpt><trkpt lat="43.5813814" lon="12.3443896"><ele>683.3333333333334</ele><time>2026-04-12T10:40:26.684Z</time></trkpt><trkpt lat="43.5812904" lon="12.3443674"><ele>684.1666666666667</ele><time>2026-04-12T10:40:28.785Z</time></trkpt><trkpt lat="43.5812307" lon="12.3442411"><ele>685.0</ele><time>2026-04-12T10:40:30.73Z</time></trkpt><trkpt lat="43.5812196" lon="12.344142"><ele>685.0</ele><time>2026-04-12T10:40:31.71Z</time></trkpt><trkpt lat="43.5812205" lon="12.3440274"><ele>685.0</ele><time>2026-04-12T10:40:32.723Z</time></trkpt><trkpt lat="43.5811764" lon="12.3437783"><ele>685.0</ele><time>2026-04-12T10:40:34.688Z</time></trkpt><trkpt lat="43.581117" lon="12.3437145"><ele>685.0</ele><time>2026-04-12T10:40:35.702Z</time></trkpt><trkpt lat="43.5810442" lon="12.3436403"><ele>685.0</ele><time>2026-04-12T10:40:36.716Z</time></trkpt><trkpt lat="43.5809519" lon="12.3436015"><ele>683.8333333333334</ele><time>2026-04-12T10:40:37.705Z</time></trkpt><trkpt lat="43.5808668" lon="12.343602"><ele>682.6666666666667</ele><time>2026-04-12T10:40:38.733Z</time></trkpt><trkpt lat="43.5807889" lon="12.3436121"><ele>681.5</ele><time>2026-04-12T10:40:39.775Z</time></trkpt><trkpt lat="43.5807132" lon="12.3436141"><ele>680.3333333333334</ele><time>2026-04-12T10:40:40.771Z</time></trkpt><trkpt lat="43.5806227" lon="12.3436129"><ele>679.1666666666666</ele><time>2026-04-12T10:40:41.791Z</time></trkpt><trkpt lat="43.580538" lon="12.3435854"><ele>678.0</ele><time>2026-04-12T10:40:42.728Z</time></trkpt><trkpt lat="43.5804592" lon="12.3435587"><ele>678.0</ele><time>2026-04-12T10:40:43.742Z</time></trkpt><trkpt lat="43.5803693" lon="12.3435213"><ele>678.0</ele><time>2026-04-12T10:40:44.684Z</time></trkpt><trkpt lat="43.5802732" lon="12.3434675"><ele>678.0</ele><time>2026-04-12T10:40:45.701Z</time></trkpt><trkpt lat="43.5801866" lon="12.3434194"><ele>678.0</ele><time>2026-04-12T10:40:46.694Z</time></trkpt><trkpt lat="43.5801061" lon="12.3433635"><ele>678.0</ele><time>2026-04-12T10:40:47.713Z</time></trkpt><trkpt lat="43.5800271" lon="12.3432796"><ele>678.5</ele><time>2026-04-12T10:40:48.699Z</time></trkpt><trkpt lat="43.5799546" lon="12.3431644"><ele>679.0</ele><time>2026-04-12T10:40:49.704Z</time></trkpt><trkpt lat="43.5798816" lon="12.3430302"><ele>679.5</ele><time>2026-04-12T10:40:50.716Z</time></trkpt><trkpt lat="43.5798057" lon="12.34289"><ele>680.0</ele><time>2026-04-12T10:40:51.707Z</time></trkpt><trkpt lat="43.5797264" lon="12.3427698"><ele>680.0</ele><time>2026-04-12T10:40:52.732Z</time></trkpt><trkpt lat="43.5796671" lon="12.34264"><ele>680.0</ele><time>2026-04-12T10:40:53.783Z</time></trkpt><trkpt lat="43.5795793" lon="12.3423326"><ele>680.0</ele><time>2026-04-12T10:40:55.725Z</time></trkpt><trkpt lat="43.5795391" lon="12.3421738"><ele>677.2</ele><time>2026-04-12T10:40:56.689Z</time></trkpt><trkpt lat="43.5794993" lon="12.342034"><ele>674.4</ele><time>2026-04-12T10:40:57.72Z</time></trkpt><trkpt lat="43.5794601" lon="12.3419"><ele>671.5999999999999</ele><time>2026-04-12T10:40:58.695Z</time></trkpt><trkpt lat="43.5794405" lon="12.3417616"><ele>668.8</ele><time>2026-04-12T10:40:59.733Z</time></trkpt><trkpt lat="43.5794317" lon="12.3416281"><ele>666.0</ele><time>2026-04-12T10:41:00.797Z</time></trkpt><trkpt lat="43.5794011" lon="12.3415193"><ele>666.0</ele><time>2026-04-12T10:41:01.713Z</time></trkpt><trkpt lat="43.5793553" lon="12.3414416"><ele>666.0</ele><time>2026-04-12T10:41:02.719Z</time></trkpt><trkpt lat="43.5792921" lon="12.3414525"><ele>666.0</ele><time>2026-04-12T10:41:03.699Z</time></trkpt><trkpt lat="43.5792263" lon="12.3415234"><ele>666.0</ele><time>2026-04-12T10:41:04.709Z</time></trkpt><trkpt lat="43.5791589" lon="12.3416261"><ele>666.0</ele><time>2026-04-12T10:41:05.72Z</time></trkpt><trkpt lat="43.5790982" lon="12.3417522"><ele>666.0</ele><time>2026-04-12T10:41:06.701Z</time></trkpt><trkpt lat="43.5790502" lon="12.3418622"><ele>666.0</ele><time>2026-04-12T10:41:07.714Z</time></trkpt><trkpt lat="43.5789968" lon="12.3419378"><ele>666.0</ele><time>2026-04-12T10:41:08.711Z</time></trkpt><trkpt lat="43.5789325" lon="12.3419734"><ele>666.0</ele><time>2026-04-12T10:41:09.708Z</time></trkpt><trkpt lat="43.5788057" lon="12.3419668"><ele>666.0</ele><time>2026-04-12T10:41:11.706Z</time></trkpt><trkpt lat="43.5787233" lon="12.341916"><ele>666.0</ele><time>2026-04-12T10:41:12.733Z</time></trkpt><trkpt lat="43.5786246" lon="12.3418564"><ele>667.25</ele><time>2026-04-12T10:41:13.691Z</time></trkpt><trkpt lat="43.5785201" lon="12.3418026"><ele>668.5</ele><time>2026-04-12T10:41:14.735Z</time></trkpt><trkpt lat="43.5783079" lon="12.3417134"><ele>669.75</ele><time>2026-04-12T10:41:16.706Z</time></trkpt><trkpt lat="43.5781975" lon="12.3417081"><ele>671.0</ele><time>2026-04-12T10:41:17.689Z</time></trkpt><trkpt lat="43.5780686" lon="12.3417244"><ele>671.0</ele><time>2026-04-12T10:41:18.692Z</time></trkpt><trkpt lat="43.577937" lon="12.341771"><ele>671.0</ele><time>2026-04-12T10:41:19.696Z</time></trkpt><trkpt lat="43.5778092" lon="12.3418033"><ele>671.0</ele><time>2026-04-12T10:41:20.708Z</time></trkpt><trkpt lat="43.5776896" lon="12.3418128"><ele>671.0</ele><time>2026-04-12T10:41:21.725Z</time></trkpt><trkpt lat="43.5775959" lon="12.3418473"><ele>671.0</ele><time>2026-04-12T10:41:22.704Z</time></trkpt><trkpt lat="43.5775215" lon="12.3419134"><ele>671.0</ele><time>2026-04-12T10:41:23.815Z</time></trkpt><trkpt lat="43.5774439" lon="12.3421026"><ele>671.0</ele><time>2026-04-12T10:41:25.73Z</time></trkpt><trkpt lat="43.5774534" lon="12.3422032"><ele>671.0</ele><time>2026-04-12T10:41:26.719Z</time></trkpt><trkpt lat="43.5774947" lon="12.3422994"><ele>671.0</ele><time>2026-04-12T10:41:27.7Z</time></trkpt><trkpt lat="43.5775645" lon="12.3423748"><ele>671.0</ele><time>2026-04-12T10:41:28.693Z</time></trkpt><trkpt lat="43.5776598" lon="12.3424255"><ele>671.0</ele><time>2026-04-12T10:41:29.684Z</time></trkpt><trkpt lat="43.5777745" lon="12.3424456"><ele>671.0</ele><time>2026-04-12T10:41:30.731Z</time></trkpt><trkpt lat="43.5778902" lon="12.3423984"><ele>671.0</ele><time>2026-04-12T10:41:31.72Z</time></trkpt><trkpt lat="43.5779788" lon="12.3424295"><ele>671.0</ele><time>2026-04-12T10:41:32.717Z</time></trkpt><trkpt lat="43.5780602" lon="12.3425178"><ele>672.3333333333333</ele><time>2026-04-12T10:41:33.707Z</time></trkpt><trkpt lat="43.5781451" lon="12.3426397"><ele>673.6666666666666</ele><time>2026-04-12T10:41:34.698Z</time></trkpt><trkpt lat="43.5782325" lon="12.3427703"><ele>675.0</ele><time>2026-04-12T10:41:35.703Z</time></trkpt><trkpt lat="43.5783957" lon="12.3430861"><ele>675.0</ele><time>2026-04-12T10:41:37.707Z</time></trkpt><trkpt lat="43.5784571" lon="12.3432754"><ele>675.0</ele><time>2026-04-12T10:41:38.7Z</time></trkpt><trkpt lat="43.5785074" lon="12.3434103"><ele>675.0</ele><time>2026-04-12T10:41:39.707Z</time></trkpt><trkpt lat="43.5785676" lon="12.3435087"><ele>675.0</ele><time>2026-04-12T10:41:40.715Z</time></trkpt><trkpt lat="43.5786063" lon="12.3436069"><ele>675.0</ele><time>2026-04-12T10:41:41.69Z</time></trkpt><trkpt lat="43.5786259" lon="12.3437123"><ele>675.0</ele><time>2026-04-12T10:41:42.722Z</time></trkpt><trkpt lat="43.5786197" lon="12.3438404"><ele>675.0</ele><time>2026-04-12T10:41:43.689Z</time></trkpt><trkpt lat="43.5786032" lon="12.3439947"><ele>675.0</ele><time>2026-04-12T10:41:44.705Z</time></trkpt><trkpt lat="43.5785761" lon="12.3441327"><ele>675.0</ele><time>2026-04-12T10:41:45.695Z</time></trkpt><trkpt lat="43.5785557" lon="12.3442692"><ele>675.0</ele><time>2026-04-12T10:41:46.707Z</time></trkpt><trkpt lat="43.5785684" lon="12.3443827"><ele>677.2</ele><time>2026-04-12T10:41:47.713Z</time></trkpt><trkpt lat="43.5786405" lon="12.3444637"><ele>679.4</ele><time>2026-04-12T10:41:48.701Z</time></trkpt><trkpt lat="43.5787424" lon="12.3445015"><ele>681.5999999999999</ele><time>2026-04-12T10:41:49.689Z</time></trkpt><trkpt lat="43.5788418" lon="12.3445108"><ele>683.8</ele><time>2026-04-12T10:41:50.695Z</time></trkpt><trkpt lat="43.5789357" lon="12.344531"><ele>686.0</ele><time>2026-04-12T10:41:51.752Z</time></trkpt><trkpt lat="43.5790094" lon="12.3446011"><ele>682.1999999999999</ele><time>2026-04-12T10:41:52.714Z</time></trkpt><trkpt lat="43.5790746" lon="12.3447189"><ele>678.4</ele><time>2026-04-12T10:41:53.702Z</time></trkpt><trkpt lat="43.5791176" lon="12.3448689"><ele>674.6</ele><time>2026-04-12T10:41:54.697Z</time></trkpt><trkpt lat="43.5791461" lon="12.3450119"><ele>670.8</ele><time>2026-04-12T10:41:55.711Z</time></trkpt><trkpt lat="43.5791604" lon="12.3451391"><ele>667.0</ele><time>2026-04-12T10:41:56.687Z</time></trkpt><trkpt lat="43.5791491" lon="12.3453225"><ele>667.0</ele><time>2026-04-12T10:41:58.7Z</time></trkpt><trkpt lat="43.5791265" lon="12.345407"><ele>667.0</ele><time>2026-04-12T10:41:59.7Z</time></trkpt><trkpt lat="43.5790781" lon="12.3455232"><ele>667.0</ele><time>2026-04-12T10:42:00.691Z</time></trkpt><trkpt lat="43.5790326" lon="12.3456709"><ele>667.0</ele><time>2026-04-12T10:42:01.693Z</time></trkpt><trkpt lat="43.5790123" lon="12.3458223"><ele>667.0</ele><time>2026-04-12T10:42:02.696Z</time></trkpt><trkpt lat="43.5790294" lon="12.3459561"><ele>667.8333333333334</ele><time>2026-04-12T10:42:03.678Z</time></trkpt><trkpt lat="43.579082" lon="12.3460607"><ele>668.6666666666667</ele><time>2026-04-12T10:42:04.703Z</time></trkpt><trkpt lat="43.579147" lon="12.3461592"><ele>669.5</ele><time>2026-04-12T10:42:05.696Z</time></trkpt><trkpt lat="43.5791983" lon="12.3462605"><ele>670.3333333333334</ele><time>2026-04-12T10:42:06.698Z</time></trkpt><trkpt lat="43.579219" lon="12.3463537"><ele>671.1666666666666</ele><time>2026-04-12T10:42:07.694Z</time></trkpt><trkpt lat="43.5792128" lon="12.346467"><ele>672.0</ele><time>2026-04-12T10:42:08.7Z</time></trkpt><trkpt lat="43.5792072" lon="12.3466466"><ele>673.75</ele><time>2026-04-12T10:42:09.685Z</time></trkpt><trkpt lat="43.5791998" lon="12.3468321"><ele>675.5</ele><time>2026-04-12T10:42:10.703Z</time></trkpt><trkpt lat="43.579204" lon="12.3470168"><ele>677.25</ele><time>2026-04-12T10:42:11.704Z</time></trkpt><trkpt lat="43.5792101" lon="12.3471758"><ele>679.0</ele><time>2026-04-12T10:42:12.7Z</time></trkpt><trkpt lat="43.5791913" lon="12.3473037"><ele>676.2</ele><time>2026-04-12T10:42:13.696Z</time></trkpt><trkpt lat="43.5791618" lon="12.3474174"><ele>673.4000000000001</ele><time>2026-04-12T10:42:14.693Z</time></trkpt><trkpt lat="43.579105" lon="12.347519"><ele>670.6</ele><time>2026-04-12T10:42:15.687Z</time></trkpt><trkpt lat="43.5790375" lon="12.3476299"><ele>667.8</ele><time>2026-04-12T10:42:16.727Z</time></trkpt><trkpt lat="43.5789771" lon="12.347733"><ele>665.0</ele><time>2026-04-12T10:42:17.692Z</time></trkpt><trkpt lat="43.5788363" lon="12.347897"><ele>665.0</ele><time>2026-04-12T10:42:19.704Z</time></trkpt><trkpt lat="43.5787378" lon="12.3479798"><ele>665.0</ele><time>2026-04-12T10:42:20.698Z</time></trkpt><trkpt lat="43.5786294" lon="12.3480511"><ele>665.0</ele><time>2026-04-12T10:42:21.717Z</time></trkpt><trkpt lat="43.5785209" lon="12.348118"><ele>665.0</ele><time>2026-04-12T10:42:22.684Z</time></trkpt><trkpt lat="43.5784257" lon="12.3481975"><ele>664.0</ele><time>2026-04-12T10:42:23.699Z</time></trkpt><trkpt lat="43.5783449" lon="12.3482907"><ele>663.0</ele><time>2026-04-12T10:42:24.718Z</time></trkpt><trkpt lat="43.5782861" lon="12.3483958"><ele>662.0</ele><time>2026-04-12T10:42:25.716Z</time></trkpt><trkpt lat="43.5782337" lon="12.3484856"><ele>661.0</ele><time>2026-04-12T10:42:26.696Z</time></trkpt><trkpt lat="43.5781793" lon="12.3485606"><ele>660.0</ele><time>2026-04-12T10:42:27.709Z</time></trkpt><trkpt lat="43.5781109" lon="12.3485995"><ele>659.0</ele><time>2026-04-12T10:42:28.713Z</time></trkpt><trkpt lat="43.5780276" lon="12.3485988"><ele>659.0</ele><time>2026-04-12T10:42:29.685Z</time></trkpt><trkpt lat="43.5779313" lon="12.3485905"><ele>659.0</ele><time>2026-04-12T10:42:30.706Z</time></trkpt><trkpt lat="43.5778342" lon="12.3485745"><ele>659.0</ele><time>2026-04-12T10:42:31.702Z</time></trkpt><trkpt lat="43.5777358" lon="12.3485948"><ele>659.0</ele><time>2026-04-12T10:42:32.718Z</time></trkpt><trkpt lat="43.5776428" lon="12.3486419"><ele>659.0</ele><time>2026-04-12T10:42:33.694Z</time></trkpt><trkpt lat="43.5775797" lon="12.3487198"><ele>659.0</ele><time>2026-04-12T10:42:34.702Z</time></trkpt><trkpt lat="43.5775446" lon="12.3488181"><ele>659.0</ele><time>2026-04-12T10:42:35.776Z</time></trkpt><trkpt lat="43.5775342" lon="12.3489481"><ele>659.0</ele><time>2026-04-12T10:42:36.692Z</time></trkpt><trkpt lat="43.5775333" lon="12.3491013"><ele>659.0</ele><time>2026-04-12T10:42:37.716Z</time></trkpt><trkpt lat="43.5775277" lon="12.3492355"><ele>659.0</ele><time>2026-04-12T10:42:38.776Z</time></trkpt><trkpt lat="43.5774835" lon="12.3494767"><ele>659.0</ele><time>2026-04-12T10:42:40.706Z</time></trkpt><trkpt lat="43.5774266" lon="12.34959"><ele>659.0</ele><time>2026-04-12T10:42:41.692Z</time></trkpt><trkpt lat="43.5773541" lon="12.3497109"><ele>659.0</ele><time>2026-04-12T10:42:42.698Z</time></trkpt><trkpt lat="43.577275" lon="12.3498488"><ele>659.0</ele><time>2026-04-12T10:42:43.698Z</time></trkpt><trkpt lat="43.5772001" lon="12.3499753"><ele>659.4000000000001</ele><time>2026-04-12T10:42:44.692Z</time></trkpt><trkpt lat="43.5771373" lon="12.3500879"><ele>659.8</ele><time>2026-04-12T10:42:45.696Z</time></trkpt><trkpt lat="43.5770752" lon="12.3501886"><ele>660.2</ele><time>2026-04-12T10:42:46.699Z</time></trkpt><trkpt lat="43.5770113" lon="12.3502761"><ele>660.5999999999999</ele><time>2026-04-12T10:42:47.707Z</time></trkpt><trkpt lat="43.5769401" lon="12.3503394"><ele>661.0</ele><time>2026-04-12T10:42:48.72Z</time></trkpt><trkpt lat="43.5768246" lon="12.3503484"><ele>661.0</ele><time>2026-04-12T10:42:50.701Z</time></trkpt><trkpt lat="43.5767112" lon="12.3503388"><ele>661.0</ele><time>2026-04-12T10:42:52.712Z</time></trkpt><trkpt lat="43.5766374" lon="12.3503494"><ele>661.0</ele><time>2026-04-12T10:42:53.751Z</time></trkpt><trkpt lat="43.5765613" lon="12.3503728"><ele>661.0</ele><time>2026-04-12T10:42:54.701Z</time></trkpt><trkpt lat="43.5764872" lon="12.3504001"><ele>661.0</ele><time>2026-04-12T10:42:55.692Z</time></trkpt><trkpt lat="43.5763858" lon="12.3504398"><ele>661.0</ele><time>2026-04-12T10:42:57.702Z</time></trkpt><trkpt lat="43.5763088" lon="12.350498"><ele>660.1666666666667</ele><time>2026-04-12T10:43:00.702Z</time></trkpt><trkpt lat="43.576187" lon="12.3506594"><ele>659.3333333333334</ele><time>2026-04-12T10:43:06.695Z</time></trkpt><trkpt lat="43.5761227" lon="12.3507035"><ele>658.5</ele><time>2026-04-12T10:43:08.696Z</time></trkpt><trkpt lat="43.5760559" lon="12.350726"><ele>657.6666666666666</ele><time>2026-04-12T10:43:10.701Z</time></trkpt><trkpt lat="43.5759916" lon="12.3507492"><ele>656.8333333333333</ele><time>2026-04-12T10:43:12.698Z</time></trkpt><trkpt lat="43.5759224" lon="12.3507608"><ele>656.0</ele><time>2026-04-12T10:43:14.702Z</time></trkpt><trkpt lat="43.5758455" lon="12.350772"><ele>656.0</ele><time>2026-04-12T10:43:16.69Z</time></trkpt><trkpt lat="43.5757494" lon="12.3507831"><ele>656.0</ele><time>2026-04-12T10:43:18.686Z</time></trkpt><trkpt lat="43.5756347" lon="12.3507751"><ele>656.0</ele><time>2026-04-12T10:43:20.781Z</time></trkpt><trkpt lat="43.5755629" lon="12.3507774"><ele>656.0</ele><time>2026-04-12T10:43:21.69Z</time></trkpt><trkpt lat="43.5754237" lon="12.3508005"><ele>656.0</ele><time>2026-04-12T10:43:23.77Z</time></trkpt><trkpt lat="43.5753617" lon="12.3508217"><ele>659.3333333333333</ele><time>2026-04-12T10:43:24.782Z</time></trkpt><trkpt lat="43.5752942" lon="12.3508529"><ele>662.6666666666666</ele><time>2026-04-12T10:43:25.702Z</time></trkpt><trkpt lat="43.5752231" lon="12.3508839"><ele>666.0</ele><time>2026-04-12T10:43:26.726Z</time></trkpt><trkpt lat="43.5751511" lon="12.3509147"><ele>669.3333333333334</ele><time>2026-04-12T10:43:27.694Z</time></trkpt><trkpt lat="43.5750749" lon="12.3509386"><ele>672.6666666666667</ele><time>2026-04-12T10:43:28.712Z</time></trkpt><trkpt lat="43.5750009" lon="12.3509335"><ele>676.0</ele><time>2026-04-12T10:43:29.705Z</time></trkpt><trkpt lat="43.5749248" lon="12.3509085"><ele>676.0</ele><time>2026-04-12T10:43:30.695Z</time></trkpt><trkpt lat="43.5748442" lon="12.3508602"><ele>676.0</ele><time>2026-04-12T10:43:31.702Z</time></trkpt><trkpt lat="43.5747524" lon="12.3508045"><ele>676.0</ele><time>2026-04-12T10:43:32.703Z</time></trkpt><trkpt lat="43.5746826" lon="12.3507727"><ele>676.0</ele><time>2026-04-12T10:43:33.705Z</time></trkpt><trkpt lat="43.57458" lon="12.3508075"><ele>676.0</ele><time>2026-04-12T10:43:35.693Z</time></trkpt><trkpt lat="43.5745368" lon="12.3509086"><ele>676.0</ele><time>2026-04-12T10:43:38.693Z</time></trkpt><trkpt lat="43.574551" lon="12.3510922"><ele>676.0</ele><time>2026-04-12T10:43:40.703Z</time></trkpt><trkpt lat="43.5745612" lon="12.3512232"><ele>676.0</ele><time>2026-04-12T10:43:41.692Z</time></trkpt><trkpt lat="43.5745707" lon="12.3513466"><ele>676.0</ele><time>2026-04-12T10:43:42.707Z</time></trkpt><trkpt lat="43.5745178" lon="12.3515571"><ele>674.6666666666667</ele><time>2026-04-12T10:43:45.692Z</time></trkpt><trkpt lat="43.5743955" lon="12.351548"><ele>673.3333333333334</ele><time>2026-04-12T10:43:47.696Z</time></trkpt><trkpt lat="43.574338" lon="12.3514965"><ele>672.0</ele><time>2026-04-12T10:43:48.693Z</time></trkpt><trkpt lat="43.5742726" lon="12.3514325"><ele>670.6666666666666</ele><time>2026-04-12T10:43:49.689Z</time></trkpt><trkpt lat="43.574196" lon="12.3513667"><ele>669.3333333333333</ele><time>2026-04-12T10:43:50.695Z</time></trkpt><trkpt lat="43.5741182" lon="12.3513227"><ele>668.0</ele><time>2026-04-12T10:43:51.696Z</time></trkpt><trkpt lat="43.5740304" lon="12.3513019"><ele>668.0</ele><time>2026-04-12T10:43:52.7Z</time></trkpt><trkpt lat="43.5739425" lon="12.3513265"><ele>668.0</ele><time>2026-04-12T10:43:53.686Z</time></trkpt><trkpt lat="43.5738555" lon="12.3513945"><ele>668.0</ele><time>2026-04-12T10:43:54.721Z</time></trkpt><trkpt lat="43.5737834" lon="12.3515067"><ele>668.0</ele><time>2026-04-12T10:43:55.696Z</time></trkpt><trkpt lat="43.5737253" lon="12.3516166"><ele>668.0</ele><time>2026-04-12T10:43:56.693Z</time></trkpt><trkpt lat="43.5736666" lon="12.3516961"><ele>669.5</ele><time>2026-04-12T10:43:57.708Z</time></trkpt><trkpt lat="43.5736026" lon="12.3517279"><ele>671.0</ele><time>2026-04-12T10:43:58.709Z</time></trkpt><trkpt lat="43.5735357" lon="12.3517273"><ele>672.5</ele><time>2026-04-12T10:43:59.738Z</time></trkpt><trkpt lat="43.5734697" lon="12.3517038"><ele>674.0</ele><time>2026-04-12T10:44:00.701Z</time></trkpt><trkpt lat="43.5733995" lon="12.3516614"><ele>675.5</ele><time>2026-04-12T10:44:01.71Z</time></trkpt><trkpt lat="43.5733167" lon="12.3516005"><ele>677.0</ele><time>2026-04-12T10:44:02.705Z</time></trkpt><trkpt lat="43.5732212" lon="12.3515236"><ele>682.0</ele><time>2026-04-12T10:44:03.694Z</time></trkpt><trkpt lat="43.573063" lon="12.3513579"><ele>687.0</ele><time>2026-04-12T10:44:05.696Z</time></trkpt><trkpt lat="43.5729764" lon="12.351287"><ele>692.0</ele><time>2026-04-12T10:44:06.716Z</time></trkpt><trkpt lat="43.5728767" lon="12.3512225"><ele>697.0</ele><time>2026-04-12T10:44:07.698Z</time></trkpt><trkpt lat="43.5727792" lon="12.3511897"><ele>697.6666666666667</ele><time>2026-04-12T10:44:08.721Z</time></trkpt><trkpt lat="43.5726946" lon="12.3511938"><ele>698.3333333333334</ele><time>2026-04-12T10:44:09.705Z</time></trkpt><trkpt lat="43.5726105" lon="12.3512424"><ele>699.0</ele><time>2026-04-12T10:44:10.704Z</time></trkpt><trkpt lat="43.5725332" lon="12.3512914"><ele>699.6666666666666</ele><time>2026-04-12T10:44:11.72Z</time></trkpt><trkpt lat="43.5724586" lon="12.3513299"><ele>700.3333333333333</ele><time>2026-04-12T10:44:12.727Z</time></trkpt><trkpt lat="43.5723865" lon="12.3513442"><ele>701.0</ele><time>2026-04-12T10:44:13.715Z</time></trkpt><trkpt lat="43.5723318" lon="12.3512988"><ele>701.0</ele><time>2026-04-12T10:44:14.695Z</time></trkpt><trkpt lat="43.5723088" lon="12.3512071"><ele>701.0</ele><time>2026-04-12T10:44:15.695Z</time></trkpt><trkpt lat="43.5723132" lon="12.3510792"><ele>701.0</ele><time>2026-04-12T10:44:16.72Z</time></trkpt><trkpt lat="43.5723159" lon="12.3509245"><ele>701.0</ele><time>2026-04-12T10:44:17.789Z</time></trkpt><trkpt lat="43.5723037" lon="12.3507411"><ele>701.0</ele><time>2026-04-12T10:44:18.697Z</time></trkpt><trkpt lat="43.5722751" lon="12.3505732"><ele>703.8</ele><time>2026-04-12T10:44:19.73Z</time></trkpt><trkpt lat="43.5722381" lon="12.3504467"><ele>706.5999999999999</ele><time>2026-04-12T10:44:20.691Z</time></trkpt><trkpt lat="43.5721853" lon="12.3503462"><ele>709.4</ele><time>2026-04-12T10:44:21.695Z</time></trkpt><trkpt lat="43.5721151" lon="12.3502877"><ele>712.2</ele><time>2026-04-12T10:44:22.701Z</time></trkpt><trkpt lat="43.5720317" lon="12.3502395"><ele>715.0</ele><time>2026-04-12T10:44:23.694Z</time></trkpt><trkpt lat="43.5719414" lon="12.3502123"><ele>715.0</ele><time>2026-04-12T10:44:24.727Z</time></trkpt><trkpt lat="43.5717872" lon="12.3502201"><ele>715.0</ele><time>2026-04-12T10:44:26.721Z</time></trkpt><trkpt lat="43.5717307" lon="12.3502783"><ele>715.0</ele><time>2026-04-12T10:44:27.694Z</time></trkpt><trkpt lat="43.5717025" lon="12.3503591"><ele>715.0</ele><time>2026-04-12T10:44:28.692Z</time></trkpt><trkpt lat="43.5716978" lon="12.3504561"><ele>715.0</ele><time>2026-04-12T10:44:29.704Z</time></trkpt><trkpt lat="43.5716915" lon="12.3505627"><ele>715.0</ele><time>2026-04-12T10:44:30.692Z</time></trkpt><trkpt lat="43.5716839" lon="12.3506625"><ele>712.3333333333334</ele><time>2026-04-12T10:44:31.721Z</time></trkpt><trkpt lat="43.5716289" lon="12.3507984"><ele>709.6666666666667</ele><time>2026-04-12T10:44:33.698Z</time></trkpt><trkpt lat="43.5715685" lon="12.3508572"><ele>707.0</ele><time>2026-04-12T10:44:34.698Z</time></trkpt><trkpt lat="43.5714953" lon="12.3508719"><ele>704.3333333333334</ele><time>2026-04-12T10:44:35.699Z</time></trkpt><trkpt lat="43.571428" lon="12.3508525"><ele>701.6666666666666</ele><time>2026-04-12T10:44:36.691Z</time></trkpt><trkpt lat="43.5713703" lon="12.3508084"><ele>699.0</ele><time>2026-04-12T10:44:37.704Z</time></trkpt><trkpt lat="43.5713217" lon="12.3507295"><ele>699.0</ele><time>2026-04-12T10:44:38.699Z</time></trkpt><trkpt lat="43.5712752" lon="12.3506212"><ele>699.0</ele><time>2026-04-12T10:44:39.695Z</time></trkpt><trkpt lat="43.5712204" lon="12.3504938"><ele>699.0</ele><time>2026-04-12T10:44:40.721Z</time></trkpt><trkpt lat="43.5711488" lon="12.350348"><ele>699.0</ele><time>2026-04-12T10:44:41.704Z</time></trkpt><trkpt lat="43.5710657" lon="12.3502074"><ele>702.0</ele><time>2026-04-12T10:44:42.726Z</time></trkpt><trkpt lat="43.5709811" lon="12.35009"><ele>705.0</ele><time>2026-04-12T10:44:43.695Z</time></trkpt><trkpt lat="43.5708992" lon="12.3499891"><ele>708.0</ele><time>2026-04-12T10:44:44.719Z</time></trkpt><trkpt lat="43.5708298" lon="12.3498969"><ele>711.0</ele><time>2026-04-12T10:44:45.7Z</time></trkpt><trkpt lat="43.5707992" lon="12.3496949"><ele>713.3333333333334</ele><time>2026-04-12T10:44:47.706Z</time></trkpt><trkpt lat="43.5708097" lon="12.3496001"><ele>715.6666666666666</ele><time>2026-04-12T10:44:48.73Z</time></trkpt><trkpt lat="43.5708374" lon="12.3494953"><ele>718.0</ele><time>2026-04-12T10:44:49.688Z</time></trkpt><trkpt lat="43.5708747" lon="12.3493742"><ele>720.3333333333333</ele><time>2026-04-12T10:44:50.688Z</time></trkpt><trkpt lat="43.5709041" lon="12.3492432"><ele>722.6666666666666</ele><time>2026-04-12T10:44:51.696Z</time></trkpt><trkpt lat="43.5709331" lon="12.3491353"><ele>725.0</ele><time>2026-04-12T10:44:52.705Z</time></trkpt><trkpt lat="43.5709315" lon="12.3490292"><ele>725.0</ele><time>2026-04-12T10:44:53.777Z</time></trkpt><trkpt lat="43.5709107" lon="12.34893"><ele>725.0</ele><time>2026-04-12T10:44:54.701Z</time></trkpt><trkpt lat="43.5708836" lon="12.34883"><ele>725.0</ele><time>2026-04-12T10:44:55.728Z</time></trkpt><trkpt lat="43.5708467" lon="12.34874"><ele>725.0</ele><time>2026-04-12T10:44:56.696Z</time></trkpt><trkpt lat="43.5707945" lon="12.3486736"><ele>725.0</ele><time>2026-04-12T10:44:57.702Z</time></trkpt><trkpt lat="43.5707233" lon="12.3486181"><ele>725.0</ele><time>2026-04-12T10:44:58.706Z</time></trkpt><trkpt lat="43.5706392" lon="12.3485678"><ele>726.4</ele><time>2026-04-12T10:44:59.702Z</time></trkpt><trkpt lat="43.5705359" lon="12.3485272"><ele>727.8</ele><time>2026-04-12T10:45:00.693Z</time></trkpt><trkpt lat="43.5704406" lon="12.348508"><ele>729.2</ele><time>2026-04-12T10:45:01.697Z</time></trkpt><trkpt lat="43.5703601" lon="12.3484975"><ele>730.6</ele><time>2026-04-12T10:45:02.709Z</time></trkpt><trkpt lat="43.5702766" lon="12.3485014"><ele>732.0</ele><time>2026-04-12T10:45:03.731Z</time></trkpt><trkpt lat="43.5701924" lon="12.3485213"><ele>732.0</ele><time>2026-04-12T10:45:04.694Z</time></trkpt><trkpt lat="43.5700982" lon="12.3485595"><ele>732.0</ele><time>2026-04-12T10:45:05.726Z</time></trkpt><trkpt lat="43.5700117" lon="12.3485962"><ele>732.0</ele><time>2026-04-12T10:45:06.691Z</time></trkpt><trkpt lat="43.5698549" lon="12.348601"><ele>732.0</ele><time>2026-04-12T10:45:08.698Z</time></trkpt><trkpt lat="43.5697942" lon="12.3485575"><ele>732.0</ele><time>2026-04-12T10:45:09.709Z</time></trkpt><trkpt lat="43.5697498" lon="12.3484035"><ele>732.0</ele><time>2026-04-12T10:45:11.688Z</time></trkpt><trkpt lat="43.5697744" lon="12.3482881"><ele>732.0</ele><time>2026-04-12T10:45:12.696Z</time></trkpt><trkpt lat="43.5698" lon="12.3481849"><ele>732.0</ele><time>2026-04-12T10:45:13.701Z</time></trkpt><trkpt lat="43.5698236" lon="12.3480742"><ele>732.0</ele><time>2026-04-12T10:45:14.726Z</time></trkpt><trkpt lat="43.5698412" lon="12.3479442"><ele>732.0</ele><time>2026-04-12T10:45:15.703Z</time></trkpt><trkpt lat="43.5698492" lon="12.3478044"><ele>732.0</ele><time>2026-04-12T10:45:16.722Z</time></trkpt><trkpt lat="43.5698533" lon="12.3476795"><ele>733.4000000000001</ele><time>2026-04-12T10:45:17.681Z</time></trkpt><trkpt lat="43.5698721" lon="12.3475803"><ele>734.8000000000001</ele><time>2026-04-12T10:45:18.697Z</time></trkpt><trkpt lat="43.5699045" lon="12.3474873"><ele>736.2</ele><time>2026-04-12T10:45:19.712Z</time></trkpt><trkpt lat="43.5699514" lon="12.3473919"><ele>737.6</ele><time>2026-04-12T10:45:20.698Z</time></trkpt><trkpt lat="43.5700219" lon="12.3472756"><ele>739.0</ele><time>2026-04-12T10:45:21.718Z</time></trkpt><trkpt lat="43.5700876" lon="12.3471553"><ele>739.0</ele><time>2026-04-12T10:45:22.702Z</time></trkpt><trkpt lat="43.5701298" lon="12.3470409"><ele>739.0</ele><time>2026-04-12T10:45:23.697Z</time></trkpt><trkpt lat="43.5701496" lon="12.3469156"><ele>739.0</ele><time>2026-04-12T10:45:24.69Z</time></trkpt><trkpt lat="43.5701458" lon="12.3467822"><ele>739.0</ele><time>2026-04-12T10:45:25.691Z</time></trkpt><trkpt lat="43.5701293" lon="12.3466443"><ele>739.0</ele><time>2026-04-12T10:45:26.703Z</time></trkpt><trkpt lat="43.5700972" lon="12.3465473"><ele>739.0</ele><time>2026-04-12T10:45:27.709Z</time></trkpt><trkpt lat="43.5699691" lon="12.3463811"><ele>739.0</ele><time>2026-04-12T10:45:29.698Z</time></trkpt><trkpt lat="43.5698897" lon="12.3462886"><ele>739.0</ele><time>2026-04-12T10:45:30.723Z</time></trkpt><trkpt lat="43.5698196" lon="12.3461954"><ele>739.0</ele><time>2026-04-12T10:45:31.684Z</time></trkpt><trkpt lat="43.5697627" lon="12.3460975"><ele>741.8000000000001</ele><time>2026-04-12T10:45:32.7Z</time></trkpt><trkpt lat="43.5697346" lon="12.3459973"><ele>744.6</ele><time>2026-04-12T10:45:33.702Z</time></trkpt><trkpt lat="43.5697289" lon="12.3458613"><ele>747.4</ele><time>2026-04-12T10:45:34.69Z</time></trkpt><trkpt lat="43.5697445" lon="12.3456958"><ele>750.2</ele><time>2026-04-12T10:45:35.697Z</time></trkpt><trkpt lat="43.5697515" lon="12.3455084"><ele>753.0</ele><time>2026-04-12T10:45:36.692Z</time></trkpt><trkpt lat="43.5697555" lon="12.345318"><ele>756.8</ele><time>2026-04-12T10:45:37.713Z</time></trkpt><trkpt lat="43.5697491" lon="12.3451428"><ele>760.5999999999999</ele><time>2026-04-12T10:45:38.693Z</time></trkpt><trkpt lat="43.5697288" lon="12.344997"><ele>764.4000000000001</ele><time>2026-04-12T10:45:39.705Z</time></trkpt><trkpt lat="43.5696821" lon="12.3448754"><ele>768.2</ele><time>2026-04-12T10:45:40.693Z</time></trkpt><trkpt lat="43.5696195" lon="12.344758"><ele>772.0</ele><time>2026-04-12T10:45:41.698Z</time></trkpt><trkpt lat="43.5695522" lon="12.344656"><ele>769.8333333333333</ele><time>2026-04-12T10:45:42.697Z</time></trkpt><trkpt lat="43.5694804" lon="12.344577"><ele>767.6666666666666</ele><time>2026-04-12T10:45:43.697Z</time></trkpt><trkpt lat="43.5694023" lon="12.3445243"><ele>765.5</ele><time>2026-04-12T10:45:44.699Z</time></trkpt><trkpt lat="43.569324" lon="12.3444826"><ele>763.3333333333333</ele><time>2026-04-12T10:45:45.688Z</time></trkpt><trkpt lat="43.5692411" lon="12.3444566"><ele>761.1666666666666</ele><time>2026-04-12T10:45:46.686Z</time></trkpt><trkpt lat="43.5691627" lon="12.3444276"><ele>759.0</ele><time>2026-04-12T10:45:47.698Z</time></trkpt><trkpt lat="43.5690886" lon="12.3443637"><ele>759.0</ele><time>2026-04-12T10:45:48.715Z</time></trkpt><trkpt lat="43.5689574" lon="12.3441848"><ele>759.0</ele><time>2026-04-12T10:45:50.721Z</time></trkpt><trkpt lat="43.5688746" lon="12.3441194"><ele>759.0</ele><time>2026-04-12T10:45:51.706Z</time></trkpt><trkpt lat="43.5687851" lon="12.3440592"><ele>759.0</ele><time>2026-04-12T10:45:52.722Z</time></trkpt><trkpt lat="43.5686862" lon="12.344029"><ele>758.4000000000001</ele><time>2026-04-12T10:45:53.702Z</time></trkpt><trkpt lat="43.5685805" lon="12.3440174"><ele>757.8</ele><time>2026-04-12T10:45:54.715Z</time></trkpt><trkpt lat="43.5684716" lon="12.3440327"><ele>757.2</ele><time>2026-04-12T10:45:55.695Z</time></trkpt><trkpt lat="43.5683595" lon="12.344058"><ele>756.5999999999999</ele><time>2026-04-12T10:45:56.717Z</time></trkpt><trkpt lat="43.5682628" lon="12.3440573"><ele>756.0</ele><time>2026-04-12T10:45:57.707Z</time></trkpt><trkpt lat="43.5681678" lon="12.3440225"><ele>756.0</ele><time>2026-04-12T10:45:58.691Z</time></trkpt><trkpt lat="43.568079" lon="12.3439595"><ele>756.0</ele><time>2026-04-12T10:45:59.709Z</time></trkpt><trkpt lat="43.5679872" lon="12.343884"><ele>756.0</ele><time>2026-04-12T10:46:00.714Z</time></trkpt><trkpt lat="43.5679054" lon="12.3438011"><ele>756.0</ele><time>2026-04-12T10:46:01.736Z</time></trkpt><trkpt lat="43.5678406" lon="12.3437266"><ele>756.0</ele><time>2026-04-12T10:46:02.698Z</time></trkpt><trkpt lat="43.5677798" lon="12.3436759"><ele>758.3333333333334</ele><time>2026-04-12T10:46:03.692Z</time></trkpt><trkpt lat="43.5676688" lon="12.3436715"><ele>760.6666666666667</ele><time>2026-04-12T10:46:05.715Z</time></trkpt><trkpt lat="43.5676147" lon="12.3437539"><ele>763.0</ele><time>2026-04-12T10:46:06.709Z</time></trkpt><trkpt lat="43.5675791" lon="12.3438751"><ele>765.3333333333334</ele><time>2026-04-12T10:46:07.692Z</time></trkpt><trkpt lat="43.5675794" lon="12.3439778"><ele>767.6666666666667</ele><time>2026-04-12T10:46:08.762Z</time></trkpt><trkpt lat="43.5675987" lon="12.3440767"><ele>770.0</ele><time>2026-04-12T10:46:09.693Z</time></trkpt><trkpt lat="43.5676876" lon="12.3442724"><ele>770.0</ele><time>2026-04-12T10:46:11.69Z</time></trkpt><trkpt lat="43.5677324" lon="12.3443938"><ele>770.0</ele><time>2026-04-12T10:46:12.701Z</time></trkpt><trkpt lat="43.5677723" lon="12.3445383"><ele>770.0</ele><time>2026-04-12T10:46:13.688Z</time></trkpt><trkpt lat="43.5678202" lon="12.3446795"><ele>770.0</ele><time>2026-04-12T10:46:14.693Z</time></trkpt><trkpt lat="43.5678851" lon="12.3448097"><ele>770.0</ele><time>2026-04-12T10:46:15.696Z</time></trkpt><trkpt lat="43.5679496" lon="12.3449268"><ele>768.0</ele><time>2026-04-12T10:46:16.78Z</time></trkpt><trkpt lat="43.5679948" lon="12.3450482"><ele>766.0</ele><time>2026-04-12T10:46:17.686Z</time></trkpt><trkpt lat="43.5680277" lon="12.3451705"><ele>764.0</ele><time>2026-04-12T10:46:18.706Z</time></trkpt><trkpt lat="43.5680501" lon="12.3453047"><ele>762.0</ele><time>2026-04-12T10:46:19.71Z</time></trkpt><trkpt lat="43.5680713" lon="12.3454499"><ele>760.0</ele><time>2026-04-12T10:46:20.697Z</time></trkpt><trkpt lat="43.5680769" lon="12.3455935"><ele>760.0</ele><time>2026-04-12T10:46:21.69Z</time></trkpt><trkpt lat="43.5680758" lon="12.3457502"><ele>760.0</ele><time>2026-04-12T10:46:22.707Z</time></trkpt><trkpt lat="43.568073" lon="12.3459102"><ele>760.0</ele><time>2026-04-12T10:46:23.709Z</time></trkpt><trkpt lat="43.5680791" lon="12.3460484"><ele>760.0</ele><time>2026-04-12T10:46:24.714Z</time></trkpt><trkpt lat="43.568073" lon="12.3461612"><ele>760.0</ele><time>2026-04-12T10:46:25.769Z</time></trkpt><trkpt lat="43.5680586" lon="12.3462654"><ele>758.0</ele><time>2026-04-12T10:46:26.711Z</time></trkpt><trkpt lat="43.5680454" lon="12.3463845"><ele>756.0</ele><time>2026-04-12T10:46:27.719Z</time></trkpt><trkpt lat="43.5680297" lon="12.3464998"><ele>754.0</ele><time>2026-04-12T10:46:28.762Z</time></trkpt><trkpt lat="43.5680097" lon="12.3466173"><ele>752.0</ele><time>2026-04-12T10:46:29.707Z</time></trkpt><trkpt lat="43.5679831" lon="12.3467388"><ele>750.0</ele><time>2026-04-12T10:46:30.709Z</time></trkpt><trkpt lat="43.5678972" lon="12.346951"><ele>753.2</ele><time>2026-04-12T10:46:32.688Z</time></trkpt><trkpt lat="43.5678406" lon="12.3470215"><ele>756.4</ele><time>2026-04-12T10:46:33.697Z</time></trkpt><trkpt lat="43.5677762" lon="12.3470533"><ele>759.5999999999999</ele><time>2026-04-12T10:46:34.71Z</time></trkpt><trkpt lat="43.5676404" lon="12.3469851"><ele>762.8</ele><time>2026-04-12T10:46:36.717Z</time></trkpt><trkpt lat="43.5675703" lon="12.3469108"><ele>766.0</ele><time>2026-04-12T10:46:37.704Z</time></trkpt><trkpt lat="43.5674979" lon="12.346814"><ele>766.0</ele><time>2026-04-12T10:46:38.732Z</time></trkpt><trkpt lat="43.567415" lon="12.3467167"><ele>766.0</ele><time>2026-04-12T10:46:39.702Z</time></trkpt><trkpt lat="43.5673284" lon="12.3466296"><ele>766.0</ele><time>2026-04-12T10:46:40.705Z</time></trkpt><trkpt lat="43.5672504" lon="12.3465662"><ele>766.0</ele><time>2026-04-12T10:46:41.705Z</time></trkpt><trkpt lat="43.5671759" lon="12.3465271"><ele>766.0</ele><time>2026-04-12T10:46:42.763Z</time></trkpt><trkpt lat="43.5670989" lon="12.3465044"><ele>764.0</ele><time>2026-04-12T10:46:43.71Z</time></trkpt><trkpt lat="43.5670225" lon="12.3464987"><ele>762.0</ele><time>2026-04-12T10:46:44.744Z</time></trkpt><trkpt lat="43.5669047" lon="12.3465055"><ele>760.0</ele><time>2026-04-12T10:46:46.705Z</time></trkpt><trkpt lat="43.5668326" lon="12.3464919"><ele>758.0</ele><time>2026-04-12T10:46:48.7Z</time></trkpt><trkpt lat="43.5667803" lon="12.3464391"><ele>756.0</ele><time>2026-04-12T10:46:52.807Z</time></trkpt><trkpt lat="43.5666373" lon="12.3462918"><ele>760.0</ele><time>2026-04-12T10:47:06.741Z</time></trkpt><trkpt lat="43.566548" lon="12.3461815"><ele>764.0</ele><time>2026-04-12T10:47:08.707Z</time></trkpt><trkpt lat="43.566508" lon="12.3460998"><ele>768.0</ele><time>2026-04-12T10:47:09.709Z</time></trkpt><trkpt lat="43.5664823" lon="12.3459873"><ele>772.0</ele><time>2026-04-12T10:47:10.737Z</time></trkpt><trkpt lat="43.5664607" lon="12.3458563"><ele>776.0</ele><time>2026-04-12T10:47:11.722Z</time></trkpt><trkpt lat="43.5664351" lon="12.3457023"><ele>776.0</ele><time>2026-04-12T10:47:12.723Z</time></trkpt><trkpt lat="43.5664125" lon="12.3455475"><ele>776.0</ele><time>2026-04-12T10:47:13.843Z</time></trkpt><trkpt lat="43.5662749" lon="12.3452816"><ele>776.0</ele><time>2026-04-12T10:47:16.716Z</time></trkpt><trkpt lat="43.5661877" lon="12.3452163"><ele>776.4</ele><time>2026-04-12T10:47:17.717Z</time></trkpt><trkpt lat="43.5660982" lon="12.3452071"><ele>776.8</ele><time>2026-04-12T10:47:18.708Z</time></trkpt><trkpt lat="43.5660093" lon="12.3452067"><ele>777.1999999999999</ele><time>2026-04-12T10:47:19.714Z</time></trkpt><trkpt lat="43.5658845" lon="12.345197"><ele>777.5999999999999</ele><time>2026-04-12T10:47:20.71Z</time></trkpt><trkpt lat="43.5657885" lon="12.3451893"><ele>778.0</ele><time>2026-04-12T10:47:21.714Z</time></trkpt><trkpt lat="43.5656991" lon="12.3451584"><ele>777.9999999999999</ele><time>2026-04-12T10:47:22.712Z</time></trkpt><trkpt lat="43.5656053" lon="12.3451375"><ele>778.0</ele><time>2026-04-12T10:47:23.712Z</time></trkpt><trkpt lat="43.5655166" lon="12.3451268"><ele>778.0</ele><time>2026-04-12T10:47:24.694Z</time></trkpt><trkpt lat="43.5654274" lon="12.3451475"><ele>778.0</ele><time>2026-04-12T10:47:25.699Z</time></trkpt><trkpt lat="43.5653503" lon="12.3451671"><ele>777.9999999999999</ele><time>2026-04-12T10:47:26.699Z</time></trkpt><trkpt lat="43.5652817" lon="12.345178"><ele>778.0</ele><time>2026-04-12T10:47:27.724Z</time></trkpt><trkpt lat="43.5651849" lon="12.3450645"><ele>775.4</ele><time>2026-04-12T10:47:29.695Z</time></trkpt><trkpt lat="43.5651664" lon="12.3449492"><ele>772.8</ele><time>2026-04-12T10:47:30.711Z</time></trkpt><trkpt lat="43.5651765" lon="12.3448182"><ele>770.2</ele><time>2026-04-12T10:47:31.734Z</time></trkpt><trkpt lat="43.5651874" lon="12.3446827"><ele>767.6</ele><time>2026-04-12T10:47:32.703Z</time></trkpt><trkpt lat="43.5651918" lon="12.3445241"><ele>765.0</ele><time>2026-04-12T10:47:33.734Z</time></trkpt><trkpt lat="43.5651699" lon="12.3444008"><ele>771.75</ele><time>2026-04-12T10:47:34.685Z</time></trkpt><trkpt lat="43.5650486" lon="12.3442199"><ele>778.5</ele><time>2026-04-12T10:47:36.695Z</time></trkpt><trkpt lat="43.5649712" lon="12.344157"><ele>785.25</ele><time>2026-04-12T10:47:37.699Z</time></trkpt><trkpt lat="43.5648872" lon="12.3441192"><ele>792.0</ele><time>2026-04-12T10:47:38.711Z</time></trkpt><trkpt lat="43.5647994" lon="12.3440695"><ele>792.0</ele><time>2026-04-12T10:47:39.707Z</time></trkpt><trkpt lat="43.5647086" lon="12.3440034"><ele>792.0</ele><time>2026-04-12T10:47:40.729Z</time></trkpt><trkpt lat="43.5646311" lon="12.3439353"><ele>792.0</ele><time>2026-04-12T10:47:41.7Z</time></trkpt><trkpt lat="43.5645584" lon="12.3438949"><ele>792.0</ele><time>2026-04-12T10:47:42.701Z</time></trkpt><trkpt lat="43.5644919" lon="12.3438947"><ele>792.0</ele><time>2026-04-12T10:47:43.711Z</time></trkpt><trkpt lat="43.5644256" lon="12.3439291"><ele>792.0</ele><time>2026-04-12T10:47:44.705Z</time></trkpt><trkpt lat="43.5643648" lon="12.3439805"><ele>789.6666666666666</ele><time>2026-04-12T10:47:45.721Z</time></trkpt><trkpt lat="43.5643101" lon="12.3440588"><ele>787.3333333333333</ele><time>2026-04-12T10:47:46.719Z</time></trkpt><trkpt lat="43.56426" lon="12.3441577"><ele>785.0</ele><time>2026-04-12T10:47:47.706Z</time></trkpt><trkpt lat="43.5642042" lon="12.3442595"><ele>782.6666666666666</ele><time>2026-04-12T10:47:48.712Z</time></trkpt><trkpt lat="43.5641499" lon="12.3443696"><ele>780.3333333333333</ele><time>2026-04-12T10:47:49.69Z</time></trkpt><trkpt lat="43.5640911" lon="12.3444543"><ele>778.0</ele><time>2026-04-12T10:47:50.795Z</time></trkpt><trkpt lat="43.5640028" lon="12.3444829"><ele>778.0</ele><time>2026-04-12T10:47:52.695Z</time></trkpt><trkpt lat="43.5639453" lon="12.3443845"><ele>778.0</ele><time>2026-04-12T10:47:54.711Z</time></trkpt><trkpt lat="43.5639614" lon="12.3441882"><ele>778.0</ele><time>2026-04-12T10:47:56.702Z</time></trkpt><trkpt lat="43.5640273" lon="12.3439156"><ele>778.0</ele><time>2026-04-12T10:47:58.722Z</time></trkpt><trkpt lat="43.5640514" lon="12.3437513"><ele>781.0</ele><time>2026-04-12T10:47:59.698Z</time></trkpt><trkpt lat="43.5640592" lon="12.3435948"><ele>784.0</ele><time>2026-04-12T10:48:00.73Z</time></trkpt><trkpt lat="43.5640555" lon="12.3434618"><ele>787.0</ele><time>2026-04-12T10:48:01.703Z</time></trkpt><trkpt lat="43.5640248" lon="12.3433474"><ele>790.0</ele><time>2026-04-12T10:48:02.8Z</time></trkpt><trkpt lat="43.563973" lon="12.3432359"><ele>793.0</ele><time>2026-04-12T10:48:03.702Z</time></trkpt><trkpt lat="43.5639046" lon="12.3431554"><ele>792.9999999999999</ele><time>2026-04-12T10:48:04.711Z</time></trkpt><trkpt lat="43.563828" lon="12.3430918"><ele>793.0</ele><time>2026-04-12T10:48:05.725Z</time></trkpt><trkpt lat="43.5637553" lon="12.3430582"><ele>793.0</ele><time>2026-04-12T10:48:06.689Z</time></trkpt><trkpt lat="43.5636919" lon="12.343021"><ele>793.0</ele><time>2026-04-12T10:48:07.723Z</time></trkpt><trkpt lat="43.5636298" lon="12.3428686"><ele>792.9999999999999</ele><time>2026-04-12T10:48:09.752Z</time></trkpt><trkpt lat="43.5636408" lon="12.3427495"><ele>793.0</ele><time>2026-04-12T10:48:10.71Z</time></trkpt><trkpt lat="43.5636633" lon="12.3426003"><ele>787.0</ele><time>2026-04-12T10:48:11.695Z</time></trkpt><trkpt lat="43.563671" lon="12.3424256"><ele>781.0</ele><time>2026-04-12T10:48:12.698Z</time></trkpt><trkpt lat="43.5636662" lon="12.3422556"><ele>775.0</ele><time>2026-04-12T10:48:13.705Z</time></trkpt><trkpt lat="43.5636499" lon="12.3421056"><ele>769.0</ele><time>2026-04-12T10:48:14.717Z</time></trkpt><trkpt lat="43.5636268" lon="12.3419726"><ele>769.0</ele><time>2026-04-12T10:48:15.719Z</time></trkpt><trkpt lat="43.5635979" lon="12.3418509"><ele>769.0</ele><time>2026-04-12T10:48:16.698Z</time></trkpt><trkpt lat="43.5635558" lon="12.341764"><ele>769.0</ele><time>2026-04-12T10:48:17.678Z</time></trkpt><trkpt lat="43.5634658" lon="12.3416054"><ele>769.0</ele><time>2026-04-12T10:48:19.715Z</time></trkpt><trkpt lat="43.5634383" lon="12.3415177"><ele>769.0</ele><time>2026-04-12T10:48:20.722Z</time></trkpt><trkpt lat="43.5634419" lon="12.3413597"><ele>769.2</ele><time>2026-04-12T10:48:22.709Z</time></trkpt><trkpt lat="43.5634852" lon="12.3412513"><ele>769.4000000000001</ele><time>2026-04-12T10:48:23.689Z</time></trkpt><trkpt lat="43.5635342" lon="12.341105"><ele>769.6</ele><time>2026-04-12T10:48:24.691Z</time></trkpt><trkpt lat="43.5635562" lon="12.3409355"><ele>769.8</ele><time>2026-04-12T10:48:25.699Z</time></trkpt><trkpt lat="43.5635514" lon="12.3407785"><ele>770.0</ele><time>2026-04-12T10:48:26.695Z</time></trkpt><trkpt lat="43.5635365" lon="12.3406327"><ele>771.5000000000001</ele><time>2026-04-12T10:48:27.751Z</time></trkpt><trkpt lat="43.5635181" lon="12.3405163"><ele>773.0</ele><time>2026-04-12T10:48:28.706Z</time></trkpt><trkpt lat="43.5635018" lon="12.3404283"><ele>774.5</ele><time>2026-04-12T10:48:29.737Z</time></trkpt><trkpt lat="43.5634543" lon="12.3402718"><ele>776.0</ele><time>2026-04-12T10:48:31.7Z</time></trkpt><trkpt lat="43.5634136" lon="12.3401927"><ele>777.5000000000001</ele><time>2026-04-12T10:48:32.716Z</time></trkpt><trkpt lat="43.5633577" lon="12.3400851"><ele>779.0</ele><time>2026-04-12T10:48:33.718Z</time></trkpt><trkpt lat="43.5633164" lon="12.3399564"><ele>779.0</ele><time>2026-04-12T10:48:34.728Z</time></trkpt><trkpt lat="43.5632778" lon="12.3398374"><ele>779.0</ele><time>2026-04-12T10:48:35.704Z</time></trkpt><trkpt lat="43.5632314" lon="12.339743"><ele>779.0</ele><time>2026-04-12T10:48:36.697Z</time></trkpt><trkpt lat="43.5631701" lon="12.339672"><ele>779.0</ele><time>2026-04-12T10:48:37.696Z</time></trkpt><trkpt lat="43.5630959" lon="12.3396084"><ele>779.0</ele><time>2026-04-12T10:48:38.72Z</time></trkpt><trkpt lat="43.5629567" lon="12.3394542"><ele>779.8333333333334</ele><time>2026-04-12T10:48:40.692Z</time></trkpt><trkpt lat="43.5629068" lon="12.3393706"><ele>780.6666666666667</ele><time>2026-04-12T10:48:41.692Z</time></trkpt><trkpt lat="43.5628585" lon="12.3392809"><ele>781.5</ele><time>2026-04-12T10:48:42.71Z</time></trkpt><trkpt lat="43.5628131" lon="12.3391939"><ele>782.3333333333333</ele><time>2026-04-12T10:48:43.701Z</time></trkpt><trkpt lat="43.5627753" lon="12.339106"><ele>783.1666666666666</ele><time>2026-04-12T10:48:44.698Z</time></trkpt><trkpt lat="43.5627356" lon="12.3389953"><ele>784.0</ele><time>2026-04-12T10:48:45.69Z</time></trkpt><trkpt lat="43.5626968" lon="12.3388845"><ele>784.0</ele><time>2026-04-12T10:48:46.761Z</time></trkpt><trkpt lat="43.5626419" lon="12.3387789"><ele>784.0</ele><time>2026-04-12T10:48:47.699Z</time></trkpt><trkpt lat="43.5625909" lon="12.3387055"><ele>784.0</ele><time>2026-04-12T10:48:48.728Z</time></trkpt><trkpt lat="43.5624852" lon="12.3386833"><ele>784.0</ele><time>2026-04-12T10:48:50.687Z</time></trkpt><trkpt lat="43.562414" lon="12.3388009"><ele>784.0</ele><time>2026-04-12T10:48:52.697Z</time></trkpt><trkpt lat="43.5624001" lon="12.3388936"><ele>784.0</ele><time>2026-04-12T10:48:53.716Z</time></trkpt><trkpt lat="43.5623973" lon="12.3390081"><ele>784.0</ele><time>2026-04-12T10:48:54.712Z</time></trkpt><trkpt lat="43.5623941" lon="12.3391358"><ele>784.0</ele><time>2026-04-12T10:48:55.716Z</time></trkpt><trkpt lat="43.5623928" lon="12.3392655"><ele>784.0</ele><time>2026-04-12T10:48:56.703Z</time></trkpt><trkpt lat="43.5623876" lon="12.3393917"><ele>784.0</ele><time>2026-04-12T10:48:57.792Z</time></trkpt><trkpt lat="43.5623756" lon="12.3395147"><ele>784.0</ele><time>2026-04-12T10:48:58.701Z</time></trkpt><trkpt lat="43.56237" lon="12.3396277"><ele>784.0</ele><time>2026-04-12T10:48:59.691Z</time></trkpt><trkpt lat="43.5624171" lon="12.339918"><ele>784.0</ele><time>2026-04-12T10:49:03.69Z</time></trkpt><trkpt lat="43.5624525" lon="12.3400122"><ele>784.0</ele><time>2026-04-12T10:49:04.683Z</time></trkpt><trkpt lat="43.5624748" lon="12.3401139"><ele>782.3333333333333</ele><time>2026-04-12T10:49:05.686Z</time></trkpt><trkpt lat="43.5624853" lon="12.3402279"><ele>780.6666666666666</ele><time>2026-04-12T10:49:06.723Z</time></trkpt><trkpt lat="43.562484" lon="12.3403387"><ele>779.0</ele><time>2026-04-12T10:49:07.687Z</time></trkpt><trkpt lat="43.5624568" lon="12.3404175"><ele>777.3333333333333</ele><time>2026-04-12T10:49:08.716Z</time></trkpt><trkpt lat="43.5623701" lon="12.3404797"><ele>775.6666666666666</ele><time>2026-04-12T10:49:10.696Z</time></trkpt><trkpt lat="43.562302" lon="12.340499"><ele>774.0</ele><time>2026-04-12T10:49:11.772Z</time></trkpt><trkpt lat="43.5622386" lon="12.340504"><ele>773.2</ele><time>2026-04-12T10:49:12.696Z</time></trkpt><trkpt lat="43.5621781" lon="12.3406003"><ele>772.4000000000001</ele><time>2026-04-12T10:49:14.701Z</time></trkpt><trkpt lat="43.5621291" lon="12.3407197"><ele>771.6</ele><time>2026-04-12T10:49:16.686Z</time></trkpt><trkpt lat="43.5620846" lon="12.340838"><ele>770.8</ele><time>2026-04-12T10:49:18.702Z</time></trkpt><trkpt lat="43.5620573" lon="12.3409702"><ele>770.0</ele><time>2026-04-12T10:49:20.693Z</time></trkpt><trkpt lat="43.562016" lon="12.3412096"><ele>771.6666666666667</ele><time>2026-04-12T10:49:24.69Z</time></trkpt><trkpt lat="43.5619603" lon="12.3413772"><ele>773.3333333333334</ele><time>2026-04-12T10:49:26.696Z</time></trkpt><trkpt lat="43.5619182" lon="12.3414536"><ele>775.0</ele><time>2026-04-12T10:49:27.687Z</time></trkpt><trkpt lat="43.5618718" lon="12.341544"><ele>776.6666666666667</ele><time>2026-04-12T10:49:28.721Z</time></trkpt><trkpt lat="43.5618122" lon="12.3416524"><ele>778.3333333333334</ele><time>2026-04-12T10:49:29.698Z</time></trkpt><trkpt lat="43.5617628" lon="12.3417144"><ele>780.0</ele><time>2026-04-12T10:49:30.692Z</time></trkpt><trkpt lat="43.5616528" lon="12.341778"><ele>780.0</ele><time>2026-04-12T10:49:32.708Z</time></trkpt><trkpt lat="43.5615886" lon="12.341769"><ele>780.0</ele><time>2026-04-12T10:49:33.73Z</time></trkpt><trkpt lat="43.5614914" lon="12.3416633"><ele>780.0</ele><time>2026-04-12T10:49:35.686Z</time></trkpt><trkpt lat="43.5614519" lon="12.3414979"><ele>780.0</ele><time>2026-04-12T10:49:37.699Z</time></trkpt><trkpt lat="43.5614413" lon="12.3413905"><ele>780.0</ele><time>2026-04-12T10:49:38.727Z</time></trkpt><trkpt lat="43.5614339" lon="12.341281"><ele>783.8</ele><time>2026-04-12T10:49:39.692Z</time></trkpt><trkpt lat="43.5614251" lon="12.3411722"><ele>787.6</ele><time>2026-04-12T10:49:40.693Z</time></trkpt><trkpt lat="43.5614043" lon="12.3410713"><ele>791.4000000000001</ele><time>2026-04-12T10:49:41.724Z</time></trkpt><trkpt lat="43.5612722" lon="12.3408996"><ele>795.2</ele><time>2026-04-12T10:49:44.694Z</time></trkpt><trkpt lat="43.5612039" lon="12.3408894"><ele>799.0</ele><time>2026-04-12T10:49:45.71Z</time></trkpt><trkpt lat="43.5611308" lon="12.3408765"><ele>800.4000000000001</ele><time>2026-04-12T10:49:46.722Z</time></trkpt><trkpt lat="43.5610527" lon="12.3408529"><ele>801.8</ele><time>2026-04-12T10:49:47.712Z</time></trkpt><trkpt lat="43.5609626" lon="12.3408432"><ele>803.2</ele><time>2026-04-12T10:49:48.696Z</time></trkpt><trkpt lat="43.5608783" lon="12.3408392"><ele>804.5999999999999</ele><time>2026-04-12T10:49:49.711Z</time></trkpt><trkpt lat="43.5608089" lon="12.3408357"><ele>806.0</ele><time>2026-04-12T10:49:50.732Z</time></trkpt><trkpt lat="43.5606797" lon="12.3408558"><ele>806.0</ele><time>2026-04-12T10:49:52.732Z</time></trkpt><trkpt lat="43.5605937" lon="12.3408678"><ele>806.0</ele><time>2026-04-12T10:49:53.708Z</time></trkpt><trkpt lat="43.5604979" lon="12.3408768"><ele>806.0</ele><time>2026-04-12T10:49:54.728Z</time></trkpt><trkpt lat="43.5604033" lon="12.3408735"><ele>806.0</ele><time>2026-04-12T10:49:55.702Z</time></trkpt><trkpt lat="43.5603065" lon="12.3408775"><ele>806.0</ele><time>2026-04-12T10:49:56.704Z</time></trkpt><trkpt lat="43.5602129" lon="12.3409082"><ele>805.5999999999999</ele><time>2026-04-12T10:49:57.706Z</time></trkpt><trkpt lat="43.5601096" lon="12.3409508"><ele>805.2</ele><time>2026-04-12T10:49:58.703Z</time></trkpt><trkpt lat="43.5600051" lon="12.3409899"><ele>804.8</ele><time>2026-04-12T10:49:59.71Z</time></trkpt><trkpt lat="43.5599151" lon="12.341014"><ele>804.4000000000001</ele><time>2026-04-12T10:50:00.704Z</time></trkpt><trkpt lat="43.5598431" lon="12.340958"><ele>804.0</ele><time>2026-04-12T10:50:01.704Z</time></trkpt><trkpt lat="43.5597955" lon="12.340878"><ele>804.0</ele><time>2026-04-12T10:50:02.711Z</time></trkpt><trkpt lat="43.5597362" lon="12.3406738"><ele>804.0</ele><time>2026-04-12T10:50:04.725Z</time></trkpt><trkpt lat="43.5597214" lon="12.3405798"><ele>804.0</ele><time>2026-04-12T10:50:05.7Z</time></trkpt><trkpt lat="43.5597258" lon="12.3404179"><ele>804.0</ele><time>2026-04-12T10:50:07.702Z</time></trkpt><trkpt lat="43.5597904" lon="12.3402944"><ele>804.8000000000001</ele><time>2026-04-12T10:50:09.71Z</time></trkpt><trkpt lat="43.559837" lon="12.3402291"><ele>805.6</ele><time>2026-04-12T10:50:10.704Z</time></trkpt><trkpt lat="43.5599141" lon="12.3401338"><ele>806.4</ele><time>2026-04-12T10:50:12.701Z</time></trkpt><trkpt lat="43.5599975" lon="12.3400223"><ele>807.2</ele><time>2026-04-12T10:50:14.689Z</time></trkpt><trkpt lat="43.5600763" lon="12.3398959"><ele>808.0</ele><time>2026-04-12T10:50:16.701Z</time></trkpt><trkpt lat="43.5601241" lon="12.3397613"><ele>809.0</ele><time>2026-04-12T10:50:18.794Z</time></trkpt><trkpt lat="43.5601553" lon="12.3396476"><ele>810.0</ele><time>2026-04-12T10:50:20.705Z</time></trkpt><trkpt lat="43.5601682" lon="12.3395108"><ele>811.0</ele><time>2026-04-12T10:50:22.72Z</time></trkpt><trkpt lat="43.5601156" lon="12.3393941"><ele>812.0</ele><time>2026-04-12T10:50:24.688Z</time></trkpt><trkpt lat="43.5599429" lon="12.3392311"><ele>812.0</ele><time>2026-04-12T10:50:28.701Z</time></trkpt><trkpt lat="43.5598342" lon="12.3392201"><ele>812.0</ele><time>2026-04-12T10:50:30.778Z</time></trkpt><trkpt lat="43.5597484" lon="12.3392262"><ele>812.0</ele><time>2026-04-12T10:50:32.704Z</time></trkpt><trkpt lat="43.559631" lon="12.3392499"><ele>812.0</ele><time>2026-04-12T10:50:34.72Z</time></trkpt><trkpt lat="43.5595377" lon="12.3392506"><ele>812.0</ele><time>2026-04-12T10:50:35.688Z</time></trkpt><trkpt lat="43.5594387" lon="12.3392289"><ele>809.8333333333334</ele><time>2026-04-12T10:50:36.746Z</time></trkpt><trkpt lat="43.5593387" lon="12.3391935"><ele>807.6666666666667</ele><time>2026-04-12T10:50:37.703Z</time></trkpt><trkpt lat="43.5592438" lon="12.3391712"><ele>805.5</ele><time>2026-04-12T10:50:38.714Z</time></trkpt><trkpt lat="43.5591613" lon="12.3391774"><ele>803.3333333333333</ele><time>2026-04-12T10:50:39.704Z</time></trkpt><trkpt lat="43.559083" lon="12.3391989"><ele>801.1666666666666</ele><time>2026-04-12T10:50:40.712Z</time></trkpt><trkpt lat="43.559009" lon="12.3392215"><ele>799.0</ele><time>2026-04-12T10:50:41.7Z</time></trkpt><trkpt lat="43.5589452" lon="12.3392327"><ele>798.9999999999999</ele><time>2026-04-12T10:50:42.719Z</time></trkpt><trkpt lat="43.5588812" lon="12.3392235"><ele>799.0</ele><time>2026-04-12T10:50:43.7Z</time></trkpt><trkpt lat="43.5588084" lon="12.3391925"><ele>799.0</ele><time>2026-04-12T10:50:44.718Z</time></trkpt><trkpt lat="43.558741" lon="12.339152"><ele>799.0</ele><time>2026-04-12T10:50:45.703Z</time></trkpt><trkpt lat="43.5586074" lon="12.3391589"><ele>798.9999999999999</ele><time>2026-04-12T10:50:47.714Z</time></trkpt><trkpt lat="43.5585386" lon="12.3392188"><ele>799.0</ele><time>2026-04-12T10:50:48.701Z</time></trkpt><trkpt lat="43.5584805" lon="12.3393062"><ele>796.9999999999999</ele><time>2026-04-12T10:50:49.703Z</time></trkpt><trkpt lat="43.5584326" lon="12.33941"><ele>795.0</ele><time>2026-04-12T10:50:50.713Z</time></trkpt><trkpt lat="43.5583925" lon="12.3395253"><ele>793.0</ele><time>2026-04-12T10:50:51.71Z</time></trkpt><trkpt lat="43.5583536" lon="12.3396341"><ele>791.0</ele><time>2026-04-12T10:50:52.719Z</time></trkpt><trkpt lat="43.5583213" lon="12.3397338"><ele>788.9999999999999</ele><time>2026-04-12T10:50:53.692Z</time></trkpt><trkpt lat="43.5582845" lon="12.339822"><ele>787.0</ele><time>2026-04-12T10:50:54.726Z</time></trkpt><trkpt lat="43.5582304" lon="12.3398969"><ele>786.9999999999999</ele><time>2026-04-12T10:50:55.785Z</time></trkpt><trkpt lat="43.5581666" lon="12.3399622"><ele>787.0</ele><time>2026-04-12T10:50:56.695Z</time></trkpt><trkpt lat="43.5580953" lon="12.3400068"><ele>787.0</ele><time>2026-04-12T10:50:57.716Z</time></trkpt><trkpt lat="43.5580197" lon="12.3400398"><ele>787.0</ele><time>2026-04-12T10:50:58.707Z</time></trkpt><trkpt lat="43.5579368" lon="12.3400683"><ele>786.9999999999999</ele><time>2026-04-12T10:50:59.705Z</time></trkpt><trkpt lat="43.5578452" lon="12.3401017"><ele>787.0</ele><time>2026-04-12T10:51:00.701Z</time></trkpt><trkpt lat="43.5577516" lon="12.3401571"><ele>789.4999999999999</ele><time>2026-04-12T10:51:01.732Z</time></trkpt><trkpt lat="43.5576678" lon="12.3402154"><ele>792.0</ele><time>2026-04-12T10:51:02.739Z</time></trkpt><trkpt lat="43.5575856" lon="12.3402563"><ele>794.5</ele><time>2026-04-12T10:51:03.711Z</time></trkpt><trkpt lat="43.5575054" lon="12.3402735"><ele>797.0</ele><time>2026-04-12T10:51:04.726Z</time></trkpt><trkpt lat="43.5574226" lon="12.3402377"><ele>799.4999999999999</ele><time>2026-04-12T10:51:05.708Z</time></trkpt><trkpt lat="43.5573599" lon="12.3401771"><ele>802.0</ele><time>2026-04-12T10:51:06.816Z</time></trkpt><trkpt lat="43.5573153" lon="12.3398189"><ele>802.4999999999999</ele><time>2026-04-12T10:51:09.697Z</time></trkpt><trkpt lat="43.5572924" lon="12.339701"><ele>803.0</ele><time>2026-04-12T10:51:10.725Z</time></trkpt><trkpt lat="43.5572377" lon="12.3396099"><ele>803.5</ele><time>2026-04-12T10:51:11.795Z</time></trkpt><trkpt lat="43.5571677" lon="12.3395602"><ele>804.0</ele><time>2026-04-12T10:51:12.707Z</time></trkpt><trkpt lat="43.5570855" lon="12.3395261"><ele>804.4999999999999</ele><time>2026-04-12T10:51:13.705Z</time></trkpt><trkpt lat="43.5569875" lon="12.3395041"><ele>805.0</ele><time>2026-04-12T10:51:14.703Z</time></trkpt><trkpt lat="43.5568725" lon="12.3394859"><ele>805.0</ele><time>2026-04-12T10:51:15.688Z</time></trkpt><trkpt lat="43.5567471" lon="12.3394816"><ele>805.0</ele><time>2026-04-12T10:51:16.727Z</time></trkpt><trkpt lat="43.5566339" lon="12.3394789"><ele>805.0</ele><time>2026-04-12T10:51:17.701Z</time></trkpt><trkpt lat="43.5565267" lon="12.3394726"><ele>805.0</ele><time>2026-04-12T10:51:18.713Z</time></trkpt><trkpt lat="43.5564168" lon="12.3394564"><ele>804.9999999999999</ele><time>2026-04-12T10:51:19.701Z</time></trkpt><trkpt lat="43.5563143" lon="12.3394211"><ele>805.0</ele><time>2026-04-12T10:51:20.699Z</time></trkpt><trkpt lat="43.5562255" lon="12.3393503"><ele>805.0</ele><time>2026-04-12T10:51:21.719Z</time></trkpt><trkpt lat="43.5561697" lon="12.3392448"><ele>805.0</ele><time>2026-04-12T10:51:22.739Z</time></trkpt><trkpt lat="43.5561663" lon="12.3391493"><ele>804.9999999999999</ele><time>2026-04-12T10:51:23.729Z</time></trkpt><trkpt lat="43.5561858" lon="12.3390591"><ele>805.0</ele><time>2026-04-12T10:51:24.742Z</time></trkpt><trkpt lat="43.5562383" lon="12.3389751"><ele>804.6666666666666</ele><time>2026-04-12T10:51:25.71Z</time></trkpt><trkpt lat="43.5563158" lon="12.3388755"><ele>804.3333333333333</ele><time>2026-04-12T10:51:26.711Z</time></trkpt><trkpt lat="43.5564061" lon="12.3387627"><ele>804.0</ele><time>2026-04-12T10:51:27.7Z</time></trkpt><trkpt lat="43.5566395" lon="12.3385553"><ele>804.0</ele><time>2026-04-12T10:51:29.695Z</time></trkpt><trkpt lat="43.5567585" lon="12.3384517"><ele>804.0</ele><time>2026-04-12T10:51:30.745Z</time></trkpt><trkpt lat="43.5568793" lon="12.3383553"><ele>804.0</ele><time>2026-04-12T10:51:31.703Z</time></trkpt><trkpt lat="43.5570029" lon="12.3382734"><ele>804.0</ele><time>2026-04-12T10:51:32.715Z</time></trkpt><trkpt lat="43.5571061" lon="12.3381947"><ele>809.8000000000001</ele><time>2026-04-12T10:51:33.725Z</time></trkpt><trkpt lat="43.5571772" lon="12.3381096"><ele>815.6</ele><time>2026-04-12T10:51:34.715Z</time></trkpt><trkpt lat="43.5572331" lon="12.3379979"><ele>821.4</ele><time>2026-04-12T10:51:35.696Z</time></trkpt><trkpt lat="43.5572666" lon="12.3378655"><ele>827.2</ele><time>2026-04-12T10:51:36.719Z</time></trkpt><trkpt lat="43.5572734" lon="12.3377272"><ele>833.0</ele><time>2026-04-12T10:51:37.708Z</time></trkpt><trkpt lat="43.5572681" lon="12.3375778"><ele>833.0</ele><time>2026-04-12T10:51:38.702Z</time></trkpt><trkpt lat="43.5572507" lon="12.3374077"><ele>833.0</ele><time>2026-04-12T10:51:39.707Z</time></trkpt><trkpt lat="43.5572227" lon="12.3372383"><ele>833.0</ele><time>2026-04-12T10:51:40.76Z</time></trkpt><trkpt lat="43.5571835" lon="12.3370996"><ele>833.0</ele><time>2026-04-12T10:51:41.687Z</time></trkpt><trkpt lat="43.5571189" lon="12.3370212"><ele>833.0</ele><time>2026-04-12T10:51:42.733Z</time></trkpt><trkpt lat="43.5570317" lon="12.3369192"><ele>829.2</ele><time>2026-04-12T10:51:43.788Z</time></trkpt><trkpt lat="43.5569416" lon="12.3368235"><ele>825.4</ele><time>2026-04-12T10:51:44.722Z</time></trkpt><trkpt lat="43.5568784" lon="12.3367414"><ele>821.6</ele><time>2026-04-12T10:51:45.723Z</time></trkpt><trkpt lat="43.5568394" lon="12.3366693"><ele>817.8000000000001</ele><time>2026-04-12T10:51:46.716Z</time></trkpt><trkpt lat="43.5567983" lon="12.336498"><ele>814.0</ele><time>2026-04-12T10:51:48.729Z</time></trkpt><trkpt lat="43.5568112" lon="12.3362513"><ele>813.9999999999999</ele><time>2026-04-12T10:51:50.708Z</time></trkpt><trkpt lat="43.5568274" lon="12.3361196"><ele>814.0</ele><time>2026-04-12T10:51:51.711Z</time></trkpt><trkpt lat="43.5568335" lon="12.3359901"><ele>814.0</ele><time>2026-04-12T10:51:52.705Z</time></trkpt><trkpt lat="43.5568375" lon="12.3358755"><ele>814.0</ele><time>2026-04-12T10:51:53.703Z</time></trkpt><trkpt lat="43.5568346" lon="12.3357665"><ele>813.9999999999999</ele><time>2026-04-12T10:51:54.724Z</time></trkpt><trkpt lat="43.5568199" lon="12.3356573"><ele>814.0</ele><time>2026-04-12T10:51:55.713Z</time></trkpt><trkpt lat="43.5567916" lon="12.3355472"><ele>816.3333333333333</ele><time>2026-04-12T10:51:56.713Z</time></trkpt><trkpt lat="43.5567521" lon="12.3354523"><ele>818.6666666666666</ele><time>2026-04-12T10:51:57.729Z</time></trkpt><trkpt lat="43.5566955" lon="12.3353738"><ele>821.0</ele><time>2026-04-12T10:51:58.704Z</time></trkpt><trkpt lat="43.556634" lon="12.3353039"><ele>823.3333333333333</ele><time>2026-04-12T10:51:59.726Z</time></trkpt><trkpt lat="43.5565548" lon="12.3352499"><ele>825.6666666666666</ele><time>2026-04-12T10:52:00.708Z</time></trkpt><trkpt lat="43.5564567" lon="12.3351959"><ele>828.0</ele><time>2026-04-12T10:52:01.713Z</time></trkpt><trkpt lat="43.5563608" lon="12.3351468"><ele>828.0</ele><time>2026-04-12T10:52:02.693Z</time></trkpt><trkpt lat="43.556269" lon="12.3350869"><ele>828.0</ele><time>2026-04-12T10:52:03.717Z</time></trkpt><trkpt lat="43.5561824" lon="12.3350281"><ele>828.0</ele><time>2026-04-12T10:52:04.705Z</time></trkpt><trkpt lat="43.5561008" lon="12.3349499"><ele>828.0</ele><time>2026-04-12T10:52:05.723Z</time></trkpt><trkpt lat="43.5560407" lon="12.3348472"><ele>828.0</ele><time>2026-04-12T10:52:06.704Z</time></trkpt><trkpt lat="43.5559917" lon="12.3347525"><ele>822.8</ele><time>2026-04-12T10:52:07.708Z</time></trkpt><trkpt lat="43.5559501" lon="12.3346486"><ele>817.5999999999999</ele><time>2026-04-12T10:52:08.702Z</time></trkpt><trkpt lat="43.5559534" lon="12.3345382"><ele>812.4000000000001</ele><time>2026-04-12T10:52:09.703Z</time></trkpt><trkpt lat="43.5560231" lon="12.334381"><ele>807.2</ele><time>2026-04-12T10:52:11.71Z</time></trkpt><trkpt lat="43.5560891" lon="12.3342902"><ele>802.0</ele><time>2026-04-12T10:52:12.715Z</time></trkpt><trkpt lat="43.5561536" lon="12.3341864"><ele>801.2</ele><time>2026-04-12T10:52:13.729Z</time></trkpt><trkpt lat="43.5562192" lon="12.334076"><ele>800.4000000000001</ele><time>2026-04-12T10:52:14.718Z</time></trkpt><trkpt lat="43.5562753" lon="12.3339556"><ele>799.5999999999999</ele><time>2026-04-12T10:52:15.723Z</time></trkpt><trkpt lat="43.5563476" lon="12.3338821"><ele>798.8</ele><time>2026-04-12T10:52:16.71Z</time></trkpt><trkpt lat="43.5564236" lon="12.3338397"><ele>798.0</ele><time>2026-04-12T10:52:17.683Z</time></trkpt><trkpt lat="43.556499" lon="12.3338372"><ele>798.0</ele><time>2026-04-12T10:52:18.695Z</time></trkpt><trkpt lat="43.5565736" lon="12.3338688"><ele>798.0</ele><time>2026-04-12T10:52:19.692Z</time></trkpt><trkpt lat="43.5566442" lon="12.3339225"><ele>798.0</ele><time>2026-04-12T10:52:20.708Z</time></trkpt><trkpt lat="43.5567125" lon="12.3339879"><ele>798.0</ele><time>2026-04-12T10:52:21.705Z</time></trkpt><trkpt lat="43.5567926" lon="12.3340356"><ele>798.0</ele><time>2026-04-12T10:52:22.694Z</time></trkpt><trkpt lat="43.5568719" lon="12.3340545"><ele>798.0</ele><time>2026-04-12T10:52:23.712Z</time></trkpt><trkpt lat="43.5569433" lon="12.3340361"><ele>800.3333333333334</ele><time>2026-04-12T10:52:24.7Z</time></trkpt><trkpt lat="43.5570213" lon="12.3339887"><ele>802.6666666666667</ele><time>2026-04-12T10:52:25.689Z</time></trkpt><trkpt lat="43.5570699" lon="12.3338863"><ele>805.0</ele><time>2026-04-12T10:52:26.703Z</time></trkpt><trkpt lat="43.5571032" lon="12.333788"><ele>807.3333333333334</ele><time>2026-04-12T10:52:27.697Z</time></trkpt><trkpt lat="43.557093" lon="12.3336561"><ele>809.6666666666667</ele><time>2026-04-12T10:52:28.704Z</time></trkpt><trkpt lat="43.5570928" lon="12.3335473"><ele>812.0</ele><time>2026-04-12T10:52:29.681Z</time></trkpt><trkpt lat="43.5571122" lon="12.3334367"><ele>812.0</ele><time>2026-04-12T10:52:30.695Z</time></trkpt><trkpt lat="43.557259" lon="12.3332557"><ele>812.0</ele><time>2026-04-12T10:52:32.699Z</time></trkpt><trkpt lat="43.5573599" lon="12.333207"><ele>812.0</ele><time>2026-04-12T10:52:33.692Z</time></trkpt><trkpt lat="43.5574738" lon="12.3331711"><ele>812.0</ele><time>2026-04-12T10:52:34.697Z</time></trkpt><trkpt lat="43.5575963" lon="12.333124"><ele>812.0</ele><time>2026-04-12T10:52:35.691Z</time></trkpt><trkpt lat="43.5577141" lon="12.3330558"><ele>812.0</ele><time>2026-04-12T10:52:36.688Z</time></trkpt><trkpt lat="43.5578196" lon="12.3329762"><ele>812.0</ele><time>2026-04-12T10:52:37.698Z</time></trkpt><trkpt lat="43.5579075" lon="12.3329264"><ele>812.0</ele><time>2026-04-12T10:52:38.697Z</time></trkpt><trkpt lat="43.5579946" lon="12.3329253"><ele>812.0</ele><time>2026-04-12T10:52:39.686Z</time></trkpt><trkpt lat="43.5580901" lon="12.3329554"><ele>812.0</ele><time>2026-04-12T10:52:40.69Z</time></trkpt><trkpt lat="43.5581997" lon="12.3329877"><ele>812.0</ele><time>2026-04-12T10:52:41.689Z</time></trkpt><trkpt lat="43.5582971" lon="12.3329965"><ele>812.0</ele><time>2026-04-12T10:52:42.726Z</time></trkpt><trkpt lat="43.5583734" lon="12.3329837"><ele>812.0</ele><time>2026-04-12T10:52:43.699Z</time></trkpt><trkpt lat="43.558458" lon="12.3328916"><ele>812.0</ele><time>2026-04-12T10:52:45.7Z</time></trkpt><trkpt lat="43.5584673" lon="12.332731"><ele>812.0</ele><time>2026-04-12T10:52:47.709Z</time></trkpt><trkpt lat="43.5584187" lon="12.3326462"><ele>812.0</ele><time>2026-04-12T10:52:48.702Z</time></trkpt><trkpt lat="43.5583657" lon="12.3325977"><ele>812.0</ele><time>2026-04-12T10:52:49.703Z</time></trkpt><trkpt lat="43.558263" lon="12.3325494"><ele>812.0</ele><time>2026-04-12T10:52:51.704Z</time></trkpt><trkpt lat="43.5580477" lon="12.3324285"><ele>812.0</ele><time>2026-04-12T10:52:55.713Z</time></trkpt><trkpt lat="43.5579951" lon="12.3323692"><ele>812.0</ele><time>2026-04-12T10:52:56.765Z</time></trkpt><trkpt lat="43.5579605" lon="12.3322951"><ele>812.0</ele><time>2026-04-12T10:52:57.698Z</time></trkpt><trkpt lat="43.5579552" lon="12.3321969"><ele>812.0</ele><time>2026-04-12T10:52:58.713Z</time></trkpt><trkpt lat="43.5579695" lon="12.332087"><ele>812.0</ele><time>2026-04-12T10:52:59.717Z</time></trkpt><trkpt lat="43.5579972" lon="12.3319796"><ele>812.0</ele><time>2026-04-12T10:53:00.684Z</time></trkpt><trkpt lat="43.5580177" lon="12.3318758"><ele>812.0</ele><time>2026-04-12T10:53:01.689Z</time></trkpt><trkpt lat="43.558022" lon="12.3317559"><ele>813.8333333333334</ele><time>2026-04-12T10:53:02.703Z</time></trkpt><trkpt lat="43.5580077" lon="12.3316362"><ele>815.6666666666667</ele><time>2026-04-12T10:53:03.705Z</time></trkpt><trkpt lat="43.5579829" lon="12.3315118"><ele>817.5</ele><time>2026-04-12T10:53:04.713Z</time></trkpt><trkpt lat="43.557977" lon="12.3313896"><ele>819.3333333333333</ele><time>2026-04-12T10:53:05.764Z</time></trkpt><trkpt lat="43.5579918" lon="12.3312904"><ele>821.1666666666666</ele><time>2026-04-12T10:53:06.691Z</time></trkpt><trkpt lat="43.5580394" lon="12.3312088"><ele>823.0</ele><time>2026-04-12T10:53:07.713Z</time></trkpt><trkpt lat="43.5581219" lon="12.3311288"><ele>823.0</ele><time>2026-04-12T10:53:08.787Z</time></trkpt><trkpt lat="43.5582152" lon="12.3310477"><ele>823.0</ele><time>2026-04-12T10:53:09.689Z</time></trkpt><trkpt lat="43.5582958" lon="12.3309611"><ele>823.0</ele><time>2026-04-12T10:53:10.714Z</time></trkpt><trkpt lat="43.5583465" lon="12.3308703"><ele>823.0</ele><time>2026-04-12T10:53:11.7Z</time></trkpt><trkpt lat="43.5583663" lon="12.3307758"><ele>823.0</ele><time>2026-04-12T10:53:12.704Z</time></trkpt><trkpt lat="43.5582998" lon="12.3306111"><ele>823.0</ele><time>2026-04-12T10:53:14.691Z</time></trkpt><trkpt lat="43.5582245" lon="12.3305766"><ele>823.0</ele><time>2026-04-12T10:53:15.715Z</time></trkpt><trkpt lat="43.5581344" lon="12.330566"><ele>823.0</ele><time>2026-04-12T10:53:16.71Z</time></trkpt><trkpt lat="43.5580362" lon="12.3305711"><ele>823.0</ele><time>2026-04-12T10:53:17.698Z</time></trkpt><trkpt lat="43.5579407" lon="12.330562"><ele>823.0</ele><time>2026-04-12T10:53:18.718Z</time></trkpt><trkpt lat="43.5578599" lon="12.3305059"><ele>825.4</ele><time>2026-04-12T10:53:19.695Z</time></trkpt><trkpt lat="43.557792" lon="12.330432"><ele>827.8</ele><time>2026-04-12T10:53:20.797Z</time></trkpt><trkpt lat="43.5577087" lon="12.3304184"><ele>830.2</ele><time>2026-04-12T10:53:21.703Z</time></trkpt><trkpt lat="43.5576009" lon="12.3304312"><ele>832.6</ele><time>2026-04-12T10:53:22.71Z</time></trkpt><trkpt lat="43.55749" lon="12.3304547"><ele>835.0</ele><time>2026-04-12T10:53:23.72Z</time></trkpt><trkpt lat="43.5573865" lon="12.3304938"><ele>830.8</ele><time>2026-04-12T10:53:24.714Z</time></trkpt><trkpt lat="43.5572959" lon="12.3305629"><ele>826.6</ele><time>2026-04-12T10:53:25.717Z</time></trkpt><trkpt lat="43.5572284" lon="12.3306572"><ele>822.4000000000001</ele><time>2026-04-12T10:53:26.695Z</time></trkpt><trkpt lat="43.5571717" lon="12.3307886"><ele>818.2</ele><time>2026-04-12T10:53:27.702Z</time></trkpt><trkpt lat="43.5571228" lon="12.330937"><ele>814.0</ele><time>2026-04-12T10:53:28.708Z</time></trkpt><trkpt lat="43.5570959" lon="12.3310855"><ele>814.0</ele><time>2026-04-12T10:53:29.695Z</time></trkpt><trkpt lat="43.5570957" lon="12.3312321"><ele>814.0</ele><time>2026-04-12T10:53:30.72Z</time></trkpt><trkpt lat="43.5570824" lon="12.3313516"><ele>814.0</ele><time>2026-04-12T10:53:31.707Z</time></trkpt><trkpt lat="43.5570432" lon="12.3314377"><ele>814.0</ele><time>2026-04-12T10:53:32.784Z</time></trkpt><trkpt lat="43.556959" lon="12.3314813"><ele>814.0</ele><time>2026-04-12T10:53:33.703Z</time></trkpt><trkpt lat="43.5567305" lon="12.3315904"><ele>814.0</ele><time>2026-04-12T10:53:35.727Z</time></trkpt><trkpt lat="43.5566199" lon="12.3316567"><ele>814.0</ele><time>2026-04-12T10:53:36.709Z</time></trkpt><trkpt lat="43.5565182" lon="12.3317021"><ele>814.0</ele><time>2026-04-12T10:53:37.731Z</time></trkpt><trkpt lat="43.5564207" lon="12.3317212"><ele>814.0</ele><time>2026-04-12T10:53:38.713Z</time></trkpt><trkpt lat="43.5563197" lon="12.3317065"><ele>814.0</ele><time>2026-04-12T10:53:39.694Z</time></trkpt><trkpt lat="43.5562004" lon="12.3316755"><ele>814.0</ele><time>2026-04-12T10:53:40.724Z</time></trkpt><trkpt lat="43.5560791" lon="12.3316498"><ele>814.0</ele><time>2026-04-12T10:53:41.7Z</time></trkpt><trkpt lat="43.5559714" lon="12.3316315"><ele>814.0</ele><time>2026-04-12T10:53:42.704Z</time></trkpt><trkpt lat="43.5558677" lon="12.33163"><ele>814.0</ele><time>2026-04-12T10:53:43.707Z</time></trkpt><trkpt lat="43.5557698" lon="12.3316305"><ele>814.0</ele><time>2026-04-12T10:53:44.69Z</time></trkpt><trkpt lat="43.555679" lon="12.3316326"><ele>813.9999999999999</ele><time>2026-04-12T10:53:45.71Z</time></trkpt><trkpt lat="43.5555879" lon="12.3316301"><ele>814.0</ele><time>2026-04-12T10:53:46.69Z</time></trkpt><trkpt lat="43.5555149" lon="12.3315899"><ele>814.0</ele><time>2026-04-12T10:53:47.728Z</time></trkpt><trkpt lat="43.5554671" lon="12.3315129"><ele>814.0</ele><time>2026-04-12T10:53:48.708Z</time></trkpt><trkpt lat="43.5554492" lon="12.3314007"><ele>813.9999999999999</ele><time>2026-04-12T10:53:49.702Z</time></trkpt><trkpt lat="43.5554563" lon="12.3312597"><ele>814.0</ele><time>2026-04-12T10:53:50.703Z</time></trkpt><trkpt lat="43.5554944" lon="12.3311374"><ele>815.75</ele><time>2026-04-12T10:53:51.698Z</time></trkpt><trkpt lat="43.5555605" lon="12.3310214"><ele>817.5</ele><time>2026-04-12T10:53:52.726Z</time></trkpt><trkpt lat="43.5556418" lon="12.330935"><ele>819.25</ele><time>2026-04-12T10:53:53.723Z</time></trkpt><trkpt lat="43.5557276" lon="12.330824"><ele>821.0</ele><time>2026-04-12T10:53:54.703Z</time></trkpt><trkpt lat="43.5559144" lon="12.3305991"><ele>819.0</ele><time>2026-04-12T10:53:56.703Z</time></trkpt><trkpt lat="43.556003" lon="12.3304751"><ele>817.0</ele><time>2026-04-12T10:53:57.695Z</time></trkpt><trkpt lat="43.5560922" lon="12.3303628"><ele>815.0</ele><time>2026-04-12T10:53:58.726Z</time></trkpt><trkpt lat="43.556161" lon="12.3302444"><ele>813.0</ele><time>2026-04-12T10:53:59.698Z</time></trkpt><trkpt lat="43.5562352" lon="12.3301107"><ele>819.0</ele><time>2026-04-12T10:54:00.699Z</time></trkpt><trkpt lat="43.5563188" lon="12.3299791"><ele>825.0</ele><time>2026-04-12T10:54:01.714Z</time></trkpt><trkpt lat="43.5563979" lon="12.3298446"><ele>831.0</ele><time>2026-04-12T10:54:02.694Z</time></trkpt><trkpt lat="43.556472" lon="12.3296819"><ele>837.0</ele><time>2026-04-12T10:54:03.691Z</time></trkpt><trkpt lat="43.5565308" lon="12.3295041"><ele>838.3333333333333</ele><time>2026-04-12T10:54:04.762Z</time></trkpt><trkpt lat="43.5565742" lon="12.3293224"><ele>839.6666666666666</ele><time>2026-04-12T10:54:05.692Z</time></trkpt><trkpt lat="43.5566081" lon="12.3291154"><ele>841.0</ele><time>2026-04-12T10:54:06.713Z</time></trkpt><trkpt lat="43.5566373" lon="12.3288943"><ele>840.75</ele><time>2026-04-12T10:54:07.695Z</time></trkpt><trkpt lat="43.5566569" lon="12.3286904"><ele>840.5</ele><time>2026-04-12T10:54:08.693Z</time></trkpt><trkpt lat="43.5566811" lon="12.3285254"><ele>840.25</ele><time>2026-04-12T10:54:09.713Z</time></trkpt><trkpt lat="43.5567157" lon="12.3283572"><ele>840.0</ele><time>2026-04-12T10:54:10.685Z</time></trkpt><trkpt lat="43.5567547" lon="12.3281788"><ele>840.0</ele><time>2026-04-12T10:54:11.723Z</time></trkpt><trkpt lat="43.5567932" lon="12.3280037"><ele>840.0</ele><time>2026-04-12T10:54:12.684Z</time></trkpt><trkpt lat="43.5568184" lon="12.3278279"><ele>840.0</ele><time>2026-04-12T10:54:13.687Z</time></trkpt><trkpt lat="43.5568383" lon="12.32768"><ele>840.0</ele><time>2026-04-12T10:54:14.718Z</time></trkpt><trkpt lat="43.5568593" lon="12.3275629"><ele>840.0</ele><time>2026-04-12T10:54:15.777Z</time></trkpt><trkpt lat="43.5569718" lon="12.3273435"><ele>840.0</ele><time>2026-04-12T10:54:17.692Z</time></trkpt><trkpt lat="43.5570455" lon="12.3272471"><ele>840.0</ele><time>2026-04-12T10:54:18.692Z</time></trkpt><trkpt lat="43.557117" lon="12.3271575"><ele>840.0</ele><time>2026-04-12T10:54:19.7Z</time></trkpt><trkpt lat="43.5571681" lon="12.3270659"><ele>843.1666666666666</ele><time>2026-04-12T10:54:20.693Z</time></trkpt><trkpt lat="43.5571903" lon="12.3269691"><ele>846.3333333333333</ele><time>2026-04-12T10:54:21.716Z</time></trkpt><trkpt lat="43.5571892" lon="12.3268607"><ele>849.5</ele><time>2026-04-12T10:54:22.694Z</time></trkpt><trkpt lat="43.5571679" lon="12.3267576"><ele>852.6666666666666</ele><time>2026-04-12T10:54:23.711Z</time></trkpt><trkpt lat="43.5571114" lon="12.3266698"><ele>855.8333333333333</ele><time>2026-04-12T10:54:24.702Z</time></trkpt><trkpt lat="43.5570368" lon="12.3265986"><ele>859.0</ele><time>2026-04-12T10:54:25.683Z</time></trkpt><trkpt lat="43.5569421" lon="12.3265587"><ele>859.0</ele><time>2026-04-12T10:54:26.707Z</time></trkpt><trkpt lat="43.5568191" lon="12.3265351"><ele>859.0</ele><time>2026-04-12T10:54:27.726Z</time></trkpt><trkpt lat="43.5567027" lon="12.3265071"><ele>859.0</ele><time>2026-04-12T10:54:28.707Z</time></trkpt><trkpt lat="43.5565988" lon="12.3264972"><ele>859.0</ele><time>2026-04-12T10:54:29.805Z</time></trkpt><trkpt lat="43.556439" lon="12.3265235"><ele>859.0</ele><time>2026-04-12T10:54:31.695Z</time></trkpt><trkpt lat="43.5563726" lon="12.326582"><ele>859.0000000000001</ele><time>2026-04-12T10:54:32.713Z</time></trkpt><trkpt lat="43.556306" lon="12.3267055"><ele>859.0000000000001</ele><time>2026-04-12T10:54:33.712Z</time></trkpt><trkpt lat="43.5562448" lon="12.3268298"><ele>859.0</ele><time>2026-04-12T10:54:34.718Z</time></trkpt><trkpt lat="43.5561678" lon="12.326984"><ele>859.0</ele><time>2026-04-12T10:54:35.705Z</time></trkpt><trkpt lat="43.5560852" lon="12.3271334"><ele>856.3333333333333</ele><time>2026-04-12T10:54:36.722Z</time></trkpt><trkpt lat="43.5559082" lon="12.3273854"><ele>853.6666666666667</ele><time>2026-04-12T10:54:38.797Z</time></trkpt><trkpt lat="43.555817" lon="12.3274911"><ele>851.0</ele><time>2026-04-12T10:54:39.714Z</time></trkpt><trkpt lat="43.5557392" lon="12.3275688"><ele>851.0000000000001</ele><time>2026-04-12T10:54:40.708Z</time></trkpt><trkpt lat="43.5556609" lon="12.3276243"><ele>851.0</ele><time>2026-04-12T10:54:41.703Z</time></trkpt><trkpt lat="43.555584" lon="12.3276369"><ele>851.0</ele><time>2026-04-12T10:54:42.702Z</time></trkpt><trkpt lat="43.5555192" lon="12.3275517"><ele>851.0</ele><time>2026-04-12T10:54:44.699Z</time></trkpt><trkpt lat="43.5555168" lon="12.3274585"><ele>851.0000000000001</ele><time>2026-04-12T10:54:45.692Z</time></trkpt><trkpt lat="43.5555412" lon="12.3273517"><ele>851.0</ele><time>2026-04-12T10:54:46.708Z</time></trkpt><trkpt lat="43.5555784" lon="12.327229"><ele>853.1999999999999</ele><time>2026-04-12T10:54:47.698Z</time></trkpt><trkpt lat="43.555617" lon="12.3270898"><ele>855.4</ele><time>2026-04-12T10:54:48.715Z</time></trkpt><trkpt lat="43.5556518" lon="12.3269656"><ele>857.6</ele><time>2026-04-12T10:54:49.766Z</time></trkpt><trkpt lat="43.5556938" lon="12.3268755"><ele>859.8</ele><time>2026-04-12T10:54:50.709Z</time></trkpt><trkpt lat="43.5557564" lon="12.3268014"><ele>862.0</ele><time>2026-04-12T10:54:51.706Z</time></trkpt><trkpt lat="43.5558421" lon="12.32677"><ele>861.9999999999999</ele><time>2026-04-12T10:54:52.702Z</time></trkpt><trkpt lat="43.5559278" lon="12.3267879"><ele>862.0</ele><time>2026-04-12T10:54:53.712Z</time></trkpt><trkpt lat="43.5559943" lon="12.3268006"><ele>862.0</ele><time>2026-04-12T10:54:54.733Z</time></trkpt><trkpt lat="43.5560528" lon="12.326728"><ele>862.0</ele><time>2026-04-12T10:54:55.709Z</time></trkpt><trkpt lat="43.5560902" lon="12.3266203"><ele>861.9999999999999</ele><time>2026-04-12T10:54:56.708Z</time></trkpt><trkpt lat="43.5561207" lon="12.3264794"><ele>862.0</ele><time>2026-04-12T10:54:57.715Z</time></trkpt><trkpt lat="43.5561955" lon="12.3261706"><ele>864.25</ele><time>2026-04-12T10:54:59.747Z</time></trkpt><trkpt lat="43.5562262" lon="12.3260679"><ele>866.5</ele><time>2026-04-12T10:55:00.694Z</time></trkpt><trkpt lat="43.5562418" lon="12.3259443"><ele>868.75</ele><time>2026-04-12T10:55:02.71Z</time></trkpt><trkpt lat="43.5562201" lon="12.3258587"><ele>871.0</ele><time>2026-04-12T11:00:42.727Z</time></trkpt><trkpt lat="43.5560428" lon="12.3256125"><ele>872.5999999999999</ele><time>2026-04-12T11:00:48.814Z</time></trkpt><trkpt lat="43.5559303" lon="12.3254377"><ele>874.1999999999999</ele><time>2026-04-12T11:00:50.742Z</time></trkpt><trkpt lat="43.5558894" lon="12.3253264"><ele>875.8000000000001</ele><time>2026-04-12T11:00:51.74Z</time></trkpt><trkpt lat="43.5558586" lon="12.3252192"><ele>877.4000000000001</ele><time>2026-04-12T11:00:52.731Z</time></trkpt><trkpt lat="43.5558169" lon="12.3251128"><ele>879.0</ele><time>2026-04-12T11:00:53.732Z</time></trkpt><trkpt lat="43.5557634" lon="12.3250298"><ele>879.0</ele><time>2026-04-12T11:00:54.729Z</time></trkpt><trkpt lat="43.5556967" lon="12.3249617"><ele>879.0000000000001</ele><time>2026-04-12T11:00:55.732Z</time></trkpt><trkpt lat="43.5556121" lon="12.3249131"><ele>879.0000000000001</ele><time>2026-04-12T11:00:56.736Z</time></trkpt><trkpt lat="43.5555162" lon="12.324875"><ele>879.0</ele><time>2026-04-12T11:00:57.724Z</time></trkpt><trkpt lat="43.5554275" lon="12.3248497"><ele>879.0</ele><time>2026-04-12T11:00:58.814Z</time></trkpt><trkpt lat="43.55532" lon="12.3247415"><ele>877.0</ele><time>2026-04-12T11:01:00.718Z</time></trkpt><trkpt lat="43.555291" lon="12.3246404"><ele>875.0000000000001</ele><time>2026-04-12T11:01:01.721Z</time></trkpt><trkpt lat="43.5552803" lon="12.3245171"><ele>873.0000000000001</ele><time>2026-04-12T11:01:02.735Z</time></trkpt><trkpt lat="43.5552882" lon="12.3243919"><ele>871.0</ele><time>2026-04-12T11:01:03.721Z</time></trkpt><trkpt lat="43.5553517" lon="12.3242129"><ele>869.0</ele><time>2026-04-12T11:01:05.709Z</time></trkpt><trkpt lat="43.5554087" lon="12.3241731"><ele>869.0</ele><time>2026-04-12T11:01:06.717Z</time></trkpt><trkpt lat="43.5554898" lon="12.3241534"><ele>869.0000000000001</ele><time>2026-04-12T11:01:07.724Z</time></trkpt><trkpt lat="43.5556041" lon="12.3241295"><ele>869.0000000000001</ele><time>2026-04-12T11:01:08.722Z</time></trkpt><trkpt lat="43.5557237" lon="12.3241013"><ele>869.0</ele><time>2026-04-12T11:01:09.796Z</time></trkpt><trkpt lat="43.5558369" lon="12.3240494"><ele>869.0</ele><time>2026-04-12T11:01:10.696Z</time></trkpt><trkpt lat="43.5559372" lon="12.3239953"><ele>869.0000000000001</ele><time>2026-04-12T11:01:11.707Z</time></trkpt><trkpt lat="43.5560315" lon="12.323958"><ele>869.0</ele><time>2026-04-12T11:01:12.711Z</time></trkpt><trkpt lat="43.5561106" lon="12.3239446"><ele>869.0</ele><time>2026-04-12T11:01:13.7Z</time></trkpt><trkpt lat="43.5561793" lon="12.3239256"><ele>869.0</ele><time>2026-04-12T11:01:14.707Z</time></trkpt><trkpt lat="43.5562444" lon="12.3238787"><ele>869.0000000000001</ele><time>2026-04-12T11:01:15.694Z</time></trkpt><trkpt lat="43.556294" lon="12.3238039"><ele>869.0</ele><time>2026-04-12T11:01:16.692Z</time></trkpt><trkpt lat="43.5563247" lon="12.3237101"><ele>868.1666666666667</ele><time>2026-04-12T11:01:17.738Z</time></trkpt><trkpt lat="43.5563247" lon="12.3236135"><ele>867.3333333333334</ele><time>2026-04-12T11:01:18.702Z</time></trkpt><trkpt lat="43.5562989" lon="12.3235206"><ele>866.5</ele><time>2026-04-12T11:01:19.712Z</time></trkpt><trkpt lat="43.5562414" lon="12.3234483"><ele>865.6666666666667</ele><time>2026-04-12T11:01:20.706Z</time></trkpt><trkpt lat="43.5561756" lon="12.323377"><ele>864.8333333333334</ele><time>2026-04-12T11:01:21.703Z</time></trkpt><trkpt lat="43.5561187" lon="12.323295"><ele>864.0</ele><time>2026-04-12T11:01:22.71Z</time></trkpt><trkpt lat="43.5560807" lon="12.3232016"><ele>864.0</ele><time>2026-04-12T11:01:23.764Z</time></trkpt><trkpt lat="43.5560952" lon="12.3230412"><ele>864.0</ele><time>2026-04-12T11:01:25.695Z</time></trkpt><trkpt lat="43.556218" lon="12.3229185"><ele>864.0</ele><time>2026-04-12T11:01:27.706Z</time></trkpt><trkpt lat="43.5563097" lon="12.3228693"><ele>864.0</ele><time>2026-04-12T11:01:28.694Z</time></trkpt><trkpt lat="43.5564239" lon="12.3228151"><ele>867.8000000000001</ele><time>2026-04-12T11:01:29.719Z</time></trkpt><trkpt lat="43.5565349" lon="12.3227481"><ele>871.6000000000001</ele><time>2026-04-12T11:01:30.714Z</time></trkpt><trkpt lat="43.5566171" lon="12.32269"><ele>875.4</ele><time>2026-04-12T11:01:31.831Z</time></trkpt><trkpt lat="43.5566786" lon="12.3225225"><ele>879.2</ele><time>2026-04-12T11:01:33.72Z</time></trkpt><trkpt lat="43.5566652" lon="12.3224118"><ele>883.0</ele><time>2026-04-12T11:01:34.709Z</time></trkpt><trkpt lat="43.5566173" lon="12.3222829"><ele>887.25</ele><time>2026-04-12T11:01:35.708Z</time></trkpt><trkpt lat="43.5565362" lon="12.3221752"><ele>891.5</ele><time>2026-04-12T11:01:36.703Z</time></trkpt><trkpt lat="43.5564308" lon="12.3220821"><ele>895.75</ele><time>2026-04-12T11:01:37.692Z</time></trkpt><trkpt lat="43.5563252" lon="12.3220074"><ele>900.0</ele><time>2026-04-12T11:01:38.696Z</time></trkpt><trkpt lat="43.5562293" lon="12.3219476"><ele>895.2</ele><time>2026-04-12T11:01:39.703Z</time></trkpt><trkpt lat="43.5561273" lon="12.3219088"><ele>890.4</ele><time>2026-04-12T11:01:40.699Z</time></trkpt><trkpt lat="43.5560362" lon="12.3218678"><ele>885.5999999999999</ele><time>2026-04-12T11:01:41.694Z</time></trkpt><trkpt lat="43.5559556" lon="12.3217987"><ele>880.8</ele><time>2026-04-12T11:01:42.715Z</time></trkpt><trkpt lat="43.5558796" lon="12.3217009"><ele>876.0</ele><time>2026-04-12T11:01:43.708Z</time></trkpt><trkpt lat="43.5558135" lon="12.3215733"><ele>876.0</ele><time>2026-04-12T11:01:44.715Z</time></trkpt><trkpt lat="43.5557845" lon="12.3214428"><ele>876.0</ele><time>2026-04-12T11:01:45.705Z</time></trkpt><trkpt lat="43.5557883" lon="12.3213104"><ele>876.0</ele><time>2026-04-12T11:01:46.711Z</time></trkpt><trkpt lat="43.5558555" lon="12.3210361"><ele>876.0</ele><time>2026-04-12T11:01:48.704Z</time></trkpt><trkpt lat="43.5559425" lon="12.3208819"><ele>876.25</ele><time>2026-04-12T11:01:49.693Z</time></trkpt><trkpt lat="43.5560384" lon="12.3207267"><ele>876.5</ele><time>2026-04-12T11:01:50.689Z</time></trkpt><trkpt lat="43.556142" lon="12.3205844"><ele>876.75</ele><time>2026-04-12T11:01:51.705Z</time></trkpt><trkpt lat="43.5562691" lon="12.3204683"><ele>877.0</ele><time>2026-04-12T11:01:52.714Z</time></trkpt><trkpt lat="43.5564119" lon="12.3203474"><ele>879.6666666666666</ele><time>2026-04-12T11:01:53.704Z</time></trkpt><trkpt lat="43.5565532" lon="12.3202022"><ele>882.3333333333333</ele><time>2026-04-12T11:01:54.707Z</time></trkpt><trkpt lat="43.5566869" lon="12.3200395"><ele>885.0</ele><time>2026-04-12T11:01:55.703Z</time></trkpt><trkpt lat="43.5567914" lon="12.3198905"><ele>885.0</ele><time>2026-04-12T11:01:56.71Z</time></trkpt><trkpt lat="43.5568888" lon="12.3197639"><ele>885.0</ele><time>2026-04-12T11:01:57.707Z</time></trkpt><trkpt lat="43.5569918" lon="12.3196525"><ele>885.0</ele><time>2026-04-12T11:01:58.703Z</time></trkpt><trkpt lat="43.5571189" lon="12.3195329"><ele>885.0</ele><time>2026-04-12T11:01:59.698Z</time></trkpt><trkpt lat="43.5572473" lon="12.3194206"><ele>885.25</ele><time>2026-04-12T11:02:00.701Z</time></trkpt><trkpt lat="43.5573587" lon="12.3193141"><ele>885.5</ele><time>2026-04-12T11:02:01.684Z</time></trkpt><trkpt lat="43.5574574" lon="12.3192097"><ele>885.75</ele><time>2026-04-12T11:02:02.687Z</time></trkpt><trkpt lat="43.5575484" lon="12.3191189"><ele>886.0</ele><time>2026-04-12T11:02:03.692Z</time></trkpt><trkpt lat="43.5576443" lon="12.319034"><ele>886.0</ele><time>2026-04-12T11:02:04.706Z</time></trkpt><trkpt lat="43.5577462" lon="12.3189546"><ele>886.0</ele><time>2026-04-12T11:02:05.709Z</time></trkpt><trkpt lat="43.5578614" lon="12.3188935"><ele>886.0</ele><time>2026-04-12T11:02:06.694Z</time></trkpt><trkpt lat="43.5579946" lon="12.3188582"><ele>886.0</ele><time>2026-04-12T11:02:07.692Z</time></trkpt><trkpt lat="43.5582197" lon="12.3188746"><ele>887.4999999999999</ele><time>2026-04-12T11:02:09.696Z</time></trkpt><trkpt lat="43.5583054" lon="12.318857"><ele>889.0</ele><time>2026-04-12T11:02:10.691Z</time></trkpt><trkpt lat="43.5583653" lon="12.3188161"><ele>890.5</ele><time>2026-04-12T11:02:11.709Z</time></trkpt><trkpt lat="43.5583953" lon="12.3186668"><ele>892.0</ele><time>2026-04-12T11:02:13.693Z</time></trkpt><trkpt lat="43.558373" lon="12.3185792"><ele>893.4999999999999</ele><time>2026-04-12T11:02:14.693Z</time></trkpt><trkpt lat="43.5583283" lon="12.3184891"><ele>895.0</ele><time>2026-04-12T11:02:15.695Z</time></trkpt><trkpt lat="43.5582723" lon="12.318411"><ele>895.0</ele><time>2026-04-12T11:02:16.769Z</time></trkpt><trkpt lat="43.558207" lon="12.318329"><ele>895.0</ele><time>2026-04-12T11:02:17.692Z</time></trkpt><trkpt lat="43.558121" lon="12.3182249"><ele>895.0</ele><time>2026-04-12T11:02:18.72Z</time></trkpt><trkpt lat="43.5580139" lon="12.31813"><ele>895.0</ele><time>2026-04-12T11:02:19.687Z</time></trkpt><trkpt lat="43.557911" lon="12.318041"><ele>895.5</ele><time>2026-04-12T11:02:20.711Z</time></trkpt><trkpt lat="43.557812" lon="12.3179648"><ele>896.0</ele><time>2026-04-12T11:02:21.708Z</time></trkpt><trkpt lat="43.5577073" lon="12.3179069"><ele>896.5</ele><time>2026-04-12T11:02:22.7Z</time></trkpt><trkpt lat="43.5575976" lon="12.3178606"><ele>897.0</ele><time>2026-04-12T11:02:23.698Z</time></trkpt><trkpt lat="43.5574971" lon="12.3177929"><ele>897.0</ele><time>2026-04-12T11:02:24.688Z</time></trkpt><trkpt lat="43.5574248" lon="12.3176995"><ele>897.0</ele><time>2026-04-12T11:02:25.71Z</time></trkpt><trkpt lat="43.5573729" lon="12.3175848"><ele>897.0</ele><time>2026-04-12T11:02:26.693Z</time></trkpt><trkpt lat="43.5573626" lon="12.3174633"><ele>897.0</ele><time>2026-04-12T11:02:27.732Z</time></trkpt><trkpt lat="43.5574029" lon="12.3173376"><ele>897.0</ele><time>2026-04-12T11:02:28.692Z</time></trkpt><trkpt lat="43.5575463" lon="12.3171114"><ele>899.0</ele><time>2026-04-12T11:02:30.793Z</time></trkpt><trkpt lat="43.5576498" lon="12.3169896"><ele>901.0</ele><time>2026-04-12T11:02:31.702Z</time></trkpt><trkpt lat="43.5577584" lon="12.3168537"><ele>903.0</ele><time>2026-04-12T11:02:32.731Z</time></trkpt><trkpt lat="43.5578669" lon="12.3167322"><ele>905.0</ele><time>2026-04-12T11:02:33.712Z</time></trkpt><trkpt lat="43.5579861" lon="12.3166405"><ele>905.0</ele><time>2026-04-12T11:02:34.704Z</time></trkpt><trkpt lat="43.5581191" lon="12.3165499"><ele>905.0</ele><time>2026-04-12T11:02:35.7Z</time></trkpt><trkpt lat="43.5582487" lon="12.3164334"><ele>905.0</ele><time>2026-04-12T11:02:36.724Z</time></trkpt><trkpt lat="43.5583638" lon="12.3162998"><ele>901.25</ele><time>2026-04-12T11:02:37.727Z</time></trkpt><trkpt lat="43.5584577" lon="12.3161498"><ele>897.5</ele><time>2026-04-12T11:02:38.705Z</time></trkpt><trkpt lat="43.5585239" lon="12.3160172"><ele>893.75</ele><time>2026-04-12T11:02:39.711Z</time></trkpt><trkpt lat="43.5585821" lon="12.315903"><ele>890.0</ele><time>2026-04-12T11:02:40.696Z</time></trkpt><trkpt lat="43.558638" lon="12.3157998"><ele>890.0000000000001</ele><time>2026-04-12T11:02:41.725Z</time></trkpt><trkpt lat="43.5587028" lon="12.3157584"><ele>890.0</ele><time>2026-04-12T11:02:42.705Z</time></trkpt><trkpt lat="43.5587705" lon="12.3157336"><ele>890.0</ele><time>2026-04-12T11:02:43.78Z</time></trkpt><trkpt lat="43.5588483" lon="12.315735"><ele>890.0</ele><time>2026-04-12T11:02:44.711Z</time></trkpt><trkpt lat="43.558934" lon="12.315759"><ele>890.0000000000001</ele><time>2026-04-12T11:02:45.712Z</time></trkpt><trkpt lat="43.5590321" lon="12.3158151"><ele>890.0</ele><time>2026-04-12T11:02:46.696Z</time></trkpt><trkpt lat="43.5591443" lon="12.3158838"><ele>890.0</ele><time>2026-04-12T11:02:47.705Z</time></trkpt><trkpt lat="43.5592542" lon="12.3159444"><ele>890.0</ele><time>2026-04-12T11:02:48.709Z</time></trkpt><trkpt lat="43.5593542" lon="12.3159888"><ele>890.0</ele><time>2026-04-12T11:02:49.701Z</time></trkpt><trkpt lat="43.5595195" lon="12.3160304"><ele>890.0</ele><time>2026-04-12T11:02:51.763Z</time></trkpt><trkpt lat="43.5596215" lon="12.3159181"><ele>892.0</ele><time>2026-04-12T11:02:53.728Z</time></trkpt><trkpt lat="43.5596418" lon="12.315753"><ele>894.0</ele><time>2026-04-12T11:02:54.685Z</time></trkpt><trkpt lat="43.559654" lon="12.3155542"><ele>896.0</ele><time>2026-04-12T11:02:55.696Z</time></trkpt><trkpt lat="43.5596523" lon="12.3153694"><ele>898.0</ele><time>2026-04-12T11:02:56.7Z</time></trkpt><trkpt lat="43.5596696" lon="12.3152329"><ele>898.0</ele><time>2026-04-12T11:02:57.691Z</time></trkpt><trkpt lat="43.5597036" lon="12.315139"><ele>898.0</ele><time>2026-04-12T11:02:58.721Z</time></trkpt><trkpt lat="43.5597462" lon="12.3150434"><ele>898.0</ele><time>2026-04-12T11:02:59.685Z</time></trkpt><trkpt lat="43.5598221" lon="12.3149511"><ele>898.0</ele><time>2026-04-12T11:03:00.691Z</time></trkpt><trkpt lat="43.5599047" lon="12.3148483"><ele>898.0</ele><time>2026-04-12T11:03:01.696Z</time></trkpt><trkpt lat="43.5599809" lon="12.3147094"><ele>894.75</ele><time>2026-04-12T11:03:02.705Z</time></trkpt><trkpt lat="43.5600445" lon="12.3145348"><ele>891.5</ele><time>2026-04-12T11:03:03.71Z</time></trkpt><trkpt lat="43.5601108" lon="12.3143461"><ele>888.25</ele><time>2026-04-12T11:03:04.714Z</time></trkpt><trkpt lat="43.5601754" lon="12.3141527"><ele>885.0</ele><time>2026-04-12T11:03:05.716Z</time></trkpt><trkpt lat="43.5602381" lon="12.313996"><ele>883.0</ele><time>2026-04-12T11:03:06.678Z</time></trkpt><trkpt lat="43.5602937" lon="12.3138593"><ele>881.0</ele><time>2026-04-12T11:03:07.759Z</time></trkpt><trkpt lat="43.5603791" lon="12.3137364"><ele>879.0</ele><time>2026-04-12T11:03:08.678Z</time></trkpt><trkpt lat="43.5604979" lon="12.3136314"><ele>877.0</ele><time>2026-04-12T11:03:09.712Z</time></trkpt><trkpt lat="43.5606261" lon="12.3134984"><ele>885.0</ele><time>2026-04-12T11:03:10.705Z</time></trkpt><trkpt lat="43.5608957" lon="12.3132067"><ele>893.0</ele><time>2026-04-12T11:03:12.702Z</time></trkpt><trkpt lat="43.5610204" lon="12.3130647"><ele>893.0</ele><time>2026-04-12T11:03:13.702Z</time></trkpt><trkpt lat="43.561113" lon="12.312938"><ele>893.0</ele><time>2026-04-12T11:03:14.712Z</time></trkpt><trkpt lat="43.5611852" lon="12.312807"><ele>893.0</ele><time>2026-04-12T11:03:15.68Z</time></trkpt><trkpt lat="43.5612464" lon="12.3126766"><ele>893.0</ele><time>2026-04-12T11:03:16.714Z</time></trkpt><trkpt lat="43.5612903" lon="12.3125312"><ele>896.25</ele><time>2026-04-12T11:03:17.692Z</time></trkpt><trkpt lat="43.5613319" lon="12.3123766"><ele>899.5</ele><time>2026-04-12T11:03:18.718Z</time></trkpt><trkpt lat="43.5613885" lon="12.3122266"><ele>902.75</ele><time>2026-04-12T11:03:19.697Z</time></trkpt><trkpt lat="43.5614503" lon="12.3120694"><ele>906.0</ele><time>2026-04-12T11:03:20.706Z</time></trkpt><trkpt lat="43.5615104" lon="12.3118994"><ele>908.0</ele><time>2026-04-12T11:03:21.693Z</time></trkpt><trkpt lat="43.561589" lon="12.3116976"><ele>910.0</ele><time>2026-04-12T11:03:22.685Z</time></trkpt><trkpt lat="43.5616789" lon="12.3114655"><ele>912.0</ele><time>2026-04-12T11:03:23.685Z</time></trkpt><trkpt lat="43.5617544" lon="12.3112301"><ele>912.3333333333333</ele><time>2026-04-12T11:03:24.71Z</time></trkpt><trkpt lat="43.5618299" lon="12.3110093"><ele>912.6666666666666</ele><time>2026-04-12T11:03:25.685Z</time></trkpt><trkpt lat="43.561893" lon="12.3108143"><ele>913.0</ele><time>2026-04-12T11:03:26.7Z</time></trkpt><trkpt lat="43.561951" lon="12.3106645"><ele>912.25</ele><time>2026-04-12T11:03:27.725Z</time></trkpt><trkpt lat="43.5620247" lon="12.3105367"><ele>911.5</ele><time>2026-04-12T11:03:28.699Z</time></trkpt><trkpt lat="43.5621101" lon="12.3104599"><ele>910.75</ele><time>2026-04-12T11:03:29.793Z</time></trkpt><trkpt lat="43.5622185" lon="12.3104135"><ele>910.0</ele><time>2026-04-12T11:03:30.719Z</time></trkpt><trkpt lat="43.562351" lon="12.3103638"><ele>910.0</ele><time>2026-04-12T11:03:31.711Z</time></trkpt><trkpt lat="43.562607" lon="12.3102468"><ele>910.0</ele><time>2026-04-12T11:03:33.716Z</time></trkpt><trkpt lat="43.5627217" lon="12.3101736"><ele>910.0</ele><time>2026-04-12T11:03:34.699Z</time></trkpt><trkpt lat="43.5627866" lon="12.3100551"><ele>910.0</ele><time>2026-04-12T11:03:35.723Z</time></trkpt><trkpt lat="43.5628045" lon="12.3098887"><ele>910.0</ele><time>2026-04-12T11:03:36.717Z</time></trkpt><trkpt lat="43.5627773" lon="12.3097264"><ele>910.0</ele><time>2026-04-12T11:03:37.792Z</time></trkpt><trkpt lat="43.5627401" lon="12.3095673"><ele>910.0</ele><time>2026-04-12T11:03:38.704Z</time></trkpt><trkpt lat="43.5627262" lon="12.3094255"><ele>907.25</ele><time>2026-04-12T11:03:39.703Z</time></trkpt><trkpt lat="43.5627437" lon="12.309303"><ele>904.5</ele><time>2026-04-12T11:03:40.713Z</time></trkpt><trkpt lat="43.5627919" lon="12.30916"><ele>901.75</ele><time>2026-04-12T11:03:41.698Z</time></trkpt><trkpt lat="43.5628635" lon="12.308995"><ele>899.0</ele><time>2026-04-12T11:03:42.701Z</time></trkpt><trkpt lat="43.5629474" lon="12.3088284"><ele>908.25</ele><time>2026-04-12T11:03:43.695Z</time></trkpt><trkpt lat="43.5630219" lon="12.3086843"><ele>917.5</ele><time>2026-04-12T11:03:44.7Z</time></trkpt><trkpt lat="43.5630713" lon="12.3085464"><ele>926.75</ele><time>2026-04-12T11:03:45.711Z</time></trkpt><trkpt lat="43.5631062" lon="12.3084016"><ele>936.0</ele><time>2026-04-12T11:03:46.704Z</time></trkpt><trkpt lat="43.5631245" lon="12.3082494"><ele>936.0</ele><time>2026-04-12T11:03:47.702Z</time></trkpt><trkpt lat="43.5631236" lon="12.3080892"><ele>936.0</ele><time>2026-04-12T11:03:48.765Z</time></trkpt><trkpt lat="43.5630945" lon="12.3078989"><ele>936.0</ele><time>2026-04-12T11:03:49.68Z</time></trkpt><trkpt lat="43.5630553" lon="12.3077166"><ele>936.0</ele><time>2026-04-12T11:03:50.712Z</time></trkpt><trkpt lat="43.5630133" lon="12.3075727"><ele>936.0</ele><time>2026-04-12T11:03:51.693Z</time></trkpt><trkpt lat="43.5629623" lon="12.3074565"><ele>935.9999999999999</ele><time>2026-04-12T11:03:52.701Z</time></trkpt><trkpt lat="43.5628511" lon="12.3072618"><ele>935.9999999999999</ele><time>2026-04-12T11:03:54.7Z</time></trkpt><trkpt lat="43.5628249" lon="12.3071693"><ele>936.0</ele><time>2026-04-12T11:03:55.684Z</time></trkpt><trkpt lat="43.5628192" lon="12.3070753"><ele>936.0</ele><time>2026-04-12T11:03:56.684Z</time></trkpt><trkpt lat="43.5628565" lon="12.3069358"><ele>935.8</ele><time>2026-04-12T11:03:57.688Z</time></trkpt><trkpt lat="43.562886" lon="12.3067538"><ele>935.5999999999999</ele><time>2026-04-12T11:03:58.701Z</time></trkpt><trkpt lat="43.5628841" lon="12.3066063"><ele>935.4</ele><time>2026-04-12T11:03:59.696Z</time></trkpt><trkpt lat="43.5628676" lon="12.3064871"><ele>935.2</ele><time>2026-04-12T11:04:00.697Z</time></trkpt><trkpt lat="43.5628192" lon="12.3063706"><ele>935.0</ele><time>2026-04-12T11:04:01.701Z</time></trkpt><trkpt lat="43.5627638" lon="12.3062475"><ele>929.6</ele><time>2026-04-12T11:04:02.713Z</time></trkpt><trkpt lat="43.5627259" lon="12.3061118"><ele>924.2</ele><time>2026-04-12T11:04:03.693Z</time></trkpt><trkpt lat="43.5627125" lon="12.3059753"><ele>918.8</ele><time>2026-04-12T11:04:04.705Z</time></trkpt><trkpt lat="43.5627356" lon="12.3058336"><ele>913.4</ele><time>2026-04-12T11:04:05.702Z</time></trkpt><trkpt lat="43.5627565" lon="12.3056817"><ele>908.0</ele><time>2026-04-12T11:04:06.701Z</time></trkpt><trkpt lat="43.5627544" lon="12.3055515"><ele>908.0</ele><time>2026-04-12T11:04:07.684Z</time></trkpt><trkpt lat="43.5627521" lon="12.3054219"><ele>908.0</ele><time>2026-04-12T11:04:08.7Z</time></trkpt><trkpt lat="43.5627196" lon="12.305276"><ele>908.0</ele><time>2026-04-12T11:04:09.694Z</time></trkpt><trkpt lat="43.5626199" lon="12.3051791"><ele>908.0</ele><time>2026-04-12T11:04:10.706Z</time></trkpt><trkpt lat="43.5624772" lon="12.3050895"><ele>908.0</ele><time>2026-04-12T11:04:11.781Z</time></trkpt><trkpt lat="43.5623237" lon="12.3049847"><ele>908.0</ele><time>2026-04-12T11:04:12.694Z</time></trkpt><trkpt lat="43.562182" lon="12.3048966"><ele>908.0</ele><time>2026-04-12T11:04:13.707Z</time></trkpt><trkpt lat="43.5619583" lon="12.3047573"><ele>907.0000000000001</ele><time>2026-04-12T11:04:15.693Z</time></trkpt><trkpt lat="43.5618993" lon="12.3046621"><ele>906.0</ele><time>2026-04-12T11:04:16.686Z</time></trkpt><trkpt lat="43.56187" lon="12.3045363"><ele>905.0</ele><time>2026-04-12T11:04:17.708Z</time></trkpt><trkpt lat="43.5618559" lon="12.3043986"><ele>904.0</ele><time>2026-04-12T11:04:18.7Z</time></trkpt><trkpt lat="43.5618426" lon="12.3042857"><ele>903.0000000000001</ele><time>2026-04-12T11:04:19.691Z</time></trkpt><trkpt lat="43.5618227" lon="12.3041939"><ele>902.0</ele><time>2026-04-12T11:04:20.697Z</time></trkpt><trkpt lat="43.561796" lon="12.3040961"><ele>902.0</ele><time>2026-04-12T11:04:22.772Z</time></trkpt><trkpt lat="43.5617577" lon="12.3040148"><ele>902.0</ele><time>2026-04-12T11:04:24.692Z</time></trkpt><trkpt lat="43.5617106" lon="12.3039329"><ele>902.0</ele><time>2026-04-12T11:04:27.695Z</time></trkpt><trkpt lat="43.5616236" lon="12.3038962"><ele>902.0</ele><time>2026-04-12T11:04:54.698Z</time></trkpt><trkpt lat="43.5614865" lon="12.3037963"><ele>902.0</ele><time>2026-04-12T11:04:56.71Z</time></trkpt><trkpt lat="43.5614171" lon="12.3037201"><ele>901.2</ele><time>2026-04-12T11:04:57.699Z</time></trkpt><trkpt lat="43.5613518" lon="12.3036347"><ele>900.4000000000001</ele><time>2026-04-12T11:04:58.7Z</time></trkpt><trkpt lat="43.5612863" lon="12.303526"><ele>899.5999999999999</ele><time>2026-04-12T11:04:59.709Z</time></trkpt><trkpt lat="43.5612077" lon="12.303402"><ele>898.8</ele><time>2026-04-12T11:05:00.715Z</time></trkpt><trkpt lat="43.5611195" lon="12.3032585"><ele>898.0</ele><time>2026-04-12T11:05:01.698Z</time></trkpt><trkpt lat="43.5610343" lon="12.3031178"><ele>898.0</ele><time>2026-04-12T11:05:02.706Z</time></trkpt><trkpt lat="43.5609596" lon="12.3029903"><ele>898.0</ele><time>2026-04-12T11:05:03.709Z</time></trkpt><trkpt lat="43.5608871" lon="12.3028969"><ele>898.0</ele><time>2026-04-12T11:05:04.705Z</time></trkpt><trkpt lat="43.5608056" lon="12.3027984"><ele>898.0</ele><time>2026-04-12T11:05:05.703Z</time></trkpt><trkpt lat="43.5606957" lon="12.3026965"><ele>898.0</ele><time>2026-04-12T11:05:06.709Z</time></trkpt><trkpt lat="43.5605872" lon="12.302595"><ele>898.0</ele><time>2026-04-12T11:05:07.713Z</time></trkpt><trkpt lat="43.5604766" lon="12.3024776"><ele>898.0</ele><time>2026-04-12T11:05:08.707Z</time></trkpt><trkpt lat="43.5603811" lon="12.3023507"><ele>898.0</ele><time>2026-04-12T11:05:09.72Z</time></trkpt><trkpt lat="43.560297" lon="12.3022246"><ele>898.2</ele><time>2026-04-12T11:05:10.753Z</time></trkpt><trkpt lat="43.5602212" lon="12.3020993"><ele>898.4</ele><time>2026-04-12T11:05:11.783Z</time></trkpt><trkpt lat="43.5601543" lon="12.3019872"><ele>898.6000000000001</ele><time>2026-04-12T11:05:12.705Z</time></trkpt><trkpt lat="43.5600959" lon="12.3018809"><ele>898.8000000000001</ele><time>2026-04-12T11:05:13.698Z</time></trkpt><trkpt lat="43.5600345" lon="12.301784"><ele>899.0</ele><time>2026-04-12T11:05:14.709Z</time></trkpt><trkpt lat="43.5599801" lon="12.301672"><ele>897.5</ele><time>2026-04-12T11:05:15.699Z</time></trkpt><trkpt lat="43.5598785" lon="12.3014124"><ele>896.0</ele><time>2026-04-12T11:05:17.695Z</time></trkpt><trkpt lat="43.5598183" lon="12.3012944"><ele>894.5</ele><time>2026-04-12T11:05:18.703Z</time></trkpt><trkpt lat="43.5597548" lon="12.3011876"><ele>893.0</ele><time>2026-04-12T11:05:19.702Z</time></trkpt><trkpt lat="43.5596862" lon="12.3010824"><ele>893.0</ele><time>2026-04-12T11:05:20.704Z</time></trkpt><trkpt lat="43.559607" lon="12.3009826"><ele>893.0</ele><time>2026-04-12T11:05:21.703Z</time></trkpt><trkpt lat="43.5595328" lon="12.3008847"><ele>893.0</ele><time>2026-04-12T11:05:22.691Z</time></trkpt><trkpt lat="43.5594804" lon="12.3007761"><ele>893.0</ele><time>2026-04-12T11:05:23.695Z</time></trkpt><trkpt lat="43.559446" lon="12.3006393"><ele>893.0</ele><time>2026-04-12T11:05:24.693Z</time></trkpt><trkpt lat="43.5594053" lon="12.3005028"><ele>893.6666666666667</ele><time>2026-04-12T11:05:25.703Z</time></trkpt><trkpt lat="43.5593654" lon="12.3003605"><ele>894.3333333333334</ele><time>2026-04-12T11:05:26.709Z</time></trkpt><trkpt lat="43.5593358" lon="12.3002316"><ele>895.0</ele><time>2026-04-12T11:05:27.694Z</time></trkpt><trkpt lat="43.5593252" lon="12.3001212"><ele>895.6666666666667</ele><time>2026-04-12T11:05:28.694Z</time></trkpt><trkpt lat="43.5593025" lon="12.3000235"><ele>896.3333333333334</ele><time>2026-04-12T11:05:29.695Z</time></trkpt><trkpt lat="43.5592719" lon="12.2999446"><ele>897.0</ele><time>2026-04-12T11:05:30.714Z</time></trkpt><trkpt lat="43.5591823" lon="12.2999301"><ele>897.0</ele><time>2026-04-12T11:05:32.72Z</time></trkpt><trkpt lat="43.5591415" lon="12.3000977"><ele>897.0</ele><time>2026-04-12T11:05:34.693Z</time></trkpt><trkpt lat="43.5591412" lon="12.3002251"><ele>897.0</ele><time>2026-04-12T11:05:35.703Z</time></trkpt><trkpt lat="43.5591283" lon="12.3003601"><ele>897.0</ele><time>2026-04-12T11:05:36.714Z</time></trkpt><trkpt lat="43.5590751" lon="12.3006205"><ele>896.5</ele><time>2026-04-12T11:05:38.71Z</time></trkpt><trkpt lat="43.5590335" lon="12.3007233"><ele>896.0</ele><time>2026-04-12T11:05:39.714Z</time></trkpt><trkpt lat="43.5589731" lon="12.3007999"><ele>895.5</ele><time>2026-04-12T11:05:40.71Z</time></trkpt><trkpt lat="43.5589097" lon="12.300857"><ele>895.0</ele><time>2026-04-12T11:05:41.692Z</time></trkpt><trkpt lat="43.5588292" lon="12.3008968"><ele>894.5</ele><time>2026-04-12T11:05:42.731Z</time></trkpt><trkpt lat="43.5587334" lon="12.300941"><ele>894.0</ele><time>2026-04-12T11:05:43.763Z</time></trkpt><trkpt lat="43.5586308" lon="12.30095"><ele>890.0</ele><time>2026-04-12T11:05:44.717Z</time></trkpt><trkpt lat="43.558511" lon="12.3009445"><ele>886.0</ele><time>2026-04-12T11:05:45.707Z</time></trkpt><trkpt lat="43.5583722" lon="12.3009297"><ele>882.0</ele><time>2026-04-12T11:05:46.702Z</time></trkpt><trkpt lat="43.5582241" lon="12.3009108"><ele>878.0</ele><time>2026-04-12T11:05:47.727Z</time></trkpt><trkpt lat="43.5580597" lon="12.3008817"><ele>878.0</ele><time>2026-04-12T11:05:48.713Z</time></trkpt><trkpt lat="43.557898" lon="12.3008474"><ele>878.0</ele><time>2026-04-12T11:05:49.719Z</time></trkpt><trkpt lat="43.5577495" lon="12.3008116"><ele>878.0</ele><time>2026-04-12T11:05:50.711Z</time></trkpt><trkpt lat="43.5576124" lon="12.3007723"><ele>874.3333333333334</ele><time>2026-04-12T11:05:51.694Z</time></trkpt><trkpt lat="43.5574777" lon="12.3007249"><ele>870.6666666666667</ele><time>2026-04-12T11:05:52.702Z</time></trkpt><trkpt lat="43.557335" lon="12.3006478"><ele>867.0</ele><time>2026-04-12T11:05:53.688Z</time></trkpt><trkpt lat="43.5571826" lon="12.3005684"><ele>865.3333333333333</ele><time>2026-04-12T11:05:54.729Z</time></trkpt><trkpt lat="43.5570336" lon="12.3004839"><ele>863.6666666666666</ele><time>2026-04-12T11:05:55.713Z</time></trkpt><trkpt lat="43.5568947" lon="12.3003953"><ele>862.0</ele><time>2026-04-12T11:05:56.794Z</time></trkpt><trkpt lat="43.5567574" lon="12.3003133"><ele>862.0</ele><time>2026-04-12T11:05:57.725Z</time></trkpt><trkpt lat="43.5565156" lon="12.300175"><ele>862.0</ele><time>2026-04-12T11:05:59.692Z</time></trkpt><trkpt lat="43.5564037" lon="12.3001272"><ele>862.0</ele><time>2026-04-12T11:06:00.71Z</time></trkpt><trkpt lat="43.5562891" lon="12.3000992"><ele>861.0</ele><time>2026-04-12T11:06:01.718Z</time></trkpt><trkpt lat="43.5561701" lon="12.3000889"><ele>860.0</ele><time>2026-04-12T11:06:02.704Z</time></trkpt><trkpt lat="43.5560443" lon="12.3000924"><ele>859.0</ele><time>2026-04-12T11:06:03.697Z</time></trkpt><trkpt lat="43.5559201" lon="12.300095"><ele>858.0</ele><time>2026-04-12T11:06:04.701Z</time></trkpt><trkpt lat="43.5558026" lon="12.3000755"><ele>858.0</ele><time>2026-04-12T11:06:05.692Z</time></trkpt><trkpt lat="43.55568" lon="12.3000236"><ele>858.0</ele><time>2026-04-12T11:06:06.699Z</time></trkpt><trkpt lat="43.5555426" lon="12.2999505"><ele>858.0</ele><time>2026-04-12T11:06:07.687Z</time></trkpt><trkpt lat="43.5554091" lon="12.2998746"><ele>858.0</ele><time>2026-04-12T11:06:08.708Z</time></trkpt><trkpt lat="43.5552687" lon="12.2997968"><ele>855.75</ele><time>2026-04-12T11:06:09.695Z</time></trkpt><trkpt lat="43.5551209" lon="12.299731"><ele>853.5</ele><time>2026-04-12T11:06:10.698Z</time></trkpt><trkpt lat="43.5549791" lon="12.2996693"><ele>851.25</ele><time>2026-04-12T11:06:11.711Z</time></trkpt><trkpt lat="43.5548583" lon="12.2996201"><ele>849.0</ele><time>2026-04-12T11:06:12.707Z</time></trkpt><trkpt lat="43.5547523" lon="12.2995667"><ele>849.0</ele><time>2026-04-12T11:06:13.726Z</time></trkpt><trkpt lat="43.5546597" lon="12.2994891"><ele>849.0</ele><time>2026-04-12T11:06:14.696Z</time></trkpt><trkpt lat="43.5545649" lon="12.2994305"><ele>849.0</ele><time>2026-04-12T11:06:15.703Z</time></trkpt><trkpt lat="43.5544698" lon="12.2993906"><ele>849.0</ele><time>2026-04-12T11:06:16.699Z</time></trkpt><trkpt lat="43.5543715" lon="12.2993645"><ele>849.0</ele><time>2026-04-12T11:06:17.698Z</time></trkpt><trkpt lat="43.5542768" lon="12.2993478"><ele>849.25</ele><time>2026-04-12T11:06:18.692Z</time></trkpt><trkpt lat="43.5541012" lon="12.299276"><ele>849.5</ele><time>2026-04-12T11:06:20.705Z</time></trkpt><trkpt lat="43.5540083" lon="12.2992438"><ele>849.75</ele><time>2026-04-12T11:06:21.702Z</time></trkpt><trkpt lat="43.5539114" lon="12.299215"><ele>850.0</ele><time>2026-04-12T11:06:22.727Z</time></trkpt><trkpt lat="43.5538127" lon="12.2991881"><ele>850.0</ele><time>2026-04-12T11:06:23.695Z</time></trkpt><trkpt lat="43.5537189" lon="12.2991652"><ele>850.0</ele><time>2026-04-12T11:06:24.727Z</time></trkpt><trkpt lat="43.5536316" lon="12.2991461"><ele>850.0</ele><time>2026-04-12T11:06:25.691Z</time></trkpt><trkpt lat="43.5535382" lon="12.2991343"><ele>850.0</ele><time>2026-04-12T11:06:26.727Z</time></trkpt><trkpt lat="43.5534446" lon="12.2991232"><ele>850.0</ele><time>2026-04-12T11:06:27.694Z</time></trkpt><trkpt lat="43.5533553" lon="12.2991042"><ele>848.2</ele><time>2026-04-12T11:06:28.724Z</time></trkpt><trkpt lat="43.5532608" lon="12.2990787"><ele>846.4</ele><time>2026-04-12T11:06:29.684Z</time></trkpt><trkpt lat="43.553169" lon="12.2990548"><ele>844.5999999999999</ele><time>2026-04-12T11:06:30.786Z</time></trkpt><trkpt lat="43.5530748" lon="12.2990334"><ele>842.8</ele><time>2026-04-12T11:06:31.707Z</time></trkpt><trkpt lat="43.5529738" lon="12.2990138"><ele>841.0</ele><time>2026-04-12T11:06:32.699Z</time></trkpt><trkpt lat="43.5528716" lon="12.2989968"><ele>838.0</ele><time>2026-04-12T11:06:33.701Z</time></trkpt><trkpt lat="43.552772" lon="12.2989902"><ele>835.0</ele><time>2026-04-12T11:06:34.699Z</time></trkpt><trkpt lat="43.5526708" lon="12.2989895"><ele>832.0</ele><time>2026-04-12T11:06:35.696Z</time></trkpt><trkpt lat="43.5525731" lon="12.2989838"><ele>829.0</ele><time>2026-04-12T11:06:36.708Z</time></trkpt><trkpt lat="43.5524862" lon="12.298978"><ele>826.0</ele><time>2026-04-12T11:06:37.72Z</time></trkpt><trkpt lat="43.5524124" lon="12.2989728"><ele>826.0</ele><time>2026-04-12T11:06:38.695Z</time></trkpt><trkpt lat="43.5523473" lon="12.298965"><ele>826.0</ele><time>2026-04-12T11:06:39.724Z</time></trkpt><trkpt lat="43.5522163" lon="12.2990148"><ele>826.0</ele><time>2026-04-12T11:06:41.7Z</time></trkpt><trkpt lat="43.5521396" lon="12.2990703"><ele>826.0</ele><time>2026-04-12T11:06:42.719Z</time></trkpt><trkpt lat="43.5520612" lon="12.2991198"><ele>826.0</ele><time>2026-04-12T11:06:43.729Z</time></trkpt><trkpt lat="43.5519882" lon="12.2991518"><ele>822.4999999999999</ele><time>2026-04-12T11:06:44.719Z</time></trkpt><trkpt lat="43.551918" lon="12.2991615"><ele>819.0</ele><time>2026-04-12T11:06:45.695Z</time></trkpt><trkpt lat="43.551852" lon="12.2991385"><ele>815.5</ele><time>2026-04-12T11:06:46.705Z</time></trkpt><trkpt lat="43.5517868" lon="12.299058"><ele>812.0</ele><time>2026-04-12T11:06:47.697Z</time></trkpt><trkpt lat="43.5517166" lon="12.2989757"><ele>808.4999999999999</ele><time>2026-04-12T11:06:48.706Z</time></trkpt><trkpt lat="43.5516523" lon="12.2988772"><ele>805.0</ele><time>2026-04-12T11:06:49.691Z</time></trkpt><trkpt lat="43.5515829" lon="12.2987643"><ele>805.0</ele><time>2026-04-12T11:06:50.705Z</time></trkpt><trkpt lat="43.5515109" lon="12.2986496"><ele>805.0</ele><time>2026-04-12T11:06:51.695Z</time></trkpt><trkpt lat="43.5514344" lon="12.2985161"><ele>805.0</ele><time>2026-04-12T11:06:52.681Z</time></trkpt><trkpt lat="43.5513586" lon="12.2983806"><ele>805.0</ele><time>2026-04-12T11:06:53.713Z</time></trkpt><trkpt lat="43.5512826" lon="12.2982595"><ele>805.0</ele><time>2026-04-12T11:06:54.705Z</time></trkpt><trkpt lat="43.5512124" lon="12.2981316"><ele>805.0</ele><time>2026-04-12T11:06:55.724Z</time></trkpt><trkpt lat="43.5511401" lon="12.2980119"><ele>805.0</ele><time>2026-04-12T11:06:56.715Z</time></trkpt><trkpt lat="43.5510808" lon="12.2978879"><ele>805.0</ele><time>2026-04-12T11:06:57.707Z</time></trkpt><trkpt lat="43.5510204" lon="12.2977764"><ele>805.0</ele><time>2026-04-12T11:06:58.73Z</time></trkpt><trkpt lat="43.5509466" lon="12.29767"><ele>799.6666666666666</ele><time>2026-04-12T11:06:59.725Z</time></trkpt><trkpt lat="43.5508791" lon="12.2975611"><ele>794.3333333333333</ele><time>2026-04-12T11:07:00.807Z</time></trkpt><trkpt lat="43.5506747" lon="12.2972279"><ele>789.0</ele><time>2026-04-12T11:07:03.709Z</time></trkpt><trkpt lat="43.5506119" lon="12.2971246"><ele>786.2</ele><time>2026-04-12T11:07:04.697Z</time></trkpt><trkpt lat="43.5505516" lon="12.2970251"><ele>783.4000000000001</ele><time>2026-04-12T11:07:05.717Z</time></trkpt><trkpt lat="43.5504887" lon="12.2969372"><ele>780.6</ele><time>2026-04-12T11:07:06.714Z</time></trkpt><trkpt lat="43.5504252" lon="12.2968552"><ele>777.8</ele><time>2026-04-12T11:07:07.704Z</time></trkpt><trkpt lat="43.550357" lon="12.29677"><ele>775.0</ele><time>2026-04-12T11:07:08.708Z</time></trkpt><trkpt lat="43.5502911" lon="12.2966778"><ele>773.6666666666666</ele><time>2026-04-12T11:07:09.714Z</time></trkpt><trkpt lat="43.5502263" lon="12.2965787"><ele>772.3333333333333</ele><time>2026-04-12T11:07:10.73Z</time></trkpt><trkpt lat="43.5501631" lon="12.2964825"><ele>771.0</ele><time>2026-04-12T11:07:11.701Z</time></trkpt><trkpt lat="43.550096" lon="12.2963893"><ele>769.6666666666666</ele><time>2026-04-12T11:07:12.702Z</time></trkpt><trkpt lat="43.5500329" lon="12.2963243"><ele>768.3333333333333</ele><time>2026-04-12T11:07:13.706Z</time></trkpt><trkpt lat="43.5499714" lon="12.2962867"><ele>767.0</ele><time>2026-04-12T11:07:14.707Z</time></trkpt><trkpt lat="43.5499052" lon="12.2962854"><ele>767.0</ele><time>2026-04-12T11:07:15.694Z</time></trkpt><trkpt lat="43.5498029" lon="12.2963453"><ele>767.0</ele><time>2026-04-12T11:07:17.699Z</time></trkpt><trkpt lat="43.5497883" lon="12.2964345"><ele>767.0</ele><time>2026-04-12T11:07:19.705Z</time></trkpt><trkpt lat="43.5498138" lon="12.2965169"><ele>767.0</ele><time>2026-04-12T11:07:22.694Z</time></trkpt><trkpt lat="43.5499242" lon="12.2967103"><ele>767.0</ele><time>2026-04-12T11:07:28.704Z</time></trkpt><trkpt lat="43.5499649" lon="12.2967847"><ele>767.0</ele><time>2026-04-12T11:07:29.721Z</time></trkpt><trkpt lat="43.5499805" lon="12.2969511"><ele>767.0</ele><time>2026-04-12T11:07:31.731Z</time></trkpt><trkpt lat="43.5499578" lon="12.2971216"><ele>767.0</ele><time>2026-04-12T11:07:33.696Z</time></trkpt><trkpt lat="43.5499415" lon="12.297211"><ele>767.0</ele><time>2026-04-12T11:07:34.716Z</time></trkpt><trkpt lat="43.5499265" lon="12.2973"><ele>767.0</ele><time>2026-04-12T11:07:35.689Z</time></trkpt><trkpt lat="43.5499173" lon="12.2974712"><ele>765.6666666666666</ele><time>2026-04-12T11:07:37.782Z</time></trkpt><trkpt lat="43.5499102" lon="12.2975755"><ele>764.3333333333333</ele><time>2026-04-12T11:07:38.703Z</time></trkpt><trkpt lat="43.5499135" lon="12.2976813"><ele>763.0</ele><time>2026-04-12T11:07:39.71Z</time></trkpt><trkpt lat="43.5499288" lon="12.2977844"><ele>761.6666666666666</ele><time>2026-04-12T11:07:40.725Z</time></trkpt><trkpt lat="43.5499599" lon="12.2978831"><ele>760.3333333333334</ele><time>2026-04-12T11:07:41.688Z</time></trkpt><trkpt lat="43.5499957" lon="12.2979847"><ele>759.0</ele><time>2026-04-12T11:07:42.697Z</time></trkpt><trkpt lat="43.5500152" lon="12.2980808"><ele>757.0</ele><time>2026-04-12T11:07:43.694Z</time></trkpt><trkpt lat="43.5500147" lon="12.2982712"><ele>755.0</ele><time>2026-04-12T11:07:45.704Z</time></trkpt><trkpt lat="43.549998" lon="12.2983727"><ele>753.0</ele><time>2026-04-12T11:07:46.702Z</time></trkpt><trkpt lat="43.5499719" lon="12.2984748"><ele>751.0</ele><time>2026-04-12T11:07:47.736Z</time></trkpt><trkpt lat="43.549975" lon="12.298582"><ele>749.0</ele><time>2026-04-12T11:07:48.785Z</time></trkpt><trkpt lat="43.5500105" lon="12.2986866"><ele>749.0</ele><time>2026-04-12T11:07:49.703Z</time></trkpt><trkpt lat="43.5500624" lon="12.2987799"><ele>749.0</ele><time>2026-04-12T11:07:50.733Z</time></trkpt><trkpt lat="43.5501132" lon="12.2988832"><ele>749.0</ele><time>2026-04-12T11:07:51.704Z</time></trkpt><trkpt lat="43.5501485" lon="12.2989764"><ele>749.0</ele><time>2026-04-12T11:07:52.694Z</time></trkpt><trkpt lat="43.5501668" lon="12.2990858"><ele>749.0</ele><time>2026-04-12T11:07:53.722Z</time></trkpt><trkpt lat="43.5501646" lon="12.2992095"><ele>749.0</ele><time>2026-04-12T11:07:54.699Z</time></trkpt><trkpt lat="43.5501633" lon="12.2993478"><ele>747.7142857142857</ele><time>2026-04-12T11:07:55.708Z</time></trkpt><trkpt lat="43.5501594" lon="12.2994645"><ele>746.4285714285714</ele><time>2026-04-12T11:07:56.682Z</time></trkpt><trkpt lat="43.5501424" lon="12.2995685"><ele>745.1428571428571</ele><time>2026-04-12T11:07:57.688Z</time></trkpt><trkpt lat="43.5501146" lon="12.2996528"><ele>743.8571428571429</ele><time>2026-04-12T11:07:58.689Z</time></trkpt><trkpt lat="43.5500678" lon="12.2997146"><ele>742.5714285714286</ele><time>2026-04-12T11:07:59.683Z</time></trkpt><trkpt lat="43.5500028" lon="12.2997614"><ele>741.2857142857142</ele><time>2026-04-12T11:08:00.721Z</time></trkpt><trkpt lat="43.5499381" lon="12.2998003"><ele>740.0</ele><time>2026-04-12T11:08:01.696Z</time></trkpt><trkpt lat="43.5498781" lon="12.2998341"><ele>738.2</ele><time>2026-04-12T11:08:02.694Z</time></trkpt><trkpt lat="43.5498099" lon="12.2998659"><ele>736.4</ele><time>2026-04-12T11:08:03.693Z</time></trkpt><trkpt lat="43.5497495" lon="12.3000052"><ele>734.5999999999999</ele><time>2026-04-12T11:08:05.688Z</time></trkpt><trkpt lat="43.549805" lon="12.3001769"><ele>732.8</ele><time>2026-04-12T11:08:07.692Z</time></trkpt><trkpt lat="43.5498539" lon="12.3002388"><ele>731.0</ele><time>2026-04-12T11:08:08.715Z</time></trkpt><trkpt lat="43.5499264" lon="12.3003069"><ele>731.0</ele><time>2026-04-12T11:08:09.715Z</time></trkpt><trkpt lat="43.5500164" lon="12.3003888"><ele>731.0</ele><time>2026-04-12T11:08:10.7Z</time></trkpt><trkpt lat="43.5501121" lon="12.3004792"><ele>731.0</ele><time>2026-04-12T11:08:11.705Z</time></trkpt><trkpt lat="43.5502075" lon="12.3005713"><ele>731.0</ele><time>2026-04-12T11:08:12.709Z</time></trkpt><trkpt lat="43.5503055" lon="12.3006466"><ele>729.1999999999999</ele><time>2026-04-12T11:08:13.701Z</time></trkpt><trkpt lat="43.5503908" lon="12.3007"><ele>727.4</ele><time>2026-04-12T11:08:14.711Z</time></trkpt><trkpt lat="43.5504784" lon="12.3007451"><ele>725.6</ele><time>2026-04-12T11:08:15.704Z</time></trkpt><trkpt lat="43.5505684" lon="12.3007672"><ele>723.8</ele><time>2026-04-12T11:08:16.693Z</time></trkpt><trkpt lat="43.5506647" lon="12.3007724"><ele>722.0</ele><time>2026-04-12T11:08:17.705Z</time></trkpt><trkpt lat="43.5507467" lon="12.3007665"><ele>722.0</ele><time>2026-04-12T11:08:18.696Z</time></trkpt><trkpt lat="43.5508131" lon="12.3007662"><ele>722.0</ele><time>2026-04-12T11:08:19.732Z</time></trkpt><trkpt lat="43.5508728" lon="12.3007952"><ele>722.0</ele><time>2026-04-12T11:08:20.779Z</time></trkpt><trkpt lat="43.5509309" lon="12.3008384"><ele>722.0</ele><time>2026-04-12T11:08:21.692Z</time></trkpt><trkpt lat="43.5509895" lon="12.3009006"><ele>722.0</ele><time>2026-04-12T11:08:22.71Z</time></trkpt><trkpt lat="43.5510439" lon="12.3009804"><ele>722.0</ele><time>2026-04-12T11:08:23.767Z</time></trkpt><trkpt lat="43.5510976" lon="12.3010525"><ele>722.0</ele><time>2026-04-12T11:08:24.719Z</time></trkpt><trkpt lat="43.5511483" lon="12.3011204"><ele>722.0</ele><time>2026-04-12T11:08:25.735Z</time></trkpt><trkpt lat="43.5511944" lon="12.3011963"><ele>722.0</ele><time>2026-04-12T11:08:26.689Z</time></trkpt><trkpt lat="43.5512399" lon="12.3013817"><ele>722.0</ele><time>2026-04-12T11:08:28.694Z</time></trkpt><trkpt lat="43.551233" lon="12.3014801"><ele>722.0</ele><time>2026-04-12T11:08:29.727Z</time></trkpt><trkpt lat="43.5511944" lon="12.301568"><ele>722.0</ele><time>2026-04-12T11:08:30.687Z</time></trkpt><trkpt lat="43.5511341" lon="12.3016283"><ele>722.0</ele><time>2026-04-12T11:08:31.701Z</time></trkpt><trkpt lat="43.5510706" lon="12.3016861"><ele>717.6666666666666</ele><time>2026-04-12T11:08:32.693Z</time></trkpt><trkpt lat="43.55101" lon="12.3017479"><ele>713.3333333333333</ele><time>2026-04-12T11:08:33.69Z</time></trkpt><trkpt lat="43.5509643" lon="12.3018186"><ele>709.0</ele><time>2026-04-12T11:08:34.717Z</time></trkpt><trkpt lat="43.550905" lon="12.3018969"><ele>704.6666666666666</ele><time>2026-04-12T11:08:35.69Z</time></trkpt><trkpt lat="43.5508362" lon="12.3019999"><ele>700.3333333333334</ele><time>2026-04-12T11:08:36.722Z</time></trkpt><trkpt lat="43.5507645" lon="12.3020939"><ele>696.0</ele><time>2026-04-12T11:08:37.69Z</time></trkpt><trkpt lat="43.5506972" lon="12.3021756"><ele>696.0</ele><time>2026-04-12T11:08:38.687Z</time></trkpt><trkpt lat="43.5506216" lon="12.3022476"><ele>696.0</ele><time>2026-04-12T11:08:39.692Z</time></trkpt><trkpt lat="43.5505485" lon="12.3023098"><ele>696.0</ele><time>2026-04-12T11:08:40.703Z</time></trkpt><trkpt lat="43.5504814" lon="12.3023697"><ele>696.0</ele><time>2026-04-12T11:08:41.683Z</time></trkpt><trkpt lat="43.5504249" lon="12.3024294"><ele>696.0</ele><time>2026-04-12T11:08:42.701Z</time></trkpt><trkpt lat="43.550346" lon="12.3025359"><ele>696.0</ele><time>2026-04-12T11:08:44.706Z</time></trkpt><trkpt lat="43.5502884" lon="12.3026289"><ele>689.0</ele><time>2026-04-12T11:08:46.699Z</time></trkpt><trkpt lat="43.5502394" lon="12.3026863"><ele>682.0</ele><time>2026-04-12T11:08:49.685Z</time></trkpt><trkpt lat="43.5500201" lon="12.3027836"><ele>675.0</ele><time>2026-04-12T11:14:41.718Z</time></trkpt><trkpt lat="43.549934" lon="12.3027892"><ele>668.0</ele><time>2026-04-12T11:14:43.703Z</time></trkpt><trkpt lat="43.54985" lon="12.302814"><ele>668.0</ele><time>2026-04-12T11:14:47.699Z</time></trkpt><trkpt lat="43.5497669" lon="12.3029099"><ele>668.0</ele><time>2026-04-12T11:14:49.693Z</time></trkpt><trkpt lat="43.5497194" lon="12.302971"><ele>668.0</ele><time>2026-04-12T11:14:50.687Z</time></trkpt><trkpt lat="43.5496223" lon="12.3030959"><ele>668.0</ele><time>2026-04-12T11:14:52.702Z</time></trkpt><trkpt lat="43.5495727" lon="12.3031587"><ele>668.0</ele><time>2026-04-12T11:14:53.696Z</time></trkpt><trkpt lat="43.549524" lon="12.3032205"><ele>668.0</ele><time>2026-04-12T11:14:54.71Z</time></trkpt><trkpt lat="43.549441" lon="12.3033375"><ele>664.0</ele><time>2026-04-12T11:14:56.714Z</time></trkpt><trkpt lat="43.5493727" lon="12.3034497"><ele>660.0</ele><time>2026-04-12T11:14:58.701Z</time></trkpt><trkpt lat="43.5493241" lon="12.3035581"><ele>656.0</ele><time>2026-04-12T11:15:00.697Z</time></trkpt><trkpt lat="43.5492902" lon="12.3036608"><ele>652.0</ele><time>2026-04-12T11:15:02.685Z</time></trkpt><trkpt lat="43.5492296" lon="12.3037424"><ele>648.0</ele><time>2026-04-12T11:15:04.695Z</time></trkpt><trkpt lat="43.5491645" lon="12.3037049"><ele>644.0</ele><time>2026-04-12T11:15:06.704Z</time></trkpt><trkpt lat="43.5492369" lon="12.3036664"><ele>644.0</ele><time>2026-04-12T11:15:28.686Z</time></trkpt><trkpt lat="43.5493522" lon="12.3035048"><ele>644.0</ele><time>2026-04-12T11:15:30.704Z</time></trkpt><trkpt lat="43.5493959" lon="12.3034099"><ele>644.0</ele><time>2026-04-12T11:15:31.698Z</time></trkpt><trkpt lat="43.5494413" lon="12.3033195"><ele>644.0</ele><time>2026-04-12T11:15:32.683Z</time></trkpt><trkpt lat="43.5494866" lon="12.3032384"><ele>644.0</ele><time>2026-04-12T11:15:33.702Z</time></trkpt><trkpt lat="43.5495391" lon="12.3031537"><ele>648.8000000000001</ele><time>2026-04-12T11:15:34.69Z</time></trkpt><trkpt lat="43.5496066" lon="12.3030633"><ele>653.6</ele><time>2026-04-12T11:15:35.73Z</time></trkpt><trkpt lat="43.5496909" lon="12.3029641"><ele>658.4</ele><time>2026-04-12T11:15:36.705Z</time></trkpt><trkpt lat="43.5497774" lon="12.3028662"><ele>663.2</ele><time>2026-04-12T11:15:37.702Z</time></trkpt><trkpt lat="43.5498615" lon="12.3027843"><ele>668.0</ele><time>2026-04-12T11:15:38.731Z</time></trkpt><trkpt lat="43.5499366" lon="12.3027233"><ele>668.0</ele><time>2026-04-12T11:15:39.7Z</time></trkpt><trkpt lat="43.5500108" lon="12.3026887"><ele>668.0</ele><time>2026-04-12T11:15:40.69Z</time></trkpt><trkpt lat="43.5500805" lon="12.3026729"><ele>668.0</ele><time>2026-04-12T11:15:41.705Z</time></trkpt><trkpt lat="43.5501485" lon="12.3026607"><ele>668.0</ele><time>2026-04-12T11:15:42.7Z</time></trkpt><trkpt lat="43.5502664" lon="12.3026198"><ele>668.0</ele><time>2026-04-12T11:15:44.691Z</time></trkpt><trkpt lat="43.5503219" lon="12.3025746"><ele>668.0</ele><time>2026-04-12T11:15:45.701Z</time></trkpt><trkpt lat="43.5503882" lon="12.3025106"><ele>673.5</ele><time>2026-04-12T11:15:46.705Z</time></trkpt><trkpt lat="43.5504446" lon="12.3024457"><ele>679.0</ele><time>2026-04-12T11:15:47.69Z</time></trkpt><trkpt lat="43.5505395" lon="12.3023189"><ele>684.5</ele><time>2026-04-12T11:15:49.76Z</time></trkpt><trkpt lat="43.550687" lon="12.3021214"><ele>690.0</ele><time>2026-04-12T11:15:51.684Z</time></trkpt><trkpt lat="43.5507598" lon="12.3020188"><ele>691.0</ele><time>2026-04-12T11:15:52.682Z</time></trkpt><trkpt lat="43.5508242" lon="12.3019239"><ele>692.0</ele><time>2026-04-12T11:15:53.68Z</time></trkpt><trkpt lat="43.5508717" lon="12.3018455"><ele>693.0</ele><time>2026-04-12T11:15:54.69Z</time></trkpt><trkpt lat="43.5509384" lon="12.3017461"><ele>694.0</ele><time>2026-04-12T11:15:56.714Z</time></trkpt><trkpt lat="43.5509759" lon="12.3016569"><ele>695.0</ele><time>2026-04-12T11:15:58.701Z</time></trkpt><trkpt lat="43.5510246" lon="12.3016015"><ele>696.0</ele><time>2026-04-12T11:22:31.691Z</time></trkpt><trkpt lat="43.5510726" lon="12.3016477"><ele>696.0</ele><time>2026-04-12T11:24:31.698Z</time></trkpt><trkpt lat="43.5509151" lon="12.3018339"><ele>696.0</ele><time>2026-04-12T11:24:37.694Z</time></trkpt><trkpt lat="43.5508167" lon="12.3019727"><ele>696.0</ele><time>2026-04-12T11:24:39.693Z</time></trkpt><trkpt lat="43.550772" lon="12.302057"><ele>696.0</ele><time>2026-04-12T11:24:40.685Z</time></trkpt><trkpt lat="43.5507159" lon="12.3021338"><ele>696.0</ele><time>2026-04-12T11:24:41.685Z</time></trkpt><trkpt lat="43.55065" lon="12.3022039"><ele>696.0</ele><time>2026-04-12T11:24:42.693Z</time></trkpt><trkpt lat="43.5505794" lon="12.30227"><ele>696.0</ele><time>2026-04-12T11:24:43.691Z</time></trkpt><trkpt lat="43.5505132" lon="12.3023321"><ele>696.0</ele><time>2026-04-12T11:24:44.714Z</time></trkpt><trkpt lat="43.5504577" lon="12.302395"><ele>696.0</ele><time>2026-04-12T11:24:45.693Z</time></trkpt><trkpt lat="43.5503752" lon="12.3025203"><ele>696.0</ele><time>2026-04-12T11:24:47.688Z</time></trkpt><trkpt lat="43.5502939" lon="12.3026166"><ele>686.6666666666666</ele><time>2026-04-12T11:24:49.711Z</time></trkpt><trkpt lat="43.5501942" lon="12.3026983"><ele>677.3333333333333</ele><time>2026-04-12T11:24:51.684Z</time></trkpt><trkpt lat="43.550091" lon="12.3027494"><ele>668.0</ele><time>2026-04-12T11:24:53.712Z</time></trkpt><trkpt lat="43.5498622" lon="12.3028127"><ele>668.0</ele><time>2026-04-12T11:24:57.696Z</time></trkpt><trkpt lat="43.5497635" lon="12.3028994"><ele>668.0</ele><time>2026-04-12T11:24:59.711Z</time></trkpt><trkpt lat="43.5497139" lon="12.302961"><ele>668.0</ele><time>2026-04-12T11:25:00.697Z</time></trkpt><trkpt lat="43.549657" lon="12.3030322"><ele>668.0</ele><time>2026-04-12T11:25:01.693Z</time></trkpt><trkpt lat="43.549601" lon="12.3031028"><ele>668.0</ele><time>2026-04-12T11:25:02.709Z</time></trkpt><trkpt lat="43.5495507" lon="12.3031679"><ele>668.0</ele><time>2026-04-12T11:25:03.716Z</time></trkpt><trkpt lat="43.5495046" lon="12.3032325"><ele>662.0</ele><time>2026-04-12T11:25:04.692Z</time></trkpt><trkpt lat="43.5494293" lon="12.3033621"><ele>656.0</ele><time>2026-04-12T11:25:06.69Z</time></trkpt><trkpt lat="43.5493825" lon="12.3035051"><ele>650.0</ele><time>2026-04-12T11:25:08.689Z</time></trkpt><trkpt lat="43.5493229" lon="12.3036341"><ele>644.0</ele><time>2026-04-12T11:25:10.708Z</time></trkpt><trkpt lat="43.5492313" lon="12.3037065"><ele>644.0</ele><time>2026-04-12T11:25:12.712Z</time></trkpt><trkpt lat="43.5491416" lon="12.3036841"><ele>644.0</ele><time>2026-04-12T11:25:14.689Z</time></trkpt><trkpt lat="43.5491092" lon="12.3034192"><ele>644.0</ele><time>2026-04-12T11:25:18.693Z</time></trkpt><trkpt lat="43.5491341" lon="12.303241"><ele>644.0</ele><time>2026-04-12T11:25:20.715Z</time></trkpt><trkpt lat="43.5491467" lon="12.3031508"><ele>643.7142857142857</ele><time>2026-04-12T11:25:21.715Z</time></trkpt><trkpt lat="43.5491563" lon="12.3030578"><ele>643.4285714285714</ele><time>2026-04-12T11:25:22.708Z</time></trkpt><trkpt lat="43.5491725" lon="12.302969"><ele>643.1428571428571</ele><time>2026-04-12T11:25:23.792Z</time></trkpt><trkpt lat="43.5491972" lon="12.3028821"><ele>642.8571428571429</ele><time>2026-04-12T11:25:24.707Z</time></trkpt><trkpt lat="43.5492275" lon="12.302798"><ele>642.5714285714286</ele><time>2026-04-12T11:25:25.702Z</time></trkpt><trkpt lat="43.5492607" lon="12.3027192"><ele>642.2857142857142</ele><time>2026-04-12T11:25:26.7Z</time></trkpt><trkpt lat="43.549299" lon="12.3026243"><ele>642.0</ele><time>2026-04-12T11:25:27.695Z</time></trkpt><trkpt lat="43.5493426" lon="12.3025249"><ele>642.0</ele><time>2026-04-12T11:25:28.734Z</time></trkpt><trkpt lat="43.5493822" lon="12.3024198"><ele>642.0</ele><time>2026-04-12T11:25:29.694Z</time></trkpt><trkpt lat="43.5494182" lon="12.3023093"><ele>642.0</ele><time>2026-04-12T11:25:30.718Z</time></trkpt><trkpt lat="43.5494402" lon="12.302191"><ele>642.0</ele><time>2026-04-12T11:25:31.713Z</time></trkpt><trkpt lat="43.5494553" lon="12.302076"><ele>642.0</ele><time>2026-04-12T11:25:32.697Z</time></trkpt><trkpt lat="43.5494562" lon="12.3019796"><ele>642.0</ele><time>2026-04-12T11:25:33.697Z</time></trkpt><trkpt lat="43.549399" lon="12.3018319"><ele>644.6666666666666</ele><time>2026-04-12T11:25:35.775Z</time></trkpt><trkpt lat="43.5492024" lon="12.3017785"><ele>647.3333333333333</ele><time>2026-04-12T11:25:38.711Z</time></trkpt><trkpt lat="43.5490952" lon="12.3017821"><ele>650.0</ele><time>2026-04-12T11:25:39.694Z</time></trkpt><trkpt lat="43.5489432" lon="12.3017807"><ele>650.0</ele><time>2026-04-12T11:25:40.705Z</time></trkpt><trkpt lat="43.5487795" lon="12.3017734"><ele>650.0</ele><time>2026-04-12T11:25:41.711Z</time></trkpt><trkpt lat="43.5486372" lon="12.3017645"><ele>650.0</ele><time>2026-04-12T11:25:42.698Z</time></trkpt><trkpt lat="43.5485181" lon="12.3017507"><ele>650.0</ele><time>2026-04-12T11:25:43.709Z</time></trkpt><trkpt lat="43.5484231" lon="12.3017507"><ele>647.8571428571428</ele><time>2026-04-12T11:25:44.691Z</time></trkpt><trkpt lat="43.5483479" lon="12.3017567"><ele>645.7142857142858</ele><time>2026-04-12T11:25:45.731Z</time></trkpt><trkpt lat="43.5482752" lon="12.3017605"><ele>643.5714285714286</ele><time>2026-04-12T11:25:46.719Z</time></trkpt><trkpt lat="43.5482095" lon="12.301753"><ele>641.4285714285713</ele><time>2026-04-12T11:25:47.689Z</time></trkpt><trkpt lat="43.5481462" lon="12.3017343"><ele>639.2857142857142</ele><time>2026-04-12T11:25:48.724Z</time></trkpt><trkpt lat="43.548082" lon="12.301711"><ele>637.1428571428571</ele><time>2026-04-12T11:25:49.698Z</time></trkpt><trkpt lat="43.5480152" lon="12.3016947"><ele>635.0</ele><time>2026-04-12T11:25:50.715Z</time></trkpt><trkpt lat="43.5479445" lon="12.3016735"><ele>635.0</ele><time>2026-04-12T11:25:51.711Z</time></trkpt><trkpt lat="43.5478782" lon="12.3016492"><ele>635.0</ele><time>2026-04-12T11:25:52.687Z</time></trkpt><trkpt lat="43.547824" lon="12.301604"><ele>635.0</ele><time>2026-04-12T11:25:53.702Z</time></trkpt><trkpt lat="43.5477714" lon="12.3015479"><ele>635.0</ele><time>2026-04-12T11:25:54.691Z</time></trkpt><trkpt lat="43.5476946" lon="12.3014075"><ele>635.0</ele><time>2026-04-12T11:25:56.717Z</time></trkpt><trkpt lat="43.5476684" lon="12.3011456"><ele>631.9999999999999</ele><time>2026-04-12T11:25:59.723Z</time></trkpt><trkpt lat="43.5476717" lon="12.3010471"><ele>629.0</ele><time>2026-04-12T11:26:00.708Z</time></trkpt><trkpt lat="43.547659" lon="12.30096"><ele>626.0</ele><time>2026-04-12T11:26:01.721Z</time></trkpt><trkpt lat="43.5476249" lon="12.3008799"><ele>623.0</ele><time>2026-04-12T11:26:02.707Z</time></trkpt><trkpt lat="43.5475827" lon="12.3008071"><ele>620.0</ele><time>2026-04-12T11:26:03.732Z</time></trkpt><trkpt lat="43.5475321" lon="12.3007415"><ele>616.9999999999999</ele><time>2026-04-12T11:26:04.689Z</time></trkpt><trkpt lat="43.5474842" lon="12.3006825"><ele>614.0</ele><time>2026-04-12T11:26:05.697Z</time></trkpt><trkpt lat="43.5474286" lon="12.3006231"><ele>615.0</ele><time>2026-04-12T11:26:06.711Z</time></trkpt><trkpt lat="43.5473806" lon="12.3005525"><ele>616.0</ele><time>2026-04-12T11:26:07.709Z</time></trkpt><trkpt lat="43.5473377" lon="12.3004685"><ele>617.0</ele><time>2026-04-12T11:26:08.717Z</time></trkpt><trkpt lat="43.5473035" lon="12.3003758"><ele>618.0</ele><time>2026-04-12T11:26:09.717Z</time></trkpt><trkpt lat="43.5472754" lon="12.3002769"><ele>619.0</ele><time>2026-04-12T11:26:10.713Z</time></trkpt><trkpt lat="43.5472573" lon="12.3001753"><ele>620.0</ele><time>2026-04-12T11:26:11.71Z</time></trkpt><trkpt lat="43.5472385" lon="12.3000711"><ele>620.0</ele><time>2026-04-12T11:26:12.729Z</time></trkpt><trkpt lat="43.547223" lon="12.299967"><ele>620.0</ele><time>2026-04-12T11:26:13.716Z</time></trkpt><trkpt lat="43.5472055" lon="12.2998578"><ele>620.0</ele><time>2026-04-12T11:26:14.71Z</time></trkpt><trkpt lat="43.5471696" lon="12.2997713"><ele>620.0</ele><time>2026-04-12T11:26:15.721Z</time></trkpt><trkpt lat="43.5471299" lon="12.2997003"><ele>620.0</ele><time>2026-04-12T11:26:16.716Z</time></trkpt><trkpt lat="43.5470847" lon="12.2996372"><ele>620.0</ele><time>2026-04-12T11:26:17.717Z</time></trkpt><trkpt lat="43.5468883" lon="12.2995134"><ele>616.2</ele><time>2026-04-12T11:26:21.712Z</time></trkpt><trkpt lat="43.5467908" lon="12.2994322"><ele>612.4</ele><time>2026-04-12T11:26:23.692Z</time></trkpt><trkpt lat="43.5467099" lon="12.2993481"><ele>608.6</ele><time>2026-04-12T11:26:25.703Z</time></trkpt><trkpt lat="43.5466411" lon="12.2992855"><ele>604.8</ele><time>2026-04-12T11:26:27.691Z</time></trkpt><trkpt lat="43.5465791" lon="12.2992219"><ele>601.0</ele><time>2026-04-12T11:26:29.693Z</time></trkpt><trkpt lat="43.5464961" lon="12.2991554"><ele>601.0</ele><time>2026-04-12T11:26:31.697Z</time></trkpt><trkpt lat="43.5464399" lon="12.2991045"><ele>601.0</ele><time>2026-04-12T11:26:32.777Z</time></trkpt><trkpt lat="43.5463858" lon="12.2990473"><ele>601.0</ele><time>2026-04-12T11:26:33.704Z</time></trkpt><trkpt lat="43.5463244" lon="12.2989653"><ele>601.0</ele><time>2026-04-12T11:26:35.689Z</time></trkpt><trkpt lat="43.5462743" lon="12.2988814"><ele>601.0</ele><time>2026-04-12T11:26:38.701Z</time></trkpt><trkpt lat="43.5461604" lon="12.2986656"><ele>600.1666666666667</ele><time>2026-04-12T11:26:42.694Z</time></trkpt><trkpt lat="43.5461151" lon="12.2985525"><ele>599.3333333333334</ele><time>2026-04-12T11:26:44.723Z</time></trkpt><trkpt lat="43.5460757" lon="12.2984407"><ele>598.5</ele><time>2026-04-12T11:26:46.706Z</time></trkpt><trkpt lat="43.5460395" lon="12.2983491"><ele>597.6666666666666</ele><time>2026-04-12T11:26:48.701Z</time></trkpt><trkpt lat="43.545997" lon="12.2982573"><ele>596.8333333333333</ele><time>2026-04-12T11:26:50.708Z</time></trkpt><trkpt lat="43.5459374" lon="12.2981735"><ele>596.0</ele><time>2026-04-12T11:26:52.688Z</time></trkpt><trkpt lat="43.545866" lon="12.2980947"><ele>601.0</ele><time>2026-04-12T11:26:54.764Z</time></trkpt><trkpt lat="43.5457934" lon="12.2980096"><ele>606.0</ele><time>2026-04-12T11:26:56.707Z</time></trkpt><trkpt lat="43.5457192" lon="12.297938"><ele>611.0</ele><time>2026-04-12T11:26:58.694Z</time></trkpt><trkpt lat="43.5456382" lon="12.2978857"><ele>616.0</ele><time>2026-04-12T11:27:00.69Z</time></trkpt><trkpt lat="43.5454305" lon="12.2978427"><ele>611.6666666666667</ele><time>2026-04-12T11:27:04.736Z</time></trkpt><trkpt lat="43.5453456" lon="12.2978779"><ele>607.3333333333334</ele><time>2026-04-12T11:27:05.697Z</time></trkpt><trkpt lat="43.5452636" lon="12.2979222"><ele>603.0</ele><time>2026-04-12T11:27:06.696Z</time></trkpt><trkpt lat="43.5451775" lon="12.2979584"><ele>598.6666666666666</ele><time>2026-04-12T11:27:07.787Z</time></trkpt><trkpt lat="43.5450938" lon="12.2979718"><ele>594.3333333333333</ele><time>2026-04-12T11:27:08.709Z</time></trkpt><trkpt lat="43.5450154" lon="12.2979483"><ele>590.0</ele><time>2026-04-12T11:27:09.721Z</time></trkpt><trkpt lat="43.5449519" lon="12.2978942"><ele>590.0</ele><time>2026-04-12T11:27:10.697Z</time></trkpt><trkpt lat="43.5448953" lon="12.2978252"><ele>590.0</ele><time>2026-04-12T11:27:11.699Z</time></trkpt><trkpt lat="43.5448466" lon="12.297737"><ele>590.0</ele><time>2026-04-12T11:27:12.715Z</time></trkpt><trkpt lat="43.5448088" lon="12.2976351"><ele>590.0</ele><time>2026-04-12T11:27:13.695Z</time></trkpt><trkpt lat="43.5447824" lon="12.2975209"><ele>590.0</ele><time>2026-04-12T11:27:14.72Z</time></trkpt><trkpt lat="43.5447564" lon="12.2973989"><ele>590.0</ele><time>2026-04-12T11:27:15.72Z</time></trkpt><trkpt lat="43.5447191" lon="12.2972754"><ele>591.8333333333333</ele><time>2026-04-12T11:27:16.797Z</time></trkpt><trkpt lat="43.5446771" lon="12.2971743"><ele>593.6666666666666</ele><time>2026-04-12T11:27:17.704Z</time></trkpt><trkpt lat="43.5446267" lon="12.2970916"><ele>595.5</ele><time>2026-04-12T11:27:18.728Z</time></trkpt><trkpt lat="43.5445619" lon="12.2970265"><ele>597.3333333333334</ele><time>2026-04-12T11:27:19.699Z</time></trkpt><trkpt lat="43.5444849" lon="12.2969695"><ele>599.1666666666667</ele><time>2026-04-12T11:27:20.695Z</time></trkpt><trkpt lat="43.5444064" lon="12.2968979"><ele>601.0</ele><time>2026-04-12T11:27:21.723Z</time></trkpt><trkpt lat="43.5442715" lon="12.296781"><ele>598.5</ele><time>2026-04-12T11:27:23.721Z</time></trkpt><trkpt lat="43.544228" lon="12.2967049"><ele>596.0</ele><time>2026-04-12T11:27:24.695Z</time></trkpt><trkpt lat="43.5441949" lon="12.2966156"><ele>593.5</ele><time>2026-04-12T11:27:25.702Z</time></trkpt><trkpt lat="43.5441787" lon="12.2965014"><ele>591.0</ele><time>2026-04-12T11:27:26.695Z</time></trkpt><trkpt lat="43.5441651" lon="12.2963711"><ele>588.5</ele><time>2026-04-12T11:27:27.697Z</time></trkpt><trkpt lat="43.5441532" lon="12.2962328"><ele>586.0</ele><time>2026-04-12T11:27:28.714Z</time></trkpt><trkpt lat="43.5441308" lon="12.2960835"><ele>586.0</ele><time>2026-04-12T11:27:29.686Z</time></trkpt><trkpt lat="43.5441059" lon="12.2959431"><ele>586.0</ele><time>2026-04-12T11:27:30.696Z</time></trkpt><trkpt lat="43.5440738" lon="12.2958043"><ele>586.0</ele><time>2026-04-12T11:27:31.698Z</time></trkpt><trkpt lat="43.5440213" lon="12.2956773"><ele>586.0</ele><time>2026-04-12T11:27:32.761Z</time></trkpt><trkpt lat="43.5439496" lon="12.295575"><ele>586.0</ele><time>2026-04-12T11:27:33.706Z</time></trkpt><trkpt lat="43.5438859" lon="12.2954898"><ele>586.6666666666667</ele><time>2026-04-12T11:27:34.686Z</time></trkpt><trkpt lat="43.5438135" lon="12.2954285"><ele>587.3333333333334</ele><time>2026-04-12T11:27:35.72Z</time></trkpt><trkpt lat="43.5437449" lon="12.2953509"><ele>588.0</ele><time>2026-04-12T11:27:36.692Z</time></trkpt><trkpt lat="43.5436795" lon="12.2952735"><ele>588.6666666666666</ele><time>2026-04-12T11:27:37.734Z</time></trkpt><trkpt lat="43.5436282" lon="12.2951848"><ele>589.3333333333333</ele><time>2026-04-12T11:27:38.706Z</time></trkpt><trkpt lat="43.5435862" lon="12.2950944"><ele>590.0</ele><time>2026-04-12T11:27:39.686Z</time></trkpt><trkpt lat="43.5435564" lon="12.2950003"><ele>585.6</ele><time>2026-04-12T11:27:40.709Z</time></trkpt><trkpt lat="43.5435328" lon="12.2949028"><ele>581.2</ele><time>2026-04-12T11:27:41.701Z</time></trkpt><trkpt lat="43.5435209" lon="12.2948123"><ele>576.8</ele><time>2026-04-12T11:27:42.72Z</time></trkpt><trkpt lat="43.5435226" lon="12.2946155"><ele>572.4</ele><time>2026-04-12T11:27:44.708Z</time></trkpt><trkpt lat="43.5435338" lon="12.2945054"><ele>568.0</ele><time>2026-04-12T11:27:45.693Z</time></trkpt><trkpt lat="43.5435464" lon="12.2943742"><ele>566.8</ele><time>2026-04-12T11:27:46.688Z</time></trkpt><trkpt lat="43.5435657" lon="12.2942338"><ele>565.5999999999999</ele><time>2026-04-12T11:27:47.717Z</time></trkpt><trkpt lat="43.5435763" lon="12.2940975"><ele>564.4000000000001</ele><time>2026-04-12T11:27:48.684Z</time></trkpt><trkpt lat="43.5435731" lon="12.2939638"><ele>563.2</ele><time>2026-04-12T11:27:49.705Z</time></trkpt><trkpt lat="43.5435638" lon="12.2938453"><ele>562.0</ele><time>2026-04-12T11:27:50.698Z</time></trkpt><trkpt lat="43.5435515" lon="12.2937403"><ele>564.6</ele><time>2026-04-12T11:27:51.705Z</time></trkpt><trkpt lat="43.5435271" lon="12.2936564"><ele>567.2</ele><time>2026-04-12T11:27:52.706Z</time></trkpt><trkpt lat="43.5434635" lon="12.2936243"><ele>569.8</ele><time>2026-04-12T11:27:53.695Z</time></trkpt><trkpt lat="43.5433545" lon="12.2936046"><ele>572.4</ele><time>2026-04-12T11:27:54.703Z</time></trkpt><trkpt lat="43.5432186" lon="12.2936317"><ele>575.0</ele><time>2026-04-12T11:27:55.697Z</time></trkpt><trkpt lat="43.5430821" lon="12.2936184"><ele>575.0</ele><time>2026-04-12T11:27:56.687Z</time></trkpt><trkpt lat="43.5429552" lon="12.2935915"><ele>575.0</ele><time>2026-04-12T11:27:57.689Z</time></trkpt><trkpt lat="43.5428527" lon="12.2935402"><ele>575.0</ele><time>2026-04-12T11:27:58.711Z</time></trkpt><trkpt lat="43.5427628" lon="12.2934769"><ele>575.0</ele><time>2026-04-12T11:27:59.699Z</time></trkpt><trkpt lat="43.5426708" lon="12.2933948"><ele>575.0</ele><time>2026-04-12T11:28:00.682Z</time></trkpt><trkpt lat="43.5425845" lon="12.2933081"><ele>574.0</ele><time>2026-04-12T11:28:01.684Z</time></trkpt><trkpt lat="43.5425104" lon="12.293219"><ele>573.0</ele><time>2026-04-12T11:28:02.707Z</time></trkpt><trkpt lat="43.5424448" lon="12.2931294"><ele>572.0</ele><time>2026-04-12T11:28:03.699Z</time></trkpt><trkpt lat="43.5423325" lon="12.2929457"><ele>571.0</ele><time>2026-04-12T11:28:05.685Z</time></trkpt><trkpt lat="43.5423001" lon="12.2928496"><ele>570.0</ele><time>2026-04-12T11:28:06.691Z</time></trkpt><trkpt lat="43.5422729" lon="12.2927419"><ele>570.0</ele><time>2026-04-12T11:28:07.695Z</time></trkpt><trkpt lat="43.5422466" lon="12.2926337"><ele>570.0</ele><time>2026-04-12T11:28:08.683Z</time></trkpt><trkpt lat="43.5422044" lon="12.2925382"><ele>570.0</ele><time>2026-04-12T11:28:09.675Z</time></trkpt><trkpt lat="43.54215" lon="12.2924469"><ele>570.0</ele><time>2026-04-12T11:28:10.701Z</time></trkpt><trkpt lat="43.5420812" lon="12.2923776"><ele>570.0</ele><time>2026-04-12T11:28:11.696Z</time></trkpt><trkpt lat="43.5420091" lon="12.2923159"><ele>570.0</ele><time>2026-04-12T11:28:12.697Z</time></trkpt><trkpt lat="43.5419339" lon="12.2922608"><ele>567.6666666666666</ele><time>2026-04-12T11:28:13.694Z</time></trkpt><trkpt lat="43.541859" lon="12.2922165"><ele>565.3333333333334</ele><time>2026-04-12T11:28:14.704Z</time></trkpt><trkpt lat="43.541763" lon="12.2921924"><ele>563.0</ele><time>2026-04-12T11:28:15.721Z</time></trkpt><trkpt lat="43.5416751" lon="12.2921586"><ele>560.6666666666667</ele><time>2026-04-12T11:28:16.688Z</time></trkpt><trkpt lat="43.5415968" lon="12.2921172"><ele>558.3333333333334</ele><time>2026-04-12T11:28:17.703Z</time></trkpt><trkpt lat="43.5415467" lon="12.2920513"><ele>556.0</ele><time>2026-04-12T11:28:18.699Z</time></trkpt><trkpt lat="43.5414939" lon="12.2918509"><ele>556.0</ele><time>2026-04-12T11:28:20.707Z</time></trkpt><trkpt lat="43.541461" lon="12.2916748"><ele>556.0</ele><time>2026-04-12T11:28:21.676Z</time></trkpt><trkpt lat="43.5414393" lon="12.2915081"><ele>556.0</ele><time>2026-04-12T11:28:22.692Z</time></trkpt><trkpt lat="43.5414046" lon="12.291363"><ele>556.0</ele><time>2026-04-12T11:28:23.689Z</time></trkpt><trkpt lat="43.5413722" lon="12.2912475"><ele>553.8</ele><time>2026-04-12T11:28:24.712Z</time></trkpt><trkpt lat="43.5412701" lon="12.2910817"><ele>551.6</ele><time>2026-04-12T11:28:26.682Z</time></trkpt><trkpt lat="43.5411813" lon="12.2910254"><ele>549.4</ele><time>2026-04-12T11:28:27.698Z</time></trkpt><trkpt lat="43.5410879" lon="12.2909935"><ele>547.2</ele><time>2026-04-12T11:28:28.687Z</time></trkpt><trkpt lat="43.5409909" lon="12.2909993"><ele>545.0</ele><time>2026-04-12T11:28:29.689Z</time></trkpt><trkpt lat="43.5408951" lon="12.2910185"><ele>545.0</ele><time>2026-04-12T11:28:30.681Z</time></trkpt><trkpt lat="43.5408022" lon="12.2910272"><ele>545.0</ele><time>2026-04-12T11:28:31.707Z</time></trkpt><trkpt lat="43.5407138" lon="12.2910061"><ele>545.0</ele><time>2026-04-12T11:28:32.694Z</time></trkpt><trkpt lat="43.5406145" lon="12.2909547"><ele>545.0</ele><time>2026-04-12T11:28:33.687Z</time></trkpt><trkpt lat="43.5405065" lon="12.2909055"><ele>545.0</ele><time>2026-04-12T11:28:34.696Z</time></trkpt><trkpt lat="43.5404032" lon="12.2908774"><ele>542.3333333333333</ele><time>2026-04-12T11:28:35.692Z</time></trkpt><trkpt lat="43.5403077" lon="12.2908792"><ele>539.6666666666666</ele><time>2026-04-12T11:28:36.689Z</time></trkpt><trkpt lat="43.5402323" lon="12.2909085"><ele>537.0</ele><time>2026-04-12T11:28:37.696Z</time></trkpt><trkpt lat="43.5401546" lon="12.290978"><ele>534.3333333333334</ele><time>2026-04-12T11:28:38.708Z</time></trkpt><trkpt lat="43.5400933" lon="12.2910711"><ele>531.6666666666667</ele><time>2026-04-12T11:28:39.681Z</time></trkpt><trkpt lat="43.5400518" lon="12.2911684"><ele>529.0</ele><time>2026-04-12T11:28:40.702Z</time></trkpt><trkpt lat="43.5400165" lon="12.2912494"><ele>529.0</ele><time>2026-04-12T11:28:41.684Z</time></trkpt><trkpt lat="43.5399725" lon="12.2913232"><ele>529.0</ele><time>2026-04-12T11:28:42.695Z</time></trkpt><trkpt lat="43.5399165" lon="12.2913701"><ele>529.0</ele><time>2026-04-12T11:28:43.693Z</time></trkpt><trkpt lat="43.5398499" lon="12.2913847"><ele>529.0</ele><time>2026-04-12T11:28:44.723Z</time></trkpt><trkpt lat="43.5397807" lon="12.2913581"><ele>529.0</ele><time>2026-04-12T11:28:45.743Z</time></trkpt><trkpt lat="43.5396667" lon="12.2912494"><ele>529.0</ele><time>2026-04-12T11:28:47.713Z</time></trkpt><trkpt lat="43.5396193" lon="12.2911668"><ele>529.0</ele><time>2026-04-12T11:28:48.708Z</time></trkpt><trkpt lat="43.5395748" lon="12.2910806"><ele>529.0</ele><time>2026-04-12T11:28:49.699Z</time></trkpt><trkpt lat="43.5395428" lon="12.2909814"><ele>529.0</ele><time>2026-04-12T11:28:50.702Z</time></trkpt><trkpt lat="43.5395421" lon="12.2908702"><ele>529.0</ele><time>2026-04-12T11:28:51.701Z</time></trkpt><trkpt lat="43.5395643" lon="12.2907517"><ele>529.0</ele><time>2026-04-12T11:28:52.695Z</time></trkpt><trkpt lat="43.5395865" lon="12.2906344"><ele>529.0</ele><time>2026-04-12T11:28:53.712Z</time></trkpt><trkpt lat="43.5395877" lon="12.2905145"><ele>531.4</ele><time>2026-04-12T11:28:54.701Z</time></trkpt><trkpt lat="43.5395667" lon="12.2904058"><ele>533.8</ele><time>2026-04-12T11:28:55.714Z</time></trkpt><trkpt lat="43.5395304" lon="12.2902974"><ele>536.2</ele><time>2026-04-12T11:28:56.718Z</time></trkpt><trkpt lat="43.5394884" lon="12.290184"><ele>538.6</ele><time>2026-04-12T11:28:57.692Z</time></trkpt><trkpt lat="43.5394363" lon="12.2900758"><ele>541.0</ele><time>2026-04-12T11:28:58.717Z</time></trkpt><trkpt lat="43.5393714" lon="12.2899764"><ele>537.2</ele><time>2026-04-12T11:28:59.704Z</time></trkpt><trkpt lat="43.5392921" lon="12.2898898"><ele>533.4000000000001</ele><time>2026-04-12T11:29:00.727Z</time></trkpt><trkpt lat="43.5392166" lon="12.2898092"><ele>529.6</ele><time>2026-04-12T11:29:01.698Z</time></trkpt><trkpt lat="43.5391545" lon="12.2897279"><ele>525.8000000000001</ele><time>2026-04-12T11:29:02.703Z</time></trkpt><trkpt lat="43.5391106" lon="12.2896326"><ele>522.0</ele><time>2026-04-12T11:29:03.7Z</time></trkpt><trkpt lat="43.5390665" lon="12.2895258"><ele>522.0</ele><time>2026-04-12T11:29:04.704Z</time></trkpt><trkpt lat="43.5390282" lon="12.2894191"><ele>522.0</ele><time>2026-04-12T11:29:05.706Z</time></trkpt><trkpt lat="43.5389953" lon="12.2893103"><ele>522.0</ele><time>2026-04-12T11:29:06.705Z</time></trkpt><trkpt lat="43.5389417" lon="12.2890659"><ele>522.0</ele><time>2026-04-12T11:29:08.693Z</time></trkpt><trkpt lat="43.5389159" lon="12.2889543"><ele>522.0</ele><time>2026-04-12T11:29:09.757Z</time></trkpt><trkpt lat="43.5388889" lon="12.2888576"><ele>520.0</ele><time>2026-04-12T11:29:10.724Z</time></trkpt><trkpt lat="43.5388596" lon="12.2887727"><ele>518.0</ele><time>2026-04-12T11:29:11.715Z</time></trkpt><trkpt lat="43.5387931" lon="12.2886569"><ele>516.0</ele><time>2026-04-12T11:29:13.705Z</time></trkpt><trkpt lat="43.5386942" lon="12.2885712"><ele>514.0</ele><time>2026-04-12T11:29:15.702Z</time></trkpt><trkpt lat="43.5385815" lon="12.28852"><ele>512.0</ele><time>2026-04-12T11:29:17.789Z</time></trkpt><trkpt lat="43.5385097" lon="12.288504"><ele>511.99999999999994</ele><time>2026-04-12T11:29:18.713Z</time></trkpt><trkpt lat="43.5384424" lon="12.2884896"><ele>512.0</ele><time>2026-04-12T11:29:19.703Z</time></trkpt><trkpt lat="43.5383818" lon="12.2884496"><ele>512.0</ele><time>2026-04-12T11:29:20.69Z</time></trkpt><trkpt lat="43.5383319" lon="12.2883797"><ele>512.0</ele><time>2026-04-12T11:29:21.703Z</time></trkpt><trkpt lat="43.5382835" lon="12.2882921"><ele>511.99999999999994</ele><time>2026-04-12T11:29:22.707Z</time></trkpt><trkpt lat="43.5382313" lon="12.2882052"><ele>512.0</ele><time>2026-04-12T11:29:23.722Z</time></trkpt><trkpt lat="43.5381692" lon="12.2881301"><ele>509.5</ele><time>2026-04-12T11:29:24.706Z</time></trkpt><trkpt lat="43.5381094" lon="12.2880677"><ele>507.0</ele><time>2026-04-12T11:29:25.716Z</time></trkpt><trkpt lat="43.5380547" lon="12.288009"><ele>504.5</ele><time>2026-04-12T11:29:26.693Z</time></trkpt><trkpt lat="43.5379734" lon="12.2879005"><ele>502.0</ele><time>2026-04-12T11:29:28.726Z</time></trkpt><trkpt lat="43.5378125" lon="12.2876551"><ele>502.00000000000006</ele><time>2026-04-12T11:29:32.767Z</time></trkpt><trkpt lat="43.5377716" lon="12.2875871"><ele>502.0</ele><time>2026-04-12T11:29:33.696Z</time></trkpt><trkpt lat="43.5377469" lon="12.2875034"><ele>502.0</ele><time>2026-04-12T11:29:34.716Z</time></trkpt><trkpt lat="43.5377081" lon="12.2874168"><ele>502.0</ele><time>2026-04-12T11:29:35.7Z</time></trkpt><trkpt lat="43.5376565" lon="12.2873286"><ele>502.00000000000006</ele><time>2026-04-12T11:29:36.706Z</time></trkpt><trkpt lat="43.5375968" lon="12.2872338"><ele>502.0</ele><time>2026-04-12T11:29:37.702Z</time></trkpt><trkpt lat="43.5375306" lon="12.2871314"><ele>503.0</ele><time>2026-04-12T11:29:38.73Z</time></trkpt><trkpt lat="43.5374627" lon="12.2870225"><ele>504.00000000000006</ele><time>2026-04-12T11:29:39.691Z</time></trkpt><trkpt lat="43.537396" lon="12.2869099"><ele>505.00000000000006</ele><time>2026-04-12T11:29:40.69Z</time></trkpt><trkpt lat="43.5373317" lon="12.2868071"><ele>506.0</ele><time>2026-04-12T11:29:41.718Z</time></trkpt><trkpt lat="43.5372677" lon="12.2867164"><ele>507.0</ele><time>2026-04-12T11:29:42.718Z</time></trkpt><trkpt lat="43.5371995" lon="12.2866279"><ele>507.0</ele><time>2026-04-12T11:29:43.711Z</time></trkpt><trkpt lat="43.5371301" lon="12.2865455"><ele>507.0</ele><time>2026-04-12T11:29:44.734Z</time></trkpt><trkpt lat="43.5370569" lon="12.2864747"><ele>507.0</ele><time>2026-04-12T11:29:45.673Z</time></trkpt><trkpt lat="43.5369845" lon="12.2864145"><ele>507.0</ele><time>2026-04-12T11:29:46.702Z</time></trkpt><trkpt lat="43.5369162" lon="12.2863504"><ele>507.0</ele><time>2026-04-12T11:29:47.704Z</time></trkpt><trkpt lat="43.5368575" lon="12.2862656"><ele>507.0</ele><time>2026-04-12T11:29:48.728Z</time></trkpt><trkpt lat="43.5368127" lon="12.2861609"><ele>504.0</ele><time>2026-04-12T11:29:49.715Z</time></trkpt><trkpt lat="43.536758" lon="12.2859"><ele>501.0</ele><time>2026-04-12T11:29:51.709Z</time></trkpt><trkpt lat="43.5367319" lon="12.2857847"><ele>498.0</ele><time>2026-04-12T11:29:52.734Z</time></trkpt><trkpt lat="43.5366972" lon="12.2856742"><ele>495.0</ele><time>2026-04-12T11:29:53.687Z</time></trkpt><trkpt lat="43.5366597" lon="12.2855608"><ele>494.6</ele><time>2026-04-12T11:29:54.729Z</time></trkpt><trkpt lat="43.5366236" lon="12.2854559"><ele>494.2</ele><time>2026-04-12T11:29:55.719Z</time></trkpt><trkpt lat="43.536572" lon="12.2853486"><ele>493.79999999999995</ele><time>2026-04-12T11:29:56.717Z</time></trkpt><trkpt lat="43.5365254" lon="12.2852347"><ele>493.4</ele><time>2026-04-12T11:29:57.688Z</time></trkpt><trkpt lat="43.536476" lon="12.2851142"><ele>493.0</ele><time>2026-04-12T11:29:58.709Z</time></trkpt><trkpt lat="43.536415" lon="12.2849896"><ele>493.0</ele><time>2026-04-12T11:29:59.723Z</time></trkpt><trkpt lat="43.5363491" lon="12.2848947"><ele>492.99999999999994</ele><time>2026-04-12T11:30:00.7Z</time></trkpt><trkpt lat="43.5362734" lon="12.2848062"><ele>492.99999999999994</ele><time>2026-04-12T11:30:01.72Z</time></trkpt><trkpt lat="43.5362059" lon="12.2847195"><ele>493.0</ele><time>2026-04-12T11:30:02.727Z</time></trkpt><trkpt lat="43.5361398" lon="12.2846227"><ele>493.0</ele><time>2026-04-12T11:30:03.699Z</time></trkpt><trkpt lat="43.5360825" lon="12.2845311"><ele>492.00000000000006</ele><time>2026-04-12T11:30:04.692Z</time></trkpt><trkpt lat="43.5360281" lon="12.2844394"><ele>491.0</ele><time>2026-04-12T11:30:05.701Z</time></trkpt><trkpt lat="43.5359832" lon="12.2843502"><ele>490.0</ele><time>2026-04-12T11:30:06.795Z</time></trkpt><trkpt lat="43.5359389" lon="12.2842522"><ele>489.0</ele><time>2026-04-12T11:30:07.768Z</time></trkpt><trkpt lat="43.5359018" lon="12.2841456"><ele>488.00000000000006</ele><time>2026-04-12T11:30:08.692Z</time></trkpt><trkpt lat="43.5358664" lon="12.2840508"><ele>487.0</ele><time>2026-04-12T11:30:09.698Z</time></trkpt><trkpt lat="43.5358207" lon="12.283956"><ele>486.8</ele><time>2026-04-12T11:30:10.696Z</time></trkpt><trkpt lat="43.5357269" lon="12.2837858"><ele>486.6</ele><time>2026-04-12T11:30:12.703Z</time></trkpt><trkpt lat="43.5356841" lon="12.2836964"><ele>486.40000000000003</ele><time>2026-04-12T11:30:13.715Z</time></trkpt><trkpt lat="43.5356475" lon="12.2835982"><ele>486.20000000000005</ele><time>2026-04-12T11:30:14.686Z</time></trkpt><trkpt lat="43.5356141" lon="12.2834971"><ele>486.0</ele><time>2026-04-12T11:30:15.707Z</time></trkpt><trkpt lat="43.5355918" lon="12.2833881"><ele>486.0</ele><time>2026-04-12T11:30:16.71Z</time></trkpt><trkpt lat="43.5355876" lon="12.2832691"><ele>486.0</ele><time>2026-04-12T11:30:17.705Z</time></trkpt><trkpt lat="43.535577" lon="12.2831554"><ele>486.0</ele><time>2026-04-12T11:30:18.689Z</time></trkpt><trkpt lat="43.5355583" lon="12.2830434"><ele>486.0</ele><time>2026-04-12T11:30:19.704Z</time></trkpt><trkpt lat="43.5355318" lon="12.2829265"><ele>486.0</ele><time>2026-04-12T11:30:20.716Z</time></trkpt><trkpt lat="43.5355017" lon="12.2828044"><ele>486.0</ele><time>2026-04-12T11:30:21.704Z</time></trkpt><trkpt lat="43.5354704" lon="12.2827018"><ele>486.8333333333333</ele><time>2026-04-12T11:30:22.7Z</time></trkpt><trkpt lat="43.5354318" lon="12.2825964"><ele>487.66666666666663</ele><time>2026-04-12T11:30:23.702Z</time></trkpt><trkpt lat="43.5353883" lon="12.282506"><ele>488.5</ele><time>2026-04-12T11:30:24.697Z</time></trkpt><trkpt lat="43.5353262" lon="12.2824377"><ele>489.3333333333333</ele><time>2026-04-12T11:30:25.78Z</time></trkpt><trkpt lat="43.5352411" lon="12.2823724"><ele>490.16666666666663</ele><time>2026-04-12T11:30:26.704Z</time></trkpt><trkpt lat="43.5351559" lon="12.2823114"><ele>491.0</ele><time>2026-04-12T11:30:27.71Z</time></trkpt><trkpt lat="43.5350788" lon="12.2822465"><ele>488.8</ele><time>2026-04-12T11:30:28.707Z</time></trkpt><trkpt lat="43.5350081" lon="12.2821716"><ele>486.6</ele><time>2026-04-12T11:30:29.7Z</time></trkpt><trkpt lat="43.5349429" lon="12.2820961"><ele>484.4</ele><time>2026-04-12T11:30:30.693Z</time></trkpt><trkpt lat="43.5348976" lon="12.2820181"><ele>482.2</ele><time>2026-04-12T11:30:31.7Z</time></trkpt><trkpt lat="43.5348403" lon="12.2818303"><ele>480.0</ele><time>2026-04-12T11:30:33.685Z</time></trkpt><trkpt lat="43.5348202" lon="12.2817326"><ele>480.0</ele><time>2026-04-12T11:30:34.693Z</time></trkpt><trkpt lat="43.5347997" lon="12.2816415"><ele>480.0</ele><time>2026-04-12T11:30:35.691Z</time></trkpt><trkpt lat="43.5347831" lon="12.2815501"><ele>480.0</ele><time>2026-04-12T11:30:36.689Z</time></trkpt><trkpt lat="43.5347697" lon="12.2814485"><ele>480.0</ele><time>2026-04-12T11:30:37.699Z</time></trkpt><trkpt lat="43.5347637" lon="12.2813435"><ele>480.0</ele><time>2026-04-12T11:30:38.689Z</time></trkpt><trkpt lat="43.5347636" lon="12.2812294"><ele>480.0</ele><time>2026-04-12T11:30:39.694Z</time></trkpt><trkpt lat="43.5347647" lon="12.2811186"><ele>480.8333333333333</ele><time>2026-04-12T11:30:40.687Z</time></trkpt><trkpt lat="43.5347532" lon="12.2810213"><ele>481.66666666666663</ele><time>2026-04-12T11:30:41.695Z</time></trkpt><trkpt lat="43.534723" lon="12.2809396"><ele>482.5</ele><time>2026-04-12T11:30:42.684Z</time></trkpt><trkpt lat="43.5346725" lon="12.2808645"><ele>483.3333333333333</ele><time>2026-04-12T11:30:43.702Z</time></trkpt><trkpt lat="43.5346149" lon="12.2807941"><ele>484.16666666666663</ele><time>2026-04-12T11:30:44.692Z</time></trkpt><trkpt lat="43.5345411" lon="12.2807438"><ele>485.0</ele><time>2026-04-12T11:30:45.705Z</time></trkpt><trkpt lat="43.534457" lon="12.2807027"><ele>482.0</ele><time>2026-04-12T11:30:46.692Z</time></trkpt><trkpt lat="43.534375" lon="12.2806646"><ele>479.0</ele><time>2026-04-12T11:30:47.768Z</time></trkpt><trkpt lat="43.5343063" lon="12.2806042"><ele>476.0</ele><time>2026-04-12T11:30:48.699Z</time></trkpt><trkpt lat="43.5342461" lon="12.2805142"><ele>473.0</ele><time>2026-04-12T11:30:49.69Z</time></trkpt><trkpt lat="43.5341923" lon="12.280405"><ele>470.0</ele><time>2026-04-12T11:30:50.708Z</time></trkpt><trkpt lat="43.5341322" lon="12.2802958"><ele>470.0</ele><time>2026-04-12T11:30:51.693Z</time></trkpt><trkpt lat="43.534066" lon="12.2801743"><ele>470.0</ele><time>2026-04-12T11:30:52.708Z</time></trkpt><trkpt lat="43.5339255" lon="12.2799308"><ele>470.0</ele><time>2026-04-12T11:30:54.707Z</time></trkpt><trkpt lat="43.5338569" lon="12.2798449"><ele>470.0</ele><time>2026-04-12T11:30:55.69Z</time></trkpt><trkpt lat="43.5337895" lon="12.2797798"><ele>469.99999999999994</ele><time>2026-04-12T11:30:56.71Z</time></trkpt><trkpt lat="43.5337291" lon="12.2797238"><ele>470.0</ele><time>2026-04-12T11:30:57.7Z</time></trkpt><trkpt lat="43.533661" lon="12.2797029"><ele>470.0</ele><time>2026-04-12T11:30:58.697Z</time></trkpt><trkpt lat="43.5335914" lon="12.279686"><ele>470.0</ele><time>2026-04-12T11:30:59.696Z</time></trkpt><trkpt lat="43.5335265" lon="12.2796722"><ele>469.99999999999994</ele><time>2026-04-12T11:31:00.715Z</time></trkpt><trkpt lat="43.5334182" lon="12.2796469"><ele>470.0</ele><time>2026-04-12T11:31:02.702Z</time></trkpt><trkpt lat="43.5333621" lon="12.2795868"><ele>469.99999999999994</ele><time>2026-04-12T11:31:04.699Z</time></trkpt><trkpt lat="43.5333825" lon="12.2794693"><ele>470.0</ele><time>2026-04-12T11:31:06.686Z</time></trkpt><trkpt lat="43.5334247" lon="12.2793683"><ele>470.0</ele><time>2026-04-12T11:31:08.703Z</time></trkpt><trkpt lat="43.5334548" lon="12.2792899"><ele>470.0</ele><time>2026-04-12T11:31:10.686Z</time></trkpt><trkpt lat="43.5334934" lon="12.2791737"><ele>469.99999999999994</ele><time>2026-04-12T11:31:12.696Z</time></trkpt><trkpt lat="43.5335372" lon="12.279028"><ele>470.0</ele><time>2026-04-12T11:31:14.707Z</time></trkpt><trkpt lat="43.5335071" lon="12.2788385"><ele>471.49999999999994</ele><time>2026-04-12T11:31:16.742Z</time></trkpt><trkpt lat="43.5334231" lon="12.2787531"><ele>473.0</ele><time>2026-04-12T11:31:18.718Z</time></trkpt><trkpt lat="43.5333446" lon="12.2787186"><ele>474.5</ele><time>2026-04-12T11:31:20.693Z</time></trkpt><trkpt lat="43.5332674" lon="12.2786632"><ele>476.0</ele><time>2026-04-12T11:31:22.69Z</time></trkpt><trkpt lat="43.5332808" lon="12.2787517"><ele>477.49999999999994</ele><time>2026-04-12T11:31:26.688Z</time></trkpt><trkpt lat="43.5333464" lon="12.2787644"><ele>479.0</ele><time>2026-04-12T11:31:27.692Z</time></trkpt><trkpt lat="43.5334173" lon="12.2788017"><ele>478.99999999999994</ele><time>2026-04-12T11:31:28.718Z</time></trkpt><trkpt lat="43.5334797" lon="12.2788726"><ele>479.0</ele><time>2026-04-12T11:31:29.685Z</time></trkpt><trkpt lat="43.5335135" lon="12.2789621"><ele>479.0</ele><time>2026-04-12T11:31:30.686Z</time></trkpt><trkpt lat="43.5335171" lon="12.2790787"><ele>479.0</ele><time>2026-04-12T11:31:31.694Z</time></trkpt><trkpt lat="43.5335059" lon="12.2791871"><ele>478.99999999999994</ele><time>2026-04-12T11:31:32.726Z</time></trkpt><trkpt lat="43.5334687" lon="12.2792887"><ele>479.0</ele><time>2026-04-12T11:31:33.69Z</time></trkpt><trkpt lat="43.5334215" lon="12.2793582"><ele>477.2</ele><time>2026-04-12T11:31:34.706Z</time></trkpt><trkpt lat="43.5333569" lon="12.2793961"><ele>475.4</ele><time>2026-04-12T11:31:35.701Z</time></trkpt><trkpt lat="43.5332122" lon="12.2793555"><ele>473.6</ele><time>2026-04-12T11:31:37.689Z</time></trkpt><trkpt lat="43.5331388" lon="12.2793193"><ele>471.8</ele><time>2026-04-12T11:31:38.723Z</time></trkpt><trkpt lat="43.5330524" lon="12.279281"><ele>470.0</ele><time>2026-04-12T11:31:39.707Z</time></trkpt><trkpt lat="43.5329778" lon="12.2792494"><ele>469.99999999999994</ele><time>2026-04-12T11:31:40.718Z</time></trkpt><trkpt lat="43.5329048" lon="12.2792185"><ele>470.0</ele><time>2026-04-12T11:31:41.714Z</time></trkpt><trkpt lat="43.5328386" lon="12.2791935"><ele>470.0</ele><time>2026-04-12T11:31:42.806Z</time></trkpt><trkpt lat="43.532715" lon="12.279168"><ele>470.0</ele><time>2026-04-12T11:31:44.757Z</time></trkpt><trkpt lat="43.5326424" lon="12.2791918"><ele>469.99999999999994</ele><time>2026-04-12T11:31:45.714Z</time></trkpt><trkpt lat="43.5325572" lon="12.2792499"><ele>470.0</ele><time>2026-04-12T11:31:46.732Z</time></trkpt><trkpt lat="43.5324724" lon="12.279307"><ele>471.2</ele><time>2026-04-12T11:31:47.722Z</time></trkpt><trkpt lat="43.5323914" lon="12.2793485"><ele>472.4</ele><time>2026-04-12T11:31:48.728Z</time></trkpt><trkpt lat="43.5323061" lon="12.27936"><ele>473.6</ele><time>2026-04-12T11:31:49.713Z</time></trkpt><trkpt lat="43.5322147" lon="12.2793478"><ele>474.8</ele><time>2026-04-12T11:31:50.721Z</time></trkpt><trkpt lat="43.5321175" lon="12.2792947"><ele>476.0</ele><time>2026-04-12T11:31:51.725Z</time></trkpt><trkpt lat="43.5320356" lon="12.2792058"><ele>476.0</ele><time>2026-04-12T11:31:52.722Z</time></trkpt><trkpt lat="43.5319734" lon="12.2790969"><ele>476.0</ele><time>2026-04-12T11:31:53.721Z</time></trkpt><trkpt lat="43.5318983" lon="12.2789919"><ele>476.0</ele><time>2026-04-12T11:31:54.743Z</time></trkpt><trkpt lat="43.5318097" lon="12.2788868"><ele>476.0</ele><time>2026-04-12T11:31:55.71Z</time></trkpt><trkpt lat="43.5317187" lon="12.2787738"><ele>476.0</ele><time>2026-04-12T11:31:56.735Z</time></trkpt><trkpt lat="43.5315524" lon="12.278504"><ele>473.8</ele><time>2026-04-12T11:31:58.735Z</time></trkpt><trkpt lat="43.5314741" lon="12.2783692"><ele>471.6</ele><time>2026-04-12T11:31:59.717Z</time></trkpt><trkpt lat="43.5314049" lon="12.27826"><ele>469.4</ele><time>2026-04-12T11:32:00.707Z</time></trkpt><trkpt lat="43.5313396" lon="12.2781828"><ele>467.2</ele><time>2026-04-12T11:32:01.725Z</time></trkpt><trkpt lat="43.5312673" lon="12.2781284"><ele>465.0</ele><time>2026-04-12T11:32:02.734Z</time></trkpt><trkpt lat="43.5311974" lon="12.2781146"><ele>470.8333333333333</ele><time>2026-04-12T11:32:03.719Z</time></trkpt><trkpt lat="43.5311355" lon="12.2781334"><ele>476.66666666666663</ele><time>2026-04-12T11:32:04.726Z</time></trkpt><trkpt lat="43.5310721" lon="12.278169"><ele>482.5</ele><time>2026-04-12T11:32:05.708Z</time></trkpt><trkpt lat="43.5309972" lon="12.278215"><ele>488.3333333333333</ele><time>2026-04-12T11:32:06.721Z</time></trkpt><trkpt lat="43.5309146" lon="12.2782617"><ele>494.16666666666663</ele><time>2026-04-12T11:32:07.713Z</time></trkpt><trkpt lat="43.5308227" lon="12.2782982"><ele>500.0</ele><time>2026-04-12T11:32:08.717Z</time></trkpt><trkpt lat="43.5307325" lon="12.2783215"><ele>500.0</ele><time>2026-04-12T11:32:09.711Z</time></trkpt><trkpt lat="43.5306463" lon="12.2783287"><ele>500.0</ele><time>2026-04-12T11:32:10.712Z</time></trkpt><trkpt lat="43.5305349" lon="12.2783691"><ele>500.0</ele><time>2026-04-12T11:32:12.719Z</time></trkpt><trkpt lat="43.5304678" lon="12.278429"><ele>500.0</ele><time>2026-04-12T11:32:13.716Z</time></trkpt><trkpt lat="43.5304109" lon="12.2784915"><ele>500.0</ele><time>2026-04-12T11:32:14.788Z</time></trkpt><trkpt lat="43.5303134" lon="12.2784528"><ele>503.25</ele><time>2026-04-12T11:32:16.719Z</time></trkpt><trkpt lat="43.5303028" lon="12.2783261"><ele>506.5</ele><time>2026-04-12T11:32:18.775Z</time></trkpt><trkpt lat="43.5303069" lon="12.2781143"><ele>509.75</ele><time>2026-04-12T11:32:20.724Z</time></trkpt><trkpt lat="43.5302807" lon="12.2779894"><ele>513.0</ele><time>2026-04-12T11:32:21.722Z</time></trkpt><trkpt lat="43.5301941" lon="12.2778896"><ele>513.0</ele><time>2026-04-12T11:32:23.707Z</time></trkpt><trkpt lat="43.5300784" lon="12.2779322"><ele>513.0</ele><time>2026-04-12T11:32:25.714Z</time></trkpt><trkpt lat="43.5300276" lon="12.2780163"><ele>513.0</ele><time>2026-04-12T11:32:26.727Z</time></trkpt><trkpt lat="43.5299759" lon="12.278109"><ele>513.0</ele><time>2026-04-12T11:32:27.72Z</time></trkpt><trkpt lat="43.5299136" lon="12.278214"><ele>513.0</ele><time>2026-04-12T11:32:28.728Z</time></trkpt><trkpt lat="43.529837" lon="12.2783229"><ele>513.0</ele><time>2026-04-12T11:32:29.797Z</time></trkpt><trkpt lat="43.5297364" lon="12.2784314"><ele>513.0</ele><time>2026-04-12T11:32:30.722Z</time></trkpt><trkpt lat="43.5296283" lon="12.2785283"><ele>513.0</ele><time>2026-04-12T11:32:31.719Z</time></trkpt><trkpt lat="43.5295296" lon="12.2785876"><ele>513.0</ele><time>2026-04-12T11:32:32.721Z</time></trkpt><trkpt lat="43.5294416" lon="12.2786154"><ele>515.8</ele><time>2026-04-12T11:32:33.718Z</time></trkpt><trkpt lat="43.5293386" lon="12.2785992"><ele>518.5999999999999</ele><time>2026-04-12T11:32:34.704Z</time></trkpt><trkpt lat="43.5292233" lon="12.2785758"><ele>521.4000000000001</ele><time>2026-04-12T11:32:35.716Z</time></trkpt><trkpt lat="43.5291104" lon="12.2785421"><ele>524.2</ele><time>2026-04-12T11:32:36.719Z</time></trkpt><trkpt lat="43.52901" lon="12.278504"><ele>527.0</ele><time>2026-04-12T11:32:37.721Z</time></trkpt><trkpt lat="43.5289327" lon="12.278489"><ele>527.0</ele><time>2026-04-12T11:32:38.728Z</time></trkpt><trkpt lat="43.5288281" lon="12.2785302"><ele>527.0</ele><time>2026-04-12T11:32:40.718Z</time></trkpt><trkpt lat="43.5287369" lon="12.2788433"><ele>527.0</ele><time>2026-04-12T11:32:43.722Z</time></trkpt><trkpt lat="43.5287119" lon="12.2789969"><ele>524.5</ele><time>2026-04-12T11:32:44.722Z</time></trkpt><trkpt lat="43.5286766" lon="12.279163"><ele>522.0</ele><time>2026-04-12T11:32:45.784Z</time></trkpt><trkpt lat="43.528634" lon="12.2793162"><ele>519.5</ele><time>2026-04-12T11:32:46.712Z</time></trkpt><trkpt lat="43.5285783" lon="12.2794503"><ele>517.0</ele><time>2026-04-12T11:32:47.717Z</time></trkpt><trkpt lat="43.5285089" lon="12.2795685"><ele>517.0</ele><time>2026-04-12T11:32:48.725Z</time></trkpt><trkpt lat="43.528431" lon="12.2796643"><ele>517.0</ele><time>2026-04-12T11:32:49.726Z</time></trkpt><trkpt lat="43.5283504" lon="12.2797151"><ele>517.0</ele><time>2026-04-12T11:32:50.804Z</time></trkpt><trkpt lat="43.5282527" lon="12.2797114"><ele>517.0</ele><time>2026-04-12T11:32:51.725Z</time></trkpt><trkpt lat="43.5281562" lon="12.2796968"><ele>517.0</ele><time>2026-04-12T11:32:52.736Z</time></trkpt><trkpt lat="43.5280367" lon="12.2796949"><ele>517.0</ele><time>2026-04-12T11:32:53.721Z</time></trkpt><trkpt lat="43.5279166" lon="12.2797144"><ele>517.0</ele><time>2026-04-12T11:32:54.69Z</time></trkpt><trkpt lat="43.5277983" lon="12.2797418"><ele>517.0</ele><time>2026-04-12T11:32:55.724Z</time></trkpt><trkpt lat="43.5276854" lon="12.2797828"><ele>517.0</ele><time>2026-04-12T11:32:56.726Z</time></trkpt><trkpt lat="43.5275775" lon="12.2798251"><ele>517.8000000000001</ele><time>2026-04-12T11:32:57.716Z</time></trkpt><trkpt lat="43.5274878" lon="12.2798604"><ele>518.6</ele><time>2026-04-12T11:32:58.717Z</time></trkpt><trkpt lat="43.527421" lon="12.2798972"><ele>519.4000000000001</ele><time>2026-04-12T11:32:59.734Z</time></trkpt><trkpt lat="43.5273588" lon="12.2799274"><ele>520.2</ele><time>2026-04-12T11:33:02.739Z</time></trkpt><trkpt lat="43.5274942" lon="12.2799989"><ele>521.0</ele><time>2026-04-12T11:33:10.723Z</time></trkpt><trkpt lat="43.527593" lon="12.2800054"><ele>521.0</ele><time>2026-04-12T11:33:12.716Z</time></trkpt><trkpt lat="43.5277102" lon="12.2800026"><ele>521.0</ele><time>2026-04-12T11:33:14.718Z</time></trkpt><trkpt lat="43.5278283" lon="12.2800242"><ele>521.0</ele><time>2026-04-12T11:33:16.737Z</time></trkpt><trkpt lat="43.5279364" lon="12.2800862"><ele>521.0</ele><time>2026-04-12T11:33:18.727Z</time></trkpt><trkpt lat="43.5280383" lon="12.2801663"><ele>522.2</ele><time>2026-04-12T11:33:20.72Z</time></trkpt><trkpt lat="43.528083" lon="12.2802278"><ele>523.4000000000001</ele><time>2026-04-12T11:33:21.72Z</time></trkpt><trkpt lat="43.5281269" lon="12.2802995"><ele>524.6</ele><time>2026-04-12T11:33:22.725Z</time></trkpt><trkpt lat="43.5281736" lon="12.2803785"><ele>525.8000000000001</ele><time>2026-04-12T11:33:23.817Z</time></trkpt><trkpt lat="43.528282" lon="12.2805738"><ele>527.0</ele><time>2026-04-12T11:33:25.739Z</time></trkpt><trkpt lat="43.5283556" lon="12.2806827"><ele>528.3333333333333</ele><time>2026-04-12T11:33:26.729Z</time></trkpt><trkpt lat="43.528436" lon="12.2807716"><ele>529.6666666666666</ele><time>2026-04-12T11:33:27.716Z</time></trkpt><trkpt lat="43.5285189" lon="12.2808239"><ele>531.0</ele><time>2026-04-12T11:33:28.74Z</time></trkpt><trkpt lat="43.5286014" lon="12.2808495"><ele>532.3333333333334</ele><time>2026-04-12T11:33:29.729Z</time></trkpt><trkpt lat="43.5286811" lon="12.2808853"><ele>533.6666666666667</ele><time>2026-04-12T11:33:30.725Z</time></trkpt><trkpt lat="43.5287428" lon="12.280936"><ele>535.0</ele><time>2026-04-12T11:33:31.817Z</time></trkpt><trkpt lat="43.5287827" lon="12.2810241"><ele>537.0</ele><time>2026-04-12T11:33:32.76Z</time></trkpt><trkpt lat="43.5288071" lon="12.2811264"><ele>539.0</ele><time>2026-04-12T11:33:33.722Z</time></trkpt><trkpt lat="43.528821" lon="12.2812408"><ele>541.0</ele><time>2026-04-12T11:33:34.721Z</time></trkpt><trkpt lat="43.5288278" lon="12.2813638"><ele>543.0</ele><time>2026-04-12T11:33:35.713Z</time></trkpt><trkpt lat="43.528836" lon="12.2814804"><ele>545.0</ele><time>2026-04-12T11:33:36.716Z</time></trkpt><trkpt lat="43.528842" lon="12.2815875"><ele>547.0</ele><time>2026-04-12T11:33:37.713Z</time></trkpt><trkpt lat="43.5288425" lon="12.2817012"><ele>549.0</ele><time>2026-04-12T11:33:38.728Z</time></trkpt><trkpt lat="43.5288244" lon="12.281835"><ele>551.0</ele><time>2026-04-12T11:33:39.716Z</time></trkpt><trkpt lat="43.5287969" lon="12.2819721"><ele>553.0</ele><time>2026-04-12T11:33:40.737Z</time></trkpt><trkpt lat="43.5287747" lon="12.2820992"><ele>555.0</ele><time>2026-04-12T11:33:41.81Z</time></trkpt><trkpt lat="43.5287639" lon="12.2822117"><ele>557.0</ele><time>2026-04-12T11:33:42.722Z</time></trkpt><trkpt lat="43.5287804" lon="12.2823819"><ele>557.0</ele><time>2026-04-12T11:33:44.727Z</time></trkpt><trkpt lat="43.5288389" lon="12.2826013"><ele>557.0</ele><time>2026-04-12T11:33:46.722Z</time></trkpt><trkpt lat="43.5288404" lon="12.2827039"><ele>557.0</ele><time>2026-04-12T11:33:47.722Z</time></trkpt><trkpt lat="43.5288067" lon="12.2827827"><ele>557.0</ele><time>2026-04-12T11:33:48.747Z</time></trkpt><trkpt lat="43.5286826" lon="12.2828324"><ele>557.0</ele><time>2026-04-12T11:33:50.715Z</time></trkpt><trkpt lat="43.5285848" lon="12.2828098"><ele>557.0</ele><time>2026-04-12T11:33:51.71Z</time></trkpt><trkpt lat="43.5284626" lon="12.2828147"><ele>557.0</ele><time>2026-04-12T11:33:52.739Z</time></trkpt><trkpt lat="43.5283214" lon="12.28283"><ele>557.0</ele><time>2026-04-12T11:33:53.738Z</time></trkpt><trkpt lat="43.5281861" lon="12.2828494"><ele>557.0</ele><time>2026-04-12T11:33:54.71Z</time></trkpt><trkpt lat="43.5280609" lon="12.2828746"><ele>557.0</ele><time>2026-04-12T11:33:55.758Z</time></trkpt><trkpt lat="43.5279513" lon="12.2829033"><ele>557.0</ele><time>2026-04-12T11:33:56.713Z</time></trkpt><trkpt lat="43.5278485" lon="12.2829428"><ele>557.0</ele><time>2026-04-12T11:33:57.708Z</time></trkpt><trkpt lat="43.5277392" lon="12.2829873"><ele>557.0</ele><time>2026-04-12T11:33:58.711Z</time></trkpt><trkpt lat="43.5276401" lon="12.2830131"><ele>557.0</ele><time>2026-04-12T11:33:59.704Z</time></trkpt><trkpt lat="43.5275431" lon="12.2830095"><ele>555.5</ele><time>2026-04-12T11:34:00.7Z</time></trkpt><trkpt lat="43.5274502" lon="12.2829945"><ele>554.0</ele><time>2026-04-12T11:34:01.706Z</time></trkpt><trkpt lat="43.5273627" lon="12.2829793"><ele>552.5</ele><time>2026-04-12T11:34:02.714Z</time></trkpt><trkpt lat="43.5272967" lon="12.2829902"><ele>551.0</ele><time>2026-04-12T11:34:03.735Z</time></trkpt><trkpt lat="43.5272388" lon="12.283046"><ele>549.5</ele><time>2026-04-12T11:34:04.738Z</time></trkpt><trkpt lat="43.5271993" lon="12.2831325"><ele>548.0</ele><time>2026-04-12T11:34:05.707Z</time></trkpt><trkpt lat="43.5270928" lon="12.2833471"><ele>550.8</ele><time>2026-04-12T11:34:07.723Z</time></trkpt><trkpt lat="43.5270077" lon="12.2834356"><ele>553.5999999999999</ele><time>2026-04-12T11:34:08.704Z</time></trkpt><trkpt lat="43.526914" lon="12.2835022"><ele>556.4000000000001</ele><time>2026-04-12T11:34:09.702Z</time></trkpt><trkpt lat="43.526812" lon="12.2835162"><ele>559.2</ele><time>2026-04-12T11:34:10.697Z</time></trkpt><trkpt lat="43.5267093" lon="12.2835161"><ele>562.0</ele><time>2026-04-12T11:34:11.727Z</time></trkpt><trkpt lat="43.5266274" lon="12.2835121"><ele>562.0</ele><time>2026-04-12T11:34:12.698Z</time></trkpt><trkpt lat="43.5265548" lon="12.2835785"><ele>562.0</ele><time>2026-04-12T11:34:13.764Z</time></trkpt><trkpt lat="43.5264802" lon="12.2836556"><ele>562.0</ele><time>2026-04-12T11:34:14.705Z</time></trkpt><trkpt lat="43.526402" lon="12.2837242"><ele>562.0</ele><time>2026-04-12T11:34:15.796Z</time></trkpt><trkpt lat="43.5263242" lon="12.2837393"><ele>562.0</ele><time>2026-04-12T11:34:16.704Z</time></trkpt><trkpt lat="43.5262428" lon="12.283739"><ele>562.0</ele><time>2026-04-12T11:34:17.693Z</time></trkpt><trkpt lat="43.5261506" lon="12.2837265"><ele>561.8000000000001</ele><time>2026-04-12T11:34:18.697Z</time></trkpt><trkpt lat="43.526057" lon="12.2837107"><ele>561.6</ele><time>2026-04-12T11:34:19.694Z</time></trkpt><trkpt lat="43.5259484" lon="12.2836977"><ele>561.4000000000001</ele><time>2026-04-12T11:34:20.735Z</time></trkpt><trkpt lat="43.5258436" lon="12.2837039"><ele>561.2</ele><time>2026-04-12T11:34:21.708Z</time></trkpt><trkpt lat="43.5257315" lon="12.2837293"><ele>561.0</ele><time>2026-04-12T11:34:22.725Z</time></trkpt><trkpt lat="43.5256283" lon="12.2837625"><ele>561.0</ele><time>2026-04-12T11:34:23.705Z</time></trkpt><trkpt lat="43.5255206" lon="12.2837741"><ele>561.0</ele><time>2026-04-12T11:34:24.791Z</time></trkpt><trkpt lat="43.5254212" lon="12.2837957"><ele>561.0</ele><time>2026-04-12T11:34:25.721Z</time></trkpt><trkpt lat="43.5253301" lon="12.283836"><ele>561.0</ele><time>2026-04-12T11:34:26.692Z</time></trkpt><trkpt lat="43.5251683" lon="12.2839177"><ele>564.2</ele><time>2026-04-12T11:34:28.7Z</time></trkpt><trkpt lat="43.5250921" lon="12.283943"><ele>567.4000000000001</ele><time>2026-04-12T11:34:29.708Z</time></trkpt><trkpt lat="43.5250242" lon="12.2839622"><ele>570.6</ele><time>2026-04-12T11:34:30.744Z</time></trkpt><trkpt lat="43.5249407" lon="12.2840404"><ele>573.8000000000001</ele><time>2026-04-12T11:34:32.716Z</time></trkpt><trkpt lat="43.5249166" lon="12.2841728"><ele>577.0</ele><time>2026-04-12T11:34:34.722Z</time></trkpt><trkpt lat="43.5248992" lon="12.2843386"><ele>577.0</ele><time>2026-04-12T11:34:36.728Z</time></trkpt><trkpt lat="43.5248785" lon="12.2844501"><ele>577.0</ele><time>2026-04-12T11:34:37.802Z</time></trkpt><trkpt lat="43.5247742" lon="12.2846673"><ele>577.0</ele><time>2026-04-12T11:34:39.726Z</time></trkpt><trkpt lat="43.5246976" lon="12.2847532"><ele>577.0</ele><time>2026-04-12T11:34:40.709Z</time></trkpt><trkpt lat="43.5246" lon="12.2848303"><ele>573.75</ele><time>2026-04-12T11:34:41.711Z</time></trkpt><trkpt lat="43.5244973" lon="12.2849149"><ele>570.5</ele><time>2026-04-12T11:34:42.703Z</time></trkpt><trkpt lat="43.5243907" lon="12.2849847"><ele>567.25</ele><time>2026-04-12T11:34:43.696Z</time></trkpt><trkpt lat="43.5242882" lon="12.2850509"><ele>564.0</ele><time>2026-04-12T11:34:44.707Z</time></trkpt><trkpt lat="43.5241946" lon="12.2850962"><ele>564.0</ele><time>2026-04-12T11:34:45.705Z</time></trkpt><trkpt lat="43.5241027" lon="12.2851298"><ele>564.0</ele><time>2026-04-12T11:34:46.718Z</time></trkpt><trkpt lat="43.5240196" lon="12.285147"><ele>564.0</ele><time>2026-04-12T11:34:47.714Z</time></trkpt><trkpt lat="43.5238574" lon="12.2850958"><ele>564.0</ele><time>2026-04-12T11:34:49.698Z</time></trkpt><trkpt lat="43.5237822" lon="12.2850178"><ele>564.0</ele><time>2026-04-12T11:34:50.73Z</time></trkpt><trkpt lat="43.5237109" lon="12.2849351"><ele>562.6666666666666</ele><time>2026-04-12T11:34:51.697Z</time></trkpt><trkpt lat="43.5236482" lon="12.2848607"><ele>561.3333333333334</ele><time>2026-04-12T11:34:52.704Z</time></trkpt><trkpt lat="43.5235823" lon="12.2847866"><ele>560.0</ele><time>2026-04-12T11:34:53.696Z</time></trkpt><trkpt lat="43.5235108" lon="12.2847049"><ele>558.6666666666667</ele><time>2026-04-12T11:34:54.71Z</time></trkpt><trkpt lat="43.5234412" lon="12.2846274"><ele>557.3333333333334</ele><time>2026-04-12T11:34:55.702Z</time></trkpt><trkpt lat="43.5233719" lon="12.2845574"><ele>556.0</ele><time>2026-04-12T11:34:56.709Z</time></trkpt><trkpt lat="43.5232915" lon="12.2844811"><ele>556.0</ele><time>2026-04-12T11:34:57.71Z</time></trkpt><trkpt lat="43.5232043" lon="12.2843938"><ele>556.0</ele><time>2026-04-12T11:34:58.726Z</time></trkpt><trkpt lat="43.5231103" lon="12.2842942"><ele>556.0</ele><time>2026-04-12T11:34:59.697Z</time></trkpt><trkpt lat="43.5230038" lon="12.2841885"><ele>556.0</ele><time>2026-04-12T11:35:00.729Z</time></trkpt><trkpt lat="43.5228958" lon="12.2840767"><ele>556.3333333333334</ele><time>2026-04-12T11:35:01.745Z</time></trkpt><trkpt lat="43.5227754" lon="12.2839559"><ele>556.6666666666666</ele><time>2026-04-12T11:35:02.708Z</time></trkpt><trkpt lat="43.5226556" lon="12.283824"><ele>557.0</ele><time>2026-04-12T11:35:03.706Z</time></trkpt><trkpt lat="43.5225348" lon="12.2836919"><ele>557.0</ele><time>2026-04-12T11:35:04.726Z</time></trkpt><trkpt lat="43.5224179" lon="12.2835728"><ele>557.0</ele><time>2026-04-12T11:35:05.704Z</time></trkpt><trkpt lat="43.5223082" lon="12.2834618"><ele>557.0</ele><time>2026-04-12T11:35:06.707Z</time></trkpt><trkpt lat="43.5221983" lon="12.283353"><ele>557.0</ele><time>2026-04-12T11:35:07.703Z</time></trkpt><trkpt lat="43.5220905" lon="12.2832339"><ele>556.6666666666666</ele><time>2026-04-12T11:35:08.703Z</time></trkpt><trkpt lat="43.5218845" lon="12.2830021"><ele>556.3333333333334</ele><time>2026-04-12T11:35:10.703Z</time></trkpt><trkpt lat="43.5217829" lon="12.2828878"><ele>556.0</ele><time>2026-04-12T11:35:11.705Z</time></trkpt><trkpt lat="43.5216812" lon="12.2827722"><ele>556.0</ele><time>2026-04-12T11:35:12.697Z</time></trkpt><trkpt lat="43.5215808" lon="12.2826563"><ele>556.0</ele><time>2026-04-12T11:35:13.705Z</time></trkpt><trkpt lat="43.5214759" lon="12.2825303"><ele>556.0</ele><time>2026-04-12T11:35:14.709Z</time></trkpt><trkpt lat="43.5213743" lon="12.2824072"><ele>556.0</ele><time>2026-04-12T11:35:15.712Z</time></trkpt><trkpt lat="43.5212707" lon="12.2822886"><ele>555.25</ele><time>2026-04-12T11:35:16.707Z</time></trkpt><trkpt lat="43.5211694" lon="12.2821823"><ele>554.5</ele><time>2026-04-12T11:35:17.729Z</time></trkpt><trkpt lat="43.5210667" lon="12.2820821"><ele>553.75</ele><time>2026-04-12T11:35:18.707Z</time></trkpt><trkpt lat="43.5209593" lon="12.2819937"><ele>553.0</ele><time>2026-04-12T11:35:19.716Z</time></trkpt><trkpt lat="43.520859" lon="12.2819125"><ele>553.0</ele><time>2026-04-12T11:35:20.709Z</time></trkpt><trkpt lat="43.5207533" lon="12.2818311"><ele>553.0</ele><time>2026-04-12T11:35:21.717Z</time></trkpt><trkpt lat="43.5206474" lon="12.2817346"><ele>553.0</ele><time>2026-04-12T11:35:22.705Z</time></trkpt><trkpt lat="43.5205552" lon="12.281635"><ele>553.0</ele><time>2026-04-12T11:35:23.706Z</time></trkpt><trkpt lat="43.5204726" lon="12.2815436"><ele>552.4</ele><time>2026-04-12T11:35:24.709Z</time></trkpt><trkpt lat="43.5203924" lon="12.2814598"><ele>551.8</ele><time>2026-04-12T11:35:25.695Z</time></trkpt><trkpt lat="43.5203109" lon="12.2813819"><ele>551.2</ele><time>2026-04-12T11:35:26.742Z</time></trkpt><trkpt lat="43.5202294" lon="12.281306"><ele>550.6</ele><time>2026-04-12T11:35:27.71Z</time></trkpt><trkpt lat="43.5201544" lon="12.2812163"><ele>550.0</ele><time>2026-04-12T11:35:28.707Z</time></trkpt><trkpt lat="43.5200864" lon="12.2811134"><ele>550.0</ele><time>2026-04-12T11:35:29.703Z</time></trkpt><trkpt lat="43.5199511" lon="12.2809352"><ele>550.0</ele><time>2026-04-12T11:35:31.692Z</time></trkpt><trkpt lat="43.5198676" lon="12.2808748"><ele>550.0</ele><time>2026-04-12T11:35:32.695Z</time></trkpt><trkpt lat="43.5197651" lon="12.2808296"><ele>550.0</ele><time>2026-04-12T11:35:33.711Z</time></trkpt><trkpt lat="43.5196576" lon="12.2808047"><ele>547.6666666666667</ele><time>2026-04-12T11:35:34.701Z</time></trkpt><trkpt lat="43.5195504" lon="12.2807882"><ele>545.3333333333334</ele><time>2026-04-12T11:35:35.699Z</time></trkpt><trkpt lat="43.5194624" lon="12.2807727"><ele>543.0</ele><time>2026-04-12T11:35:36.717Z</time></trkpt><trkpt lat="43.519394" lon="12.2807642"><ele>540.6666666666666</ele><time>2026-04-12T11:35:37.705Z</time></trkpt><trkpt lat="43.5192985" lon="12.2807357"><ele>538.3333333333333</ele><time>2026-04-12T11:35:39.697Z</time></trkpt><trkpt lat="43.5192389" lon="12.2807044"><ele>536.0</ele><time>2026-04-12T11:35:43.707Z</time></trkpt><trkpt lat="43.5191863" lon="12.2806384"><ele>537.0</ele><time>2026-04-12T11:36:37.703Z</time></trkpt><trkpt lat="43.5191514" lon="12.2803416"><ele>538.0</ele><time>2026-04-12T11:36:41.711Z</time></trkpt><trkpt lat="43.5191632" lon="12.2802293"><ele>539.0</ele><time>2026-04-12T11:36:42.711Z</time></trkpt><trkpt lat="43.5191837" lon="12.2801162"><ele>540.0</ele><time>2026-04-12T11:36:43.72Z</time></trkpt><trkpt lat="43.519197" lon="12.2799909"><ele>540.0</ele><time>2026-04-12T11:36:44.706Z</time></trkpt><trkpt lat="43.5192041" lon="12.279865"><ele>540.0</ele><time>2026-04-12T11:36:45.731Z</time></trkpt><trkpt lat="43.519204" lon="12.2797333"><ele>540.0</ele><time>2026-04-12T11:36:46.696Z</time></trkpt><trkpt lat="43.5191959" lon="12.2796052"><ele>540.0</ele><time>2026-04-12T11:36:47.704Z</time></trkpt><trkpt lat="43.5191765" lon="12.2794794"><ele>540.0</ele><time>2026-04-12T11:36:48.7Z</time></trkpt><trkpt lat="43.519148" lon="12.2793721"><ele>540.1666666666666</ele><time>2026-04-12T11:36:49.712Z</time></trkpt><trkpt lat="43.5191064" lon="12.2792704"><ele>540.3333333333334</ele><time>2026-04-12T11:36:50.71Z</time></trkpt><trkpt lat="43.5190526" lon="12.279182"><ele>540.5</ele><time>2026-04-12T11:36:51.701Z</time></trkpt><trkpt lat="43.5189771" lon="12.2790986"><ele>540.6666666666667</ele><time>2026-04-12T11:36:52.692Z</time></trkpt><trkpt lat="43.518905" lon="12.2790125"><ele>540.8333333333334</ele><time>2026-04-12T11:36:53.707Z</time></trkpt><trkpt lat="43.5188536" lon="12.2789316"><ele>541.0</ele><time>2026-04-12T11:36:54.704Z</time></trkpt><trkpt lat="43.5187802" lon="12.2788324"><ele>540.8</ele><time>2026-04-12T11:36:56.705Z</time></trkpt><trkpt lat="43.5187025" lon="12.2787331"><ele>540.6</ele><time>2026-04-12T11:36:58.701Z</time></trkpt><trkpt lat="43.5186141" lon="12.2786026"><ele>540.4</ele><time>2026-04-12T11:37:00.723Z</time></trkpt><trkpt lat="43.5185725" lon="12.2785317"><ele>540.2</ele><time>2026-04-12T11:37:01.707Z</time></trkpt><trkpt lat="43.5185165" lon="12.2784415"><ele>540.0</ele><time>2026-04-12T11:37:02.7Z</time></trkpt><trkpt lat="43.5184549" lon="12.278347"><ele>540.0</ele><time>2026-04-12T11:37:03.698Z</time></trkpt><trkpt lat="43.5184021" lon="12.2782596"><ele>540.0</ele><time>2026-04-12T11:37:04.719Z</time></trkpt><trkpt lat="43.518355" lon="12.2781697"><ele>540.0</ele><time>2026-04-12T11:37:05.888Z</time></trkpt><trkpt lat="43.5182382" lon="12.2779703"><ele>540.0</ele><time>2026-04-12T11:37:07.726Z</time></trkpt><trkpt lat="43.5181843" lon="12.2778695"><ele>540.0</ele><time>2026-04-12T11:37:08.703Z</time></trkpt><trkpt lat="43.5181449" lon="12.2777616"><ele>540.6666666666666</ele><time>2026-04-12T11:37:09.697Z</time></trkpt><trkpt lat="43.5181271" lon="12.2776435"><ele>541.3333333333334</ele><time>2026-04-12T11:37:10.724Z</time></trkpt><trkpt lat="43.5181115" lon="12.2775164"><ele>542.0</ele><time>2026-04-12T11:37:11.699Z</time></trkpt><trkpt lat="43.5180893" lon="12.2773921"><ele>542.6666666666667</ele><time>2026-04-12T11:37:12.709Z</time></trkpt><trkpt lat="43.5180643" lon="12.2772859"><ele>543.3333333333334</ele><time>2026-04-12T11:37:13.716Z</time></trkpt><trkpt lat="43.518034" lon="12.2771699"><ele>544.0</ele><time>2026-04-12T11:37:15.873Z</time></trkpt><trkpt lat="43.5179666" lon="12.2770556"><ele>544.0</ele><time>2026-04-12T11:37:18.71Z</time></trkpt><trkpt lat="43.5179144" lon="12.276927"><ele>544.0</ele><time>2026-04-12T11:37:20.72Z</time></trkpt><trkpt lat="43.5177437" lon="12.2766902"><ele>544.0</ele><time>2026-04-12T11:37:24.708Z</time></trkpt><trkpt lat="43.5176762" lon="12.2765765"><ele>542.8333333333334</ele><time>2026-04-12T11:37:26.71Z</time></trkpt><trkpt lat="43.5176246" lon="12.2765062"><ele>541.6666666666667</ele><time>2026-04-12T11:37:27.789Z</time></trkpt><trkpt lat="43.5175652" lon="12.2764433"><ele>540.5</ele><time>2026-04-12T11:37:28.714Z</time></trkpt><trkpt lat="43.517444" lon="12.2763744"><ele>539.3333333333334</ele><time>2026-04-12T11:37:30.71Z</time></trkpt><trkpt lat="43.5173658" lon="12.2763281"><ele>538.1666666666666</ele><time>2026-04-12T11:37:31.713Z</time></trkpt><trkpt lat="43.5172897" lon="12.2762797"><ele>537.0</ele><time>2026-04-12T11:37:32.708Z</time></trkpt><trkpt lat="43.5172186" lon="12.276232"><ele>536.8000000000001</ele><time>2026-04-12T11:37:33.703Z</time></trkpt><trkpt lat="43.5171478" lon="12.2761744"><ele>536.6</ele><time>2026-04-12T11:37:34.705Z</time></trkpt><trkpt lat="43.5170813" lon="12.2761074"><ele>536.4000000000001</ele><time>2026-04-12T11:37:35.698Z</time></trkpt><trkpt lat="43.5170144" lon="12.2760428"><ele>536.2</ele><time>2026-04-12T11:37:36.818Z</time></trkpt><trkpt lat="43.516887" lon="12.2758995"><ele>536.0</ele><time>2026-04-12T11:37:38.709Z</time></trkpt><trkpt lat="43.5168204" lon="12.2758299"><ele>535.5</ele><time>2026-04-12T11:37:39.712Z</time></trkpt><trkpt lat="43.5167595" lon="12.2757632"><ele>535.0</ele><time>2026-04-12T11:37:40.713Z</time></trkpt><trkpt lat="43.5167104" lon="12.2757035"><ele>534.5</ele><time>2026-04-12T11:37:41.699Z</time></trkpt><trkpt lat="43.5165424" lon="12.2754888"><ele>534.0</ele><time>2026-04-12T11:37:45.712Z</time></trkpt><trkpt lat="43.5164687" lon="12.2753908"><ele>532.0</ele><time>2026-04-12T11:37:47.713Z</time></trkpt><trkpt lat="43.5163933" lon="12.275284"><ele>530.0</ele><time>2026-04-12T11:37:49.798Z</time></trkpt><trkpt lat="43.5162926" lon="12.275182"><ele>528.0</ele><time>2026-04-12T11:37:51.708Z</time></trkpt><trkpt lat="43.5161925" lon="12.2750923"><ele>526.0</ele><time>2026-04-12T11:37:53.713Z</time></trkpt><trkpt lat="43.5160889" lon="12.2749949"><ele>524.8333333333334</ele><time>2026-04-12T11:37:55.729Z</time></trkpt><trkpt lat="43.5160261" lon="12.2749374"><ele>523.6666666666667</ele><time>2026-04-12T11:37:56.716Z</time></trkpt><trkpt lat="43.5159649" lon="12.2748886"><ele>522.5</ele><time>2026-04-12T11:37:57.688Z</time></trkpt><trkpt lat="43.5159036" lon="12.2748404"><ele>521.3333333333334</ele><time>2026-04-12T11:37:58.727Z</time></trkpt><trkpt lat="43.515847" lon="12.2747928"><ele>520.1666666666666</ele><time>2026-04-12T11:37:59.694Z</time></trkpt><trkpt lat="43.515739" lon="12.2747237"><ele>519.0</ele><time>2026-04-12T11:38:01.717Z</time></trkpt><trkpt lat="43.5156242" lon="12.274683"><ele>516.0</ele><time>2026-04-12T11:38:03.705Z</time></trkpt><trkpt lat="43.5154496" lon="12.274521"><ele>513.0</ele><time>2026-04-12T11:38:07.699Z</time></trkpt><trkpt lat="43.5153948" lon="12.274478"><ele>510.0</ele><time>2026-04-12T11:38:08.707Z</time></trkpt><trkpt lat="43.515334" lon="12.2744215"><ele>507.0</ele><time>2026-04-12T11:38:09.731Z</time></trkpt><trkpt lat="43.5152772" lon="12.274351"><ele>504.0</ele><time>2026-04-12T11:38:10.711Z</time></trkpt><trkpt lat="43.5151825" lon="12.2742527"><ele>503.7142857142857</ele><time>2026-04-12T11:38:12.708Z</time></trkpt><trkpt lat="43.5151294" lon="12.2741915"><ele>503.42857142857144</ele><time>2026-04-12T11:38:13.716Z</time></trkpt><trkpt lat="43.5150728" lon="12.2741309"><ele>503.1428571428571</ele><time>2026-04-12T11:38:14.708Z</time></trkpt><trkpt lat="43.5150188" lon="12.2740648"><ele>502.85714285714283</ele><time>2026-04-12T11:38:15.703Z</time></trkpt><trkpt lat="43.514965" lon="12.2739979"><ele>502.57142857142856</ele><time>2026-04-12T11:38:16.713Z</time></trkpt><trkpt lat="43.5149165" lon="12.2739343"><ele>502.2857142857142</ele><time>2026-04-12T11:38:17.717Z</time></trkpt><trkpt lat="43.5148698" lon="12.2738759"><ele>501.99999999999994</ele><time>2026-04-12T11:38:18.727Z</time></trkpt><trkpt lat="43.514789" lon="12.2737703"><ele>500.0</ele><time>2026-04-12T11:38:20.72Z</time></trkpt><trkpt lat="43.514705" lon="12.273689"><ele>498.00000000000006</ele><time>2026-04-12T11:38:22.708Z</time></trkpt><trkpt lat="43.5146299" lon="12.2736664"><ele>496.00000000000006</ele><time>2026-04-12T11:38:24.713Z</time></trkpt><trkpt lat="43.5144869" lon="12.2735537"><ele>494.0</ele><time>2026-04-12T11:38:28.688Z</time></trkpt><trkpt lat="43.514431" lon="12.2734647"><ele>492.0</ele><time>2026-04-12T11:38:30.703Z</time></trkpt><trkpt lat="43.5143528" lon="12.2734439"><ele>489.5</ele><time>2026-04-12T11:40:08.725Z</time></trkpt><trkpt lat="43.5143853" lon="12.2730827"><ele>487.0</ele><time>2026-04-12T12:01:47.723Z</time></trkpt><trkpt lat="43.514307" lon="12.2730265"><ele>484.5</ele><time>2026-04-12T12:01:50.722Z</time></trkpt><trkpt lat="43.5142475" lon="12.2729799"><ele>482.0</ele><time>2026-04-12T12:01:52.729Z</time></trkpt><trkpt lat="43.5141972" lon="12.2729245"><ele>482.0</ele><time>2026-04-12T12:01:54.734Z</time></trkpt><trkpt lat="43.5141376" lon="12.2728674"><ele>482.00000000000006</ele><time>2026-04-12T12:01:56.731Z</time></trkpt><trkpt lat="43.5140573" lon="12.2728033"><ele>482.00000000000006</ele><time>2026-04-12T12:01:58.73Z</time></trkpt><trkpt lat="43.5139803" lon="12.2727204"><ele>482.0</ele><time>2026-04-12T12:02:00.827Z</time></trkpt><trkpt lat="43.5139039" lon="12.2726536"><ele>482.0</ele><time>2026-04-12T12:02:02.731Z</time></trkpt><trkpt lat="43.5137173" lon="12.2724889"><ele>482.40000000000003</ele><time>2026-04-12T12:02:06.732Z</time></trkpt><trkpt lat="43.5136642" lon="12.2724289"><ele>482.80000000000007</ele><time>2026-04-12T12:02:07.725Z</time></trkpt><trkpt lat="43.5136097" lon="12.2723815"><ele>483.2</ele><time>2026-04-12T12:02:08.721Z</time></trkpt><trkpt lat="43.5135284" lon="12.2722886"><ele>483.6</ele><time>2026-04-12T12:02:10.73Z</time></trkpt><trkpt lat="43.5134111" lon="12.2721958"><ele>484.0</ele><time>2026-04-12T12:02:13.724Z</time></trkpt><trkpt lat="43.513323" lon="12.2721164"><ele>482.4</ele><time>2026-04-12T12:02:15.719Z</time></trkpt><trkpt lat="43.5132374" lon="12.2720299"><ele>480.79999999999995</ele><time>2026-04-12T12:02:17.724Z</time></trkpt><trkpt lat="43.5131416" lon="12.2719535"><ele>479.20000000000005</ele><time>2026-04-12T12:02:19.74Z</time></trkpt><trkpt lat="43.5130246" lon="12.2718762"><ele>477.6</ele><time>2026-04-12T12:02:21.737Z</time></trkpt><trkpt lat="43.5129646" lon="12.2718413"><ele>476.0</ele><time>2026-04-12T12:02:22.818Z</time></trkpt><trkpt lat="43.5129028" lon="12.2717983"><ele>475.4</ele><time>2026-04-12T12:02:23.722Z</time></trkpt><trkpt lat="43.5127886" lon="12.2716794"><ele>474.8</ele><time>2026-04-12T12:02:25.726Z</time></trkpt><trkpt lat="43.5127348" lon="12.2716168"><ele>474.19999999999993</ele><time>2026-04-12T12:02:26.733Z</time></trkpt><trkpt lat="43.5126845" lon="12.2715512"><ele>473.59999999999997</ele><time>2026-04-12T12:02:27.73Z</time></trkpt><trkpt lat="43.5126086" lon="12.2714553"><ele>473.0</ele><time>2026-04-12T12:02:29.742Z</time></trkpt><trkpt lat="43.5125353" lon="12.2713959"><ele>471.4</ele><time>2026-04-12T12:02:31.734Z</time></trkpt><trkpt lat="43.5124691" lon="12.2713606"><ele>469.79999999999995</ele><time>2026-04-12T12:02:33.828Z</time></trkpt><trkpt lat="43.5123923" lon="12.2712978"><ele>468.2</ele><time>2026-04-12T12:02:35.751Z</time></trkpt><trkpt lat="43.5123135" lon="12.2712209"><ele>466.6</ele><time>2026-04-12T12:02:37.719Z</time></trkpt><trkpt lat="43.5122284" lon="12.271159"><ele>465.0</ele><time>2026-04-12T12:02:39.723Z</time></trkpt><trkpt lat="43.512136" lon="12.2711138"><ele>465.0</ele><time>2026-04-12T12:02:41.741Z</time></trkpt><trkpt lat="43.5120392" lon="12.2710636"><ele>465.0</ele><time>2026-04-12T12:02:43.731Z</time></trkpt><trkpt lat="43.5119404" lon="12.2710187"><ele>465.0</ele><time>2026-04-12T12:02:45.736Z</time></trkpt><trkpt lat="43.5117721" lon="12.2709234"><ele>465.0</ele><time>2026-04-12T12:02:48.73Z</time></trkpt><trkpt lat="43.5116669" lon="12.2708493"><ele>465.0</ele><time>2026-04-12T12:02:50.729Z</time></trkpt><trkpt lat="43.5115578" lon="12.2707944"><ele>465.0</ele><time>2026-04-12T12:02:52.738Z</time></trkpt><trkpt lat="43.5114487" lon="12.2707712"><ele>465.0</ele><time>2026-04-12T12:02:54.734Z</time></trkpt><trkpt lat="43.5113509" lon="12.2707693"><ele>465.0</ele><time>2026-04-12T12:02:56.736Z</time></trkpt><trkpt lat="43.5112479" lon="12.2707353"><ele>465.0</ele><time>2026-04-12T12:02:58.731Z</time></trkpt><trkpt lat="43.511151" lon="12.2707399"><ele>462.4</ele><time>2026-04-12T12:03:00.743Z</time></trkpt><trkpt lat="43.5110388" lon="12.2707697"><ele>459.8</ele><time>2026-04-12T12:03:02.738Z</time></trkpt><trkpt lat="43.5109739" lon="12.2707756"><ele>457.20000000000005</ele><time>2026-04-12T12:03:03.735Z</time></trkpt><trkpt lat="43.510864" lon="12.2707598"><ele>454.6</ele><time>2026-04-12T12:03:05.734Z</time></trkpt><trkpt lat="43.5107384" lon="12.2706682"><ele>452.0</ele><time>2026-04-12T12:03:08.722Z</time></trkpt><trkpt lat="43.5105894" lon="12.2705444"><ele>451.6</ele><time>2026-04-12T12:03:12.722Z</time></trkpt><trkpt lat="43.5105129" lon="12.2704847"><ele>451.20000000000005</ele><time>2026-04-12T12:03:14.727Z</time></trkpt><trkpt lat="43.5104099" lon="12.2704649"><ele>450.8</ele><time>2026-04-12T12:03:16.736Z</time></trkpt><trkpt lat="43.5103065" lon="12.2704666"><ele>450.4</ele><time>2026-04-12T12:03:18.728Z</time></trkpt><trkpt lat="43.5102193" lon="12.2704298"><ele>450.0</ele><time>2026-04-12T12:03:20.732Z</time></trkpt><trkpt lat="43.5101362" lon="12.2703795"><ele>448.4</ele><time>2026-04-12T12:03:22.725Z</time></trkpt><trkpt lat="43.5100425" lon="12.2703268"><ele>446.8</ele><time>2026-04-12T12:03:24.734Z</time></trkpt><trkpt lat="43.509947" lon="12.2702784"><ele>445.20000000000005</ele><time>2026-04-12T12:03:26.734Z</time></trkpt><trkpt lat="43.5098655" lon="12.2702545"><ele>443.6</ele><time>2026-04-12T12:03:28.729Z</time></trkpt><trkpt lat="43.5097824" lon="12.2702131"><ele>442.0</ele><time>2026-04-12T12:03:30.735Z</time></trkpt><trkpt lat="43.5095771" lon="12.2701646"><ele>440.50000000000006</ele><time>2026-04-12T12:03:34.728Z</time></trkpt><trkpt lat="43.5095015" lon="12.2701743"><ele>439.0</ele><time>2026-04-12T12:03:36.726Z</time></trkpt><trkpt lat="43.5094259" lon="12.2701785"><ele>437.5</ele><time>2026-04-12T12:03:38.731Z</time></trkpt><trkpt lat="43.5093405" lon="12.2701654"><ele>436.0</ele><time>2026-04-12T12:03:40.731Z</time></trkpt><trkpt lat="43.5092573" lon="12.270136"><ele>434.50000000000006</ele><time>2026-04-12T12:03:42.722Z</time></trkpt><trkpt lat="43.5091888" lon="12.270143"><ele>433.0</ele><time>2026-04-12T12:03:44.721Z</time></trkpt><trkpt lat="43.5091129" lon="12.2701728"><ele>433.0</ele><time>2026-04-12T12:03:46.733Z</time></trkpt><trkpt lat="43.5090167" lon="12.2702088"><ele>433.0</ele><time>2026-04-12T12:03:48.723Z</time></trkpt><trkpt lat="43.5089244" lon="12.2701919"><ele>433.0</ele><time>2026-04-12T12:03:50.727Z</time></trkpt><trkpt lat="43.5088134" lon="12.2701582"><ele>433.0</ele><time>2026-04-12T12:03:52.727Z</time></trkpt><trkpt lat="43.5086183" lon="12.2701426"><ele>429.79999999999995</ele><time>2026-04-12T12:03:56.72Z</time></trkpt><trkpt lat="43.5085303" lon="12.2700566"><ele>426.59999999999997</ele><time>2026-04-12T12:03:58.722Z</time></trkpt><trkpt lat="43.508457" lon="12.2699596"><ele>423.4</ele><time>2026-04-12T12:04:00.737Z</time></trkpt><trkpt lat="43.5083736" lon="12.26989"><ele>420.20000000000005</ele><time>2026-04-12T12:04:02.724Z</time></trkpt><trkpt lat="43.5082955" lon="12.2698459"><ele>417.0</ele><time>2026-04-12T12:04:04.723Z</time></trkpt><trkpt lat="43.5082376" lon="12.2698094"><ele>416.40000000000003</ele><time>2026-04-12T12:04:06.733Z</time></trkpt><trkpt lat="43.5081842" lon="12.2697509"><ele>415.8</ele><time>2026-04-12T12:04:09.726Z</time></trkpt><trkpt lat="43.50813" lon="12.2696808"><ele>415.2</ele><time>2026-04-12T12:05:13.729Z</time></trkpt><trkpt lat="43.5079479" lon="12.2695667"><ele>414.6</ele><time>2026-04-12T12:05:17.719Z</time></trkpt><trkpt lat="43.5078787" lon="12.2695474"><ele>414.0</ele><time>2026-04-12T12:05:19.724Z</time></trkpt><trkpt lat="43.5078178" lon="12.2695247"><ele>408.6</ele><time>2026-04-12T12:05:21.737Z</time></trkpt><trkpt lat="43.5077473" lon="12.2694991"><ele>403.2</ele><time>2026-04-12T12:05:24.743Z</time></trkpt><trkpt lat="43.5076845" lon="12.2695082"><ele>397.8</ele><time>2026-04-12T12:05:28.722Z</time></trkpt><trkpt lat="43.5076174" lon="12.2694986"><ele>392.40000000000003</ele><time>2026-04-12T12:07:53.732Z</time></trkpt><trkpt lat="43.5075002" lon="12.2695274"><ele>387.0</ele><time>2026-04-12T12:09:23.723Z</time></trkpt><trkpt lat="43.5073918" lon="12.2697036"><ele>387.0</ele><time>2026-04-12T12:11:52.719Z</time></trkpt><trkpt lat="43.5072779" lon="12.2698743"><ele>387.0</ele><time>2026-04-12T12:11:57.72Z</time></trkpt><trkpt lat="43.5071877" lon="12.2698475"><ele>387.0</ele><time>2026-04-12T12:12:00.724Z</time></trkpt><trkpt lat="43.5071783" lon="12.2697579"><ele>387.0</ele><time>2026-04-12T12:12:02.716Z</time></trkpt><trkpt lat="43.5072205" lon="12.2696869"><ele>387.0</ele><time>2026-04-12T12:31:56.722Z</time></trkpt><trkpt lat="43.5072887" lon="12.2695171"><ele>387.0</ele><time>2026-04-12T12:32:08.719Z</time></trkpt><trkpt lat="43.5073332" lon="12.2694113"><ele>387.0</ele><time>2026-04-12T12:32:11.833Z</time></trkpt><trkpt lat="43.5073777" lon="12.2693326"><ele>387.0</ele><time>2026-04-12T12:32:14.812Z</time></trkpt><trkpt lat="43.5074" lon="12.2692372"><ele>387.0</ele><time>2026-04-12T12:32:31.734Z</time></trkpt><trkpt lat="43.5075158" lon="12.268963"><ele>384.20000000000005</ele><time>2026-04-12T12:33:50.71Z</time></trkpt><trkpt lat="43.5075937" lon="12.268871"><ele>381.4</ele><time>2026-04-12T12:33:52.731Z</time></trkpt><trkpt lat="43.5076377" lon="12.2687963"><ele>378.6</ele><time>2026-04-12T12:33:54.715Z</time></trkpt><trkpt lat="43.5076483" lon="12.2686815"><ele>375.79999999999995</ele><time>2026-04-12T12:34:00.712Z</time></trkpt><trkpt lat="43.5076655" lon="12.2685428"><ele>373.0</ele><time>2026-04-12T12:34:02.726Z</time></trkpt><trkpt lat="43.5076829" lon="12.2683961"><ele>373.0</ele><time>2026-04-12T12:34:04.716Z</time></trkpt><trkpt lat="43.5077093" lon="12.2682761"><ele>373.0</ele><time>2026-04-12T12:34:06.713Z</time></trkpt><trkpt lat="43.507778" lon="12.2680702"><ele>373.0</ele><time>2026-04-12T12:34:11.71Z</time></trkpt><trkpt lat="43.5078328" lon="12.2679996"><ele>373.0</ele><time>2026-04-12T12:34:27.717Z</time></trkpt><trkpt lat="43.50775" lon="12.2681641"><ele>373.0</ele><time>2026-04-12T12:34:40.719Z</time></trkpt><trkpt lat="43.5076807" lon="12.2682646"><ele>373.0</ele><time>2026-04-12T12:34:43.715Z</time></trkpt><trkpt lat="43.5076182" lon="12.2683391"><ele>373.0</ele><time>2026-04-12T12:34:45.726Z</time></trkpt><trkpt lat="43.507555" lon="12.268415"><ele>373.0</ele><time>2026-04-12T12:34:48.717Z</time></trkpt><trkpt lat="43.5074612" lon="12.2686328"><ele>373.0</ele><time>2026-04-12T12:44:48.727Z</time></trkpt><trkpt lat="43.5075251" lon="12.2685482"><ele>373.0</ele><time>2026-04-12T12:45:00.731Z</time></trkpt><trkpt lat="43.5075624" lon="12.2684482"><ele>373.0</ele><time>2026-04-12T12:45:01.732Z</time></trkpt><trkpt lat="43.5075927" lon="12.2683378"><ele>373.0</ele><time>2026-04-12T12:45:02.729Z</time></trkpt><trkpt lat="43.507621" lon="12.268225"><ele>373.0</ele><time>2026-04-12T12:45:03.81Z</time></trkpt><trkpt lat="43.5076515" lon="12.2681096"><ele>373.0</ele><time>2026-04-12T12:45:04.803Z</time></trkpt><trkpt lat="43.5076712" lon="12.2679963"><ele>371.5</ele><time>2026-04-12T12:45:05.734Z</time></trkpt><trkpt lat="43.507727" lon="12.2677364"><ele>370.0</ele><time>2026-04-12T12:45:07.732Z</time></trkpt><trkpt lat="43.5077562" lon="12.2676112"><ele>368.5</ele><time>2026-04-12T12:45:08.727Z</time></trkpt><trkpt lat="43.5077785" lon="12.2674904"><ele>367.0</ele><time>2026-04-12T12:45:09.729Z</time></trkpt><trkpt lat="43.5077929" lon="12.2673679"><ele>365.8</ele><time>2026-04-12T12:45:10.749Z</time></trkpt><trkpt lat="43.5077993" lon="12.2672424"><ele>364.6</ele><time>2026-04-12T12:45:11.796Z</time></trkpt><trkpt lat="43.5078042" lon="12.2671072"><ele>363.40000000000003</ele><time>2026-04-12T12:45:12.732Z</time></trkpt><trkpt lat="43.5078072" lon="12.2669674"><ele>362.20000000000005</ele><time>2026-04-12T12:45:13.752Z</time></trkpt><trkpt lat="43.5078093" lon="12.2668243"><ele>361.0</ele><time>2026-04-12T12:45:14.728Z</time></trkpt><trkpt lat="43.5078034" lon="12.266681"><ele>361.0</ele><time>2026-04-12T12:45:15.734Z</time></trkpt><trkpt lat="43.5077987" lon="12.2665464"><ele>361.0</ele><time>2026-04-12T12:45:16.737Z</time></trkpt><trkpt lat="43.5077971" lon="12.2664172"><ele>361.0</ele><time>2026-04-12T12:45:17.733Z</time></trkpt><trkpt lat="43.5077969" lon="12.2662913"><ele>361.0</ele><time>2026-04-12T12:45:18.727Z</time></trkpt><trkpt lat="43.5078031" lon="12.2661585"><ele>361.0</ele><time>2026-04-12T12:45:19.729Z</time></trkpt><trkpt lat="43.5078179" lon="12.2660263"><ele>360.8</ele><time>2026-04-12T12:45:20.756Z</time></trkpt><trkpt lat="43.5078378" lon="12.2658856"><ele>360.6</ele><time>2026-04-12T12:45:21.741Z</time></trkpt><trkpt lat="43.507862" lon="12.2657361"><ele>360.4</ele><time>2026-04-12T12:45:22.74Z</time></trkpt><trkpt lat="43.5078865" lon="12.2655884"><ele>360.2</ele><time>2026-04-12T12:45:23.746Z</time></trkpt><trkpt lat="43.5079145" lon="12.2654371"><ele>360.0</ele><time>2026-04-12T12:45:24.757Z</time></trkpt><trkpt lat="43.5079385" lon="12.2652802"><ele>363.0</ele><time>2026-04-12T12:45:25.734Z</time></trkpt><trkpt lat="43.5079624" lon="12.2651273"><ele>366.0</ele><time>2026-04-12T12:45:26.83Z</time></trkpt><trkpt lat="43.508005" lon="12.264817"><ele>369.0</ele><time>2026-04-12T12:45:28.758Z</time></trkpt><trkpt lat="43.5080292" lon="12.2646554"><ele>369.0</ele><time>2026-04-12T12:45:29.746Z</time></trkpt><trkpt lat="43.5080528" lon="12.2645203"><ele>369.0</ele><time>2026-04-12T12:45:30.729Z</time></trkpt><trkpt lat="43.5080752" lon="12.264422"><ele>369.0</ele><time>2026-04-12T12:45:31.732Z</time></trkpt><trkpt lat="43.5081049" lon="12.2642499"><ele>369.0</ele><time>2026-04-12T12:45:33.732Z</time></trkpt><trkpt lat="43.5081211" lon="12.2641448"><ele>369.0</ele><time>2026-04-12T12:45:34.743Z</time></trkpt><trkpt lat="43.5081461" lon="12.2640374"><ele>367.6</ele><time>2026-04-12T12:45:35.733Z</time></trkpt><trkpt lat="43.5081797" lon="12.2639391"><ele>366.2</ele><time>2026-04-12T12:45:36.73Z</time></trkpt><trkpt lat="43.5082261" lon="12.2638393"><ele>364.8</ele><time>2026-04-12T12:45:37.743Z</time></trkpt><trkpt lat="43.5082891" lon="12.2637339"><ele>363.40000000000003</ele><time>2026-04-12T12:45:38.734Z</time></trkpt><trkpt lat="43.5083552" lon="12.2636224"><ele>362.0</ele><time>2026-04-12T12:45:39.749Z</time></trkpt><trkpt lat="43.5084164" lon="12.2635136"><ele>362.0</ele><time>2026-04-12T12:45:40.729Z</time></trkpt><trkpt lat="43.5084696" lon="12.2634069"><ele>362.0</ele><time>2026-04-12T12:45:41.736Z</time></trkpt><trkpt lat="43.508506" lon="12.2632958"><ele>362.0</ele><time>2026-04-12T12:45:42.758Z</time></trkpt><trkpt lat="43.5085261" lon="12.2631715"><ele>362.0</ele><time>2026-04-12T12:45:43.726Z</time></trkpt><trkpt lat="43.5085277" lon="12.2630287"><ele>362.0</ele><time>2026-04-12T12:45:44.738Z</time></trkpt><trkpt lat="43.5085229" lon="12.2628802"><ele>362.33333333333337</ele><time>2026-04-12T12:45:45.743Z</time></trkpt><trkpt lat="43.5085088" lon="12.2627217"><ele>362.6666666666667</ele><time>2026-04-12T12:45:46.738Z</time></trkpt><trkpt lat="43.5084927" lon="12.2625456"><ele>363.0</ele><time>2026-04-12T12:45:47.738Z</time></trkpt><trkpt lat="43.5084731" lon="12.2621636"><ele>363.0</ele><time>2026-04-12T12:45:49.723Z</time></trkpt><trkpt lat="43.5084708" lon="12.2619571"><ele>363.0</ele><time>2026-04-12T12:45:50.751Z</time></trkpt><trkpt lat="43.5084733" lon="12.2617385"><ele>363.0</ele><time>2026-04-12T12:45:51.718Z</time></trkpt><trkpt lat="43.5084661" lon="12.2615288"><ele>362.5</ele><time>2026-04-12T12:45:52.74Z</time></trkpt><trkpt lat="43.5084361" lon="12.2613457"><ele>362.0</ele><time>2026-04-12T12:45:53.735Z</time></trkpt><trkpt lat="43.5083822" lon="12.2611693"><ele>361.5</ele><time>2026-04-12T12:45:54.767Z</time></trkpt><trkpt lat="43.5083205" lon="12.2609963"><ele>361.0</ele><time>2026-04-12T12:45:55.742Z</time></trkpt><trkpt lat="43.5082613" lon="12.2608267"><ele>361.0</ele><time>2026-04-12T12:45:56.732Z</time></trkpt><trkpt lat="43.5082207" lon="12.2606591"><ele>361.0</ele><time>2026-04-12T12:45:57.749Z</time></trkpt><trkpt lat="43.5081992" lon="12.2604908"><ele>361.0</ele><time>2026-04-12T12:45:58.734Z</time></trkpt><trkpt lat="43.5081757" lon="12.2603344"><ele>361.0</ele><time>2026-04-12T12:45:59.733Z</time></trkpt><trkpt lat="43.5081305" lon="12.2602113"><ele>360.75</ele><time>2026-04-12T12:46:00.736Z</time></trkpt><trkpt lat="43.5080442" lon="12.260128"><ele>360.5</ele><time>2026-04-12T12:46:01.752Z</time></trkpt><trkpt lat="43.5079303" lon="12.2600906"><ele>360.25</ele><time>2026-04-12T12:46:02.732Z</time></trkpt><trkpt lat="43.5077983" lon="12.260098"><ele>360.0</ele><time>2026-04-12T12:46:03.731Z</time></trkpt><trkpt lat="43.5076561" lon="12.2601571"><ele>357.5</ele><time>2026-04-12T12:46:04.749Z</time></trkpt><trkpt lat="43.5075231" lon="12.2602415"><ele>355.0</ele><time>2026-04-12T12:46:05.73Z</time></trkpt><trkpt lat="43.5074019" lon="12.2603331"><ele>352.5</ele><time>2026-04-12T12:46:06.74Z</time></trkpt><trkpt lat="43.5072869" lon="12.2604207"><ele>350.0</ele><time>2026-04-12T12:46:07.732Z</time></trkpt><trkpt lat="43.5071604" lon="12.2604802"><ele>354.5</ele><time>2026-04-12T12:46:08.748Z</time></trkpt><trkpt lat="43.5069274" lon="12.2604361"><ele>359.0</ele><time>2026-04-12T12:46:10.825Z</time></trkpt><trkpt lat="43.5068592" lon="12.2603451"><ele>363.5</ele><time>2026-04-12T12:46:11.725Z</time></trkpt><trkpt lat="43.5068187" lon="12.2602079"><ele>368.0</ele><time>2026-04-12T12:46:12.82Z</time></trkpt><trkpt lat="43.5067954" lon="12.2598591"><ele>365.25</ele><time>2026-04-12T12:46:14.725Z</time></trkpt><trkpt lat="43.5067793" lon="12.2596658"><ele>362.5</ele><time>2026-04-12T12:46:15.734Z</time></trkpt><trkpt lat="43.5067402" lon="12.2594787"><ele>359.75</ele><time>2026-04-12T12:46:16.726Z</time></trkpt><trkpt lat="43.5066872" lon="12.2592888"><ele>357.0</ele><time>2026-04-12T12:46:17.739Z</time></trkpt><trkpt lat="43.5066298" lon="12.2591101"><ele>355.5</ele><time>2026-04-12T12:46:18.721Z</time></trkpt><trkpt lat="43.5065805" lon="12.2589262"><ele>354.0</ele><time>2026-04-12T12:46:19.754Z</time></trkpt><trkpt lat="43.506558" lon="12.2587417"><ele>352.5</ele><time>2026-04-12T12:46:20.733Z</time></trkpt><trkpt lat="43.5065611" lon="12.2585495"><ele>351.0</ele><time>2026-04-12T12:46:21.721Z</time></trkpt><trkpt lat="43.5065792" lon="12.258362"><ele>351.0</ele><time>2026-04-12T12:46:22.807Z</time></trkpt><trkpt lat="43.5066159" lon="12.2581768"><ele>351.0</ele><time>2026-04-12T12:46:23.723Z</time></trkpt><trkpt lat="43.5066548" lon="12.2580019"><ele>351.0</ele><time>2026-04-12T12:46:24.718Z</time></trkpt><trkpt lat="43.5066699" lon="12.2578339"><ele>351.0</ele><time>2026-04-12T12:46:25.739Z</time></trkpt><trkpt lat="43.5066383" lon="12.2576843"><ele>350.25</ele><time>2026-04-12T12:46:26.723Z</time></trkpt><trkpt lat="43.5065719" lon="12.257551"><ele>349.5</ele><time>2026-04-12T12:46:27.727Z</time></trkpt><trkpt lat="43.5065073" lon="12.2574202"><ele>348.75</ele><time>2026-04-12T12:46:28.724Z</time></trkpt><trkpt lat="43.5064377" lon="12.2572838"><ele>348.0</ele><time>2026-04-12T12:46:29.731Z</time></trkpt><trkpt lat="43.5063027" lon="12.2569801"><ele>348.3333333333333</ele><time>2026-04-12T12:46:31.758Z</time></trkpt><trkpt lat="43.5062288" lon="12.2568041"><ele>348.66666666666663</ele><time>2026-04-12T12:46:32.734Z</time></trkpt><trkpt lat="43.506152" lon="12.2566247"><ele>349.0</ele><time>2026-04-12T12:46:33.73Z</time></trkpt><trkpt lat="43.506072" lon="12.2564429"><ele>347.75</ele><time>2026-04-12T12:46:34.817Z</time></trkpt><trkpt lat="43.5059942" lon="12.2562699"><ele>346.5</ele><time>2026-04-12T12:46:35.74Z</time></trkpt><trkpt lat="43.5059072" lon="12.2561052"><ele>345.25</ele><time>2026-04-12T12:46:36.728Z</time></trkpt><trkpt lat="43.5058092" lon="12.2559624"><ele>344.0</ele><time>2026-04-12T12:46:37.728Z</time></trkpt><trkpt lat="43.5056952" lon="12.2558306"><ele>344.0</ele><time>2026-04-12T12:46:38.738Z</time></trkpt><trkpt lat="43.5055707" lon="12.2557056"><ele>344.0</ele><time>2026-04-12T12:46:39.725Z</time></trkpt><trkpt lat="43.505444" lon="12.2555943"><ele>344.0</ele><time>2026-04-12T12:46:40.74Z</time></trkpt><trkpt lat="43.5053134" lon="12.2554791"><ele>343.6666666666667</ele><time>2026-04-12T12:46:41.727Z</time></trkpt><trkpt lat="43.5051812" lon="12.2553628"><ele>343.3333333333333</ele><time>2026-04-12T12:46:42.738Z</time></trkpt><trkpt lat="43.5050489" lon="12.2552483"><ele>343.0</ele><time>2026-04-12T12:46:43.727Z</time></trkpt><trkpt lat="43.5049153" lon="12.255136"><ele>343.0</ele><time>2026-04-12T12:46:44.729Z</time></trkpt><trkpt lat="43.50478" lon="12.25503"><ele>343.0</ele><time>2026-04-12T12:46:45.726Z</time></trkpt><trkpt lat="43.5046413" lon="12.2549216"><ele>343.0</ele><time>2026-04-12T12:46:46.741Z</time></trkpt><trkpt lat="43.5045065" lon="12.2547996"><ele>343.66666666666663</ele><time>2026-04-12T12:46:47.733Z</time></trkpt><trkpt lat="43.5043799" lon="12.2546603"><ele>344.3333333333333</ele><time>2026-04-12T12:46:48.732Z</time></trkpt><trkpt lat="43.5042643" lon="12.2545035"><ele>345.0</ele><time>2026-04-12T12:46:49.72Z</time></trkpt><trkpt lat="43.5041557" lon="12.2543303"><ele>345.0</ele><time>2026-04-12T12:46:50.742Z</time></trkpt><trkpt lat="43.5039418" lon="12.2539779"><ele>345.0</ele><time>2026-04-12T12:46:52.729Z</time></trkpt><trkpt lat="43.5038335" lon="12.2537966"><ele>343.0</ele><time>2026-04-12T12:46:53.722Z</time></trkpt><trkpt lat="43.503729" lon="12.2536128"><ele>341.0</ele><time>2026-04-12T12:46:54.749Z</time></trkpt><trkpt lat="43.5036241" lon="12.2534171"><ele>339.0</ele><time>2026-04-12T12:46:55.735Z</time></trkpt><trkpt lat="43.50352" lon="12.2532159"><ele>338.3333333333333</ele><time>2026-04-12T12:46:56.714Z</time></trkpt><trkpt lat="43.5034189" lon="12.2530051"><ele>337.66666666666663</ele><time>2026-04-12T12:46:57.727Z</time></trkpt><trkpt lat="43.503317" lon="12.2527894"><ele>337.0</ele><time>2026-04-12T12:46:58.724Z</time></trkpt><trkpt lat="43.5032217" lon="12.252577"><ele>337.0</ele><time>2026-04-12T12:46:59.727Z</time></trkpt><trkpt lat="43.503129" lon="12.2523715"><ele>337.0</ele><time>2026-04-12T12:47:00.761Z</time></trkpt><trkpt lat="43.5030338" lon="12.2521683"><ele>337.0</ele><time>2026-04-12T12:47:01.728Z</time></trkpt><trkpt lat="43.5029488" lon="12.2519613"><ele>336.0</ele><time>2026-04-12T12:47:02.736Z</time></trkpt><trkpt lat="43.5028648" lon="12.2517642"><ele>335.0</ele><time>2026-04-12T12:47:03.733Z</time></trkpt><trkpt lat="43.5027836" lon="12.2515865"><ele>334.0</ele><time>2026-04-12T12:47:04.761Z</time></trkpt><trkpt lat="43.502702" lon="12.2514326"><ele>333.25</ele><time>2026-04-12T12:47:05.731Z</time></trkpt><trkpt lat="43.5026028" lon="12.2513128"><ele>332.5</ele><time>2026-04-12T12:47:06.727Z</time></trkpt><trkpt lat="43.5024896" lon="12.2512218"><ele>331.75</ele><time>2026-04-12T12:47:07.744Z</time></trkpt><trkpt lat="43.5023632" lon="12.251151"><ele>331.0</ele><time>2026-04-12T12:47:08.727Z</time></trkpt><trkpt lat="43.5022376" lon="12.2510763"><ele>331.0</ele><time>2026-04-12T12:47:09.723Z</time></trkpt><trkpt lat="43.5021203" lon="12.2509826"><ele>331.0</ele><time>2026-04-12T12:47:10.72Z</time></trkpt><trkpt lat="43.5020073" lon="12.2508761"><ele>331.0</ele><time>2026-04-12T12:47:11.749Z</time></trkpt><trkpt lat="43.5017943" lon="12.2506288"><ele>330.0</ele><time>2026-04-12T12:47:13.733Z</time></trkpt><trkpt lat="43.5016832" lon="12.2504965"><ele>329.0</ele><time>2026-04-12T12:47:14.723Z</time></trkpt><trkpt lat="43.5015747" lon="12.2503696"><ele>328.0</ele><time>2026-04-12T12:47:15.747Z</time></trkpt><trkpt lat="43.5014703" lon="12.2502615"><ele>327.0</ele><time>2026-04-12T12:47:16.745Z</time></trkpt><trkpt lat="43.5013703" lon="12.2501583"><ele>327.0</ele><time>2026-04-12T12:47:17.728Z</time></trkpt><trkpt lat="43.5012743" lon="12.2500579"><ele>327.0</ele><time>2026-04-12T12:47:18.736Z</time></trkpt><trkpt lat="43.5011796" lon="12.2499491"><ele>327.0</ele><time>2026-04-12T12:47:19.727Z</time></trkpt><trkpt lat="43.501076" lon="12.2498252"><ele>327.0</ele><time>2026-04-12T12:47:20.758Z</time></trkpt><trkpt lat="43.5009731" lon="12.2496942"><ele>325.75</ele><time>2026-04-12T12:47:21.727Z</time></trkpt><trkpt lat="43.5008693" lon="12.2495662"><ele>324.5</ele><time>2026-04-12T12:47:22.75Z</time></trkpt><trkpt lat="43.5007527" lon="12.2494463"><ele>323.25</ele><time>2026-04-12T12:47:23.735Z</time></trkpt><trkpt lat="43.5006249" lon="12.2493283"><ele>322.0</ele><time>2026-04-12T12:47:24.764Z</time></trkpt><trkpt lat="43.5004942" lon="12.2492042"><ele>322.0</ele><time>2026-04-12T12:47:25.831Z</time></trkpt><trkpt lat="43.5003673" lon="12.2490777"><ele>322.0</ele><time>2026-04-12T12:47:26.74Z</time></trkpt><trkpt lat="43.5002435" lon="12.2489592"><ele>322.0</ele><time>2026-04-12T12:47:27.753Z</time></trkpt><trkpt lat="43.5001239" lon="12.2488468"><ele>322.0</ele><time>2026-04-12T12:47:28.73Z</time></trkpt><trkpt lat="43.5000016" lon="12.2487514"><ele>322.0</ele><time>2026-04-12T12:47:29.733Z</time></trkpt><trkpt lat="43.49986" lon="12.2486634"><ele>322.0</ele><time>2026-04-12T12:47:30.725Z</time></trkpt><trkpt lat="43.4997081" lon="12.2485929"><ele>323.5</ele><time>2026-04-12T12:47:31.749Z</time></trkpt><trkpt lat="43.4995533" lon="12.248525"><ele>325.0</ele><time>2026-04-12T12:47:32.729Z</time></trkpt><trkpt lat="43.4991953" lon="12.2484008"><ele>325.0</ele><time>2026-04-12T12:47:34.756Z</time></trkpt><trkpt lat="43.4990034" lon="12.2483436"><ele>325.0</ele><time>2026-04-12T12:47:35.719Z</time></trkpt><trkpt lat="43.498816" lon="12.2482863"><ele>325.0</ele><time>2026-04-12T12:47:36.73Z</time></trkpt><trkpt lat="43.4986358" lon="12.2482211"><ele>325.3333333333333</ele><time>2026-04-12T12:47:37.726Z</time></trkpt><trkpt lat="43.4984602" lon="12.2481387"><ele>325.6666666666667</ele><time>2026-04-12T12:47:38.761Z</time></trkpt><trkpt lat="43.4982835" lon="12.2480309"><ele>326.0</ele><time>2026-04-12T12:47:39.732Z</time></trkpt><trkpt lat="43.4981026" lon="12.247909"><ele>326.0</ele><time>2026-04-12T12:47:40.738Z</time></trkpt><trkpt lat="43.4979203" lon="12.2477939"><ele>326.0</ele><time>2026-04-12T12:47:41.718Z</time></trkpt><trkpt lat="43.4977397" lon="12.2476828"><ele>326.0</ele><time>2026-04-12T12:47:42.759Z</time></trkpt><trkpt lat="43.4975708" lon="12.2475714"><ele>326.0</ele><time>2026-04-12T12:47:43.725Z</time></trkpt><trkpt lat="43.4974006" lon="12.2474528"><ele>326.0</ele><time>2026-04-12T12:47:44.735Z</time></trkpt><trkpt lat="43.4972322" lon="12.247328"><ele>326.0</ele><time>2026-04-12T12:47:45.805Z</time></trkpt><trkpt lat="43.4970757" lon="12.247198"><ele>325.0</ele><time>2026-04-12T12:47:46.728Z</time></trkpt><trkpt lat="43.4969285" lon="12.2470635"><ele>324.0</ele><time>2026-04-12T12:47:47.761Z</time></trkpt><trkpt lat="43.4967842" lon="12.246927"><ele>323.0</ele><time>2026-04-12T12:47:48.735Z</time></trkpt><trkpt lat="43.4966468" lon="12.2467916"><ele>323.0</ele><time>2026-04-12T12:47:49.733Z</time></trkpt><trkpt lat="43.4965132" lon="12.2466571"><ele>323.0</ele><time>2026-04-12T12:47:50.757Z</time></trkpt><trkpt lat="43.4963757" lon="12.2465251"><ele>323.0</ele><time>2026-04-12T12:47:51.734Z</time></trkpt><trkpt lat="43.4962239" lon="12.2464028"><ele>322.0</ele><time>2026-04-12T12:47:52.736Z</time></trkpt><trkpt lat="43.496057" lon="12.2462955"><ele>321.0</ele><time>2026-04-12T12:47:53.734Z</time></trkpt><trkpt lat="43.4957088" lon="12.2461058"><ele>321.0</ele><time>2026-04-12T12:47:55.738Z</time></trkpt><trkpt lat="43.4955417" lon="12.2460171"><ele>321.0</ele><time>2026-04-12T12:47:56.732Z</time></trkpt><trkpt lat="43.495376" lon="12.2459267"><ele>321.0</ele><time>2026-04-12T12:47:57.735Z</time></trkpt><trkpt lat="43.4952071" lon="12.2458256"><ele>318.5</ele><time>2026-04-12T12:47:58.85Z</time></trkpt><trkpt lat="43.4948675" lon="12.2456191"><ele>316.0</ele><time>2026-04-12T12:48:00.732Z</time></trkpt><trkpt lat="43.4946844" lon="12.245534"><ele>316.3333333333333</ele><time>2026-04-12T12:48:01.729Z</time></trkpt><trkpt lat="43.4944905" lon="12.245468"><ele>316.6666666666667</ele><time>2026-04-12T12:48:02.734Z</time></trkpt><trkpt lat="43.4942923" lon="12.2454178"><ele>317.0</ele><time>2026-04-12T12:48:03.741Z</time></trkpt><trkpt lat="43.4940866" lon="12.2453731"><ele>317.0</ele><time>2026-04-12T12:48:04.752Z</time></trkpt><trkpt lat="43.4938867" lon="12.2453344"><ele>317.0</ele><time>2026-04-12T12:48:05.736Z</time></trkpt><trkpt lat="43.4936949" lon="12.2452965"><ele>317.0</ele><time>2026-04-12T12:48:06.738Z</time></trkpt><trkpt lat="43.4935152" lon="12.2452596"><ele>316.6666666666667</ele><time>2026-04-12T12:48:07.739Z</time></trkpt><trkpt lat="43.4933408" lon="12.2452329"><ele>316.3333333333333</ele><time>2026-04-12T12:48:08.752Z</time></trkpt><trkpt lat="43.4931647" lon="12.2452232"><ele>316.0</ele><time>2026-04-12T12:48:09.734Z</time></trkpt><trkpt lat="43.4929799" lon="12.2452305"><ele>316.0</ele><time>2026-04-12T12:48:10.74Z</time></trkpt><trkpt lat="43.49279" lon="12.2452539"><ele>316.0</ele><time>2026-04-12T12:48:11.733Z</time></trkpt><trkpt lat="43.492611" lon="12.2452823"><ele>316.0</ele><time>2026-04-12T12:48:12.727Z</time></trkpt><trkpt lat="43.492442" lon="12.2453142"><ele>316.0</ele><time>2026-04-12T12:48:13.749Z</time></trkpt><trkpt lat="43.492286" lon="12.245343"><ele>316.0</ele><time>2026-04-12T12:48:14.735Z</time></trkpt><trkpt lat="43.4919841" lon="12.2453713"><ele>316.0</ele><time>2026-04-12T12:48:16.757Z</time></trkpt><trkpt lat="43.4918243" lon="12.2453378"><ele>316.0</ele><time>2026-04-12T12:48:17.73Z</time></trkpt><trkpt lat="43.4916559" lon="12.2452392"><ele>316.0</ele><time>2026-04-12T12:48:18.738Z</time></trkpt><trkpt lat="43.4914932" lon="12.2451187"><ele>316.0</ele><time>2026-04-12T12:48:19.727Z</time></trkpt><trkpt lat="43.4913225" lon="12.2449954"><ele>316.0</ele><time>2026-04-12T12:48:20.757Z</time></trkpt><trkpt lat="43.4911459" lon="12.2448744"><ele>316.0</ele><time>2026-04-12T12:48:21.733Z</time></trkpt><trkpt lat="43.490968" lon="12.2447562"><ele>315.66666666666663</ele><time>2026-04-12T12:48:22.733Z</time></trkpt><trkpt lat="43.4908004" lon="12.2446351"><ele>315.3333333333333</ele><time>2026-04-12T12:48:23.737Z</time></trkpt><trkpt lat="43.4906407" lon="12.2445318"><ele>315.0</ele><time>2026-04-12T12:48:24.733Z</time></trkpt><trkpt lat="43.4904751" lon="12.244431"><ele>314.6666666666667</ele><time>2026-04-12T12:48:25.741Z</time></trkpt><trkpt lat="43.4903103" lon="12.2443111"><ele>314.33333333333337</ele><time>2026-04-12T12:48:26.742Z</time></trkpt><trkpt lat="43.4901507" lon="12.2441947"><ele>314.0</ele><time>2026-04-12T12:48:27.727Z</time></trkpt><trkpt lat="43.4899982" lon="12.2440754"><ele>313.33333333333337</ele><time>2026-04-12T12:48:28.724Z</time></trkpt><trkpt lat="43.4898425" lon="12.2439599"><ele>312.6666666666667</ele><time>2026-04-12T12:48:29.744Z</time></trkpt><trkpt lat="43.4897004" lon="12.2438339"><ele>312.0</ele><time>2026-04-12T12:48:30.754Z</time></trkpt><trkpt lat="43.4894375" lon="12.2435398"><ele>310.6666666666667</ele><time>2026-04-12T12:48:32.732Z</time></trkpt><trkpt lat="43.4893139" lon="12.2433761"><ele>309.33333333333337</ele><time>2026-04-12T12:48:33.739Z</time></trkpt><trkpt lat="43.4891857" lon="12.243218"><ele>308.0</ele><time>2026-04-12T12:48:34.735Z</time></trkpt><trkpt lat="43.4890696" lon="12.2430563"><ele>308.0</ele><time>2026-04-12T12:48:35.821Z</time></trkpt><trkpt lat="43.4888611" lon="12.2427555"><ele>308.0</ele><time>2026-04-12T12:48:37.742Z</time></trkpt><trkpt lat="43.4887685" lon="12.2426242"><ele>308.0</ele><time>2026-04-12T12:48:38.722Z</time></trkpt><trkpt lat="43.4886861" lon="12.2425038"><ele>308.0</ele><time>2026-04-12T12:48:39.735Z</time></trkpt><trkpt lat="43.4886185" lon="12.2424093"><ele>308.0</ele><time>2026-04-12T12:48:40.74Z</time></trkpt><trkpt lat="43.4885742" lon="12.2423334"><ele>308.0</ele><time>2026-04-12T12:48:41.753Z</time></trkpt><trkpt lat="43.4885168" lon="12.2422382"><ele>308.0</ele><time>2026-04-12T12:48:43.824Z</time></trkpt><trkpt lat="43.4885489" lon="12.2421026"><ele>308.0</ele><time>2026-04-12T12:50:29.737Z</time></trkpt><trkpt lat="43.488715" lon="12.2419237"><ele>308.0</ele><time>2026-04-12T12:50:31.736Z</time></trkpt><trkpt lat="43.4887972" lon="12.2418106"><ele>308.0</ele><time>2026-04-12T12:50:32.745Z</time></trkpt><trkpt lat="43.4888877" lon="12.2416853"><ele>308.0</ele><time>2026-04-12T12:50:33.743Z</time></trkpt><trkpt lat="43.4889951" lon="12.241549"><ele>308.0</ele><time>2026-04-12T12:50:34.751Z</time></trkpt><trkpt lat="43.489107" lon="12.2414093"><ele>307.33333333333337</ele><time>2026-04-12T12:50:35.742Z</time></trkpt><trkpt lat="43.4892339" lon="12.2412787"><ele>306.6666666666667</ele><time>2026-04-12T12:50:36.737Z</time></trkpt><trkpt lat="43.48938" lon="12.2411599"><ele>306.0</ele><time>2026-04-12T12:50:37.752Z</time></trkpt><trkpt lat="43.4895354" lon="12.2410434"><ele>306.3333333333333</ele><time>2026-04-12T12:50:38.741Z</time></trkpt><trkpt lat="43.4896921" lon="12.240925"><ele>306.66666666666663</ele><time>2026-04-12T12:50:39.752Z</time></trkpt><trkpt lat="43.4898452" lon="12.2408119"><ele>307.0</ele><time>2026-04-12T12:50:40.75Z</time></trkpt><trkpt lat="43.4899953" lon="12.2406993"><ele>306.66666666666663</ele><time>2026-04-12T12:50:41.74Z</time></trkpt><trkpt lat="43.4901501" lon="12.2405922"><ele>306.3333333333333</ele><time>2026-04-12T12:50:42.727Z</time></trkpt><trkpt lat="43.4903094" lon="12.2404754"><ele>306.0</ele><time>2026-04-12T12:50:43.753Z</time></trkpt><trkpt lat="43.4904739" lon="12.2403526"><ele>306.0</ele><time>2026-04-12T12:50:44.742Z</time></trkpt><trkpt lat="43.49064" lon="12.2402242"><ele>306.0</ele><time>2026-04-12T12:50:45.735Z</time></trkpt><trkpt lat="43.490808" lon="12.2400942"><ele>306.0</ele><time>2026-04-12T12:50:46.729Z</time></trkpt><trkpt lat="43.4909741" lon="12.2399539"><ele>305.6666666666667</ele><time>2026-04-12T12:50:47.76Z</time></trkpt><trkpt lat="43.4911301" lon="12.2397992"><ele>305.33333333333337</ele><time>2026-04-12T12:50:48.733Z</time></trkpt><trkpt lat="43.491272" lon="12.2396247"><ele>305.0</ele><time>2026-04-12T12:50:49.932Z</time></trkpt><trkpt lat="43.4916928" lon="12.2390197"><ele>305.33333333333337</ele><time>2026-04-12T12:50:52.745Z</time></trkpt><trkpt lat="43.4918445" lon="12.238829"><ele>305.6666666666667</ele><time>2026-04-12T12:50:53.731Z</time></trkpt><trkpt lat="43.4920036" lon="12.23866"><ele>306.0</ele><time>2026-04-12T12:50:54.757Z</time></trkpt><trkpt lat="43.4921827" lon="12.2385412"><ele>306.3333333333333</ele><time>2026-04-12T12:50:55.733Z</time></trkpt><trkpt lat="43.4923748" lon="12.2384613"><ele>306.66666666666663</ele><time>2026-04-12T12:50:56.736Z</time></trkpt><trkpt lat="43.492575" lon="12.2384083"><ele>307.0</ele><time>2026-04-12T12:50:57.743Z</time></trkpt><trkpt lat="43.4927778" lon="12.2383627"><ele>307.5</ele><time>2026-04-12T12:50:58.739Z</time></trkpt><trkpt lat="43.4929836" lon="12.2383224"><ele>308.0</ele><time>2026-04-12T12:50:59.857Z</time></trkpt><trkpt lat="43.4934093" lon="12.2382463"><ele>308.0</ele><time>2026-04-12T12:51:01.74Z</time></trkpt><trkpt lat="43.4936291" lon="12.2382199"><ele>308.0</ele><time>2026-04-12T12:51:02.733Z</time></trkpt><trkpt lat="43.4938522" lon="12.2381806"><ele>308.0</ele><time>2026-04-12T12:51:03.743Z</time></trkpt><trkpt lat="43.4940786" lon="12.2381354"><ele>307.5</ele><time>2026-04-12T12:51:04.732Z</time></trkpt><trkpt lat="43.4943079" lon="12.2380843"><ele>307.0</ele><time>2026-04-12T12:51:05.74Z</time></trkpt><trkpt lat="43.4945407" lon="12.2380358"><ele>307.0</ele><time>2026-04-12T12:51:06.734Z</time></trkpt><trkpt lat="43.4947715" lon="12.2379791"><ele>307.0</ele><time>2026-04-12T12:51:07.767Z</time></trkpt><trkpt lat="43.495004" lon="12.2379183"><ele>307.0</ele><time>2026-04-12T12:51:08.738Z</time></trkpt><trkpt lat="43.4952323" lon="12.2378603"><ele>307.0</ele><time>2026-04-12T12:51:09.741Z</time></trkpt><trkpt lat="43.4954596" lon="12.2378018"><ele>310.0</ele><time>2026-04-12T12:51:10.844Z</time></trkpt><trkpt lat="43.4959225" lon="12.2376923"><ele>310.0</ele><time>2026-04-12T12:51:12.773Z</time></trkpt><trkpt lat="43.4961593" lon="12.2376317"><ele>310.0</ele><time>2026-04-12T12:51:13.731Z</time></trkpt><trkpt lat="43.496396" lon="12.2375733"><ele>311.0</ele><time>2026-04-12T12:51:14.754Z</time></trkpt><trkpt lat="43.4966352" lon="12.2375111"><ele>312.0</ele><time>2026-04-12T12:51:15.738Z</time></trkpt><trkpt lat="43.4968773" lon="12.2374534"><ele>311.5</ele><time>2026-04-12T12:51:16.748Z</time></trkpt><trkpt lat="43.4971197" lon="12.2373966"><ele>311.0</ele><time>2026-04-12T12:51:17.749Z</time></trkpt><trkpt lat="43.4973672" lon="12.2373387"><ele>310.5</ele><time>2026-04-12T12:51:18.74Z</time></trkpt><trkpt lat="43.4976131" lon="12.2372773"><ele>310.0</ele><time>2026-04-12T12:51:19.759Z</time></trkpt><trkpt lat="43.4978547" lon="12.237216"><ele>311.0</ele><time>2026-04-12T12:51:20.743Z</time></trkpt><trkpt lat="43.4980848" lon="12.2371579"><ele>312.0</ele><time>2026-04-12T12:51:21.73Z</time></trkpt><trkpt lat="43.4983017" lon="12.2370916"><ele>312.0</ele><time>2026-04-12T12:51:22.744Z</time></trkpt><trkpt lat="43.4985128" lon="12.2369965"><ele>312.0</ele><time>2026-04-12T12:51:23.74Z</time></trkpt><trkpt lat="43.4987223" lon="12.2368616"><ele>312.5</ele><time>2026-04-12T12:51:24.741Z</time></trkpt><trkpt lat="43.498933" lon="12.2367138"><ele>313.0</ele><time>2026-04-12T12:51:25.77Z</time></trkpt><trkpt lat="43.4991399" lon="12.2365616"><ele>312.5</ele><time>2026-04-12T12:51:26.736Z</time></trkpt><trkpt lat="43.4993536" lon="12.2364103"><ele>312.0</ele><time>2026-04-12T12:51:27.737Z</time></trkpt><trkpt lat="43.4995663" lon="12.2362533"><ele>312.0</ele><time>2026-04-12T12:51:28.768Z</time></trkpt><trkpt lat="43.4997807" lon="12.2360947"><ele>312.0</ele><time>2026-04-12T12:51:29.739Z</time></trkpt><trkpt lat="43.4999972" lon="12.2359384"><ele>312.0</ele><time>2026-04-12T12:51:30.748Z</time></trkpt><trkpt lat="43.5002113" lon="12.23578"><ele>312.0</ele><time>2026-04-12T12:51:31.729Z</time></trkpt><trkpt lat="43.5006325" lon="12.2354712"><ele>314.0</ele><time>2026-04-12T12:51:33.747Z</time></trkpt><trkpt lat="43.500835" lon="12.2353224"><ele>316.0</ele><time>2026-04-12T12:51:34.744Z</time></trkpt><trkpt lat="43.5010216" lon="12.2351782"><ele>318.0</ele><time>2026-04-12T12:51:35.75Z</time></trkpt><trkpt lat="43.5012034" lon="12.2350293"><ele>317.3333333333333</ele><time>2026-04-12T12:51:36.744Z</time></trkpt><trkpt lat="43.5013789" lon="12.2348642"><ele>316.66666666666663</ele><time>2026-04-12T12:51:37.738Z</time></trkpt><trkpt lat="43.5015474" lon="12.2346726"><ele>316.0</ele><time>2026-04-12T12:51:38.735Z</time></trkpt><trkpt lat="43.5017084" lon="12.2344632"><ele>316.0</ele><time>2026-04-12T12:51:39.868Z</time></trkpt><trkpt lat="43.5019699" lon="12.2340167"><ele>316.0</ele><time>2026-04-12T12:51:41.745Z</time></trkpt><trkpt lat="43.5020806" lon="12.2337849"><ele>315.66666666666663</ele><time>2026-04-12T12:51:42.745Z</time></trkpt><trkpt lat="43.5021771" lon="12.2335328"><ele>315.3333333333333</ele><time>2026-04-12T12:51:43.741Z</time></trkpt><trkpt lat="43.5022528" lon="12.2332842"><ele>315.0</ele><time>2026-04-12T12:51:44.742Z</time></trkpt><trkpt lat="43.5023173" lon="12.2330309"><ele>315.0</ele><time>2026-04-12T12:51:45.744Z</time></trkpt><trkpt lat="43.5023702" lon="12.232784"><ele>315.0</ele><time>2026-04-12T12:51:46.743Z</time></trkpt><trkpt lat="43.5024115" lon="12.2325507"><ele>315.0</ele><time>2026-04-12T12:51:47.746Z</time></trkpt><trkpt lat="43.5024416" lon="12.2323225"><ele>315.0</ele><time>2026-04-12T12:51:48.741Z</time></trkpt><trkpt lat="43.5024589" lon="12.2321044"><ele>315.0</ele><time>2026-04-12T12:51:49.86Z</time></trkpt><trkpt lat="43.502495" lon="12.2316917"><ele>315.0</ele><time>2026-04-12T12:51:51.76Z</time></trkpt><trkpt lat="43.5025209" lon="12.2314914"><ele>315.0</ele><time>2026-04-12T12:51:52.74Z</time></trkpt><trkpt lat="43.5026059" lon="12.231093"><ele>315.0</ele><time>2026-04-12T12:51:54.732Z</time></trkpt><trkpt lat="43.5026763" lon="12.2309007"><ele>315.0</ele><time>2026-04-12T12:51:55.732Z</time></trkpt><trkpt lat="43.5027607" lon="12.2307026"><ele>315.0</ele><time>2026-04-12T12:51:56.768Z</time></trkpt><trkpt lat="43.5028498" lon="12.2305023"><ele>315.0</ele><time>2026-04-12T12:51:57.73Z</time></trkpt><trkpt lat="43.5029406" lon="12.2302982"><ele>315.0</ele><time>2026-04-12T12:51:58.745Z</time></trkpt><trkpt lat="43.5030292" lon="12.230096"><ele>315.0</ele><time>2026-04-12T12:51:59.745Z</time></trkpt><trkpt lat="43.5031138" lon="12.229888"><ele>315.0</ele><time>2026-04-12T12:52:00.763Z</time></trkpt><trkpt lat="43.5032001" lon="12.2296851"><ele>314.3333333333333</ele><time>2026-04-12T12:52:01.731Z</time></trkpt><trkpt lat="43.5032818" lon="12.2294982"><ele>313.66666666666663</ele><time>2026-04-12T12:52:02.737Z</time></trkpt><trkpt lat="43.5033648" lon="12.2293028"><ele>313.0</ele><time>2026-04-12T12:52:03.742Z</time></trkpt><trkpt lat="43.5034478" lon="12.2290977"><ele>312.3333333333333</ele><time>2026-04-12T12:52:04.731Z</time></trkpt><trkpt lat="43.5035308" lon="12.2288961"><ele>311.6666666666667</ele><time>2026-04-12T12:52:05.737Z</time></trkpt><trkpt lat="43.5036155" lon="12.2286853"><ele>311.0</ele><time>2026-04-12T12:52:06.733Z</time></trkpt><trkpt lat="43.5037051" lon="12.2284637"><ele>311.0</ele><time>2026-04-12T12:52:07.764Z</time></trkpt><trkpt lat="43.503797" lon="12.2282448"><ele>311.0</ele><time>2026-04-12T12:52:08.735Z</time></trkpt><trkpt lat="43.5038882" lon="12.2280271"><ele>311.0</ele><time>2026-04-12T12:52:09.745Z</time></trkpt><trkpt lat="43.5039785" lon="12.2278163"><ele>311.0</ele><time>2026-04-12T12:52:10.743Z</time></trkpt><trkpt lat="43.5040717" lon="12.2276189"><ele>311.0</ele><time>2026-04-12T12:52:11.738Z</time></trkpt><trkpt lat="43.5041788" lon="12.2274382"><ele>311.0</ele><time>2026-04-12T12:52:12.846Z</time></trkpt><trkpt lat="43.5044339" lon="12.2271222"><ele>311.0</ele><time>2026-04-12T12:52:14.758Z</time></trkpt><trkpt lat="43.5048363" lon="12.2266689"><ele>311.0</ele><time>2026-04-12T12:52:17.744Z</time></trkpt><trkpt lat="43.5049718" lon="12.2265228"><ele>311.0</ele><time>2026-04-12T12:52:18.736Z</time></trkpt><trkpt lat="43.5051024" lon="12.2263749"><ele>311.0</ele><time>2026-04-12T12:52:19.727Z</time></trkpt><trkpt lat="43.5052278" lon="12.2262346"><ele>311.5</ele><time>2026-04-12T12:52:20.839Z</time></trkpt><trkpt lat="43.5054799" lon="12.2259642"><ele>312.0</ele><time>2026-04-12T12:52:22.74Z</time></trkpt><trkpt lat="43.5056022" lon="12.2258302"><ele>312.0</ele><time>2026-04-12T12:52:23.737Z</time></trkpt><trkpt lat="43.5057148" lon="12.2256875"><ele>312.0</ele><time>2026-04-12T12:52:24.733Z</time></trkpt><trkpt lat="43.5058205" lon="12.2255461"><ele>312.0</ele><time>2026-04-12T12:52:25.754Z</time></trkpt><trkpt lat="43.5059138" lon="12.2254029"><ele>312.0</ele><time>2026-04-12T12:52:26.843Z</time></trkpt><trkpt lat="43.506058" lon="12.2250717"><ele>311.6666666666667</ele><time>2026-04-12T12:52:28.771Z</time></trkpt><trkpt lat="43.5061148" lon="12.2248795"><ele>311.33333333333337</ele><time>2026-04-12T12:52:29.727Z</time></trkpt><trkpt lat="43.5061667" lon="12.2246814"><ele>311.0</ele><time>2026-04-12T12:52:30.739Z</time></trkpt><trkpt lat="43.5062195" lon="12.2244818"><ele>311.33333333333337</ele><time>2026-04-12T12:52:31.732Z</time></trkpt><trkpt lat="43.5062788" lon="12.2242811"><ele>311.6666666666667</ele><time>2026-04-12T12:52:32.731Z</time></trkpt><trkpt lat="43.5063393" lon="12.2240797"><ele>312.0</ele><time>2026-04-12T12:52:33.73Z</time></trkpt><trkpt lat="43.506397" lon="12.2238738"><ele>312.0</ele><time>2026-04-12T12:52:34.746Z</time></trkpt><trkpt lat="43.5064542" lon="12.2236574"><ele>312.0</ele><time>2026-04-12T12:52:35.736Z</time></trkpt><trkpt lat="43.5065797" lon="12.2232417"><ele>311.6666666666667</ele><time>2026-04-12T12:52:37.733Z</time></trkpt><trkpt lat="43.506642" lon="12.2230344"><ele>311.33333333333337</ele><time>2026-04-12T12:52:38.748Z</time></trkpt><trkpt lat="43.5067065" lon="12.2228272"><ele>311.0</ele><time>2026-04-12T12:52:39.748Z</time></trkpt><trkpt lat="43.5067794" lon="12.22262"><ele>311.0</ele><time>2026-04-12T12:52:40.753Z</time></trkpt><trkpt lat="43.5068493" lon="12.2224133"><ele>311.0</ele><time>2026-04-12T12:52:41.731Z</time></trkpt><trkpt lat="43.5069183" lon="12.2222079"><ele>311.0</ele><time>2026-04-12T12:52:42.736Z</time></trkpt><trkpt lat="43.5069888" lon="12.2219988"><ele>310.6666666666667</ele><time>2026-04-12T12:52:43.742Z</time></trkpt><trkpt lat="43.5070577" lon="12.2217918"><ele>310.3333333333333</ele><time>2026-04-12T12:52:44.735Z</time></trkpt><trkpt lat="43.5071319" lon="12.2215888"><ele>310.0</ele><time>2026-04-12T12:52:45.843Z</time></trkpt><trkpt lat="43.5072882" lon="12.2211799"><ele>310.0</ele><time>2026-04-12T12:52:47.747Z</time></trkpt><trkpt lat="43.5073618" lon="12.2209808"><ele>310.0</ele><time>2026-04-12T12:52:48.834Z</time></trkpt><trkpt lat="43.5074962" lon="12.2206042"><ele>310.0</ele><time>2026-04-12T12:52:50.766Z</time></trkpt><trkpt lat="43.5075565" lon="12.2204149"><ele>310.0</ele><time>2026-04-12T12:52:51.743Z</time></trkpt><trkpt lat="43.5076061" lon="12.2202194"><ele>310.0</ele><time>2026-04-12T12:52:52.737Z</time></trkpt><trkpt lat="43.5076464" lon="12.2200158"><ele>310.0</ele><time>2026-04-12T12:52:53.738Z</time></trkpt><trkpt lat="43.5076774" lon="12.2198126"><ele>310.0</ele><time>2026-04-12T12:52:54.764Z</time></trkpt><trkpt lat="43.5077045" lon="12.2196207"><ele>310.0</ele><time>2026-04-12T12:52:55.74Z</time></trkpt><trkpt lat="43.5077323" lon="12.2194281"><ele>310.0</ele><time>2026-04-12T12:52:56.735Z</time></trkpt><trkpt lat="43.5077636" lon="12.2190119"><ele>309.5</ele><time>2026-04-12T12:52:58.735Z</time></trkpt><trkpt lat="43.5077541" lon="12.2188005"><ele>309.0</ele><time>2026-04-12T12:52:59.737Z</time></trkpt><trkpt lat="43.5077378" lon="12.2186007"><ele>308.5</ele><time>2026-04-12T12:53:00.818Z</time></trkpt><trkpt lat="43.507715" lon="12.218408"><ele>308.0</ele><time>2026-04-12T12:53:01.747Z</time></trkpt><trkpt lat="43.5076829" lon="12.2182244"><ele>307.75</ele><time>2026-04-12T12:53:02.733Z</time></trkpt><trkpt lat="43.5076447" lon="12.2180533"><ele>307.5</ele><time>2026-04-12T12:53:03.744Z</time></trkpt><trkpt lat="43.5075898" lon="12.2178838"><ele>307.25</ele><time>2026-04-12T12:53:04.747Z</time></trkpt><trkpt lat="43.5075162" lon="12.2177208"><ele>307.0</ele><time>2026-04-12T12:53:05.747Z</time></trkpt><trkpt lat="43.507413" lon="12.2175686"><ele>307.0</ele><time>2026-04-12T12:53:06.756Z</time></trkpt><trkpt lat="43.5072997" lon="12.2174396"><ele>307.0</ele><time>2026-04-12T12:53:07.742Z</time></trkpt><trkpt lat="43.507183" lon="12.2173104"><ele>307.0</ele><time>2026-04-12T12:53:08.763Z</time></trkpt><trkpt lat="43.5070674" lon="12.2171772"><ele>307.0</ele><time>2026-04-12T12:53:09.734Z</time></trkpt><trkpt lat="43.5069506" lon="12.2170415"><ele>306.66666666666663</ele><time>2026-04-12T12:53:10.748Z</time></trkpt><trkpt lat="43.5068329" lon="12.2168971"><ele>306.3333333333333</ele><time>2026-04-12T12:53:11.754Z</time></trkpt><trkpt lat="43.5067171" lon="12.2167476"><ele>306.0</ele><time>2026-04-12T12:53:12.735Z</time></trkpt><trkpt lat="43.5066106" lon="12.2165973"><ele>306.25</ele><time>2026-04-12T12:53:13.744Z</time></trkpt><trkpt lat="43.5065066" lon="12.2164545"><ele>306.5</ele><time>2026-04-12T12:53:14.737Z</time></trkpt><trkpt lat="43.5063999" lon="12.2163116"><ele>306.75</ele><time>2026-04-12T12:53:15.765Z</time></trkpt><trkpt lat="43.5062905" lon="12.2161733"><ele>307.0</ele><time>2026-04-12T12:53:16.747Z</time></trkpt><trkpt lat="43.5061797" lon="12.2160416"><ele>307.0</ele><time>2026-04-12T12:53:17.847Z</time></trkpt><trkpt lat="43.5059695" lon="12.2157942"><ele>307.0</ele><time>2026-04-12T12:53:19.77Z</time></trkpt><trkpt lat="43.50587" lon="12.2156773"><ele>307.0</ele><time>2026-04-12T12:53:20.746Z</time></trkpt><trkpt lat="43.5057647" lon="12.215561"><ele>306.5</ele><time>2026-04-12T12:53:21.739Z</time></trkpt><trkpt lat="43.5056603" lon="12.215445"><ele>306.0</ele><time>2026-04-12T12:53:22.76Z</time></trkpt><trkpt lat="43.5055642" lon="12.2153254"><ele>305.5</ele><time>2026-04-12T12:53:23.747Z</time></trkpt><trkpt lat="43.5054704" lon="12.2151934"><ele>305.0</ele><time>2026-04-12T12:53:24.751Z</time></trkpt><trkpt lat="43.5053805" lon="12.2150513"><ele>304.6666666666667</ele><time>2026-04-12T12:53:25.747Z</time></trkpt><trkpt lat="43.5052908" lon="12.2148897"><ele>304.3333333333333</ele><time>2026-04-12T12:53:26.744Z</time></trkpt><trkpt lat="43.5051965" lon="12.2147181"><ele>304.0</ele><time>2026-04-12T12:53:27.774Z</time></trkpt><trkpt lat="43.5051102" lon="12.2145446"><ele>304.0</ele><time>2026-04-12T12:53:28.738Z</time></trkpt><trkpt lat="43.5050229" lon="12.2143738"><ele>304.0</ele><time>2026-04-12T12:53:29.734Z</time></trkpt><trkpt lat="43.5049313" lon="12.2141977"><ele>304.0</ele><time>2026-04-12T12:53:30.734Z</time></trkpt><trkpt lat="43.504841" lon="12.2140232"><ele>304.0</ele><time>2026-04-12T12:53:31.742Z</time></trkpt><trkpt lat="43.504752" lon="12.213847"><ele>304.0</ele><time>2026-04-12T12:53:32.741Z</time></trkpt><trkpt lat="43.5046647" lon="12.2136678"><ele>304.0</ele><time>2026-04-12T12:53:33.733Z</time></trkpt><trkpt lat="43.504574" lon="12.2134883"><ele>303.66666666666663</ele><time>2026-04-12T12:53:34.771Z</time></trkpt><trkpt lat="43.5044873" lon="12.2133125"><ele>303.3333333333333</ele><time>2026-04-12T12:53:35.739Z</time></trkpt><trkpt lat="43.5043998" lon="12.2131391"><ele>303.0</ele><time>2026-04-12T12:53:36.738Z</time></trkpt><trkpt lat="43.5043109" lon="12.2129584"><ele>303.0</ele><time>2026-04-12T12:53:37.747Z</time></trkpt><trkpt lat="43.5042229" lon="12.2127759"><ele>303.0</ele><time>2026-04-12T12:53:38.729Z</time></trkpt><trkpt lat="43.5040409" lon="12.2124191"><ele>303.0</ele><time>2026-04-12T12:53:40.766Z</time></trkpt><trkpt lat="43.5039501" lon="12.2122434"><ele>303.0</ele><time>2026-04-12T12:53:41.751Z</time></trkpt><trkpt lat="43.5038597" lon="12.2120715"><ele>303.0</ele><time>2026-04-12T12:53:42.837Z</time></trkpt><trkpt lat="43.5037672" lon="12.2118964"><ele>302.6666666666667</ele><time>2026-04-12T12:53:43.746Z</time></trkpt><trkpt lat="43.5036767" lon="12.2117221"><ele>302.33333333333337</ele><time>2026-04-12T12:53:44.766Z</time></trkpt><trkpt lat="43.5035852" lon="12.2115484"><ele>302.0</ele><time>2026-04-12T12:53:45.735Z</time></trkpt><trkpt lat="43.5035042" lon="12.2113834"><ele>301.75</ele><time>2026-04-12T12:53:46.784Z</time></trkpt><trkpt lat="43.5034247" lon="12.2112296"><ele>301.5</ele><time>2026-04-12T12:53:47.738Z</time></trkpt><trkpt lat="43.5033498" lon="12.211089"><ele>301.25</ele><time>2026-04-12T12:53:48.748Z</time></trkpt><trkpt lat="43.5032858" lon="12.2109611"><ele>301.0</ele><time>2026-04-12T12:53:49.735Z</time></trkpt><trkpt lat="43.5032249" lon="12.2108454"><ele>301.25</ele><time>2026-04-12T12:53:50.867Z</time></trkpt><trkpt lat="43.5031255" lon="12.2106238"><ele>301.5</ele><time>2026-04-12T12:53:52.75Z</time></trkpt><trkpt lat="43.5030756" lon="12.210513"><ele>301.75</ele><time>2026-04-12T12:53:53.74Z</time></trkpt><trkpt lat="43.5030239" lon="12.2103996"><ele>302.0</ele><time>2026-04-12T12:53:54.75Z</time></trkpt><trkpt lat="43.5029636" lon="12.210278"><ele>302.0</ele><time>2026-04-12T12:53:55.753Z</time></trkpt><trkpt lat="43.5028964" lon="12.2101515"><ele>302.0</ele><time>2026-04-12T12:53:56.752Z</time></trkpt><trkpt lat="43.5028328" lon="12.2100166"><ele>302.0</ele><time>2026-04-12T12:53:57.744Z</time></trkpt><trkpt lat="43.5027684" lon="12.2098847"><ele>302.0</ele><time>2026-04-12T12:53:58.748Z</time></trkpt><trkpt lat="43.5027038" lon="12.2097458"><ele>301.75</ele><time>2026-04-12T12:53:59.766Z</time></trkpt><trkpt lat="43.5025845" lon="12.2094835"><ele>301.5</ele><time>2026-04-12T12:54:01.732Z</time></trkpt><trkpt lat="43.5025425" lon="12.2093799"><ele>301.25</ele><time>2026-04-12T12:54:02.743Z</time></trkpt><trkpt lat="43.5025035" lon="12.2092979"><ele>301.0</ele><time>2026-04-12T12:54:03.747Z</time></trkpt><trkpt lat="43.5024568" lon="12.2091681"><ele>301.0</ele><time>2026-04-12T12:54:05.737Z</time></trkpt><trkpt lat="43.5024517" lon="12.2090673"><ele>301.0</ele><time>2026-04-12T12:54:07.748Z</time></trkpt><trkpt lat="43.5024954" lon="12.2089421"><ele>301.0</ele><time>2026-04-12T12:54:10.742Z</time></trkpt><trkpt lat="43.5025539" lon="12.2088834"><ele>301.0</ele><time>2026-04-12T12:54:11.741Z</time></trkpt><trkpt lat="43.5026288" lon="12.2088236"><ele>301.0</ele><time>2026-04-12T12:54:12.78Z</time></trkpt><trkpt lat="43.5027233" lon="12.2087577"><ele>301.0</ele><time>2026-04-12T12:54:13.735Z</time></trkpt><trkpt lat="43.5028245" lon="12.2086891"><ele>301.5</ele><time>2026-04-12T12:54:14.746Z</time></trkpt><trkpt lat="43.5029234" lon="12.2086259"><ele>302.0</ele><time>2026-04-12T12:54:15.743Z</time></trkpt><trkpt lat="43.503022" lon="12.2085631"><ele>302.5</ele><time>2026-04-12T12:54:16.75Z</time></trkpt><trkpt lat="43.5031288" lon="12.2084929"><ele>303.0</ele><time>2026-04-12T12:54:17.734Z</time></trkpt><trkpt lat="43.5032415" lon="12.2084212"><ele>303.0</ele><time>2026-04-12T12:54:18.766Z</time></trkpt><trkpt lat="43.5033598" lon="12.2083362"><ele>303.0</ele><time>2026-04-12T12:54:19.744Z</time></trkpt><trkpt lat="43.503481" lon="12.2082504"><ele>303.0</ele><time>2026-04-12T12:54:20.747Z</time></trkpt><trkpt lat="43.5037152" lon="12.208083"><ele>302.0</ele><time>2026-04-12T12:54:22.767Z</time></trkpt><trkpt lat="43.5038251" lon="12.2080023"><ele>301.0</ele><time>2026-04-12T12:54:23.74Z</time></trkpt><trkpt lat="43.5039279" lon="12.2079251"><ele>300.0</ele><time>2026-04-12T12:54:24.748Z</time></trkpt><trkpt lat="43.5040328" lon="12.2078475"><ele>299.0</ele><time>2026-04-12T12:54:25.737Z</time></trkpt><trkpt lat="43.504136" lon="12.2077746"><ele>299.0</ele><time>2026-04-12T12:54:26.74Z</time></trkpt><trkpt lat="43.5042265" lon="12.2077079"><ele>299.0</ele><time>2026-04-12T12:54:27.729Z</time></trkpt><trkpt lat="43.5043101" lon="12.2076455"><ele>299.0</ele><time>2026-04-12T12:54:28.744Z</time></trkpt><trkpt lat="43.5043942" lon="12.2075897"><ele>299.0</ele><time>2026-04-12T12:54:29.735Z</time></trkpt><trkpt lat="43.5044723" lon="12.2075339"><ele>299.0</ele><time>2026-04-12T12:54:30.763Z</time></trkpt><trkpt lat="43.5045384" lon="12.2074804"><ele>299.0</ele><time>2026-04-12T12:54:31.738Z</time></trkpt><trkpt lat="43.5046039" lon="12.2074339"><ele>299.0</ele><time>2026-04-12T12:54:32.74Z</time></trkpt><trkpt lat="43.5046661" lon="12.2073909"><ele>299.0</ele><time>2026-04-12T12:54:33.736Z</time></trkpt><trkpt lat="43.5047267" lon="12.2073493"><ele>299.0</ele><time>2026-04-12T12:54:34.751Z</time></trkpt><trkpt lat="43.5047874" lon="12.2073092"><ele>299.0</ele><time>2026-04-12T12:54:35.735Z</time></trkpt><trkpt lat="43.5048558" lon="12.2072666"><ele>299.0</ele><time>2026-04-12T12:54:36.749Z</time></trkpt><trkpt lat="43.5049216" lon="12.2072317"><ele>299.0</ele><time>2026-04-12T12:54:37.741Z</time></trkpt><trkpt lat="43.504985" lon="12.2072105"><ele>299.0</ele><time>2026-04-12T12:54:38.748Z</time></trkpt><trkpt lat="43.5050514" lon="12.2071982"><ele>299.0</ele><time>2026-04-12T12:54:39.737Z</time></trkpt><trkpt lat="43.5051202" lon="12.2071797"><ele>299.0</ele><time>2026-04-12T12:54:40.749Z</time></trkpt><trkpt lat="43.5052144" lon="12.2070994"><ele>299.0</ele><time>2026-04-12T12:54:42.839Z</time></trkpt><trkpt lat="43.5051696" lon="12.2068109"><ele>299.0</ele><time>2026-04-12T12:54:46.766Z</time></trkpt><trkpt lat="43.5051028" lon="12.2067473"><ele>299.0</ele><time>2026-04-12T12:54:47.748Z</time></trkpt><trkpt lat="43.5050333" lon="12.2066885"><ele>299.0</ele><time>2026-04-12T12:54:48.757Z</time></trkpt><trkpt lat="43.504963" lon="12.2066279"><ele>299.0</ele><time>2026-04-12T12:54:49.923Z</time></trkpt><trkpt lat="43.5048381" lon="12.2064544"><ele>299.0</ele><time>2026-04-12T12:54:51.757Z</time></trkpt><trkpt lat="43.5047792" lon="12.206363"><ele>299.0</ele><time>2026-04-12T12:54:52.752Z</time></trkpt><trkpt lat="43.5047088" lon="12.2062717"><ele>299.0</ele><time>2026-04-12T12:54:53.743Z</time></trkpt><trkpt lat="43.5046703" lon="12.2061319"><ele>299.0</ele><time>2026-04-12T12:54:54.759Z</time></trkpt><trkpt lat="43.5046282" lon="12.2060029"><ele>299.0</ele><time>2026-04-12T12:54:55.736Z</time></trkpt><trkpt lat="43.5045807" lon="12.2058746"><ele>299.0</ele><time>2026-04-12T12:54:56.757Z</time></trkpt><trkpt lat="43.5045318" lon="12.2057492"><ele>298.5</ele><time>2026-04-12T12:54:57.747Z</time></trkpt><trkpt lat="43.5044844" lon="12.2056231"><ele>298.0</ele><time>2026-04-12T12:54:58.746Z</time></trkpt><trkpt lat="43.5044135" lon="12.2054817"><ele>297.5</ele><time>2026-04-12T12:54:59.75Z</time></trkpt><trkpt lat="43.504329" lon="12.2053028"><ele>297.0</ele><time>2026-04-12T12:55:00.753Z</time></trkpt><trkpt lat="43.5042433" lon="12.2050802"><ele>297.0</ele><time>2026-04-12T12:55:01.765Z</time></trkpt><trkpt lat="43.5041566" lon="12.2048297"><ele>297.0</ele><time>2026-04-12T12:55:02.757Z</time></trkpt><trkpt lat="43.5040638" lon="12.2045745"><ele>297.0</ele><time>2026-04-12T12:55:03.735Z</time></trkpt><trkpt lat="43.5038831" lon="12.2040927"><ele>296.6666666666667</ele><time>2026-04-12T12:55:05.746Z</time></trkpt><trkpt lat="43.5037909" lon="12.2038578"><ele>296.33333333333337</ele><time>2026-04-12T12:55:06.766Z</time></trkpt><trkpt lat="43.5037103" lon="12.2036435"><ele>296.0</ele><time>2026-04-12T12:55:07.739Z</time></trkpt><trkpt lat="43.5036342" lon="12.2034536"><ele>296.0</ele><time>2026-04-12T12:55:08.74Z</time></trkpt><trkpt lat="43.5035774" lon="12.2032858"><ele>296.0</ele><time>2026-04-12T12:55:09.742Z</time></trkpt><trkpt lat="43.5035419" lon="12.2031129"><ele>296.0</ele><time>2026-04-12T12:55:10.745Z</time></trkpt><trkpt lat="43.5035438" lon="12.2029367"><ele>296.0</ele><time>2026-04-12T12:55:11.744Z</time></trkpt><trkpt lat="43.5035445" lon="12.2027911"><ele>296.0</ele><time>2026-04-12T12:55:12.737Z</time></trkpt><trkpt lat="43.503497" lon="12.2026696"><ele>296.0</ele><time>2026-04-12T12:55:13.761Z</time></trkpt><trkpt lat="43.5034044" lon="12.2025615"><ele>296.0</ele><time>2026-04-12T12:55:14.813Z</time></trkpt><trkpt lat="43.5032985" lon="12.202432"><ele>296.0</ele><time>2026-04-12T12:55:15.739Z</time></trkpt><trkpt lat="43.5031879" lon="12.2022216"><ele>296.0</ele><time>2026-04-12T12:55:16.769Z</time></trkpt><trkpt lat="43.5030934" lon="12.2019494"><ele>296.0</ele><time>2026-04-12T12:55:17.732Z</time></trkpt><trkpt lat="43.5029814" lon="12.2016822"><ele>296.0</ele><time>2026-04-12T12:55:18.73Z</time></trkpt><trkpt lat="43.5028744" lon="12.2014035"><ele>296.0</ele><time>2026-04-12T12:55:19.756Z</time></trkpt><trkpt lat="43.5027561" lon="12.2011343"><ele>296.0</ele><time>2026-04-12T12:55:20.737Z</time></trkpt><trkpt lat="43.5026456" lon="12.2008637"><ele>296.6666666666667</ele><time>2026-04-12T12:55:21.744Z</time></trkpt><trkpt lat="43.502541" lon="12.2006107"><ele>297.3333333333333</ele><time>2026-04-12T12:55:22.837Z</time></trkpt><trkpt lat="43.5024461" lon="12.2003741"><ele>298.0</ele><time>2026-04-12T12:55:23.75Z</time></trkpt><trkpt lat="43.5023591" lon="12.2001458"><ele>296.5</ele><time>2026-04-12T12:55:24.756Z</time></trkpt><trkpt lat="43.5021816" lon="12.1996789"><ele>295.0</ele><time>2026-04-12T12:55:26.746Z</time></trkpt><trkpt lat="43.5020884" lon="12.1994463"><ele>294.3333333333333</ele><time>2026-04-12T12:55:27.738Z</time></trkpt><trkpt lat="43.5019936" lon="12.1992105"><ele>293.6666666666667</ele><time>2026-04-12T12:55:28.764Z</time></trkpt><trkpt lat="43.5018967" lon="12.1989698"><ele>293.0</ele><time>2026-04-12T12:55:29.754Z</time></trkpt><trkpt lat="43.5017945" lon="12.1987271"><ele>292.6666666666667</ele><time>2026-04-12T12:55:30.736Z</time></trkpt><trkpt lat="43.5016846" lon="12.1984862"><ele>292.3333333333333</ele><time>2026-04-12T12:55:31.762Z</time></trkpt><trkpt lat="43.5015648" lon="12.1982489"><ele>292.0</ele><time>2026-04-12T12:55:32.736Z</time></trkpt><trkpt lat="43.5014417" lon="12.1980219"><ele>292.0</ele><time>2026-04-12T12:55:33.735Z</time></trkpt><trkpt lat="43.501314" lon="12.1978088"><ele>292.0</ele><time>2026-04-12T12:55:34.836Z</time></trkpt><trkpt lat="43.5011933" lon="12.1976134"><ele>292.0</ele><time>2026-04-12T12:55:35.744Z</time></trkpt><trkpt lat="43.5010831" lon="12.1974318"><ele>292.0</ele><time>2026-04-12T12:55:36.768Z</time></trkpt><trkpt lat="43.5009849" lon="12.1972677"><ele>292.0</ele><time>2026-04-12T12:55:37.832Z</time></trkpt><trkpt lat="43.5009086" lon="12.1971273"><ele>292.0</ele><time>2026-04-12T12:55:38.743Z</time></trkpt><trkpt lat="43.5008468" lon="12.1970126"><ele>292.0</ele><time>2026-04-12T12:55:39.756Z</time></trkpt><trkpt lat="43.5008109" lon="12.1969061"><ele>292.0</ele><time>2026-04-12T12:55:40.75Z</time></trkpt><trkpt lat="43.5007766" lon="12.1967841"><ele>292.0</ele><time>2026-04-12T12:55:41.755Z</time></trkpt><trkpt lat="43.5007605" lon="12.1966552"><ele>292.0</ele><time>2026-04-12T12:55:42.749Z</time></trkpt><trkpt lat="43.5007808" lon="12.1965309"><ele>292.0</ele><time>2026-04-12T12:55:43.755Z</time></trkpt><trkpt lat="43.5008414" lon="12.1964252"><ele>292.0</ele><time>2026-04-12T12:55:44.747Z</time></trkpt><trkpt lat="43.5009074" lon="12.1962998"><ele>292.3333333333333</ele><time>2026-04-12T12:55:45.839Z</time></trkpt><trkpt lat="43.5010515" lon="12.195986"><ele>292.6666666666667</ele><time>2026-04-12T12:55:47.758Z</time></trkpt><trkpt lat="43.501155" lon="12.1958154"><ele>293.0</ele><time>2026-04-12T12:55:48.734Z</time></trkpt><trkpt lat="43.5012751" lon="12.1956446"><ele>293.0</ele><time>2026-04-12T12:55:49.845Z</time></trkpt><trkpt lat="43.5015445" lon="12.1952976"><ele>293.0</ele><time>2026-04-12T12:55:51.756Z</time></trkpt><trkpt lat="43.5016942" lon="12.1951277"><ele>293.0</ele><time>2026-04-12T12:55:52.762Z</time></trkpt><trkpt lat="43.5018451" lon="12.1949506"><ele>293.0</ele><time>2026-04-12T12:55:53.74Z</time></trkpt><trkpt lat="43.5019912" lon="12.1947727"><ele>293.0</ele><time>2026-04-12T12:55:54.757Z</time></trkpt><trkpt lat="43.5021358" lon="12.1946"><ele>293.6666666666667</ele><time>2026-04-12T12:55:55.752Z</time></trkpt><trkpt lat="43.5022795" lon="12.1944244"><ele>294.3333333333333</ele><time>2026-04-12T12:55:56.778Z</time></trkpt><trkpt lat="43.5024339" lon="12.1942491"><ele>295.0</ele><time>2026-04-12T12:55:57.742Z</time></trkpt><trkpt lat="43.5025945" lon="12.1940683"><ele>294.66666666666663</ele><time>2026-04-12T12:55:58.749Z</time></trkpt><trkpt lat="43.502766" lon="12.1938906"><ele>294.3333333333333</ele><time>2026-04-12T12:55:59.743Z</time></trkpt><trkpt lat="43.5029486" lon="12.1937172"><ele>294.0</ele><time>2026-04-12T12:56:00.764Z</time></trkpt><trkpt lat="43.5031401" lon="12.1935409"><ele>294.0</ele><time>2026-04-12T12:56:01.732Z</time></trkpt><trkpt lat="43.5033343" lon="12.1933587"><ele>294.0</ele><time>2026-04-12T12:56:02.736Z</time></trkpt><trkpt lat="43.5035273" lon="12.1931747"><ele>294.0</ele><time>2026-04-12T12:56:03.738Z</time></trkpt><trkpt lat="43.5037188" lon="12.1929922"><ele>294.0</ele><time>2026-04-12T12:56:04.739Z</time></trkpt><trkpt lat="43.5039163" lon="12.1928106"><ele>294.0</ele><time>2026-04-12T12:56:05.743Z</time></trkpt><trkpt lat="43.5041137" lon="12.1926324"><ele>294.0</ele><time>2026-04-12T12:56:06.73Z</time></trkpt><trkpt lat="43.5045145" lon="12.1922763"><ele>295.0</ele><time>2026-04-12T12:56:08.85Z</time></trkpt><trkpt lat="43.5049255" lon="12.1919179"><ele>295.0</ele><time>2026-04-12T12:56:10.772Z</time></trkpt><trkpt lat="43.5051353" lon="12.1917391"><ele>295.0</ele><time>2026-04-12T12:56:11.757Z</time></trkpt><trkpt lat="43.5053445" lon="12.1915625"><ele>295.5</ele><time>2026-04-12T12:56:12.756Z</time></trkpt><trkpt lat="43.5055518" lon="12.1913841"><ele>296.0</ele><time>2026-04-12T12:56:13.746Z</time></trkpt><trkpt lat="43.5057569" lon="12.1912108"><ele>296.0</ele><time>2026-04-12T12:56:14.777Z</time></trkpt><trkpt lat="43.5059634" lon="12.19104"><ele>296.0</ele><time>2026-04-12T12:56:15.738Z</time></trkpt><trkpt lat="43.5061674" lon="12.190868"><ele>296.0</ele><time>2026-04-12T12:56:16.741Z</time></trkpt><trkpt lat="43.5063715" lon="12.1906927"><ele>296.0</ele><time>2026-04-12T12:56:17.743Z</time></trkpt><trkpt lat="43.5065774" lon="12.1905165"><ele>295.0</ele><time>2026-04-12T12:56:18.754Z</time></trkpt><trkpt lat="43.5067775" lon="12.1903474"><ele>294.0</ele><time>2026-04-12T12:56:19.742Z</time></trkpt><trkpt lat="43.5069658" lon="12.1901851"><ele>294.5</ele><time>2026-04-12T12:56:20.739Z</time></trkpt><trkpt lat="43.507154" lon="12.19002"><ele>295.0</ele><time>2026-04-12T12:56:21.746Z</time></trkpt><trkpt lat="43.5073502" lon="12.1898491"><ele>294.5</ele><time>2026-04-12T12:56:22.748Z</time></trkpt><trkpt lat="43.507553" lon="12.1896741"><ele>294.0</ele><time>2026-04-12T12:56:23.877Z</time></trkpt><trkpt lat="43.5077606" lon="12.1894915"><ele>294.0</ele><time>2026-04-12T12:56:24.843Z</time></trkpt><trkpt lat="43.5079732" lon="12.1893068"><ele>294.0</ele><time>2026-04-12T12:56:25.745Z</time></trkpt><trkpt lat="43.508189" lon="12.1891203"><ele>294.0</ele><time>2026-04-12T12:56:26.757Z</time></trkpt><trkpt lat="43.508404" lon="12.1889301"><ele>294.0</ele><time>2026-04-12T12:56:27.741Z</time></trkpt><trkpt lat="43.5088436" lon="12.1885442"><ele>294.0</ele><time>2026-04-12T12:56:29.744Z</time></trkpt><trkpt lat="43.5090653" lon="12.1883491"><ele>294.0</ele><time>2026-04-12T12:56:30.736Z</time></trkpt><trkpt lat="43.5092865" lon="12.1881578"><ele>294.0</ele><time>2026-04-12T12:56:31.753Z</time></trkpt><trkpt lat="43.5095073" lon="12.1879682"><ele>294.0</ele><time>2026-04-12T12:56:32.757Z</time></trkpt><trkpt lat="43.5097244" lon="12.1877749"><ele>295.0</ele><time>2026-04-12T12:56:33.733Z</time></trkpt><trkpt lat="43.5099371" lon="12.1875895"><ele>296.0</ele><time>2026-04-12T12:56:34.739Z</time></trkpt><trkpt lat="43.5101478" lon="12.1874062"><ele>295.0</ele><time>2026-04-12T12:56:35.754Z</time></trkpt><trkpt lat="43.5103589" lon="12.1872283"><ele>294.0</ele><time>2026-04-12T12:56:36.75Z</time></trkpt><trkpt lat="43.5105664" lon="12.1870494"><ele>293.0</ele><time>2026-04-12T12:56:37.751Z</time></trkpt><trkpt lat="43.5107766" lon="12.1868694"><ele>292.0</ele><time>2026-04-12T12:56:38.746Z</time></trkpt><trkpt lat="43.5109853" lon="12.1866867"><ele>293.0</ele><time>2026-04-12T12:56:39.761Z</time></trkpt><trkpt lat="43.5111936" lon="12.1865053"><ele>294.0</ele><time>2026-04-12T12:56:40.75Z</time></trkpt><trkpt lat="43.5114048" lon="12.1863236"><ele>294.5</ele><time>2026-04-12T12:56:41.754Z</time></trkpt><trkpt lat="43.5116128" lon="12.1861359"><ele>295.0</ele><time>2026-04-12T12:56:42.743Z</time></trkpt><trkpt lat="43.5118214" lon="12.1859482"><ele>295.0</ele><time>2026-04-12T12:56:43.77Z</time></trkpt><trkpt lat="43.5120346" lon="12.185761"><ele>295.0</ele><time>2026-04-12T12:56:44.736Z</time></trkpt><trkpt lat="43.5122522" lon="12.1855818"><ele>295.0</ele><time>2026-04-12T12:56:45.737Z</time></trkpt><trkpt lat="43.5124699" lon="12.1854035"><ele>295.0</ele><time>2026-04-12T12:56:46.769Z</time></trkpt><trkpt lat="43.5126874" lon="12.1852217"><ele>295.5</ele><time>2026-04-12T12:56:47.741Z</time></trkpt><trkpt lat="43.5129083" lon="12.1850365"><ele>296.0</ele><time>2026-04-12T12:56:48.743Z</time></trkpt><trkpt lat="43.5133553" lon="12.1846555"><ele>296.0</ele><time>2026-04-12T12:56:50.776Z</time></trkpt><trkpt lat="43.5135738" lon="12.1844622"><ele>296.0</ele><time>2026-04-12T12:56:51.733Z</time></trkpt><trkpt lat="43.5137914" lon="12.1842652"><ele>296.5</ele><time>2026-04-12T12:56:52.749Z</time></trkpt><trkpt lat="43.5140069" lon="12.1840633"><ele>297.0</ele><time>2026-04-12T12:56:53.741Z</time></trkpt><trkpt lat="43.5142246" lon="12.1838579"><ele>296.0</ele><time>2026-04-12T12:56:54.76Z</time></trkpt><trkpt lat="43.5144422" lon="12.1836538"><ele>295.0</ele><time>2026-04-12T12:56:55.743Z</time></trkpt><trkpt lat="43.5146585" lon="12.1834495"><ele>295.0</ele><time>2026-04-12T12:56:56.762Z</time></trkpt><trkpt lat="43.5148755" lon="12.1832454"><ele>295.0</ele><time>2026-04-12T12:56:57.745Z</time></trkpt><trkpt lat="43.5150914" lon="12.1830401"><ele>294.5</ele><time>2026-04-12T12:56:58.742Z</time></trkpt><trkpt lat="43.515307" lon="12.1828376"><ele>294.0</ele><time>2026-04-12T12:56:59.736Z</time></trkpt><trkpt lat="43.5155241" lon="12.1826357"><ele>294.0</ele><time>2026-04-12T12:57:00.774Z</time></trkpt><trkpt lat="43.5157361" lon="12.1824312"><ele>294.0</ele><time>2026-04-12T12:57:01.743Z</time></trkpt><trkpt lat="43.5159485" lon="12.1822278"><ele>294.0</ele><time>2026-04-12T12:57:02.749Z</time></trkpt><trkpt lat="43.5161619" lon="12.1820285"><ele>294.0</ele><time>2026-04-12T12:57:03.741Z</time></trkpt><trkpt lat="43.5163725" lon="12.1818299"><ele>294.0</ele><time>2026-04-12T12:57:04.761Z</time></trkpt><trkpt lat="43.5165805" lon="12.181623"><ele>294.0</ele><time>2026-04-12T12:57:05.739Z</time></trkpt><trkpt lat="43.5167908" lon="12.1814161"><ele>294.0</ele><time>2026-04-12T12:57:06.741Z</time></trkpt><trkpt lat="43.517005" lon="12.1812143"><ele>294.0</ele><time>2026-04-12T12:57:07.74Z</time></trkpt><trkpt lat="43.5172211" lon="12.181009"><ele>294.0</ele><time>2026-04-12T12:57:08.769Z</time></trkpt><trkpt lat="43.5174382" lon="12.1808063"><ele>294.0</ele><time>2026-04-12T12:57:09.726Z</time></trkpt><trkpt lat="43.5178765" lon="12.1803917"><ele>293.0</ele><time>2026-04-12T12:57:11.738Z</time></trkpt><trkpt lat="43.5180962" lon="12.1801829"><ele>292.0</ele><time>2026-04-12T12:57:12.76Z</time></trkpt><trkpt lat="43.5183172" lon="12.1799728"><ele>291.5</ele><time>2026-04-12T12:57:13.736Z</time></trkpt><trkpt lat="43.5185396" lon="12.1797604"><ele>291.0</ele><time>2026-04-12T12:57:14.742Z</time></trkpt><trkpt lat="43.5187611" lon="12.1795521"><ele>291.0</ele><time>2026-04-12T12:57:15.741Z</time></trkpt><trkpt lat="43.5189826" lon="12.1793436"><ele>291.0</ele><time>2026-04-12T12:57:16.837Z</time></trkpt><trkpt lat="43.5192071" lon="12.179133"><ele>291.0</ele><time>2026-04-12T12:57:17.752Z</time></trkpt><trkpt lat="43.5194298" lon="12.1789222"><ele>291.0</ele><time>2026-04-12T12:57:18.779Z</time></trkpt><trkpt lat="43.5196518" lon="12.1787131"><ele>292.5</ele><time>2026-04-12T12:57:19.738Z</time></trkpt><trkpt lat="43.5198722" lon="12.1785048"><ele>294.0</ele><time>2026-04-12T12:57:20.754Z</time></trkpt><trkpt lat="43.5200978" lon="12.1782932"><ele>293.0</ele><time>2026-04-12T12:57:21.738Z</time></trkpt><trkpt lat="43.5203195" lon="12.1780825"><ele>292.0</ele><time>2026-04-12T12:57:22.745Z</time></trkpt><trkpt lat="43.5205464" lon="12.1778696"><ele>292.0</ele><time>2026-04-12T12:57:23.74Z</time></trkpt><trkpt lat="43.5207681" lon="12.1776592"><ele>292.0</ele><time>2026-04-12T12:57:24.751Z</time></trkpt><trkpt lat="43.5209911" lon="12.177447"><ele>291.5</ele><time>2026-04-12T12:57:25.769Z</time></trkpt><trkpt lat="43.5212163" lon="12.1772329"><ele>291.0</ele><time>2026-04-12T12:57:26.748Z</time></trkpt><trkpt lat="43.5214409" lon="12.1770237"><ele>291.0</ele><time>2026-04-12T12:57:27.761Z</time></trkpt><trkpt lat="43.521664" lon="12.1768139"><ele>291.0</ele><time>2026-04-12T12:57:28.731Z</time></trkpt><trkpt lat="43.5218916" lon="12.1766028"><ele>292.0</ele><time>2026-04-12T12:57:29.765Z</time></trkpt><trkpt lat="43.522115" lon="12.1763927"><ele>293.0</ele><time>2026-04-12T12:57:30.852Z</time></trkpt><trkpt lat="43.5225625" lon="12.1759688"><ele>293.0</ele><time>2026-04-12T12:57:32.765Z</time></trkpt><trkpt lat="43.5227863" lon="12.1757589"><ele>293.0</ele><time>2026-04-12T12:57:33.735Z</time></trkpt><trkpt lat="43.5230088" lon="12.1755537"><ele>293.0</ele><time>2026-04-12T12:57:34.736Z</time></trkpt><trkpt lat="43.5232343" lon="12.1753428"><ele>293.0</ele><time>2026-04-12T12:57:35.753Z</time></trkpt><trkpt lat="43.5234619" lon="12.1751319"><ele>293.0</ele><time>2026-04-12T12:57:36.734Z</time></trkpt><trkpt lat="43.5236904" lon="12.1749159"><ele>293.0</ele><time>2026-04-12T12:57:37.742Z</time></trkpt><trkpt lat="43.523918" lon="12.1747011"><ele>292.5</ele><time>2026-04-12T12:57:38.738Z</time></trkpt><trkpt lat="43.5241478" lon="12.1744833"><ele>292.0</ele><time>2026-04-12T12:57:39.75Z</time></trkpt><trkpt lat="43.5243793" lon="12.1742631"><ele>292.0</ele><time>2026-04-12T12:57:40.739Z</time></trkpt><trkpt lat="43.5246104" lon="12.1740426"><ele>292.0</ele><time>2026-04-12T12:57:41.774Z</time></trkpt><trkpt lat="43.5248429" lon="12.1738244"><ele>292.0</ele><time>2026-04-12T12:57:42.73Z</time></trkpt><trkpt lat="43.5250756" lon="12.1736096"><ele>292.0</ele><time>2026-04-12T12:57:43.744Z</time></trkpt><trkpt lat="43.5253053" lon="12.1733938"><ele>291.5</ele><time>2026-04-12T12:57:44.743Z</time></trkpt><trkpt lat="43.5255348" lon="12.1731769"><ele>291.0</ele><time>2026-04-12T12:57:45.766Z</time></trkpt><trkpt lat="43.5257616" lon="12.1729527"><ele>291.0</ele><time>2026-04-12T12:57:46.748Z</time></trkpt><trkpt lat="43.5259854" lon="12.1727267"><ele>291.0</ele><time>2026-04-12T12:57:47.743Z</time></trkpt><trkpt lat="43.5262073" lon="12.1725007"><ele>292.0</ele><time>2026-04-12T12:57:48.749Z</time></trkpt><trkpt lat="43.5264318" lon="12.1722718"><ele>293.0</ele><time>2026-04-12T12:57:49.757Z</time></trkpt><trkpt lat="43.5266508" lon="12.1720423"><ele>293.0</ele><time>2026-04-12T12:57:50.744Z</time></trkpt><trkpt lat="43.5268673" lon="12.1718078"><ele>293.0</ele><time>2026-04-12T12:57:51.743Z</time></trkpt><trkpt lat="43.5272974" lon="12.171336"><ele>292.5</ele><time>2026-04-12T12:57:53.743Z</time></trkpt><trkpt lat="43.5275085" lon="12.1711037"><ele>292.0</ele><time>2026-04-12T12:57:54.743Z</time></trkpt><trkpt lat="43.52772" lon="12.1708735"><ele>292.0</ele><time>2026-04-12T12:57:55.739Z</time></trkpt><trkpt lat="43.5279332" lon="12.1706423"><ele>292.0</ele><time>2026-04-12T12:57:56.753Z</time></trkpt><trkpt lat="43.5281443" lon="12.1704111"><ele>292.0</ele><time>2026-04-12T12:57:57.735Z</time></trkpt><trkpt lat="43.5283556" lon="12.170181"><ele>292.0</ele><time>2026-04-12T12:57:58.73Z</time></trkpt><trkpt lat="43.5285652" lon="12.1699519"><ele>293.5</ele><time>2026-04-12T12:57:59.768Z</time></trkpt><trkpt lat="43.5287722" lon="12.1697269"><ele>295.0</ele><time>2026-04-12T12:58:00.743Z</time></trkpt><trkpt lat="43.5289749" lon="12.1695063"><ele>295.0</ele><time>2026-04-12T12:58:01.759Z</time></trkpt><trkpt lat="43.5291795" lon="12.1692825"><ele>295.0</ele><time>2026-04-12T12:58:02.737Z</time></trkpt><trkpt lat="43.5293831" lon="12.1690611"><ele>296.0</ele><time>2026-04-12T12:58:03.745Z</time></trkpt><trkpt lat="43.5295859" lon="12.1688412"><ele>297.0</ele><time>2026-04-12T12:58:04.751Z</time></trkpt><trkpt lat="43.5297878" lon="12.1686206"><ele>297.0</ele><time>2026-04-12T12:58:05.775Z</time></trkpt><trkpt lat="43.5299877" lon="12.1684022"><ele>297.0</ele><time>2026-04-12T12:58:06.731Z</time></trkpt><trkpt lat="43.5301866" lon="12.1681858"><ele>297.0</ele><time>2026-04-12T12:58:07.738Z</time></trkpt><trkpt lat="43.5303827" lon="12.1679685"><ele>297.0</ele><time>2026-04-12T12:58:08.732Z</time></trkpt><trkpt lat="43.5305797" lon="12.1677539"><ele>296.5</ele><time>2026-04-12T12:58:09.766Z</time></trkpt><trkpt lat="43.5307763" lon="12.1675436"><ele>296.0</ele><time>2026-04-12T12:58:10.741Z</time></trkpt><trkpt lat="43.5309736" lon="12.1673328"><ele>295.5</ele><time>2026-04-12T12:58:11.755Z</time></trkpt><trkpt lat="43.5311741" lon="12.1671158"><ele>295.0</ele><time>2026-04-12T12:58:12.734Z</time></trkpt><trkpt lat="43.5315711" lon="12.1666855"><ele>295.0</ele><time>2026-04-12T12:58:14.735Z</time></trkpt><trkpt lat="43.5317688" lon="12.1664696"><ele>295.0</ele><time>2026-04-12T12:58:15.748Z</time></trkpt><trkpt lat="43.5319692" lon="12.1662548"><ele>296.0</ele><time>2026-04-12T12:58:16.749Z</time></trkpt><trkpt lat="43.5321658" lon="12.1660398"><ele>297.0</ele><time>2026-04-12T12:58:17.763Z</time></trkpt><trkpt lat="43.5323615" lon="12.1658286"><ele>295.5</ele><time>2026-04-12T12:58:18.747Z</time></trkpt><trkpt lat="43.5325567" lon="12.1656232"><ele>294.0</ele><time>2026-04-12T12:58:19.75Z</time></trkpt><trkpt lat="43.5327491" lon="12.1654197"><ele>295.5</ele><time>2026-04-12T12:58:20.765Z</time></trkpt><trkpt lat="43.5329381" lon="12.1652227"><ele>297.0</ele><time>2026-04-12T12:58:21.746Z</time></trkpt><trkpt lat="43.5331253" lon="12.1650204"><ele>295.5</ele><time>2026-04-12T12:58:22.751Z</time></trkpt><trkpt lat="43.5333097" lon="12.1648204"><ele>294.0</ele><time>2026-04-12T12:58:23.741Z</time></trkpt><trkpt lat="43.5334947" lon="12.1646204"><ele>294.0</ele><time>2026-04-12T12:58:24.774Z</time></trkpt><trkpt lat="43.5336777" lon="12.1644221"><ele>294.0</ele><time>2026-04-12T12:58:25.752Z</time></trkpt><trkpt lat="43.5338596" lon="12.1642228"><ele>294.5</ele><time>2026-04-12T12:58:26.737Z</time></trkpt><trkpt lat="43.5340399" lon="12.1640256"><ele>295.0</ele><time>2026-04-12T12:58:27.771Z</time></trkpt><trkpt lat="43.5342198" lon="12.1638277"><ele>295.0</ele><time>2026-04-12T12:58:28.749Z</time></trkpt><trkpt lat="43.5344006" lon="12.163627"><ele>295.0</ele><time>2026-04-12T12:58:29.734Z</time></trkpt><trkpt lat="43.5345784" lon="12.1634237"><ele>295.0</ele><time>2026-04-12T12:58:30.772Z</time></trkpt><trkpt lat="43.534757" lon="12.1632187"><ele>295.0</ele><time>2026-04-12T12:58:31.751Z</time></trkpt><trkpt lat="43.5349361" lon="12.1630147"><ele>295.5</ele><time>2026-04-12T12:58:32.746Z</time></trkpt><trkpt lat="43.5351157" lon="12.1628163"><ele>296.0</ele><time>2026-04-12T12:58:33.738Z</time></trkpt><trkpt lat="43.5354811" lon="12.1624154"><ele>296.0</ele><time>2026-04-12T12:58:35.732Z</time></trkpt><trkpt lat="43.5356695" lon="12.1622091"><ele>296.0</ele><time>2026-04-12T12:58:36.861Z</time></trkpt><trkpt lat="43.5360543" lon="12.1617855"><ele>295.5</ele><time>2026-04-12T12:58:38.756Z</time></trkpt><trkpt lat="43.536254" lon="12.1615695"><ele>295.0</ele><time>2026-04-12T12:58:39.731Z</time></trkpt><trkpt lat="43.5364569" lon="12.1613515"><ele>296.0</ele><time>2026-04-12T12:58:40.739Z</time></trkpt><trkpt lat="43.5366603" lon="12.1611333"><ele>297.0</ele><time>2026-04-12T12:58:41.738Z</time></trkpt><trkpt lat="43.5368648" lon="12.1609112"><ele>297.5</ele><time>2026-04-12T12:58:42.75Z</time></trkpt><trkpt lat="43.5370714" lon="12.1606897"><ele>298.0</ele><time>2026-04-12T12:58:43.735Z</time></trkpt><trkpt lat="43.537282" lon="12.160469"><ele>298.0</ele><time>2026-04-12T12:58:44.746Z</time></trkpt><trkpt lat="43.5374956" lon="12.1602547"><ele>298.0</ele><time>2026-04-12T12:58:45.74Z</time></trkpt><trkpt lat="43.5377132" lon="12.1600438"><ele>297.5</ele><time>2026-04-12T12:58:46.747Z</time></trkpt><trkpt lat="43.5379329" lon="12.159838"><ele>297.0</ele><time>2026-04-12T12:58:47.745Z</time></trkpt><trkpt lat="43.5381547" lon="12.1596337"><ele>297.0</ele><time>2026-04-12T12:58:48.758Z</time></trkpt><trkpt lat="43.538376" lon="12.1594295"><ele>297.0</ele><time>2026-04-12T12:58:49.748Z</time></trkpt><trkpt lat="43.5385975" lon="12.1592174"><ele>297.0</ele><time>2026-04-12T12:58:50.84Z</time></trkpt><trkpt lat="43.5390371" lon="12.1587951"><ele>297.0</ele><time>2026-04-12T12:58:52.765Z</time></trkpt><trkpt lat="43.5392572" lon="12.1585825"><ele>297.0</ele><time>2026-04-12T12:58:53.744Z</time></trkpt><trkpt lat="43.5394768" lon="12.1583712"><ele>300.0</ele><time>2026-04-12T12:58:54.75Z</time></trkpt><trkpt lat="43.5399186" lon="12.1579504"><ele>300.0</ele><time>2026-04-12T12:58:56.74Z</time></trkpt><trkpt lat="43.5401382" lon="12.1577395"><ele>300.0</ele><time>2026-04-12T12:58:57.727Z</time></trkpt><trkpt lat="43.5403566" lon="12.1575297"><ele>301.5</ele><time>2026-04-12T12:58:58.769Z</time></trkpt><trkpt lat="43.5405766" lon="12.1573207"><ele>303.0</ele><time>2026-04-12T12:58:59.727Z</time></trkpt><trkpt lat="43.5407955" lon="12.157111"><ele>303.0</ele><time>2026-04-12T12:59:00.747Z</time></trkpt><trkpt lat="43.5410129" lon="12.1569088"><ele>303.0</ele><time>2026-04-12T12:59:01.731Z</time></trkpt><trkpt lat="43.5412297" lon="12.1567075"><ele>302.0</ele><time>2026-04-12T12:59:02.755Z</time></trkpt><trkpt lat="43.5414439" lon="12.1565074"><ele>301.0</ele><time>2026-04-12T12:59:03.752Z</time></trkpt><trkpt lat="43.5416609" lon="12.1563055"><ele>301.0</ele><time>2026-04-12T12:59:04.77Z</time></trkpt><trkpt lat="43.5418778" lon="12.1560994"><ele>301.0</ele><time>2026-04-12T12:59:05.734Z</time></trkpt><trkpt lat="43.5420932" lon="12.1558877"><ele>301.5</ele><time>2026-04-12T12:59:06.74Z</time></trkpt><trkpt lat="43.5423077" lon="12.1556797"><ele>302.0</ele><time>2026-04-12T12:59:07.73Z</time></trkpt><trkpt lat="43.5425203" lon="12.155472"><ele>302.0</ele><time>2026-04-12T12:59:08.753Z</time></trkpt><trkpt lat="43.5427309" lon="12.1552663"><ele>302.0</ele><time>2026-04-12T12:59:09.754Z</time></trkpt><trkpt lat="43.5429431" lon="12.1550626"><ele>302.0</ele><time>2026-04-12T12:59:10.841Z</time></trkpt><trkpt lat="43.5431561" lon="12.1548572"><ele>302.0</ele><time>2026-04-12T12:59:11.744Z</time></trkpt><trkpt lat="43.5433695" lon="12.1546519"><ele>302.0</ele><time>2026-04-12T12:59:12.768Z</time></trkpt><trkpt lat="43.5435855" lon="12.154446"><ele>302.0</ele><time>2026-04-12T12:59:13.845Z</time></trkpt><trkpt lat="43.5438022" lon="12.1542411"><ele>302.0</ele><time>2026-04-12T12:59:14.849Z</time></trkpt><trkpt lat="43.544243" lon="12.1538218"><ele>302.0</ele><time>2026-04-12T12:59:16.755Z</time></trkpt><trkpt lat="43.5446827" lon="12.1534092"><ele>302.0</ele><time>2026-04-12T12:59:18.758Z</time></trkpt><trkpt lat="43.5449027" lon="12.1531954"><ele>302.0</ele><time>2026-04-12T12:59:19.753Z</time></trkpt><trkpt lat="43.5451226" lon="12.1529805"><ele>302.0</ele><time>2026-04-12T12:59:20.779Z</time></trkpt><trkpt lat="43.5453406" lon="12.1527682"><ele>302.0</ele><time>2026-04-12T12:59:21.74Z</time></trkpt><trkpt lat="43.5455622" lon="12.1525589"><ele>303.0</ele><time>2026-04-12T12:59:22.768Z</time></trkpt><trkpt lat="43.5457848" lon="12.1523503"><ele>304.0</ele><time>2026-04-12T12:59:23.755Z</time></trkpt><trkpt lat="43.5460064" lon="12.1521408"><ele>304.0</ele><time>2026-04-12T12:59:24.768Z</time></trkpt><trkpt lat="43.5462259" lon="12.1519318"><ele>304.0</ele><time>2026-04-12T12:59:25.751Z</time></trkpt><trkpt lat="43.546445" lon="12.1517196"><ele>303.5</ele><time>2026-04-12T12:59:26.761Z</time></trkpt><trkpt lat="43.5466617" lon="12.1515094"><ele>303.0</ele><time>2026-04-12T12:59:27.741Z</time></trkpt><trkpt lat="43.5468782" lon="12.1512973"><ele>303.5</ele><time>2026-04-12T12:59:28.768Z</time></trkpt><trkpt lat="43.5470926" lon="12.1510817"><ele>304.0</ele><time>2026-04-12T12:59:29.741Z</time></trkpt><trkpt lat="43.5473053" lon="12.1508587"><ele>305.0</ele><time>2026-04-12T12:59:30.754Z</time></trkpt><trkpt lat="43.5475175" lon="12.1506349"><ele>306.0</ele><time>2026-04-12T12:59:31.745Z</time></trkpt><trkpt lat="43.5477282" lon="12.1504077"><ele>307.0</ele><time>2026-04-12T12:59:32.764Z</time></trkpt><trkpt lat="43.5479373" lon="12.1501742"><ele>308.0</ele><time>2026-04-12T12:59:33.743Z</time></trkpt><trkpt lat="43.5481443" lon="12.1499331"><ele>307.0</ele><time>2026-04-12T12:59:34.741Z</time></trkpt><trkpt lat="43.54835" lon="12.149689"><ele>306.0</ele><time>2026-04-12T12:59:35.758Z</time></trkpt><trkpt lat="43.5485547" lon="12.1494401"><ele>306.5</ele><time>2026-04-12T12:59:36.847Z</time></trkpt><trkpt lat="43.5487587" lon="12.1491898"><ele>307.0</ele><time>2026-04-12T12:59:37.752Z</time></trkpt><trkpt lat="43.5491604" lon="12.1486791"><ele>307.0</ele><time>2026-04-12T12:59:39.754Z</time></trkpt><trkpt lat="43.5493588" lon="12.1484161"><ele>307.0</ele><time>2026-04-12T12:59:40.744Z</time></trkpt><trkpt lat="43.5495553" lon="12.1481464"><ele>307.0</ele><time>2026-04-12T12:59:41.761Z</time></trkpt><trkpt lat="43.5497471" lon="12.1478753"><ele>307.0</ele><time>2026-04-12T12:59:42.756Z</time></trkpt><trkpt lat="43.5499397" lon="12.1476054"><ele>307.0</ele><time>2026-04-12T12:59:43.766Z</time></trkpt><trkpt lat="43.550134" lon="12.147334"><ele>307.0</ele><time>2026-04-12T12:59:44.76Z</time></trkpt><trkpt lat="43.5503282" lon="12.147065"><ele>307.0</ele><time>2026-04-12T12:59:45.742Z</time></trkpt><trkpt lat="43.5505211" lon="12.146793"><ele>307.0</ele><time>2026-04-12T12:59:46.77Z</time></trkpt><trkpt lat="43.550715" lon="12.1465201"><ele>310.0</ele><time>2026-04-12T12:59:47.848Z</time></trkpt><trkpt lat="43.5511032" lon="12.1459799"><ele>309.0</ele><time>2026-04-12T12:59:49.769Z</time></trkpt><trkpt lat="43.551297" lon="12.1457096"><ele>308.0</ele><time>2026-04-12T12:59:50.731Z</time></trkpt><trkpt lat="43.5514894" lon="12.1454388"><ele>308.0</ele><time>2026-04-12T12:59:51.752Z</time></trkpt><trkpt lat="43.5516819" lon="12.1451676"><ele>308.0</ele><time>2026-04-12T12:59:52.748Z</time></trkpt><trkpt lat="43.5518749" lon="12.1448963"><ele>308.0</ele><time>2026-04-12T12:59:53.752Z</time></trkpt><trkpt lat="43.5520685" lon="12.1446272"><ele>308.0</ele><time>2026-04-12T12:59:54.758Z</time></trkpt><trkpt lat="43.5522613" lon="12.1443598"><ele>308.0</ele><time>2026-04-12T12:59:55.744Z</time></trkpt><trkpt lat="43.5524542" lon="12.1440905"><ele>308.0</ele><time>2026-04-12T12:59:56.773Z</time></trkpt><trkpt lat="43.5526449" lon="12.1438225"><ele>308.0</ele><time>2026-04-12T12:59:57.756Z</time></trkpt><trkpt lat="43.5528363" lon="12.1435562"><ele>308.0</ele><time>2026-04-12T12:59:58.742Z</time></trkpt><trkpt lat="43.5532183" lon="12.1430238"><ele>308.0</ele><time>2026-04-12T13:00:00.739Z</time></trkpt><trkpt lat="43.5534069" lon="12.1427578"><ele>308.0</ele><time>2026-04-12T13:00:01.759Z</time></trkpt><trkpt lat="43.5535972" lon="12.1424926"><ele>309.0</ele><time>2026-04-12T13:00:02.742Z</time></trkpt><trkpt lat="43.5537896" lon="12.1422241"><ele>310.0</ele><time>2026-04-12T13:00:03.751Z</time></trkpt><trkpt lat="43.5539801" lon="12.141956"><ele>310.0</ele><time>2026-04-12T13:00:04.745Z</time></trkpt><trkpt lat="43.5541704" lon="12.1416902"><ele>310.0</ele><time>2026-04-12T13:00:05.772Z</time></trkpt><trkpt lat="43.55436" lon="12.1414234"><ele>309.0</ele><time>2026-04-12T13:00:06.769Z</time></trkpt><trkpt lat="43.5545494" lon="12.1411589"><ele>308.0</ele><time>2026-04-12T13:00:07.744Z</time></trkpt><trkpt lat="43.5547377" lon="12.1408961"><ele>307.5</ele><time>2026-04-12T13:00:08.762Z</time></trkpt><trkpt lat="43.5549254" lon="12.1406314"><ele>307.0</ele><time>2026-04-12T13:00:09.763Z</time></trkpt><trkpt lat="43.5551158" lon="12.140366"><ele>307.0</ele><time>2026-04-12T13:00:10.764Z</time></trkpt><trkpt lat="43.5553064" lon="12.1400997"><ele>307.0</ele><time>2026-04-12T13:00:11.75Z</time></trkpt><trkpt lat="43.5554979" lon="12.1398317"><ele>308.5</ele><time>2026-04-12T13:00:12.775Z</time></trkpt><trkpt lat="43.5556894" lon="12.1395659"><ele>310.0</ele><time>2026-04-12T13:00:13.745Z</time></trkpt><trkpt lat="43.55588" lon="12.1393018"><ele>309.5</ele><time>2026-04-12T13:00:14.742Z</time></trkpt><trkpt lat="43.5560712" lon="12.1390403"><ele>309.0</ele><time>2026-04-12T13:00:15.746Z</time></trkpt><trkpt lat="43.5562626" lon="12.1387774"><ele>309.0</ele><time>2026-04-12T13:00:16.743Z</time></trkpt><trkpt lat="43.5564517" lon="12.138512"><ele>309.0</ele><time>2026-04-12T13:00:17.742Z</time></trkpt><trkpt lat="43.5566417" lon="12.1382449"><ele>309.0</ele><time>2026-04-12T13:00:18.761Z</time></trkpt><trkpt lat="43.5568311" lon="12.1379815"><ele>309.0</ele><time>2026-04-12T13:00:19.755Z</time></trkpt><trkpt lat="43.5572095" lon="12.1374564"><ele>309.0</ele><time>2026-04-12T13:00:21.739Z</time></trkpt><trkpt lat="43.5573986" lon="12.1371977"><ele>309.0</ele><time>2026-04-12T13:00:22.767Z</time></trkpt><trkpt lat="43.5575908" lon="12.1369355"><ele>309.0</ele><time>2026-04-12T13:00:23.745Z</time></trkpt><trkpt lat="43.557781" lon="12.1366712"><ele>309.0</ele><time>2026-04-12T13:00:24.75Z</time></trkpt><trkpt lat="43.5579704" lon="12.1364096"><ele>309.0</ele><time>2026-04-12T13:00:25.74Z</time></trkpt><trkpt lat="43.5581575" lon="12.1361523"><ele>309.0</ele><time>2026-04-12T13:00:26.751Z</time></trkpt><trkpt lat="43.5583434" lon="12.1358973"><ele>308.0</ele><time>2026-04-12T13:00:27.765Z</time></trkpt><trkpt lat="43.5585271" lon="12.1356408"><ele>307.0</ele><time>2026-04-12T13:00:28.751Z</time></trkpt><trkpt lat="43.5587115" lon="12.135384"><ele>307.0</ele><time>2026-04-12T13:00:29.739Z</time></trkpt><trkpt lat="43.5588952" lon="12.1351281"><ele>307.0</ele><time>2026-04-12T13:00:30.782Z</time></trkpt><trkpt lat="43.5590801" lon="12.134868"><ele>307.5</ele><time>2026-04-12T13:00:31.747Z</time></trkpt><trkpt lat="43.5592638" lon="12.1346103"><ele>308.0</ele><time>2026-04-12T13:00:32.731Z</time></trkpt><trkpt lat="43.5594497" lon="12.1343529"><ele>308.5</ele><time>2026-04-12T13:00:33.76Z</time></trkpt><trkpt lat="43.5596362" lon="12.1340939"><ele>309.0</ele><time>2026-04-12T13:00:34.749Z</time></trkpt><trkpt lat="43.5598253" lon="12.1338325"><ele>308.0</ele><time>2026-04-12T13:00:35.754Z</time></trkpt><trkpt lat="43.5600111" lon="12.1335748"><ele>307.0</ele><time>2026-04-12T13:00:36.741Z</time></trkpt><trkpt lat="43.5601949" lon="12.133318"><ele>306.0</ele><time>2026-04-12T13:00:37.766Z</time></trkpt><trkpt lat="43.5603795" lon="12.1330619"><ele>305.0</ele><time>2026-04-12T13:00:38.746Z</time></trkpt><trkpt lat="43.5605653" lon="12.1328047"><ele>305.0</ele><time>2026-04-12T13:00:39.742Z</time></trkpt><trkpt lat="43.5607489" lon="12.1325472"><ele>305.0</ele><time>2026-04-12T13:00:40.746Z</time></trkpt><trkpt lat="43.5611213" lon="12.1320353"><ele>306.5</ele><time>2026-04-12T13:00:42.742Z</time></trkpt><trkpt lat="43.561311" lon="12.1317749"><ele>308.0</ele><time>2026-04-12T13:00:43.739Z</time></trkpt><trkpt lat="43.561498" lon="12.1315185"><ele>308.0</ele><time>2026-04-12T13:00:44.892Z</time></trkpt><trkpt lat="43.5618707" lon="12.131"><ele>307.5</ele><time>2026-04-12T13:00:46.737Z</time></trkpt><trkpt lat="43.5620559" lon="12.1307418"><ele>307.0</ele><time>2026-04-12T13:00:47.748Z</time></trkpt><trkpt lat="43.5622414" lon="12.1304829"><ele>307.0</ele><time>2026-04-12T13:00:48.758Z</time></trkpt><trkpt lat="43.5624261" lon="12.1302253"><ele>307.0</ele><time>2026-04-12T13:00:49.754Z</time></trkpt><trkpt lat="43.5626111" lon="12.129965"><ele>306.5</ele><time>2026-04-12T13:00:50.745Z</time></trkpt><trkpt lat="43.5627958" lon="12.1297053"><ele>306.0</ele><time>2026-04-12T13:00:51.758Z</time></trkpt><trkpt lat="43.5629798" lon="12.1294454"><ele>307.0</ele><time>2026-04-12T13:00:52.752Z</time></trkpt><trkpt lat="43.5631655" lon="12.1291844"><ele>308.0</ele><time>2026-04-12T13:00:53.764Z</time></trkpt><trkpt lat="43.5633492" lon="12.1289234"><ele>309.0</ele><time>2026-04-12T13:00:54.758Z</time></trkpt><trkpt lat="43.5635374" lon="12.1286628"><ele>310.0</ele><time>2026-04-12T13:00:55.846Z</time></trkpt><trkpt lat="43.563727" lon="12.1284043"><ele>311.0</ele><time>2026-04-12T13:00:56.747Z</time></trkpt><trkpt lat="43.5639157" lon="12.1281424"><ele>312.0</ele><time>2026-04-12T13:00:57.775Z</time></trkpt><trkpt lat="43.5641045" lon="12.1278785"><ele>312.0</ele><time>2026-04-12T13:00:58.739Z</time></trkpt><trkpt lat="43.564293" lon="12.1276143"><ele>312.0</ele><time>2026-04-12T13:00:59.745Z</time></trkpt><trkpt lat="43.5644807" lon="12.1273545"><ele>312.0</ele><time>2026-04-12T13:01:00.751Z</time></trkpt><trkpt lat="43.5646696" lon="12.1270916"><ele>312.0</ele><time>2026-04-12T13:01:01.758Z</time></trkpt><trkpt lat="43.5650519" lon="12.1265737"><ele>311.0</ele><time>2026-04-12T13:01:03.734Z</time></trkpt><trkpt lat="43.5652405" lon="12.1263345"><ele>310.0</ele><time>2026-04-12T13:01:04.762Z</time></trkpt><trkpt lat="43.5654277" lon="12.1261059"><ele>309.5</ele><time>2026-04-12T13:01:05.743Z</time></trkpt><trkpt lat="43.5656116" lon="12.125889"><ele>309.0</ele><time>2026-04-12T13:01:06.742Z</time></trkpt><trkpt lat="43.5657856" lon="12.1256925"><ele>309.3333333333333</ele><time>2026-04-12T13:01:07.751Z</time></trkpt><trkpt lat="43.5659483" lon="12.1255087"><ele>309.66666666666663</ele><time>2026-04-12T13:01:08.747Z</time></trkpt><trkpt lat="43.5661" lon="12.1253423"><ele>310.0</ele><time>2026-04-12T13:01:09.742Z</time></trkpt><trkpt lat="43.566247" lon="12.1251989"><ele>310.0</ele><time>2026-04-12T13:01:10.733Z</time></trkpt><trkpt lat="43.5663982" lon="12.1250819"><ele>310.0</ele><time>2026-04-12T13:01:11.751Z</time></trkpt><trkpt lat="43.5665489" lon="12.1250124"><ele>310.0</ele><time>2026-04-12T13:01:12.734Z</time></trkpt><trkpt lat="43.5666981" lon="12.1249984"><ele>310.0</ele><time>2026-04-12T13:01:13.732Z</time></trkpt><trkpt lat="43.566851" lon="12.1250286"><ele>310.0</ele><time>2026-04-12T13:01:14.85Z</time></trkpt><trkpt lat="43.5671253" lon="12.1252173"><ele>309.3333333333333</ele><time>2026-04-12T13:01:16.77Z</time></trkpt><trkpt lat="43.5672447" lon="12.1253299"><ele>308.6666666666667</ele><time>2026-04-12T13:01:17.744Z</time></trkpt><trkpt lat="43.5673654" lon="12.1254212"><ele>308.0</ele><time>2026-04-12T13:01:18.844Z</time></trkpt><trkpt lat="43.5676335" lon="12.1253959"><ele>308.0</ele><time>2026-04-12T13:01:20.737Z</time></trkpt><trkpt lat="43.5677657" lon="12.1253088"><ele>308.0</ele><time>2026-04-12T13:01:21.74Z</time></trkpt><trkpt lat="43.5678974" lon="12.125173"><ele>308.0</ele><time>2026-04-12T13:01:22.746Z</time></trkpt><trkpt lat="43.5681536" lon="12.1249214"><ele>308.75</ele><time>2026-04-12T13:01:24.739Z</time></trkpt><trkpt lat="43.5682722" lon="12.1248081"><ele>309.5</ele><time>2026-04-12T13:01:25.746Z</time></trkpt><trkpt lat="43.5683828" lon="12.1247066"><ele>310.25</ele><time>2026-04-12T13:01:26.746Z</time></trkpt><trkpt lat="43.5684752" lon="12.1246249"><ele>311.0</ele><time>2026-04-12T13:01:27.766Z</time></trkpt><trkpt lat="43.5685584" lon="12.1245708"><ele>311.0</ele><time>2026-04-12T13:01:28.752Z</time></trkpt><trkpt lat="43.5686417" lon="12.1245593"><ele>311.0</ele><time>2026-04-12T13:01:29.745Z</time></trkpt><trkpt lat="43.5687182" lon="12.1245595"><ele>311.0</ele><time>2026-04-12T13:01:30.758Z</time></trkpt><trkpt lat="43.5687973" lon="12.1245552"><ele>311.0</ele><time>2026-04-12T13:01:31.743Z</time></trkpt><trkpt lat="43.56887" lon="12.1245424"><ele>311.0</ele><time>2026-04-12T13:01:32.786Z</time></trkpt><trkpt lat="43.56897" lon="12.124453"><ele>311.0</ele><time>2026-04-12T13:01:34.746Z</time></trkpt><trkpt lat="43.5690032" lon="12.1243626"><ele>311.0</ele><time>2026-04-12T13:01:35.786Z</time></trkpt><trkpt lat="43.5690076" lon="12.1242413"><ele>311.0</ele><time>2026-04-12T13:01:36.772Z</time></trkpt><trkpt lat="43.5689568" lon="12.1241231"><ele>311.0</ele><time>2026-04-12T13:01:37.75Z</time></trkpt><trkpt lat="43.568869" lon="12.1240218"><ele>311.0</ele><time>2026-04-12T13:01:38.764Z</time></trkpt><trkpt lat="43.5687613" lon="12.1239269"><ele>311.0</ele><time>2026-04-12T13:01:39.753Z</time></trkpt><trkpt lat="43.5686578" lon="12.1238056"><ele>311.0</ele><time>2026-04-12T13:01:40.748Z</time></trkpt><trkpt lat="43.5685562" lon="12.1236588"><ele>311.0</ele><time>2026-04-12T13:01:41.776Z</time></trkpt><trkpt lat="43.5684596" lon="12.1234906"><ele>311.0</ele><time>2026-04-12T13:01:42.729Z</time></trkpt><trkpt lat="43.5683626" lon="12.1233051"><ele>311.0</ele><time>2026-04-12T13:01:43.744Z</time></trkpt><trkpt lat="43.568173" lon="12.1229238"><ele>311.0</ele><time>2026-04-12T13:01:45.747Z</time></trkpt><trkpt lat="43.5680736" lon="12.1227606"><ele>311.0</ele><time>2026-04-12T13:01:46.745Z</time></trkpt><trkpt lat="43.5679755" lon="12.1225927"><ele>311.0</ele><time>2026-04-12T13:01:47.755Z</time></trkpt><trkpt lat="43.5678885" lon="12.1224216"><ele>311.0</ele><time>2026-04-12T13:01:48.733Z</time></trkpt><trkpt lat="43.5678389" lon="12.1222638"><ele>311.0</ele><time>2026-04-12T13:01:49.747Z</time></trkpt><trkpt lat="43.5678397" lon="12.1221072"><ele>311.0</ele><time>2026-04-12T13:01:50.742Z</time></trkpt><trkpt lat="43.5678573" lon="12.1219525"><ele>311.0</ele><time>2026-04-12T13:01:51.76Z</time></trkpt><trkpt lat="43.5678735" lon="12.1218391"><ele>311.0</ele><time>2026-04-12T13:01:52.746Z</time></trkpt><trkpt lat="43.5678376" lon="12.1217404"><ele>311.0</ele><time>2026-04-12T13:01:53.738Z</time></trkpt><trkpt lat="43.5677693" lon="12.1216829"><ele>311.0</ele><time>2026-04-12T13:01:54.757Z</time></trkpt><trkpt lat="43.567657" lon="12.1216743"><ele>310.25</ele><time>2026-04-12T13:01:55.754Z</time></trkpt><trkpt lat="43.5675475" lon="12.1217171"><ele>309.5</ele><time>2026-04-12T13:01:56.773Z</time></trkpt><trkpt lat="43.567412" lon="12.1217401"><ele>308.75</ele><time>2026-04-12T13:01:57.745Z</time></trkpt><trkpt lat="43.5672796" lon="12.1217156"><ele>308.0</ele><time>2026-04-12T13:01:58.735Z</time></trkpt><trkpt lat="43.5671456" lon="12.1216426"><ele>308.33333333333337</ele><time>2026-04-12T13:01:59.761Z</time></trkpt><trkpt lat="43.5670133" lon="12.1215481"><ele>308.6666666666667</ele><time>2026-04-12T13:02:00.746Z</time></trkpt><trkpt lat="43.5668785" lon="12.121458"><ele>309.0</ele><time>2026-04-12T13:02:01.742Z</time></trkpt><trkpt lat="43.5667355" lon="12.1213817"><ele>309.0</ele><time>2026-04-12T13:02:02.762Z</time></trkpt><trkpt lat="43.5665799" lon="12.1213141"><ele>309.0</ele><time>2026-04-12T13:02:03.835Z</time></trkpt><trkpt lat="43.5664163" lon="12.1212361"><ele>309.0</ele><time>2026-04-12T13:02:04.737Z</time></trkpt><trkpt lat="43.5660748" lon="12.1210688"><ele>309.3333333333333</ele><time>2026-04-12T13:02:06.744Z</time></trkpt><trkpt lat="43.5658956" lon="12.1209812"><ele>309.66666666666663</ele><time>2026-04-12T13:02:07.728Z</time></trkpt><trkpt lat="43.5657203" lon="12.1208921"><ele>310.0</ele><time>2026-04-12T13:02:08.764Z</time></trkpt><trkpt lat="43.5655353" lon="12.1208031"><ele>309.66666666666663</ele><time>2026-04-12T13:02:09.746Z</time></trkpt><trkpt lat="43.5653481" lon="12.1207137"><ele>309.3333333333333</ele><time>2026-04-12T13:02:10.757Z</time></trkpt><trkpt lat="43.565161" lon="12.1206172"><ele>309.0</ele><time>2026-04-12T13:02:11.749Z</time></trkpt><trkpt lat="43.5649794" lon="12.1205154"><ele>309.0</ele><time>2026-04-12T13:02:12.857Z</time></trkpt><trkpt lat="43.5648054" lon="12.1204101"><ele>309.0</ele><time>2026-04-12T13:02:13.739Z</time></trkpt><trkpt lat="43.5646349" lon="12.1202925"><ele>309.0</ele><time>2026-04-12T13:02:14.75Z</time></trkpt><trkpt lat="43.5644666" lon="12.1201519"><ele>309.0</ele><time>2026-04-12T13:02:15.731Z</time></trkpt><trkpt lat="43.564307" lon="12.1199877"><ele>309.0</ele><time>2026-04-12T13:02:16.728Z</time></trkpt><trkpt lat="43.5641488" lon="12.1198042"><ele>309.0</ele><time>2026-04-12T13:02:17.739Z</time></trkpt><trkpt lat="43.5640066" lon="12.1196036"><ele>309.3333333333333</ele><time>2026-04-12T13:02:18.742Z</time></trkpt><trkpt lat="43.5638625" lon="12.1193987"><ele>309.66666666666663</ele><time>2026-04-12T13:02:19.76Z</time></trkpt><trkpt lat="43.5637185" lon="12.1191885"><ele>310.0</ele><time>2026-04-12T13:02:20.734Z</time></trkpt><trkpt lat="43.5635725" lon="12.1189708"><ele>309.3333333333333</ele><time>2026-04-12T13:02:21.74Z</time></trkpt><trkpt lat="43.5634269" lon="12.1187487"><ele>308.6666666666667</ele><time>2026-04-12T13:02:22.746Z</time></trkpt><trkpt lat="43.5632833" lon="12.1185326"><ele>308.0</ele><time>2026-04-12T13:02:23.833Z</time></trkpt><trkpt lat="43.5631439" lon="12.1183145"><ele>308.5</ele><time>2026-04-12T13:02:24.751Z</time></trkpt><trkpt lat="43.5629991" lon="12.1181006"><ele>309.0</ele><time>2026-04-12T13:02:25.727Z</time></trkpt><trkpt lat="43.562702" lon="12.1176805"><ele>309.0</ele><time>2026-04-12T13:02:27.748Z</time></trkpt><trkpt lat="43.5625488" lon="12.1174786"><ele>309.0</ele><time>2026-04-12T13:02:28.738Z</time></trkpt><trkpt lat="43.5624048" lon="12.1172852"><ele>309.0</ele><time>2026-04-12T13:02:29.745Z</time></trkpt><trkpt lat="43.5622726" lon="12.1170994"><ele>308.6666666666667</ele><time>2026-04-12T13:02:30.739Z</time></trkpt><trkpt lat="43.5621499" lon="12.1169282"><ele>308.33333333333337</ele><time>2026-04-12T13:02:31.767Z</time></trkpt><trkpt lat="43.562031" lon="12.1167745"><ele>308.0</ele><time>2026-04-12T13:02:32.732Z</time></trkpt><trkpt lat="43.5619234" lon="12.1166342"><ele>308.33333333333337</ele><time>2026-04-12T13:02:33.736Z</time></trkpt><trkpt lat="43.5618083" lon="12.1164859"><ele>308.6666666666667</ele><time>2026-04-12T13:02:34.75Z</time></trkpt><trkpt lat="43.5616841" lon="12.1163238"><ele>309.0</ele><time>2026-04-12T13:02:35.733Z</time></trkpt><trkpt lat="43.5615601" lon="12.1161537"><ele>309.0</ele><time>2026-04-12T13:02:36.772Z</time></trkpt><trkpt lat="43.5614472" lon="12.1160022"><ele>309.0</ele><time>2026-04-12T13:02:37.744Z</time></trkpt><trkpt lat="43.5613477" lon="12.1158653"><ele>309.0</ele><time>2026-04-12T13:02:38.734Z</time></trkpt><trkpt lat="43.5612599" lon="12.1157231"><ele>309.0</ele><time>2026-04-12T13:02:39.762Z</time></trkpt><trkpt lat="43.5612022" lon="12.1155744"><ele>308.8</ele><time>2026-04-12T13:02:40.752Z</time></trkpt><trkpt lat="43.5611661" lon="12.1154173"><ele>308.59999999999997</ele><time>2026-04-12T13:02:41.747Z</time></trkpt><trkpt lat="43.5611439" lon="12.115257"><ele>308.4</ele><time>2026-04-12T13:02:42.759Z</time></trkpt><trkpt lat="43.5611454" lon="12.1151194"><ele>308.2</ele><time>2026-04-12T13:02:43.73Z</time></trkpt><trkpt lat="43.5611588" lon="12.1150013"><ele>308.0</ele><time>2026-04-12T13:02:44.724Z</time></trkpt><trkpt lat="43.5611475" lon="12.1149029"><ele>308.4</ele><time>2026-04-12T13:02:45.727Z</time></trkpt><trkpt lat="43.5610727" lon="12.1147791"><ele>308.8</ele><time>2026-04-12T13:02:47.743Z</time></trkpt><trkpt lat="43.5609579" lon="12.1146454"><ele>309.2</ele><time>2026-04-12T13:03:04.748Z</time></trkpt><trkpt lat="43.5608955" lon="12.1145876"><ele>309.6</ele><time>2026-04-12T13:03:06.747Z</time></trkpt><trkpt lat="43.5608122" lon="12.1144959"><ele>310.0</ele><time>2026-04-12T13:03:08.752Z</time></trkpt><trkpt lat="43.5606609" lon="12.1143255"><ele>310.0</ele><time>2026-04-12T13:03:10.768Z</time></trkpt><trkpt lat="43.5605679" lon="12.1142106"><ele>310.0</ele><time>2026-04-12T13:03:11.739Z</time></trkpt><trkpt lat="43.5604793" lon="12.1140963"><ele>310.0</ele><time>2026-04-12T13:03:12.745Z</time></trkpt><trkpt lat="43.5604098" lon="12.114007"><ele>310.0</ele><time>2026-04-12T13:03:13.737Z</time></trkpt><trkpt lat="43.5603535" lon="12.1139361"><ele>310.0</ele><time>2026-04-12T13:03:14.754Z</time></trkpt><trkpt lat="43.5603022" lon="12.113848"><ele>310.0</ele><time>2026-04-12T13:03:16.734Z</time></trkpt><trkpt lat="43.5602734" lon="12.1139292"><ele>310.0</ele><time>2026-04-12T13:03:19.74Z</time></trkpt><trkpt lat="43.5603257" lon="12.113984"><ele>310.0</ele><time>2026-04-12T13:03:20.729Z</time></trkpt><trkpt lat="43.560392" lon="12.1140347"><ele>310.0</ele><time>2026-04-12T13:03:21.75Z</time></trkpt><trkpt lat="43.5604838" lon="12.1141146"><ele>310.0</ele><time>2026-04-12T13:03:22.763Z</time></trkpt><trkpt lat="43.5605801" lon="12.1142341"><ele>310.0</ele><time>2026-04-12T13:03:23.741Z</time></trkpt><trkpt lat="43.5606778" lon="12.1143421"><ele>310.0</ele><time>2026-04-12T13:03:24.759Z</time></trkpt><trkpt lat="43.5607471" lon="12.1144209"><ele>310.0</ele><time>2026-04-12T13:03:25.744Z</time></trkpt><trkpt lat="43.5608222" lon="12.1144921"><ele>310.0</ele><time>2026-04-12T13:03:27.738Z</time></trkpt><trkpt lat="43.5608865" lon="12.1144465"><ele>310.0</ele><time>2026-04-12T13:03:29.747Z</time></trkpt></trkseg><trkseg><trkpt lat="43.5608892" lon="12.1143846"><ele>310.0</ele><time>2026-04-12T14:38:29.875Z</time></trkpt><trkpt lat="43.5609421" lon="12.1142963"><ele>310.0</ele><time>2026-04-12T14:38:44.877Z</time></trkpt><trkpt lat="43.5610144" lon="12.114174"><ele>310.0</ele><time>2026-04-12T14:38:46.874Z</time></trkpt><trkpt lat="43.5610975" lon="12.1140568"><ele>310.0</ele><time>2026-04-12T14:38:48.879Z</time></trkpt><trkpt lat="43.5611715" lon="12.1139481"><ele>310.0</ele><time>2026-04-12T14:38:50.869Z</time></trkpt><trkpt lat="43.5612156" lon="12.1138565"><ele>310.0</ele><time>2026-04-12T14:38:52.974Z</time></trkpt><trkpt lat="43.5612019" lon="12.1137655"><ele>310.0</ele><time>2026-04-12T14:38:54.882Z</time></trkpt><trkpt lat="43.5611201" lon="12.1137701"><ele>310.0</ele><time>2026-04-12T14:38:56.865Z</time></trkpt><trkpt lat="43.5610325" lon="12.1138999"><ele>310.0</ele><time>2026-04-12T14:38:58.871Z</time></trkpt><trkpt lat="43.5609717" lon="12.1139801"><ele>310.0</ele><time>2026-04-12T14:38:59.88Z</time></trkpt><trkpt lat="43.5609214" lon="12.1140675"><ele>310.0</ele><time>2026-04-12T14:39:00.88Z</time></trkpt><trkpt lat="43.5608688" lon="12.1141409"><ele>310.0</ele><time>2026-04-12T14:39:01.876Z</time></trkpt><trkpt lat="43.5608152" lon="12.1142164"><ele>310.0</ele><time>2026-04-12T14:39:02.897Z</time></trkpt><trkpt lat="43.5607717" lon="12.1142808"><ele>310.0</ele><time>2026-04-12T14:39:03.961Z</time></trkpt><trkpt lat="43.5607357" lon="12.1143756"><ele>310.0</ele><time>2026-04-12T14:39:05.898Z</time></trkpt><trkpt lat="43.560785" lon="12.1144869"><ele>310.0</ele><time>2026-04-12T14:39:07.874Z</time></trkpt><trkpt lat="43.5608786" lon="12.1144722"><ele>310.0</ele><time>2026-04-12T14:39:09.875Z</time></trkpt><trkpt lat="43.5609331" lon="12.1143824"><ele>310.0</ele><time>2026-04-12T14:39:11.871Z</time></trkpt><trkpt lat="43.560965" lon="12.1142627"><ele>310.0</ele><time>2026-04-12T14:39:42.87Z</time></trkpt><trkpt lat="43.5609941" lon="12.1141356"><ele>310.0</ele><time>2026-04-12T14:39:44.89Z</time></trkpt><trkpt lat="43.56096" lon="12.1140149"><ele>310.0</ele><time>2026-04-12T14:39:46.888Z</time></trkpt><trkpt lat="43.5609926" lon="12.1139098"><ele>310.0</ele><time>2026-04-12T14:39:48.968Z</time></trkpt><trkpt lat="43.5610874" lon="12.1138584"><ele>310.0</ele><time>2026-04-12T14:39:50.872Z</time></trkpt><trkpt lat="43.56114" lon="12.1139711"><ele>310.0</ele><time>2026-04-12T14:39:52.895Z</time></trkpt><trkpt lat="43.5611014" lon="12.1141186"><ele>310.0</ele><time>2026-04-12T14:39:54.886Z</time></trkpt><trkpt lat="43.5610607" lon="12.1141929"><ele>310.0</ele><time>2026-04-12T14:39:55.888Z</time></trkpt><trkpt lat="43.5609701" lon="12.1142872"><ele>310.0</ele><time>2026-04-12T14:39:57.873Z</time></trkpt><trkpt lat="43.5609287" lon="12.1143674"><ele>310.0</ele><time>2026-04-12T14:39:59.972Z</time></trkpt><trkpt lat="43.5609957" lon="12.1144055"><ele>310.0</ele><time>2026-04-12T14:42:55.892Z</time></trkpt><trkpt lat="43.5610131" lon="12.1142694"><ele>310.0</ele><time>2026-04-12T14:42:58.885Z</time></trkpt><trkpt lat="43.5609469" lon="12.1143329"><ele>310.0</ele><time>2026-04-12T14:43:01.88Z</time></trkpt><trkpt lat="43.5609315" lon="12.1144215"><ele>310.0</ele><time>2026-04-12T14:45:06.883Z</time></trkpt><trkpt lat="43.5608784" lon="12.1145269"><ele>310.0</ele><time>2026-04-12T14:45:09.884Z</time></trkpt><trkpt lat="43.5608723" lon="12.1146151"><ele>310.0</ele><time>2026-04-12T14:45:11.901Z</time></trkpt><trkpt lat="43.5609295" lon="12.1146934"><ele>310.0</ele><time>2026-04-12T14:45:13.871Z</time></trkpt><trkpt lat="43.5610058" lon="12.1147764"><ele>310.0</ele><time>2026-04-12T14:45:15.895Z</time></trkpt><trkpt lat="43.5610924" lon="12.1148708"><ele>310.0</ele><time>2026-04-12T14:45:17.875Z</time></trkpt><trkpt lat="43.5611514" lon="12.1149422"><ele>310.0</ele><time>2026-04-12T14:45:19.877Z</time></trkpt><trkpt lat="43.561207" lon="12.1150277"><ele>309.8333333333333</ele><time>2026-04-12T14:45:22.871Z</time></trkpt><trkpt lat="43.5612301" lon="12.1151303"><ele>309.66666666666663</ele><time>2026-04-12T14:45:25.886Z</time></trkpt><trkpt lat="43.5612024" lon="12.1152223"><ele>309.5</ele><time>2026-04-12T14:45:45.975Z</time></trkpt><trkpt lat="43.5611616" lon="12.115309"><ele>309.3333333333333</ele><time>2026-04-12T14:45:50.881Z</time></trkpt><trkpt lat="43.5610732" lon="12.1153807"><ele>309.1666666666667</ele><time>2026-04-12T14:45:52.955Z</time></trkpt><trkpt lat="43.5610296" lon="12.1154568"><ele>309.0</ele><time>2026-04-12T14:45:53.893Z</time></trkpt><trkpt lat="43.5610055" lon="12.1155473"><ele>309.0</ele><time>2026-04-12T14:45:54.902Z</time></trkpt><trkpt lat="43.561021" lon="12.1156326"><ele>309.0</ele><time>2026-04-12T14:45:55.892Z</time></trkpt><trkpt lat="43.5610869" lon="12.1157116"><ele>309.0</ele><time>2026-04-12T14:45:56.9Z</time></trkpt><trkpt lat="43.5611894" lon="12.1157581"><ele>309.0</ele><time>2026-04-12T14:45:57.883Z</time></trkpt><trkpt lat="43.561315" lon="12.1158256"><ele>309.0</ele><time>2026-04-12T14:45:58.879Z</time></trkpt><trkpt lat="43.5614389" lon="12.1158568"><ele>309.0</ele><time>2026-04-12T14:45:59.908Z</time></trkpt><trkpt lat="43.5615723" lon="12.1160366"><ele>309.0</ele><time>2026-04-12T14:46:00.882Z</time></trkpt><trkpt lat="43.5617007" lon="12.1162258"><ele>309.0</ele><time>2026-04-12T14:46:01.918Z</time></trkpt><trkpt lat="43.5618177" lon="12.1164"><ele>309.0</ele><time>2026-04-12T14:46:02.879Z</time></trkpt><trkpt lat="43.5619309" lon="12.1165678"><ele>309.0</ele><time>2026-04-12T14:46:03.88Z</time></trkpt><trkpt lat="43.5620477" lon="12.1167374"><ele>309.0</ele><time>2026-04-12T14:46:04.896Z</time></trkpt><trkpt lat="43.5621644" lon="12.1169009"><ele>309.0</ele><time>2026-04-12T14:46:05.877Z</time></trkpt><trkpt lat="43.562289" lon="12.1170777"><ele>309.0</ele><time>2026-04-12T14:46:06.883Z</time></trkpt><trkpt lat="43.5624167" lon="12.1172547"><ele>309.0</ele><time>2026-04-12T14:46:07.885Z</time></trkpt><trkpt lat="43.5625415" lon="12.1174278"><ele>309.0</ele><time>2026-04-12T14:46:08.886Z</time></trkpt><trkpt lat="43.5626618" lon="12.1176027"><ele>309.0</ele><time>2026-04-12T14:46:09.895Z</time></trkpt><trkpt lat="43.5627757" lon="12.1177727"><ele>309.0</ele><time>2026-04-12T14:46:10.882Z</time></trkpt><trkpt lat="43.5628852" lon="12.1179332"><ele>309.0</ele><time>2026-04-12T14:46:11.898Z</time></trkpt><trkpt lat="43.5629863" lon="12.1180902"><ele>309.0</ele><time>2026-04-12T14:46:12.892Z</time></trkpt><trkpt lat="43.5630843" lon="12.1182391"><ele>309.0</ele><time>2026-04-12T14:46:13.877Z</time></trkpt><trkpt lat="43.563179" lon="12.1183817"><ele>309.0</ele><time>2026-04-12T14:46:14.902Z</time></trkpt><trkpt lat="43.5632725" lon="12.1185243"><ele>309.0</ele><time>2026-04-12T14:46:15.873Z</time></trkpt><trkpt lat="43.5633682" lon="12.1186686"><ele>309.0</ele><time>2026-04-12T14:46:16.9Z</time></trkpt><trkpt lat="43.5634676" lon="12.1188204"><ele>309.0</ele><time>2026-04-12T14:46:17.894Z</time></trkpt><trkpt lat="43.5635715" lon="12.1189699"><ele>309.0</ele><time>2026-04-12T14:46:18.884Z</time></trkpt><trkpt lat="43.5636759" lon="12.1191275"><ele>309.3333333333333</ele><time>2026-04-12T14:46:19.895Z</time></trkpt><trkpt lat="43.5637876" lon="12.1192982"><ele>309.66666666666663</ele><time>2026-04-12T14:46:20.884Z</time></trkpt><trkpt lat="43.5638999" lon="12.1194745"><ele>310.0</ele><time>2026-04-12T14:46:21.883Z</time></trkpt><trkpt lat="43.5640196" lon="12.1196547"><ele>310.0</ele><time>2026-04-12T14:46:22.896Z</time></trkpt><trkpt lat="43.564143" lon="12.1198324"><ele>310.0</ele><time>2026-04-12T14:46:23.891Z</time></trkpt><trkpt lat="43.5642742" lon="12.1200079"><ele>310.0</ele><time>2026-04-12T14:46:24.878Z</time></trkpt><trkpt lat="43.5644152" lon="12.1201736"><ele>309.66666666666663</ele><time>2026-04-12T14:46:25.885Z</time></trkpt><trkpt lat="43.5645656" lon="12.120321"><ele>309.3333333333333</ele><time>2026-04-12T14:46:26.898Z</time></trkpt><trkpt lat="43.5647189" lon="12.1204459"><ele>309.0</ele><time>2026-04-12T14:46:27.879Z</time></trkpt><trkpt lat="43.5648806" lon="12.1205431"><ele>309.0</ele><time>2026-04-12T14:46:28.889Z</time></trkpt><trkpt lat="43.5650493" lon="12.1206281"><ele>309.0</ele><time>2026-04-12T14:46:29.986Z</time></trkpt><trkpt lat="43.565217" lon="12.1207093"><ele>309.0</ele><time>2026-04-12T14:46:30.903Z</time></trkpt><trkpt lat="43.5653768" lon="12.1207869"><ele>309.3333333333333</ele><time>2026-04-12T14:46:31.904Z</time></trkpt><trkpt lat="43.5655395" lon="12.120864"><ele>309.66666666666663</ele><time>2026-04-12T14:46:32.902Z</time></trkpt><trkpt lat="43.5656979" lon="12.1209404"><ele>310.0</ele><time>2026-04-12T14:46:33.883Z</time></trkpt><trkpt lat="43.5658573" lon="12.1210111"><ele>310.0</ele><time>2026-04-12T14:46:34.894Z</time></trkpt><trkpt lat="43.5660068" lon="12.1210897"><ele>310.0</ele><time>2026-04-12T14:46:35.888Z</time></trkpt><trkpt lat="43.5661535" lon="12.1211592"><ele>310.0</ele><time>2026-04-12T14:46:36.886Z</time></trkpt><trkpt lat="43.5662943" lon="12.1212298"><ele>309.75</ele><time>2026-04-12T14:46:37.886Z</time></trkpt><trkpt lat="43.5664337" lon="12.1212972"><ele>309.5</ele><time>2026-04-12T14:46:38.889Z</time></trkpt><trkpt lat="43.5665691" lon="12.1213627"><ele>309.25</ele><time>2026-04-12T14:46:39.967Z</time></trkpt><trkpt lat="43.5667029" lon="12.1214284"><ele>309.0</ele><time>2026-04-12T14:46:40.876Z</time></trkpt><trkpt lat="43.5668359" lon="12.121494"><ele>309.0</ele><time>2026-04-12T14:46:41.911Z</time></trkpt><trkpt lat="43.566971" lon="12.1215623"><ele>309.0</ele><time>2026-04-12T14:46:42.878Z</time></trkpt><trkpt lat="43.5671016" lon="12.1216346"><ele>309.0</ele><time>2026-04-12T14:46:43.888Z</time></trkpt><trkpt lat="43.5672284" lon="12.1217133"><ele>309.0</ele><time>2026-04-12T14:46:44.891Z</time></trkpt><trkpt lat="43.56735" lon="12.1218"><ele>308.75</ele><time>2026-04-12T14:46:45.883Z</time></trkpt><trkpt lat="43.5674553" lon="12.1218952"><ele>308.5</ele><time>2026-04-12T14:46:46.87Z</time></trkpt><trkpt lat="43.5675531" lon="12.1219993"><ele>308.25</ele><time>2026-04-12T14:46:47.868Z</time></trkpt><trkpt lat="43.567653" lon="12.1221192"><ele>308.0</ele><time>2026-04-12T14:46:48.892Z</time></trkpt><trkpt lat="43.5677542" lon="12.1222534"><ele>308.0</ele><time>2026-04-12T14:46:49.879Z</time></trkpt><trkpt lat="43.5678584" lon="12.1224013"><ele>308.0</ele><time>2026-04-12T14:46:50.874Z</time></trkpt><trkpt lat="43.5679667" lon="12.122552"><ele>308.0</ele><time>2026-04-12T14:46:51.889Z</time></trkpt><trkpt lat="43.5680691" lon="12.1227176"><ele>309.0</ele><time>2026-04-12T14:46:52.89Z</time></trkpt><trkpt lat="43.5681647" lon="12.1228915"><ele>310.0</ele><time>2026-04-12T14:46:53.895Z</time></trkpt><trkpt lat="43.5682558" lon="12.1230743"><ele>311.0</ele><time>2026-04-12T14:46:54.896Z</time></trkpt><trkpt lat="43.5683345" lon="12.1232625"><ele>311.0</ele><time>2026-04-12T14:46:55.887Z</time></trkpt><trkpt lat="43.5683997" lon="12.1234526"><ele>311.0</ele><time>2026-04-12T14:46:56.889Z</time></trkpt><trkpt lat="43.5684626" lon="12.123665"><ele>311.0</ele><time>2026-04-12T14:46:57.898Z</time></trkpt><trkpt lat="43.5685303" lon="12.1238588"><ele>311.0</ele><time>2026-04-12T14:46:58.885Z</time></trkpt><trkpt lat="43.5685794" lon="12.1240348"><ele>311.0</ele><time>2026-04-12T14:46:59.872Z</time></trkpt><trkpt lat="43.5686025" lon="12.1242063"><ele>311.0</ele><time>2026-04-12T14:47:00.885Z</time></trkpt><trkpt lat="43.5686168" lon="12.1243785"><ele>311.0</ele><time>2026-04-12T14:47:01.883Z</time></trkpt><trkpt lat="43.5686387" lon="12.1245149"><ele>311.0</ele><time>2026-04-12T14:47:02.902Z</time></trkpt><trkpt lat="43.5686918" lon="12.1245951"><ele>311.0</ele><time>2026-04-12T14:47:03.885Z</time></trkpt><trkpt lat="43.5687729" lon="12.1246339"><ele>311.0</ele><time>2026-04-12T14:47:04.882Z</time></trkpt><trkpt lat="43.5688611" lon="12.1246425"><ele>311.0</ele><time>2026-04-12T14:47:05.884Z</time></trkpt><trkpt lat="43.5689431" lon="12.1245906"><ele>311.0</ele><time>2026-04-12T14:47:06.888Z</time></trkpt><trkpt lat="43.5690123" lon="12.124467"><ele>311.25</ele><time>2026-04-12T14:47:07.905Z</time></trkpt><trkpt lat="43.5690794" lon="12.1243039"><ele>311.5</ele><time>2026-04-12T14:47:08.881Z</time></trkpt><trkpt lat="43.569139" lon="12.1241183"><ele>311.75</ele><time>2026-04-12T14:47:09.89Z</time></trkpt><trkpt lat="43.56919" lon="12.1239102"><ele>312.0</ele><time>2026-04-12T14:47:10.891Z</time></trkpt><trkpt lat="43.5692845" lon="12.1237256"><ele>312.0</ele><time>2026-04-12T14:47:11.86Z</time></trkpt><trkpt lat="43.5694849" lon="12.1235847"><ele>312.0</ele><time>2026-04-12T14:47:12.892Z</time></trkpt><trkpt lat="43.5696987" lon="12.1234222"><ele>314.0</ele><time>2026-04-12T14:47:13.878Z</time></trkpt><trkpt lat="43.569913" lon="12.1232636"><ele>316.0</ele><time>2026-04-12T14:47:14.912Z</time></trkpt><trkpt lat="43.5701096" lon="12.1231209"><ele>316.0</ele><time>2026-04-12T14:47:15.883Z</time></trkpt><trkpt lat="43.5702987" lon="12.1229874"><ele>316.0</ele><time>2026-04-12T14:47:16.877Z</time></trkpt><trkpt lat="43.5704918" lon="12.1229116"><ele>316.0</ele><time>2026-04-12T14:47:17.877Z</time></trkpt><trkpt lat="43.5706889" lon="12.1228803"><ele>315.66666666666663</ele><time>2026-04-12T14:47:18.877Z</time></trkpt><trkpt lat="43.5708889" lon="12.1229041"><ele>315.3333333333333</ele><time>2026-04-12T14:47:19.872Z</time></trkpt><trkpt lat="43.5710825" lon="12.1229865"><ele>315.0</ele><time>2026-04-12T14:47:20.864Z</time></trkpt><trkpt lat="43.5712591" lon="12.1231176"><ele>315.3333333333333</ele><time>2026-04-12T14:47:21.877Z</time></trkpt><trkpt lat="43.5714449" lon="12.1232626"><ele>315.66666666666663</ele><time>2026-04-12T14:47:22.875Z</time></trkpt><trkpt lat="43.5716402" lon="12.1234234"><ele>316.0</ele><time>2026-04-12T14:47:23.879Z</time></trkpt><trkpt lat="43.5718416" lon="12.123588"><ele>316.0</ele><time>2026-04-12T14:47:24.868Z</time></trkpt><trkpt lat="43.5720302" lon="12.123733"><ele>316.0</ele><time>2026-04-12T14:47:25.888Z</time></trkpt><trkpt lat="43.572209" lon="12.1238611"><ele>316.0</ele><time>2026-04-12T14:47:26.871Z</time></trkpt><trkpt lat="43.5723917" lon="12.123965"><ele>316.0</ele><time>2026-04-12T14:47:27.895Z</time></trkpt><trkpt lat="43.5725804" lon="12.124044"><ele>316.0</ele><time>2026-04-12T14:47:28.881Z</time></trkpt><trkpt lat="43.5727657" lon="12.1241067"><ele>316.0</ele><time>2026-04-12T14:47:29.889Z</time></trkpt><trkpt lat="43.5729636" lon="12.1241461"><ele>316.66666666666663</ele><time>2026-04-12T14:47:30.878Z</time></trkpt><trkpt lat="43.5731555" lon="12.1241658"><ele>317.3333333333333</ele><time>2026-04-12T14:47:31.875Z</time></trkpt><trkpt lat="43.5733423" lon="12.1241701"><ele>318.0</ele><time>2026-04-12T14:47:32.879Z</time></trkpt><trkpt lat="43.57353" lon="12.1241529"><ele>318.0</ele><time>2026-04-12T14:47:33.883Z</time></trkpt><trkpt lat="43.5737217" lon="12.1241214"><ele>318.0</ele><time>2026-04-12T14:47:34.885Z</time></trkpt><trkpt lat="43.5739181" lon="12.1240792"><ele>318.0</ele><time>2026-04-12T14:47:35.875Z</time></trkpt><trkpt lat="43.5741161" lon="12.1240307"><ele>318.0</ele><time>2026-04-12T14:47:36.991Z</time></trkpt><trkpt lat="43.5745164" lon="12.1239251"><ele>318.0</ele><time>2026-04-12T14:47:38.911Z</time></trkpt><trkpt lat="43.5747094" lon="12.1238728"><ele>318.6666666666667</ele><time>2026-04-12T14:47:39.888Z</time></trkpt><trkpt lat="43.574896" lon="12.1238315"><ele>319.33333333333337</ele><time>2026-04-12T14:47:40.873Z</time></trkpt><trkpt lat="43.5750817" lon="12.1237965"><ele>320.0</ele><time>2026-04-12T14:47:41.874Z</time></trkpt><trkpt lat="43.5752674" lon="12.123756"><ele>320.6666666666667</ele><time>2026-04-12T14:47:42.884Z</time></trkpt><trkpt lat="43.5754512" lon="12.1237109"><ele>321.3333333333333</ele><time>2026-04-12T14:47:43.916Z</time></trkpt><trkpt lat="43.5756391" lon="12.123679"><ele>322.0</ele><time>2026-04-12T14:47:44.889Z</time></trkpt><trkpt lat="43.5758303" lon="12.1236759"><ele>322.0</ele><time>2026-04-12T14:47:45.879Z</time></trkpt><trkpt lat="43.5760301" lon="12.1236983"><ele>322.0</ele><time>2026-04-12T14:47:46.883Z</time></trkpt><trkpt lat="43.5762287" lon="12.1237456"><ele>322.0</ele><time>2026-04-12T14:47:47.886Z</time></trkpt><trkpt lat="43.57642" lon="12.1238218"><ele>322.66666666666663</ele><time>2026-04-12T14:47:48.875Z</time></trkpt><trkpt lat="43.5766151" lon="12.1238992"><ele>323.3333333333333</ele><time>2026-04-12T14:47:49.877Z</time></trkpt><trkpt lat="43.5768098" lon="12.1239779"><ele>324.0</ele><time>2026-04-12T14:47:50.891Z</time></trkpt><trkpt lat="43.5770002" lon="12.1240489"><ele>325.0</ele><time>2026-04-12T14:47:51.881Z</time></trkpt><trkpt lat="43.5771884" lon="12.1241225"><ele>326.0</ele><time>2026-04-12T14:47:52.898Z</time></trkpt><trkpt lat="43.5773807" lon="12.1242001"><ele>327.0</ele><time>2026-04-12T14:47:53.877Z</time></trkpt><trkpt lat="43.577579" lon="12.1242748"><ele>327.5</ele><time>2026-04-12T14:47:54.997Z</time></trkpt><trkpt lat="43.5779764" lon="12.1244247"><ele>328.0</ele><time>2026-04-12T14:47:56.881Z</time></trkpt><trkpt lat="43.5781708" lon="12.1245013"><ele>328.0</ele><time>2026-04-12T14:47:57.879Z</time></trkpt><trkpt lat="43.5783444" lon="12.1245693"><ele>328.0</ele><time>2026-04-12T14:47:58.879Z</time></trkpt><trkpt lat="43.5785078" lon="12.1246317"><ele>328.0</ele><time>2026-04-12T14:47:59.89Z</time></trkpt><trkpt lat="43.578667" lon="12.1246958"><ele>329.0</ele><time>2026-04-12T14:48:00.88Z</time></trkpt><trkpt lat="43.5788124" lon="12.1247559"><ele>330.0</ele><time>2026-04-12T14:48:01.888Z</time></trkpt><trkpt lat="43.5789454" lon="12.1248097"><ele>331.0</ele><time>2026-04-12T14:48:02.889Z</time></trkpt><trkpt lat="43.5790841" lon="12.1248624"><ele>332.0</ele><time>2026-04-12T14:48:03.884Z</time></trkpt><trkpt lat="43.5792272" lon="12.1249155"><ele>332.0</ele><time>2026-04-12T14:48:04.892Z</time></trkpt><trkpt lat="43.5793763" lon="12.1249709"><ele>332.0</ele><time>2026-04-12T14:48:05.89Z</time></trkpt><trkpt lat="43.5795253" lon="12.1250312"><ele>332.0</ele><time>2026-04-12T14:48:06.885Z</time></trkpt><trkpt lat="43.5796727" lon="12.1250879"><ele>332.25</ele><time>2026-04-12T14:48:07.995Z</time></trkpt><trkpt lat="43.5798159" lon="12.1251425"><ele>332.5</ele><time>2026-04-12T14:48:08.915Z</time></trkpt><trkpt lat="43.5799384" lon="12.1252001"><ele>332.75</ele><time>2026-04-12T14:48:09.884Z</time></trkpt><trkpt lat="43.5800444" lon="12.1252438"><ele>333.0</ele><time>2026-04-12T14:48:10.87Z</time></trkpt><trkpt lat="43.5801339" lon="12.1252812"><ele>333.0</ele><time>2026-04-12T14:48:11.887Z</time></trkpt><trkpt lat="43.5802127" lon="12.1253294"><ele>333.0</ele><time>2026-04-12T14:48:12.88Z</time></trkpt><trkpt lat="43.5802734" lon="12.1254052"><ele>333.0</ele><time>2026-04-12T14:48:13.888Z</time></trkpt><trkpt lat="43.5803202" lon="12.1254971"><ele>333.0</ele><time>2026-04-12T14:48:14.882Z</time></trkpt><trkpt lat="43.5803514" lon="12.1256153"><ele>333.0</ele><time>2026-04-12T14:48:15.877Z</time></trkpt><trkpt lat="43.5803976" lon="12.1257233"><ele>333.0</ele><time>2026-04-12T14:48:16.898Z</time></trkpt><trkpt lat="43.5804599" lon="12.1258003"><ele>333.79999999999995</ele><time>2026-04-12T14:48:17.876Z</time></trkpt><trkpt lat="43.58054" lon="12.125835"><ele>334.6</ele><time>2026-04-12T14:48:18.892Z</time></trkpt><trkpt lat="43.5806374" lon="12.1258422"><ele>335.4</ele><time>2026-04-12T14:48:19.889Z</time></trkpt><trkpt lat="43.5807484" lon="12.1258124"><ele>336.20000000000005</ele><time>2026-04-12T14:48:20.902Z</time></trkpt><trkpt lat="43.5808717" lon="12.1257715"><ele>337.0</ele><time>2026-04-12T14:48:21.868Z</time></trkpt><trkpt lat="43.5810072" lon="12.1257428"><ele>337.0</ele><time>2026-04-12T14:48:22.882Z</time></trkpt><trkpt lat="43.5811482" lon="12.1257343"><ele>337.0</ele><time>2026-04-12T14:48:23.887Z</time></trkpt><trkpt lat="43.5812952" lon="12.12575"><ele>337.0</ele><time>2026-04-12T14:48:24.922Z</time></trkpt><trkpt lat="43.5814539" lon="12.1257686"><ele>337.0</ele><time>2026-04-12T14:48:25.88Z</time></trkpt><trkpt lat="43.5816206" lon="12.1257759"><ele>339.0</ele><time>2026-04-12T14:48:26.987Z</time></trkpt><trkpt lat="43.5819422" lon="12.1257054"><ele>341.0</ele><time>2026-04-12T14:48:28.875Z</time></trkpt><trkpt lat="43.5820994" lon="12.1256335"><ele>341.0</ele><time>2026-04-12T14:48:29.881Z</time></trkpt><trkpt lat="43.5822524" lon="12.1255543"><ele>341.0</ele><time>2026-04-12T14:48:30.874Z</time></trkpt><trkpt lat="43.5824139" lon="12.1254704"><ele>341.0</ele><time>2026-04-12T14:48:31.872Z</time></trkpt><trkpt lat="43.5825798" lon="12.1254116"><ele>341.0</ele><time>2026-04-12T14:48:32.889Z</time></trkpt><trkpt lat="43.5827481" lon="12.1253625"><ele>341.0</ele><time>2026-04-12T14:48:33.874Z</time></trkpt><trkpt lat="43.5829163" lon="12.1253369"><ele>341.0</ele><time>2026-04-12T14:48:34.916Z</time></trkpt><trkpt lat="43.5830946" lon="12.1253174"><ele>341.6666666666667</ele><time>2026-04-12T14:48:35.876Z</time></trkpt><trkpt lat="43.5832743" lon="12.1253036"><ele>342.3333333333333</ele><time>2026-04-12T14:48:36.881Z</time></trkpt><trkpt lat="43.5834348" lon="12.1253045"><ele>343.0</ele><time>2026-04-12T14:48:37.877Z</time></trkpt><trkpt lat="43.5835905" lon="12.1253076"><ele>344.0</ele><time>2026-04-12T14:48:38.882Z</time></trkpt><trkpt lat="43.5837359" lon="12.1253159"><ele>345.0</ele><time>2026-04-12T14:48:39.888Z</time></trkpt><trkpt lat="43.58387" lon="12.1253261"><ele>346.0</ele><time>2026-04-12T14:48:40.882Z</time></trkpt><trkpt lat="43.5839936" lon="12.1253364"><ele>347.0</ele><time>2026-04-12T14:48:41.883Z</time></trkpt><trkpt lat="43.5841084" lon="12.1253452"><ele>347.0</ele><time>2026-04-12T14:48:42.925Z</time></trkpt><trkpt lat="43.5842223" lon="12.1253517"><ele>347.0</ele><time>2026-04-12T14:48:43.883Z</time></trkpt><trkpt lat="43.58433" lon="12.1253542"><ele>347.0</ele><time>2026-04-12T14:48:44.881Z</time></trkpt><trkpt lat="43.5844325" lon="12.1253591"><ele>347.0</ele><time>2026-04-12T14:48:45.901Z</time></trkpt><trkpt lat="43.5845426" lon="12.1253654"><ele>347.0</ele><time>2026-04-12T14:48:46.88Z</time></trkpt><trkpt lat="43.5846577" lon="12.1253708"><ele>347.20000000000005</ele><time>2026-04-12T14:48:47.897Z</time></trkpt><trkpt lat="43.5847718" lon="12.1253798"><ele>347.4</ele><time>2026-04-12T14:48:48.898Z</time></trkpt><trkpt lat="43.58488" lon="12.1253916"><ele>347.6</ele><time>2026-04-12T14:48:49.884Z</time></trkpt><trkpt lat="43.5849782" lon="12.125401"><ele>347.79999999999995</ele><time>2026-04-12T14:48:50.975Z</time></trkpt><trkpt lat="43.5850621" lon="12.1254103"><ele>348.0</ele><time>2026-04-12T14:48:51.879Z</time></trkpt><trkpt lat="43.5851298" lon="12.1254247"><ele>348.0</ele><time>2026-04-12T14:48:52.89Z</time></trkpt><trkpt lat="43.5852364" lon="12.1254617"><ele>348.0</ele><time>2026-04-12T14:48:54.883Z</time></trkpt><trkpt lat="43.5853105" lon="12.1254989"><ele>348.0</ele><time>2026-04-12T14:48:56.878Z</time></trkpt><trkpt lat="43.5948945" lon="12.1119855"><ele>397.5</ele><time>2026-04-12T14:53:51.854Z</time></trkpt><trkpt lat="43.5949702" lon="12.1116486"><ele>447.0</ele><time>2026-04-12T14:53:52.851Z</time></trkpt><trkpt lat="43.5951059" lon="12.1113038"><ele>447.0</ele><time>2026-04-12T14:53:53.861Z</time></trkpt><trkpt lat="43.5952847" lon="12.1110674"><ele>447.0</ele><time>2026-04-12T14:53:54.87Z</time></trkpt><trkpt lat="43.5954446" lon="12.1108243"><ele>449.0</ele><time>2026-04-12T14:53:55.851Z</time></trkpt><trkpt lat="43.5958041" lon="12.1105213"><ele>451.0</ele><time>2026-04-12T14:53:57.878Z</time></trkpt><trkpt lat="43.5962638" lon="12.1103926"><ele>454.33333333333337</ele><time>2026-04-12T14:53:59.879Z</time></trkpt><trkpt lat="43.5964431" lon="12.110403"><ele>457.66666666666663</ele><time>2026-04-12T14:54:00.887Z</time></trkpt><trkpt lat="43.5965945" lon="12.1103429"><ele>461.0</ele><time>2026-04-12T14:54:01.876Z</time></trkpt><trkpt lat="43.5967068" lon="12.1102109"><ele>461.0</ele><time>2026-04-12T14:54:02.879Z</time></trkpt><trkpt lat="43.5967848" lon="12.1100275"><ele>461.0</ele><time>2026-04-12T14:54:03.878Z</time></trkpt><trkpt lat="43.5968438" lon="12.1097642"><ele>461.0</ele><time>2026-04-12T14:54:04.899Z</time></trkpt><trkpt lat="43.5969012" lon="12.1094192"><ele>461.0</ele><time>2026-04-12T14:54:05.874Z</time></trkpt><trkpt lat="43.5969642" lon="12.1090413"><ele>461.0</ele><time>2026-04-12T14:54:06.883Z</time></trkpt><trkpt lat="43.5970412" lon="12.1086432"><ele>468.0</ele><time>2026-04-12T14:54:07.992Z</time></trkpt><trkpt lat="43.5971334" lon="12.1082381"><ele>475.0</ele><time>2026-04-12T14:54:08.871Z</time></trkpt><trkpt lat="43.5972181" lon="12.1078507"><ele>475.0</ele><time>2026-04-12T14:54:09.878Z</time></trkpt><trkpt lat="43.5972853" lon="12.1075013"><ele>475.0</ele><time>2026-04-12T14:54:10.879Z</time></trkpt><trkpt lat="43.5973308" lon="12.1072279"><ele>474.0</ele><time>2026-04-12T14:54:11.885Z</time></trkpt><trkpt lat="43.5973541" lon="12.1070617"><ele>473.0</ele><time>2026-04-12T14:54:12.878Z</time></trkpt><trkpt lat="43.5973869" lon="12.1069315"><ele>472.0</ele><time>2026-04-12T14:54:13.883Z</time></trkpt><trkpt lat="43.5974287" lon="12.1068107"><ele>471.0</ele><time>2026-04-12T14:54:14.891Z</time></trkpt><trkpt lat="43.5974935" lon="12.1066838"><ele>470.0</ele><time>2026-04-12T14:54:15.894Z</time></trkpt><trkpt lat="43.5975805" lon="12.1065839"><ele>469.0</ele><time>2026-04-12T14:54:16.882Z</time></trkpt><trkpt lat="43.5977143" lon="12.1065108"><ele>468.0</ele><time>2026-04-12T14:54:17.889Z</time></trkpt><trkpt lat="43.5978685" lon="12.106494"><ele>467.0</ele><time>2026-04-12T14:54:18.897Z</time></trkpt><trkpt lat="43.5980309" lon="12.1065505"><ele>469.0</ele><time>2026-04-12T14:54:19.881Z</time></trkpt><trkpt lat="43.5981976" lon="12.1066437"><ele>471.0</ele><time>2026-04-12T14:54:20.892Z</time></trkpt><trkpt lat="43.5983522" lon="12.1068075"><ele>473.0</ele><time>2026-04-12T14:54:21.877Z</time></trkpt><trkpt lat="43.5985244" lon="12.1070409"><ele>473.0</ele><time>2026-04-12T14:54:22.89Z</time></trkpt><trkpt lat="43.5987017" lon="12.1072305"><ele>473.0</ele><time>2026-04-12T14:54:23.897Z</time></trkpt><trkpt lat="43.5988825" lon="12.1073971"><ele>473.0</ele><time>2026-04-12T14:54:24.886Z</time></trkpt><trkpt lat="43.599055" lon="12.1075525"><ele>473.0</ele><time>2026-04-12T14:54:25.898Z</time></trkpt><trkpt lat="43.5992098" lon="12.1076766"><ele>473.0</ele><time>2026-04-12T14:54:26.888Z</time></trkpt><trkpt lat="43.5993559" lon="12.107785"><ele>473.0</ele><time>2026-04-12T14:54:27.881Z</time></trkpt><trkpt lat="43.599524" lon="12.1078661"><ele>474.3333333333333</ele><time>2026-04-12T14:54:28.895Z</time></trkpt><trkpt lat="43.5996993" lon="12.1078615"><ele>475.66666666666663</ele><time>2026-04-12T14:54:29.896Z</time></trkpt><trkpt lat="43.5998571" lon="12.1077714"><ele>477.0</ele><time>2026-04-12T14:54:30.981Z</time></trkpt><trkpt lat="43.6000205" lon="12.1076372"><ele>477.0</ele><time>2026-04-12T14:54:31.894Z</time></trkpt><trkpt lat="43.6002015" lon="12.1075041"><ele>477.0</ele><time>2026-04-12T14:54:32.882Z</time></trkpt><trkpt lat="43.6004034" lon="12.1073425"><ele>477.0</ele><time>2026-04-12T14:54:33.88Z</time></trkpt><trkpt lat="43.6005981" lon="12.1071755"><ele>477.0</ele><time>2026-04-12T14:54:34.895Z</time></trkpt><trkpt lat="43.6007657" lon="12.1070385"><ele>477.0</ele><time>2026-04-12T14:54:35.891Z</time></trkpt><trkpt lat="43.6009307" lon="12.1069294"><ele>477.0</ele><time>2026-04-12T14:54:36.89Z</time></trkpt><trkpt lat="43.6011238" lon="12.1068685"><ele>478.0</ele><time>2026-04-12T14:54:37.885Z</time></trkpt><trkpt lat="43.6013441" lon="12.1068592"><ele>479.0</ele><time>2026-04-12T14:54:38.89Z</time></trkpt><trkpt lat="43.6015735" lon="12.1068943"><ele>479.0</ele><time>2026-04-12T14:54:39.895Z</time></trkpt><trkpt lat="43.6018204" lon="12.1069353"><ele>479.0</ele><time>2026-04-12T14:54:40.885Z</time></trkpt><trkpt lat="43.6020849" lon="12.106967"><ele>479.3333333333333</ele><time>2026-04-12T14:54:41.899Z</time></trkpt><trkpt lat="43.6023282" lon="12.1069805"><ele>479.66666666666663</ele><time>2026-04-12T14:54:42.889Z</time></trkpt><trkpt lat="43.6025295" lon="12.1070123"><ele>480.0</ele><time>2026-04-12T14:54:43.883Z</time></trkpt><trkpt lat="43.6027112" lon="12.1070643"><ele>479.66666666666663</ele><time>2026-04-12T14:54:44.881Z</time></trkpt><trkpt lat="43.6028703" lon="12.1071435"><ele>479.3333333333333</ele><time>2026-04-12T14:54:45.883Z</time></trkpt><trkpt lat="43.6030061" lon="12.1072928"><ele>479.0</ele><time>2026-04-12T14:54:46.893Z</time></trkpt><trkpt lat="43.6030905" lon="12.107517"><ele>479.0</ele><time>2026-04-12T14:54:47.89Z</time></trkpt><trkpt lat="43.6031263" lon="12.1077828"><ele>479.0</ele><time>2026-04-12T14:54:48.892Z</time></trkpt><trkpt lat="43.6031611" lon="12.1080237"><ele>479.0</ele><time>2026-04-12T14:54:49.894Z</time></trkpt><trkpt lat="43.6032122" lon="12.1082029"><ele>480.66666666666663</ele><time>2026-04-12T14:54:50.895Z</time></trkpt><trkpt lat="43.6033065" lon="12.1083227"><ele>482.33333333333337</ele><time>2026-04-12T14:54:51.881Z</time></trkpt><trkpt lat="43.6034494" lon="12.1083933"><ele>484.0</ele><time>2026-04-12T14:54:52.868Z</time></trkpt><trkpt lat="43.6036223" lon="12.1084298"><ele>482.33333333333337</ele><time>2026-04-12T14:54:53.903Z</time></trkpt><trkpt lat="43.6038213" lon="12.1084669"><ele>480.66666666666663</ele><time>2026-04-12T14:54:54.882Z</time></trkpt><trkpt lat="43.6040295" lon="12.1085206"><ele>479.0</ele><time>2026-04-12T14:54:55.899Z</time></trkpt><trkpt lat="43.604234" lon="12.1085793"><ele>479.0</ele><time>2026-04-12T14:54:56.891Z</time></trkpt><trkpt lat="43.6044113" lon="12.1086405"><ele>479.0</ele><time>2026-04-12T14:54:57.889Z</time></trkpt><trkpt lat="43.6045721" lon="12.1086948"><ele>479.0</ele><time>2026-04-12T14:54:58.895Z</time></trkpt><trkpt lat="43.6047268" lon="12.1087337"><ele>479.66666666666663</ele><time>2026-04-12T14:54:59.892Z</time></trkpt><trkpt lat="43.6048998" lon="12.1086816"><ele>480.33333333333337</ele><time>2026-04-12T14:55:00.902Z</time></trkpt><trkpt lat="43.6050721" lon="12.1085384"><ele>481.0</ele><time>2026-04-12T14:55:01.891Z</time></trkpt><trkpt lat="43.6052451" lon="12.1084008"><ele>480.6666666666667</ele><time>2026-04-12T14:55:02.89Z</time></trkpt><trkpt lat="43.6054006" lon="12.1082978"><ele>480.33333333333337</ele><time>2026-04-12T14:55:03.891Z</time></trkpt><trkpt lat="43.6055518" lon="12.1083022"><ele>480.0</ele><time>2026-04-12T14:55:04.904Z</time></trkpt><trkpt lat="43.6056914" lon="12.1084081"><ele>480.0</ele><time>2026-04-12T14:55:05.868Z</time></trkpt><trkpt lat="43.6058272" lon="12.1085434"><ele>480.0</ele><time>2026-04-12T14:55:06.889Z</time></trkpt><trkpt lat="43.6059551" lon="12.1086394"><ele>480.0</ele><time>2026-04-12T14:55:07.87Z</time></trkpt><trkpt lat="43.6060879" lon="12.1086655"><ele>480.0</ele><time>2026-04-12T14:55:08.887Z</time></trkpt><trkpt lat="43.6062163" lon="12.10862"><ele>479.0</ele><time>2026-04-12T14:55:09.892Z</time></trkpt><trkpt lat="43.6063463" lon="12.1085273"><ele>478.0</ele><time>2026-04-12T14:55:10.862Z</time></trkpt><trkpt lat="43.6064898" lon="12.1084128"><ele>477.0</ele><time>2026-04-12T14:55:11.891Z</time></trkpt><trkpt lat="43.6066184" lon="12.1083068"><ele>477.0</ele><time>2026-04-12T14:55:12.887Z</time></trkpt><trkpt lat="43.6067798" lon="12.108306"><ele>477.0</ele><time>2026-04-12T14:55:13.9Z</time></trkpt><trkpt lat="43.6069358" lon="12.1084386"><ele>477.0</ele><time>2026-04-12T14:55:14.873Z</time></trkpt><trkpt lat="43.6070689" lon="12.1085889"><ele>476.33333333333337</ele><time>2026-04-12T14:55:15.876Z</time></trkpt><trkpt lat="43.6071846" lon="12.1088204"><ele>475.6666666666667</ele><time>2026-04-12T14:55:16.876Z</time></trkpt><trkpt lat="43.6072579" lon="12.1091339"><ele>475.0</ele><time>2026-04-12T14:55:17.879Z</time></trkpt><trkpt lat="43.6073541" lon="12.1094452"><ele>475.0</ele><time>2026-04-12T14:55:18.881Z</time></trkpt><trkpt lat="43.6074403" lon="12.1096663"><ele>475.0</ele><time>2026-04-12T14:55:19.902Z</time></trkpt><trkpt lat="43.6075543" lon="12.1098259"><ele>475.0</ele><time>2026-04-12T14:55:20.885Z</time></trkpt><trkpt lat="43.6076951" lon="12.1099089"><ele>476.6666666666667</ele><time>2026-04-12T14:55:21.881Z</time></trkpt><trkpt lat="43.6078513" lon="12.1099298"><ele>478.33333333333337</ele><time>2026-04-12T14:55:22.883Z</time></trkpt><trkpt lat="43.6080259" lon="12.1098801"><ele>480.0</ele><time>2026-04-12T14:55:23.875Z</time></trkpt><trkpt lat="43.6082062" lon="12.1098278"><ele>480.0</ele><time>2026-04-12T14:55:24.886Z</time></trkpt><trkpt lat="43.6083676" lon="12.1098571"><ele>480.0</ele><time>2026-04-12T14:55:25.886Z</time></trkpt><trkpt lat="43.6085044" lon="12.1099922"><ele>480.0</ele><time>2026-04-12T14:55:26.908Z</time></trkpt><trkpt lat="43.6085759" lon="12.1102345"><ele>480.0</ele><time>2026-04-12T14:55:27.882Z</time></trkpt><trkpt lat="43.6086628" lon="12.1104805"><ele>480.0</ele><time>2026-04-12T14:55:28.874Z</time></trkpt><trkpt lat="43.6087601" lon="12.1106639"><ele>480.0</ele><time>2026-04-12T14:55:29.881Z</time></trkpt><trkpt lat="43.6088614" lon="12.1107437"><ele>480.0</ele><time>2026-04-12T14:55:30.877Z</time></trkpt><trkpt lat="43.6089748" lon="12.110755"><ele>480.0</ele><time>2026-04-12T14:55:31.906Z</time></trkpt><trkpt lat="43.6091141" lon="12.1107145"><ele>480.0</ele><time>2026-04-12T14:55:32.877Z</time></trkpt><trkpt lat="43.6092614" lon="12.1106375"><ele>480.0</ele><time>2026-04-12T14:55:33.88Z</time></trkpt><trkpt lat="43.6094124" lon="12.1105869"><ele>479.0</ele><time>2026-04-12T14:55:34.883Z</time></trkpt><trkpt lat="43.6095532" lon="12.1106079"><ele>478.0</ele><time>2026-04-12T14:55:35.898Z</time></trkpt><trkpt lat="43.6096071" lon="12.1108117"><ele>477.0</ele><time>2026-04-12T14:55:36.886Z</time></trkpt><trkpt lat="43.6096742" lon="12.110985"><ele>476.0</ele><time>2026-04-12T14:55:37.878Z</time></trkpt><trkpt lat="43.6097784" lon="12.1111284"><ele>476.0</ele><time>2026-04-12T14:55:38.888Z</time></trkpt><trkpt lat="43.6099202" lon="12.1111973"><ele>476.0</ele><time>2026-04-12T14:55:39.884Z</time></trkpt><trkpt lat="43.6100764" lon="12.11121"><ele>476.0</ele><time>2026-04-12T14:55:40.881Z</time></trkpt><trkpt lat="43.6102303" lon="12.111137"><ele>474.25</ele><time>2026-04-12T14:55:41.881Z</time></trkpt><trkpt lat="43.610376" lon="12.1110634"><ele>472.5</ele><time>2026-04-12T14:55:42.868Z</time></trkpt><trkpt lat="43.6105092" lon="12.1110581"><ele>470.75</ele><time>2026-04-12T14:55:43.879Z</time></trkpt><trkpt lat="43.6106549" lon="12.1111247"><ele>469.0</ele><time>2026-04-12T14:55:44.877Z</time></trkpt><trkpt lat="43.6108104" lon="12.1112449"><ele>469.0</ele><time>2026-04-12T14:55:45.88Z</time></trkpt><trkpt lat="43.6109632" lon="12.1113764"><ele>469.0</ele><time>2026-04-12T14:55:46.875Z</time></trkpt><trkpt lat="43.6110989" lon="12.1115321"><ele>469.0</ele><time>2026-04-12T14:55:47.885Z</time></trkpt><trkpt lat="43.6112242" lon="12.1117274"><ele>467.0</ele><time>2026-04-12T14:55:48.989Z</time></trkpt><trkpt lat="43.6113411" lon="12.111942"><ele>465.0</ele><time>2026-04-12T14:55:49.881Z</time></trkpt><trkpt lat="43.6114571" lon="12.1121601"><ele>463.0</ele><time>2026-04-12T14:55:50.92Z</time></trkpt><trkpt lat="43.6115797" lon="12.1123851"><ele>461.6666666666667</ele><time>2026-04-12T14:55:51.88Z</time></trkpt><trkpt lat="43.6117226" lon="12.1126019"><ele>460.33333333333337</ele><time>2026-04-12T14:55:52.882Z</time></trkpt><trkpt lat="43.6118761" lon="12.1128113"><ele>459.0</ele><time>2026-04-12T14:55:53.877Z</time></trkpt><trkpt lat="43.6120479" lon="12.1130091"><ele>459.0</ele><time>2026-04-12T14:55:54.867Z</time></trkpt><trkpt lat="43.6122185" lon="12.1132173"><ele>459.0</ele><time>2026-04-12T14:55:55.88Z</time></trkpt><trkpt lat="43.6123852" lon="12.1134604"><ele>466.0</ele><time>2026-04-12T14:55:56.884Z</time></trkpt><trkpt lat="43.6125328" lon="12.1137235"><ele>473.0</ele><time>2026-04-12T14:55:57.891Z</time></trkpt><trkpt lat="43.6126575" lon="12.1139705"><ele>470.0</ele><time>2026-04-12T14:55:58.901Z</time></trkpt><trkpt lat="43.6127657" lon="12.1142018"><ele>467.0</ele><time>2026-04-12T14:55:59.881Z</time></trkpt><trkpt lat="43.6128379" lon="12.1144188"><ele>464.0</ele><time>2026-04-12T14:56:00.891Z</time></trkpt><trkpt lat="43.6129003" lon="12.1145915"><ele>464.0</ele><time>2026-04-12T14:56:01.889Z</time></trkpt><trkpt lat="43.6130005" lon="12.1147109"><ele>464.0</ele><time>2026-04-12T14:56:02.884Z</time></trkpt><trkpt lat="43.6131418" lon="12.1147648"><ele>464.0</ele><time>2026-04-12T14:56:03.896Z</time></trkpt><trkpt lat="43.6133003" lon="12.1147871"><ele>464.0</ele><time>2026-04-12T14:56:04.876Z</time></trkpt><trkpt lat="43.6134797" lon="12.1148065"><ele>462.0</ele><time>2026-04-12T14:56:05.899Z</time></trkpt><trkpt lat="43.613669" lon="12.1148273"><ele>460.0</ele><time>2026-04-12T14:56:06.889Z</time></trkpt><trkpt lat="43.6138636" lon="12.1148555"><ele>458.0</ele><time>2026-04-12T14:56:07.884Z</time></trkpt><trkpt lat="43.6140412" lon="12.1148884"><ele>461.75</ele><time>2026-04-12T14:56:08.871Z</time></trkpt><trkpt lat="43.6141895" lon="12.114945"><ele>465.5</ele><time>2026-04-12T14:56:09.887Z</time></trkpt><trkpt lat="43.6143005" lon="12.1150591"><ele>469.25</ele><time>2026-04-12T14:56:10.888Z</time></trkpt><trkpt lat="43.614367" lon="12.1152084"><ele>473.0</ele><time>2026-04-12T14:56:11.874Z</time></trkpt><trkpt lat="43.6143752" lon="12.115372"><ele>473.0</ele><time>2026-04-12T14:56:12.872Z</time></trkpt><trkpt lat="43.6143388" lon="12.1155964"><ele>473.0</ele><time>2026-04-12T14:56:13.878Z</time></trkpt><trkpt lat="43.6142796" lon="12.1158192"><ele>473.0</ele><time>2026-04-12T14:56:14.886Z</time></trkpt><trkpt lat="43.6142311" lon="12.1160158"><ele>471.25</ele><time>2026-04-12T14:56:15.883Z</time></trkpt><trkpt lat="43.6142345" lon="12.1161756"><ele>469.5</ele><time>2026-04-12T14:56:16.89Z</time></trkpt><trkpt lat="43.6143199" lon="12.1163294"><ele>467.75</ele><time>2026-04-12T14:56:17.876Z</time></trkpt><trkpt lat="43.6144557" lon="12.1164398"><ele>466.0</ele><time>2026-04-12T14:56:18.879Z</time></trkpt><trkpt lat="43.6146099" lon="12.1165308"><ele>468.6666666666667</ele><time>2026-04-12T14:56:19.874Z</time></trkpt><trkpt lat="43.6147562" lon="12.1166354"><ele>471.33333333333337</ele><time>2026-04-12T14:56:20.878Z</time></trkpt><trkpt lat="43.6149094" lon="12.1168299"><ele>474.0</ele><time>2026-04-12T14:56:21.891Z</time></trkpt><trkpt lat="43.6150803" lon="12.1170753"><ele>474.0</ele><time>2026-04-12T14:56:22.977Z</time></trkpt><trkpt lat="43.6152321" lon="12.1173178"><ele>474.0</ele><time>2026-04-12T14:56:23.887Z</time></trkpt><trkpt lat="43.6153699" lon="12.1175284"><ele>474.0</ele><time>2026-04-12T14:56:24.898Z</time></trkpt><trkpt lat="43.6155237" lon="12.1176533"><ele>472.66666666666663</ele><time>2026-04-12T14:56:25.881Z</time></trkpt><trkpt lat="43.6156963" lon="12.1177082"><ele>471.3333333333333</ele><time>2026-04-12T14:56:26.878Z</time></trkpt><trkpt lat="43.6158956" lon="12.1177007"><ele>470.0</ele><time>2026-04-12T14:56:27.879Z</time></trkpt><trkpt lat="43.6160876" lon="12.1176787"><ele>467.75</ele><time>2026-04-12T14:56:28.873Z</time></trkpt><trkpt lat="43.6162524" lon="12.1176991"><ele>465.5</ele><time>2026-04-12T14:56:29.88Z</time></trkpt><trkpt lat="43.6163715" lon="12.1177696"><ele>463.25</ele><time>2026-04-12T14:56:30.88Z</time></trkpt><trkpt lat="43.616432" lon="12.1179209"><ele>461.0</ele><time>2026-04-12T14:56:31.894Z</time></trkpt><trkpt lat="43.6164544" lon="12.1181157"><ele>462.66666666666663</ele><time>2026-04-12T14:56:32.883Z</time></trkpt><trkpt lat="43.6164252" lon="12.1183431"><ele>464.33333333333337</ele><time>2026-04-12T14:56:33.879Z</time></trkpt><trkpt lat="43.6163622" lon="12.1185577"><ele>466.0</ele><time>2026-04-12T14:56:34.882Z</time></trkpt><trkpt lat="43.6162971" lon="12.1187724"><ele>466.0</ele><time>2026-04-12T14:56:35.882Z</time></trkpt><trkpt lat="43.6162317" lon="12.1189625"><ele>466.0</ele><time>2026-04-12T14:56:36.889Z</time></trkpt><trkpt lat="43.6161834" lon="12.1191412"><ele>466.0</ele><time>2026-04-12T14:56:37.88Z</time></trkpt><trkpt lat="43.6162197" lon="12.1192816"><ele>466.0</ele><time>2026-04-12T14:56:38.879Z</time></trkpt><trkpt lat="43.6163355" lon="12.1193818"><ele>466.0</ele><time>2026-04-12T14:56:39.885Z</time></trkpt><trkpt lat="43.6164764" lon="12.1194085"><ele>466.0</ele><time>2026-04-12T14:56:40.875Z</time></trkpt><trkpt lat="43.6166266" lon="12.1193845"><ele>466.0</ele><time>2026-04-12T14:56:41.879Z</time></trkpt><trkpt lat="43.6167538" lon="12.1192656"><ele>466.0</ele><time>2026-04-12T14:56:42.88Z</time></trkpt><trkpt lat="43.61685" lon="12.1190444"><ele>466.0</ele><time>2026-04-12T14:56:43.871Z</time></trkpt><trkpt lat="43.6169436" lon="12.118817"><ele>466.0</ele><time>2026-04-12T14:56:44.868Z</time></trkpt><trkpt lat="43.6170428" lon="12.118588"><ele>466.0</ele><time>2026-04-12T14:56:45.879Z</time></trkpt><trkpt lat="43.6171572" lon="12.1183573"><ele>464.0</ele><time>2026-04-12T14:56:46.902Z</time></trkpt><trkpt lat="43.6172929" lon="12.1181312"><ele>462.0</ele><time>2026-04-12T14:56:47.875Z</time></trkpt><trkpt lat="43.617442" lon="12.1179642"><ele>460.0</ele><time>2026-04-12T14:56:48.89Z</time></trkpt><trkpt lat="43.6175993" lon="12.1178522"><ele>459.5</ele><time>2026-04-12T14:56:49.98Z</time></trkpt><trkpt lat="43.6179825" lon="12.1177313"><ele>459.0</ele><time>2026-04-12T14:56:51.884Z</time></trkpt><trkpt lat="43.6182192" lon="12.1177581"><ele>459.0</ele><time>2026-04-12T14:56:52.879Z</time></trkpt><trkpt lat="43.6184795" lon="12.1177861"><ele>459.0</ele><time>2026-04-12T14:56:53.869Z</time></trkpt><trkpt lat="43.6187399" lon="12.1178017"><ele>460.0</ele><time>2026-04-12T14:56:54.88Z</time></trkpt><trkpt lat="43.6189853" lon="12.1177611"><ele>461.0</ele><time>2026-04-12T14:56:55.882Z</time></trkpt><trkpt lat="43.6191939" lon="12.1176914"><ele>461.0</ele><time>2026-04-12T14:56:56.888Z</time></trkpt><trkpt lat="43.6193784" lon="12.1175885"><ele>461.0</ele><time>2026-04-12T14:56:57.892Z</time></trkpt><trkpt lat="43.6195526" lon="12.1174662"><ele>461.0</ele><time>2026-04-12T14:56:58.892Z</time></trkpt><trkpt lat="43.6197112" lon="12.1173732"><ele>461.0</ele><time>2026-04-12T14:56:59.888Z</time></trkpt><trkpt lat="43.6198536" lon="12.1173489"><ele>461.0</ele><time>2026-04-12T14:57:00.902Z</time></trkpt><trkpt lat="43.6199869" lon="12.1173957"><ele>461.0</ele><time>2026-04-12T14:57:01.885Z</time></trkpt><trkpt lat="43.6200933" lon="12.1175288"><ele>461.0</ele><time>2026-04-12T14:57:02.888Z</time></trkpt><trkpt lat="43.6201817" lon="12.1177472"><ele>461.0</ele><time>2026-04-12T14:57:03.885Z</time></trkpt><trkpt lat="43.6202652" lon="12.1179689"><ele>461.0</ele><time>2026-04-12T14:57:04.889Z</time></trkpt><trkpt lat="43.6203548" lon="12.1181983"><ele>461.0</ele><time>2026-04-12T14:57:05.893Z</time></trkpt><trkpt lat="43.6204729" lon="12.118408"><ele>462.66666666666663</ele><time>2026-04-12T14:57:06.886Z</time></trkpt><trkpt lat="43.6206184" lon="12.1185873"><ele>464.33333333333337</ele><time>2026-04-12T14:57:07.877Z</time></trkpt><trkpt lat="43.6207851" lon="12.1187489"><ele>466.0</ele><time>2026-04-12T14:57:08.898Z</time></trkpt><trkpt lat="43.6209558" lon="12.1188905"><ele>466.0</ele><time>2026-04-12T14:57:09.875Z</time></trkpt><trkpt lat="43.621125" lon="12.1190213"><ele>466.0</ele><time>2026-04-12T14:57:10.872Z</time></trkpt><trkpt lat="43.6212758" lon="12.1191123"><ele>466.0</ele><time>2026-04-12T14:57:11.883Z</time></trkpt><trkpt lat="43.621414" lon="12.1191497"><ele>467.0</ele><time>2026-04-12T14:57:12.882Z</time></trkpt><trkpt lat="43.6215625" lon="12.1191332"><ele>468.0</ele><time>2026-04-12T14:57:13.903Z</time></trkpt><trkpt lat="43.6217399" lon="12.1190942"><ele>469.0</ele><time>2026-04-12T14:57:14.875Z</time></trkpt><trkpt lat="43.6219268" lon="12.1190421"><ele>469.0</ele><time>2026-04-12T14:57:15.874Z</time></trkpt><trkpt lat="43.6221179" lon="12.1190058"><ele>469.0</ele><time>2026-04-12T14:57:16.881Z</time></trkpt><trkpt lat="43.6223172" lon="12.1189839"><ele>469.0</ele><time>2026-04-12T14:57:17.886Z</time></trkpt><trkpt lat="43.6225324" lon="12.1189851"><ele>469.0</ele><time>2026-04-12T14:57:18.876Z</time></trkpt><trkpt lat="43.622768" lon="12.1189941"><ele>469.0</ele><time>2026-04-12T14:57:19.867Z</time></trkpt><trkpt lat="43.6230106" lon="12.1190052"><ele>470.6666666666667</ele><time>2026-04-12T14:57:20.976Z</time></trkpt><trkpt lat="43.6232269" lon="12.1190117"><ele>472.33333333333337</ele><time>2026-04-12T14:57:21.879Z</time></trkpt><trkpt lat="43.6234255" lon="12.1190193"><ele>474.0</ele><time>2026-04-12T14:57:22.879Z</time></trkpt><trkpt lat="43.6236188" lon="12.1190283"><ele>474.66666666666663</ele><time>2026-04-12T14:57:23.889Z</time></trkpt><trkpt lat="43.6238059" lon="12.1190391"><ele>475.3333333333333</ele><time>2026-04-12T14:57:24.887Z</time></trkpt><trkpt lat="43.6239823" lon="12.1190449"><ele>476.0</ele><time>2026-04-12T14:57:25.885Z</time></trkpt><trkpt lat="43.6241515" lon="12.1190546"><ele>476.0</ele><time>2026-04-12T14:57:26.877Z</time></trkpt><trkpt lat="43.6243144" lon="12.1190597"><ele>476.0</ele><time>2026-04-12T14:57:27.88Z</time></trkpt><trkpt lat="43.624482" lon="12.1190672"><ele>476.0</ele><time>2026-04-12T14:57:28.884Z</time></trkpt><trkpt lat="43.6246564" lon="12.1190679"><ele>478.0</ele><time>2026-04-12T14:57:29.871Z</time></trkpt><trkpt lat="43.624835" lon="12.1190476"><ele>480.0</ele><time>2026-04-12T14:57:30.879Z</time></trkpt><trkpt lat="43.6250184" lon="12.1190101"><ele>482.0</ele><time>2026-04-12T14:57:31.878Z</time></trkpt><trkpt lat="43.6251943" lon="12.1189642"><ele>485.66666666666663</ele><time>2026-04-12T14:57:32.875Z</time></trkpt><trkpt lat="43.6253626" lon="12.1189149"><ele>489.33333333333337</ele><time>2026-04-12T14:57:33.91Z</time></trkpt><trkpt lat="43.625528" lon="12.1188703"><ele>493.0</ele><time>2026-04-12T14:57:34.889Z</time></trkpt><trkpt lat="43.6256817" lon="12.118833"><ele>493.0</ele><time>2026-04-12T14:57:35.879Z</time></trkpt><trkpt lat="43.6258278" lon="12.118788"><ele>493.0</ele><time>2026-04-12T14:57:36.883Z</time></trkpt><trkpt lat="43.6259652" lon="12.1187506"><ele>493.0</ele><time>2026-04-12T14:57:37.888Z</time></trkpt><trkpt lat="43.6261001" lon="12.1187188"><ele>493.0</ele><time>2026-04-12T14:57:38.868Z</time></trkpt><trkpt lat="43.6262438" lon="12.1186969"><ele>493.75</ele><time>2026-04-12T14:57:39.868Z</time></trkpt><trkpt lat="43.6263852" lon="12.11869"><ele>494.5</ele><time>2026-04-12T14:57:40.875Z</time></trkpt><trkpt lat="43.6265152" lon="12.1187079"><ele>495.25</ele><time>2026-04-12T14:57:41.867Z</time></trkpt><trkpt lat="43.6266317" lon="12.1187329"><ele>496.0</ele><time>2026-04-12T14:57:42.878Z</time></trkpt><trkpt lat="43.626748" lon="12.1187455"><ele>496.0</ele><time>2026-04-12T14:57:43.876Z</time></trkpt><trkpt lat="43.6268626" lon="12.1187455"><ele>496.0</ele><time>2026-04-12T14:57:44.871Z</time></trkpt><trkpt lat="43.6269836" lon="12.1186912"><ele>496.0</ele><time>2026-04-12T14:57:45.878Z</time></trkpt><trkpt lat="43.6271187" lon="12.1185568"><ele>496.0</ele><time>2026-04-12T14:57:46.883Z</time></trkpt><trkpt lat="43.6272673" lon="12.1184025"><ele>494.0</ele><time>2026-04-12T14:57:47.873Z</time></trkpt><trkpt lat="43.6274485" lon="12.1182206"><ele>492.0</ele><time>2026-04-12T14:57:48.875Z</time></trkpt><trkpt lat="43.6276522" lon="12.1180238"><ele>494.66666666666663</ele><time>2026-04-12T14:57:49.88Z</time></trkpt><trkpt lat="43.6278387" lon="12.1178374"><ele>497.3333333333333</ele><time>2026-04-12T14:57:50.967Z</time></trkpt><trkpt lat="43.627998" lon="12.1176843"><ele>500.0</ele><time>2026-04-12T14:57:51.885Z</time></trkpt><trkpt lat="43.6281603" lon="12.1175655"><ele>500.0</ele><time>2026-04-12T14:57:52.885Z</time></trkpt><trkpt lat="43.6283173" lon="12.1174887"><ele>500.0</ele><time>2026-04-12T14:57:53.891Z</time></trkpt><trkpt lat="43.6284852" lon="12.117458"><ele>500.0</ele><time>2026-04-12T14:57:54.876Z</time></trkpt><trkpt lat="43.6286516" lon="12.1174867"><ele>502.66666666666663</ele><time>2026-04-12T14:57:55.899Z</time></trkpt><trkpt lat="43.628808" lon="12.1175216"><ele>505.33333333333337</ele><time>2026-04-12T14:57:56.875Z</time></trkpt><trkpt lat="43.6289697" lon="12.1174594"><ele>508.0</ele><time>2026-04-12T14:57:57.88Z</time></trkpt><trkpt lat="43.6291131" lon="12.1173321"><ele>505.0</ele><time>2026-04-12T14:57:58.879Z</time></trkpt><trkpt lat="43.6292572" lon="12.1171993"><ele>502.0</ele><time>2026-04-12T14:57:59.894Z</time></trkpt><trkpt lat="43.6294044" lon="12.1170843"><ele>499.0</ele><time>2026-04-12T14:58:00.867Z</time></trkpt><trkpt lat="43.6295709" lon="12.1170003"><ele>499.0</ele><time>2026-04-12T14:58:01.873Z</time></trkpt><trkpt lat="43.6297418" lon="12.1169409"><ele>499.0</ele><time>2026-04-12T14:58:02.882Z</time></trkpt><trkpt lat="43.6299215" lon="12.1169051"><ele>499.0</ele><time>2026-04-12T14:58:03.888Z</time></trkpt><trkpt lat="43.6301106" lon="12.1169299"><ele>499.0</ele><time>2026-04-12T14:58:04.898Z</time></trkpt><trkpt lat="43.630296" lon="12.1170172"><ele>499.0</ele><time>2026-04-12T14:58:05.885Z</time></trkpt><trkpt lat="43.6304727" lon="12.1171313"><ele>499.0</ele><time>2026-04-12T14:58:06.873Z</time></trkpt><trkpt lat="43.6306375" lon="12.1172386"><ele>500.25</ele><time>2026-04-12T14:58:07.894Z</time></trkpt><trkpt lat="43.6307752" lon="12.1173341"><ele>501.5</ele><time>2026-04-12T14:58:08.884Z</time></trkpt><trkpt lat="43.6308938" lon="12.1174069"><ele>502.75</ele><time>2026-04-12T14:58:09.886Z</time></trkpt><trkpt lat="43.6310089" lon="12.1174507"><ele>504.0</ele><time>2026-04-12T14:58:10.881Z</time></trkpt><trkpt lat="43.6311172" lon="12.1174391"><ele>504.0</ele><time>2026-04-12T14:58:11.896Z</time></trkpt><trkpt lat="43.6312032" lon="12.1173748"><ele>504.0</ele><time>2026-04-12T14:58:12.88Z</time></trkpt><trkpt lat="43.6312611" lon="12.1172712"><ele>504.0</ele><time>2026-04-12T14:58:13.875Z</time></trkpt><trkpt lat="43.6311989" lon="12.1170488"><ele>504.0</ele><time>2026-04-12T14:58:14.88Z</time></trkpt><trkpt lat="43.6310717" lon="12.1168661"><ele>504.0</ele><time>2026-04-12T14:58:15.887Z</time></trkpt><trkpt lat="43.63093" lon="12.1167712"><ele>504.0</ele><time>2026-04-12T14:58:16.872Z</time></trkpt><trkpt lat="43.6308366" lon="12.1166357"><ele>504.0</ele><time>2026-04-12T14:58:17.891Z</time></trkpt><trkpt lat="43.630804" lon="12.116492"><ele>504.0</ele><time>2026-04-12T14:58:18.883Z</time></trkpt><trkpt lat="43.6308969" lon="12.1163893"><ele>503.5</ele><time>2026-04-12T14:58:19.882Z</time></trkpt><trkpt lat="43.6310044" lon="12.1163974"><ele>503.0</ele><time>2026-04-12T14:58:20.88Z</time></trkpt><trkpt lat="43.6311254" lon="12.1164926"><ele>502.5</ele><time>2026-04-12T14:58:21.882Z</time></trkpt><trkpt lat="43.6312898" lon="12.116642"><ele>502.0</ele><time>2026-04-12T14:58:22.891Z</time></trkpt><trkpt lat="43.6314756" lon="12.1168023"><ele>509.5</ele><time>2026-04-12T14:58:23.902Z</time></trkpt><trkpt lat="43.6317075" lon="12.1169533"><ele>517.0</ele><time>2026-04-12T14:58:24.882Z</time></trkpt><trkpt lat="43.6319684" lon="12.1170928"><ele>523.5</ele><time>2026-04-12T14:58:25.89Z</time></trkpt><trkpt lat="43.632257" lon="12.1172048"><ele>530.0</ele><time>2026-04-12T14:58:26.969Z</time></trkpt><trkpt lat="43.6325604" lon="12.117324"><ele>530.0</ele><time>2026-04-12T14:58:27.889Z</time></trkpt><trkpt lat="43.6328657" lon="12.1174641"><ele>530.0</ele><time>2026-04-12T14:58:28.897Z</time></trkpt><trkpt lat="43.633168" lon="12.1176152"><ele>530.0</ele><time>2026-04-12T14:58:29.881Z</time></trkpt><trkpt lat="43.6334052" lon="12.1177469"><ele>530.0</ele><time>2026-04-12T14:58:30.884Z</time></trkpt><trkpt lat="43.6335901" lon="12.1178356"><ele>533.8</ele><time>2026-04-12T14:58:31.879Z</time></trkpt><trkpt lat="43.6337384" lon="12.1178996"><ele>537.6</ele><time>2026-04-12T14:58:32.882Z</time></trkpt><trkpt lat="43.6338378" lon="12.1178872"><ele>541.4</ele><time>2026-04-12T14:58:33.892Z</time></trkpt><trkpt lat="43.6339038" lon="12.1178739"><ele>545.2</ele><time>2026-04-12T14:58:34.883Z</time></trkpt><trkpt lat="43.6339417" lon="12.1178006"><ele>549.0</ele><time>2026-04-12T14:58:35.882Z</time></trkpt><trkpt lat="43.6339165" lon="12.1176219"><ele>549.0</ele><time>2026-04-12T14:58:36.884Z</time></trkpt><trkpt lat="43.6338178" lon="12.117468"><ele>549.0</ele><time>2026-04-12T14:58:37.884Z</time></trkpt><trkpt lat="43.6336548" lon="12.1173287"><ele>549.0</ele><time>2026-04-12T14:58:39.004Z</time></trkpt><trkpt lat="43.6334466" lon="12.1171658"><ele>546.6666666666666</ele><time>2026-04-12T14:58:39.912Z</time></trkpt><trkpt lat="43.633259" lon="12.116999"><ele>544.3333333333333</ele><time>2026-04-12T14:58:40.87Z</time></trkpt><trkpt lat="43.6331107" lon="12.116827"><ele>542.0</ele><time>2026-04-12T14:58:41.872Z</time></trkpt><trkpt lat="43.6330136" lon="12.1166491"><ele>544.0</ele><time>2026-04-12T14:58:42.877Z</time></trkpt><trkpt lat="43.6329513" lon="12.1164641"><ele>546.0</ele><time>2026-04-12T14:58:43.871Z</time></trkpt><trkpt lat="43.6329556" lon="12.1162437"><ele>548.0</ele><time>2026-04-12T14:58:44.885Z</time></trkpt><trkpt lat="43.6330096" lon="12.1160034"><ele>548.0</ele><time>2026-04-12T14:58:45.882Z</time></trkpt><trkpt lat="43.6331034" lon="12.1157415"><ele>548.0</ele><time>2026-04-12T14:58:46.882Z</time></trkpt><trkpt lat="43.6332142" lon="12.1154778"><ele>548.0</ele><time>2026-04-12T14:58:47.977Z</time></trkpt><trkpt lat="43.6333332" lon="12.1152076"><ele>547.0</ele><time>2026-04-12T14:58:48.878Z</time></trkpt><trkpt lat="43.6334563" lon="12.1149671"><ele>546.0</ele><time>2026-04-12T14:58:49.886Z</time></trkpt><trkpt lat="43.6335735" lon="12.1147594"><ele>545.0</ele><time>2026-04-12T14:58:50.878Z</time></trkpt><trkpt lat="43.6337087" lon="12.1145739"><ele>545.0</ele><time>2026-04-12T14:58:51.89Z</time></trkpt><trkpt lat="43.6338622" lon="12.11438"><ele>545.0</ele><time>2026-04-12T14:58:52.869Z</time></trkpt><trkpt lat="43.6340265" lon="12.1141794"><ele>545.0</ele><time>2026-04-12T14:58:53.888Z</time></trkpt><trkpt lat="43.634193" lon="12.1139865"><ele>545.0</ele><time>2026-04-12T14:58:54.881Z</time></trkpt><trkpt lat="43.6343587" lon="12.1138336"><ele>545.0</ele><time>2026-04-12T14:58:55.89Z</time></trkpt><trkpt lat="43.6345368" lon="12.1137279"><ele>545.0</ele><time>2026-04-12T14:58:56.889Z</time></trkpt><trkpt lat="43.6347251" lon="12.1137505"><ele>548.0</ele><time>2026-04-12T14:58:57.967Z</time></trkpt><trkpt lat="43.6349193" lon="12.1137633"><ele>551.0</ele><time>2026-04-12T14:58:58.88Z</time></trkpt><trkpt lat="43.6351691" lon="12.1138217"><ele>554.0</ele><time>2026-04-12T14:58:59.88Z</time></trkpt><trkpt lat="43.6353985" lon="12.1139415"><ele>557.3333333333333</ele><time>2026-04-12T14:59:00.876Z</time></trkpt><trkpt lat="43.6355842" lon="12.1140896"><ele>560.6666666666666</ele><time>2026-04-12T14:59:01.883Z</time></trkpt><trkpt lat="43.6357365" lon="12.114192"><ele>564.0</ele><time>2026-04-12T14:59:02.895Z</time></trkpt><trkpt lat="43.6358675" lon="12.1142276"><ele>564.0</ele><time>2026-04-12T14:59:03.888Z</time></trkpt><trkpt lat="43.6359679" lon="12.1141829"><ele>564.0</ele><time>2026-04-12T14:59:04.894Z</time></trkpt><trkpt lat="43.6360359" lon="12.1140128"><ele>564.0</ele><time>2026-04-12T14:59:05.891Z</time></trkpt><trkpt lat="43.6360358" lon="12.1137874"><ele>564.0</ele><time>2026-04-12T14:59:06.877Z</time></trkpt><trkpt lat="43.6359715" lon="12.1136008"><ele>564.5</ele><time>2026-04-12T14:59:07.891Z</time></trkpt><trkpt lat="43.6358578" lon="12.1134402"><ele>565.0</ele><time>2026-04-12T14:59:08.888Z</time></trkpt><trkpt lat="43.6357536" lon="12.1133226"><ele>565.5</ele><time>2026-04-12T14:59:09.875Z</time></trkpt><trkpt lat="43.635713" lon="12.1132044"><ele>566.0</ele><time>2026-04-12T14:59:10.895Z</time></trkpt><trkpt lat="43.6357883" lon="12.1131189"><ele>564.3333333333333</ele><time>2026-04-12T14:59:11.892Z</time></trkpt><trkpt lat="43.6359694" lon="12.1130846"><ele>562.6666666666666</ele><time>2026-04-12T14:59:12.883Z</time></trkpt><trkpt lat="43.6361711" lon="12.1130805"><ele>561.0</ele><time>2026-04-12T14:59:13.872Z</time></trkpt><trkpt lat="43.6364063" lon="12.1131209"><ele>561.0</ele><time>2026-04-12T14:59:14.876Z</time></trkpt><trkpt lat="43.6366725" lon="12.1131132"><ele>561.0</ele><time>2026-04-12T14:59:15.878Z</time></trkpt><trkpt lat="43.6369585" lon="12.1130229"><ele>565.5</ele><time>2026-04-12T14:59:16.877Z</time></trkpt><trkpt lat="43.6372229" lon="12.1128951"><ele>570.0</ele><time>2026-04-12T14:59:17.883Z</time></trkpt><trkpt lat="43.637448" lon="12.1127956"><ele>570.0</ele><time>2026-04-12T14:59:18.883Z</time></trkpt><trkpt lat="43.6376405" lon="12.1127258"><ele>570.0</ele><time>2026-04-12T14:59:19.898Z</time></trkpt><trkpt lat="43.6378181" lon="12.1127298"><ele>570.0</ele><time>2026-04-12T14:59:20.878Z</time></trkpt><trkpt lat="43.6380164" lon="12.1128158"><ele>570.6666666666666</ele><time>2026-04-12T14:59:21.874Z</time></trkpt><trkpt lat="43.6382007" lon="12.1129785"><ele>571.3333333333333</ele><time>2026-04-12T14:59:22.874Z</time></trkpt><trkpt lat="43.6383926" lon="12.1130941"><ele>572.0</ele><time>2026-04-12T14:59:23.882Z</time></trkpt><trkpt lat="43.6385828" lon="12.1131351"><ele>574.0</ele><time>2026-04-12T14:59:24.877Z</time></trkpt><trkpt lat="43.6387664" lon="12.1130827"><ele>576.0</ele><time>2026-04-12T14:59:25.885Z</time></trkpt><trkpt lat="43.638914" lon="12.1130087"><ele>578.0</ele><time>2026-04-12T14:59:26.889Z</time></trkpt><trkpt lat="43.6390364" lon="12.1129461"><ele>578.0</ele><time>2026-04-12T14:59:27.893Z</time></trkpt><trkpt lat="43.6391528" lon="12.1129028"><ele>578.0</ele><time>2026-04-12T14:59:28.902Z</time></trkpt><trkpt lat="43.6392802" lon="12.112851"><ele>578.0</ele><time>2026-04-12T14:59:29.882Z</time></trkpt><trkpt lat="43.6394014" lon="12.1127862"><ele>578.0</ele><time>2026-04-12T14:59:30.881Z</time></trkpt><trkpt lat="43.6395243" lon="12.1127249"><ele>580.5</ele><time>2026-04-12T14:59:31.885Z</time></trkpt><trkpt lat="43.6396584" lon="12.1126719"><ele>583.0</ele><time>2026-04-12T14:59:32.991Z</time></trkpt><trkpt lat="43.6397977" lon="12.1126247"><ele>585.5</ele><time>2026-04-12T14:59:33.982Z</time></trkpt><trkpt lat="43.6399225" lon="12.1126148"><ele>588.0</ele><time>2026-04-12T14:59:34.901Z</time></trkpt><trkpt lat="43.6400308" lon="12.1126268"><ele>588.0</ele><time>2026-04-12T14:59:35.881Z</time></trkpt><trkpt lat="43.6401222" lon="12.1126473"><ele>588.0</ele><time>2026-04-12T14:59:36.902Z</time></trkpt><trkpt lat="43.640192" lon="12.1126565"><ele>588.0</ele><time>2026-04-12T14:59:37.894Z</time></trkpt><trkpt lat="43.6403023" lon="12.1126007"><ele>588.0</ele><time>2026-04-12T14:59:39.885Z</time></trkpt><trkpt lat="43.640348" lon="12.1125317"><ele>588.0</ele><time>2026-04-12T14:59:40.977Z</time></trkpt><trkpt lat="43.6403767" lon="12.1124273"><ele>588.0</ele><time>2026-04-12T14:59:41.879Z</time></trkpt><trkpt lat="43.6403775" lon="12.112274"><ele>588.3333333333334</ele><time>2026-04-12T14:59:42.88Z</time></trkpt><trkpt lat="43.6403353" lon="12.1120654"><ele>588.6666666666667</ele><time>2026-04-12T14:59:43.878Z</time></trkpt><trkpt lat="43.640266" lon="12.1117904"><ele>589.0</ele><time>2026-04-12T14:59:44.878Z</time></trkpt><trkpt lat="43.6402085" lon="12.1114702"><ele>592.0</ele><time>2026-04-12T14:59:45.882Z</time></trkpt><trkpt lat="43.640157" lon="12.1111014"><ele>595.0</ele><time>2026-04-12T14:59:46.882Z</time></trkpt><trkpt lat="43.6400962" lon="12.1107266"><ele>598.0</ele><time>2026-04-12T14:59:47.91Z</time></trkpt><trkpt lat="43.6400248" lon="12.1103789"><ele>601.0</ele><time>2026-04-12T14:59:48.881Z</time></trkpt><trkpt lat="43.6399604" lon="12.1101038"><ele>601.25</ele><time>2026-04-12T14:59:49.883Z</time></trkpt><trkpt lat="43.6399118" lon="12.1099037"><ele>601.5</ele><time>2026-04-12T14:59:50.884Z</time></trkpt><trkpt lat="43.639885" lon="12.1097221"><ele>601.75</ele><time>2026-04-12T14:59:51.89Z</time></trkpt><trkpt lat="43.6398926" lon="12.1095601"><ele>602.0</ele><time>2026-04-12T14:59:52.899Z</time></trkpt><trkpt lat="43.6399878" lon="12.10939"><ele>602.0</ele><time>2026-04-12T14:59:53.891Z</time></trkpt><trkpt lat="43.6401401" lon="12.1092629"><ele>602.0</ele><time>2026-04-12T14:59:54.882Z</time></trkpt><trkpt lat="43.6403301" lon="12.1091846"><ele>602.0</ele><time>2026-04-12T14:59:55.909Z</time></trkpt><trkpt lat="43.6405411" lon="12.1090931"><ele>604.5</ele><time>2026-04-12T14:59:56.897Z</time></trkpt><trkpt lat="43.6407821" lon="12.1089409"><ele>607.0</ele><time>2026-04-12T14:59:57.883Z</time></trkpt><trkpt lat="43.6410355" lon="12.1087251"><ele>611.5</ele><time>2026-04-12T14:59:58.89Z</time></trkpt><trkpt lat="43.6412953" lon="12.1084838"><ele>616.0</ele><time>2026-04-12T14:59:59.895Z</time></trkpt><trkpt lat="43.6415421" lon="12.1082596"><ele>613.5</ele><time>2026-04-12T15:00:00.905Z</time></trkpt><trkpt lat="43.6417599" lon="12.1080614"><ele>611.0</ele><time>2026-04-12T15:00:01.889Z</time></trkpt><trkpt lat="43.6419471" lon="12.1078767"><ele>614.0</ele><time>2026-04-12T15:00:02.887Z</time></trkpt><trkpt lat="43.6421534" lon="12.1077019"><ele>617.0</ele><time>2026-04-12T15:00:03.914Z</time></trkpt><trkpt lat="43.6423897" lon="12.1075611"><ele>617.0</ele><time>2026-04-12T15:00:04.895Z</time></trkpt><trkpt lat="43.6426522" lon="12.1074714"><ele>617.0</ele><time>2026-04-12T15:00:05.907Z</time></trkpt><trkpt lat="43.6429125" lon="12.1073866"><ele>616.6666666666666</ele><time>2026-04-12T15:00:06.897Z</time></trkpt><trkpt lat="43.6431448" lon="12.1073021"><ele>616.3333333333334</ele><time>2026-04-12T15:00:07.904Z</time></trkpt><trkpt lat="43.6433358" lon="12.1072149"><ele>616.0</ele><time>2026-04-12T15:00:08.888Z</time></trkpt><trkpt lat="43.6434984" lon="12.1071514"><ele>618.0</ele><time>2026-04-12T15:00:09.897Z</time></trkpt><trkpt lat="43.6436521" lon="12.1071322"><ele>620.0</ele><time>2026-04-12T15:00:10.893Z</time></trkpt><trkpt lat="43.6438298" lon="12.1071762"><ele>622.0</ele><time>2026-04-12T15:00:11.901Z</time></trkpt><trkpt lat="43.6440097" lon="12.1072488"><ele>622.0</ele><time>2026-04-12T15:00:12.886Z</time></trkpt><trkpt lat="43.6441757" lon="12.1072638"><ele>622.0</ele><time>2026-04-12T15:00:13.889Z</time></trkpt><trkpt lat="43.6443526" lon="12.1071865"><ele>622.0</ele><time>2026-04-12T15:00:14.893Z</time></trkpt><trkpt lat="43.6445525" lon="12.107053"><ele>631.0</ele><time>2026-04-12T15:00:15.891Z</time></trkpt><trkpt lat="43.6447549" lon="12.106878"><ele>640.0</ele><time>2026-04-12T15:00:16.887Z</time></trkpt><trkpt lat="43.6449426" lon="12.1066479"><ele>636.0</ele><time>2026-04-12T15:00:17.894Z</time></trkpt><trkpt lat="43.6450983" lon="12.1063717"><ele>632.0</ele><time>2026-04-12T15:00:18.875Z</time></trkpt><trkpt lat="43.6452197" lon="12.1061071"><ele>638.6666666666666</ele><time>2026-04-12T15:00:19.892Z</time></trkpt><trkpt lat="43.6453485" lon="12.1058958"><ele>645.3333333333334</ele><time>2026-04-12T15:00:20.883Z</time></trkpt><trkpt lat="43.6454944" lon="12.1057173"><ele>652.0</ele><time>2026-04-12T15:00:21.889Z</time></trkpt><trkpt lat="43.6455878" lon="12.1055652"><ele>652.0</ele><time>2026-04-12T15:00:22.896Z</time></trkpt><trkpt lat="43.6456282" lon="12.1054038"><ele>652.0</ele><time>2026-04-12T15:00:23.966Z</time></trkpt><trkpt lat="43.6456127" lon="12.1052065"><ele>652.0</ele><time>2026-04-12T15:00:24.892Z</time></trkpt><trkpt lat="43.6455507" lon="12.105006"><ele>652.0</ele><time>2026-04-12T15:00:25.909Z</time></trkpt><trkpt lat="43.6454559" lon="12.1047292"><ele>653.5</ele><time>2026-04-12T15:00:26.908Z</time></trkpt><trkpt lat="43.6453982" lon="12.1044163"><ele>655.0</ele><time>2026-04-12T15:00:27.894Z</time></trkpt><trkpt lat="43.6453806" lon="12.1040612"><ele>655.6666666666667</ele><time>2026-04-12T15:00:28.899Z</time></trkpt><trkpt lat="43.645386" lon="12.1037738"><ele>656.3333333333334</ele><time>2026-04-12T15:00:29.89Z</time></trkpt><trkpt lat="43.6453949" lon="12.1035109"><ele>657.0</ele><time>2026-04-12T15:00:30.918Z</time></trkpt><trkpt lat="43.6454071" lon="12.1032575"><ele>656.0</ele><time>2026-04-12T15:00:31.893Z</time></trkpt><trkpt lat="43.6454585" lon="12.1030302"><ele>655.0</ele><time>2026-04-12T15:00:32.885Z</time></trkpt><trkpt lat="43.6455473" lon="12.1028043"><ele>654.0</ele><time>2026-04-12T15:00:33.889Z</time></trkpt><trkpt lat="43.6456842" lon="12.1025734"><ele>651.0</ele><time>2026-04-12T15:00:34.995Z</time></trkpt><trkpt lat="43.6460767" lon="12.1021836"><ele>656.0</ele><time>2026-04-12T15:00:36.906Z</time></trkpt><trkpt lat="43.6463102" lon="12.1019702"><ele>661.0</ele><time>2026-04-12T15:00:38.004Z</time></trkpt><trkpt lat="43.6467532" lon="12.1015098"><ele>661.0</ele><time>2026-04-12T15:00:39.901Z</time></trkpt><trkpt lat="43.6469037" lon="12.1012621"><ele>661.0</ele><time>2026-04-12T15:00:40.885Z</time></trkpt><trkpt lat="43.6470122" lon="12.1009833"><ele>667.5</ele><time>2026-04-12T15:00:41.893Z</time></trkpt><trkpt lat="43.6470896" lon="12.1006518"><ele>674.0</ele><time>2026-04-12T15:00:42.888Z</time></trkpt><trkpt lat="43.6471577" lon="12.1003475"><ele>674.0</ele><time>2026-04-12T15:00:43.893Z</time></trkpt><trkpt lat="43.6472005" lon="12.1001169"><ele>674.0</ele><time>2026-04-12T15:00:44.9Z</time></trkpt><trkpt lat="43.6471879" lon="12.099918"><ele>674.0</ele><time>2026-04-12T15:00:45.893Z</time></trkpt><trkpt lat="43.6471206" lon="12.0997517"><ele>675.75</ele><time>2026-04-12T15:00:46.883Z</time></trkpt><trkpt lat="43.6470068" lon="12.0996333"><ele>677.5</ele><time>2026-04-12T15:00:47.88Z</time></trkpt><trkpt lat="43.6469054" lon="12.099519"><ele>679.25</ele><time>2026-04-12T15:00:48.875Z</time></trkpt><trkpt lat="43.6468857" lon="12.0993493"><ele>681.0</ele><time>2026-04-12T15:00:49.896Z</time></trkpt><trkpt lat="43.6469808" lon="12.0991589"><ele>682.6666666666666</ele><time>2026-04-12T15:00:50.884Z</time></trkpt><trkpt lat="43.6471257" lon="12.0989795"><ele>684.3333333333333</ele><time>2026-04-12T15:00:51.888Z</time></trkpt><trkpt lat="43.6472531" lon="12.0988269"><ele>686.0</ele><time>2026-04-12T15:00:52.911Z</time></trkpt><trkpt lat="43.6473521" lon="12.0986477"><ele>686.0</ele><time>2026-04-12T15:00:53.894Z</time></trkpt><trkpt lat="43.6474011" lon="12.0984345"><ele>686.0</ele><time>2026-04-12T15:00:54.895Z</time></trkpt><trkpt lat="43.6473871" lon="12.0981536"><ele>686.0</ele><time>2026-04-12T15:00:55.882Z</time></trkpt><trkpt lat="43.6473383" lon="12.0978359"><ele>686.5</ele><time>2026-04-12T15:00:56.882Z</time></trkpt><trkpt lat="43.6472867" lon="12.0975102"><ele>687.0</ele><time>2026-04-12T15:00:57.888Z</time></trkpt><trkpt lat="43.6472615" lon="12.0971995"><ele>687.0</ele><time>2026-04-12T15:00:58.997Z</time></trkpt><trkpt lat="43.6472969" lon="12.0966618"><ele>687.0</ele><time>2026-04-12T15:01:00.887Z</time></trkpt><trkpt lat="43.647357" lon="12.0964015"><ele>685.0</ele><time>2026-04-12T15:01:01.888Z</time></trkpt><trkpt lat="43.6473781" lon="12.0961574"><ele>683.0</ele><time>2026-04-12T15:01:02.878Z</time></trkpt><trkpt lat="43.6473705" lon="12.0959334"><ele>681.0</ele><time>2026-04-12T15:01:03.901Z</time></trkpt><trkpt lat="43.6473686" lon="12.0957433"><ele>679.5</ele><time>2026-04-12T15:01:04.884Z</time></trkpt><trkpt lat="43.6473899" lon="12.0956079"><ele>678.0</ele><time>2026-04-12T15:01:05.898Z</time></trkpt><trkpt lat="43.6474664" lon="12.0954992"><ele>676.5</ele><time>2026-04-12T15:01:06.899Z</time></trkpt><trkpt lat="43.6476108" lon="12.0954283"><ele>675.0</ele><time>2026-04-12T15:01:07.894Z</time></trkpt><trkpt lat="43.647782" lon="12.0954168"><ele>675.0</ele><time>2026-04-12T15:01:09Z</time></trkpt><trkpt lat="43.648137" lon="12.0955384"><ele>675.0</ele><time>2026-04-12T15:01:10.989Z</time></trkpt><trkpt lat="43.6482623" lon="12.0956783"><ele>681.0</ele><time>2026-04-12T15:01:12.004Z</time></trkpt><trkpt lat="43.6484279" lon="12.0961957"><ele>687.0</ele><time>2026-04-12T15:01:13.895Z</time></trkpt><trkpt lat="43.6485433" lon="12.09647"><ele>690.3333333333334</ele><time>2026-04-12T15:01:14.885Z</time></trkpt><trkpt lat="43.6486764" lon="12.0966746"><ele>693.6666666666667</ele><time>2026-04-12T15:01:15.894Z</time></trkpt><trkpt lat="43.6488326" lon="12.0967576"><ele>697.0</ele><time>2026-04-12T15:01:16.89Z</time></trkpt><trkpt lat="43.6490199" lon="12.0967835"><ele>697.0</ele><time>2026-04-12T15:01:17.871Z</time></trkpt><trkpt lat="43.649254" lon="12.0967288"><ele>697.0</ele><time>2026-04-12T15:01:18.884Z</time></trkpt><trkpt lat="43.6494668" lon="12.096681"><ele>695.0</ele><time>2026-04-12T15:01:19.888Z</time></trkpt><trkpt lat="43.6496222" lon="12.0966878"><ele>693.0</ele><time>2026-04-12T15:01:20.893Z</time></trkpt><trkpt lat="43.6497422" lon="12.0967684"><ele>691.0</ele><time>2026-04-12T15:01:21.894Z</time></trkpt><trkpt lat="43.6498174" lon="12.0968863"><ele>689.0</ele><time>2026-04-12T15:01:22.982Z</time></trkpt><trkpt lat="43.6498178" lon="12.0971119"><ele>689.0</ele><time>2026-04-12T15:01:23.891Z</time></trkpt><trkpt lat="43.6497924" lon="12.0973634"><ele>689.0</ele><time>2026-04-12T15:01:24.889Z</time></trkpt><trkpt lat="43.6497834" lon="12.0975815"><ele>689.0</ele><time>2026-04-12T15:01:25.878Z</time></trkpt><trkpt lat="43.6498097" lon="12.0977992"><ele>692.3333333333333</ele><time>2026-04-12T15:01:26.89Z</time></trkpt><trkpt lat="43.6499126" lon="12.0979826"><ele>695.6666666666666</ele><time>2026-04-12T15:01:27.891Z</time></trkpt><trkpt lat="43.6500683" lon="12.0981715"><ele>699.0</ele><time>2026-04-12T15:01:28.887Z</time></trkpt><trkpt lat="43.6502068" lon="12.0983685"><ele>703.0</ele><time>2026-04-12T15:01:29.899Z</time></trkpt><trkpt lat="43.6502705" lon="12.0986216"><ele>707.0</ele><time>2026-04-12T15:01:30.875Z</time></trkpt><trkpt lat="43.6502513" lon="12.0989562"><ele>711.0</ele><time>2026-04-12T15:01:31.896Z</time></trkpt><trkpt lat="43.6502485" lon="12.0993238"><ele>712.0</ele><time>2026-04-12T15:01:32.888Z</time></trkpt><trkpt lat="43.6502619" lon="12.0996805"><ele>713.0</ele><time>2026-04-12T15:01:33.897Z</time></trkpt><trkpt lat="43.6502814" lon="12.1000349"><ele>711.0</ele><time>2026-04-12T15:01:34.886Z</time></trkpt><trkpt lat="43.6502988" lon="12.1004043"><ele>709.0</ele><time>2026-04-12T15:01:35.89Z</time></trkpt><trkpt lat="43.6503172" lon="12.100769"><ele>712.0</ele><time>2026-04-12T15:01:36.886Z</time></trkpt><trkpt lat="43.6503339" lon="12.1010868"><ele>715.0</ele><time>2026-04-12T15:01:37.894Z</time></trkpt><trkpt lat="43.6503408" lon="12.1013756"><ele>718.0</ele><time>2026-04-12T15:01:38.902Z</time></trkpt><trkpt lat="43.6503166" lon="12.1016416"><ele>716.6666666666667</ele><time>2026-04-12T15:01:39.895Z</time></trkpt><trkpt lat="43.6502404" lon="12.1018847"><ele>715.3333333333334</ele><time>2026-04-12T15:01:40.902Z</time></trkpt><trkpt lat="43.6501542" lon="12.1020979"><ele>714.0</ele><time>2026-04-12T15:01:41.884Z</time></trkpt><trkpt lat="43.6500794" lon="12.1022842"><ele>715.0</ele><time>2026-04-12T15:01:42.892Z</time></trkpt><trkpt lat="43.6500384" lon="12.1024831"><ele>716.0</ele><time>2026-04-12T15:01:43.896Z</time></trkpt><trkpt lat="43.6500373" lon="12.1026706"><ele>717.0</ele><time>2026-04-12T15:01:44.881Z</time></trkpt><trkpt lat="43.6500875" lon="12.1028773"><ele>718.0</ele><time>2026-04-12T15:01:45.896Z</time></trkpt><trkpt lat="43.6501917" lon="12.1030623"><ele>722.0</ele><time>2026-04-12T15:01:46.885Z</time></trkpt><trkpt lat="43.6503461" lon="12.1032067"><ele>726.0</ele><time>2026-04-12T15:01:47.89Z</time></trkpt><trkpt lat="43.6505403" lon="12.1033245"><ele>730.0</ele><time>2026-04-12T15:01:48.888Z</time></trkpt><trkpt lat="43.6507476" lon="12.1034528"><ele>730.0</ele><time>2026-04-12T15:01:49.88Z</time></trkpt><trkpt lat="43.6509279" lon="12.1036129"><ele>730.0</ele><time>2026-04-12T15:01:50.887Z</time></trkpt><trkpt lat="43.6510604" lon="12.1038034"><ele>730.0</ele><time>2026-04-12T15:01:51.89Z</time></trkpt><trkpt lat="43.6511394" lon="12.1040174"><ele>734.3333333333334</ele><time>2026-04-12T15:01:52.883Z</time></trkpt><trkpt lat="43.6511644" lon="12.1043187"><ele>738.6666666666666</ele><time>2026-04-12T15:01:53.897Z</time></trkpt><trkpt lat="43.6511643" lon="12.1046281"><ele>743.0</ele><time>2026-04-12T15:01:54.886Z</time></trkpt><trkpt lat="43.6511672" lon="12.1049377"><ele>743.0</ele><time>2026-04-12T15:01:55.977Z</time></trkpt><trkpt lat="43.6512023" lon="12.1052263"><ele>743.0</ele><time>2026-04-12T15:01:56.889Z</time></trkpt><trkpt lat="43.6512817" lon="12.1054829"><ele>743.0</ele><time>2026-04-12T15:01:57.884Z</time></trkpt><trkpt lat="43.651392" lon="12.1057024"><ele>743.0</ele><time>2026-04-12T15:01:58.879Z</time></trkpt><trkpt lat="43.6515387" lon="12.1058838"><ele>743.0</ele><time>2026-04-12T15:01:59.89Z</time></trkpt><trkpt lat="43.6516835" lon="12.1060501"><ele>743.0</ele><time>2026-04-12T15:02:00.891Z</time></trkpt><trkpt lat="43.6517953" lon="12.1062737"><ele>743.0</ele><time>2026-04-12T15:02:01.884Z</time></trkpt><trkpt lat="43.6518451" lon="12.1065603"><ele>743.0</ele><time>2026-04-12T15:02:02.892Z</time></trkpt><trkpt lat="43.6518696" lon="12.1068498"><ele>743.0</ele><time>2026-04-12T15:02:03.883Z</time></trkpt><trkpt lat="43.6518735" lon="12.1071"><ele>743.6666666666666</ele><time>2026-04-12T15:02:04.894Z</time></trkpt><trkpt lat="43.6518376" lon="12.1073034"><ele>744.3333333333334</ele><time>2026-04-12T15:02:05.891Z</time></trkpt><trkpt lat="43.6517404" lon="12.1075037"><ele>745.0</ele><time>2026-04-12T15:02:06.906Z</time></trkpt><trkpt lat="43.6516131" lon="12.1076978"><ele>747.0</ele><time>2026-04-12T15:02:07.881Z</time></trkpt><trkpt lat="43.6514542" lon="12.1079091"><ele>749.0</ele><time>2026-04-12T15:02:08.883Z</time></trkpt><trkpt lat="43.651265" lon="12.1081465"><ele>748.5</ele><time>2026-04-12T15:02:09.886Z</time></trkpt><trkpt lat="43.6510764" lon="12.1083861"><ele>748.0</ele><time>2026-04-12T15:02:10.892Z</time></trkpt><trkpt lat="43.6509156" lon="12.1085934"><ele>748.0</ele><time>2026-04-12T15:02:11.89Z</time></trkpt><trkpt lat="43.6507995" lon="12.1087564"><ele>748.0</ele><time>2026-04-12T15:02:12.886Z</time></trkpt><trkpt lat="43.6507157" lon="12.1089021"><ele>748.0</ele><time>2026-04-12T15:02:13.883Z</time></trkpt><trkpt lat="43.6506809" lon="12.1090276"><ele>748.0</ele><time>2026-04-12T15:02:14.879Z</time></trkpt><trkpt lat="43.6507018" lon="12.1091611"><ele>749.0</ele><time>2026-04-12T15:02:15.887Z</time></trkpt><trkpt lat="43.6507858" lon="12.1092773"><ele>750.0</ele><time>2026-04-12T15:02:16.88Z</time></trkpt><trkpt lat="43.6509301" lon="12.1093446"><ele>751.0</ele><time>2026-04-12T15:02:17.917Z</time></trkpt><trkpt lat="43.651133" lon="12.1093771"><ele>755.0</ele><time>2026-04-12T15:02:18.896Z</time></trkpt><trkpt lat="43.6513512" lon="12.1093966"><ele>759.0</ele><time>2026-04-12T15:02:19.885Z</time></trkpt><trkpt lat="43.6515399" lon="12.1094371"><ele>763.0</ele><time>2026-04-12T15:02:20.891Z</time></trkpt><trkpt lat="43.6517004" lon="12.1095213"><ele>763.0</ele><time>2026-04-12T15:02:21.892Z</time></trkpt><trkpt lat="43.6518249" lon="12.1096577"><ele>763.0</ele><time>2026-04-12T15:02:22.884Z</time></trkpt><trkpt lat="43.6518889" lon="12.1098576"><ele>763.0</ele><time>2026-04-12T15:02:23.891Z</time></trkpt><trkpt lat="43.6519043" lon="12.1100851"><ele>761.6666666666667</ele><time>2026-04-12T15:02:24.872Z</time></trkpt><trkpt lat="43.6519269" lon="12.1103338"><ele>760.3333333333334</ele><time>2026-04-12T15:02:25.905Z</time></trkpt><trkpt lat="43.6519841" lon="12.1105335"><ele>759.0</ele><time>2026-04-12T15:02:26.877Z</time></trkpt><trkpt lat="43.6521059" lon="12.1106846"><ele>763.6666666666667</ele><time>2026-04-12T15:02:27.885Z</time></trkpt><trkpt lat="43.6522804" lon="12.1107878"><ele>768.3333333333334</ele><time>2026-04-12T15:02:28.974Z</time></trkpt><trkpt lat="43.6524855" lon="12.1108605"><ele>773.0</ele><time>2026-04-12T15:02:29.874Z</time></trkpt><trkpt lat="43.6526656" lon="12.1109769"><ele>775.0</ele><time>2026-04-12T15:02:30.908Z</time></trkpt><trkpt lat="43.6527946" lon="12.1111545"><ele>777.0</ele><time>2026-04-12T15:02:31.883Z</time></trkpt><trkpt lat="43.6529005" lon="12.1114047"><ele>779.0</ele><time>2026-04-12T15:02:32.891Z</time></trkpt><trkpt lat="43.6529938" lon="12.1116897"><ele>779.0</ele><time>2026-04-12T15:02:33.885Z</time></trkpt><trkpt lat="43.6530864" lon="12.1119953"><ele>779.0</ele><time>2026-04-12T15:02:34.887Z</time></trkpt><trkpt lat="43.653189" lon="12.1123135"><ele>779.5</ele><time>2026-04-12T15:02:35.88Z</time></trkpt><trkpt lat="43.6532989" lon="12.1126425"><ele>780.0</ele><time>2026-04-12T15:02:36.897Z</time></trkpt><trkpt lat="43.6534159" lon="12.112982"><ele>781.5</ele><time>2026-04-12T15:02:37.883Z</time></trkpt><trkpt lat="43.653543" lon="12.1133235"><ele>783.0</ele><time>2026-04-12T15:02:38.901Z</time></trkpt><trkpt lat="43.6536555" lon="12.1136524"><ele>786.5</ele><time>2026-04-12T15:02:39.888Z</time></trkpt><trkpt lat="43.6537437" lon="12.1139536"><ele>790.0</ele><time>2026-04-12T15:02:40.887Z</time></trkpt><trkpt lat="43.6537822" lon="12.1142512"><ele>792.0</ele><time>2026-04-12T15:02:41.895Z</time></trkpt><trkpt lat="43.653772" lon="12.1145413"><ele>794.0</ele><time>2026-04-12T15:02:42.888Z</time></trkpt><trkpt lat="43.65374" lon="12.1148022"><ele>796.0</ele><time>2026-04-12T15:02:43.878Z</time></trkpt><trkpt lat="43.6537263" lon="12.1150121"><ele>796.75</ele><time>2026-04-12T15:02:44.881Z</time></trkpt><trkpt lat="43.6537492" lon="12.1151829"><ele>797.5</ele><time>2026-04-12T15:02:45.888Z</time></trkpt><trkpt lat="43.6538167" lon="12.1153055"><ele>798.25</ele><time>2026-04-12T15:02:46.882Z</time></trkpt><trkpt lat="43.6539152" lon="12.1153682"><ele>799.0</ele><time>2026-04-12T15:02:47.902Z</time></trkpt><trkpt lat="43.6540315" lon="12.1153603"><ele>799.0</ele><time>2026-04-12T15:02:48.886Z</time></trkpt><trkpt lat="43.6541526" lon="12.1152639"><ele>799.0</ele><time>2026-04-12T15:02:49.886Z</time></trkpt><trkpt lat="43.6542486" lon="12.1150763"><ele>799.0</ele><time>2026-04-12T15:02:50.891Z</time></trkpt><trkpt lat="43.6543433" lon="12.1148443"><ele>798.0</ele><time>2026-04-12T15:02:51.886Z</time></trkpt><trkpt lat="43.6544176" lon="12.1145605"><ele>797.0</ele><time>2026-04-12T15:02:52.903Z</time></trkpt><trkpt lat="43.6545044" lon="12.1143361"><ele>796.0</ele><time>2026-04-12T15:02:53.891Z</time></trkpt><trkpt lat="43.6545956" lon="12.1141694"><ele>796.6666666666666</ele><time>2026-04-12T15:02:54.881Z</time></trkpt><trkpt lat="43.654714" lon="12.1140331"><ele>797.3333333333333</ele><time>2026-04-12T15:02:55.893Z</time></trkpt><trkpt lat="43.6548762" lon="12.1139468"><ele>798.0</ele><time>2026-04-12T15:02:56.891Z</time></trkpt><trkpt lat="43.6550635" lon="12.1139135"><ele>798.0</ele><time>2026-04-12T15:02:57.876Z</time></trkpt><trkpt lat="43.6552618" lon="12.1138737"><ele>798.0</ele><time>2026-04-12T15:02:58.898Z</time></trkpt><trkpt lat="43.6554497" lon="12.1138368"><ele>798.0</ele><time>2026-04-12T15:02:59.885Z</time></trkpt><trkpt lat="43.655632" lon="12.1137907"><ele>800.6666666666667</ele><time>2026-04-12T15:03:00.897Z</time></trkpt><trkpt lat="43.6558143" lon="12.1137482"><ele>803.3333333333334</ele><time>2026-04-12T15:03:01.908Z</time></trkpt><trkpt lat="43.6559929" lon="12.1137134"><ele>806.0</ele><time>2026-04-12T15:03:02.882Z</time></trkpt><trkpt lat="43.6561759" lon="12.1136714"><ele>810.3333333333334</ele><time>2026-04-12T15:03:03.881Z</time></trkpt><trkpt lat="43.6563611" lon="12.1136313"><ele>814.6666666666667</ele><time>2026-04-12T15:03:04.872Z</time></trkpt><trkpt lat="43.6565386" lon="12.1136018"><ele>819.0</ele><time>2026-04-12T15:03:05.893Z</time></trkpt><trkpt lat="43.6567077" lon="12.1135748"><ele>819.0</ele><time>2026-04-12T15:03:06.88Z</time></trkpt><trkpt lat="43.6568599" lon="12.1135194"><ele>819.0</ele><time>2026-04-12T15:03:07.888Z</time></trkpt><trkpt lat="43.6569865" lon="12.1134048"><ele>819.0</ele><time>2026-04-12T15:03:08.876Z</time></trkpt><trkpt lat="43.6570746" lon="12.1132111"><ele>823.0</ele><time>2026-04-12T15:03:09.886Z</time></trkpt><trkpt lat="43.657128" lon="12.1129611"><ele>827.0</ele><time>2026-04-12T15:03:10.894Z</time></trkpt><trkpt lat="43.6571693" lon="12.1126855"><ele>831.0</ele><time>2026-04-12T15:03:11.886Z</time></trkpt><trkpt lat="43.657202" lon="12.1123874"><ele>831.6666666666667</ele><time>2026-04-12T15:03:12.98Z</time></trkpt><trkpt lat="43.6572145" lon="12.1120872"><ele>832.3333333333334</ele><time>2026-04-12T15:03:13.886Z</time></trkpt><trkpt lat="43.6572068" lon="12.111793"><ele>833.0</ele><time>2026-04-12T15:03:14.882Z</time></trkpt><trkpt lat="43.6571848" lon="12.1115167"><ele>834.6666666666667</ele><time>2026-04-12T15:03:15.895Z</time></trkpt><trkpt lat="43.6571675" lon="12.1112649"><ele>836.3333333333333</ele><time>2026-04-12T15:03:16.888Z</time></trkpt><trkpt lat="43.6571384" lon="12.1110286"><ele>838.0</ele><time>2026-04-12T15:03:17.897Z</time></trkpt><trkpt lat="43.6570683" lon="12.1108048"><ele>837.6666666666666</ele><time>2026-04-12T15:03:18.9Z</time></trkpt><trkpt lat="43.6569764" lon="12.1106081"><ele>837.3333333333333</ele><time>2026-04-12T15:03:19.899Z</time></trkpt><trkpt lat="43.6568944" lon="12.110426"><ele>837.0</ele><time>2026-04-12T15:03:20.897Z</time></trkpt><trkpt lat="43.656863" lon="12.1102568"><ele>837.0</ele><time>2026-04-12T15:03:21.896Z</time></trkpt><trkpt lat="43.6568989" lon="12.1100968"><ele>837.0</ele><time>2026-04-12T15:03:22.876Z</time></trkpt><trkpt lat="43.6570019" lon="12.1099641"><ele>837.0</ele><time>2026-04-12T15:03:23.89Z</time></trkpt><trkpt lat="43.6571536" lon="12.1098515"><ele>837.0</ele><time>2026-04-12T15:03:24.891Z</time></trkpt><trkpt lat="43.6573395" lon="12.1097963"><ele>836.3333333333333</ele><time>2026-04-12T15:03:25.879Z</time></trkpt><trkpt lat="43.6575208" lon="12.1097465"><ele>835.6666666666666</ele><time>2026-04-12T15:03:26.888Z</time></trkpt><trkpt lat="43.6576929" lon="12.109666"><ele>835.0</ele><time>2026-04-12T15:03:27.901Z</time></trkpt><trkpt lat="43.6578342" lon="12.1095376"><ele>838.6666666666666</ele><time>2026-04-12T15:03:28.893Z</time></trkpt><trkpt lat="43.6579373" lon="12.1093727"><ele>842.3333333333333</ele><time>2026-04-12T15:03:29.88Z</time></trkpt><trkpt lat="43.657986" lon="12.1091705"><ele>846.0</ele><time>2026-04-12T15:03:30.893Z</time></trkpt><trkpt lat="43.6580117" lon="12.1089186"><ele>848.0</ele><time>2026-04-12T15:03:31.882Z</time></trkpt><trkpt lat="43.6580154" lon="12.1086295"><ele>850.0</ele><time>2026-04-12T15:03:32.998Z</time></trkpt><trkpt lat="43.6580148" lon="12.1080469"><ele>850.0</ele><time>2026-04-12T15:03:34.889Z</time></trkpt><trkpt lat="43.6580227" lon="12.1077557"><ele>850.0</ele><time>2026-04-12T15:03:35.876Z</time></trkpt><trkpt lat="43.6580309" lon="12.10749"><ele>850.0</ele><time>2026-04-12T15:03:36.888Z</time></trkpt><trkpt lat="43.658039" lon="12.107256"><ele>849.25</ele><time>2026-04-12T15:03:37.885Z</time></trkpt><trkpt lat="43.6580597" lon="12.1070475"><ele>848.5</ele><time>2026-04-12T15:03:38.886Z</time></trkpt><trkpt lat="43.658114" lon="12.1068995"><ele>847.75</ele><time>2026-04-12T15:03:39.893Z</time></trkpt><trkpt lat="43.6582232" lon="12.1068048"><ele>847.0</ele><time>2026-04-12T15:03:40.893Z</time></trkpt><trkpt lat="43.6583723" lon="12.1067675"><ele>847.0</ele><time>2026-04-12T15:03:41.906Z</time></trkpt><trkpt lat="43.6585374" lon="12.1068043"><ele>847.0</ele><time>2026-04-12T15:03:42.884Z</time></trkpt><trkpt lat="43.6587167" lon="12.1068623"><ele>847.0</ele><time>2026-04-12T15:03:43.882Z</time></trkpt><trkpt lat="43.6589087" lon="12.1069312"><ele>848.6666666666666</ele><time>2026-04-12T15:03:44.882Z</time></trkpt><trkpt lat="43.6591157" lon="12.1069811"><ele>850.3333333333333</ele><time>2026-04-12T15:03:45.899Z</time></trkpt><trkpt lat="43.6593215" lon="12.1070088"><ele>852.0</ele><time>2026-04-12T15:03:46.896Z</time></trkpt><trkpt lat="43.6595291" lon="12.1070032"><ele>853.6666666666667</ele><time>2026-04-12T15:03:47.883Z</time></trkpt><trkpt lat="43.6597204" lon="12.1069385"><ele>855.3333333333334</ele><time>2026-04-12T15:03:48.875Z</time></trkpt><trkpt lat="43.659904" lon="12.1068193"><ele>857.0</ele><time>2026-04-12T15:03:49.888Z</time></trkpt><trkpt lat="43.6600915" lon="12.106669"><ele>854.0</ele><time>2026-04-12T15:03:50.891Z</time></trkpt><trkpt lat="43.6602836" lon="12.1065369"><ele>851.0</ele><time>2026-04-12T15:03:51.896Z</time></trkpt><trkpt lat="43.6604849" lon="12.1064547"><ele>848.0</ele><time>2026-04-12T15:03:52.884Z</time></trkpt><trkpt lat="43.6607225" lon="12.1064214"><ele>848.0</ele><time>2026-04-12T15:03:53.875Z</time></trkpt><trkpt lat="43.6609543" lon="12.1064002"><ele>848.0</ele><time>2026-04-12T15:03:54.885Z</time></trkpt><trkpt lat="43.6611712" lon="12.1063756"><ele>852.6666666666667</ele><time>2026-04-12T15:03:55.877Z</time></trkpt><trkpt lat="43.6613675" lon="12.1063444"><ele>857.3333333333333</ele><time>2026-04-12T15:03:56.889Z</time></trkpt><trkpt lat="43.6615554" lon="12.1062824"><ele>862.0</ele><time>2026-04-12T15:03:57.88Z</time></trkpt><trkpt lat="43.6617371" lon="12.1061544"><ele>867.5</ele><time>2026-04-12T15:03:58.988Z</time></trkpt><trkpt lat="43.6620478" lon="12.1057336"><ele>873.0</ele><time>2026-04-12T15:04:00.88Z</time></trkpt><trkpt lat="43.6621707" lon="12.1054803"><ele>873.0</ele><time>2026-04-12T15:04:01.879Z</time></trkpt><trkpt lat="43.6622747" lon="12.1052277"><ele>873.0</ele><time>2026-04-12T15:04:02.886Z</time></trkpt><trkpt lat="43.6623684" lon="12.1050019"><ele>873.0</ele><time>2026-04-12T15:04:03.877Z</time></trkpt><trkpt lat="43.6624769" lon="12.1048337"><ele>872.0</ele><time>2026-04-12T15:04:04.896Z</time></trkpt><trkpt lat="43.6626126" lon="12.1047295"><ele>871.0</ele><time>2026-04-12T15:04:05.881Z</time></trkpt><trkpt lat="43.6627685" lon="12.1047085"><ele>870.0</ele><time>2026-04-12T15:04:06.891Z</time></trkpt><trkpt lat="43.6629263" lon="12.1048064"><ele>870.5</ele><time>2026-04-12T15:04:07.989Z</time></trkpt><trkpt lat="43.6630704" lon="12.1051907"><ele>871.0</ele><time>2026-04-12T15:04:09.891Z</time></trkpt><trkpt lat="43.6630714" lon="12.1054113"><ele>871.0</ele><time>2026-04-12T15:04:10.89Z</time></trkpt><trkpt lat="43.6631033" lon="12.1056731"><ele>871.0</ele><time>2026-04-12T15:04:11.88Z</time></trkpt><trkpt lat="43.6631954" lon="12.1059343"><ele>871.0</ele><time>2026-04-12T15:04:12.921Z</time></trkpt><trkpt lat="43.6633376" lon="12.1061812"><ele>873.0</ele><time>2026-04-12T15:04:13.897Z</time></trkpt><trkpt lat="43.6634797" lon="12.1064048"><ele>875.0</ele><time>2026-04-12T15:04:14.883Z</time></trkpt><trkpt lat="43.6636235" lon="12.1066473"><ele>877.0</ele><time>2026-04-12T15:04:15.884Z</time></trkpt><trkpt lat="43.6637598" lon="12.1068986"><ele>877.0</ele><time>2026-04-12T15:04:16.897Z</time></trkpt><trkpt lat="43.6639" lon="12.1071344"><ele>877.0</ele><time>2026-04-12T15:04:17.892Z</time></trkpt><trkpt lat="43.6640502" lon="12.1073613"><ele>877.0</ele><time>2026-04-12T15:04:18.916Z</time></trkpt><trkpt lat="43.6642124" lon="12.1075748"><ele>875.0</ele><time>2026-04-12T15:04:19.895Z</time></trkpt><trkpt lat="43.6643827" lon="12.1077716"><ele>873.0</ele><time>2026-04-12T15:04:20.895Z</time></trkpt><trkpt lat="43.6645653" lon="12.1079648"><ele>873.0</ele><time>2026-04-12T15:04:21.888Z</time></trkpt><trkpt lat="43.6647401" lon="12.1081611"><ele>873.0</ele><time>2026-04-12T15:04:22.883Z</time></trkpt><trkpt lat="43.6648975" lon="12.1083596"><ele>873.0</ele><time>2026-04-12T15:04:23.886Z</time></trkpt><trkpt lat="43.6650367" lon="12.1085692"><ele>873.0</ele><time>2026-04-12T15:04:24.891Z</time></trkpt><trkpt lat="43.6651644" lon="12.1087817"><ele>873.0</ele><time>2026-04-12T15:04:25.893Z</time></trkpt><trkpt lat="43.6652989" lon="12.1089701"><ele>873.0</ele><time>2026-04-12T15:04:26.888Z</time></trkpt><trkpt lat="43.6654589" lon="12.1091267"><ele>881.3333333333333</ele><time>2026-04-12T15:04:27.883Z</time></trkpt><trkpt lat="43.6656429" lon="12.1092621"><ele>889.6666666666666</ele><time>2026-04-12T15:04:28.871Z</time></trkpt><trkpt lat="43.6658412" lon="12.1093687"><ele>898.0</ele><time>2026-04-12T15:04:29.979Z</time></trkpt><trkpt lat="43.6660272" lon="12.1094696"><ele>897.3333333333333</ele><time>2026-04-12T15:04:30.881Z</time></trkpt><trkpt lat="43.6661912" lon="12.1095723"><ele>896.6666666666667</ele><time>2026-04-12T15:04:31.877Z</time></trkpt><trkpt lat="43.6663152" lon="12.1097279"><ele>896.0</ele><time>2026-04-12T15:04:32.9Z</time></trkpt><trkpt lat="43.6663967" lon="12.1099598"><ele>896.0</ele><time>2026-04-12T15:04:33.869Z</time></trkpt><trkpt lat="43.6664791" lon="12.1102113"><ele>896.0</ele><time>2026-04-12T15:04:34.895Z</time></trkpt><trkpt lat="43.6665585" lon="12.1104463"><ele>896.0</ele><time>2026-04-12T15:04:35.885Z</time></trkpt><trkpt lat="43.6666321" lon="12.1106588"><ele>899.3333333333334</ele><time>2026-04-12T15:04:36.878Z</time></trkpt><trkpt lat="43.6666983" lon="12.1108669"><ele>902.6666666666667</ele><time>2026-04-12T15:04:37.878Z</time></trkpt><trkpt lat="43.6667341" lon="12.1111022"><ele>906.0</ele><time>2026-04-12T15:04:38.886Z</time></trkpt><trkpt lat="43.6667391" lon="12.1113559"><ele>906.6666666666667</ele><time>2026-04-12T15:04:39.886Z</time></trkpt><trkpt lat="43.6667068" lon="12.1116312"><ele>907.3333333333334</ele><time>2026-04-12T15:04:40.886Z</time></trkpt><trkpt lat="43.6666555" lon="12.1118969"><ele>908.0</ele><time>2026-04-12T15:04:41.882Z</time></trkpt><trkpt lat="43.6666069" lon="12.1121514"><ele>908.0</ele><time>2026-04-12T15:04:42.889Z</time></trkpt><trkpt lat="43.6665771" lon="12.1124268"><ele>908.0</ele><time>2026-04-12T15:04:43.901Z</time></trkpt><trkpt lat="43.6665715" lon="12.1127253"><ele>908.0</ele><time>2026-04-12T15:04:44.896Z</time></trkpt><trkpt lat="43.6665835" lon="12.1130114"><ele>909.0</ele><time>2026-04-12T15:04:45.891Z</time></trkpt><trkpt lat="43.6666187" lon="12.1132822"><ele>910.0</ele><time>2026-04-12T15:04:46.89Z</time></trkpt><trkpt lat="43.6666745" lon="12.1135519"><ele>911.0</ele><time>2026-04-12T15:04:47.883Z</time></trkpt><trkpt lat="43.6667847" lon="12.1137928"><ele>911.0</ele><time>2026-04-12T15:04:48.878Z</time></trkpt><trkpt lat="43.6669409" lon="12.1140052"><ele>911.0</ele><time>2026-04-12T15:04:49.882Z</time></trkpt><trkpt lat="43.6670886" lon="12.1142001"><ele>911.0</ele><time>2026-04-12T15:04:50.882Z</time></trkpt><trkpt lat="43.6672258" lon="12.1143755"><ele>910.6666666666667</ele><time>2026-04-12T15:04:51.903Z</time></trkpt><trkpt lat="43.6673534" lon="12.1145457"><ele>910.3333333333333</ele><time>2026-04-12T15:04:52.989Z</time></trkpt><trkpt lat="43.6674734" lon="12.1146751"><ele>910.0</ele><time>2026-04-12T15:04:53.89Z</time></trkpt><trkpt lat="43.6676098" lon="12.1147477"><ele>910.0</ele><time>2026-04-12T15:04:54.874Z</time></trkpt><trkpt lat="43.6677643" lon="12.1147489"><ele>910.0</ele><time>2026-04-12T15:04:55.875Z</time></trkpt><trkpt lat="43.6679099" lon="12.1146874"><ele>910.0</ele><time>2026-04-12T15:04:56.875Z</time></trkpt><trkpt lat="43.6680507" lon="12.1146162"><ele>908.0</ele><time>2026-04-12T15:04:57.882Z</time></trkpt><trkpt lat="43.668187" lon="12.1146068"><ele>906.0</ele><time>2026-04-12T15:04:58.9Z</time></trkpt><trkpt lat="43.6683529" lon="12.1147099"><ele>904.0</ele><time>2026-04-12T15:04:59.888Z</time></trkpt><trkpt lat="43.6685333" lon="12.1148258"><ele>906.6666666666666</ele><time>2026-04-12T15:05:00.902Z</time></trkpt><trkpt lat="43.6687273" lon="12.1148961"><ele>909.3333333333333</ele><time>2026-04-12T15:05:01.894Z</time></trkpt><trkpt lat="43.6689334" lon="12.1148811"><ele>912.0</ele><time>2026-04-12T15:05:02.883Z</time></trkpt><trkpt lat="43.6691172" lon="12.1148323"><ele>912.0</ele><time>2026-04-12T15:05:03.886Z</time></trkpt><trkpt lat="43.6692734" lon="12.1147856"><ele>912.0</ele><time>2026-04-12T15:05:04.878Z</time></trkpt><trkpt lat="43.6694276" lon="12.1148035"><ele>912.0</ele><time>2026-04-12T15:05:05.881Z</time></trkpt><trkpt lat="43.6695779" lon="12.1149139"><ele>916.3333333333333</ele><time>2026-04-12T15:05:06.889Z</time></trkpt><trkpt lat="43.6697065" lon="12.1150712"><ele>920.6666666666666</ele><time>2026-04-12T15:05:07.886Z</time></trkpt><trkpt lat="43.6698422" lon="12.1151904"><ele>925.0</ele><time>2026-04-12T15:05:08.889Z</time></trkpt><trkpt lat="43.6699886" lon="12.115255"><ele>925.0</ele><time>2026-04-12T15:05:09.889Z</time></trkpt><trkpt lat="43.6701404" lon="12.1152365"><ele>925.0</ele><time>2026-04-12T15:05:10.886Z</time></trkpt><trkpt lat="43.6702961" lon="12.1151645"><ele>925.0</ele><time>2026-04-12T15:05:11.895Z</time></trkpt><trkpt lat="43.6704373" lon="12.1150817"><ele>924.75</ele><time>2026-04-12T15:05:12.882Z</time></trkpt><trkpt lat="43.6705783" lon="12.1150519"><ele>924.5</ele><time>2026-04-12T15:05:13.878Z</time></trkpt><trkpt lat="43.6707017" lon="12.1151492"><ele>924.25</ele><time>2026-04-12T15:05:14.894Z</time></trkpt><trkpt lat="43.6707702" lon="12.1153066"><ele>924.0</ele><time>2026-04-12T15:05:15.975Z</time></trkpt><trkpt lat="43.6707939" lon="12.1155293"><ele>927.25</ele><time>2026-04-12T15:05:16.898Z</time></trkpt><trkpt lat="43.6708022" lon="12.1157685"><ele>930.5</ele><time>2026-04-12T15:05:17.887Z</time></trkpt><trkpt lat="43.6708312" lon="12.1159643"><ele>933.75</ele><time>2026-04-12T15:05:18.966Z</time></trkpt><trkpt lat="43.6708969" lon="12.1160966"><ele>937.0</ele><time>2026-04-12T15:05:19.879Z</time></trkpt><trkpt lat="43.6710019" lon="12.1161517"><ele>938.25</ele><time>2026-04-12T15:05:20.885Z</time></trkpt><trkpt lat="43.6711352" lon="12.1161193"><ele>939.5</ele><time>2026-04-12T15:05:21.88Z</time></trkpt><trkpt lat="43.6712545" lon="12.1160236"><ele>940.75</ele><time>2026-04-12T15:05:22.881Z</time></trkpt><trkpt lat="43.671382" lon="12.1158871"><ele>942.0</ele><time>2026-04-12T15:05:23.884Z</time></trkpt><trkpt lat="43.6715124" lon="12.1157403"><ele>938.6666666666667</ele><time>2026-04-12T15:05:24.887Z</time></trkpt><trkpt lat="43.6716652" lon="12.115619"><ele>935.3333333333334</ele><time>2026-04-12T15:05:25.877Z</time></trkpt><trkpt lat="43.6718286" lon="12.1155339"><ele>932.0</ele><time>2026-04-12T15:05:26.878Z</time></trkpt><trkpt lat="43.671977" lon="12.1155105"><ele>932.0</ele><time>2026-04-12T15:05:27.879Z</time></trkpt><trkpt lat="43.672113" lon="12.1155669"><ele>932.0</ele><time>2026-04-12T15:05:28.874Z</time></trkpt><trkpt lat="43.6722498" lon="12.1156855"><ele>932.0</ele><time>2026-04-12T15:05:29.896Z</time></trkpt><trkpt lat="43.6723659" lon="12.1158425"><ele>934.3333333333334</ele><time>2026-04-12T15:05:30.889Z</time></trkpt><trkpt lat="43.6724779" lon="12.1160213"><ele>936.6666666666667</ele><time>2026-04-12T15:05:31.886Z</time></trkpt><trkpt lat="43.6726303" lon="12.1161985"><ele>939.0</ele><time>2026-04-12T15:05:32.901Z</time></trkpt><trkpt lat="43.6728142" lon="12.1163707"><ele>939.0</ele><time>2026-04-12T15:05:33.876Z</time></trkpt><trkpt lat="43.6729922" lon="12.1165195"><ele>939.0</ele><time>2026-04-12T15:05:34.893Z</time></trkpt><trkpt lat="43.6731689" lon="12.1165882"><ele>939.0</ele><time>2026-04-12T15:05:35.888Z</time></trkpt><trkpt lat="43.6733572" lon="12.1165669"><ele>939.0</ele><time>2026-04-12T15:05:36.876Z</time></trkpt><trkpt lat="43.6735672" lon="12.1164964"><ele>939.0</ele><time>2026-04-12T15:05:37.887Z</time></trkpt><trkpt lat="43.6737811" lon="12.1163904"><ele>939.0</ele><time>2026-04-12T15:05:38.991Z</time></trkpt><trkpt lat="43.6741946" lon="12.1163287"><ele>941.0</ele><time>2026-04-12T15:05:40.893Z</time></trkpt><trkpt lat="43.6744105" lon="12.116385"><ele>943.0</ele><time>2026-04-12T15:05:41.885Z</time></trkpt><trkpt lat="43.674643" lon="12.1164683"><ele>948.0</ele><time>2026-04-12T15:05:42.887Z</time></trkpt><trkpt lat="43.6748889" lon="12.1165781"><ele>953.0</ele><time>2026-04-12T15:05:43.887Z</time></trkpt><trkpt lat="43.6751237" lon="12.1166773"><ele>957.6666666666667</ele><time>2026-04-12T15:05:44.888Z</time></trkpt><trkpt lat="43.675327" lon="12.1167526"><ele>962.3333333333333</ele><time>2026-04-12T15:05:45.885Z</time></trkpt><trkpt lat="43.6755047" lon="12.1167713"><ele>967.0</ele><time>2026-04-12T15:05:46.886Z</time></trkpt><trkpt lat="43.6756637" lon="12.1167089"><ele>967.0</ele><time>2026-04-12T15:05:47.887Z</time></trkpt><trkpt lat="43.6758124" lon="12.1165749"><ele>967.0</ele><time>2026-04-12T15:05:48.879Z</time></trkpt><trkpt lat="43.6759676" lon="12.1164138"><ele>967.0</ele><time>2026-04-12T15:05:49.888Z</time></trkpt><trkpt lat="43.6761513" lon="12.1162758"><ele>963.0</ele><time>2026-04-12T15:05:50.882Z</time></trkpt><trkpt lat="43.6763595" lon="12.1161984"><ele>959.0</ele><time>2026-04-12T15:05:51.887Z</time></trkpt><trkpt lat="43.6765836" lon="12.1161433"><ele>955.0</ele><time>2026-04-12T15:05:52.874Z</time></trkpt><trkpt lat="43.6768305" lon="12.1161073"><ele>956.5</ele><time>2026-04-12T15:05:53.882Z</time></trkpt><trkpt lat="43.6770871" lon="12.1160841"><ele>958.0</ele><time>2026-04-12T15:05:54.9Z</time></trkpt><trkpt lat="43.6773427" lon="12.1160716"><ele>958.0</ele><time>2026-04-12T15:05:55.895Z</time></trkpt><trkpt lat="43.677603" lon="12.1160943"><ele>958.0</ele><time>2026-04-12T15:05:56.896Z</time></trkpt><trkpt lat="43.6778655" lon="12.1161497"><ele>961.5</ele><time>2026-04-12T15:05:57.893Z</time></trkpt><trkpt lat="43.6781111" lon="12.116215"><ele>965.0</ele><time>2026-04-12T15:05:58.89Z</time></trkpt><trkpt lat="43.6783352" lon="12.116281"><ele>965.0</ele><time>2026-04-12T15:05:59.904Z</time></trkpt><trkpt lat="43.6785187" lon="12.1164113"><ele>965.0</ele><time>2026-04-12T15:06:00.887Z</time></trkpt><trkpt lat="43.6786631" lon="12.1165432"><ele>965.0</ele><time>2026-04-12T15:06:01.891Z</time></trkpt><trkpt lat="43.6788159" lon="12.1166039"><ele>964.3333333333334</ele><time>2026-04-12T15:06:02.888Z</time></trkpt><trkpt lat="43.6789959" lon="12.1165726"><ele>963.6666666666667</ele><time>2026-04-12T15:06:03.882Z</time></trkpt><trkpt lat="43.6791844" lon="12.1164718"><ele>963.0</ele><time>2026-04-12T15:06:04.886Z</time></trkpt><trkpt lat="43.6793637" lon="12.1163249"><ele>965.0</ele><time>2026-04-12T15:06:05.88Z</time></trkpt><trkpt lat="43.6795289" lon="12.1161842"><ele>967.0</ele><time>2026-04-12T15:06:06.875Z</time></trkpt><trkpt lat="43.6796855" lon="12.1160917"><ele>969.0</ele><time>2026-04-12T15:06:07.887Z</time></trkpt><trkpt lat="43.6798684" lon="12.1160301"><ele>969.0</ele><time>2026-04-12T15:06:08.888Z</time></trkpt><trkpt lat="43.6800632" lon="12.1160361"><ele>969.0</ele><time>2026-04-12T15:06:09.899Z</time></trkpt><trkpt lat="43.6802602" lon="12.1161297"><ele>969.0</ele><time>2026-04-12T15:06:10.887Z</time></trkpt><trkpt lat="43.6804517" lon="12.1162497"><ele>968.3333333333333</ele><time>2026-04-12T15:06:11.896Z</time></trkpt><trkpt lat="43.6806374" lon="12.1163616"><ele>967.6666666666666</ele><time>2026-04-12T15:06:12.894Z</time></trkpt><trkpt lat="43.6808145" lon="12.1164577"><ele>967.0</ele><time>2026-04-12T15:06:13.887Z</time></trkpt><trkpt lat="43.6809848" lon="12.1165188"><ele>968.6666666666666</ele><time>2026-04-12T15:06:14.888Z</time></trkpt><trkpt lat="43.6811602" lon="12.1165375"><ele>970.3333333333333</ele><time>2026-04-12T15:06:15.881Z</time></trkpt><trkpt lat="43.6813268" lon="12.1165256"><ele>972.0</ele><time>2026-04-12T15:06:16.974Z</time></trkpt><trkpt lat="43.6814876" lon="12.1164883"><ele>972.0</ele><time>2026-04-12T15:06:17.875Z</time></trkpt><trkpt lat="43.6816365" lon="12.1164579"><ele>972.0</ele><time>2026-04-12T15:06:18.88Z</time></trkpt><trkpt lat="43.6817855" lon="12.1164514"><ele>972.0</ele><time>2026-04-12T15:06:19.881Z</time></trkpt><trkpt lat="43.6819165" lon="12.1164375"><ele>972.0</ele><time>2026-04-12T15:06:20.892Z</time></trkpt><trkpt lat="43.6820251" lon="12.1164212"><ele>973.8</ele><time>2026-04-12T15:06:21.895Z</time></trkpt><trkpt lat="43.6821165" lon="12.1163908"><ele>975.6</ele><time>2026-04-12T15:06:22.892Z</time></trkpt><trkpt lat="43.6821967" lon="12.1163676"><ele>977.3999999999999</ele><time>2026-04-12T15:06:23.899Z</time></trkpt><trkpt lat="43.6822639" lon="12.116343"><ele>979.1999999999999</ele><time>2026-04-12T15:06:24.889Z</time></trkpt><trkpt lat="43.6823876" lon="12.1163102"><ele>981.0</ele><time>2026-04-12T15:06:26.886Z</time></trkpt><trkpt lat="43.682492" lon="12.1162998"><ele>981.0</ele><time>2026-04-12T15:06:28.9Z</time></trkpt><trkpt lat="43.6825877" lon="12.1163051"><ele>981.0</ele><time>2026-04-12T15:06:30.881Z</time></trkpt><trkpt lat="43.6826585" lon="12.1163471"><ele>981.0</ele><time>2026-04-12T15:06:32.89Z</time></trkpt><trkpt lat="43.6827168" lon="12.1164207"><ele>981.0</ele><time>2026-04-12T15:06:34.896Z</time></trkpt><trkpt lat="43.6827499" lon="12.1165248"><ele>981.0</ele><time>2026-04-12T15:06:36.896Z</time></trkpt><trkpt lat="43.6827762" lon="12.1166421"><ele>981.0</ele><time>2026-04-12T15:06:38.892Z</time></trkpt><trkpt lat="43.6828103" lon="12.1168149"><ele>981.4</ele><time>2026-04-12T15:06:40.873Z</time></trkpt><trkpt lat="43.6828293" lon="12.1169194"><ele>981.8</ele><time>2026-04-12T15:06:41.896Z</time></trkpt><trkpt lat="43.6828496" lon="12.1170288"><ele>982.1999999999999</ele><time>2026-04-12T15:06:42.888Z</time></trkpt><trkpt lat="43.6828727" lon="12.117151"><ele>982.5999999999999</ele><time>2026-04-12T15:06:43.881Z</time></trkpt><trkpt lat="43.6829001" lon="12.1172822"><ele>983.0</ele><time>2026-04-12T15:06:44.889Z</time></trkpt><trkpt lat="43.6829321" lon="12.1174212"><ele>980.75</ele><time>2026-04-12T15:06:45.888Z</time></trkpt><trkpt lat="43.6829678" lon="12.1175651"><ele>978.5</ele><time>2026-04-12T15:06:46.986Z</time></trkpt><trkpt lat="43.6830168" lon="12.1177146"><ele>976.25</ele><time>2026-04-12T15:06:47.891Z</time></trkpt><trkpt lat="43.6830874" lon="12.1178587"><ele>974.0</ele><time>2026-04-12T15:06:48.892Z</time></trkpt><trkpt lat="43.6831691" lon="12.1179899"><ele>974.0</ele><time>2026-04-12T15:06:49.9Z</time></trkpt><trkpt lat="43.6832601" lon="12.1181251"><ele>974.0</ele><time>2026-04-12T15:06:50.894Z</time></trkpt><trkpt lat="43.6833572" lon="12.1182767"><ele>974.0</ele><time>2026-04-12T15:06:51.889Z</time></trkpt><trkpt lat="43.6834515" lon="12.1184346"><ele>974.0</ele><time>2026-04-12T15:06:52.892Z</time></trkpt><trkpt lat="43.6835293" lon="12.1186008"><ele>971.0</ele><time>2026-04-12T15:06:53.887Z</time></trkpt><trkpt lat="43.6836027" lon="12.1187685"><ele>968.0</ele><time>2026-04-12T15:06:54.881Z</time></trkpt><trkpt lat="43.6836654" lon="12.1189352"><ele>965.0</ele><time>2026-04-12T15:06:55.911Z</time></trkpt><trkpt lat="43.6837257" lon="12.1190976"><ele>962.0</ele><time>2026-04-12T15:06:56.892Z</time></trkpt><trkpt lat="43.6837719" lon="12.1192631"><ele>960.6666666666667</ele><time>2026-04-12T15:06:57.985Z</time></trkpt><trkpt lat="43.683799" lon="12.1196209"><ele>959.3333333333333</ele><time>2026-04-12T15:06:59.892Z</time></trkpt><trkpt lat="43.6837713" lon="12.1198048"><ele>958.0</ele><time>2026-04-12T15:07:00.887Z</time></trkpt><trkpt lat="43.6837139" lon="12.1199804"><ele>957.0</ele><time>2026-04-12T15:07:01.883Z</time></trkpt><trkpt lat="43.6836706" lon="12.1201376"><ele>956.0</ele><time>2026-04-12T15:07:02.891Z</time></trkpt><trkpt lat="43.6836463" lon="12.1202643"><ele>955.0</ele><time>2026-04-12T15:07:03.881Z</time></trkpt><trkpt lat="43.6836727" lon="12.1203661"><ele>954.0</ele><time>2026-04-12T15:07:04.89Z</time></trkpt><trkpt lat="43.6837634" lon="12.12045"><ele>953.0</ele><time>2026-04-12T15:07:05.9Z</time></trkpt><trkpt lat="43.6838806" lon="12.1204891"><ele>953.0</ele><time>2026-04-12T15:07:06.887Z</time></trkpt><trkpt lat="43.6840231" lon="12.120497"><ele>953.0</ele><time>2026-04-12T15:07:07.896Z</time></trkpt><trkpt lat="43.6841922" lon="12.1204676"><ele>953.0</ele><time>2026-04-12T15:07:08.884Z</time></trkpt><trkpt lat="43.6843575" lon="12.1204295"><ele>952.5</ele><time>2026-04-12T15:07:09.899Z</time></trkpt><trkpt lat="43.6845059" lon="12.1204217"><ele>952.0</ele><time>2026-04-12T15:07:10.89Z</time></trkpt><trkpt lat="43.6846466" lon="12.1204633"><ele>951.5</ele><time>2026-04-12T15:07:11.899Z</time></trkpt><trkpt lat="43.6847797" lon="12.1205597"><ele>951.0</ele><time>2026-04-12T15:07:12.872Z</time></trkpt><trkpt lat="43.6848836" lon="12.1207015"><ele>949.0</ele><time>2026-04-12T15:07:13.881Z</time></trkpt><trkpt lat="43.684952" lon="12.1208601"><ele>947.0</ele><time>2026-04-12T15:07:14.893Z</time></trkpt><trkpt lat="43.684978" lon="12.1210498"><ele>945.0</ele><time>2026-04-12T15:07:15.884Z</time></trkpt><trkpt lat="43.6849631" lon="12.1212377"><ele>943.0</ele><time>2026-04-12T15:07:16.886Z</time></trkpt><trkpt lat="43.684916" lon="12.1214379"><ele>940.0</ele><time>2026-04-12T15:07:17.889Z</time></trkpt><trkpt lat="43.684863" lon="12.1216406"><ele>937.0</ele><time>2026-04-12T15:07:18.878Z</time></trkpt><trkpt lat="43.6848188" lon="12.1218467"><ele>934.0</ele><time>2026-04-12T15:07:19.916Z</time></trkpt><trkpt lat="43.6847929" lon="12.1220583"><ele>934.0</ele><time>2026-04-12T15:07:20.901Z</time></trkpt><trkpt lat="43.6847882" lon="12.1222831"><ele>934.0</ele><time>2026-04-12T15:07:21.883Z</time></trkpt><trkpt lat="43.6848071" lon="12.1225083"><ele>934.0</ele><time>2026-04-12T15:07:22.885Z</time></trkpt><trkpt lat="43.6848384" lon="12.1227266"><ele>933.5</ele><time>2026-04-12T15:07:23.887Z</time></trkpt><trkpt lat="43.6848692" lon="12.1229348"><ele>933.0</ele><time>2026-04-12T15:07:24.889Z</time></trkpt><trkpt lat="43.6848977" lon="12.1231429"><ele>932.5</ele><time>2026-04-12T15:07:25.898Z</time></trkpt><trkpt lat="43.6849226" lon="12.1233329"><ele>932.0</ele><time>2026-04-12T15:07:26.895Z</time></trkpt><trkpt lat="43.684951" lon="12.123521"><ele>931.75</ele><time>2026-04-12T15:07:27.889Z</time></trkpt><trkpt lat="43.6850052" lon="12.1237011"><ele>931.5</ele><time>2026-04-12T15:07:28.885Z</time></trkpt><trkpt lat="43.6850967" lon="12.1238572"><ele>931.25</ele><time>2026-04-12T15:07:29.884Z</time></trkpt><trkpt lat="43.6852139" lon="12.1239748"><ele>931.0</ele><time>2026-04-12T15:07:30.885Z</time></trkpt><trkpt lat="43.6853518" lon="12.1240745"><ele>927.5</ele><time>2026-04-12T15:07:31.887Z</time></trkpt><trkpt lat="43.685472" lon="12.1241936"><ele>924.0</ele><time>2026-04-12T15:07:32.881Z</time></trkpt><trkpt lat="43.6855568" lon="12.1243581"><ele>920.5</ele><time>2026-04-12T15:07:33.883Z</time></trkpt><trkpt lat="43.6856061" lon="12.1245609"><ele>917.0</ele><time>2026-04-12T15:07:34.902Z</time></trkpt><trkpt lat="43.6856484" lon="12.1247834"><ele>921.6666666666667</ele><time>2026-04-12T15:07:35.886Z</time></trkpt><trkpt lat="43.6857117" lon="12.1250046"><ele>926.3333333333333</ele><time>2026-04-12T15:07:36.878Z</time></trkpt><trkpt lat="43.6858168" lon="12.1252076"><ele>931.0</ele><time>2026-04-12T15:07:37.876Z</time></trkpt><trkpt lat="43.6859351" lon="12.1254051"><ele>931.0</ele><time>2026-04-12T15:07:38.877Z</time></trkpt><trkpt lat="43.6860648" lon="12.1256048"><ele>931.0</ele><time>2026-04-12T15:07:39.872Z</time></trkpt><trkpt lat="43.6861982" lon="12.1258026"><ele>931.0</ele><time>2026-04-12T15:07:40.893Z</time></trkpt><trkpt lat="43.6863343" lon="12.1259981"><ele>922.6666666666666</ele><time>2026-04-12T15:07:41.868Z</time></trkpt><trkpt lat="43.6864741" lon="12.1261933"><ele>914.3333333333333</ele><time>2026-04-12T15:07:42.87Z</time></trkpt><trkpt lat="43.6866126" lon="12.1263768"><ele>906.0</ele><time>2026-04-12T15:07:43.877Z</time></trkpt><trkpt lat="43.6867632" lon="12.1265362"><ele>906.0</ele><time>2026-04-12T15:07:44.881Z</time></trkpt><trkpt lat="43.6869237" lon="12.1266715"><ele>906.0</ele><time>2026-04-12T15:07:45.877Z</time></trkpt><trkpt lat="43.6871009" lon="12.1267792"><ele>906.0</ele><time>2026-04-12T15:07:46.887Z</time></trkpt><trkpt lat="43.6872727" lon="12.1268973"><ele>906.0</ele><time>2026-04-12T15:07:47.891Z</time></trkpt><trkpt lat="43.6874302" lon="12.1270315"><ele>906.0</ele><time>2026-04-12T15:07:48.879Z</time></trkpt><trkpt lat="43.6875676" lon="12.1271817"><ele>906.0</ele><time>2026-04-12T15:07:49.883Z</time></trkpt><trkpt lat="43.6876895" lon="12.1273466"><ele>904.3333333333333</ele><time>2026-04-12T15:07:50.892Z</time></trkpt><trkpt lat="43.6877968" lon="12.1275295"><ele>902.6666666666666</ele><time>2026-04-12T15:07:51.874Z</time></trkpt><trkpt lat="43.6879111" lon="12.1276907"><ele>901.0</ele><time>2026-04-12T15:07:52.885Z</time></trkpt><trkpt lat="43.6880435" lon="12.1277984"><ele>901.0</ele><time>2026-04-12T15:07:53.881Z</time></trkpt><trkpt lat="43.6881949" lon="12.1278571"><ele>901.0</ele><time>2026-04-12T15:07:54.938Z</time></trkpt><trkpt lat="43.6883686" lon="12.1278762"><ele>901.0</ele><time>2026-04-12T15:07:55.869Z</time></trkpt><trkpt lat="43.6885271" lon="12.1278957"><ele>892.6666666666666</ele><time>2026-04-12T15:07:56.876Z</time></trkpt><trkpt lat="43.6886748" lon="12.1279288"><ele>884.3333333333333</ele><time>2026-04-12T15:07:57.868Z</time></trkpt><trkpt lat="43.6888279" lon="12.1279806"><ele>876.0</ele><time>2026-04-12T15:07:58.868Z</time></trkpt><trkpt lat="43.6889584" lon="12.1280741"><ele>876.0</ele><time>2026-04-12T15:07:59.885Z</time></trkpt><trkpt lat="43.6890638" lon="12.1282172"><ele>876.0</ele><time>2026-04-12T15:08:00.881Z</time></trkpt><trkpt lat="43.6891367" lon="12.128404"><ele>876.0</ele><time>2026-04-12T15:08:01.881Z</time></trkpt><trkpt lat="43.6892437" lon="12.1285475"><ele>876.0</ele><time>2026-04-12T15:08:02.873Z</time></trkpt><trkpt lat="43.6893582" lon="12.128679"><ele>876.0</ele><time>2026-04-12T15:08:03.872Z</time></trkpt><trkpt lat="43.689488" lon="12.1287693"><ele>876.0</ele><time>2026-04-12T15:08:04.86Z</time></trkpt><trkpt lat="43.6896201" lon="12.12887"><ele>876.0</ele><time>2026-04-12T15:08:05.879Z</time></trkpt><trkpt lat="43.689755" lon="12.128953"><ele>876.0</ele><time>2026-04-12T15:08:06.946Z</time></trkpt><trkpt lat="43.6898937" lon="12.1290099"><ele>876.0</ele><time>2026-04-12T15:08:07.868Z</time></trkpt><trkpt lat="43.6900307" lon="12.129047"><ele>876.0</ele><time>2026-04-12T15:08:08.877Z</time></trkpt><trkpt lat="43.6901623" lon="12.1290739"><ele>876.0</ele><time>2026-04-12T15:08:09.87Z</time></trkpt><trkpt lat="43.6902899" lon="12.1291049"><ele>877.0</ele><time>2026-04-12T15:08:10.952Z</time></trkpt><trkpt lat="43.6904249" lon="12.1291333"><ele>878.0</ele><time>2026-04-12T15:08:11.87Z</time></trkpt><trkpt lat="43.6905648" lon="12.1291668"><ele>879.0</ele><time>2026-04-12T15:08:12.871Z</time></trkpt><trkpt lat="43.6906928" lon="12.1292098"><ele>880.0</ele><time>2026-04-12T15:08:13.879Z</time></trkpt><trkpt lat="43.6908139" lon="12.1292769"><ele>880.0</ele><time>2026-04-12T15:08:14.861Z</time></trkpt><trkpt lat="43.6909216" lon="12.1293652"><ele>880.0</ele><time>2026-04-12T15:08:15.883Z</time></trkpt><trkpt lat="43.6909772" lon="12.1294973"><ele>880.0</ele><time>2026-04-12T15:08:16.887Z</time></trkpt><trkpt lat="43.6909941" lon="12.1296583"><ele>880.0</ele><time>2026-04-12T15:08:17.885Z</time></trkpt><trkpt lat="43.6909793" lon="12.1298453"><ele>881.75</ele><time>2026-04-12T15:08:18.875Z</time></trkpt><trkpt lat="43.690946" lon="12.1300325"><ele>883.5</ele><time>2026-04-12T15:08:19.887Z</time></trkpt><trkpt lat="43.6909211" lon="12.1302221"><ele>885.25</ele><time>2026-04-12T15:08:20.88Z</time></trkpt><trkpt lat="43.6909243" lon="12.1304157"><ele>887.0</ele><time>2026-04-12T15:08:21.911Z</time></trkpt><trkpt lat="43.6909607" lon="12.1306152"><ele>887.75</ele><time>2026-04-12T15:08:22.885Z</time></trkpt><trkpt lat="43.691039" lon="12.1307907"><ele>888.5</ele><time>2026-04-12T15:08:23.872Z</time></trkpt><trkpt lat="43.6911331" lon="12.1309591"><ele>889.25</ele><time>2026-04-12T15:08:24.878Z</time></trkpt><trkpt lat="43.6912293" lon="12.1311099"><ele>890.0</ele><time>2026-04-12T15:08:25.876Z</time></trkpt><trkpt lat="43.691313" lon="12.1312938"><ele>882.3333333333334</ele><time>2026-04-12T15:08:26.873Z</time></trkpt><trkpt lat="43.6913788" lon="12.1315075"><ele>874.6666666666667</ele><time>2026-04-12T15:08:27.875Z</time></trkpt><trkpt lat="43.6914402" lon="12.1317333"><ele>867.0</ele><time>2026-04-12T15:08:28.874Z</time></trkpt><trkpt lat="43.6914859" lon="12.1319695"><ele>867.0</ele><time>2026-04-12T15:08:29.876Z</time></trkpt><trkpt lat="43.6915273" lon="12.132203"><ele>867.0</ele><time>2026-04-12T15:08:30.862Z</time></trkpt><trkpt lat="43.6915712" lon="12.1324382"><ele>867.0</ele><time>2026-04-12T15:08:31.879Z</time></trkpt><trkpt lat="43.6916251" lon="12.132681"><ele>866.6666666666667</ele><time>2026-04-12T15:08:32.866Z</time></trkpt><trkpt lat="43.6916786" lon="12.1329164"><ele>866.3333333333334</ele><time>2026-04-12T15:08:33.881Z</time></trkpt><trkpt lat="43.6917372" lon="12.1331502"><ele>866.0</ele><time>2026-04-12T15:08:34.877Z</time></trkpt><trkpt lat="43.6918011" lon="12.1333731"><ele>867.3333333333334</ele><time>2026-04-12T15:08:35.88Z</time></trkpt><trkpt lat="43.691884" lon="12.133595"><ele>868.6666666666667</ele><time>2026-04-12T15:08:36.879Z</time></trkpt><trkpt lat="43.6919682" lon="12.1338082"><ele>870.0</ele><time>2026-04-12T15:08:37.877Z</time></trkpt><trkpt lat="43.6920616" lon="12.1340164"><ele>869.0</ele><time>2026-04-12T15:08:38.885Z</time></trkpt><trkpt lat="43.6921413" lon="12.1342119"><ele>868.0</ele><time>2026-04-12T15:08:39.882Z</time></trkpt><trkpt lat="43.6922112" lon="12.1343962"><ele>867.0</ele><time>2026-04-12T15:08:40.881Z</time></trkpt><trkpt lat="43.6922689" lon="12.1345674"><ele>866.0</ele><time>2026-04-12T15:08:41.88Z</time></trkpt><trkpt lat="43.6923361" lon="12.1347111"><ele>866.0</ele><time>2026-04-12T15:08:42.878Z</time></trkpt><trkpt lat="43.692425" lon="12.1348196"><ele>866.0</ele><time>2026-04-12T15:08:43.884Z</time></trkpt><trkpt lat="43.6925525" lon="12.1348996"><ele>866.0</ele><time>2026-04-12T15:08:44.954Z</time></trkpt><trkpt lat="43.6926936" lon="12.134963"><ele>866.0</ele><time>2026-04-12T15:08:45.883Z</time></trkpt><trkpt lat="43.692844" lon="12.13505"><ele>863.3333333333334</ele><time>2026-04-12T15:08:46.882Z</time></trkpt><trkpt lat="43.6929945" lon="12.1351426"><ele>860.6666666666667</ele><time>2026-04-12T15:08:47.882Z</time></trkpt><trkpt lat="43.6931519" lon="12.1352251"><ele>858.0</ele><time>2026-04-12T15:08:48.886Z</time></trkpt><trkpt lat="43.6933028" lon="12.1353014"><ele>858.0</ele><time>2026-04-12T15:08:49.878Z</time></trkpt><trkpt lat="43.6934555" lon="12.1353715"><ele>858.0</ele><time>2026-04-12T15:08:50.878Z</time></trkpt><trkpt lat="43.6935945" lon="12.1354498"><ele>858.0</ele><time>2026-04-12T15:08:51.879Z</time></trkpt><trkpt lat="43.6937152" lon="12.1355641"><ele>857.75</ele><time>2026-04-12T15:08:52.907Z</time></trkpt><trkpt lat="43.6937885" lon="12.1357353"><ele>857.5</ele><time>2026-04-12T15:08:53.876Z</time></trkpt><trkpt lat="43.693878" lon="12.1358951"><ele>857.25</ele><time>2026-04-12T15:08:54.968Z</time></trkpt><trkpt lat="43.6940026" lon="12.1359674"><ele>857.0</ele><time>2026-04-12T15:08:55.875Z</time></trkpt><trkpt lat="43.6941463" lon="12.1359852"><ele>857.0</ele><time>2026-04-12T15:08:56.886Z</time></trkpt><trkpt lat="43.6942862" lon="12.1359654"><ele>857.0</ele><time>2026-04-12T15:08:57.882Z</time></trkpt><trkpt lat="43.6944356" lon="12.1359711"><ele>857.0</ele><time>2026-04-12T15:08:58.88Z</time></trkpt><trkpt lat="43.6945892" lon="12.1360254"><ele>857.0</ele><time>2026-04-12T15:08:59.879Z</time></trkpt><trkpt lat="43.694728" lon="12.1361434"><ele>854.0</ele><time>2026-04-12T15:09:00.89Z</time></trkpt><trkpt lat="43.6948632" lon="12.1362753"><ele>851.0</ele><time>2026-04-12T15:09:01.901Z</time></trkpt><trkpt lat="43.6949948" lon="12.1363796"><ele>848.0</ele><time>2026-04-12T15:09:02.88Z</time></trkpt><trkpt lat="43.6951131" lon="12.1364526"><ele>845.0</ele><time>2026-04-12T15:09:03.884Z</time></trkpt><trkpt lat="43.6952481" lon="12.1364822"><ele>843.0</ele><time>2026-04-12T15:09:04.888Z</time></trkpt><trkpt lat="43.6953875" lon="12.1364963"><ele>841.0</ele><time>2026-04-12T15:09:05.884Z</time></trkpt><trkpt lat="43.6955352" lon="12.1365133"><ele>839.0</ele><time>2026-04-12T15:09:06.871Z</time></trkpt><trkpt lat="43.6956813" lon="12.1365273"><ele>837.0</ele><time>2026-04-12T15:09:07.896Z</time></trkpt><trkpt lat="43.6958221" lon="12.1365488"><ele>837.75</ele><time>2026-04-12T15:09:08.882Z</time></trkpt><trkpt lat="43.6959648" lon="12.1365725"><ele>838.5</ele><time>2026-04-12T15:09:09.908Z</time></trkpt><trkpt lat="43.6961093" lon="12.1365965"><ele>839.25</ele><time>2026-04-12T15:09:10.883Z</time></trkpt><trkpt lat="43.6962612" lon="12.1366213"><ele>840.0</ele><time>2026-04-12T15:09:11.888Z</time></trkpt><trkpt lat="43.6964111" lon="12.1366567"><ele>840.0</ele><time>2026-04-12T15:09:12.882Z</time></trkpt><trkpt lat="43.6965529" lon="12.1367162"><ele>840.0</ele><time>2026-04-12T15:09:13.881Z</time></trkpt><trkpt lat="43.6966876" lon="12.1367909"><ele>840.0</ele><time>2026-04-12T15:09:14.886Z</time></trkpt><trkpt lat="43.6968209" lon="12.1368691"><ele>840.0</ele><time>2026-04-12T15:09:15.878Z</time></trkpt><trkpt lat="43.6969569" lon="12.136937"><ele>837.6666666666667</ele><time>2026-04-12T15:09:16.91Z</time></trkpt><trkpt lat="43.6971011" lon="12.1369736"><ele>835.3333333333334</ele><time>2026-04-12T15:09:17.875Z</time></trkpt><trkpt lat="43.6972508" lon="12.1369828"><ele>833.0</ele><time>2026-04-12T15:09:18.888Z</time></trkpt><trkpt lat="43.6974092" lon="12.1369665"><ele>833.0</ele><time>2026-04-12T15:09:19.897Z</time></trkpt><trkpt lat="43.6975756" lon="12.1369279"><ele>833.0</ele><time>2026-04-12T15:09:20.971Z</time></trkpt><trkpt lat="43.6977405" lon="12.1368855"><ele>833.0</ele><time>2026-04-12T15:09:21.97Z</time></trkpt><trkpt lat="43.6979077" lon="12.1368627"><ele>831.0</ele><time>2026-04-12T15:09:22.881Z</time></trkpt><trkpt lat="43.6980689" lon="12.1368696"><ele>829.0</ele><time>2026-04-12T15:09:23.887Z</time></trkpt><trkpt lat="43.6982297" lon="12.1368932"><ele>827.0</ele><time>2026-04-12T15:09:24.891Z</time></trkpt><trkpt lat="43.6983768" lon="12.1369671"><ele>827.0</ele><time>2026-04-12T15:09:25.881Z</time></trkpt><trkpt lat="43.698505" lon="12.1370926"><ele>827.0</ele><time>2026-04-12T15:09:26.887Z</time></trkpt><trkpt lat="43.6986211" lon="12.1372446"><ele>827.0</ele><time>2026-04-12T15:09:27.887Z</time></trkpt><trkpt lat="43.6987065" lon="12.1374247"><ele>830.6666666666667</ele><time>2026-04-12T15:09:28.872Z</time></trkpt><trkpt lat="43.6987624" lon="12.137627"><ele>834.3333333333333</ele><time>2026-04-12T15:09:29.988Z</time></trkpt><trkpt lat="43.6988107" lon="12.1378337"><ele>838.0</ele><time>2026-04-12T15:09:30.896Z</time></trkpt><trkpt lat="43.6988485" lon="12.1380527"><ele>837.6666666666666</ele><time>2026-04-12T15:09:31.92Z</time></trkpt><trkpt lat="43.6988747" lon="12.1382719"><ele>837.3333333333333</ele><time>2026-04-12T15:09:32.986Z</time></trkpt><trkpt lat="43.6989153" lon="12.1384703"><ele>837.0</ele><time>2026-04-12T15:09:33.895Z</time></trkpt><trkpt lat="43.6989876" lon="12.1386362"><ele>837.0</ele><time>2026-04-12T15:09:34.909Z</time></trkpt><trkpt lat="43.6990969" lon="12.1387537"><ele>837.0</ele><time>2026-04-12T15:09:35.89Z</time></trkpt><trkpt lat="43.699238" lon="12.138805"><ele>837.0</ele><time>2026-04-12T15:09:36.879Z</time></trkpt><trkpt lat="43.6993886" lon="12.138804"><ele>837.0</ele><time>2026-04-12T15:09:37.877Z</time></trkpt><trkpt lat="43.6995432" lon="12.1387703"><ele>836.6666666666667</ele><time>2026-04-12T15:09:38.883Z</time></trkpt><trkpt lat="43.6997043" lon="12.1387322"><ele>836.3333333333334</ele><time>2026-04-12T15:09:39.881Z</time></trkpt><trkpt lat="43.6998721" lon="12.1387138"><ele>836.0</ele><time>2026-04-12T15:09:40.874Z</time></trkpt><trkpt lat="43.7000453" lon="12.1387153"><ele>836.0</ele><time>2026-04-12T15:09:41.889Z</time></trkpt><trkpt lat="43.7002175" lon="12.1387228"><ele>836.0</ele><time>2026-04-12T15:09:42.878Z</time></trkpt><trkpt lat="43.7003922" lon="12.1387253"><ele>836.0</ele><time>2026-04-12T15:09:43.886Z</time></trkpt><trkpt lat="43.7005618" lon="12.1387252"><ele>834.6666666666667</ele><time>2026-04-12T15:09:44.941Z</time></trkpt><trkpt lat="43.7007306" lon="12.1387153"><ele>833.3333333333333</ele><time>2026-04-12T15:09:45.877Z</time></trkpt><trkpt lat="43.700887" lon="12.1387003"><ele>832.0</ele><time>2026-04-12T15:09:46.878Z</time></trkpt><trkpt lat="43.7010353" lon="12.1386798"><ele>833.25</ele><time>2026-04-12T15:09:47.879Z</time></trkpt><trkpt lat="43.7011819" lon="12.1386583"><ele>834.5</ele><time>2026-04-12T15:09:48.881Z</time></trkpt><trkpt lat="43.7013247" lon="12.1386438"><ele>835.75</ele><time>2026-04-12T15:09:49.885Z</time></trkpt><trkpt lat="43.7014704" lon="12.1386274"><ele>837.0</ele><time>2026-04-12T15:09:50.879Z</time></trkpt><trkpt lat="43.7016171" lon="12.1386175"><ele>837.0</ele><time>2026-04-12T15:09:51.884Z</time></trkpt><trkpt lat="43.701768" lon="12.1385987"><ele>837.0</ele><time>2026-04-12T15:09:52.873Z</time></trkpt><trkpt lat="43.7019268" lon="12.1385842"><ele>837.0</ele><time>2026-04-12T15:09:53.888Z</time></trkpt><trkpt lat="43.7021047" lon="12.1385692"><ele>838.3333333333333</ele><time>2026-04-12T15:09:54.878Z</time></trkpt><trkpt lat="43.7022961" lon="12.1385676"><ele>839.6666666666666</ele><time>2026-04-12T15:09:55.874Z</time></trkpt><trkpt lat="43.7024855" lon="12.1385734"><ele>841.0</ele><time>2026-04-12T15:09:56.898Z</time></trkpt><trkpt lat="43.7026607" lon="12.1385852"><ele>839.0</ele><time>2026-04-12T15:09:57.87Z</time></trkpt><trkpt lat="43.7028226" lon="12.1385966"><ele>837.0</ele><time>2026-04-12T15:09:58.905Z</time></trkpt><trkpt lat="43.7029811" lon="12.1386023"><ele>835.0</ele><time>2026-04-12T15:09:59.889Z</time></trkpt><trkpt lat="43.7031337" lon="12.1385859"><ele>835.0</ele><time>2026-04-12T15:10:00.89Z</time></trkpt><trkpt lat="43.7032753" lon="12.1385591"><ele>835.0</ele><time>2026-04-12T15:10:01.88Z</time></trkpt><trkpt lat="43.7034017" lon="12.1385471"><ele>835.0</ele><time>2026-04-12T15:10:02.87Z</time></trkpt><trkpt lat="43.7035321" lon="12.1385422"><ele>835.0</ele><time>2026-04-12T15:10:03.873Z</time></trkpt><trkpt lat="43.7036664" lon="12.1385421"><ele>834.0</ele><time>2026-04-12T15:10:04.875Z</time></trkpt><trkpt lat="43.703798" lon="12.1385468"><ele>833.0</ele><time>2026-04-12T15:10:05.882Z</time></trkpt><trkpt lat="43.7039405" lon="12.1385487"><ele>832.0</ele><time>2026-04-12T15:10:06.963Z</time></trkpt><trkpt lat="43.7040895" lon="12.1385595"><ele>831.0</ele><time>2026-04-12T15:10:07.886Z</time></trkpt><trkpt lat="43.7042442" lon="12.1385675"><ele>831.0</ele><time>2026-04-12T15:10:08.896Z</time></trkpt><trkpt lat="43.7044059" lon="12.1385797"><ele>831.0</ele><time>2026-04-12T15:10:09.884Z</time></trkpt><trkpt lat="43.7045711" lon="12.1386046"><ele>831.0</ele><time>2026-04-12T15:10:10.881Z</time></trkpt><trkpt lat="43.7047357" lon="12.1386526"><ele>834.3333333333333</ele><time>2026-04-12T15:10:11.898Z</time></trkpt><trkpt lat="43.7048942" lon="12.1387656"><ele>837.6666666666666</ele><time>2026-04-12T15:10:12.879Z</time></trkpt><trkpt lat="43.7050338" lon="12.1389275"><ele>841.0</ele><time>2026-04-12T15:10:13.901Z</time></trkpt><trkpt lat="43.7051621" lon="12.1390885"><ele>847.5</ele><time>2026-04-12T15:10:14.898Z</time></trkpt><trkpt lat="43.7052641" lon="12.1392355"><ele>854.0</ele><time>2026-04-12T15:10:15.889Z</time></trkpt><trkpt lat="43.7053277" lon="12.1393985"><ele>860.5</ele><time>2026-04-12T15:10:16.883Z</time></trkpt><trkpt lat="43.7053306" lon="12.1395695"><ele>867.0</ele><time>2026-04-12T15:10:17.895Z</time></trkpt><trkpt lat="43.7052773" lon="12.1397367"><ele>862.0</ele><time>2026-04-12T15:10:18.885Z</time></trkpt><trkpt lat="43.7051825" lon="12.139885"><ele>857.0</ele><time>2026-04-12T15:10:19.887Z</time></trkpt><trkpt lat="43.705071" lon="12.1400107"><ele>852.0</ele><time>2026-04-12T15:10:20.89Z</time></trkpt><trkpt lat="43.7049292" lon="12.1400985"><ele>847.0</ele><time>2026-04-12T15:10:21.876Z</time></trkpt><trkpt lat="43.7047453" lon="12.1401544"><ele>847.0</ele><time>2026-04-12T15:10:22.888Z</time></trkpt><trkpt lat="43.7045565" lon="12.1402051"><ele>847.0</ele><time>2026-04-12T15:10:23.885Z</time></trkpt><trkpt lat="43.7043768" lon="12.1402859"><ele>847.0</ele><time>2026-04-12T15:10:24.898Z</time></trkpt><trkpt lat="43.7042233" lon="12.140397"><ele>844.5</ele><time>2026-04-12T15:10:25.889Z</time></trkpt><trkpt lat="43.7041131" lon="12.1405285"><ele>842.0</ele><time>2026-04-12T15:10:26.887Z</time></trkpt><trkpt lat="43.7040505" lon="12.1406826"><ele>839.5</ele><time>2026-04-12T15:10:27.889Z</time></trkpt><trkpt lat="43.7040371" lon="12.1408634"><ele>837.0</ele><time>2026-04-12T15:10:28.974Z</time></trkpt><trkpt lat="43.7040762" lon="12.1410474"><ele>837.0</ele><time>2026-04-12T15:10:29.889Z</time></trkpt><trkpt lat="43.7041491" lon="12.1412092"><ele>837.0</ele><time>2026-04-12T15:10:30.894Z</time></trkpt><trkpt lat="43.7042651" lon="12.141345"><ele>837.0</ele><time>2026-04-12T15:10:31.893Z</time></trkpt><trkpt lat="43.7044028" lon="12.1414816"><ele>841.6666666666667</ele><time>2026-04-12T15:10:32.893Z</time></trkpt><trkpt lat="43.7045353" lon="12.1416291"><ele>846.3333333333334</ele><time>2026-04-12T15:10:33.909Z</time></trkpt><trkpt lat="43.7046429" lon="12.1417881"><ele>851.0</ele><time>2026-04-12T15:10:34.886Z</time></trkpt><trkpt lat="43.7047165" lon="12.141942"><ele>851.0</ele><time>2026-04-12T15:10:35.882Z</time></trkpt><trkpt lat="43.7047467" lon="12.1421032"><ele>851.0</ele><time>2026-04-12T15:10:36.886Z</time></trkpt><trkpt lat="43.7047159" lon="12.1422681"><ele>851.0</ele><time>2026-04-12T15:10:37.886Z</time></trkpt><trkpt lat="43.7046372" lon="12.1424416"><ele>851.0</ele><time>2026-04-12T15:10:38.874Z</time></trkpt><trkpt lat="43.7045348" lon="12.1425805"><ele>851.6666666666667</ele><time>2026-04-12T15:10:39.879Z</time></trkpt><trkpt lat="43.70443" lon="12.1427273"><ele>852.3333333333333</ele><time>2026-04-12T15:10:40.955Z</time></trkpt><trkpt lat="43.7043379" lon="12.142903"><ele>853.0</ele><time>2026-04-12T15:10:41.883Z</time></trkpt><trkpt lat="43.7042573" lon="12.1430838"><ele>846.0</ele><time>2026-04-12T15:10:42.902Z</time></trkpt><trkpt lat="43.7042112" lon="12.1432604"><ele>839.0</ele><time>2026-04-12T15:10:43.9Z</time></trkpt><trkpt lat="43.7042179" lon="12.1434199"><ele>832.0</ele><time>2026-04-12T15:10:44.875Z</time></trkpt><trkpt lat="43.7042921" lon="12.1435618"><ele>825.0</ele><time>2026-04-12T15:10:45.891Z</time></trkpt><trkpt lat="43.7043974" lon="12.1436611"><ele>830.0</ele><time>2026-04-12T15:10:46.872Z</time></trkpt><trkpt lat="43.704529" lon="12.143726"><ele>835.0</ele><time>2026-04-12T15:10:47.903Z</time></trkpt><trkpt lat="43.7046573" lon="12.1438133"><ele>840.0</ele><time>2026-04-12T15:10:48.883Z</time></trkpt><trkpt lat="43.7047644" lon="12.1439256"><ele>845.0</ele><time>2026-04-12T15:10:49.901Z</time></trkpt><trkpt lat="43.704821" lon="12.1441026"><ele>845.0</ele><time>2026-04-12T15:10:50.892Z</time></trkpt><trkpt lat="43.7048357" lon="12.1443105"><ele>845.0</ele><time>2026-04-12T15:10:51.888Z</time></trkpt><trkpt lat="43.7048269" lon="12.1445327"><ele>845.0</ele><time>2026-04-12T15:10:52.877Z</time></trkpt><trkpt lat="43.7048134" lon="12.1447702"><ele>844.6666666666667</ele><time>2026-04-12T15:10:53.873Z</time></trkpt><trkpt lat="43.7048016" lon="12.1450331"><ele>844.3333333333333</ele><time>2026-04-12T15:10:54.908Z</time></trkpt><trkpt lat="43.7047892" lon="12.1453105"><ele>844.0</ele><time>2026-04-12T15:10:55.877Z</time></trkpt><trkpt lat="43.7047784" lon="12.1455815"><ele>842.0</ele><time>2026-04-12T15:10:56.883Z</time></trkpt><trkpt lat="43.7047676" lon="12.1458288"><ele>840.0</ele><time>2026-04-12T15:10:57.879Z</time></trkpt><trkpt lat="43.7047679" lon="12.1460555"><ele>838.0</ele><time>2026-04-12T15:10:58.874Z</time></trkpt><trkpt lat="43.704795" lon="12.1462837"><ele>838.0</ele><time>2026-04-12T15:10:59.887Z</time></trkpt><trkpt lat="43.7048538" lon="12.1465197"><ele>838.0</ele><time>2026-04-12T15:11:00.893Z</time></trkpt><trkpt lat="43.7049517" lon="12.146732"><ele>838.0</ele><time>2026-04-12T15:11:01.872Z</time></trkpt><trkpt lat="43.7050569" lon="12.1469202"><ele>834.3333333333333</ele><time>2026-04-12T15:11:02.899Z</time></trkpt><trkpt lat="43.7051417" lon="12.1471065"><ele>830.6666666666667</ele><time>2026-04-12T15:11:03.869Z</time></trkpt><trkpt lat="43.7051879" lon="12.1473163"><ele>827.0</ele><time>2026-04-12T15:11:04.889Z</time></trkpt><trkpt lat="43.7051965" lon="12.1475178"><ele>824.25</ele><time>2026-04-12T15:11:05.965Z</time></trkpt><trkpt lat="43.7051864" lon="12.1477085"><ele>821.5</ele><time>2026-04-12T15:11:06.882Z</time></trkpt><trkpt lat="43.7051989" lon="12.1479055"><ele>818.75</ele><time>2026-04-12T15:11:07.896Z</time></trkpt><trkpt lat="43.7052615" lon="12.1480804"><ele>816.0</ele><time>2026-04-12T15:11:08.88Z</time></trkpt><trkpt lat="43.7053839" lon="12.148209"><ele>818.25</ele><time>2026-04-12T15:11:09.871Z</time></trkpt><trkpt lat="43.7054944" lon="12.1483386"><ele>820.5</ele><time>2026-04-12T15:11:10.877Z</time></trkpt><trkpt lat="43.7055693" lon="12.1484805"><ele>822.75</ele><time>2026-04-12T15:11:11.887Z</time></trkpt><trkpt lat="43.7055967" lon="12.1486419"><ele>825.0</ele><time>2026-04-12T15:11:12.895Z</time></trkpt><trkpt lat="43.7055486" lon="12.148828"><ele>825.0</ele><time>2026-04-12T15:11:13.889Z</time></trkpt><trkpt lat="43.7054555" lon="12.1490047"><ele>825.0</ele><time>2026-04-12T15:11:14.881Z</time></trkpt><trkpt lat="43.7053531" lon="12.1491486"><ele>825.0</ele><time>2026-04-12T15:11:15.952Z</time></trkpt><trkpt lat="43.7052462" lon="12.1492785"><ele>825.0</ele><time>2026-04-12T15:11:16.891Z</time></trkpt><trkpt lat="43.7051446" lon="12.1494073"><ele>823.0</ele><time>2026-04-12T15:11:17.896Z</time></trkpt><trkpt lat="43.7050784" lon="12.1495288"><ele>821.0</ele><time>2026-04-12T15:11:18.886Z</time></trkpt><trkpt lat="43.7050671" lon="12.1496474"><ele>819.0</ele><time>2026-04-12T15:11:19.892Z</time></trkpt><trkpt lat="43.7051097" lon="12.1497732"><ele>817.0</ele><time>2026-04-12T15:11:20.879Z</time></trkpt><trkpt lat="43.7052004" lon="12.1498863"><ele>815.0</ele><time>2026-04-12T15:11:21.884Z</time></trkpt><trkpt lat="43.7053193" lon="12.1499349"><ele>815.0</ele><time>2026-04-12T15:11:22.895Z</time></trkpt><trkpt lat="43.7054543" lon="12.149967"><ele>815.0</ele><time>2026-04-12T15:11:23.883Z</time></trkpt><trkpt lat="43.7055932" lon="12.1500136"><ele>815.0</ele><time>2026-04-12T15:11:24.904Z</time></trkpt><trkpt lat="43.7057309" lon="12.1500998"><ele>815.0</ele><time>2026-04-12T15:11:25.872Z</time></trkpt><trkpt lat="43.7058585" lon="12.1502326"><ele>815.0</ele><time>2026-04-12T15:11:26.894Z</time></trkpt><trkpt lat="43.7059758" lon="12.1503762"><ele>815.0</ele><time>2026-04-12T15:11:27.887Z</time></trkpt><trkpt lat="43.7060911" lon="12.1504846"><ele>815.0</ele><time>2026-04-12T15:11:28.898Z</time></trkpt><trkpt lat="43.7062145" lon="12.1505261"><ele>815.0</ele><time>2026-04-12T15:11:29.877Z</time></trkpt><trkpt lat="43.706338" lon="12.1505108"><ele>814.25</ele><time>2026-04-12T15:11:30.888Z</time></trkpt><trkpt lat="43.7064486" lon="12.1504219"><ele>813.5</ele><time>2026-04-12T15:11:31.877Z</time></trkpt><trkpt lat="43.7065312" lon="12.1502517"><ele>812.75</ele><time>2026-04-12T15:11:32.897Z</time></trkpt><trkpt lat="43.7066313" lon="12.1500849"><ele>812.0</ele><time>2026-04-12T15:11:33.885Z</time></trkpt><trkpt lat="43.7067691" lon="12.1499481"><ele>812.0</ele><time>2026-04-12T15:11:34.892Z</time></trkpt><trkpt lat="43.7069097" lon="12.1498865"><ele>812.0</ele><time>2026-04-12T15:11:35.883Z</time></trkpt><trkpt lat="43.7070578" lon="12.1498746"><ele>812.0</ele><time>2026-04-12T15:11:36.899Z</time></trkpt><trkpt lat="43.7071932" lon="12.1499548"><ele>812.0</ele><time>2026-04-12T15:11:37.893Z</time></trkpt><trkpt lat="43.7072971" lon="12.1501251"><ele>812.0</ele><time>2026-04-12T15:11:38.906Z</time></trkpt><trkpt lat="43.7073624" lon="12.1503615"><ele>812.0</ele><time>2026-04-12T15:11:39.876Z</time></trkpt><trkpt lat="43.7073876" lon="12.1505904"><ele>812.0</ele><time>2026-04-12T15:11:40.904Z</time></trkpt><trkpt lat="43.7074109" lon="12.1508229"><ele>808.6666666666667</ele><time>2026-04-12T15:11:41.887Z</time></trkpt><trkpt lat="43.7074588" lon="12.1510314"><ele>805.3333333333333</ele><time>2026-04-12T15:11:42.901Z</time></trkpt><trkpt lat="43.7075306" lon="12.1512191"><ele>802.0</ele><time>2026-04-12T15:11:43.887Z</time></trkpt><trkpt lat="43.7076316" lon="12.151362"><ele>806.0</ele><time>2026-04-12T15:11:44.895Z</time></trkpt><trkpt lat="43.7077644" lon="12.1514445"><ele>810.0</ele><time>2026-04-12T15:11:45.89Z</time></trkpt><trkpt lat="43.7079202" lon="12.1514666"><ele>814.0</ele><time>2026-04-12T15:11:46.877Z</time></trkpt><trkpt lat="43.7080784" lon="12.1514226"><ele>814.0</ele><time>2026-04-12T15:11:47.893Z</time></trkpt><trkpt lat="43.7082442" lon="12.1513734"><ele>814.0</ele><time>2026-04-12T15:11:48.877Z</time></trkpt><trkpt lat="43.7084138" lon="12.1513869"><ele>814.0</ele><time>2026-04-12T15:11:49.885Z</time></trkpt><trkpt lat="43.7085761" lon="12.1514647"><ele>814.3333333333333</ele><time>2026-04-12T15:11:50.885Z</time></trkpt><trkpt lat="43.7087132" lon="12.1515785"><ele>814.6666666666667</ele><time>2026-04-12T15:11:51.891Z</time></trkpt><trkpt lat="43.7088187" lon="12.1517298"><ele>815.0</ele><time>2026-04-12T15:11:52.882Z</time></trkpt><trkpt lat="43.7088894" lon="12.1519359"><ele>815.0</ele><time>2026-04-12T15:11:53.867Z</time></trkpt><trkpt lat="43.7089292" lon="12.1521815"><ele>815.0</ele><time>2026-04-12T15:11:54.892Z</time></trkpt><trkpt lat="43.7089476" lon="12.1524497"><ele>815.0</ele><time>2026-04-12T15:11:55.892Z</time></trkpt><trkpt lat="43.7089474" lon="12.152718"><ele>812.3333333333334</ele><time>2026-04-12T15:11:56.887Z</time></trkpt><trkpt lat="43.7089166" lon="12.1529913"><ele>809.6666666666667</ele><time>2026-04-12T15:11:57.88Z</time></trkpt><trkpt lat="43.7088364" lon="12.1532041"><ele>807.0</ele><time>2026-04-12T15:11:58.875Z</time></trkpt><trkpt lat="43.7087471" lon="12.1533827"><ele>807.0</ele><time>2026-04-12T15:11:59.869Z</time></trkpt><trkpt lat="43.7086875" lon="12.153549"><ele>807.0</ele><time>2026-04-12T15:12:00.883Z</time></trkpt><trkpt lat="43.7086779" lon="12.1537039"><ele>807.0</ele><time>2026-04-12T15:12:01.872Z</time></trkpt><trkpt lat="43.7087161" lon="12.1538495"><ele>807.0</ele><time>2026-04-12T15:12:02.895Z</time></trkpt><trkpt lat="43.7088062" lon="12.1539888"><ele>804.6666666666667</ele><time>2026-04-12T15:12:03.879Z</time></trkpt><trkpt lat="43.7089296" lon="12.154155"><ele>802.3333333333334</ele><time>2026-04-12T15:12:04.88Z</time></trkpt><trkpt lat="43.7090453" lon="12.1543343"><ele>800.0</ele><time>2026-04-12T15:12:05.895Z</time></trkpt><trkpt lat="43.7091453" lon="12.1545631"><ele>800.0</ele><time>2026-04-12T15:12:06.878Z</time></trkpt><trkpt lat="43.7092087" lon="12.154823"><ele>800.0</ele><time>2026-04-12T15:12:07.894Z</time></trkpt><trkpt lat="43.7092575" lon="12.1551006"><ele>800.0</ele><time>2026-04-12T15:12:08.879Z</time></trkpt><trkpt lat="43.7092974" lon="12.1553716"><ele>797.0</ele><time>2026-04-12T15:12:09.883Z</time></trkpt><trkpt lat="43.7093383" lon="12.1556387"><ele>794.0</ele><time>2026-04-12T15:12:10.885Z</time></trkpt><trkpt lat="43.7093814" lon="12.1559054"><ele>791.0</ele><time>2026-04-12T15:12:11.874Z</time></trkpt><trkpt lat="43.7094285" lon="12.1561705"><ele>796.3333333333334</ele><time>2026-04-12T15:12:12.918Z</time></trkpt><trkpt lat="43.7094782" lon="12.1564251"><ele>801.6666666666667</ele><time>2026-04-12T15:12:13.874Z</time></trkpt><trkpt lat="43.7095377" lon="12.1566619"><ele>807.0</ele><time>2026-04-12T15:12:14.861Z</time></trkpt><trkpt lat="43.709602" lon="12.156891"><ele>807.0</ele><time>2026-04-12T15:12:15.889Z</time></trkpt><trkpt lat="43.7096502" lon="12.157128"><ele>807.0</ele><time>2026-04-12T15:12:16.879Z</time></trkpt><trkpt lat="43.7096744" lon="12.1573641"><ele>807.0</ele><time>2026-04-12T15:12:17.907Z</time></trkpt><trkpt lat="43.7096617" lon="12.157607"><ele>805.6666666666667</ele><time>2026-04-12T15:12:18.881Z</time></trkpt><trkpt lat="43.7096247" lon="12.157857"><ele>804.3333333333334</ele><time>2026-04-12T15:12:19.881Z</time></trkpt><trkpt lat="43.7095938" lon="12.1581226"><ele>803.0</ele><time>2026-04-12T15:12:20.881Z</time></trkpt><trkpt lat="43.7095745" lon="12.1583942"><ele>800.3333333333334</ele><time>2026-04-12T15:12:21.88Z</time></trkpt><trkpt lat="43.7095574" lon="12.1586766"><ele>797.6666666666667</ele><time>2026-04-12T15:12:22.869Z</time></trkpt><trkpt lat="43.7095394" lon="12.1589676"><ele>795.0</ele><time>2026-04-12T15:12:23.902Z</time></trkpt><trkpt lat="43.7095161" lon="12.1592386"><ele>793.3333333333333</ele><time>2026-04-12T15:12:24.967Z</time></trkpt><trkpt lat="43.709496" lon="12.1594771"><ele>791.6666666666666</ele><time>2026-04-12T15:12:25.879Z</time></trkpt><trkpt lat="43.7094963" lon="12.1596833"><ele>790.0</ele><time>2026-04-12T15:12:26.903Z</time></trkpt><trkpt lat="43.7095223" lon="12.1598667"><ele>787.6666666666666</ele><time>2026-04-12T15:12:27.889Z</time></trkpt><trkpt lat="43.7095869" lon="12.160032"><ele>785.3333333333333</ele><time>2026-04-12T15:12:28.892Z</time></trkpt><trkpt lat="43.709692" lon="12.1601852"><ele>783.0</ele><time>2026-04-12T15:12:29.893Z</time></trkpt><trkpt lat="43.7098364" lon="12.1603221"><ele>783.0</ele><time>2026-04-12T15:12:30.893Z</time></trkpt><trkpt lat="43.7100026" lon="12.16044"><ele>783.0</ele><time>2026-04-12T15:12:31.899Z</time></trkpt><trkpt lat="43.7101885" lon="12.1605175"><ele>783.0</ele><time>2026-04-12T15:12:32.877Z</time></trkpt><trkpt lat="43.7103762" lon="12.1605471"><ele>781.0</ele><time>2026-04-12T15:12:33.889Z</time></trkpt><trkpt lat="43.7105456" lon="12.1605783"><ele>779.0</ele><time>2026-04-12T15:12:34.886Z</time></trkpt><trkpt lat="43.7106927" lon="12.1606604"><ele>777.0</ele><time>2026-04-12T15:12:35.895Z</time></trkpt><trkpt lat="43.7108087" lon="12.160793"><ele>777.0</ele><time>2026-04-12T15:12:36.89Z</time></trkpt><trkpt lat="43.7108904" lon="12.1609874"><ele>777.0</ele><time>2026-04-12T15:12:37.885Z</time></trkpt><trkpt lat="43.710962" lon="12.161198"><ele>777.0</ele><time>2026-04-12T15:12:38.873Z</time></trkpt><trkpt lat="43.7110376" lon="12.1613989"><ele>778.3333333333333</ele><time>2026-04-12T15:12:39.881Z</time></trkpt><trkpt lat="43.7111213" lon="12.1615808"><ele>779.6666666666666</ele><time>2026-04-12T15:12:40.915Z</time></trkpt><trkpt lat="43.7112295" lon="12.1617288"><ele>781.0</ele><time>2026-04-12T15:12:41.894Z</time></trkpt><trkpt lat="43.7113594" lon="12.1618486"><ele>781.0</ele><time>2026-04-12T15:12:42.882Z</time></trkpt><trkpt lat="43.7115219" lon="12.1619102"><ele>781.0</ele><time>2026-04-12T15:12:43.883Z</time></trkpt><trkpt lat="43.7116944" lon="12.1619033"><ele>781.0</ele><time>2026-04-12T15:12:44.879Z</time></trkpt><trkpt lat="43.7118603" lon="12.1618787"><ele>785.0</ele><time>2026-04-12T15:12:45.903Z</time></trkpt><trkpt lat="43.7120202" lon="12.1619002"><ele>789.0</ele><time>2026-04-12T15:12:46.881Z</time></trkpt><trkpt lat="43.7121631" lon="12.1619848"><ele>793.0</ele><time>2026-04-12T15:12:47.882Z</time></trkpt><trkpt lat="43.7122795" lon="12.162133"><ele>793.0</ele><time>2026-04-12T15:12:48.975Z</time></trkpt><trkpt lat="43.7123682" lon="12.1623266"><ele>793.0</ele><time>2026-04-12T15:12:49.882Z</time></trkpt><trkpt lat="43.7124381" lon="12.1625445"><ele>793.0</ele><time>2026-04-12T15:12:50.902Z</time></trkpt><trkpt lat="43.7124693" lon="12.1627728"><ele>789.6666666666666</ele><time>2026-04-12T15:12:51.89Z</time></trkpt><trkpt lat="43.7124565" lon="12.1630017"><ele>786.3333333333333</ele><time>2026-04-12T15:12:52.888Z</time></trkpt><trkpt lat="43.7124075" lon="12.1632151"><ele>783.0</ele><time>2026-04-12T15:12:53.904Z</time></trkpt><trkpt lat="43.7123069" lon="12.1633954"><ele>783.0</ele><time>2026-04-12T15:12:54.888Z</time></trkpt><trkpt lat="43.7121831" lon="12.1635514"><ele>783.0</ele><time>2026-04-12T15:12:55.898Z</time></trkpt><trkpt lat="43.7120442" lon="12.1637014"><ele>783.0</ele><time>2026-04-12T15:12:56.887Z</time></trkpt><trkpt lat="43.7119223" lon="12.1638933"><ele>781.6666666666667</ele><time>2026-04-12T15:12:57.892Z</time></trkpt><trkpt lat="43.7118155" lon="12.1641196"><ele>780.3333333333334</ele><time>2026-04-12T15:12:58.899Z</time></trkpt><trkpt lat="43.7117068" lon="12.1643552"><ele>779.0</ele><time>2026-04-12T15:12:59.878Z</time></trkpt><trkpt lat="43.7115978" lon="12.1646153"><ele>783.0</ele><time>2026-04-12T15:13:00.986Z</time></trkpt><trkpt lat="43.7113708" lon="12.1651383"><ele>787.0</ele><time>2026-04-12T15:13:02.904Z</time></trkpt><trkpt lat="43.7112597" lon="12.1654227"><ele>793.5</ele><time>2026-04-12T15:13:03.888Z</time></trkpt><trkpt lat="43.7111478" lon="12.1657089"><ele>800.0</ele><time>2026-04-12T15:13:04.882Z</time></trkpt><trkpt lat="43.7110438" lon="12.1659814"><ele>795.3333333333334</ele><time>2026-04-12T15:13:05.901Z</time></trkpt><trkpt lat="43.7109448" lon="12.1662392"><ele>790.6666666666667</ele><time>2026-04-12T15:13:06.879Z</time></trkpt><trkpt lat="43.7108519" lon="12.1664837"><ele>786.0</ele><time>2026-04-12T15:13:07.905Z</time></trkpt><trkpt lat="43.7107519" lon="12.1667201"><ele>786.0</ele><time>2026-04-12T15:13:08.899Z</time></trkpt><trkpt lat="43.7106495" lon="12.166957"><ele>786.0</ele><time>2026-04-12T15:13:09.872Z</time></trkpt><trkpt lat="43.7105439" lon="12.1671919"><ele>786.0</ele><time>2026-04-12T15:13:10.889Z</time></trkpt><trkpt lat="43.7104386" lon="12.1674205"><ele>786.0</ele><time>2026-04-12T15:13:11.963Z</time></trkpt><trkpt lat="43.7103397" lon="12.1676342"><ele>786.0</ele><time>2026-04-12T15:13:12.877Z</time></trkpt><trkpt lat="43.7102569" lon="12.167852"><ele>786.0</ele><time>2026-04-12T15:13:13.896Z</time></trkpt><trkpt lat="43.7101953" lon="12.1680818"><ele>789.0</ele><time>2026-04-12T15:13:14.882Z</time></trkpt><trkpt lat="43.7101531" lon="12.1683303"><ele>792.0</ele><time>2026-04-12T15:13:15.899Z</time></trkpt><trkpt lat="43.7101308" lon="12.1685937"><ele>795.0</ele><time>2026-04-12T15:13:16.884Z</time></trkpt><trkpt lat="43.7101361" lon="12.1688786"><ele>797.0</ele><time>2026-04-12T15:13:17.871Z</time></trkpt><trkpt lat="43.7101547" lon="12.1691718"><ele>799.0</ele><time>2026-04-12T15:13:18.887Z</time></trkpt><trkpt lat="43.7101801" lon="12.1694743"><ele>801.0</ele><time>2026-04-12T15:13:19.878Z</time></trkpt><trkpt lat="43.7102397" lon="12.1719001"><ele>791.3333333333333</ele><time>2026-04-12T15:13:27.871Z</time></trkpt><trkpt lat="43.7101603" lon="12.1721214"><ele>781.6666666666666</ele><time>2026-04-12T15:13:28.874Z</time></trkpt><trkpt lat="43.7100909" lon="12.1723619"><ele>772.0</ele><time>2026-04-12T15:13:29.884Z</time></trkpt><trkpt lat="43.7100483" lon="12.1726069"><ele>770.3333333333333</ele><time>2026-04-12T15:13:30.89Z</time></trkpt><trkpt lat="43.710052" lon="12.1728507"><ele>768.6666666666666</ele><time>2026-04-12T15:13:31.902Z</time></trkpt><trkpt lat="43.7101103" lon="12.1731044"><ele>767.0</ele><time>2026-04-12T15:13:32.887Z</time></trkpt><trkpt lat="43.7102208" lon="12.1733572"><ele>767.0</ele><time>2026-04-12T15:13:33.898Z</time></trkpt><trkpt lat="43.7103348" lon="12.1735797"><ele>767.0</ele><time>2026-04-12T15:13:34.899Z</time></trkpt><trkpt lat="43.710425" lon="12.173829"><ele>767.0</ele><time>2026-04-12T15:13:35.895Z</time></trkpt><trkpt lat="43.7104769" lon="12.1741246"><ele>767.0</ele><time>2026-04-12T15:13:36.87Z</time></trkpt><trkpt lat="43.7105024" lon="12.1744393"><ele>767.0</ele><time>2026-04-12T15:13:37.887Z</time></trkpt><trkpt lat="43.7105206" lon="12.1747557"><ele>765.0</ele><time>2026-04-12T15:13:38.886Z</time></trkpt><trkpt lat="43.710541" lon="12.1750733"><ele>763.0</ele><time>2026-04-12T15:13:39.888Z</time></trkpt><trkpt lat="43.7105679" lon="12.1753997"><ele>760.5</ele><time>2026-04-12T15:13:40.874Z</time></trkpt><trkpt lat="43.7105874" lon="12.1757325"><ele>758.0</ele><time>2026-04-12T15:13:41.891Z</time></trkpt><trkpt lat="43.7106076" lon="12.1760563"><ele>758.0</ele><time>2026-04-12T15:13:42.882Z</time></trkpt><trkpt lat="43.7106162" lon="12.1763654"><ele>758.0</ele><time>2026-04-12T15:13:43.895Z</time></trkpt><trkpt lat="43.7106057" lon="12.1766756"><ele>758.0</ele><time>2026-04-12T15:13:44.888Z</time></trkpt><trkpt lat="43.7105693" lon="12.1769833"><ele>754.6666666666666</ele><time>2026-04-12T15:13:45.886Z</time></trkpt><trkpt lat="43.7105056" lon="12.1772831"><ele>751.3333333333334</ele><time>2026-04-12T15:13:46.89Z</time></trkpt><trkpt lat="43.7103932" lon="12.1775462"><ele>748.0</ele><time>2026-04-12T15:13:47.891Z</time></trkpt><trkpt lat="43.7102893" lon="12.1778224"><ele>739.3333333333334</ele><time>2026-04-12T15:13:48.883Z</time></trkpt><trkpt lat="43.7101958" lon="12.1780836"><ele>730.6666666666666</ele><time>2026-04-12T15:13:49.894Z</time></trkpt><trkpt lat="43.7101479" lon="12.1783381"><ele>722.0</ele><time>2026-04-12T15:13:50.906Z</time></trkpt><trkpt lat="43.7101372" lon="12.1786177"><ele>721.6666666666666</ele><time>2026-04-12T15:13:51.97Z</time></trkpt><trkpt lat="43.7101487" lon="12.1788984"><ele>721.3333333333334</ele><time>2026-04-12T15:13:52.889Z</time></trkpt><trkpt lat="43.7101732" lon="12.1791834"><ele>721.0</ele><time>2026-04-12T15:13:53.891Z</time></trkpt><trkpt lat="43.7101997" lon="12.1794621"><ele>719.6666666666667</ele><time>2026-04-12T15:13:54.886Z</time></trkpt><trkpt lat="43.7102155" lon="12.1797339"><ele>718.3333333333334</ele><time>2026-04-12T15:13:55.888Z</time></trkpt><trkpt lat="43.7102096" lon="12.1800116"><ele>717.0</ele><time>2026-04-12T15:13:56.898Z</time></trkpt><trkpt lat="43.7101711" lon="12.1802658"><ele>716.0</ele><time>2026-04-12T15:13:57.882Z</time></trkpt><trkpt lat="43.710117" lon="12.180501"><ele>715.0</ele><time>2026-04-12T15:13:58.893Z</time></trkpt><trkpt lat="43.7100523" lon="12.1807068"><ele>714.0</ele><time>2026-04-12T15:13:59.946Z</time></trkpt><trkpt lat="43.7099812" lon="12.1808988"><ele>713.25</ele><time>2026-04-12T15:14:00.971Z</time></trkpt><trkpt lat="43.7099074" lon="12.1810844"><ele>712.5</ele><time>2026-04-12T15:14:01.895Z</time></trkpt><trkpt lat="43.7098468" lon="12.1812543"><ele>711.75</ele><time>2026-04-12T15:14:02.98Z</time></trkpt><trkpt lat="43.7097955" lon="12.1814221"><ele>711.0</ele><time>2026-04-12T15:14:03.901Z</time></trkpt><trkpt lat="43.7097433" lon="12.1815852"><ele>710.25</ele><time>2026-04-12T15:14:04.904Z</time></trkpt><trkpt lat="43.7096916" lon="12.1817487"><ele>709.5</ele><time>2026-04-12T15:14:05.909Z</time></trkpt><trkpt lat="43.7096388" lon="12.181902"><ele>708.75</ele><time>2026-04-12T15:14:06.896Z</time></trkpt><trkpt lat="43.7095847" lon="12.1820529"><ele>708.0</ele><time>2026-04-12T15:14:07.906Z</time></trkpt><trkpt lat="43.7095297" lon="12.1822113"><ele>707.0</ele><time>2026-04-12T15:14:08.923Z</time></trkpt><trkpt lat="43.7094724" lon="12.1823844"><ele>706.0</ele><time>2026-04-12T15:14:09.919Z</time></trkpt><trkpt lat="43.7094076" lon="12.1825657"><ele>705.0</ele><time>2026-04-12T15:14:10.91Z</time></trkpt><trkpt lat="43.709335" lon="12.1827548"><ele>704.0</ele><time>2026-04-12T15:14:11.909Z</time></trkpt><trkpt lat="43.7092548" lon="12.1829461"><ele>701.6666666666666</ele><time>2026-04-12T15:14:12.915Z</time></trkpt><trkpt lat="43.7091663" lon="12.1831475"><ele>699.3333333333334</ele><time>2026-04-12T15:14:13.894Z</time></trkpt><trkpt lat="43.7090722" lon="12.183355"><ele>697.0</ele><time>2026-04-12T15:14:14.996Z</time></trkpt><trkpt lat="43.7089723" lon="12.1835622"><ele>697.0</ele><time>2026-04-12T15:14:15.898Z</time></trkpt><trkpt lat="43.7088665" lon="12.183772"><ele>697.0</ele><time>2026-04-12T15:14:16.914Z</time></trkpt><trkpt lat="43.7087516" lon="12.1839884"><ele>697.0</ele><time>2026-04-12T15:14:17.899Z</time></trkpt><trkpt lat="43.7086262" lon="12.1841838"><ele>695.3333333333334</ele><time>2026-04-12T15:14:18.911Z</time></trkpt><trkpt lat="43.7084677" lon="12.1843322"><ele>693.6666666666666</ele><time>2026-04-12T15:14:19.911Z</time></trkpt><trkpt lat="43.7082723" lon="12.1844052"><ele>692.0</ele><time>2026-04-12T15:14:20.898Z</time></trkpt><trkpt lat="43.7080652" lon="12.1844095"><ele>692.0</ele><time>2026-04-12T15:14:21.907Z</time></trkpt><trkpt lat="43.7078545" lon="12.1843636"><ele>692.0</ele><time>2026-04-12T15:14:22.902Z</time></trkpt><trkpt lat="43.707646" lon="12.1843127"><ele>692.0</ele><time>2026-04-12T15:14:23.993Z</time></trkpt><trkpt lat="43.7074373" lon="12.1842817"><ele>691.6666666666666</ele><time>2026-04-12T15:14:24.902Z</time></trkpt><trkpt lat="43.7072392" lon="12.1842703"><ele>691.3333333333334</ele><time>2026-04-12T15:14:25.932Z</time></trkpt><trkpt lat="43.7070489" lon="12.1842883"><ele>691.0</ele><time>2026-04-12T15:14:26.925Z</time></trkpt><trkpt lat="43.7068637" lon="12.1843656"><ele>691.6666666666667</ele><time>2026-04-12T15:14:27.921Z</time></trkpt><trkpt lat="43.7066927" lon="12.184506"><ele>692.3333333333334</ele><time>2026-04-12T15:14:28.907Z</time></trkpt><trkpt lat="43.7065338" lon="12.1846923"><ele>693.0</ele><time>2026-04-12T15:14:29.91Z</time></trkpt><trkpt lat="43.7063864" lon="12.1849021"><ele>692.6666666666666</ele><time>2026-04-12T15:14:30.903Z</time></trkpt><trkpt lat="43.7062454" lon="12.1851126"><ele>692.3333333333333</ele><time>2026-04-12T15:14:31.891Z</time></trkpt><trkpt lat="43.7061006" lon="12.1853201"><ele>692.0</ele><time>2026-04-12T15:14:32.888Z</time></trkpt><trkpt lat="43.705953" lon="12.1855342"><ele>694.3333333333333</ele><time>2026-04-12T15:14:33.887Z</time></trkpt><trkpt lat="43.7058068" lon="12.1857461"><ele>696.6666666666666</ele><time>2026-04-12T15:14:34.884Z</time></trkpt><trkpt lat="43.7056606" lon="12.1859609"><ele>699.0</ele><time>2026-04-12T15:14:35.903Z</time></trkpt><trkpt lat="43.7055129" lon="12.1861791"><ele>699.0</ele><time>2026-04-12T15:14:36.891Z</time></trkpt><trkpt lat="43.7053614" lon="12.1863928"><ele>699.0</ele><time>2026-04-12T15:14:37.891Z</time></trkpt><trkpt lat="43.7052077" lon="12.1865997"><ele>699.0</ele><time>2026-04-12T15:14:38.874Z</time></trkpt><trkpt lat="43.7050468" lon="12.1868045"><ele>698.6666666666666</ele><time>2026-04-12T15:14:39.89Z</time></trkpt><trkpt lat="43.7048802" lon="12.1870032"><ele>698.3333333333333</ele><time>2026-04-12T15:14:40.872Z</time></trkpt><trkpt lat="43.7047041" lon="12.1871975"><ele>698.0</ele><time>2026-04-12T15:14:41.897Z</time></trkpt><trkpt lat="43.7045223" lon="12.1873899"><ele>695.0</ele><time>2026-04-12T15:14:42.905Z</time></trkpt><trkpt lat="43.7043387" lon="12.1875842"><ele>692.0</ele><time>2026-04-12T15:14:43.888Z</time></trkpt><trkpt lat="43.7041583" lon="12.1877714"><ele>692.0</ele><time>2026-04-12T15:14:44.911Z</time></trkpt><trkpt lat="43.7039886" lon="12.1879532"><ele>692.0</ele><time>2026-04-12T15:14:45.891Z</time></trkpt><trkpt lat="43.703835" lon="12.1881152"><ele>692.0</ele><time>2026-04-12T15:14:46.881Z</time></trkpt><trkpt lat="43.7036923" lon="12.1882581"><ele>691.0</ele><time>2026-04-12T15:14:47.896Z</time></trkpt><trkpt lat="43.7035562" lon="12.1883966"><ele>690.0</ele><time>2026-04-12T15:14:48.912Z</time></trkpt><trkpt lat="43.7034281" lon="12.1885328"><ele>689.0</ele><time>2026-04-12T15:14:49.9Z</time></trkpt><trkpt lat="43.7033118" lon="12.1886509"><ele>689.0</ele><time>2026-04-12T15:14:50.872Z</time></trkpt><trkpt lat="43.7032014" lon="12.188769"><ele>689.0</ele><time>2026-04-12T15:14:51.893Z</time></trkpt><trkpt lat="43.7031143" lon="12.1888779"><ele>689.0</ele><time>2026-04-12T15:14:52.888Z</time></trkpt><trkpt lat="43.7030474" lon="12.1890149"><ele>689.0</ele><time>2026-04-12T15:14:53.88Z</time></trkpt><trkpt lat="43.7029969" lon="12.1891436"><ele>690.25</ele><time>2026-04-12T15:14:54.892Z</time></trkpt><trkpt lat="43.7029677" lon="12.1892864"><ele>691.5</ele><time>2026-04-12T15:14:55.893Z</time></trkpt><trkpt lat="43.7029538" lon="12.1894454"><ele>692.75</ele><time>2026-04-12T15:14:56.894Z</time></trkpt><trkpt lat="43.7029537" lon="12.1896137"><ele>694.0</ele><time>2026-04-12T15:14:57.897Z</time></trkpt><trkpt lat="43.702968" lon="12.1897839"><ele>692.0</ele><time>2026-04-12T15:14:58.944Z</time></trkpt><trkpt lat="43.703005" lon="12.1899617"><ele>690.0</ele><time>2026-04-12T15:14:59.879Z</time></trkpt><trkpt lat="43.7030736" lon="12.1901314"><ele>688.0</ele><time>2026-04-12T15:15:00.883Z</time></trkpt><trkpt lat="43.7031637" lon="12.1902751"><ele>686.0</ele><time>2026-04-12T15:15:01.895Z</time></trkpt><trkpt lat="43.703279" lon="12.1903963"><ele>686.0</ele><time>2026-04-12T15:15:02.881Z</time></trkpt><trkpt lat="43.703433" lon="12.1904948"><ele>686.0</ele><time>2026-04-12T15:15:03.91Z</time></trkpt><trkpt lat="43.703629" lon="12.1905813"><ele>686.0</ele><time>2026-04-12T15:15:04.88Z</time></trkpt><trkpt lat="43.7038425" lon="12.1906633"><ele>680.5</ele><time>2026-04-12T15:15:05.901Z</time></trkpt><trkpt lat="43.7040641" lon="12.1907701"><ele>675.0</ele><time>2026-04-12T15:15:06.889Z</time></trkpt><trkpt lat="43.7042846" lon="12.1908751"><ele>675.3333333333334</ele><time>2026-04-12T15:15:07.906Z</time></trkpt><trkpt lat="43.7044979" lon="12.1909561"><ele>675.6666666666667</ele><time>2026-04-12T15:15:08.88Z</time></trkpt><trkpt lat="43.7047112" lon="12.1909961"><ele>676.0</ele><time>2026-04-12T15:15:09.903Z</time></trkpt><trkpt lat="43.7049265" lon="12.1909861"><ele>676.0</ele><time>2026-04-12T15:15:10.881Z</time></trkpt><trkpt lat="43.7051381" lon="12.1909607"><ele>676.0</ele><time>2026-04-12T15:15:11.902Z</time></trkpt><trkpt lat="43.7053367" lon="12.1909369"><ele>676.0</ele><time>2026-04-12T15:15:12.894Z</time></trkpt><trkpt lat="43.7055196" lon="12.1909128"><ele>676.0</ele><time>2026-04-12T15:15:13.892Z</time></trkpt><trkpt lat="43.7056735" lon="12.19092"><ele>676.0</ele><time>2026-04-12T15:15:14.908Z</time></trkpt><trkpt lat="43.7058127" lon="12.1909649"><ele>676.0</ele><time>2026-04-12T15:15:15.88Z</time></trkpt><trkpt lat="43.7059079" lon="12.1910833"><ele>676.0</ele><time>2026-04-12T15:15:16.89Z</time></trkpt><trkpt lat="43.7059661" lon="12.191256"><ele>676.0</ele><time>2026-04-12T15:15:17.887Z</time></trkpt><trkpt lat="43.7059632" lon="12.1914794"><ele>676.0</ele><time>2026-04-12T15:15:18.904Z</time></trkpt><trkpt lat="43.7059144" lon="12.1916885"><ele>676.0</ele><time>2026-04-12T15:15:19.913Z</time></trkpt><trkpt lat="43.7058098" lon="12.1918618"><ele>671.0</ele><time>2026-04-12T15:15:20.883Z</time></trkpt><trkpt lat="43.7056964" lon="12.1919792"><ele>666.0</ele><time>2026-04-12T15:15:21.884Z</time></trkpt><trkpt lat="43.7055358" lon="12.1920635"><ele>661.0</ele><time>2026-04-12T15:15:22.902Z</time></trkpt><trkpt lat="43.705339" lon="12.1921261"><ele>663.0</ele><time>2026-04-12T15:15:23.894Z</time></trkpt><trkpt lat="43.7051176" lon="12.1921893"><ele>665.0</ele><time>2026-04-12T15:15:24.996Z</time></trkpt><trkpt lat="43.7048805" lon="12.1922469"><ele>660.5</ele><time>2026-04-12T15:15:25.99Z</time></trkpt><trkpt lat="43.7044977" lon="12.1923942"><ele>656.0</ele><time>2026-04-12T15:15:27.903Z</time></trkpt><trkpt lat="43.7043772" lon="12.1925343"><ele>655.5</ele><time>2026-04-12T15:15:28.903Z</time></trkpt><trkpt lat="43.7043021" lon="12.1927162"><ele>655.0</ele><time>2026-04-12T15:15:29.888Z</time></trkpt><trkpt lat="43.704293" lon="12.1929192"><ele>654.5</ele><time>2026-04-12T15:15:30.898Z</time></trkpt><trkpt lat="43.7043293" lon="12.1931177"><ele>654.0</ele><time>2026-04-12T15:15:31.884Z</time></trkpt><trkpt lat="43.7044095" lon="12.1932828"><ele>651.0</ele><time>2026-04-12T15:15:32.888Z</time></trkpt><trkpt lat="43.7045328" lon="12.1933941"><ele>648.0</ele><time>2026-04-12T15:15:33.893Z</time></trkpt><trkpt lat="43.704698" lon="12.1934507"><ele>645.0</ele><time>2026-04-12T15:15:34.882Z</time></trkpt><trkpt lat="43.704917" lon="12.1934475"><ele>645.0</ele><time>2026-04-12T15:15:35.889Z</time></trkpt><trkpt lat="43.7051759" lon="12.1934332"><ele>645.0</ele><time>2026-04-12T15:15:36.884Z</time></trkpt><trkpt lat="43.7054371" lon="12.1934343"><ele>643.5</ele><time>2026-04-12T15:15:37.906Z</time></trkpt><trkpt lat="43.7056734" lon="12.1934627"><ele>642.0</ele><time>2026-04-12T15:15:38.885Z</time></trkpt><trkpt lat="43.7059111" lon="12.1935307"><ele>642.0</ele><time>2026-04-12T15:15:39.897Z</time></trkpt><trkpt lat="43.7061429" lon="12.193683"><ele>642.0</ele><time>2026-04-12T15:15:40.883Z</time></trkpt><trkpt lat="43.7063665" lon="12.1939246"><ele>636.5</ele><time>2026-04-12T15:15:41.895Z</time></trkpt><trkpt lat="43.7066054" lon="12.1942006"><ele>631.0</ele><time>2026-04-12T15:15:42.889Z</time></trkpt><trkpt lat="43.7068745" lon="12.1944879"><ele>627.5</ele><time>2026-04-12T15:15:43.903Z</time></trkpt><trkpt lat="43.7071453" lon="12.1947614"><ele>624.0</ele><time>2026-04-12T15:15:44.986Z</time></trkpt><trkpt lat="43.7073916" lon="12.1950129"><ele>618.0</ele><time>2026-04-12T15:15:45.991Z</time></trkpt><trkpt lat="43.7077833" lon="12.1954222"><ele>618.0</ele><time>2026-04-12T15:15:48.003Z</time></trkpt><trkpt lat="43.7081824" lon="12.1956504"><ele>618.0</ele><time>2026-04-12T15:15:49.892Z</time></trkpt><trkpt lat="43.7084041" lon="12.1956834"><ele>614.0</ele><time>2026-04-12T15:15:50.876Z</time></trkpt><trkpt lat="43.7086432" lon="12.1956678"><ele>610.0</ele><time>2026-04-12T15:15:51.899Z</time></trkpt><trkpt lat="43.7088914" lon="12.1955905"><ele>610.0</ele><time>2026-04-12T15:15:52.907Z</time></trkpt><trkpt lat="43.7091206" lon="12.1954607"><ele>610.0</ele><time>2026-04-12T15:15:53.89Z</time></trkpt><trkpt lat="43.7093203" lon="12.1952948"><ele>602.0</ele><time>2026-04-12T15:15:54.892Z</time></trkpt><trkpt lat="43.7094838" lon="12.1950765"><ele>594.0</ele><time>2026-04-12T15:15:55.883Z</time></trkpt><trkpt lat="43.7096189" lon="12.1948182"><ele>594.0</ele><time>2026-04-12T15:15:56.892Z</time></trkpt><trkpt lat="43.7097081" lon="12.1945267"><ele>594.0</ele><time>2026-04-12T15:15:57.886Z</time></trkpt><trkpt lat="43.7097964" lon="12.1942292"><ele>596.0</ele><time>2026-04-12T15:15:58.896Z</time></trkpt><trkpt lat="43.7098837" lon="12.193939"><ele>598.0</ele><time>2026-04-12T15:15:59.894Z</time></trkpt><trkpt lat="43.7099696" lon="12.1936682"><ele>600.0</ele><time>2026-04-12T15:16:00.884Z</time></trkpt><trkpt lat="43.7100609" lon="12.1934095"><ele>601.6666666666666</ele><time>2026-04-12T15:16:01.897Z</time></trkpt><trkpt lat="43.7101749" lon="12.1931687"><ele>603.3333333333333</ele><time>2026-04-12T15:16:02.891Z</time></trkpt><trkpt lat="43.7103222" lon="12.1929458"><ele>605.0</ele><time>2026-04-12T15:16:03.902Z</time></trkpt><trkpt lat="43.7104955" lon="12.1927574"><ele>598.0</ele><time>2026-04-12T15:16:04.909Z</time></trkpt><trkpt lat="43.7106929" lon="12.1925931"><ele>591.0</ele><time>2026-04-12T15:16:05.883Z</time></trkpt><trkpt lat="43.7108921" lon="12.1924568"><ele>591.0</ele><time>2026-04-12T15:16:06.888Z</time></trkpt><trkpt lat="43.7110949" lon="12.192332"><ele>591.0</ele><time>2026-04-12T15:16:07.982Z</time></trkpt><trkpt lat="43.7112974" lon="12.192237"><ele>591.0</ele><time>2026-04-12T15:16:08.901Z</time></trkpt><trkpt lat="43.7114955" lon="12.1921834"><ele>591.0</ele><time>2026-04-12T15:16:09.916Z</time></trkpt><trkpt lat="43.7116919" lon="12.1921788"><ele>591.0</ele><time>2026-04-12T15:16:10.881Z</time></trkpt><trkpt lat="43.7118709" lon="12.1922307"><ele>591.0</ele><time>2026-04-12T15:16:11.882Z</time></trkpt><trkpt lat="43.7120058" lon="12.192367"><ele>585.6666666666666</ele><time>2026-04-12T15:16:12.906Z</time></trkpt><trkpt lat="43.71213" lon="12.1925321"><ele>580.3333333333333</ele><time>2026-04-12T15:16:13.901Z</time></trkpt><trkpt lat="43.7122513" lon="12.1926995"><ele>575.0</ele><time>2026-04-12T15:16:14.916Z</time></trkpt><trkpt lat="43.7123608" lon="12.1928618"><ele>575.0</ele><time>2026-04-12T15:16:15.893Z</time></trkpt><trkpt lat="43.7124682" lon="12.1930215"><ele>575.0</ele><time>2026-04-12T15:16:16.895Z</time></trkpt><trkpt lat="43.7125755" lon="12.1931704"><ele>575.0</ele><time>2026-04-12T15:16:17.877Z</time></trkpt><trkpt lat="43.7126797" lon="12.1933137"><ele>570.75</ele><time>2026-04-12T15:16:18.884Z</time></trkpt><trkpt lat="43.7127784" lon="12.1934526"><ele>566.5</ele><time>2026-04-12T15:16:19.886Z</time></trkpt><trkpt lat="43.7128692" lon="12.193599"><ele>562.25</ele><time>2026-04-12T15:16:20.894Z</time></trkpt><trkpt lat="43.7129744" lon="12.1937446"><ele>558.0</ele><time>2026-04-12T15:16:21.903Z</time></trkpt><trkpt lat="43.713091" lon="12.1939017"><ele>557.3333333333334</ele><time>2026-04-12T15:16:22.891Z</time></trkpt><trkpt lat="43.7132131" lon="12.1940695"><ele>556.6666666666667</ele><time>2026-04-12T15:16:23.897Z</time></trkpt><trkpt lat="43.7133477" lon="12.1942479"><ele>556.0</ele><time>2026-04-12T15:16:24.887Z</time></trkpt><trkpt lat="43.7134884" lon="12.1944477"><ele>549.6666666666667</ele><time>2026-04-12T15:16:25.884Z</time></trkpt><trkpt lat="43.7136389" lon="12.1946599"><ele>543.3333333333334</ele><time>2026-04-12T15:16:26.878Z</time></trkpt><trkpt lat="43.7138035" lon="12.1948813"><ele>537.0</ele><time>2026-04-12T15:16:27.893Z</time></trkpt><trkpt lat="43.7139692" lon="12.1951111"><ele>535.5</ele><time>2026-04-12T15:16:28.877Z</time></trkpt><trkpt lat="43.7141375" lon="12.1953474"><ele>534.0</ele><time>2026-04-12T15:16:29.889Z</time></trkpt><trkpt lat="43.7143065" lon="12.1955892"><ele>533.0</ele><time>2026-04-12T15:16:30.886Z</time></trkpt><trkpt lat="43.7144732" lon="12.1958184"><ele>532.0</ele><time>2026-04-12T15:16:31.903Z</time></trkpt><trkpt lat="43.7146349" lon="12.1960309"><ele>532.0</ele><time>2026-04-12T15:16:32.988Z</time></trkpt><trkpt lat="43.7147956" lon="12.1962308"><ele>532.0</ele><time>2026-04-12T15:16:33.899Z</time></trkpt><trkpt lat="43.7149554" lon="12.1964022"><ele>532.0</ele><time>2026-04-12T15:16:34.923Z</time></trkpt><trkpt lat="43.7151208" lon="12.1965352"><ele>538.0</ele><time>2026-04-12T15:16:35.884Z</time></trkpt><trkpt lat="43.7153056" lon="12.1966148"><ele>544.0</ele><time>2026-04-12T15:16:36.892Z</time></trkpt><trkpt lat="43.7155031" lon="12.1966547"><ele>550.0</ele><time>2026-04-12T15:16:37.906Z</time></trkpt><trkpt lat="43.7157002" lon="12.1966505"><ele>550.0</ele><time>2026-04-12T15:16:38.901Z</time></trkpt><trkpt lat="43.715891" lon="12.1965961"><ele>550.0</ele><time>2026-04-12T15:16:39.912Z</time></trkpt><trkpt lat="43.716069" lon="12.1964963"><ele>550.0</ele><time>2026-04-12T15:16:40.879Z</time></trkpt><trkpt lat="43.7162315" lon="12.1963767"><ele>551.0</ele><time>2026-04-12T15:16:41.886Z</time></trkpt><trkpt lat="43.716386" lon="12.1962662"><ele>552.0</ele><time>2026-04-12T15:16:42.879Z</time></trkpt><trkpt lat="43.7165407" lon="12.1961675"><ele>553.0</ele><time>2026-04-12T15:16:43.885Z</time></trkpt><trkpt lat="43.716701" lon="12.1960731"><ele>553.0</ele><time>2026-04-12T15:16:44.89Z</time></trkpt><trkpt lat="43.7168513" lon="12.1959942"><ele>553.0</ele><time>2026-04-12T15:16:45.888Z</time></trkpt><trkpt lat="43.717005" lon="12.195945"><ele>553.0</ele><time>2026-04-12T15:16:46.886Z</time></trkpt><trkpt lat="43.7171488" lon="12.1958964"><ele>554.5</ele><time>2026-04-12T15:16:47.886Z</time></trkpt><trkpt lat="43.7172786" lon="12.1958479"><ele>556.0</ele><time>2026-04-12T15:16:48.898Z</time></trkpt><trkpt lat="43.7173998" lon="12.1957986"><ele>557.5</ele><time>2026-04-12T15:16:49.893Z</time></trkpt><trkpt lat="43.7175203" lon="12.1957486"><ele>559.0</ele><time>2026-04-12T15:16:50.884Z</time></trkpt><trkpt lat="43.7176483" lon="12.1957004"><ele>557.75</ele><time>2026-04-12T15:16:51.904Z</time></trkpt><trkpt lat="43.7177821" lon="12.1956471"><ele>556.5</ele><time>2026-04-12T15:16:52.875Z</time></trkpt><trkpt lat="43.7179203" lon="12.1955886"><ele>555.25</ele><time>2026-04-12T15:16:53.886Z</time></trkpt><trkpt lat="43.7180644" lon="12.1955269"><ele>554.0</ele><time>2026-04-12T15:16:54.895Z</time></trkpt><trkpt lat="43.718211" lon="12.1954659"><ele>554.0</ele><time>2026-04-12T15:16:56.003Z</time></trkpt><trkpt lat="43.7183637" lon="12.1954011"><ele>554.0</ele><time>2026-04-12T15:16:56.878Z</time></trkpt><trkpt lat="43.7185233" lon="12.1953358"><ele>554.0</ele><time>2026-04-12T15:16:57.902Z</time></trkpt><trkpt lat="43.7186939" lon="12.1952707"><ele>555.6666666666666</ele><time>2026-04-12T15:16:58.882Z</time></trkpt><trkpt lat="43.7188678" lon="12.1951993"><ele>557.3333333333334</ele><time>2026-04-12T15:16:59.874Z</time></trkpt><trkpt lat="43.7190424" lon="12.1951308"><ele>559.0</ele><time>2026-04-12T15:17:00.886Z</time></trkpt><trkpt lat="43.7192188" lon="12.195055"><ele>559.0</ele><time>2026-04-12T15:17:01.882Z</time></trkpt><trkpt lat="43.7193972" lon="12.1949748"><ele>559.0</ele><time>2026-04-12T15:17:02.897Z</time></trkpt><trkpt lat="43.7195774" lon="12.1948957"><ele>559.0</ele><time>2026-04-12T15:17:03.887Z</time></trkpt><trkpt lat="43.7197599" lon="12.1948137"><ele>558.3333333333334</ele><time>2026-04-12T15:17:04.897Z</time></trkpt><trkpt lat="43.7199437" lon="12.1947213"><ele>557.6666666666666</ele><time>2026-04-12T15:17:05.894Z</time></trkpt><trkpt lat="43.720126" lon="12.1946123"><ele>557.0</ele><time>2026-04-12T15:17:07.007Z</time></trkpt><trkpt lat="43.7203071" lon="12.1944907"><ele>557.0</ele><time>2026-04-12T15:17:08.007Z</time></trkpt><trkpt lat="43.7206773" lon="12.1942596"><ele>557.0</ele><time>2026-04-12T15:17:09.905Z</time></trkpt><trkpt lat="43.7208756" lon="12.1941674"><ele>556.3333333333333</ele><time>2026-04-12T15:17:10.901Z</time></trkpt><trkpt lat="43.7210842" lon="12.1941128"><ele>555.6666666666666</ele><time>2026-04-12T15:17:11.912Z</time></trkpt><trkpt lat="43.7212871" lon="12.1940777"><ele>555.0</ele><time>2026-04-12T15:17:12.898Z</time></trkpt><trkpt lat="43.7214864" lon="12.194062"><ele>555.0</ele><time>2026-04-12T15:17:13.892Z</time></trkpt><trkpt lat="43.7216761" lon="12.1940497"><ele>555.0</ele><time>2026-04-12T15:17:14.994Z</time></trkpt><trkpt lat="43.7220074" lon="12.1940268"><ele>553.75</ele><time>2026-04-12T15:17:16.907Z</time></trkpt><trkpt lat="43.7221565" lon="12.1940236"><ele>552.5</ele><time>2026-04-12T15:17:17.995Z</time></trkpt><trkpt lat="43.7222838" lon="12.1940638"><ele>551.25</ele><time>2026-04-12T15:17:18.896Z</time></trkpt><trkpt lat="43.7223947" lon="12.1941749"><ele>550.0</ele><time>2026-04-12T15:17:19.893Z</time></trkpt><trkpt lat="43.7224954" lon="12.1943302"><ele>550.0</ele><time>2026-04-12T15:17:20.897Z</time></trkpt><trkpt lat="43.7225937" lon="12.1945069"><ele>550.0</ele><time>2026-04-12T15:17:21.886Z</time></trkpt><trkpt lat="43.722707" lon="12.1946712"><ele>550.0</ele><time>2026-04-12T15:17:22.883Z</time></trkpt><trkpt lat="43.7228539" lon="12.1947976"><ele>549.6666666666667</ele><time>2026-04-12T15:17:23.897Z</time></trkpt><trkpt lat="43.7230338" lon="12.1948688"><ele>549.3333333333334</ele><time>2026-04-12T15:17:24.893Z</time></trkpt><trkpt lat="43.7232274" lon="12.1949277"><ele>549.0</ele><time>2026-04-12T15:17:25.884Z</time></trkpt><trkpt lat="43.723413" lon="12.1949825"><ele>552.0</ele><time>2026-04-12T15:17:26.874Z</time></trkpt><trkpt lat="43.7235994" lon="12.1950035"><ele>555.0</ele><time>2026-04-12T15:17:27.898Z</time></trkpt><trkpt lat="43.7237779" lon="12.1949839"><ele>558.0</ele><time>2026-04-12T15:17:28.994Z</time></trkpt><trkpt lat="43.7241315" lon="12.1948847"><ele>557.0</ele><time>2026-04-12T15:17:30.903Z</time></trkpt><trkpt lat="43.7242938" lon="12.1948359"><ele>556.0</ele><time>2026-04-12T15:17:31.883Z</time></trkpt><trkpt lat="43.724452" lon="12.1947685"><ele>555.0</ele><time>2026-04-12T15:17:32.895Z</time></trkpt><trkpt lat="43.7245792" lon="12.1946624"><ele>555.0</ele><time>2026-04-12T15:17:33.891Z</time></trkpt><trkpt lat="43.7246972" lon="12.1945189"><ele>555.0</ele><time>2026-04-12T15:17:34.88Z</time></trkpt><trkpt lat="43.7247901" lon="12.1943361"><ele>555.0</ele><time>2026-04-12T15:17:35.876Z</time></trkpt><trkpt lat="43.7248617" lon="12.1941618"><ele>555.0</ele><time>2026-04-12T15:17:36.911Z</time></trkpt><trkpt lat="43.7249366" lon="12.1940268"><ele>555.0</ele><time>2026-04-12T15:17:37.884Z</time></trkpt><trkpt lat="43.7250349" lon="12.1939226"><ele>555.0</ele><time>2026-04-12T15:17:38.891Z</time></trkpt><trkpt lat="43.7251531" lon="12.1938876"><ele>555.0</ele><time>2026-04-12T15:17:39.887Z</time></trkpt><trkpt lat="43.7252612" lon="12.1939692"><ele>556.6666666666666</ele><time>2026-04-12T15:17:40.878Z</time></trkpt><trkpt lat="43.7253402" lon="12.1941408"><ele>558.3333333333333</ele><time>2026-04-12T15:17:41.892Z</time></trkpt><trkpt lat="43.7254144" lon="12.1943353"><ele>560.0</ele><time>2026-04-12T15:17:42.896Z</time></trkpt><trkpt lat="43.7254987" lon="12.1945443"><ele>560.0</ele><time>2026-04-12T15:17:43.886Z</time></trkpt><trkpt lat="43.7256033" lon="12.1947481"><ele>560.0</ele><time>2026-04-12T15:17:44.881Z</time></trkpt><trkpt lat="43.7257229" lon="12.1949518"><ele>560.0</ele><time>2026-04-12T15:17:45.896Z</time></trkpt><trkpt lat="43.7258605" lon="12.1951349"><ele>562.6666666666666</ele><time>2026-04-12T15:17:46.888Z</time></trkpt><trkpt lat="43.7260211" lon="12.1952856"><ele>565.3333333333334</ele><time>2026-04-12T15:17:47.89Z</time></trkpt><trkpt lat="43.7262045" lon="12.1954127"><ele>568.0</ele><time>2026-04-12T15:17:48.884Z</time></trkpt><trkpt lat="43.7264008" lon="12.1955214"><ele>568.0</ele><time>2026-04-12T15:17:49.897Z</time></trkpt><trkpt lat="43.7266065" lon="12.1956229"><ele>568.0</ele><time>2026-04-12T15:17:50.97Z</time></trkpt><trkpt lat="43.7268138" lon="12.1957257"><ele>568.0</ele><time>2026-04-12T15:17:51.886Z</time></trkpt><trkpt lat="43.7270211" lon="12.1958351"><ele>564.0</ele><time>2026-04-12T15:17:52.89Z</time></trkpt><trkpt lat="43.7272274" lon="12.1959587"><ele>560.0</ele><time>2026-04-12T15:17:53.892Z</time></trkpt><trkpt lat="43.7274306" lon="12.1960827"><ele>556.0</ele><time>2026-04-12T15:17:54.87Z</time></trkpt><trkpt lat="43.7276336" lon="12.1962165"><ele>557.3333333333334</ele><time>2026-04-12T15:17:55.878Z</time></trkpt><trkpt lat="43.7278375" lon="12.1963443"><ele>558.6666666666666</ele><time>2026-04-12T15:17:56.89Z</time></trkpt><trkpt lat="43.7280384" lon="12.196455"><ele>560.0</ele><time>2026-04-12T15:17:57.879Z</time></trkpt><trkpt lat="43.7282364" lon="12.196549"><ele>560.0</ele><time>2026-04-12T15:17:58.879Z</time></trkpt><trkpt lat="43.7284412" lon="12.1966219"><ele>560.0</ele><time>2026-04-12T15:17:59.888Z</time></trkpt><trkpt lat="43.7286516" lon="12.1966821"><ele>560.0</ele><time>2026-04-12T15:18:00.884Z</time></trkpt><trkpt lat="43.7288536" lon="12.1967459"><ele>555.0</ele><time>2026-04-12T15:18:01.902Z</time></trkpt><trkpt lat="43.7290373" lon="12.1968532"><ele>550.0</ele><time>2026-04-12T15:18:02.878Z</time></trkpt><trkpt lat="43.7292114" lon="12.1970084"><ele>545.0</ele><time>2026-04-12T15:18:03.886Z</time></trkpt><trkpt lat="43.7293742" lon="12.19719"><ele>543.0</ele><time>2026-04-12T15:18:04.878Z</time></trkpt><trkpt lat="43.7295333" lon="12.197383"><ele>541.0</ele><time>2026-04-12T15:18:05.876Z</time></trkpt><trkpt lat="43.7296663" lon="12.1975958"><ele>539.0</ele><time>2026-04-12T15:18:06.885Z</time></trkpt><trkpt lat="43.7297748" lon="12.1978177"><ele>539.0</ele><time>2026-04-12T15:18:07.883Z</time></trkpt><trkpt lat="43.7298789" lon="12.1980433"><ele>539.0</ele><time>2026-04-12T15:18:08.871Z</time></trkpt><trkpt lat="43.73" lon="12.1982314"><ele>539.0</ele><time>2026-04-12T15:18:09.883Z</time></trkpt><trkpt lat="43.7301651" lon="12.1983559"><ele>539.3333333333333</ele><time>2026-04-12T15:18:10.879Z</time></trkpt><trkpt lat="43.7303552" lon="12.1984656"><ele>539.6666666666666</ele><time>2026-04-12T15:18:11.898Z</time></trkpt><trkpt lat="43.7305415" lon="12.1985746"><ele>540.0</ele><time>2026-04-12T15:18:12.945Z</time></trkpt><trkpt lat="43.7307087" lon="12.1986698"><ele>540.0</ele><time>2026-04-12T15:18:13.878Z</time></trkpt><trkpt lat="43.7308893" lon="12.1986977"><ele>540.0</ele><time>2026-04-12T15:18:14.878Z</time></trkpt><trkpt lat="43.7310874" lon="12.198664"><ele>540.0</ele><time>2026-04-12T15:18:15.881Z</time></trkpt><trkpt lat="43.7312829" lon="12.1986042"><ele>538.6666666666666</ele><time>2026-04-12T15:18:16.863Z</time></trkpt><trkpt lat="43.731463" lon="12.1985357"><ele>537.3333333333333</ele><time>2026-04-12T15:18:17.869Z</time></trkpt><trkpt lat="43.7316292" lon="12.1985251"><ele>536.0</ele><time>2026-04-12T15:18:18.875Z</time></trkpt><trkpt lat="43.7317654" lon="12.1985924"><ele>536.0</ele><time>2026-04-12T15:18:19.881Z</time></trkpt><trkpt lat="43.7318789" lon="12.1987451"><ele>536.0</ele><time>2026-04-12T15:18:20.874Z</time></trkpt><trkpt lat="43.7319747" lon="12.1989221"><ele>536.0</ele><time>2026-04-12T15:18:21.88Z</time></trkpt><trkpt lat="43.7320892" lon="12.1990846"><ele>539.0</ele><time>2026-04-12T15:18:22.877Z</time></trkpt><trkpt lat="43.7322236" lon="12.1991801"><ele>542.0</ele><time>2026-04-12T15:18:23.89Z</time></trkpt><trkpt lat="43.7323674" lon="12.1992039"><ele>545.0</ele><time>2026-04-12T15:18:24.873Z</time></trkpt><trkpt lat="43.7325131" lon="12.1991567"><ele>548.0</ele><time>2026-04-12T15:18:25.878Z</time></trkpt><trkpt lat="43.7326677" lon="12.1990711"><ele>545.6666666666666</ele><time>2026-04-12T15:18:26.87Z</time></trkpt><trkpt lat="43.7328411" lon="12.1990179"><ele>543.3333333333334</ele><time>2026-04-12T15:18:27.876Z</time></trkpt><trkpt lat="43.7330238" lon="12.1990254"><ele>541.0</ele><time>2026-04-12T15:18:28.867Z</time></trkpt><trkpt lat="43.7332095" lon="12.1991089"><ele>541.0</ele><time>2026-04-12T15:18:29.883Z</time></trkpt><trkpt lat="43.7333874" lon="12.1992158"><ele>541.0</ele><time>2026-04-12T15:18:30.863Z</time></trkpt><trkpt lat="43.7335659" lon="12.1993482"><ele>541.0</ele><time>2026-04-12T15:18:31.865Z</time></trkpt><trkpt lat="43.7337403" lon="12.1994827"><ele>535.3333333333334</ele><time>2026-04-12T15:18:32.873Z</time></trkpt><trkpt lat="43.7339298" lon="12.1995674"><ele>529.6666666666666</ele><time>2026-04-12T15:18:33.867Z</time></trkpt><trkpt lat="43.734132" lon="12.1995944"><ele>524.0</ele><time>2026-04-12T15:18:34.882Z</time></trkpt><trkpt lat="43.7343361" lon="12.1996068"><ele>516.6666666666666</ele><time>2026-04-12T15:18:35.867Z</time></trkpt><trkpt lat="43.7345367" lon="12.1996325"><ele>509.33333333333337</ele><time>2026-04-12T15:18:36.876Z</time></trkpt><trkpt lat="43.7347363" lon="12.1996908"><ele>502.0</ele><time>2026-04-12T15:18:37.87Z</time></trkpt><trkpt lat="43.7349301" lon="12.1997871"><ele>507.0</ele><time>2026-04-12T15:18:38.875Z</time></trkpt><trkpt lat="43.7351184" lon="12.1999142"><ele>512.0</ele><time>2026-04-12T15:18:39.881Z</time></trkpt><trkpt lat="43.7352964" lon="12.2000631"><ele>517.0</ele><time>2026-04-12T15:18:40.872Z</time></trkpt><trkpt lat="43.7354639" lon="12.2002016"><ele>517.0</ele><time>2026-04-12T15:18:41.899Z</time></trkpt><trkpt lat="43.7356172" lon="12.2003284"><ele>517.0</ele><time>2026-04-12T15:18:42.884Z</time></trkpt><trkpt lat="43.7357505" lon="12.200469"><ele>517.0</ele><time>2026-04-12T15:18:43.884Z</time></trkpt><trkpt lat="43.7358471" lon="12.2006315"><ele>523.3333333333334</ele><time>2026-04-12T15:18:44.894Z</time></trkpt><trkpt lat="43.7359061" lon="12.2008385"><ele>529.6666666666666</ele><time>2026-04-12T15:18:45.865Z</time></trkpt><trkpt lat="43.7359067" lon="12.2010785"><ele>536.0</ele><time>2026-04-12T15:18:46.873Z</time></trkpt><trkpt lat="43.7359016" lon="12.2012828"><ele>536.0</ele><time>2026-04-12T15:18:47.882Z</time></trkpt><trkpt lat="43.7359199" lon="12.2014576"><ele>536.0</ele><time>2026-04-12T15:18:48.876Z</time></trkpt><trkpt lat="43.7359889" lon="12.2015967"><ele>536.0</ele><time>2026-04-12T15:18:49.941Z</time></trkpt><trkpt lat="43.7361015" lon="12.2016987"><ele>536.0</ele><time>2026-04-12T15:18:50.878Z</time></trkpt><trkpt lat="43.7362543" lon="12.2017525"><ele>537.3333333333333</ele><time>2026-04-12T15:18:51.868Z</time></trkpt><trkpt lat="43.7364412" lon="12.2017608"><ele>538.6666666666666</ele><time>2026-04-12T15:18:52.871Z</time></trkpt><trkpt lat="43.7366226" lon="12.2017155"><ele>540.0</ele><time>2026-04-12T15:18:53.871Z</time></trkpt><trkpt lat="43.7368112" lon="12.201633"><ele>545.3333333333334</ele><time>2026-04-12T15:18:54.877Z</time></trkpt><trkpt lat="43.7370013" lon="12.2015267"><ele>550.6666666666667</ele><time>2026-04-12T15:18:55.879Z</time></trkpt><trkpt lat="43.7371923" lon="12.2014055"><ele>556.0</ele><time>2026-04-12T15:18:56.871Z</time></trkpt><trkpt lat="43.73739" lon="12.2012773"><ele>547.3333333333334</ele><time>2026-04-12T15:18:57.879Z</time></trkpt><trkpt lat="43.7375881" lon="12.2011427"><ele>538.6666666666666</ele><time>2026-04-12T15:18:58.875Z</time></trkpt><trkpt lat="43.7377694" lon="12.2010029"><ele>530.0</ele><time>2026-04-12T15:18:59.89Z</time></trkpt><trkpt lat="43.7379171" lon="12.2008428"><ele>530.0</ele><time>2026-04-12T15:19:00.873Z</time></trkpt><trkpt lat="43.7380429" lon="12.2006899"><ele>530.0</ele><time>2026-04-12T15:19:01.942Z</time></trkpt><trkpt lat="43.7381512" lon="12.2005745"><ele>530.0</ele><time>2026-04-12T15:19:02.863Z</time></trkpt><trkpt lat="43.7382722" lon="12.200531"><ele>530.0</ele><time>2026-04-12T15:19:03.865Z</time></trkpt><trkpt lat="43.7384111" lon="12.2005681"><ele>520.3333333333333</ele><time>2026-04-12T15:19:04.878Z</time></trkpt><trkpt lat="43.7385527" lon="12.2006698"><ele>510.66666666666663</ele><time>2026-04-12T15:19:05.88Z</time></trkpt><trkpt lat="43.738668" lon="12.2008286"><ele>501.0</ele><time>2026-04-12T15:19:06.876Z</time></trkpt><trkpt lat="43.7387628" lon="12.2010288"><ele>501.0</ele><time>2026-04-12T15:19:07.89Z</time></trkpt><trkpt lat="43.7388193" lon="12.2012591"><ele>501.0</ele><time>2026-04-12T15:19:08.891Z</time></trkpt><trkpt lat="43.7388385" lon="12.2014647"><ele>501.0</ele><time>2026-04-12T15:19:09.895Z</time></trkpt><trkpt lat="43.7388677" lon="12.2016418"><ele>507.5</ele><time>2026-04-12T15:19:10.875Z</time></trkpt><trkpt lat="43.7389265" lon="12.2017621"><ele>514.0</ele><time>2026-04-12T15:19:11.878Z</time></trkpt><trkpt lat="43.7390293" lon="12.2018293"><ele>520.5</ele><time>2026-04-12T15:19:12.876Z</time></trkpt><trkpt lat="43.739168" lon="12.2018408"><ele>527.0</ele><time>2026-04-12T15:19:13.958Z</time></trkpt><trkpt lat="43.7393335" lon="12.201832"><ele>523.6666666666666</ele><time>2026-04-12T15:19:14.944Z</time></trkpt><trkpt lat="43.7395116" lon="12.2018095"><ele>520.3333333333334</ele><time>2026-04-12T15:19:15.882Z</time></trkpt><trkpt lat="43.7396985" lon="12.2017775"><ele>517.0</ele><time>2026-04-12T15:19:16.867Z</time></trkpt><trkpt lat="43.7398889" lon="12.2017409"><ele>517.0</ele><time>2026-04-12T15:19:17.881Z</time></trkpt><trkpt lat="43.7400884" lon="12.2016949"><ele>517.0</ele><time>2026-04-12T15:19:18.88Z</time></trkpt><trkpt lat="43.7402955" lon="12.2016519"><ele>517.0</ele><time>2026-04-12T15:19:19.878Z</time></trkpt><trkpt lat="43.7404929" lon="12.2016177"><ele>514.0</ele><time>2026-04-12T15:19:20.887Z</time></trkpt><trkpt lat="43.7406743" lon="12.2015881"><ele>511.0</ele><time>2026-04-12T15:19:21.873Z</time></trkpt><trkpt lat="43.7408357" lon="12.2015613"><ele>508.0</ele><time>2026-04-12T15:19:22.876Z</time></trkpt><trkpt lat="43.7409772" lon="12.201542"><ele>503.25</ele><time>2026-04-12T15:19:23.88Z</time></trkpt><trkpt lat="43.7411007" lon="12.2015547"><ele>498.5</ele><time>2026-04-12T15:19:24.89Z</time></trkpt><trkpt lat="43.7412053" lon="12.2016274"><ele>493.75</ele><time>2026-04-12T15:19:25.958Z</time></trkpt><trkpt lat="43.7412835" lon="12.2017939"><ele>489.0</ele><time>2026-04-12T15:19:26.873Z</time></trkpt><trkpt lat="43.7413002" lon="12.2020436"><ele>489.0</ele><time>2026-04-12T15:19:27.867Z</time></trkpt><trkpt lat="43.741327" lon="12.202286"><ele>489.0</ele><time>2026-04-12T15:19:28.891Z</time></trkpt><trkpt lat="43.7413781" lon="12.2024935"><ele>489.0</ele><time>2026-04-12T15:19:29.88Z</time></trkpt><trkpt lat="43.7414599" lon="12.2026609"><ele>491.75</ele><time>2026-04-12T15:19:30.884Z</time></trkpt><trkpt lat="43.7415621" lon="12.2027778"><ele>494.5</ele><time>2026-04-12T15:19:31.862Z</time></trkpt><trkpt lat="43.7416838" lon="12.2028424"><ele>497.25</ele><time>2026-04-12T15:19:32.891Z</time></trkpt><trkpt lat="43.7418001" lon="12.2028433"><ele>500.0</ele><time>2026-04-12T15:19:33.872Z</time></trkpt><trkpt lat="43.7418916" lon="12.202799"><ele>497.0</ele><time>2026-04-12T15:19:34.876Z</time></trkpt><trkpt lat="43.7419675" lon="12.2026776"><ele>494.0</ele><time>2026-04-12T15:19:35.875Z</time></trkpt><trkpt lat="43.7420199" lon="12.2025057"><ele>491.0</ele><time>2026-04-12T15:19:36.871Z</time></trkpt><trkpt lat="43.7420631" lon="12.2023114"><ele>488.0</ele><time>2026-04-12T15:19:37.972Z</time></trkpt><trkpt lat="43.7421112" lon="12.2021279"><ele>488.0</ele><time>2026-04-12T15:19:38.878Z</time></trkpt><trkpt lat="43.74216" lon="12.2019836"><ele>488.0</ele><time>2026-04-12T15:19:39.895Z</time></trkpt><trkpt lat="43.742235" lon="12.2018852"><ele>488.0</ele><time>2026-04-12T15:19:40.965Z</time></trkpt><trkpt lat="43.742335" lon="12.2018039"><ele>488.0</ele><time>2026-04-12T15:19:41.866Z</time></trkpt><trkpt lat="43.7424673" lon="12.201812"><ele>488.0</ele><time>2026-04-12T15:19:42.903Z</time></trkpt><trkpt lat="43.7425943" lon="12.2018846"><ele>488.0</ele><time>2026-04-12T15:19:43.874Z</time></trkpt><trkpt lat="43.7427427" lon="12.2019576"><ele>488.0</ele><time>2026-04-12T15:19:44.883Z</time></trkpt><trkpt lat="43.7429205" lon="12.2020087"><ele>486.66666666666663</ele><time>2026-04-12T15:19:45.871Z</time></trkpt><trkpt lat="43.7431076" lon="12.2020399"><ele>485.33333333333337</ele><time>2026-04-12T15:19:46.871Z</time></trkpt><trkpt lat="43.7432962" lon="12.2020565"><ele>484.0</ele><time>2026-04-12T15:19:47.878Z</time></trkpt><trkpt lat="43.7434727" lon="12.2020591"><ele>486.33333333333337</ele><time>2026-04-12T15:19:48.874Z</time></trkpt><trkpt lat="43.7436323" lon="12.2020416"><ele>488.66666666666663</ele><time>2026-04-12T15:19:49.955Z</time></trkpt><trkpt lat="43.743781" lon="12.2019885"><ele>491.0</ele><time>2026-04-12T15:19:50.878Z</time></trkpt><trkpt lat="43.743905" lon="12.2018959"><ele>491.0</ele><time>2026-04-12T15:19:51.881Z</time></trkpt><trkpt lat="43.744006" lon="12.2017651"><ele>491.0</ele><time>2026-04-12T15:19:52.955Z</time></trkpt><trkpt lat="43.7441" lon="12.2016045"><ele>491.0</ele><time>2026-04-12T15:19:53.966Z</time></trkpt><trkpt lat="43.7442037" lon="12.2014447"><ele>491.0</ele><time>2026-04-12T15:19:54.887Z</time></trkpt><trkpt lat="43.7443042" lon="12.2012736"><ele>492.0</ele><time>2026-04-12T15:19:55.878Z</time></trkpt><trkpt lat="43.744409" lon="12.2010835"><ele>493.0</ele><time>2026-04-12T15:19:56.895Z</time></trkpt><trkpt lat="43.7445042" lon="12.2008582"><ele>494.0</ele><time>2026-04-12T15:19:57.872Z</time></trkpt><trkpt lat="43.7445954" lon="12.2006236"><ele>494.0</ele><time>2026-04-12T15:19:58.872Z</time></trkpt><trkpt lat="43.7446877" lon="12.2003734"><ele>494.0</ele><time>2026-04-12T15:19:59.866Z</time></trkpt><trkpt lat="43.744791" lon="12.2001138"><ele>494.0</ele><time>2026-04-12T15:20:00.857Z</time></trkpt><trkpt lat="43.7449136" lon="12.1998682"><ele>497.3333333333333</ele><time>2026-04-12T15:20:01.95Z</time></trkpt><trkpt lat="43.745053" lon="12.1996409"><ele>500.66666666666663</ele><time>2026-04-12T15:20:02.867Z</time></trkpt><trkpt lat="43.7452083" lon="12.199419"><ele>504.0</ele><time>2026-04-12T15:20:03.883Z</time></trkpt><trkpt lat="43.7453686" lon="12.199205"><ele>497.0</ele><time>2026-04-12T15:20:04.872Z</time></trkpt><trkpt lat="43.7455249" lon="12.1989932"><ele>490.0</ele><time>2026-04-12T15:20:05.883Z</time></trkpt><trkpt lat="43.7456841" lon="12.1987879"><ele>483.0</ele><time>2026-04-12T15:20:06.874Z</time></trkpt><trkpt lat="43.7458469" lon="12.1985985"><ele>483.0</ele><time>2026-04-12T15:20:07.877Z</time></trkpt><trkpt lat="43.7460206" lon="12.1984272"><ele>483.0</ele><time>2026-04-12T15:20:08.877Z</time></trkpt><trkpt lat="43.7462055" lon="12.1982839"><ele>483.0</ele><time>2026-04-12T15:20:09.864Z</time></trkpt><trkpt lat="43.7463923" lon="12.1981618"><ele>481.33333333333337</ele><time>2026-04-12T15:20:10.878Z</time></trkpt><trkpt lat="43.7465749" lon="12.1980545"><ele>479.6666666666667</ele><time>2026-04-12T15:20:11.878Z</time></trkpt><trkpt lat="43.7467406" lon="12.1979494"><ele>478.0</ele><time>2026-04-12T15:20:12.885Z</time></trkpt><trkpt lat="43.746905" lon="12.1978529"><ele>478.0</ele><time>2026-04-12T15:20:13.865Z</time></trkpt><trkpt lat="43.7470776" lon="12.1977837"><ele>478.0</ele><time>2026-04-12T15:20:14.874Z</time></trkpt><trkpt lat="43.7472719" lon="12.1977933"><ele>478.0</ele><time>2026-04-12T15:20:15.877Z</time></trkpt><trkpt lat="43.747468" lon="12.1978715"><ele>478.0</ele><time>2026-04-12T15:20:16.873Z</time></trkpt><trkpt lat="43.7476624" lon="12.1979591"><ele>478.0</ele><time>2026-04-12T15:20:17.889Z</time></trkpt><trkpt lat="43.747849" lon="12.1980628"><ele>478.0</ele><time>2026-04-12T15:20:18.882Z</time></trkpt><trkpt lat="43.748021" lon="12.1981905"><ele>481.33333333333337</ele><time>2026-04-12T15:20:19.878Z</time></trkpt><trkpt lat="43.7481592" lon="12.1983627"><ele>484.66666666666663</ele><time>2026-04-12T15:20:20.885Z</time></trkpt><trkpt lat="43.7482809" lon="12.1985785"><ele>488.0</ele><time>2026-04-12T15:20:21.874Z</time></trkpt><trkpt lat="43.7484097" lon="12.1988003"><ele>492.66666666666663</ele><time>2026-04-12T15:20:22.896Z</time></trkpt><trkpt lat="43.7485407" lon="12.1990013"><ele>497.33333333333337</ele><time>2026-04-12T15:20:23.887Z</time></trkpt><trkpt lat="43.7486896" lon="12.1991616"><ele>502.0</ele><time>2026-04-12T15:20:24.878Z</time></trkpt><trkpt lat="43.7488655" lon="12.1992618"><ele>502.0</ele><time>2026-04-12T15:20:25.885Z</time></trkpt><trkpt lat="43.7490449" lon="12.1993152"><ele>502.0</ele><time>2026-04-12T15:20:26.881Z</time></trkpt><trkpt lat="43.7492287" lon="12.1993302"><ele>502.0</ele><time>2026-04-12T15:20:27.875Z</time></trkpt><trkpt lat="43.7494228" lon="12.199323"><ele>500.6666666666667</ele><time>2026-04-12T15:20:28.866Z</time></trkpt><trkpt lat="43.749621" lon="12.1993019"><ele>499.33333333333337</ele><time>2026-04-12T15:20:29.873Z</time></trkpt><trkpt lat="43.7498213" lon="12.1992696"><ele>498.0</ele><time>2026-04-12T15:20:30.877Z</time></trkpt><trkpt lat="43.7500235" lon="12.1992319"><ele>502.33333333333337</ele><time>2026-04-12T15:20:31.881Z</time></trkpt><trkpt lat="43.750219" lon="12.1991722"><ele>506.6666666666667</ele><time>2026-04-12T15:20:32.872Z</time></trkpt><trkpt lat="43.7504011" lon="12.1990959"><ele>511.0</ele><time>2026-04-12T15:20:33.863Z</time></trkpt><trkpt lat="43.7505716" lon="12.1990134"><ele>503.0</ele><time>2026-04-12T15:20:34.88Z</time></trkpt><trkpt lat="43.7507293" lon="12.1989053"><ele>495.0</ele><time>2026-04-12T15:20:35.89Z</time></trkpt><trkpt lat="43.7508682" lon="12.1987617"><ele>487.0</ele><time>2026-04-12T15:20:36.87Z</time></trkpt><trkpt lat="43.7509898" lon="12.1985779"><ele>487.0</ele><time>2026-04-12T15:20:37.863Z</time></trkpt><trkpt lat="43.7511041" lon="12.198387"><ele>487.0</ele><time>2026-04-12T15:20:38.875Z</time></trkpt><trkpt lat="43.7512346" lon="12.1982074"><ele>487.0</ele><time>2026-04-12T15:20:39.874Z</time></trkpt><trkpt lat="43.7513866" lon="12.1980502"><ele>487.0</ele><time>2026-04-12T15:20:40.873Z</time></trkpt><trkpt lat="43.751559" lon="12.1979313"><ele>487.0</ele><time>2026-04-12T15:20:41.871Z</time></trkpt><trkpt lat="43.7517489" lon="12.1978571"><ele>487.0</ele><time>2026-04-12T15:20:42.958Z</time></trkpt><trkpt lat="43.7519488" lon="12.1978491"><ele>488.33333333333337</ele><time>2026-04-12T15:20:43.883Z</time></trkpt><trkpt lat="43.7521518" lon="12.1978784"><ele>489.66666666666663</ele><time>2026-04-12T15:20:44.89Z</time></trkpt><trkpt lat="43.752339" lon="12.1979313"><ele>491.0</ele><time>2026-04-12T15:20:45.881Z</time></trkpt><trkpt lat="43.7525218" lon="12.1979367"><ele>491.0</ele><time>2026-04-12T15:20:46.886Z</time></trkpt><trkpt lat="43.7527055" lon="12.1978889"><ele>491.0</ele><time>2026-04-12T15:20:47.885Z</time></trkpt><trkpt lat="43.7528707" lon="12.1977938"><ele>491.0</ele><time>2026-04-12T15:20:48.886Z</time></trkpt><trkpt lat="43.7530285" lon="12.1976552"><ele>494.0</ele><time>2026-04-12T15:20:49.876Z</time></trkpt><trkpt lat="43.7531774" lon="12.1974733"><ele>497.0</ele><time>2026-04-12T15:20:50.893Z</time></trkpt><trkpt lat="43.7533284" lon="12.1973108"><ele>500.0</ele><time>2026-04-12T15:20:51.886Z</time></trkpt><trkpt lat="43.7534963" lon="12.1971744"><ele>493.0</ele><time>2026-04-12T15:20:52.963Z</time></trkpt><trkpt lat="43.7536858" lon="12.1970715"><ele>486.0</ele><time>2026-04-12T15:20:53.89Z</time></trkpt><trkpt lat="43.7538771" lon="12.1970401"><ele>479.0</ele><time>2026-04-12T15:20:54.889Z</time></trkpt><trkpt lat="43.7540699" lon="12.1970831"><ele>479.0</ele><time>2026-04-12T15:20:55.874Z</time></trkpt><trkpt lat="43.7542623" lon="12.1971582"><ele>479.0</ele><time>2026-04-12T15:20:56.872Z</time></trkpt><trkpt lat="43.7544479" lon="12.1972584"><ele>479.0</ele><time>2026-04-12T15:20:57.879Z</time></trkpt><trkpt lat="43.7546222" lon="12.1973286"><ele>482.0</ele><time>2026-04-12T15:20:58.873Z</time></trkpt><trkpt lat="43.7548023" lon="12.1973413"><ele>485.0</ele><time>2026-04-12T15:20:59.889Z</time></trkpt><trkpt lat="43.7549851" lon="12.1972807"><ele>488.0</ele><time>2026-04-12T15:21:00.881Z</time></trkpt><trkpt lat="43.7551558" lon="12.1971515"><ele>494.66666666666663</ele><time>2026-04-12T15:21:01.87Z</time></trkpt><trkpt lat="43.7553171" lon="12.1969695"><ele>501.33333333333337</ele><time>2026-04-12T15:21:02.896Z</time></trkpt><trkpt lat="43.755466" lon="12.1967514"><ele>508.0</ele><time>2026-04-12T15:21:03.962Z</time></trkpt><trkpt lat="43.7556158" lon="12.1965293"><ele>501.6666666666667</ele><time>2026-04-12T15:21:04.871Z</time></trkpt><trkpt lat="43.7557708" lon="12.1963095"><ele>495.33333333333337</ele><time>2026-04-12T15:21:05.883Z</time></trkpt><trkpt lat="43.7559159" lon="12.1961043"><ele>489.0</ele><time>2026-04-12T15:21:06.89Z</time></trkpt><trkpt lat="43.7560514" lon="12.1959241"><ele>489.0</ele><time>2026-04-12T15:21:07.872Z</time></trkpt><trkpt lat="43.7561798" lon="12.1957611"><ele>489.0</ele><time>2026-04-12T15:21:08.902Z</time></trkpt><trkpt lat="43.7563116" lon="12.1956257"><ele>489.0</ele><time>2026-04-12T15:21:09.88Z</time></trkpt><trkpt lat="43.7564685" lon="12.195533"><ele>483.66666666666663</ele><time>2026-04-12T15:21:10.888Z</time></trkpt><trkpt lat="43.7566381" lon="12.1955051"><ele>478.3333333333333</ele><time>2026-04-12T15:21:11.87Z</time></trkpt><trkpt lat="43.7567786" lon="12.1955915"><ele>473.0</ele><time>2026-04-12T15:21:12.875Z</time></trkpt><trkpt lat="43.7569106" lon="12.1957514"><ele>473.0</ele><time>2026-04-12T15:21:13.875Z</time></trkpt><trkpt lat="43.7570303" lon="12.1959553"><ele>473.0</ele><time>2026-04-12T15:21:14.884Z</time></trkpt><trkpt lat="43.7570885" lon="12.1962014"><ele>473.0</ele><time>2026-04-12T15:21:15.889Z</time></trkpt><trkpt lat="43.7571355" lon="12.1964636"><ele>475.66666666666663</ele><time>2026-04-12T15:21:16.879Z</time></trkpt><trkpt lat="43.7572011" lon="12.1967062"><ele>478.33333333333337</ele><time>2026-04-12T15:21:17.881Z</time></trkpt><trkpt lat="43.7572878" lon="12.1969287"><ele>481.0</ele><time>2026-04-12T15:21:18.882Z</time></trkpt><trkpt lat="43.7574109" lon="12.1971085"><ele>481.0</ele><time>2026-04-12T15:21:19.875Z</time></trkpt><trkpt lat="43.7575736" lon="12.1972302"><ele>481.0</ele><time>2026-04-12T15:21:20.898Z</time></trkpt><trkpt lat="43.7577553" lon="12.1973223"><ele>481.0</ele><time>2026-04-12T15:21:21.877Z</time></trkpt><trkpt lat="43.7579267" lon="12.1974343"><ele>478.0</ele><time>2026-04-12T15:21:22.874Z</time></trkpt><trkpt lat="43.7580729" lon="12.1976156"><ele>475.0</ele><time>2026-04-12T15:21:23.888Z</time></trkpt><trkpt lat="43.7581986" lon="12.1978602"><ele>472.0</ele><time>2026-04-12T15:21:24.871Z</time></trkpt><trkpt lat="43.7583213" lon="12.1981126"><ele>480.0</ele><time>2026-04-12T15:21:25.884Z</time></trkpt><trkpt lat="43.7584466" lon="12.1983776"><ele>488.0</ele><time>2026-04-12T15:21:26.884Z</time></trkpt><trkpt lat="43.7585802" lon="12.1986527"><ele>475.5</ele><time>2026-04-12T15:21:27.978Z</time></trkpt><trkpt lat="43.7587173" lon="12.1989184"><ele>463.0</ele><time>2026-04-12T15:21:28.891Z</time></trkpt><trkpt lat="43.7588555" lon="12.1991693"><ele>463.0</ele><time>2026-04-12T15:21:29.899Z</time></trkpt><trkpt lat="43.7589899" lon="12.1994027"><ele>463.0</ele><time>2026-04-12T15:21:30.889Z</time></trkpt><trkpt lat="43.7591403" lon="12.1996141"><ele>463.0</ele><time>2026-04-12T15:21:31.883Z</time></trkpt><trkpt lat="43.7593154" lon="12.1997855"><ele>463.33333333333337</ele><time>2026-04-12T15:21:32.88Z</time></trkpt><trkpt lat="43.7595078" lon="12.199914"><ele>463.66666666666663</ele><time>2026-04-12T15:21:33.865Z</time></trkpt><trkpt lat="43.7597197" lon="12.2000081"><ele>464.0</ele><time>2026-04-12T15:21:34.877Z</time></trkpt><trkpt lat="43.7599491" lon="12.200073"><ele>464.0</ele><time>2026-04-12T15:21:35.882Z</time></trkpt><trkpt lat="43.7601897" lon="12.2001171"><ele>464.0</ele><time>2026-04-12T15:21:36.875Z</time></trkpt><trkpt lat="43.760423" lon="12.2001601"><ele>462.0</ele><time>2026-04-12T15:21:37.885Z</time></trkpt><trkpt lat="43.7606404" lon="12.2001917"><ele>460.0</ele><time>2026-04-12T15:21:38.879Z</time></trkpt><trkpt lat="43.7608377" lon="12.20019"><ele>458.0</ele><time>2026-04-12T15:21:39.889Z</time></trkpt><trkpt lat="43.7610193" lon="12.2001368"><ele>459.0</ele><time>2026-04-12T15:21:40.879Z</time></trkpt><trkpt lat="43.7611786" lon="12.2000179"><ele>460.0</ele><time>2026-04-12T15:21:41.867Z</time></trkpt><trkpt lat="43.7613135" lon="12.1998488"><ele>461.0</ele><time>2026-04-12T15:21:42.868Z</time></trkpt><trkpt lat="43.7614443" lon="12.1997004"><ele>456.0</ele><time>2026-04-12T15:21:43.87Z</time></trkpt><trkpt lat="43.7615944" lon="12.1995826"><ele>451.0</ele><time>2026-04-12T15:21:44.886Z</time></trkpt><trkpt lat="43.7617778" lon="12.1995167"><ele>446.0</ele><time>2026-04-12T15:21:45.875Z</time></trkpt><trkpt lat="43.7619769" lon="12.1995048"><ele>446.0</ele><time>2026-04-12T15:21:46.901Z</time></trkpt><trkpt lat="43.7621775" lon="12.1995233"><ele>446.0</ele><time>2026-04-12T15:21:47.898Z</time></trkpt><trkpt lat="43.7623861" lon="12.1995661"><ele>446.0</ele><time>2026-04-12T15:21:48.879Z</time></trkpt><trkpt lat="43.7625934" lon="12.1995843"><ele>446.66666666666663</ele><time>2026-04-12T15:21:49.876Z</time></trkpt><trkpt lat="43.7627824" lon="12.199548"><ele>447.33333333333337</ele><time>2026-04-12T15:21:50.879Z</time></trkpt><trkpt lat="43.7629652" lon="12.1994866"><ele>448.0</ele><time>2026-04-12T15:21:51.954Z</time></trkpt><trkpt lat="43.7631326" lon="12.199378"><ele>448.0</ele><time>2026-04-12T15:21:52.874Z</time></trkpt><trkpt lat="43.7632989" lon="12.1992259"><ele>448.0</ele><time>2026-04-12T15:21:53.889Z</time></trkpt><trkpt lat="43.7634504" lon="12.1990458"><ele>448.0</ele><time>2026-04-12T15:21:54.869Z</time></trkpt><trkpt lat="43.7635963" lon="12.1988601"><ele>446.6666666666667</ele><time>2026-04-12T15:21:55.88Z</time></trkpt><trkpt lat="43.7637372" lon="12.1986894"><ele>445.33333333333337</ele><time>2026-04-12T15:21:56.88Z</time></trkpt><trkpt lat="43.7638753" lon="12.1985479"><ele>444.0</ele><time>2026-04-12T15:21:57.873Z</time></trkpt><trkpt lat="43.7640237" lon="12.1984349"><ele>444.0</ele><time>2026-04-12T15:21:58.881Z</time></trkpt><trkpt lat="43.7641833" lon="12.1983394"><ele>444.0</ele><time>2026-04-12T15:21:59.873Z</time></trkpt><trkpt lat="43.7643522" lon="12.198294"><ele>444.0</ele><time>2026-04-12T15:22:00.871Z</time></trkpt><trkpt lat="43.7645388" lon="12.1983615"><ele>441.66666666666663</ele><time>2026-04-12T15:22:01.886Z</time></trkpt><trkpt lat="43.7647346" lon="12.1984701"><ele>439.3333333333333</ele><time>2026-04-12T15:22:02.888Z</time></trkpt><trkpt lat="43.7649352" lon="12.1985735"><ele>437.0</ele><time>2026-04-12T15:22:03.87Z</time></trkpt><trkpt lat="43.7651274" lon="12.1986711"><ele>434.3333333333333</ele><time>2026-04-12T15:22:04.957Z</time></trkpt><trkpt lat="43.7653095" lon="12.198758"><ele>431.66666666666663</ele><time>2026-04-12T15:22:05.876Z</time></trkpt><trkpt lat="43.7654705" lon="12.198854"><ele>429.0</ele><time>2026-04-12T15:22:06.88Z</time></trkpt><trkpt lat="43.765608" lon="12.1989781"><ele>430.0</ele><time>2026-04-12T15:22:07.882Z</time></trkpt><trkpt lat="43.7657292" lon="12.1991379"><ele>431.0</ele><time>2026-04-12T15:22:08.877Z</time></trkpt><trkpt lat="43.7658381" lon="12.1993357"><ele>432.0</ele><time>2026-04-12T15:22:09.886Z</time></trkpt><trkpt lat="43.7659377" lon="12.199551"><ele>432.0</ele><time>2026-04-12T15:22:10.882Z</time></trkpt><trkpt lat="43.7660245" lon="12.199755"><ele>432.0</ele><time>2026-04-12T15:22:11.885Z</time></trkpt><trkpt lat="43.7661137" lon="12.1999463"><ele>432.0</ele><time>2026-04-12T15:22:12.876Z</time></trkpt><trkpt lat="43.7661944" lon="12.2001304"><ele>431.75</ele><time>2026-04-12T15:22:13.878Z</time></trkpt><trkpt lat="43.766284" lon="12.2002849"><ele>431.5</ele><time>2026-04-12T15:22:14.88Z</time></trkpt><trkpt lat="43.7663891" lon="12.2003872"><ele>431.25</ele><time>2026-04-12T15:22:15.88Z</time></trkpt><trkpt lat="43.7665245" lon="12.2004527"><ele>431.0</ele><time>2026-04-12T15:22:16.88Z</time></trkpt><trkpt lat="43.7666783" lon="12.2004907"><ele>431.0</ele><time>2026-04-12T15:22:17.898Z</time></trkpt><trkpt lat="43.7668411" lon="12.2005184"><ele>431.0</ele><time>2026-04-12T15:22:18.868Z</time></trkpt><trkpt lat="43.7670168" lon="12.2005358"><ele>431.0</ele><time>2026-04-12T15:22:19.886Z</time></trkpt><trkpt lat="43.7672002" lon="12.2005336"><ele>431.3333333333333</ele><time>2026-04-12T15:22:20.884Z</time></trkpt><trkpt lat="43.7673802" lon="12.200498"><ele>431.66666666666663</ele><time>2026-04-12T15:22:21.879Z</time></trkpt><trkpt lat="43.7675582" lon="12.2004128"><ele>432.0</ele><time>2026-04-12T15:22:22.875Z</time></trkpt><trkpt lat="43.7677307" lon="12.2003136"><ele>432.66666666666663</ele><time>2026-04-12T15:22:23.889Z</time></trkpt><trkpt lat="43.7679073" lon="12.2002199"><ele>433.3333333333333</ele><time>2026-04-12T15:22:24.873Z</time></trkpt><trkpt lat="43.7680935" lon="12.2001491"><ele>434.0</ele><time>2026-04-12T15:22:25.886Z</time></trkpt><trkpt lat="43.7682979" lon="12.2001116"><ele>434.0</ele><time>2026-04-12T15:22:26.873Z</time></trkpt><trkpt lat="43.7685156" lon="12.2001263"><ele>434.0</ele><time>2026-04-12T15:22:27.872Z</time></trkpt><trkpt lat="43.7687307" lon="12.2001768"><ele>434.0</ele><time>2026-04-12T15:22:28.91Z</time></trkpt><trkpt lat="43.7689447" lon="12.2002848"><ele>435.0</ele><time>2026-04-12T15:22:29.888Z</time></trkpt><trkpt lat="43.7691513" lon="12.2004188"><ele>436.0</ele><time>2026-04-12T15:22:30.876Z</time></trkpt><trkpt lat="43.7693369" lon="12.2005574"><ele>437.0</ele><time>2026-04-12T15:22:31.895Z</time></trkpt><trkpt lat="43.7695052" lon="12.2006676"><ele>437.0</ele><time>2026-04-12T15:22:32.885Z</time></trkpt><trkpt lat="43.7696642" lon="12.2007444"><ele>437.0</ele><time>2026-04-12T15:22:33.885Z</time></trkpt><trkpt lat="43.7698192" lon="12.2007565"><ele>437.0</ele><time>2026-04-12T15:22:34.868Z</time></trkpt><trkpt lat="43.7699844" lon="12.2007288"><ele>437.0</ele><time>2026-04-12T15:22:35.885Z</time></trkpt><trkpt lat="43.7701613" lon="12.2006921"><ele>437.0</ele><time>2026-04-12T15:22:36.873Z</time></trkpt><trkpt lat="43.7703476" lon="12.2006714"><ele>437.0</ele><time>2026-04-12T15:22:37.88Z</time></trkpt><trkpt lat="43.770538" lon="12.2006563"><ele>433.3333333333333</ele><time>2026-04-12T15:22:38.883Z</time></trkpt><trkpt lat="43.7707363" lon="12.2006376"><ele>429.66666666666663</ele><time>2026-04-12T15:22:39.879Z</time></trkpt><trkpt lat="43.770939" lon="12.2006641"><ele>426.0</ele><time>2026-04-12T15:22:40.898Z</time></trkpt><trkpt lat="43.7711274" lon="12.200745"><ele>426.0</ele><time>2026-04-12T15:22:41.872Z</time></trkpt><trkpt lat="43.7712914" lon="12.2009008"><ele>426.0</ele><time>2026-04-12T15:22:42.869Z</time></trkpt><trkpt lat="43.7714598" lon="12.2010735"><ele>426.0</ele><time>2026-04-12T15:22:43.887Z</time></trkpt><trkpt lat="43.7716296" lon="12.2012399"><ele>426.0</ele><time>2026-04-12T15:22:44.88Z</time></trkpt><trkpt lat="43.7718222" lon="12.2013609"><ele>426.0</ele><time>2026-04-12T15:22:45.867Z</time></trkpt><trkpt lat="43.7720291" lon="12.2014314"><ele>426.0</ele><time>2026-04-12T15:22:46.906Z</time></trkpt><trkpt lat="43.7722456" lon="12.2014517"><ele>426.0</ele><time>2026-04-12T15:22:47.883Z</time></trkpt><trkpt lat="43.7724544" lon="12.2014272"><ele>426.0</ele><time>2026-04-12T15:22:48.872Z</time></trkpt><trkpt lat="43.7726562" lon="12.2013946"><ele>426.0</ele><time>2026-04-12T15:22:49.896Z</time></trkpt><trkpt lat="43.7728579" lon="12.2013596"><ele>424.66666666666663</ele><time>2026-04-12T15:22:50.875Z</time></trkpt><trkpt lat="43.7730618" lon="12.2013613"><ele>423.3333333333333</ele><time>2026-04-12T15:22:51.871Z</time></trkpt><trkpt lat="43.7732635" lon="12.2014106"><ele>422.0</ele><time>2026-04-12T15:22:52.867Z</time></trkpt><trkpt lat="43.7734596" lon="12.2014798"><ele>424.66666666666663</ele><time>2026-04-12T15:22:53.864Z</time></trkpt><trkpt lat="43.7736615" lon="12.2015705"><ele>427.33333333333337</ele><time>2026-04-12T15:22:54.891Z</time></trkpt><trkpt lat="43.7738554" lon="12.2016907"><ele>430.0</ele><time>2026-04-12T15:22:55.883Z</time></trkpt><trkpt lat="43.7740452" lon="12.2018353"><ele>430.0</ele><time>2026-04-12T15:22:56.888Z</time></trkpt><trkpt lat="43.7742258" lon="12.2019675"><ele>430.0</ele><time>2026-04-12T15:22:57.897Z</time></trkpt><trkpt lat="43.7744099" lon="12.2020564"><ele>430.0</ele><time>2026-04-12T15:22:58.876Z</time></trkpt><trkpt lat="43.7746121" lon="12.2020875"><ele>429.33333333333337</ele><time>2026-04-12T15:22:59.869Z</time></trkpt><trkpt lat="43.7747998" lon="12.2021179"><ele>428.66666666666663</ele><time>2026-04-12T15:23:00.908Z</time></trkpt><trkpt lat="43.7749717" lon="12.2022124"><ele>428.0</ele><time>2026-04-12T15:23:01.884Z</time></trkpt><trkpt lat="43.7751218" lon="12.2023491"><ele>426.3333333333333</ele><time>2026-04-12T15:23:02.885Z</time></trkpt><trkpt lat="43.7752618" lon="12.2025194"><ele>424.66666666666663</ele><time>2026-04-12T15:23:03.882Z</time></trkpt><trkpt lat="43.7754034" lon="12.2027113"><ele>423.0</ele><time>2026-04-12T15:23:04.901Z</time></trkpt><trkpt lat="43.7755599" lon="12.2028812"><ele>423.0</ele><time>2026-04-12T15:23:05.874Z</time></trkpt><trkpt lat="43.7757352" lon="12.2030316"><ele>423.0</ele><time>2026-04-12T15:23:06.885Z</time></trkpt><trkpt lat="43.775925" lon="12.2031759"><ele>423.0</ele><time>2026-04-12T15:23:07.882Z</time></trkpt><trkpt lat="43.7761084" lon="12.2033176"><ele>424.33333333333337</ele><time>2026-04-12T15:23:08.874Z</time></trkpt><trkpt lat="43.7762768" lon="12.2034497"><ele>425.6666666666667</ele><time>2026-04-12T15:23:09.885Z</time></trkpt><trkpt lat="43.7764396" lon="12.2035746"><ele>427.0</ele><time>2026-04-12T15:23:10.878Z</time></trkpt><trkpt lat="43.7765932" lon="12.2036898"><ele>427.0</ele><time>2026-04-12T15:23:11.885Z</time></trkpt><trkpt lat="43.7767323" lon="12.2037989"><ele>427.0</ele><time>2026-04-12T15:23:12.887Z</time></trkpt><trkpt lat="43.7768617" lon="12.2039034"><ele>427.0</ele><time>2026-04-12T15:23:13.878Z</time></trkpt><trkpt lat="43.7769787" lon="12.2039911"><ele>427.0</ele><time>2026-04-12T15:23:14.875Z</time></trkpt><trkpt lat="43.7770858" lon="12.2040729"><ele>427.6</ele><time>2026-04-12T15:23:15.876Z</time></trkpt><trkpt lat="43.777183" lon="12.2041462"><ele>428.20000000000005</ele><time>2026-04-12T15:23:16.883Z</time></trkpt><trkpt lat="43.7772719" lon="12.2042124"><ele>428.8</ele><time>2026-04-12T15:23:17.882Z</time></trkpt><trkpt lat="43.7773682" lon="12.2042801"><ele>429.4</ele><time>2026-04-12T15:23:18.887Z</time></trkpt><trkpt lat="43.7774726" lon="12.2043584"><ele>430.0</ele><time>2026-04-12T15:23:19.889Z</time></trkpt><trkpt lat="43.7775924" lon="12.2044426"><ele>426.6666666666667</ele><time>2026-04-12T15:23:20.89Z</time></trkpt><trkpt lat="43.7777282" lon="12.2045445"><ele>423.33333333333337</ele><time>2026-04-12T15:23:21.878Z</time></trkpt><trkpt lat="43.7778774" lon="12.2046582"><ele>420.0</ele><time>2026-04-12T15:23:22.891Z</time></trkpt><trkpt lat="43.7780404" lon="12.204785"><ele>423.66666666666663</ele><time>2026-04-12T15:23:23.9Z</time></trkpt><trkpt lat="43.7782099" lon="12.2049114"><ele>427.3333333333333</ele><time>2026-04-12T15:23:24.89Z</time></trkpt><trkpt lat="43.7783818" lon="12.2050237"><ele>431.0</ele><time>2026-04-12T15:23:25.87Z</time></trkpt><trkpt lat="43.7785494" lon="12.2051055"><ele>431.0</ele><time>2026-04-12T15:23:26.891Z</time></trkpt><trkpt lat="43.778729" lon="12.2051365"><ele>431.0</ele><time>2026-04-12T15:23:27.896Z</time></trkpt><trkpt lat="43.778923" lon="12.2051121"><ele>431.0</ele><time>2026-04-12T15:23:28.887Z</time></trkpt><trkpt lat="43.7791211" lon="12.2050508"><ele>431.0</ele><time>2026-04-12T15:23:29.886Z</time></trkpt><trkpt lat="43.7793206" lon="12.2050083"><ele>431.0</ele><time>2026-04-12T15:23:30.905Z</time></trkpt><trkpt lat="43.7795109" lon="12.2050132"><ele>431.0</ele><time>2026-04-12T15:23:31.904Z</time></trkpt><trkpt lat="43.7796897" lon="12.2050822"><ele>426.66666666666663</ele><time>2026-04-12T15:23:32.883Z</time></trkpt><trkpt lat="43.7798599" lon="12.2051765"><ele>422.33333333333337</ele><time>2026-04-12T15:23:33.985Z</time></trkpt><trkpt lat="43.7800029" lon="12.2053013"><ele>418.0</ele><time>2026-04-12T15:23:34.903Z</time></trkpt><trkpt lat="43.7801151" lon="12.2054373"><ele>415.6666666666667</ele><time>2026-04-12T15:23:35.901Z</time></trkpt><trkpt lat="43.7801916" lon="12.2055987"><ele>413.33333333333337</ele><time>2026-04-12T15:23:36.914Z</time></trkpt><trkpt lat="43.7802202" lon="12.205794"><ele>411.0</ele><time>2026-04-12T15:23:37.898Z</time></trkpt><trkpt lat="43.7802446" lon="12.2060252"><ele>411.0</ele><time>2026-04-12T15:23:38.907Z</time></trkpt><trkpt lat="43.7803068" lon="12.2062928"><ele>411.0</ele><time>2026-04-12T15:23:39.907Z</time></trkpt><trkpt lat="43.7804128" lon="12.2065544"><ele>411.0</ele><time>2026-04-12T15:23:40.895Z</time></trkpt><trkpt lat="43.780541" lon="12.206809"><ele>414.0</ele><time>2026-04-12T15:23:41.905Z</time></trkpt><trkpt lat="43.7806717" lon="12.2070633"><ele>417.0</ele><time>2026-04-12T15:23:42.902Z</time></trkpt><trkpt lat="43.7808127" lon="12.2073117"><ele>413.0</ele><time>2026-04-12T15:23:43.896Z</time></trkpt><trkpt lat="43.7809463" lon="12.2075345"><ele>409.0</ele><time>2026-04-12T15:23:44.914Z</time></trkpt><trkpt lat="43.7810764" lon="12.2077449"><ele>405.0</ele><time>2026-04-12T15:23:45.883Z</time></trkpt><trkpt lat="43.7811979" lon="12.207937"><ele>405.0</ele><time>2026-04-12T15:23:46.901Z</time></trkpt><trkpt lat="43.7813133" lon="12.2081262"><ele>405.0</ele><time>2026-04-12T15:23:47.994Z</time></trkpt><trkpt lat="43.7814099" lon="12.2083125"><ele>405.0</ele><time>2026-04-12T15:23:48.91Z</time></trkpt><trkpt lat="43.7814919" lon="12.2085027"><ele>407.33333333333337</ele><time>2026-04-12T15:23:49.907Z</time></trkpt><trkpt lat="43.7815453" lon="12.2087196"><ele>409.6666666666667</ele><time>2026-04-12T15:23:50.91Z</time></trkpt><trkpt lat="43.7815869" lon="12.2089595"><ele>412.0</ele><time>2026-04-12T15:23:51.887Z</time></trkpt><trkpt lat="43.781624" lon="12.2092185"><ele>412.0</ele><time>2026-04-12T15:23:52.902Z</time></trkpt><trkpt lat="43.7816574" lon="12.2094813"><ele>412.0</ele><time>2026-04-12T15:23:53.894Z</time></trkpt><trkpt lat="43.7816879" lon="12.2097239"><ele>412.0</ele><time>2026-04-12T15:23:54.919Z</time></trkpt><trkpt lat="43.7817179" lon="12.2099453"><ele>412.0</ele><time>2026-04-12T15:23:55.901Z</time></trkpt><trkpt lat="43.7817555" lon="12.210158"><ele>412.0</ele><time>2026-04-12T15:23:56.906Z</time></trkpt><trkpt lat="43.7818229" lon="12.2103488"><ele>412.0</ele><time>2026-04-12T15:23:57.906Z</time></trkpt><trkpt lat="43.7819239" lon="12.210464"><ele>412.0</ele><time>2026-04-12T15:23:58.896Z</time></trkpt><trkpt lat="43.7820641" lon="12.2105329"><ele>412.0</ele><time>2026-04-12T15:23:59.892Z</time></trkpt><trkpt lat="43.7822193" lon="12.2105566"><ele>412.0</ele><time>2026-04-12T15:24:00.898Z</time></trkpt><trkpt lat="43.7823924" lon="12.2105725"><ele>412.0</ele><time>2026-04-12T15:24:01.902Z</time></trkpt><trkpt lat="43.782582" lon="12.2105877"><ele>412.0</ele><time>2026-04-12T15:24:02.91Z</time></trkpt><trkpt lat="43.782786" lon="12.210612"><ele>412.0</ele><time>2026-04-12T15:24:03.907Z</time></trkpt><trkpt lat="43.7829862" lon="12.2106524"><ele>412.0</ele><time>2026-04-12T15:24:04.887Z</time></trkpt><trkpt lat="43.7831863" lon="12.2107111"><ele>415.0</ele><time>2026-04-12T15:24:05.914Z</time></trkpt><trkpt lat="43.7833942" lon="12.2107858"><ele>418.0</ele><time>2026-04-12T15:24:06.892Z</time></trkpt><trkpt lat="43.783605" lon="12.210865"><ele>421.0</ele><time>2026-04-12T15:24:07.915Z</time></trkpt><trkpt lat="43.7838138" lon="12.2109507"><ele>421.0</ele><time>2026-04-12T15:24:08.902Z</time></trkpt><trkpt lat="43.7840104" lon="12.2110333"><ele>421.0</ele><time>2026-04-12T15:24:09.915Z</time></trkpt><trkpt lat="43.7841945" lon="12.2111058"><ele>421.0</ele><time>2026-04-12T15:24:10.905Z</time></trkpt><trkpt lat="43.7843708" lon="12.2111511"><ele>422.6666666666667</ele><time>2026-04-12T15:24:11.912Z</time></trkpt><trkpt lat="43.7845337" lon="12.2111397"><ele>424.33333333333337</ele><time>2026-04-12T15:24:12.911Z</time></trkpt><trkpt lat="43.7846859" lon="12.2110695"><ele>426.0</ele><time>2026-04-12T15:24:13.892Z</time></trkpt><trkpt lat="43.7848103" lon="12.2109585"><ele>426.0</ele><time>2026-04-12T15:24:14.902Z</time></trkpt><trkpt lat="43.7848913" lon="12.2108038"><ele>426.0</ele><time>2026-04-12T15:24:15.899Z</time></trkpt><trkpt lat="43.7849456" lon="12.2106045"><ele>426.0</ele><time>2026-04-12T15:24:16.904Z</time></trkpt><trkpt lat="43.7849947" lon="12.2104008"><ele>426.0</ele><time>2026-04-12T15:24:17.903Z</time></trkpt><trkpt lat="43.7850542" lon="12.2102041"><ele>426.0</ele><time>2026-04-12T15:24:18.986Z</time></trkpt><trkpt lat="43.7851465" lon="12.2100509"><ele>426.0</ele><time>2026-04-12T15:24:19.902Z</time></trkpt><trkpt lat="43.7852925" lon="12.2099723"><ele>426.0</ele><time>2026-04-12T15:24:20.913Z</time></trkpt><trkpt lat="43.78547" lon="12.2099536"><ele>426.0</ele><time>2026-04-12T15:24:21.892Z</time></trkpt><trkpt lat="43.7856629" lon="12.2099598"><ele>426.0</ele><time>2026-04-12T15:24:22.919Z</time></trkpt><trkpt lat="43.7858635" lon="12.2099836"><ele>426.0</ele><time>2026-04-12T15:24:23.916Z</time></trkpt><trkpt lat="43.7860522" lon="12.2100427"><ele>427.33333333333337</ele><time>2026-04-12T15:24:24.902Z</time></trkpt><trkpt lat="43.7862404" lon="12.2100997"><ele>428.6666666666667</ele><time>2026-04-12T15:24:25.916Z</time></trkpt><trkpt lat="43.7864354" lon="12.2101359"><ele>430.0</ele><time>2026-04-12T15:24:26.907Z</time></trkpt><trkpt lat="43.786639" lon="12.210123"><ele>430.0</ele><time>2026-04-12T15:24:27.898Z</time></trkpt><trkpt lat="43.7868206" lon="12.2100565"><ele>430.0</ele><time>2026-04-12T15:24:28.91Z</time></trkpt><trkpt lat="43.7869703" lon="12.2099544"><ele>430.0</ele><time>2026-04-12T15:24:29.904Z</time></trkpt><trkpt lat="43.7871242" lon="12.2098897"><ele>428.6666666666667</ele><time>2026-04-12T15:24:30.904Z</time></trkpt><trkpt lat="43.7872759" lon="12.2098769"><ele>427.33333333333337</ele><time>2026-04-12T15:24:31.903Z</time></trkpt><trkpt lat="43.7874285" lon="12.2099253"><ele>426.0</ele><time>2026-04-12T15:24:32.902Z</time></trkpt><trkpt lat="43.7875641" lon="12.2100414"><ele>425.5</ele><time>2026-04-12T15:24:33.914Z</time></trkpt><trkpt lat="43.7876896" lon="12.2101611"><ele>425.0</ele><time>2026-04-12T15:24:34.922Z</time></trkpt><trkpt lat="43.7878054" lon="12.21027"><ele>424.5</ele><time>2026-04-12T15:24:35.908Z</time></trkpt><trkpt lat="43.7879142" lon="12.2103711"><ele>424.0</ele><time>2026-04-12T15:24:36.908Z</time></trkpt><trkpt lat="43.7880234" lon="12.2104505"><ele>424.0</ele><time>2026-04-12T15:24:37.906Z</time></trkpt><trkpt lat="43.7881376" lon="12.210513"><ele>424.0</ele><time>2026-04-12T15:24:38.901Z</time></trkpt><trkpt lat="43.7882633" lon="12.2105536"><ele>424.0</ele><time>2026-04-12T15:24:39.91Z</time></trkpt><trkpt lat="43.7883881" lon="12.2105613"><ele>424.0</ele><time>2026-04-12T15:24:40.908Z</time></trkpt><trkpt lat="43.7885135" lon="12.2105265"><ele>426.75</ele><time>2026-04-12T15:24:41.897Z</time></trkpt><trkpt lat="43.7886368" lon="12.2104526"><ele>429.5</ele><time>2026-04-12T15:24:42.911Z</time></trkpt><trkpt lat="43.7887582" lon="12.2103508"><ele>432.25</ele><time>2026-04-12T15:24:43.906Z</time></trkpt><trkpt lat="43.7888731" lon="12.2102345"><ele>435.0</ele><time>2026-04-12T15:24:44.903Z</time></trkpt><trkpt lat="43.7889877" lon="12.2101178"><ele>435.0</ele><time>2026-04-12T15:24:45.918Z</time></trkpt><trkpt lat="43.789091" lon="12.2100116"><ele>435.0</ele><time>2026-04-12T15:24:46.906Z</time></trkpt><trkpt lat="43.7891991" lon="12.2099168"><ele>435.0</ele><time>2026-04-12T15:24:47.894Z</time></trkpt><trkpt lat="43.7893104" lon="12.2098319"><ele>435.0</ele><time>2026-04-12T15:24:48.907Z</time></trkpt><trkpt lat="43.7894329" lon="12.2097657"><ele>432.25</ele><time>2026-04-12T15:24:49.905Z</time></trkpt><trkpt lat="43.7895643" lon="12.2097149"><ele>429.5</ele><time>2026-04-12T15:24:50.907Z</time></trkpt><trkpt lat="43.7896969" lon="12.2096721"><ele>426.75</ele><time>2026-04-12T15:24:51.904Z</time></trkpt><trkpt lat="43.7898362" lon="12.2096314"><ele>424.0</ele><time>2026-04-12T15:24:52.891Z</time></trkpt><trkpt lat="43.7899781" lon="12.2095956"><ele>424.0</ele><time>2026-04-12T15:24:53.896Z</time></trkpt><trkpt lat="43.7901217" lon="12.2095668"><ele>424.0</ele><time>2026-04-12T15:24:54.907Z</time></trkpt><trkpt lat="43.7902669" lon="12.2095558"><ele>424.0</ele><time>2026-04-12T15:24:55.903Z</time></trkpt><trkpt lat="43.7904153" lon="12.2095597"><ele>424.0</ele><time>2026-04-12T15:24:56.894Z</time></trkpt><trkpt lat="43.7905643" lon="12.2095657"><ele>424.0</ele><time>2026-04-12T15:24:57.907Z</time></trkpt><trkpt lat="43.7907116" lon="12.2095713"><ele>424.0</ele><time>2026-04-12T15:24:58.906Z</time></trkpt><trkpt lat="43.7908591" lon="12.2095718"><ele>424.0</ele><time>2026-04-12T15:24:59.895Z</time></trkpt><trkpt lat="43.7910125" lon="12.2095745"><ele>424.0</ele><time>2026-04-12T15:25:00.91Z</time></trkpt><trkpt lat="43.7911705" lon="12.2095884"><ele>422.25</ele><time>2026-04-12T15:25:01.9Z</time></trkpt><trkpt lat="43.7913304" lon="12.2096211"><ele>420.5</ele><time>2026-04-12T15:25:02.898Z</time></trkpt><trkpt lat="43.7914705" lon="12.2096768"><ele>418.75</ele><time>2026-04-12T15:25:03.911Z</time></trkpt><trkpt lat="43.7915873" lon="12.2097544"><ele>417.0</ele><time>2026-04-12T15:25:05.013Z</time></trkpt><trkpt lat="43.7916697" lon="12.2098881"><ele>420.5</ele><time>2026-04-12T15:25:05.917Z</time></trkpt><trkpt lat="43.7917326" lon="12.2100467"><ele>424.0</ele><time>2026-04-12T15:25:06.996Z</time></trkpt><trkpt lat="43.7917471" lon="12.2102461"><ele>427.5</ele><time>2026-04-12T15:25:07.905Z</time></trkpt><trkpt lat="43.7917348" lon="12.2104464"><ele>431.0</ele><time>2026-04-12T15:25:08.92Z</time></trkpt><trkpt lat="43.791725" lon="12.2106477"><ele>431.0</ele><time>2026-04-12T15:25:09.9Z</time></trkpt><trkpt lat="43.7917135" lon="12.2108482"><ele>431.0</ele><time>2026-04-12T15:25:10.906Z</time></trkpt><trkpt lat="43.7917033" lon="12.2110409"><ele>431.0</ele><time>2026-04-12T15:25:11.909Z</time></trkpt><trkpt lat="43.7916922" lon="12.211226"><ele>431.0</ele><time>2026-04-12T15:25:12.91Z</time></trkpt><trkpt lat="43.7916871" lon="12.2114031"><ele>432.25</ele><time>2026-04-12T15:25:13.927Z</time></trkpt><trkpt lat="43.791691" lon="12.2115702"><ele>433.5</ele><time>2026-04-12T15:25:14.902Z</time></trkpt><trkpt lat="43.7917175" lon="12.2117286"><ele>434.75</ele><time>2026-04-12T15:25:15.906Z</time></trkpt><trkpt lat="43.7917867" lon="12.2118619"><ele>436.0</ele><time>2026-04-12T15:25:16.987Z</time></trkpt><trkpt lat="43.7919125" lon="12.2119535"><ele>433.25</ele><time>2026-04-12T15:25:17.917Z</time></trkpt><trkpt lat="43.7920427" lon="12.2120033"><ele>430.5</ele><time>2026-04-12T15:25:18.911Z</time></trkpt><trkpt lat="43.7921907" lon="12.2120018"><ele>427.75</ele><time>2026-04-12T15:25:19.904Z</time></trkpt><trkpt lat="43.7923453" lon="12.2119703"><ele>425.0</ele><time>2026-04-12T15:25:20.9Z</time></trkpt><trkpt lat="43.7925101" lon="12.2119619"><ele>429.0</ele><time>2026-04-12T15:25:21.912Z</time></trkpt><trkpt lat="43.7926746" lon="12.2119389"><ele>433.0</ele><time>2026-04-12T15:25:22.885Z</time></trkpt><trkpt lat="43.7928437" lon="12.2118833"><ele>437.0</ele><time>2026-04-12T15:25:23.871Z</time></trkpt><trkpt lat="43.7930337" lon="12.2117879"><ele>437.0</ele><time>2026-04-12T15:25:24.882Z</time></trkpt><trkpt lat="43.7932243" lon="12.2116743"><ele>437.0</ele><time>2026-04-12T15:25:25.87Z</time></trkpt><trkpt lat="43.7933999" lon="12.2115675"><ele>437.0</ele><time>2026-04-12T15:25:26.897Z</time></trkpt><trkpt lat="43.793564" lon="12.2114718"><ele>434.0</ele><time>2026-04-12T15:25:27.958Z</time></trkpt><trkpt lat="43.7937214" lon="12.211374"><ele>431.0</ele><time>2026-04-12T15:25:28.876Z</time></trkpt><trkpt lat="43.7938715" lon="12.2112799"><ele>428.0</ele><time>2026-04-12T15:25:29.889Z</time></trkpt><trkpt lat="43.7940099" lon="12.2111854"><ele>428.0</ele><time>2026-04-12T15:25:30.884Z</time></trkpt><trkpt lat="43.7941443" lon="12.2111072"><ele>428.0</ele><time>2026-04-12T15:25:31.973Z</time></trkpt><trkpt lat="43.7942764" lon="12.2110281"><ele>428.0</ele><time>2026-04-12T15:25:32.896Z</time></trkpt><trkpt lat="43.7944184" lon="12.2109684"><ele>428.0</ele><time>2026-04-12T15:25:33.896Z</time></trkpt><trkpt lat="43.7945707" lon="12.2109221"><ele>428.66666666666663</ele><time>2026-04-12T15:25:34.881Z</time></trkpt><trkpt lat="43.7947358" lon="12.210898"><ele>429.33333333333337</ele><time>2026-04-12T15:25:35.874Z</time></trkpt><trkpt lat="43.7949067" lon="12.2108948"><ele>430.0</ele><time>2026-04-12T15:25:36.875Z</time></trkpt><trkpt lat="43.7950787" lon="12.2109171"><ele>427.33333333333337</ele><time>2026-04-12T15:25:37.881Z</time></trkpt><trkpt lat="43.7952466" lon="12.2109643"><ele>424.66666666666663</ele><time>2026-04-12T15:25:38.873Z</time></trkpt><trkpt lat="43.7954041" lon="12.211035"><ele>422.0</ele><time>2026-04-12T15:25:39.896Z</time></trkpt><trkpt lat="43.7955655" lon="12.2111072"><ele>422.0</ele><time>2026-04-12T15:25:40.874Z</time></trkpt><trkpt lat="43.7957314" lon="12.2111933"><ele>422.0</ele><time>2026-04-12T15:25:41.878Z</time></trkpt><trkpt lat="43.7958975" lon="12.2112972"><ele>422.0</ele><time>2026-04-12T15:25:42.875Z</time></trkpt><trkpt lat="43.7960645" lon="12.2114085"><ele>424.0</ele><time>2026-04-12T15:25:43.878Z</time></trkpt><trkpt lat="43.7962342" lon="12.211524"><ele>426.0</ele><time>2026-04-12T15:25:44.894Z</time></trkpt><trkpt lat="43.7964069" lon="12.2116444"><ele>428.0</ele><time>2026-04-12T15:25:45.874Z</time></trkpt><trkpt lat="43.7965732" lon="12.211775"><ele>428.0</ele><time>2026-04-12T15:25:46.877Z</time></trkpt><trkpt lat="43.7967314" lon="12.2119316"><ele>428.0</ele><time>2026-04-12T15:25:47.879Z</time></trkpt><trkpt lat="43.7968802" lon="12.2121061"><ele>428.0</ele><time>2026-04-12T15:25:48.884Z</time></trkpt><trkpt lat="43.797013" lon="12.2122862"><ele>429.0</ele><time>2026-04-12T15:25:49.88Z</time></trkpt><trkpt lat="43.7971312" lon="12.2124641"><ele>430.0</ele><time>2026-04-12T15:25:50.901Z</time></trkpt><trkpt lat="43.7972319" lon="12.2126376"><ele>431.0</ele><time>2026-04-12T15:25:51.883Z</time></trkpt><trkpt lat="43.7973164" lon="12.2128084"><ele>431.0</ele><time>2026-04-12T15:25:52.884Z</time></trkpt><trkpt lat="43.7973979" lon="12.2129762"><ele>431.0</ele><time>2026-04-12T15:25:53.888Z</time></trkpt><trkpt lat="43.7974857" lon="12.2131357"><ele>431.0</ele><time>2026-04-12T15:25:54.909Z</time></trkpt><trkpt lat="43.797583" lon="12.2132855"><ele>431.0</ele><time>2026-04-12T15:25:55.879Z</time></trkpt><trkpt lat="43.7976908" lon="12.2134004"><ele>429.0</ele><time>2026-04-12T15:25:56.885Z</time></trkpt><trkpt lat="43.797816" lon="12.2134854"><ele>427.0</ele><time>2026-04-12T15:25:57.897Z</time></trkpt><trkpt lat="43.7979315" lon="12.2135802"><ele>425.0</ele><time>2026-04-12T15:25:58.89Z</time></trkpt><trkpt lat="43.7980253" lon="12.2136998"><ele>423.0</ele><time>2026-04-12T15:25:59.886Z</time></trkpt><trkpt lat="43.7980997" lon="12.2138709"><ele>426.25</ele><time>2026-04-12T15:26:00.88Z</time></trkpt><trkpt lat="43.7981433" lon="12.2140614"><ele>429.5</ele><time>2026-04-12T15:26:01.875Z</time></trkpt><trkpt lat="43.7981846" lon="12.2142498"><ele>432.75</ele><time>2026-04-12T15:26:02.981Z</time></trkpt><trkpt lat="43.7982375" lon="12.214443"><ele>436.0</ele><time>2026-04-12T15:26:03.892Z</time></trkpt><trkpt lat="43.7983073" lon="12.2146442"><ele>438.6666666666667</ele><time>2026-04-12T15:26:04.878Z</time></trkpt><trkpt lat="43.798398" lon="12.2148389"><ele>441.33333333333337</ele><time>2026-04-12T15:26:05.9Z</time></trkpt><trkpt lat="43.7985078" lon="12.2150327"><ele>444.0</ele><time>2026-04-12T15:26:06.886Z</time></trkpt><trkpt lat="43.7986245" lon="12.2152089"><ele>441.25</ele><time>2026-04-12T15:26:07.877Z</time></trkpt><trkpt lat="43.7987365" lon="12.2153637"><ele>438.5</ele><time>2026-04-12T15:26:08.876Z</time></trkpt><trkpt lat="43.798835" lon="12.215502"><ele>435.75</ele><time>2026-04-12T15:26:09.9Z</time></trkpt><trkpt lat="43.7989161" lon="12.2156465"><ele>433.0</ele><time>2026-04-12T15:26:10.882Z</time></trkpt><trkpt lat="43.7989518" lon="12.215817"><ele>433.0</ele><time>2026-04-12T15:26:11.882Z</time></trkpt><trkpt lat="43.7989444" lon="12.2160044"><ele>433.0</ele><time>2026-04-12T15:26:12.884Z</time></trkpt><trkpt lat="43.7989359" lon="12.2161855"><ele>433.0</ele><time>2026-04-12T15:26:13.886Z</time></trkpt><trkpt lat="43.7989708" lon="12.2163358"><ele>433.0</ele><time>2026-04-12T15:26:14.888Z</time></trkpt><trkpt lat="43.7990666" lon="12.2164506"><ele>433.33333333333337</ele><time>2026-04-12T15:26:15.879Z</time></trkpt><trkpt lat="43.7992088" lon="12.2165143"><ele>433.66666666666663</ele><time>2026-04-12T15:26:16.883Z</time></trkpt><trkpt lat="43.7993619" lon="12.2165458"><ele>434.0</ele><time>2026-04-12T15:26:17.894Z</time></trkpt><trkpt lat="43.7995132" lon="12.2165732"><ele>434.0</ele><time>2026-04-12T15:26:18.879Z</time></trkpt><trkpt lat="43.7996584" lon="12.2166105"><ele>434.0</ele><time>2026-04-12T15:26:19.885Z</time></trkpt><trkpt lat="43.7998088" lon="12.2166611"><ele>434.0</ele><time>2026-04-12T15:26:20.882Z</time></trkpt><trkpt lat="43.7999499" lon="12.2167325"><ele>434.0</ele><time>2026-04-12T15:26:21.883Z</time></trkpt><trkpt lat="43.8000721" lon="12.2168487"><ele>434.0</ele><time>2026-04-12T15:26:22.88Z</time></trkpt><trkpt lat="43.8001723" lon="12.217024"><ele>434.0</ele><time>2026-04-12T15:26:23.873Z</time></trkpt><trkpt lat="43.8002726" lon="12.2172223"><ele>429.3333333333333</ele><time>2026-04-12T15:26:24.876Z</time></trkpt><trkpt lat="43.8003882" lon="12.2174102"><ele>424.66666666666663</ele><time>2026-04-12T15:26:25.876Z</time></trkpt><trkpt lat="43.8005211" lon="12.2175824"><ele>420.0</ele><time>2026-04-12T15:26:26.967Z</time></trkpt><trkpt lat="43.8006554" lon="12.2177459"><ele>420.0</ele><time>2026-04-12T15:26:27.871Z</time></trkpt><trkpt lat="43.8007737" lon="12.2179142"><ele>420.0</ele><time>2026-04-12T15:26:28.893Z</time></trkpt><trkpt lat="43.8008662" lon="12.2180837"><ele>420.0</ele><time>2026-04-12T15:26:29.878Z</time></trkpt><trkpt lat="43.8009314" lon="12.2182438"><ele>425.75</ele><time>2026-04-12T15:26:30.882Z</time></trkpt><trkpt lat="43.800973" lon="12.2184122"><ele>431.5</ele><time>2026-04-12T15:26:31.876Z</time></trkpt><trkpt lat="43.8009794" lon="12.2185904"><ele>437.25</ele><time>2026-04-12T15:26:32.877Z</time></trkpt><trkpt lat="43.8009572" lon="12.2187691"><ele>443.0</ele><time>2026-04-12T15:26:33.879Z</time></trkpt><trkpt lat="43.8009223" lon="12.2189447"><ele>444.4</ele><time>2026-04-12T15:26:34.877Z</time></trkpt><trkpt lat="43.8009021" lon="12.2191007"><ele>445.79999999999995</ele><time>2026-04-12T15:26:35.879Z</time></trkpt><trkpt lat="43.8009094" lon="12.2192441"><ele>447.2</ele><time>2026-04-12T15:26:36.883Z</time></trkpt><trkpt lat="43.8009503" lon="12.2193796"><ele>448.6</ele><time>2026-04-12T15:26:37.883Z</time></trkpt><trkpt lat="43.8010233" lon="12.2194772"><ele>450.0</ele><time>2026-04-12T15:26:38.874Z</time></trkpt><trkpt lat="43.8011298" lon="12.2195259"><ele>445.5</ele><time>2026-04-12T15:26:39.876Z</time></trkpt><trkpt lat="43.8012514" lon="12.2195387"><ele>441.0</ele><time>2026-04-12T15:26:40.883Z</time></trkpt><trkpt lat="43.8013652" lon="12.2195272"><ele>436.5</ele><time>2026-04-12T15:26:41.867Z</time></trkpt><trkpt lat="43.8014836" lon="12.2195176"><ele>432.0</ele><time>2026-04-12T15:26:42.881Z</time></trkpt><trkpt lat="43.80161" lon="12.2195471"><ele>432.0</ele><time>2026-04-12T15:26:43.877Z</time></trkpt><trkpt lat="43.8017162" lon="12.2196538"><ele>432.0</ele><time>2026-04-12T15:26:44.893Z</time></trkpt><trkpt lat="43.8018022" lon="12.2198095"><ele>432.0</ele><time>2026-04-12T15:26:45.879Z</time></trkpt><trkpt lat="43.8018843" lon="12.21999"><ele>432.0</ele><time>2026-04-12T15:26:46.874Z</time></trkpt><trkpt lat="43.8019729" lon="12.2201869"><ele>430.66666666666663</ele><time>2026-04-12T15:26:47.891Z</time></trkpt><trkpt lat="43.8020728" lon="12.2203873"><ele>429.3333333333333</ele><time>2026-04-12T15:26:48.883Z</time></trkpt><trkpt lat="43.8021586" lon="12.2206146"><ele>428.0</ele><time>2026-04-12T15:26:49.878Z</time></trkpt><trkpt lat="43.8022381" lon="12.2208591"><ele>428.0</ele><time>2026-04-12T15:26:50.896Z</time></trkpt><trkpt lat="43.8023121" lon="12.2211114"><ele>428.0</ele><time>2026-04-12T15:26:51.889Z</time></trkpt><trkpt lat="43.8023835" lon="12.2213653"><ele>428.0</ele><time>2026-04-12T15:26:52.901Z</time></trkpt><trkpt lat="43.8024414" lon="12.2216091"><ele>434.3333333333333</ele><time>2026-04-12T15:26:53.872Z</time></trkpt><trkpt lat="43.8024921" lon="12.2218249"><ele>440.66666666666663</ele><time>2026-04-12T15:26:54.882Z</time></trkpt><trkpt lat="43.8025776" lon="12.2220154"><ele>447.0</ele><time>2026-04-12T15:26:55.891Z</time></trkpt><trkpt lat="43.8027067" lon="12.2221947"><ele>440.0</ele><time>2026-04-12T15:26:56.884Z</time></trkpt><trkpt lat="43.8028314" lon="12.2223571"><ele>433.0</ele><time>2026-04-12T15:26:57.89Z</time></trkpt><trkpt lat="43.8029309" lon="12.2224991"><ele>426.0</ele><time>2026-04-12T15:26:58.89Z</time></trkpt><trkpt lat="43.8030131" lon="12.2226298"><ele>419.0</ele><time>2026-04-12T15:26:59.887Z</time></trkpt><trkpt lat="43.803076" lon="12.2227629"><ele>419.0</ele><time>2026-04-12T15:27:00.88Z</time></trkpt><trkpt lat="43.8031067" lon="12.2229151"><ele>419.0</ele><time>2026-04-12T15:27:01.9Z</time></trkpt><trkpt lat="43.8031043" lon="12.2230826"><ele>419.0</ele><time>2026-04-12T15:27:02.886Z</time></trkpt><trkpt lat="43.8030771" lon="12.2232736"><ele>419.0</ele><time>2026-04-12T15:27:03.879Z</time></trkpt><trkpt lat="43.8030314" lon="12.2234585"><ele>420.25</ele><time>2026-04-12T15:27:04.885Z</time></trkpt><trkpt lat="43.8029779" lon="12.2236356"><ele>421.5</ele><time>2026-04-12T15:27:05.879Z</time></trkpt><trkpt lat="43.8029229" lon="12.2237982"><ele>422.75</ele><time>2026-04-12T15:27:06.889Z</time></trkpt><trkpt lat="43.8028661" lon="12.2239482"><ele>424.0</ele><time>2026-04-12T15:27:07.888Z</time></trkpt><trkpt lat="43.8028208" lon="12.2240898"><ele>424.5</ele><time>2026-04-12T15:27:08.896Z</time></trkpt><trkpt lat="43.8027968" lon="12.2242415"><ele>425.0</ele><time>2026-04-12T15:27:09.882Z</time></trkpt><trkpt lat="43.802812" lon="12.2244064"><ele>425.5</ele><time>2026-04-12T15:27:10.886Z</time></trkpt><trkpt lat="43.8028651" lon="12.2245915"><ele>426.0</ele><time>2026-04-12T15:27:11.88Z</time></trkpt><trkpt lat="43.8029359" lon="12.2248053"><ele>431.0</ele><time>2026-04-12T15:27:12.892Z</time></trkpt><trkpt lat="43.8030193" lon="12.2250311"><ele>436.0</ele><time>2026-04-12T15:27:13.879Z</time></trkpt><trkpt lat="43.8030859" lon="12.2252377"><ele>441.0</ele><time>2026-04-12T15:27:14.876Z</time></trkpt><trkpt lat="43.8031712" lon="12.2253777"><ele>441.0</ele><time>2026-04-12T15:27:15.869Z</time></trkpt><trkpt lat="43.8032908" lon="12.2254368"><ele>441.0</ele><time>2026-04-12T15:27:16.884Z</time></trkpt><trkpt lat="43.8034404" lon="12.2254333"><ele>441.0</ele><time>2026-04-12T15:27:17.873Z</time></trkpt><trkpt lat="43.8036171" lon="12.2253732"><ele>442.0</ele><time>2026-04-12T15:27:18.875Z</time></trkpt><trkpt lat="43.8038075" lon="12.2253039"><ele>443.0</ele><time>2026-04-12T15:27:19.881Z</time></trkpt><trkpt lat="43.8040064" lon="12.2252434"><ele>444.0</ele><time>2026-04-12T15:27:20.882Z</time></trkpt><trkpt lat="43.8041916" lon="12.2251463"><ele>439.0</ele><time>2026-04-12T15:27:21.875Z</time></trkpt><trkpt lat="43.804356" lon="12.225026"><ele>434.0</ele><time>2026-04-12T15:27:22.893Z</time></trkpt><trkpt lat="43.8045067" lon="12.2249431"><ele>429.0</ele><time>2026-04-12T15:27:23.874Z</time></trkpt><trkpt lat="43.8046303" lon="12.2249398"><ele>429.0</ele><time>2026-04-12T15:27:24.874Z</time></trkpt><trkpt lat="43.8047369" lon="12.2250303"><ele>429.0</ele><time>2026-04-12T15:27:25.954Z</time></trkpt><trkpt lat="43.8048646" lon="12.2251986"><ele>429.0</ele><time>2026-04-12T15:27:26.874Z</time></trkpt><trkpt lat="43.8050047" lon="12.225354"><ele>429.0</ele><time>2026-04-12T15:27:27.866Z</time></trkpt><trkpt lat="43.8051447" lon="12.2254878"><ele>429.0</ele><time>2026-04-12T15:27:28.883Z</time></trkpt><trkpt lat="43.8052618" lon="12.225597"><ele>429.0</ele><time>2026-04-12T15:27:29.88Z</time></trkpt><trkpt lat="43.8053639" lon="12.2256772"><ele>429.0</ele><time>2026-04-12T15:27:30.883Z</time></trkpt><trkpt lat="43.805463" lon="12.225762"><ele>427.75</ele><time>2026-04-12T15:27:31.89Z</time></trkpt><trkpt lat="43.8055314" lon="12.2258516"><ele>426.5</ele><time>2026-04-12T15:27:32.879Z</time></trkpt><trkpt lat="43.8055625" lon="12.2259809"><ele>425.25</ele><time>2026-04-12T15:27:33.875Z</time></trkpt><trkpt lat="43.8055418" lon="12.2261413"><ele>424.0</ele><time>2026-04-12T15:27:34.874Z</time></trkpt><trkpt lat="43.8054958" lon="12.2263326"><ele>427.0</ele><time>2026-04-12T15:27:35.888Z</time></trkpt><trkpt lat="43.8054291" lon="12.2265789"><ele>430.0</ele><time>2026-04-12T15:27:36.886Z</time></trkpt><trkpt lat="43.8053598" lon="12.2268098"><ele>433.0</ele><time>2026-04-12T15:27:37.879Z</time></trkpt><trkpt lat="43.8053125" lon="12.2270027"><ele>433.0</ele><time>2026-04-12T15:27:38.879Z</time></trkpt><trkpt lat="43.8053107" lon="12.2271728"><ele>433.0</ele><time>2026-04-12T15:27:39.881Z</time></trkpt><trkpt lat="43.805366" lon="12.2272955"><ele>433.0</ele><time>2026-04-12T15:27:40.877Z</time></trkpt><trkpt lat="43.8054987" lon="12.2273272"><ele>433.0</ele><time>2026-04-12T15:27:41.871Z</time></trkpt><trkpt lat="43.8056744" lon="12.2273279"><ele>433.0</ele><time>2026-04-12T15:27:42.899Z</time></trkpt><trkpt lat="43.8058829" lon="12.2272804"><ele>433.0</ele><time>2026-04-12T15:27:43.894Z</time></trkpt><trkpt lat="43.8061278" lon="12.2271835"><ele>431.0</ele><time>2026-04-12T15:27:44.876Z</time></trkpt><trkpt lat="43.8063847" lon="12.2270578"><ele>429.0</ele><time>2026-04-12T15:27:45.883Z</time></trkpt><trkpt lat="43.8066165" lon="12.2268881"><ele>428.5</ele><time>2026-04-12T15:27:46.876Z</time></trkpt><trkpt lat="43.8068403" lon="12.2267296"><ele>428.0</ele><time>2026-04-12T15:27:47.874Z</time></trkpt><trkpt lat="43.8070421" lon="12.2266258"><ele>428.0</ele><time>2026-04-12T15:27:48.869Z</time></trkpt><trkpt lat="43.8072261" lon="12.2266019"><ele>428.0</ele><time>2026-04-12T15:27:49.873Z</time></trkpt><trkpt lat="43.8074219" lon="12.2266588"><ele>428.0</ele><time>2026-04-12T15:27:50.883Z</time></trkpt><trkpt lat="43.8076302" lon="12.2267636"><ele>419.0</ele><time>2026-04-12T15:27:51.873Z</time></trkpt><trkpt lat="43.8078456" lon="12.226882"><ele>410.0</ele><time>2026-04-12T15:27:52.895Z</time></trkpt><trkpt lat="43.8080475" lon="12.2269992"><ele>410.0</ele><time>2026-04-12T15:27:53.876Z</time></trkpt><trkpt lat="43.8082291" lon="12.2271449"><ele>410.0</ele><time>2026-04-12T15:27:54.88Z</time></trkpt><trkpt lat="43.8084135" lon="12.2273324"><ele>410.0</ele><time>2026-04-12T15:27:55.872Z</time></trkpt><trkpt lat="43.8085799" lon="12.2275484"><ele>404.0</ele><time>2026-04-12T15:27:56.892Z</time></trkpt><trkpt lat="43.8087296" lon="12.2277906"><ele>398.0</ele><time>2026-04-12T15:27:57.88Z</time></trkpt><trkpt lat="43.80887" lon="12.2280283"><ele>404.66666666666663</ele><time>2026-04-12T15:27:58.873Z</time></trkpt><trkpt lat="43.8090065" lon="12.2282502"><ele>411.33333333333337</ele><time>2026-04-12T15:27:59.875Z</time></trkpt><trkpt lat="43.8091356" lon="12.2284551"><ele>418.0</ele><time>2026-04-12T15:28:00.894Z</time></trkpt><trkpt lat="43.8092604" lon="12.2286436"><ele>409.6666666666667</ele><time>2026-04-12T15:28:01.882Z</time></trkpt><trkpt lat="43.8093845" lon="12.2288335"><ele>401.33333333333337</ele><time>2026-04-12T15:28:02.868Z</time></trkpt><trkpt lat="43.8094977" lon="12.2290131"><ele>393.0</ele><time>2026-04-12T15:28:03.878Z</time></trkpt><trkpt lat="43.8095746" lon="12.2292176"><ele>393.0</ele><time>2026-04-12T15:28:04.872Z</time></trkpt><trkpt lat="43.809609" lon="12.22944"><ele>393.0</ele><time>2026-04-12T15:28:05.883Z</time></trkpt><trkpt lat="43.8096112" lon="12.2296847"><ele>393.0</ele><time>2026-04-12T15:28:06.883Z</time></trkpt><trkpt lat="43.8095914" lon="12.2299263"><ele>393.0</ele><time>2026-04-12T15:28:07.885Z</time></trkpt><trkpt lat="43.8095399" lon="12.2301887"><ele>393.0</ele><time>2026-04-12T15:28:08.879Z</time></trkpt><trkpt lat="43.809463" lon="12.2304403"><ele>393.0</ele><time>2026-04-12T15:28:09.962Z</time></trkpt><trkpt lat="43.8093742" lon="12.2306924"><ele>402.33333333333337</ele><time>2026-04-12T15:28:10.877Z</time></trkpt><trkpt lat="43.8092815" lon="12.2309703"><ele>411.6666666666667</ele><time>2026-04-12T15:28:11.893Z</time></trkpt><trkpt lat="43.8092216" lon="12.2312725"><ele>421.0</ele><time>2026-04-12T15:28:12.876Z</time></trkpt><trkpt lat="43.8091753" lon="12.2316027"><ele>421.0</ele><time>2026-04-12T15:28:13.892Z</time></trkpt><trkpt lat="43.8091323" lon="12.2319173"><ele>421.0</ele><time>2026-04-12T15:28:14.881Z</time></trkpt><trkpt lat="43.8090771" lon="12.2322039"><ele>421.0</ele><time>2026-04-12T15:28:15.89Z</time></trkpt><trkpt lat="43.8090354" lon="12.2324706"><ele>420.33333333333337</ele><time>2026-04-12T15:28:16.881Z</time></trkpt><trkpt lat="43.8090168" lon="12.2327248"><ele>419.66666666666663</ele><time>2026-04-12T15:28:17.885Z</time></trkpt><trkpt lat="43.8090288" lon="12.2329705"><ele>419.0</ele><time>2026-04-12T15:28:18.892Z</time></trkpt><trkpt lat="43.8090842" lon="12.2332048"><ele>419.0</ele><time>2026-04-12T15:28:19.873Z</time></trkpt><trkpt lat="43.8091846" lon="12.2334271"><ele>419.0</ele><time>2026-04-12T15:28:20.88Z</time></trkpt><trkpt lat="43.8093016" lon="12.2336204"><ele>419.0</ele><time>2026-04-12T15:28:21.885Z</time></trkpt><trkpt lat="43.8094164" lon="12.2338049"><ele>411.3333333333333</ele><time>2026-04-12T15:28:22.877Z</time></trkpt><trkpt lat="43.8094983" lon="12.2339928"><ele>403.66666666666663</ele><time>2026-04-12T15:28:23.882Z</time></trkpt><trkpt lat="43.8095392" lon="12.2342022"><ele>396.0</ele><time>2026-04-12T15:28:24.976Z</time></trkpt><trkpt lat="43.8095434" lon="12.234448"><ele>396.0</ele><time>2026-04-12T15:28:25.886Z</time></trkpt><trkpt lat="43.8095381" lon="12.2347162"><ele>396.0</ele><time>2026-04-12T15:28:26.891Z</time></trkpt><trkpt lat="43.8095365" lon="12.2349958"><ele>396.0</ele><time>2026-04-12T15:28:27.887Z</time></trkpt><trkpt lat="43.8095346" lon="12.2352757"><ele>396.0</ele><time>2026-04-12T15:28:28.904Z</time></trkpt><trkpt lat="43.8095352" lon="12.2355429"><ele>396.0</ele><time>2026-04-12T15:28:29.883Z</time></trkpt><trkpt lat="43.8095336" lon="12.2357853"><ele>396.0</ele><time>2026-04-12T15:28:30.893Z</time></trkpt><trkpt lat="43.8095615" lon="12.2360056"><ele>396.0</ele><time>2026-04-12T15:28:31.877Z</time></trkpt><trkpt lat="43.8096279" lon="12.2362141"><ele>396.0</ele><time>2026-04-12T15:28:32.886Z</time></trkpt><trkpt lat="43.8097277" lon="12.2364011"><ele>396.0</ele><time>2026-04-12T15:28:33.889Z</time></trkpt><trkpt lat="43.8098445" lon="12.236543"><ele>398.25</ele><time>2026-04-12T15:28:34.877Z</time></trkpt><trkpt lat="43.8099683" lon="12.2366464"><ele>400.5</ele><time>2026-04-12T15:28:35.901Z</time></trkpt><trkpt lat="43.8100904" lon="12.2367205"><ele>402.75</ele><time>2026-04-12T15:28:36.877Z</time></trkpt><trkpt lat="43.8102028" lon="12.2367947"><ele>405.0</ele><time>2026-04-12T15:28:37.887Z</time></trkpt><trkpt lat="43.8103014" lon="12.2368803"><ele>402.4</ele><time>2026-04-12T15:28:38.897Z</time></trkpt><trkpt lat="43.8103826" lon="12.2369829"><ele>399.8</ele><time>2026-04-12T15:28:39.886Z</time></trkpt><trkpt lat="43.810452" lon="12.2371091"><ele>397.20000000000005</ele><time>2026-04-12T15:28:40.905Z</time></trkpt><trkpt lat="43.810493" lon="12.2372559"><ele>394.6</ele><time>2026-04-12T15:28:41.879Z</time></trkpt><trkpt lat="43.810497" lon="12.2374062"><ele>392.0</ele><time>2026-04-12T15:28:42.888Z</time></trkpt><trkpt lat="43.8104703" lon="12.2375623"><ele>392.0</ele><time>2026-04-12T15:28:43.897Z</time></trkpt><trkpt lat="43.8104078" lon="12.2377014"><ele>392.0</ele><time>2026-04-12T15:28:44.892Z</time></trkpt><trkpt lat="43.8103192" lon="12.2378287"><ele>392.0</ele><time>2026-04-12T15:28:45.878Z</time></trkpt><trkpt lat="43.8102073" lon="12.2379497"><ele>392.0</ele><time>2026-04-12T15:28:46.89Z</time></trkpt><trkpt lat="43.8100521" lon="12.2380774"><ele>394.0</ele><time>2026-04-12T15:28:47.899Z</time></trkpt><trkpt lat="43.8098761" lon="12.2381976"><ele>396.0</ele><time>2026-04-12T15:28:48.878Z</time></trkpt><trkpt lat="43.8096957" lon="12.2383286"><ele>398.0</ele><time>2026-04-12T15:28:49.879Z</time></trkpt><trkpt lat="43.809511" lon="12.238485"><ele>398.0</ele><time>2026-04-12T15:28:50.891Z</time></trkpt><trkpt lat="43.8093301" lon="12.2386689"><ele>398.0</ele><time>2026-04-12T15:28:51.893Z</time></trkpt><trkpt lat="43.8091691" lon="12.2388757"><ele>398.0</ele><time>2026-04-12T15:28:52.89Z</time></trkpt><trkpt lat="43.8090494" lon="12.2391158"><ele>398.5</ele><time>2026-04-12T15:28:53.88Z</time></trkpt><trkpt lat="43.808978" lon="12.2394013"><ele>399.0</ele><time>2026-04-12T15:28:54.886Z</time></trkpt><trkpt lat="43.8089326" lon="12.2397257"><ele>396.5</ele><time>2026-04-12T15:28:55.891Z</time></trkpt><trkpt lat="43.8089192" lon="12.2400607"><ele>394.0</ele><time>2026-04-12T15:28:56.969Z</time></trkpt><trkpt lat="43.8089528" lon="12.2403747"><ele>395.0</ele><time>2026-04-12T15:28:57.894Z</time></trkpt><trkpt lat="43.8090223" lon="12.2406665"><ele>396.0</ele><time>2026-04-12T15:28:58.876Z</time></trkpt><trkpt lat="43.8091309" lon="12.2409221"><ele>397.0</ele><time>2026-04-12T15:28:59.883Z</time></trkpt><trkpt lat="43.8092823" lon="12.2411443"><ele>395.0</ele><time>2026-04-12T15:29:00.89Z</time></trkpt><trkpt lat="43.8094737" lon="12.2413333"><ele>393.0</ele><time>2026-04-12T15:29:01.968Z</time></trkpt><trkpt lat="43.8097178" lon="12.2414817"><ele>393.0</ele><time>2026-04-12T15:29:02.894Z</time></trkpt><trkpt lat="43.8100055" lon="12.2416049"><ele>393.0</ele><time>2026-04-12T15:29:03.889Z</time></trkpt><trkpt lat="43.8103111" lon="12.2417288"><ele>390.0</ele><time>2026-04-12T15:29:04.888Z</time></trkpt><trkpt lat="43.8106261" lon="12.2418614"><ele>387.0</ele><time>2026-04-12T15:29:05.88Z</time></trkpt><trkpt lat="43.8109356" lon="12.2419804"><ele>386.5</ele><time>2026-04-12T15:29:06.893Z</time></trkpt><trkpt lat="43.8112353" lon="12.2421113"><ele>386.0</ele><time>2026-04-12T15:29:07.883Z</time></trkpt><trkpt lat="43.8115065" lon="12.2422379"><ele>387.0</ele><time>2026-04-12T15:29:08.871Z</time></trkpt><trkpt lat="43.8117501" lon="12.2423476"><ele>388.0</ele><time>2026-04-12T15:29:09.946Z</time></trkpt><trkpt lat="43.8119583" lon="12.2424246"><ele>388.6666666666667</ele><time>2026-04-12T15:29:10.872Z</time></trkpt><trkpt lat="43.8121563" lon="12.2424279"><ele>389.33333333333337</ele><time>2026-04-12T15:29:11.889Z</time></trkpt><trkpt lat="43.8123543" lon="12.2423722"><ele>390.0</ele><time>2026-04-12T15:29:12.886Z</time></trkpt><trkpt lat="43.8125536" lon="12.2422604"><ele>388.66666666666663</ele><time>2026-04-12T15:29:13.874Z</time></trkpt><trkpt lat="43.8127367" lon="12.2421162"><ele>387.3333333333333</ele><time>2026-04-12T15:29:14.874Z</time></trkpt><trkpt lat="43.8129174" lon="12.2419866"><ele>386.0</ele><time>2026-04-12T15:29:15.902Z</time></trkpt><trkpt lat="43.8131122" lon="12.2418665"><ele>386.0</ele><time>2026-04-12T15:29:16.872Z</time></trkpt><trkpt lat="43.8133288" lon="12.2418101"><ele>386.0</ele><time>2026-04-12T15:29:17.886Z</time></trkpt><trkpt lat="43.8135468" lon="12.2417976"><ele>386.0</ele><time>2026-04-12T15:29:18.898Z</time></trkpt><trkpt lat="43.8137361" lon="12.241857"><ele>384.0</ele><time>2026-04-12T15:29:19.908Z</time></trkpt><trkpt lat="43.8138982" lon="12.2419578"><ele>382.0</ele><time>2026-04-12T15:29:20.887Z</time></trkpt><trkpt lat="43.8140372" lon="12.2420714"><ele>380.0</ele><time>2026-04-12T15:29:21.876Z</time></trkpt><trkpt lat="43.8141566" lon="12.2421566"><ele>380.0</ele><time>2026-04-12T15:29:22.909Z</time></trkpt><trkpt lat="43.8142658" lon="12.2422184"><ele>380.0</ele><time>2026-04-12T15:29:23.987Z</time></trkpt><trkpt lat="43.8144746" lon="12.2423591"><ele>380.0</ele><time>2026-04-12T15:29:25.905Z</time></trkpt><trkpt lat="43.8145917" lon="12.2424401"><ele>380.5</ele><time>2026-04-12T15:29:26.897Z</time></trkpt><trkpt lat="43.8146934" lon="12.2425095"><ele>381.0</ele><time>2026-04-12T15:29:27.893Z</time></trkpt><trkpt lat="43.8147897" lon="12.242571"><ele>381.5</ele><time>2026-04-12T15:29:28.899Z</time></trkpt><trkpt lat="43.8148986" lon="12.2426429"><ele>382.0</ele><time>2026-04-12T15:29:29.895Z</time></trkpt><trkpt lat="43.8150264" lon="12.2427312"><ele>379.3333333333333</ele><time>2026-04-12T15:29:30.899Z</time></trkpt><trkpt lat="43.8151897" lon="12.2428384"><ele>376.6666666666667</ele><time>2026-04-12T15:29:31.897Z</time></trkpt><trkpt lat="43.8154087" lon="12.2429736"><ele>374.0</ele><time>2026-04-12T15:29:32.899Z</time></trkpt><trkpt lat="43.8156639" lon="12.2431299"><ele>375.0</ele><time>2026-04-12T15:29:33.891Z</time></trkpt><trkpt lat="43.8159332" lon="12.243295"><ele>376.0</ele><time>2026-04-12T15:29:34.88Z</time></trkpt><trkpt lat="43.8161883" lon="12.2434553"><ele>376.0</ele><time>2026-04-12T15:29:35.887Z</time></trkpt><trkpt lat="43.816422" lon="12.2435994"><ele>376.0</ele><time>2026-04-12T15:29:36.891Z</time></trkpt><trkpt lat="43.8166418" lon="12.2437364"><ele>375.0</ele><time>2026-04-12T15:29:37.905Z</time></trkpt><trkpt lat="43.8168441" lon="12.2438676"><ele>374.0</ele><time>2026-04-12T15:29:38.881Z</time></trkpt><trkpt lat="43.8170456" lon="12.2439948"><ele>373.0</ele><time>2026-04-12T15:29:39.886Z</time></trkpt><trkpt lat="43.81724" lon="12.2441181"><ele>373.0</ele><time>2026-04-12T15:29:40.887Z</time></trkpt><trkpt lat="43.8174267" lon="12.2442393"><ele>373.0</ele><time>2026-04-12T15:29:41.889Z</time></trkpt><trkpt lat="43.8176093" lon="12.2443608"><ele>373.0</ele><time>2026-04-12T15:29:42.904Z</time></trkpt><trkpt lat="43.8177971" lon="12.2444841"><ele>373.0</ele><time>2026-04-12T15:29:43.992Z</time></trkpt><trkpt lat="43.8181854" lon="12.2447309"><ele>373.0</ele><time>2026-04-12T15:29:45.891Z</time></trkpt><trkpt lat="43.8183566" lon="12.2448964"><ele>370.0</ele><time>2026-04-12T15:29:46.89Z</time></trkpt><trkpt lat="43.8185156" lon="12.2450914"><ele>367.0</ele><time>2026-04-12T15:29:47.875Z</time></trkpt><trkpt lat="43.818666" lon="12.2453181"><ele>364.0</ele><time>2026-04-12T15:29:48.892Z</time></trkpt><trkpt lat="43.8188171" lon="12.2455666"><ele>366.0</ele><time>2026-04-12T15:29:49.883Z</time></trkpt><trkpt lat="43.818959" lon="12.2458349"><ele>368.0</ele><time>2026-04-12T15:29:50.898Z</time></trkpt><trkpt lat="43.8190981" lon="12.2461064"><ele>368.0</ele><time>2026-04-12T15:29:51.879Z</time></trkpt><trkpt lat="43.819231" lon="12.2463717"><ele>368.0</ele><time>2026-04-12T15:29:52.875Z</time></trkpt><trkpt lat="43.8193474" lon="12.2466138"><ele>368.0</ele><time>2026-04-12T15:29:53.892Z</time></trkpt><trkpt lat="43.8194555" lon="12.2468311"><ele>367.0</ele><time>2026-04-12T15:29:54.892Z</time></trkpt><trkpt lat="43.8195575" lon="12.2470336"><ele>366.0</ele><time>2026-04-12T15:29:55.898Z</time></trkpt><trkpt lat="43.8196633" lon="12.2472306"><ele>365.0</ele><time>2026-04-12T15:29:56.886Z</time></trkpt><trkpt lat="43.8197692" lon="12.2474269"><ele>365.0</ele><time>2026-04-12T15:29:57.879Z</time></trkpt><trkpt lat="43.8198588" lon="12.2476233"><ele>365.0</ele><time>2026-04-12T15:29:58.885Z</time></trkpt><trkpt lat="43.8199427" lon="12.2478039"><ele>365.0</ele><time>2026-04-12T15:29:59.88Z</time></trkpt><trkpt lat="43.8200224" lon="12.2479667"><ele>365.0</ele><time>2026-04-12T15:30:00.902Z</time></trkpt><trkpt lat="43.8201142" lon="12.2480936"><ele>365.0</ele><time>2026-04-12T15:30:01.891Z</time></trkpt><trkpt lat="43.8202292" lon="12.2481603"><ele>365.0</ele><time>2026-04-12T15:30:02.877Z</time></trkpt><trkpt lat="43.8203465" lon="12.2481689"><ele>365.0</ele><time>2026-04-12T15:30:03.895Z</time></trkpt><trkpt lat="43.8204659" lon="12.2481081"><ele>364.6666666666667</ele><time>2026-04-12T15:30:04.889Z</time></trkpt><trkpt lat="43.8206142" lon="12.2480096"><ele>364.3333333333333</ele><time>2026-04-12T15:30:05.896Z</time></trkpt><trkpt lat="43.8207769" lon="12.2478923"><ele>364.0</ele><time>2026-04-12T15:30:06.985Z</time></trkpt><trkpt lat="43.8209625" lon="12.2477819"><ele>365.0</ele><time>2026-04-12T15:30:07.887Z</time></trkpt><trkpt lat="43.8211565" lon="12.2476864"><ele>366.0</ele><time>2026-04-12T15:30:08.892Z</time></trkpt><trkpt lat="43.8213391" lon="12.2475927"><ele>367.0</ele><time>2026-04-12T15:30:09.908Z</time></trkpt><trkpt lat="43.8215216" lon="12.2474982"><ele>367.0</ele><time>2026-04-12T15:30:10.879Z</time></trkpt><trkpt lat="43.8217104" lon="12.247434"><ele>367.0</ele><time>2026-04-12T15:30:11.898Z</time></trkpt><trkpt lat="43.8219062" lon="12.2473979"><ele>367.0</ele><time>2026-04-12T15:30:12.889Z</time></trkpt><trkpt lat="43.8221121" lon="12.2473912"><ele>365.3333333333333</ele><time>2026-04-12T15:30:13.894Z</time></trkpt><trkpt lat="43.8223248" lon="12.2474116"><ele>363.6666666666667</ele><time>2026-04-12T15:30:14.882Z</time></trkpt><trkpt lat="43.8225319" lon="12.2474539"><ele>362.0</ele><time>2026-04-12T15:30:15.892Z</time></trkpt><trkpt lat="43.8227328" lon="12.2475054"><ele>359.6666666666667</ele><time>2026-04-12T15:30:16.881Z</time></trkpt><trkpt lat="43.8229185" lon="12.2475435"><ele>357.3333333333333</ele><time>2026-04-12T15:30:17.893Z</time></trkpt><trkpt lat="43.8230949" lon="12.2475784"><ele>355.0</ele><time>2026-04-12T15:30:18.975Z</time></trkpt><trkpt lat="43.8232609" lon="12.2476217"><ele>355.0</ele><time>2026-04-12T15:30:19.891Z</time></trkpt><trkpt lat="43.8234235" lon="12.2476663"><ele>355.0</ele><time>2026-04-12T15:30:20.901Z</time></trkpt><trkpt lat="43.8235895" lon="12.2477124"><ele>355.0</ele><time>2026-04-12T15:30:21.896Z</time></trkpt><trkpt lat="43.8237629" lon="12.2477738"><ele>354.3333333333333</ele><time>2026-04-12T15:30:22.881Z</time></trkpt><trkpt lat="43.823928" lon="12.247871"><ele>353.6666666666667</ele><time>2026-04-12T15:30:23.898Z</time></trkpt><trkpt lat="43.8240746" lon="12.2479997"><ele>353.0</ele><time>2026-04-12T15:30:24.888Z</time></trkpt><trkpt lat="43.8242183" lon="12.2481478"><ele>349.0</ele><time>2026-04-12T15:30:25.896Z</time></trkpt><trkpt lat="43.8243446" lon="12.2483283"><ele>345.0</ele><time>2026-04-12T15:30:26.881Z</time></trkpt><trkpt lat="43.824458" lon="12.2485239"><ele>341.0</ele><time>2026-04-12T15:30:27.891Z</time></trkpt><trkpt lat="43.824572" lon="12.2487173"><ele>341.0</ele><time>2026-04-12T15:30:28.879Z</time></trkpt><trkpt lat="43.8246757" lon="12.2489158"><ele>341.0</ele><time>2026-04-12T15:30:29.98Z</time></trkpt><trkpt lat="43.8247849" lon="12.2491165"><ele>341.0</ele><time>2026-04-12T15:30:30.891Z</time></trkpt><trkpt lat="43.8248946" lon="12.249328"><ele>341.33333333333337</ele><time>2026-04-12T15:30:31.885Z</time></trkpt><trkpt lat="43.8250047" lon="12.2495295"><ele>341.6666666666667</ele><time>2026-04-12T15:30:32.894Z</time></trkpt><trkpt lat="43.8251142" lon="12.2497352"><ele>342.0</ele><time>2026-04-12T15:30:33.889Z</time></trkpt><trkpt lat="43.8252303" lon="12.249951"><ele>339.3333333333333</ele><time>2026-04-12T15:30:34.881Z</time></trkpt><trkpt lat="43.8253508" lon="12.2501777"><ele>336.66666666666663</ele><time>2026-04-12T15:30:35.887Z</time></trkpt><trkpt lat="43.8254733" lon="12.250416"><ele>334.0</ele><time>2026-04-12T15:30:36.897Z</time></trkpt><trkpt lat="43.8255985" lon="12.2506583"><ele>334.0</ele><time>2026-04-12T15:30:37.888Z</time></trkpt><trkpt lat="43.8257267" lon="12.2509053"><ele>334.0</ele><time>2026-04-12T15:30:38.902Z</time></trkpt><trkpt lat="43.8258589" lon="12.2511544"><ele>334.0</ele><time>2026-04-12T15:30:39.896Z</time></trkpt><trkpt lat="43.8259882" lon="12.2514061"><ele>331.5</ele><time>2026-04-12T15:30:40.881Z</time></trkpt><trkpt lat="43.8261224" lon="12.2516643"><ele>329.0</ele><time>2026-04-12T15:30:41.899Z</time></trkpt><trkpt lat="43.8262647" lon="12.2519352"><ele>329.0</ele><time>2026-04-12T15:30:42.887Z</time></trkpt><trkpt lat="43.8264227" lon="12.2522319"><ele>329.0</ele><time>2026-04-12T15:30:43.903Z</time></trkpt><trkpt lat="43.8265838" lon="12.2525354"><ele>328.0</ele><time>2026-04-12T15:30:44.897Z</time></trkpt><trkpt lat="43.8267363" lon="12.2528188"><ele>327.0</ele><time>2026-04-12T15:30:45.894Z</time></trkpt><trkpt lat="43.8268738" lon="12.2530805"><ele>327.0</ele><time>2026-04-12T15:30:46.893Z</time></trkpt><trkpt lat="43.8270043" lon="12.2533347"><ele>327.0</ele><time>2026-04-12T15:30:47.885Z</time></trkpt><trkpt lat="43.8271371" lon="12.2535905"><ele>327.0</ele><time>2026-04-12T15:30:48.908Z</time></trkpt><trkpt lat="43.8272693" lon="12.2538459"><ele>327.0</ele><time>2026-04-12T15:30:49.882Z</time></trkpt><trkpt lat="43.8273992" lon="12.2540988"><ele>326.5</ele><time>2026-04-12T15:30:50.894Z</time></trkpt><trkpt lat="43.827531" lon="12.2543558"><ele>326.0</ele><time>2026-04-12T15:30:51.897Z</time></trkpt><trkpt lat="43.8276605" lon="12.2546179"><ele>327.5</ele><time>2026-04-12T15:30:52.898Z</time></trkpt><trkpt lat="43.8277967" lon="12.2548832"><ele>329.0</ele><time>2026-04-12T15:30:53.887Z</time></trkpt><trkpt lat="43.8279332" lon="12.2551521"><ele>329.0</ele><time>2026-04-12T15:30:54.898Z</time></trkpt><trkpt lat="43.8280707" lon="12.2554231"><ele>329.0</ele><time>2026-04-12T15:30:55.89Z</time></trkpt><trkpt lat="43.8282097" lon="12.2556903"><ele>328.0</ele><time>2026-04-12T15:30:56.9Z</time></trkpt><trkpt lat="43.8283476" lon="12.2559596"><ele>327.0</ele><time>2026-04-12T15:30:57.887Z</time></trkpt><trkpt lat="43.8284841" lon="12.2562261"><ele>331.0</ele><time>2026-04-12T15:30:58.895Z</time></trkpt><trkpt lat="43.8286233" lon="12.2564971"><ele>335.0</ele><time>2026-04-12T15:30:59.892Z</time></trkpt><trkpt lat="43.8287603" lon="12.2567582"><ele>335.0</ele><time>2026-04-12T15:31:01.004Z</time></trkpt><trkpt lat="43.8290273" lon="12.2572606"><ele>334.0</ele><time>2026-04-12T15:31:02.895Z</time></trkpt><trkpt lat="43.8291473" lon="12.2574815"><ele>333.0</ele><time>2026-04-12T15:31:03.894Z</time></trkpt><trkpt lat="43.8292598" lon="12.257699"><ele>332.0</ele><time>2026-04-12T15:31:04.878Z</time></trkpt><trkpt lat="43.8293662" lon="12.2579211"><ele>333.6666666666667</ele><time>2026-04-12T15:31:05.893Z</time></trkpt><trkpt lat="43.82947" lon="12.2581555"><ele>335.3333333333333</ele><time>2026-04-12T15:31:06.894Z</time></trkpt><trkpt lat="43.829563" lon="12.2583977"><ele>337.0</ele><time>2026-04-12T15:31:07.892Z</time></trkpt><trkpt lat="43.8296488" lon="12.2586418"><ele>337.0</ele><time>2026-04-12T15:31:08.89Z</time></trkpt><trkpt lat="43.8297269" lon="12.2589005"><ele>337.0</ele><time>2026-04-12T15:31:09.886Z</time></trkpt><trkpt lat="43.8298017" lon="12.2591744"><ele>337.0</ele><time>2026-04-12T15:31:10.893Z</time></trkpt><trkpt lat="43.8298647" lon="12.2594591"><ele>337.0</ele><time>2026-04-12T15:31:11.898Z</time></trkpt><trkpt lat="43.8299185" lon="12.2597572"><ele>337.0</ele><time>2026-04-12T15:31:12.896Z</time></trkpt><trkpt lat="43.8299665" lon="12.2600628"><ele>337.0</ele><time>2026-04-12T15:31:13.883Z</time></trkpt><trkpt lat="43.8300084" lon="12.2603858"><ele>341.0</ele><time>2026-04-12T15:31:14.998Z</time></trkpt><trkpt lat="43.8300393" lon="12.2607163"><ele>345.0</ele><time>2026-04-12T15:31:15.892Z</time></trkpt><trkpt lat="43.8300581" lon="12.2610218"><ele>345.0</ele><time>2026-04-12T15:31:16.904Z</time></trkpt><trkpt lat="43.8300724" lon="12.2612972"><ele>345.0</ele><time>2026-04-12T15:31:17.895Z</time></trkpt><trkpt lat="43.8300967" lon="12.2615513"><ele>345.0</ele><time>2026-04-12T15:31:18.891Z</time></trkpt><trkpt lat="43.8301537" lon="12.2617922"><ele>344.3333333333333</ele><time>2026-04-12T15:31:19.895Z</time></trkpt><trkpt lat="43.8302381" lon="12.2620022"><ele>343.66666666666663</ele><time>2026-04-12T15:31:20.904Z</time></trkpt><trkpt lat="43.8303707" lon="12.2621819"><ele>343.0</ele><time>2026-04-12T15:31:21.89Z</time></trkpt><trkpt lat="43.830536" lon="12.2622878"><ele>345.3333333333333</ele><time>2026-04-12T15:31:22.895Z</time></trkpt><trkpt lat="43.8307291" lon="12.2623327"><ele>347.6666666666667</ele><time>2026-04-12T15:31:23.884Z</time></trkpt><trkpt lat="43.8309445" lon="12.2623331"><ele>350.0</ele><time>2026-04-12T15:31:24.891Z</time></trkpt><trkpt lat="43.8311665" lon="12.2622778"><ele>350.0</ele><time>2026-04-12T15:31:25.892Z</time></trkpt><trkpt lat="43.831407" lon="12.2621673"><ele>350.0</ele><time>2026-04-12T15:31:26.889Z</time></trkpt><trkpt lat="43.8316541" lon="12.262027"><ele>351.0</ele><time>2026-04-12T15:31:27.897Z</time></trkpt><trkpt lat="43.8318981" lon="12.2619228"><ele>352.0</ele><time>2026-04-12T15:31:28.891Z</time></trkpt><trkpt lat="43.832119" lon="12.2618372"><ele>352.0</ele><time>2026-04-12T15:31:29.874Z</time></trkpt><trkpt lat="43.8323457" lon="12.2617758"><ele>352.0</ele><time>2026-04-12T15:31:30.902Z</time></trkpt><trkpt lat="43.8325942" lon="12.261751"><ele>352.5</ele><time>2026-04-12T15:31:31.882Z</time></trkpt><trkpt lat="43.8328432" lon="12.26177"><ele>353.0</ele><time>2026-04-12T15:31:32.885Z</time></trkpt><trkpt lat="43.8330981" lon="12.2618053"><ele>353.0</ele><time>2026-04-12T15:31:33.886Z</time></trkpt><trkpt lat="43.8333569" lon="12.2618483"><ele>353.0</ele><time>2026-04-12T15:31:34.896Z</time></trkpt><trkpt lat="43.833608" lon="12.2618973"><ele>353.0</ele><time>2026-04-12T15:31:35.89Z</time></trkpt><trkpt lat="43.8338489" lon="12.2619404"><ele>353.0</ele><time>2026-04-12T15:31:36.883Z</time></trkpt><trkpt lat="43.8340862" lon="12.2619912"><ele>352.5</ele><time>2026-04-12T15:31:37.982Z</time></trkpt><trkpt lat="43.8343127" lon="12.262039"><ele>352.0</ele><time>2026-04-12T15:31:38.895Z</time></trkpt><trkpt lat="43.8345334" lon="12.2620982"><ele>352.0</ele><time>2026-04-12T15:31:39.893Z</time></trkpt><trkpt lat="43.8347535" lon="12.2621607"><ele>352.0</ele><time>2026-04-12T15:31:40.89Z</time></trkpt><trkpt lat="43.8349759" lon="12.2621971"><ele>352.0</ele><time>2026-04-12T15:31:41.893Z</time></trkpt><trkpt lat="43.8351972" lon="12.2621978"><ele>354.5</ele><time>2026-04-12T15:31:42.888Z</time></trkpt><trkpt lat="43.8354245" lon="12.2621549"><ele>357.0</ele><time>2026-04-12T15:31:43.881Z</time></trkpt><trkpt lat="43.8356446" lon="12.2620908"><ele>357.0</ele><time>2026-04-12T15:31:44.894Z</time></trkpt><trkpt lat="43.8358676" lon="12.2620355"><ele>357.0</ele><time>2026-04-12T15:31:45.892Z</time></trkpt><trkpt lat="43.8360885" lon="12.2620187"><ele>357.0</ele><time>2026-04-12T15:31:46.885Z</time></trkpt><trkpt lat="43.8363057" lon="12.2620379"><ele>355.3333333333333</ele><time>2026-04-12T15:31:47.89Z</time></trkpt><trkpt lat="43.8365167" lon="12.2620853"><ele>353.66666666666663</ele><time>2026-04-12T15:31:48.89Z</time></trkpt><trkpt lat="43.836721" lon="12.2621707"><ele>352.0</ele><time>2026-04-12T15:31:49.888Z</time></trkpt><trkpt lat="43.8369277" lon="12.2622723"><ele>352.3333333333333</ele><time>2026-04-12T15:31:50.887Z</time></trkpt><trkpt lat="43.8371225" lon="12.262402"><ele>352.6666666666667</ele><time>2026-04-12T15:31:51.894Z</time></trkpt><trkpt lat="43.8373081" lon="12.2625606"><ele>353.0</ele><time>2026-04-12T15:31:52.893Z</time></trkpt><trkpt lat="43.8374789" lon="12.2627471"><ele>353.0</ele><time>2026-04-12T15:31:53.885Z</time></trkpt><trkpt lat="43.8376375" lon="12.2629675"><ele>353.0</ele><time>2026-04-12T15:31:54.884Z</time></trkpt><trkpt lat="43.8377934" lon="12.2632029"><ele>353.0</ele><time>2026-04-12T15:31:55.9Z</time></trkpt><trkpt lat="43.8379481" lon="12.2634398"><ele>353.0</ele><time>2026-04-12T15:31:56.889Z</time></trkpt><trkpt lat="43.8381089" lon="12.2636808"><ele>353.0</ele><time>2026-04-12T15:31:57.888Z</time></trkpt><trkpt lat="43.8382733" lon="12.2639243"><ele>353.0</ele><time>2026-04-12T15:31:58.889Z</time></trkpt><trkpt lat="43.8384383" lon="12.2641734"><ele>347.5</ele><time>2026-04-12T15:31:59.897Z</time></trkpt><trkpt lat="43.8386117" lon="12.2644186"><ele>342.0</ele><time>2026-04-12T15:32:00.911Z</time></trkpt><trkpt lat="43.8387843" lon="12.2646654"><ele>346.0</ele><time>2026-04-12T15:32:01.884Z</time></trkpt><trkpt lat="43.8389505" lon="12.2649129"><ele>350.0</ele><time>2026-04-12T15:32:02.89Z</time></trkpt><trkpt lat="43.8391175" lon="12.2651551"><ele>350.0</ele><time>2026-04-12T15:32:03.888Z</time></trkpt><trkpt lat="43.839288" lon="12.2654036"><ele>350.0</ele><time>2026-04-12T15:32:04.896Z</time></trkpt><trkpt lat="43.8394607" lon="12.2656513"><ele>347.5</ele><time>2026-04-12T15:32:05.895Z</time></trkpt><trkpt lat="43.8396309" lon="12.265903"><ele>345.0</ele><time>2026-04-12T15:32:06.898Z</time></trkpt><trkpt lat="43.8398016" lon="12.2661556"><ele>345.0</ele><time>2026-04-12T15:32:07.91Z</time></trkpt><trkpt lat="43.8399705" lon="12.2664022"><ele>345.0</ele><time>2026-04-12T15:32:08.89Z</time></trkpt><trkpt lat="43.8401271" lon="12.2666341"><ele>343.0</ele><time>2026-04-12T15:32:09.894Z</time></trkpt><trkpt lat="43.8402715" lon="12.266843"><ele>341.0</ele><time>2026-04-12T15:32:10.897Z</time></trkpt><trkpt lat="43.8404023" lon="12.2670454"><ele>339.0</ele><time>2026-04-12T15:32:11.901Z</time></trkpt><trkpt lat="43.8405201" lon="12.267263"><ele>343.5</ele><time>2026-04-12T15:32:13.003Z</time></trkpt><trkpt lat="43.840712" lon="12.2677772"><ele>348.0</ele><time>2026-04-12T15:32:14.891Z</time></trkpt><trkpt lat="43.8407875" lon="12.2680323"><ele>347.0</ele><time>2026-04-12T15:32:15.994Z</time></trkpt><trkpt lat="43.8409484" lon="12.2684897"><ele>346.0</ele><time>2026-04-12T15:32:17.902Z</time></trkpt><trkpt lat="43.8410606" lon="12.2686664"><ele>346.0</ele><time>2026-04-12T15:32:18.883Z</time></trkpt><trkpt lat="43.8412046" lon="12.2688048"><ele>346.0</ele><time>2026-04-12T15:32:19.897Z</time></trkpt><trkpt lat="43.8413711" lon="12.2689"><ele>346.0</ele><time>2026-04-12T15:32:20.901Z</time></trkpt><trkpt lat="43.8415477" lon="12.2689507"><ele>344.66666666666663</ele><time>2026-04-12T15:32:21.882Z</time></trkpt><trkpt lat="43.841738" lon="12.2689545"><ele>343.3333333333333</ele><time>2026-04-12T15:32:22.892Z</time></trkpt><trkpt lat="43.8419235" lon="12.2689083"><ele>342.0</ele><time>2026-04-12T15:32:23.891Z</time></trkpt><trkpt lat="43.8420868" lon="12.2688361"><ele>342.0</ele><time>2026-04-12T15:32:24.908Z</time></trkpt><trkpt lat="43.8422427" lon="12.2687656"><ele>342.0</ele><time>2026-04-12T15:32:25.904Z</time></trkpt><trkpt lat="43.8424082" lon="12.2686995"><ele>342.0</ele><time>2026-04-12T15:32:26.971Z</time></trkpt><trkpt lat="43.8425753" lon="12.2686607"><ele>337.0</ele><time>2026-04-12T15:32:27.895Z</time></trkpt><trkpt lat="43.842735" lon="12.2686805"><ele>332.0</ele><time>2026-04-12T15:32:28.898Z</time></trkpt><trkpt lat="43.8428596" lon="12.2687943"><ele>327.0</ele><time>2026-04-12T15:32:29.89Z</time></trkpt><trkpt lat="43.8429424" lon="12.2689653"><ele>327.0</ele><time>2026-04-12T15:32:30.889Z</time></trkpt><trkpt lat="43.8430047" lon="12.269166"><ele>327.0</ele><time>2026-04-12T15:32:31.894Z</time></trkpt><trkpt lat="43.8430374" lon="12.2693645"><ele>327.0</ele><time>2026-04-12T15:32:32.884Z</time></trkpt><trkpt lat="43.8430382" lon="12.2695593"><ele>327.0</ele><time>2026-04-12T15:32:33.894Z</time></trkpt><trkpt lat="43.8430076" lon="12.2697518"><ele>328.25</ele><time>2026-04-12T15:32:34.89Z</time></trkpt><trkpt lat="43.8429542" lon="12.269942"><ele>329.5</ele><time>2026-04-12T15:32:35.887Z</time></trkpt><trkpt lat="43.8428856" lon="12.2701093"><ele>330.75</ele><time>2026-04-12T15:32:36.892Z</time></trkpt><trkpt lat="43.8427984" lon="12.2702784"><ele>332.0</ele><time>2026-04-12T15:32:37.891Z</time></trkpt><trkpt lat="43.8427103" lon="12.2704311"><ele>338.5</ele><time>2026-04-12T15:32:38.898Z</time></trkpt><trkpt lat="43.8426194" lon="12.2705678"><ele>345.0</ele><time>2026-04-12T15:32:39.885Z</time></trkpt><trkpt lat="43.8425277" lon="12.2707104"><ele>351.5</ele><time>2026-04-12T15:32:40.894Z</time></trkpt><trkpt lat="43.8424376" lon="12.2708529"><ele>358.0</ele><time>2026-04-12T15:32:41.888Z</time></trkpt><trkpt lat="43.8423604" lon="12.271028"><ele>358.0</ele><time>2026-04-12T15:32:42.893Z</time></trkpt><trkpt lat="43.8422972" lon="12.2712552"><ele>358.0</ele><time>2026-04-12T15:32:43.872Z</time></trkpt><trkpt lat="43.8422547" lon="12.2715092"><ele>358.0</ele><time>2026-04-12T15:32:44.886Z</time></trkpt><trkpt lat="43.8422218" lon="12.2717692"><ele>355.0</ele><time>2026-04-12T15:32:45.884Z</time></trkpt><trkpt lat="43.8421901" lon="12.2720193"><ele>352.0</ele><time>2026-04-12T15:32:46.879Z</time></trkpt><trkpt lat="43.8421597" lon="12.2722634"><ele>349.0</ele><time>2026-04-12T15:32:47.9Z</time></trkpt><trkpt lat="43.8421364" lon="12.2724837"><ele>348.3333333333333</ele><time>2026-04-12T15:32:48.881Z</time></trkpt><trkpt lat="43.8421115" lon="12.2727001"><ele>347.6666666666667</ele><time>2026-04-12T15:32:49.889Z</time></trkpt><trkpt lat="43.8420873" lon="12.2729099"><ele>347.0</ele><time>2026-04-12T15:32:50.878Z</time></trkpt><trkpt lat="43.8420666" lon="12.2731162"><ele>347.0</ele><time>2026-04-12T15:32:51.877Z</time></trkpt><trkpt lat="43.8420512" lon="12.2733109"><ele>347.0</ele><time>2026-04-12T15:32:52.884Z</time></trkpt><trkpt lat="43.8420403" lon="12.2734942"><ele>347.0</ele><time>2026-04-12T15:32:53.892Z</time></trkpt><trkpt lat="43.8420465" lon="12.2736764"><ele>347.0</ele><time>2026-04-12T15:32:54.897Z</time></trkpt><trkpt lat="43.8420775" lon="12.2738488"><ele>348.0</ele><time>2026-04-12T15:32:55.884Z</time></trkpt><trkpt lat="43.8421324" lon="12.2740179"><ele>349.0</ele><time>2026-04-12T15:32:56.879Z</time></trkpt><trkpt lat="43.8422063" lon="12.2741915"><ele>350.0</ele><time>2026-04-12T15:32:57.9Z</time></trkpt><trkpt lat="43.8423079" lon="12.2743603"><ele>351.0</ele><time>2026-04-12T15:32:58.879Z</time></trkpt><trkpt lat="43.8424311" lon="12.2745358"><ele>351.0</ele><time>2026-04-12T15:32:59.888Z</time></trkpt><trkpt lat="43.8425644" lon="12.2747183"><ele>351.0</ele><time>2026-04-12T15:33:00.886Z</time></trkpt><trkpt lat="43.8427107" lon="12.2749079"><ele>351.0</ele><time>2026-04-12T15:33:01.902Z</time></trkpt><trkpt lat="43.84286" lon="12.2751059"><ele>351.3333333333333</ele><time>2026-04-12T15:33:02.882Z</time></trkpt><trkpt lat="43.8430013" lon="12.2753149"><ele>351.66666666666663</ele><time>2026-04-12T15:33:03.887Z</time></trkpt><trkpt lat="43.8431446" lon="12.2755198"><ele>352.0</ele><time>2026-04-12T15:33:04.882Z</time></trkpt><trkpt lat="43.8432916" lon="12.275717"><ele>352.0</ele><time>2026-04-12T15:33:05.891Z</time></trkpt><trkpt lat="43.8434483" lon="12.2758905"><ele>352.0</ele><time>2026-04-12T15:33:06.892Z</time></trkpt><trkpt lat="43.8436214" lon="12.276031"><ele>352.0</ele><time>2026-04-12T15:33:07.893Z</time></trkpt><trkpt lat="43.8438172" lon="12.2761359"><ele>350.66666666666663</ele><time>2026-04-12T15:33:08.893Z</time></trkpt><trkpt lat="43.8440251" lon="12.2762179"><ele>349.3333333333333</ele><time>2026-04-12T15:33:09.883Z</time></trkpt><trkpt lat="43.8442337" lon="12.2762943"><ele>348.0</ele><time>2026-04-12T15:33:10.892Z</time></trkpt><trkpt lat="43.8444256" lon="12.2763668"><ele>347.3333333333333</ele><time>2026-04-12T15:33:11.887Z</time></trkpt><trkpt lat="43.844592" lon="12.276442"><ele>346.66666666666663</ele><time>2026-04-12T15:33:12.91Z</time></trkpt><trkpt lat="43.8447425" lon="12.276528"><ele>346.0</ele><time>2026-04-12T15:33:13.892Z</time></trkpt><trkpt lat="43.8448788" lon="12.2766265"><ele>346.0</ele><time>2026-04-12T15:33:14.893Z</time></trkpt><trkpt lat="43.8449949" lon="12.2767595"><ele>346.0</ele><time>2026-04-12T15:33:15.881Z</time></trkpt><trkpt lat="43.8450844" lon="12.2769079"><ele>346.0</ele><time>2026-04-12T15:33:16.906Z</time></trkpt><trkpt lat="43.8451575" lon="12.2770602"><ele>346.0</ele><time>2026-04-12T15:33:17.893Z</time></trkpt><trkpt lat="43.8452166" lon="12.2772095"><ele>344.0</ele><time>2026-04-12T15:33:18.881Z</time></trkpt><trkpt lat="43.845271" lon="12.2773539"><ele>342.0</ele><time>2026-04-12T15:33:19.887Z</time></trkpt><trkpt lat="43.845323" lon="12.2775043"><ele>340.0</ele><time>2026-04-12T15:33:20.891Z</time></trkpt><trkpt lat="43.8453781" lon="12.2776575"><ele>338.0</ele><time>2026-04-12T15:33:21.888Z</time></trkpt><trkpt lat="43.8454313" lon="12.2777912"><ele>338.0</ele><time>2026-04-12T15:33:22.888Z</time></trkpt><trkpt lat="43.845494" lon="12.2779175"><ele>338.0</ele><time>2026-04-12T15:33:23.894Z</time></trkpt><trkpt lat="43.8455681" lon="12.2780387"><ele>338.0</ele><time>2026-04-12T15:33:24.979Z</time></trkpt><trkpt lat="43.8456504" lon="12.2781462"><ele>338.0</ele><time>2026-04-12T15:33:25.896Z</time></trkpt><trkpt lat="43.8457433" lon="12.2782338"><ele>339.25</ele><time>2026-04-12T15:33:26.895Z</time></trkpt><trkpt lat="43.845849" lon="12.2782949"><ele>340.5</ele><time>2026-04-12T15:33:27.89Z</time></trkpt><trkpt lat="43.8459757" lon="12.2783171"><ele>341.75</ele><time>2026-04-12T15:33:28.885Z</time></trkpt><trkpt lat="43.8461308" lon="12.2783137"><ele>343.0</ele><time>2026-04-12T15:33:29.872Z</time></trkpt><trkpt lat="43.8463086" lon="12.2783061"><ele>343.3333333333333</ele><time>2026-04-12T15:33:30.892Z</time></trkpt><trkpt lat="43.8464975" lon="12.2783099"><ele>343.6666666666667</ele><time>2026-04-12T15:33:31.889Z</time></trkpt><trkpt lat="43.8466949" lon="12.2783122"><ele>344.0</ele><time>2026-04-12T15:33:32.892Z</time></trkpt><trkpt lat="43.8468989" lon="12.2783152"><ele>345.0</ele><time>2026-04-12T15:33:33.888Z</time></trkpt><trkpt lat="43.8471065" lon="12.2782926"><ele>346.0</ele><time>2026-04-12T15:33:34.887Z</time></trkpt><trkpt lat="43.8473189" lon="12.2782356"><ele>347.0</ele><time>2026-04-12T15:33:35.989Z</time></trkpt><trkpt lat="43.8475231" lon="12.2781203"><ele>345.5</ele><time>2026-04-12T15:33:36.893Z</time></trkpt><trkpt lat="43.8477215" lon="12.2779352"><ele>344.0</ele><time>2026-04-12T15:33:37.989Z</time></trkpt><trkpt lat="43.8480555" lon="12.2774676"><ele>344.0</ele><time>2026-04-12T15:33:39.898Z</time></trkpt><trkpt lat="43.8482119" lon="12.2772796"><ele>344.0</ele><time>2026-04-12T15:33:40.885Z</time></trkpt><trkpt lat="43.8483815" lon="12.2771443"><ele>344.0</ele><time>2026-04-12T15:33:41.883Z</time></trkpt><trkpt lat="43.8485607" lon="12.2770571"><ele>339.0</ele><time>2026-04-12T15:33:42.883Z</time></trkpt><trkpt lat="43.8487545" lon="12.2769979"><ele>334.0</ele><time>2026-04-12T15:33:43.904Z</time></trkpt><trkpt lat="43.8489691" lon="12.2769758"><ele>329.0</ele><time>2026-04-12T15:33:44.886Z</time></trkpt><trkpt lat="43.849194" lon="12.2769838"><ele>332.5</ele><time>2026-04-12T15:33:45.884Z</time></trkpt><trkpt lat="43.8494267" lon="12.2769882"><ele>336.0</ele><time>2026-04-12T15:33:46.886Z</time></trkpt><trkpt lat="43.8496492" lon="12.2769959"><ele>336.0</ele><time>2026-04-12T15:33:47.877Z</time></trkpt><trkpt lat="43.8498623" lon="12.2769981"><ele>336.0</ele><time>2026-04-12T15:33:48.88Z</time></trkpt><trkpt lat="43.8500621" lon="12.2769699"><ele>336.0</ele><time>2026-04-12T15:33:49.875Z</time></trkpt><trkpt lat="43.8502631" lon="12.2768815"><ele>339.0</ele><time>2026-04-12T15:33:50.877Z</time></trkpt><trkpt lat="43.8504711" lon="12.2767326"><ele>342.0</ele><time>2026-04-12T15:33:51.891Z</time></trkpt><trkpt lat="43.8506965" lon="12.2765503"><ele>339.0</ele><time>2026-04-12T15:33:52.873Z</time></trkpt><trkpt lat="43.8509224" lon="12.2763658"><ele>336.0</ele><time>2026-04-12T15:33:53.881Z</time></trkpt><trkpt lat="43.8511342" lon="12.2761974"><ele>336.0</ele><time>2026-04-12T15:33:54.896Z</time></trkpt><trkpt lat="43.8513201" lon="12.2760538"><ele>336.0</ele><time>2026-04-12T15:33:55.884Z</time></trkpt><trkpt lat="43.8514931" lon="12.2759373"><ele>336.0</ele><time>2026-04-12T15:33:56.885Z</time></trkpt><trkpt lat="43.8516668" lon="12.2758488"><ele>333.0</ele><time>2026-04-12T15:33:57.891Z</time></trkpt><trkpt lat="43.8518373" lon="12.2758066"><ele>330.0</ele><time>2026-04-12T15:33:58.873Z</time></trkpt><trkpt lat="43.8520181" lon="12.2758559"><ele>327.0</ele><time>2026-04-12T15:33:59.895Z</time></trkpt><trkpt lat="43.8522076" lon="12.2759605"><ele>327.0</ele><time>2026-04-12T15:34:00.867Z</time></trkpt><trkpt lat="43.8523862" lon="12.2761483"><ele>327.0</ele><time>2026-04-12T15:34:01.894Z</time></trkpt><trkpt lat="43.8525784" lon="12.2763536"><ele>327.5</ele><time>2026-04-12T15:34:02.878Z</time></trkpt><trkpt lat="43.8527684" lon="12.2765577"><ele>328.0</ele><time>2026-04-12T15:34:03.886Z</time></trkpt><trkpt lat="43.8529735" lon="12.2767486"><ele>328.0</ele><time>2026-04-12T15:34:04.883Z</time></trkpt><trkpt lat="43.8531735" lon="12.2769356"><ele>328.0</ele><time>2026-04-12T15:34:05.889Z</time></trkpt><trkpt lat="43.853375" lon="12.2771261"><ele>327.0</ele><time>2026-04-12T15:34:06.893Z</time></trkpt><trkpt lat="43.8535769" lon="12.2773124"><ele>326.0</ele><time>2026-04-12T15:34:07.896Z</time></trkpt><trkpt lat="43.8537758" lon="12.2774845"><ele>326.0</ele><time>2026-04-12T15:34:08.887Z</time></trkpt><trkpt lat="43.8539643" lon="12.2776399"><ele>326.0</ele><time>2026-04-12T15:34:09.891Z</time></trkpt><trkpt lat="43.854143" lon="12.2777886"><ele>326.0</ele><time>2026-04-12T15:34:10.887Z</time></trkpt><trkpt lat="43.8543108" lon="12.2779393"><ele>325.0</ele><time>2026-04-12T15:34:11.893Z</time></trkpt><trkpt lat="43.8544683" lon="12.2780947"><ele>324.0</ele><time>2026-04-12T15:34:12.968Z</time></trkpt><trkpt lat="43.8545848" lon="12.2782895"><ele>323.0</ele><time>2026-04-12T15:34:13.878Z</time></trkpt><trkpt lat="43.8546582" lon="12.2785352"><ele>323.0</ele><time>2026-04-12T15:34:14.899Z</time></trkpt><trkpt lat="43.8546883" lon="12.2787979"><ele>323.0</ele><time>2026-04-12T15:34:15.886Z</time></trkpt><trkpt lat="43.8547136" lon="12.2790271"><ele>323.0</ele><time>2026-04-12T15:34:16.878Z</time></trkpt><trkpt lat="43.8547176" lon="12.2792389"><ele>323.0</ele><time>2026-04-12T15:34:17.886Z</time></trkpt><trkpt lat="43.8546902" lon="12.2794335"><ele>323.0</ele><time>2026-04-12T15:34:18.874Z</time></trkpt><trkpt lat="43.8546356" lon="12.2796281"><ele>323.0</ele><time>2026-04-12T15:34:19.895Z</time></trkpt><trkpt lat="43.8545564" lon="12.2797999"><ele>323.0</ele><time>2026-04-12T15:34:20.967Z</time></trkpt><trkpt lat="43.8544567" lon="12.2799507"><ele>323.79999999999995</ele><time>2026-04-12T15:34:21.886Z</time></trkpt><trkpt lat="43.8543609" lon="12.2800734"><ele>324.6</ele><time>2026-04-12T15:34:22.897Z</time></trkpt><trkpt lat="43.8542753" lon="12.2801726"><ele>325.4</ele><time>2026-04-12T15:34:23.888Z</time></trkpt><trkpt lat="43.8541969" lon="12.2802657"><ele>326.20000000000005</ele><time>2026-04-12T15:34:24.878Z</time></trkpt><trkpt lat="43.8541275" lon="12.280342"><ele>327.0</ele><time>2026-04-12T15:34:25.89Z</time></trkpt><trkpt lat="43.8540784" lon="12.280433"><ele>327.0</ele><time>2026-04-12T15:34:26.889Z</time></trkpt><trkpt lat="43.8540427" lon="12.2805481"><ele>327.0</ele><time>2026-04-12T15:34:27.887Z</time></trkpt><trkpt lat="43.8540083" lon="12.2806869"><ele>327.0</ele><time>2026-04-12T15:34:28.882Z</time></trkpt><trkpt lat="43.8539761" lon="12.2808514"><ele>327.0</ele><time>2026-04-12T15:34:29.891Z</time></trkpt><trkpt lat="43.8539487" lon="12.2810301"><ele>325.75</ele><time>2026-04-12T15:34:30.877Z</time></trkpt><trkpt lat="43.8539232" lon="12.2812081"><ele>324.5</ele><time>2026-04-12T15:34:31.886Z</time></trkpt><trkpt lat="43.8538966" lon="12.2813711"><ele>323.25</ele><time>2026-04-12T15:34:32.888Z</time></trkpt><trkpt lat="43.8538733" lon="12.2815156"><ele>322.0</ele><time>2026-04-12T15:34:33.882Z</time></trkpt><trkpt lat="43.8538603" lon="12.2816421"><ele>322.0</ele><time>2026-04-12T15:34:34.888Z</time></trkpt><trkpt lat="43.8538697" lon="12.2817614"><ele>322.0</ele><time>2026-04-12T15:34:35.885Z</time></trkpt><trkpt lat="43.8538964" lon="12.281872"><ele>322.0</ele><time>2026-04-12T15:34:36.897Z</time></trkpt><trkpt lat="43.8539428" lon="12.2819736"><ele>322.0</ele><time>2026-04-12T15:34:37.881Z</time></trkpt><trkpt lat="43.8540023" lon="12.2820778"><ele>322.0</ele><time>2026-04-12T15:34:38.884Z</time></trkpt><trkpt lat="43.8540726" lon="12.2821895"><ele>322.8</ele><time>2026-04-12T15:34:39.896Z</time></trkpt><trkpt lat="43.8541457" lon="12.2822903"><ele>323.6</ele><time>2026-04-12T15:34:40.913Z</time></trkpt><trkpt lat="43.854232" lon="12.282362"><ele>324.40000000000003</ele><time>2026-04-12T15:34:41.891Z</time></trkpt><trkpt lat="43.854339" lon="12.2824043"><ele>325.20000000000005</ele><time>2026-04-12T15:34:42.908Z</time></trkpt><trkpt lat="43.8544692" lon="12.2824005"><ele>326.0</ele><time>2026-04-12T15:34:43.885Z</time></trkpt><trkpt lat="43.8546146" lon="12.282361"><ele>327.6666666666667</ele><time>2026-04-12T15:34:44.887Z</time></trkpt><trkpt lat="43.8547799" lon="12.2822988"><ele>329.3333333333333</ele><time>2026-04-12T15:34:45.881Z</time></trkpt><trkpt lat="43.8549518" lon="12.2822211"><ele>331.0</ele><time>2026-04-12T15:34:46.892Z</time></trkpt><trkpt lat="43.85514" lon="12.2821541"><ele>331.0</ele><time>2026-04-12T15:34:47.887Z</time></trkpt><trkpt lat="43.8553378" lon="12.2821153"><ele>331.0</ele><time>2026-04-12T15:34:48.875Z</time></trkpt><trkpt lat="43.8555346" lon="12.2820906"><ele>331.0</ele><time>2026-04-12T15:34:49.895Z</time></trkpt><trkpt lat="43.8557086" lon="12.2820367"><ele>331.0</ele><time>2026-04-12T15:34:50.876Z</time></trkpt><trkpt lat="43.8558568" lon="12.2819432"><ele>331.0</ele><time>2026-04-12T15:34:51.881Z</time></trkpt><trkpt lat="43.8559727" lon="12.2817888"><ele>331.0</ele><time>2026-04-12T15:34:52.883Z</time></trkpt><trkpt lat="43.8560443" lon="12.2815977"><ele>331.0</ele><time>2026-04-12T15:34:53.872Z</time></trkpt><trkpt lat="43.8560887" lon="12.2813635"><ele>331.0</ele><time>2026-04-12T15:34:54.912Z</time></trkpt><trkpt lat="43.8561355" lon="12.2811203"><ele>331.0</ele><time>2026-04-12T15:34:55.879Z</time></trkpt><trkpt lat="43.8562138" lon="12.2809303"><ele>331.0</ele><time>2026-04-12T15:34:56.974Z</time></trkpt><trkpt lat="43.8563276" lon="12.2807883"><ele>331.0</ele><time>2026-04-12T15:34:57.892Z</time></trkpt><trkpt lat="43.856471" lon="12.2806919"><ele>331.0</ele><time>2026-04-12T15:34:58.886Z</time></trkpt><trkpt lat="43.8566498" lon="12.2806179"><ele>326.66666666666663</ele><time>2026-04-12T15:34:59.881Z</time></trkpt><trkpt lat="43.8568488" lon="12.2805381"><ele>322.3333333333333</ele><time>2026-04-12T15:35:00.884Z</time></trkpt><trkpt lat="43.8570674" lon="12.2804599"><ele>318.0</ele><time>2026-04-12T15:35:01.882Z</time></trkpt><trkpt lat="43.8572829" lon="12.2803599"><ele>318.0</ele><time>2026-04-12T15:35:02.884Z</time></trkpt><trkpt lat="43.8574744" lon="12.2802501"><ele>318.0</ele><time>2026-04-12T15:35:03.886Z</time></trkpt><trkpt lat="43.8576487" lon="12.2801536"><ele>318.0</ele><time>2026-04-12T15:35:04.902Z</time></trkpt><trkpt lat="43.8578051" lon="12.2800628"><ele>318.75</ele><time>2026-04-12T15:35:05.895Z</time></trkpt><trkpt lat="43.8579454" lon="12.2799903"><ele>319.5</ele><time>2026-04-12T15:35:06.895Z</time></trkpt><trkpt lat="43.858073" lon="12.2799417"><ele>320.25</ele><time>2026-04-12T15:35:07.887Z</time></trkpt><trkpt lat="43.8581941" lon="12.2799088"><ele>321.0</ele><time>2026-04-12T15:35:08.899Z</time></trkpt><trkpt lat="43.8583162" lon="12.2798984"><ele>318.3333333333333</ele><time>2026-04-12T15:35:09.983Z</time></trkpt><trkpt lat="43.8585623" lon="12.2799591"><ele>315.66666666666663</ele><time>2026-04-12T15:35:11.895Z</time></trkpt><trkpt lat="43.8586763" lon="12.2800309"><ele>313.0</ele><time>2026-04-12T15:35:12.882Z</time></trkpt><trkpt lat="43.8587906" lon="12.2801199"><ele>313.0</ele><time>2026-04-12T15:35:13.894Z</time></trkpt><trkpt lat="43.8588955" lon="12.2802306"><ele>313.0</ele><time>2026-04-12T15:35:14.896Z</time></trkpt><trkpt lat="43.8589942" lon="12.2803791"><ele>313.0</ele><time>2026-04-12T15:35:15.885Z</time></trkpt><trkpt lat="43.8590931" lon="12.2805512"><ele>313.0</ele><time>2026-04-12T15:35:16.879Z</time></trkpt><trkpt lat="43.859186" lon="12.2807563"><ele>313.0</ele><time>2026-04-12T15:35:17.879Z</time></trkpt><trkpt lat="43.8592762" lon="12.2809852"><ele>313.0</ele><time>2026-04-12T15:35:18.894Z</time></trkpt><trkpt lat="43.8593743" lon="12.2812374"><ele>313.0</ele><time>2026-04-12T15:35:19.876Z</time></trkpt><trkpt lat="43.8594839" lon="12.2814887"><ele>313.0</ele><time>2026-04-12T15:35:20.876Z</time></trkpt><trkpt lat="43.8596154" lon="12.2817389"><ele>313.0</ele><time>2026-04-12T15:35:21.877Z</time></trkpt><trkpt lat="43.8597764" lon="12.2819788"><ele>313.0</ele><time>2026-04-12T15:35:22.899Z</time></trkpt><trkpt lat="43.8599698" lon="12.2822037"><ele>313.0</ele><time>2026-04-12T15:35:23.886Z</time></trkpt><trkpt lat="43.8602024" lon="12.282418"><ele>311.5</ele><time>2026-04-12T15:35:24.879Z</time></trkpt><trkpt lat="43.8604583" lon="12.2826183"><ele>310.0</ele><time>2026-04-12T15:35:25.875Z</time></trkpt><trkpt lat="43.8607051" lon="12.2828039"><ele>310.0</ele><time>2026-04-12T15:35:26.883Z</time></trkpt><trkpt lat="43.8609326" lon="12.2829826"><ele>310.0</ele><time>2026-04-12T15:35:27.884Z</time></trkpt><trkpt lat="43.8611338" lon="12.2831853"><ele>311.0</ele><time>2026-04-12T15:35:28.9Z</time></trkpt><trkpt lat="43.8613119" lon="12.2833902"><ele>312.0</ele><time>2026-04-12T15:35:29.889Z</time></trkpt><trkpt lat="43.8614736" lon="12.2835671"><ele>313.0</ele><time>2026-04-12T15:35:30.972Z</time></trkpt><trkpt lat="43.8616362" lon="12.2836874"><ele>314.0</ele><time>2026-04-12T15:35:31.876Z</time></trkpt><trkpt lat="43.8618102" lon="12.2837249"><ele>315.0</ele><time>2026-04-12T15:35:32.899Z</time></trkpt><trkpt lat="43.8619961" lon="12.2836902"><ele>316.0</ele><time>2026-04-12T15:35:33.89Z</time></trkpt><trkpt lat="43.8622053" lon="12.2835776"><ele>316.0</ele><time>2026-04-12T15:35:34.891Z</time></trkpt><trkpt lat="43.8624044" lon="12.2834154"><ele>316.0</ele><time>2026-04-12T15:35:35.885Z</time></trkpt><trkpt lat="43.8625975" lon="12.2832475"><ele>315.66666666666663</ele><time>2026-04-12T15:35:36.884Z</time></trkpt><trkpt lat="43.8628003" lon="12.2831294"><ele>315.3333333333333</ele><time>2026-04-12T15:35:37.897Z</time></trkpt><trkpt lat="43.8630082" lon="12.2830854"><ele>315.0</ele><time>2026-04-12T15:35:38.886Z</time></trkpt><trkpt lat="43.8631952" lon="12.2830919"><ele>315.0</ele><time>2026-04-12T15:35:39.89Z</time></trkpt><trkpt lat="43.8633468" lon="12.2831826"><ele>315.0</ele><time>2026-04-12T15:35:40.893Z</time></trkpt><trkpt lat="43.863476" lon="12.2833635"><ele>315.0</ele><time>2026-04-12T15:35:41.893Z</time></trkpt><trkpt lat="43.8636002" lon="12.2835677"><ele>313.5</ele><time>2026-04-12T15:35:42.878Z</time></trkpt><trkpt lat="43.8637086" lon="12.2837361"><ele>312.0</ele><time>2026-04-12T15:35:43.902Z</time></trkpt><trkpt lat="43.8638227" lon="12.2838311"><ele>310.5</ele><time>2026-04-12T15:35:44.886Z</time></trkpt><trkpt lat="43.8639437" lon="12.2838355"><ele>309.0</ele><time>2026-04-12T15:35:45.873Z</time></trkpt><trkpt lat="43.8640798" lon="12.2837498"><ele>309.0</ele><time>2026-04-12T15:35:46.972Z</time></trkpt><trkpt lat="43.8642096" lon="12.2835965"><ele>309.0</ele><time>2026-04-12T15:35:47.878Z</time></trkpt><trkpt lat="43.86434" lon="12.2834178"><ele>309.0</ele><time>2026-04-12T15:35:48.886Z</time></trkpt><trkpt lat="43.8644645" lon="12.2832907"><ele>305.6666666666667</ele><time>2026-04-12T15:35:49.881Z</time></trkpt><trkpt lat="43.8646156" lon="12.2832362"><ele>302.33333333333337</ele><time>2026-04-12T15:35:50.871Z</time></trkpt><trkpt lat="43.8647811" lon="12.2833432"><ele>299.0</ele><time>2026-04-12T15:35:51.877Z</time></trkpt><trkpt lat="43.8649422" lon="12.2835132"><ele>299.0</ele><time>2026-04-12T15:35:52.875Z</time></trkpt><trkpt lat="43.8650914" lon="12.2836555"><ele>299.0</ele><time>2026-04-12T15:35:53.889Z</time></trkpt><trkpt lat="43.8652426" lon="12.2837242"><ele>299.0</ele><time>2026-04-12T15:35:54.96Z</time></trkpt><trkpt lat="43.8654059" lon="12.2837056"><ele>296.0</ele><time>2026-04-12T15:35:55.89Z</time></trkpt><trkpt lat="43.8655891" lon="12.283637"><ele>293.0</ele><time>2026-04-12T15:35:56.964Z</time></trkpt><trkpt lat="43.8657828" lon="12.2835306"><ele>290.0</ele><time>2026-04-12T15:35:57.891Z</time></trkpt><trkpt lat="43.8659707" lon="12.283445"><ele>287.6666666666667</ele><time>2026-04-12T15:35:58.889Z</time></trkpt><trkpt lat="43.8661725" lon="12.2834148"><ele>285.3333333333333</ele><time>2026-04-12T15:35:59.895Z</time></trkpt><trkpt lat="43.8663546" lon="12.2834452"><ele>283.0</ele><time>2026-04-12T15:36:00.88Z</time></trkpt><trkpt lat="43.8664725" lon="12.2836673"><ele>285.0</ele><time>2026-04-12T15:36:01.885Z</time></trkpt><trkpt lat="43.8665715" lon="12.2839586"><ele>287.0</ele><time>2026-04-12T15:36:02.886Z</time></trkpt><trkpt lat="43.8666708" lon="12.2842372"><ele>286.33333333333337</ele><time>2026-04-12T15:36:03.878Z</time></trkpt><trkpt lat="43.8667951" lon="12.2844886"><ele>285.6666666666667</ele><time>2026-04-12T15:36:04.904Z</time></trkpt><trkpt lat="43.8669239" lon="12.2847243"><ele>285.0</ele><time>2026-04-12T15:36:05.894Z</time></trkpt><trkpt lat="43.8670481" lon="12.2849306"><ele>285.0</ele><time>2026-04-12T15:36:06.979Z</time></trkpt><trkpt lat="43.8671734" lon="12.2850956"><ele>285.0</ele><time>2026-04-12T15:36:07.886Z</time></trkpt><trkpt lat="43.8673007" lon="12.2852101"><ele>285.0</ele><time>2026-04-12T15:36:08.905Z</time></trkpt><trkpt lat="43.8674338" lon="12.285253"><ele>285.0</ele><time>2026-04-12T15:36:09.895Z</time></trkpt><trkpt lat="43.8675774" lon="12.2852272"><ele>285.0</ele><time>2026-04-12T15:36:10.906Z</time></trkpt><trkpt lat="43.8677394" lon="12.285127"><ele>285.0</ele><time>2026-04-12T15:36:11.879Z</time></trkpt><trkpt lat="43.8679213" lon="12.2849743"><ele>282.0</ele><time>2026-04-12T15:36:12.89Z</time></trkpt><trkpt lat="43.8681394" lon="12.2848133"><ele>279.0</ele><time>2026-04-12T15:36:13.887Z</time></trkpt><trkpt lat="43.8683687" lon="12.2846554"><ele>282.5</ele><time>2026-04-12T15:36:14.878Z</time></trkpt><trkpt lat="43.8685955" lon="12.2844907"><ele>286.0</ele><time>2026-04-12T15:36:15.905Z</time></trkpt><trkpt lat="43.8688202" lon="12.2843262"><ele>286.0</ele><time>2026-04-12T15:36:16.878Z</time></trkpt><trkpt lat="43.8690506" lon="12.2841826"><ele>286.0</ele><time>2026-04-12T15:36:17.895Z</time></trkpt><trkpt lat="43.8692948" lon="12.284086"><ele>286.5</ele><time>2026-04-12T15:36:18.901Z</time></trkpt><trkpt lat="43.8695732" lon="12.2840226"><ele>287.0</ele><time>2026-04-12T15:36:19.887Z</time></trkpt><trkpt lat="43.8698626" lon="12.2840206"><ele>285.5</ele><time>2026-04-12T15:36:20.89Z</time></trkpt><trkpt lat="43.8701288" lon="12.2840461"><ele>284.0</ele><time>2026-04-12T15:36:21.886Z</time></trkpt><trkpt lat="43.870409" lon="12.2840477"><ele>284.0</ele><time>2026-04-12T15:36:22.904Z</time></trkpt><trkpt lat="43.8706994" lon="12.284025"><ele>284.0</ele><time>2026-04-12T15:36:23.879Z</time></trkpt><trkpt lat="43.871009" lon="12.2839486"><ele>289.0</ele><time>2026-04-12T15:36:24.891Z</time></trkpt><trkpt lat="43.8713026" lon="12.2838575"><ele>294.0</ele><time>2026-04-12T15:36:25.902Z</time></trkpt><trkpt lat="43.8715713" lon="12.2837845"><ele>292.0</ele><time>2026-04-12T15:36:26.874Z</time></trkpt><trkpt lat="43.8718319" lon="12.2837057"><ele>290.0</ele><time>2026-04-12T15:36:27.872Z</time></trkpt><trkpt lat="43.8720874" lon="12.2836147"><ele>290.0</ele><time>2026-04-12T15:36:28.903Z</time></trkpt><trkpt lat="43.8723439" lon="12.2835173"><ele>290.0</ele><time>2026-04-12T15:36:29.897Z</time></trkpt><trkpt lat="43.8725983" lon="12.2834173"><ele>290.0</ele><time>2026-04-12T15:36:30.891Z</time></trkpt><trkpt lat="43.872846" lon="12.2833168"><ele>290.0</ele><time>2026-04-12T15:36:31.884Z</time></trkpt><trkpt lat="43.8730844" lon="12.2831883"><ele>295.5</ele><time>2026-04-12T15:36:32.904Z</time></trkpt><trkpt lat="43.873312" lon="12.2830316"><ele>301.0</ele><time>2026-04-12T15:36:33.892Z</time></trkpt><trkpt lat="43.8735208" lon="12.282871"><ele>301.0</ele><time>2026-04-12T15:36:34.876Z</time></trkpt><trkpt lat="43.8737214" lon="12.2827405"><ele>301.0</ele><time>2026-04-12T15:36:35.892Z</time></trkpt><trkpt lat="43.8739214" lon="12.2826517"><ele>301.0</ele><time>2026-04-12T15:36:36.885Z</time></trkpt><trkpt lat="43.8741434" lon="12.2826123"><ele>304.0</ele><time>2026-04-12T15:36:37.886Z</time></trkpt><trkpt lat="43.8743758" lon="12.2825874"><ele>307.0</ele><time>2026-04-12T15:36:38.882Z</time></trkpt><trkpt lat="43.8746023" lon="12.2825657"><ele>307.0</ele><time>2026-04-12T15:36:39.897Z</time></trkpt><trkpt lat="43.8748165" lon="12.2825485"><ele>307.0</ele><time>2026-04-12T15:36:40.883Z</time></trkpt><trkpt lat="43.8750174" lon="12.282552"><ele>307.0</ele><time>2026-04-12T15:36:41.889Z</time></trkpt><trkpt lat="43.8752037" lon="12.2826283"><ele>306.66666666666663</ele><time>2026-04-12T15:36:42.901Z</time></trkpt><trkpt lat="43.8753741" lon="12.282763"><ele>306.3333333333333</ele><time>2026-04-12T15:36:43.877Z</time></trkpt><trkpt lat="43.8755171" lon="12.2829288"><ele>306.0</ele><time>2026-04-12T15:36:44.906Z</time></trkpt><trkpt lat="43.8756438" lon="12.2830871"><ele>305.0</ele><time>2026-04-12T15:36:45.88Z</time></trkpt><trkpt lat="43.875751" lon="12.2831676"><ele>304.0</ele><time>2026-04-12T15:36:46.894Z</time></trkpt><trkpt lat="43.8758559" lon="12.2831552"><ele>303.0</ele><time>2026-04-12T15:36:47.881Z</time></trkpt><trkpt lat="43.8759538" lon="12.2830633"><ele>302.0</ele><time>2026-04-12T15:36:48.893Z</time></trkpt><trkpt lat="43.876042" lon="12.282891"><ele>302.0</ele><time>2026-04-12T15:36:49.887Z</time></trkpt><trkpt lat="43.8761146" lon="12.2826715"><ele>302.0</ele><time>2026-04-12T15:36:50.896Z</time></trkpt><trkpt lat="43.876175" lon="12.2824351"><ele>302.0</ele><time>2026-04-12T15:36:51.887Z</time></trkpt><trkpt lat="43.8762628" lon="12.2822106"><ele>302.33333333333337</ele><time>2026-04-12T15:36:52.892Z</time></trkpt><trkpt lat="43.8763923" lon="12.2819989"><ele>302.6666666666667</ele><time>2026-04-12T15:36:53.891Z</time></trkpt><trkpt lat="43.8765519" lon="12.2818275"><ele>303.0</ele><time>2026-04-12T15:36:54.898Z</time></trkpt><trkpt lat="43.8767104" lon="12.2816723"><ele>304.0</ele><time>2026-04-12T15:36:55.895Z</time></trkpt><trkpt lat="43.8768404" lon="12.2815148"><ele>305.0</ele><time>2026-04-12T15:36:56.895Z</time></trkpt><trkpt lat="43.8769351" lon="12.2813452"><ele>306.0</ele><time>2026-04-12T15:36:57.889Z</time></trkpt><trkpt lat="43.8769794" lon="12.2811569"><ele>306.0</ele><time>2026-04-12T15:36:58.894Z</time></trkpt><trkpt lat="43.8769884" lon="12.2809552"><ele>306.0</ele><time>2026-04-12T15:36:59.871Z</time></trkpt><trkpt lat="43.8769914" lon="12.2807559"><ele>306.0</ele><time>2026-04-12T15:37:00.906Z</time></trkpt><trkpt lat="43.8770475" lon="12.2805869"><ele>306.0</ele><time>2026-04-12T15:37:01.882Z</time></trkpt><trkpt lat="43.8771757" lon="12.2804758"><ele>310.0</ele><time>2026-04-12T15:37:02.88Z</time></trkpt><trkpt lat="43.8773292" lon="12.2804057"><ele>314.0</ele><time>2026-04-12T15:37:03.901Z</time></trkpt><trkpt lat="43.8775091" lon="12.2803819"><ele>318.0</ele><time>2026-04-12T15:37:04.878Z</time></trkpt><trkpt lat="43.8776888" lon="12.2804273"><ele>317.3333333333333</ele><time>2026-04-12T15:37:05.892Z</time></trkpt><trkpt lat="43.8778844" lon="12.2805316"><ele>316.66666666666663</ele><time>2026-04-12T15:37:06.898Z</time></trkpt><trkpt lat="43.8780759" lon="12.280658"><ele>316.0</ele><time>2026-04-12T15:37:07.882Z</time></trkpt><trkpt lat="43.87826" lon="12.2807831"><ele>316.0</ele><time>2026-04-12T15:37:08.877Z</time></trkpt><trkpt lat="43.8784325" lon="12.2809072"><ele>316.0</ele><time>2026-04-12T15:37:09.878Z</time></trkpt><trkpt lat="43.878606" lon="12.2810336"><ele>316.0</ele><time>2026-04-12T15:37:10.873Z</time></trkpt><trkpt lat="43.8787792" lon="12.2811614"><ele>317.66666666666663</ele><time>2026-04-12T15:37:11.897Z</time></trkpt><trkpt lat="43.8789637" lon="12.2812669"><ele>319.3333333333333</ele><time>2026-04-12T15:37:12.88Z</time></trkpt><trkpt lat="43.8791533" lon="12.281354"><ele>321.0</ele><time>2026-04-12T15:37:13.893Z</time></trkpt><trkpt lat="43.8793477" lon="12.2814353"><ele>321.0</ele><time>2026-04-12T15:37:14.885Z</time></trkpt><trkpt lat="43.8795485" lon="12.2815198"><ele>321.0</ele><time>2026-04-12T15:37:15.901Z</time></trkpt><trkpt lat="43.87975" lon="12.281609"><ele>321.0</ele><time>2026-04-12T15:37:16.883Z</time></trkpt><trkpt lat="43.8799461" lon="12.2816946"><ele>327.0</ele><time>2026-04-12T15:37:17.883Z</time></trkpt><trkpt lat="43.8801292" lon="12.2817731"><ele>333.0</ele><time>2026-04-12T15:37:18.872Z</time></trkpt><trkpt lat="43.8803053" lon="12.2818531"><ele>339.0</ele><time>2026-04-12T15:37:19.972Z</time></trkpt><trkpt lat="43.8804741" lon="12.2819487"><ele>339.0</ele><time>2026-04-12T15:37:20.887Z</time></trkpt><trkpt lat="43.8806246" lon="12.2820776"><ele>339.0</ele><time>2026-04-12T15:37:21.881Z</time></trkpt><trkpt lat="43.8807533" lon="12.2822673"><ele>339.0</ele><time>2026-04-12T15:37:22.881Z</time></trkpt><trkpt lat="43.8808634" lon="12.2824621"><ele>338.3333333333333</ele><time>2026-04-12T15:37:23.893Z</time></trkpt><trkpt lat="43.8809702" lon="12.2826475"><ele>337.66666666666663</ele><time>2026-04-12T15:37:24.878Z</time></trkpt><trkpt lat="43.8810706" lon="12.2828083"><ele>337.0</ele><time>2026-04-12T15:37:25.887Z</time></trkpt><trkpt lat="43.8811526" lon="12.2829486"><ele>337.0</ele><time>2026-04-12T15:37:26.885Z</time></trkpt><trkpt lat="43.881224" lon="12.2830626"><ele>337.0</ele><time>2026-04-12T15:37:27.894Z</time></trkpt><trkpt lat="43.8812842" lon="12.2831666"><ele>337.0</ele><time>2026-04-12T15:37:28.892Z</time></trkpt><trkpt lat="43.8813424" lon="12.2832585"><ele>337.0</ele><time>2026-04-12T15:37:29.976Z</time></trkpt><trkpt lat="43.8813898" lon="12.2833369"><ele>337.0</ele><time>2026-04-12T15:37:30.883Z</time></trkpt><trkpt lat="43.8814672" lon="12.2834571"><ele>336.00000000000006</ele><time>2026-04-12T15:37:32.902Z</time></trkpt><trkpt lat="43.8815121" lon="12.283525"><ele>335.0</ele><time>2026-04-12T15:37:34.898Z</time></trkpt><trkpt lat="43.8815644" lon="12.2836026"><ele>334.0</ele><time>2026-04-12T15:37:37.896Z</time></trkpt><trkpt lat="43.8816069" lon="12.2836753"><ele>333.0</ele><time>2026-04-12T15:37:41.899Z</time></trkpt><trkpt lat="43.8816546" lon="12.2837596"><ele>332.0</ele><time>2026-04-12T15:37:49.908Z</time></trkpt><trkpt lat="43.8817105" lon="12.2838099"><ele>331.00000000000006</ele><time>2026-04-12T15:37:50.897Z</time></trkpt><trkpt lat="43.8817874" lon="12.2838583"><ele>330.0</ele><time>2026-04-12T15:37:51.892Z</time></trkpt><trkpt lat="43.881878" lon="12.2839103"><ele>327.75</ele><time>2026-04-12T15:37:52.903Z</time></trkpt><trkpt lat="43.8819887" lon="12.2839524"><ele>325.5</ele><time>2026-04-12T15:37:53.887Z</time></trkpt><trkpt lat="43.8821172" lon="12.2839837"><ele>323.25</ele><time>2026-04-12T15:37:54.994Z</time></trkpt><trkpt lat="43.8822636" lon="12.284"><ele>321.0</ele><time>2026-04-12T15:37:55.901Z</time></trkpt><trkpt lat="43.8824067" lon="12.2839926"><ele>321.0</ele><time>2026-04-12T15:37:56.908Z</time></trkpt><trkpt lat="43.8825549" lon="12.2839618"><ele>321.0</ele><time>2026-04-12T15:37:57.882Z</time></trkpt><trkpt lat="43.8827086" lon="12.2838919"><ele>321.0</ele><time>2026-04-12T15:37:58.899Z</time></trkpt><trkpt lat="43.8828677" lon="12.2837806"><ele>320.3333333333333</ele><time>2026-04-12T15:37:59.889Z</time></trkpt><trkpt lat="43.8830282" lon="12.2836528"><ele>319.66666666666663</ele><time>2026-04-12T15:38:00.9Z</time></trkpt><trkpt lat="43.8831824" lon="12.2835229"><ele>319.0</ele><time>2026-04-12T15:38:01.887Z</time></trkpt><trkpt lat="43.8833317" lon="12.2834018"><ele>316.3333333333333</ele><time>2026-04-12T15:38:02.907Z</time></trkpt><trkpt lat="43.8834771" lon="12.2832917"><ele>313.6666666666667</ele><time>2026-04-12T15:38:03.895Z</time></trkpt><trkpt lat="43.8836258" lon="12.2831954"><ele>311.0</ele><time>2026-04-12T15:38:04.895Z</time></trkpt><trkpt lat="43.8837814" lon="12.28313"><ele>311.0</ele><time>2026-04-12T15:38:05.894Z</time></trkpt><trkpt lat="43.8839513" lon="12.2831177"><ele>311.0</ele><time>2026-04-12T15:38:06.897Z</time></trkpt><trkpt lat="43.8841337" lon="12.2831656"><ele>311.0</ele><time>2026-04-12T15:38:07.887Z</time></trkpt><trkpt lat="43.884322" lon="12.283241"><ele>311.33333333333337</ele><time>2026-04-12T15:38:08.884Z</time></trkpt><trkpt lat="43.8845049" lon="12.2833238"><ele>311.6666666666667</ele><time>2026-04-12T15:38:09.875Z</time></trkpt><trkpt lat="43.884674" lon="12.283425"><ele>312.0</ele><time>2026-04-12T15:38:10.883Z</time></trkpt><trkpt lat="43.8848283" lon="12.2835575"><ele>312.0</ele><time>2026-04-12T15:38:11.898Z</time></trkpt><trkpt lat="43.8849454" lon="12.2837289"><ele>312.0</ele><time>2026-04-12T15:38:12.886Z</time></trkpt><trkpt lat="43.8850403" lon="12.2839284"><ele>312.0</ele><time>2026-04-12T15:38:13.885Z</time></trkpt><trkpt lat="43.8851122" lon="12.2841391"><ele>308.3333333333333</ele><time>2026-04-12T15:38:14.89Z</time></trkpt><trkpt lat="43.8851612" lon="12.2843201"><ele>304.66666666666663</ele><time>2026-04-12T15:38:15.996Z</time></trkpt><trkpt lat="43.8853384" lon="12.2845584"><ele>301.0</ele><time>2026-04-12T15:38:17.894Z</time></trkpt><trkpt lat="43.8854712" lon="12.2846058"><ele>301.0</ele><time>2026-04-12T15:38:18.884Z</time></trkpt><trkpt lat="43.885629" lon="12.2846237"><ele>301.0</ele><time>2026-04-12T15:38:19.896Z</time></trkpt><trkpt lat="43.8858006" lon="12.2846426"><ele>301.0</ele><time>2026-04-12T15:38:20.898Z</time></trkpt><trkpt lat="43.8859598" lon="12.2847007"><ele>298.3333333333333</ele><time>2026-04-12T15:38:21.908Z</time></trkpt><trkpt lat="43.886117" lon="12.2847929"><ele>295.6666666666667</ele><time>2026-04-12T15:38:22.901Z</time></trkpt><trkpt lat="43.8862572" lon="12.2849345"><ele>293.0</ele><time>2026-04-12T15:38:23.896Z</time></trkpt><trkpt lat="43.8863767" lon="12.2850938"><ele>293.0</ele><time>2026-04-12T15:38:24.901Z</time></trkpt><trkpt lat="43.8864956" lon="12.2852541"><ele>293.0</ele><time>2026-04-12T15:38:25.893Z</time></trkpt><trkpt lat="43.8866213" lon="12.2853857"><ele>293.0</ele><time>2026-04-12T15:38:26.885Z</time></trkpt><trkpt lat="43.8867563" lon="12.2854628"><ele>292.5</ele><time>2026-04-12T15:38:27.895Z</time></trkpt><trkpt lat="43.8869146" lon="12.2855131"><ele>292.0</ele><time>2026-04-12T15:38:28.992Z</time></trkpt><trkpt lat="43.8872253" lon="12.2854912"><ele>292.0</ele><time>2026-04-12T15:38:30.903Z</time></trkpt><trkpt lat="43.887376" lon="12.2854696"><ele>292.0</ele><time>2026-04-12T15:38:31.885Z</time></trkpt><trkpt lat="43.887523" lon="12.2854714"><ele>292.0</ele><time>2026-04-12T15:38:32.885Z</time></trkpt><trkpt lat="43.8876601" lon="12.2855483"><ele>292.0</ele><time>2026-04-12T15:38:33.889Z</time></trkpt><trkpt lat="43.8877789" lon="12.2856876"><ele>290.3333333333333</ele><time>2026-04-12T15:38:34.89Z</time></trkpt><trkpt lat="43.8878922" lon="12.2858451"><ele>288.6666666666667</ele><time>2026-04-12T15:38:35.89Z</time></trkpt><trkpt lat="43.8880067" lon="12.2860063"><ele>287.0</ele><time>2026-04-12T15:38:36.898Z</time></trkpt><trkpt lat="43.8881268" lon="12.2861528"><ele>287.0</ele><time>2026-04-12T15:38:37.884Z</time></trkpt><trkpt lat="43.8882386" lon="12.2863027"><ele>287.0</ele><time>2026-04-12T15:38:38.906Z</time></trkpt><trkpt lat="43.8883177" lon="12.2864559"><ele>287.0</ele><time>2026-04-12T15:38:39.891Z</time></trkpt><trkpt lat="43.8883669" lon="12.2866054"><ele>287.0</ele><time>2026-04-12T15:38:40.88Z</time></trkpt><trkpt lat="43.8883848" lon="12.2867811"><ele>286.75</ele><time>2026-04-12T15:38:41.889Z</time></trkpt><trkpt lat="43.8883852" lon="12.2869659"><ele>286.5</ele><time>2026-04-12T15:38:42.879Z</time></trkpt><trkpt lat="43.8884071" lon="12.2871591"><ele>286.25</ele><time>2026-04-12T15:38:43.885Z</time></trkpt><trkpt lat="43.8884486" lon="12.28736"><ele>286.0</ele><time>2026-04-12T15:38:44.886Z</time></trkpt><trkpt lat="43.8885074" lon="12.2875663"><ele>287.66666666666663</ele><time>2026-04-12T15:38:45.888Z</time></trkpt><trkpt lat="43.8885972" lon="12.2877668"><ele>289.3333333333333</ele><time>2026-04-12T15:38:46.886Z</time></trkpt><trkpt lat="43.888715" lon="12.2879311"><ele>291.0</ele><time>2026-04-12T15:38:47.901Z</time></trkpt><trkpt lat="43.888866" lon="12.2880509"><ele>290.6666666666667</ele><time>2026-04-12T15:38:48.892Z</time></trkpt><trkpt lat="43.8890422" lon="12.2881291"><ele>290.33333333333337</ele><time>2026-04-12T15:38:49.983Z</time></trkpt><trkpt lat="43.8892216" lon="12.2881878"><ele>290.0</ele><time>2026-04-12T15:38:50.883Z</time></trkpt><trkpt lat="43.8894027" lon="12.2882524"><ele>290.0</ele><time>2026-04-12T15:38:51.903Z</time></trkpt><trkpt lat="43.8895808" lon="12.2883132"><ele>290.0</ele><time>2026-04-12T15:38:52.888Z</time></trkpt><trkpt lat="43.8897598" lon="12.2883772"><ele>290.0</ele><time>2026-04-12T15:38:53.884Z</time></trkpt><trkpt lat="43.8899373" lon="12.2884395"><ele>291.6666666666667</ele><time>2026-04-12T15:38:54.886Z</time></trkpt><trkpt lat="43.8900984" lon="12.2884937"><ele>293.3333333333333</ele><time>2026-04-12T15:38:55.888Z</time></trkpt><trkpt lat="43.8902443" lon="12.2885393"><ele>295.0</ele><time>2026-04-12T15:38:56.885Z</time></trkpt><trkpt lat="43.8903783" lon="12.2885862"><ele>295.0</ele><time>2026-04-12T15:38:57.886Z</time></trkpt><trkpt lat="43.8905094" lon="12.2886356"><ele>295.0</ele><time>2026-04-12T15:38:58.897Z</time></trkpt><trkpt lat="43.8906455" lon="12.2886864"><ele>295.0</ele><time>2026-04-12T15:38:59.986Z</time></trkpt><trkpt lat="43.8907892" lon="12.2887417"><ele>295.0</ele><time>2026-04-12T15:39:00.987Z</time></trkpt><trkpt lat="43.8909345" lon="12.2887899"><ele>294.5</ele><time>2026-04-12T15:39:01.898Z</time></trkpt><trkpt lat="43.891087" lon="12.2888424"><ele>294.0</ele><time>2026-04-12T15:39:02.89Z</time></trkpt><trkpt lat="43.8912303" lon="12.2888869"><ele>293.5</ele><time>2026-04-12T15:39:03.891Z</time></trkpt><trkpt lat="43.8913659" lon="12.2889275"><ele>293.0</ele><time>2026-04-12T15:39:04.902Z</time></trkpt><trkpt lat="43.8914936" lon="12.2889682"><ele>293.0</ele><time>2026-04-12T15:39:05.907Z</time></trkpt><trkpt lat="43.8916157" lon="12.2890174"><ele>293.0</ele><time>2026-04-12T15:39:06.886Z</time></trkpt><trkpt lat="43.8917277" lon="12.2890635"><ele>293.0</ele><time>2026-04-12T15:39:07.909Z</time></trkpt><trkpt lat="43.8918334" lon="12.2891064"><ele>293.0</ele><time>2026-04-12T15:39:08.888Z</time></trkpt><trkpt lat="43.8919297" lon="12.2891403"><ele>293.0</ele><time>2026-04-12T15:39:09.89Z</time></trkpt><trkpt lat="43.892021" lon="12.2891688"><ele>293.0</ele><time>2026-04-12T15:39:10.882Z</time></trkpt><trkpt lat="43.8921035" lon="12.2891912"><ele>293.0</ele><time>2026-04-12T15:39:11.998Z</time></trkpt><trkpt lat="43.8921792" lon="12.2892181"><ele>293.0</ele><time>2026-04-12T15:39:12.898Z</time></trkpt><trkpt lat="43.8922566" lon="12.2892488"><ele>293.0</ele><time>2026-04-12T15:39:13.89Z</time></trkpt><trkpt lat="43.8923395" lon="12.2892779"><ele>293.0</ele><time>2026-04-12T15:39:14.883Z</time></trkpt><trkpt lat="43.8924214" lon="12.2893038"><ele>293.0</ele><time>2026-04-12T15:39:15.897Z</time></trkpt><trkpt lat="43.8925047" lon="12.2893272"><ele>293.0</ele><time>2026-04-12T15:39:16.889Z</time></trkpt><trkpt lat="43.8925918" lon="12.2893561"><ele>293.0</ele><time>2026-04-12T15:39:17.909Z</time></trkpt><trkpt lat="43.8926886" lon="12.289393"><ele>293.0</ele><time>2026-04-12T15:39:18.887Z</time></trkpt><trkpt lat="43.892804" lon="12.2894344"><ele>293.0</ele><time>2026-04-12T15:39:19.877Z</time></trkpt><trkpt lat="43.8929354" lon="12.2894816"><ele>293.0</ele><time>2026-04-12T15:39:20.894Z</time></trkpt><trkpt lat="43.8930748" lon="12.2895292"><ele>293.0</ele><time>2026-04-12T15:39:21.885Z</time></trkpt><trkpt lat="43.8932291" lon="12.2895485"><ele>293.0</ele><time>2026-04-12T15:39:22.901Z</time></trkpt><trkpt lat="43.8933854" lon="12.2895375"><ele>292.25</ele><time>2026-04-12T15:39:23.893Z</time></trkpt><trkpt lat="43.8935383" lon="12.2894974"><ele>291.5</ele><time>2026-04-12T15:39:24.887Z</time></trkpt><trkpt lat="43.8936856" lon="12.2894566"><ele>290.75</ele><time>2026-04-12T15:39:25.883Z</time></trkpt><trkpt lat="43.8938242" lon="12.289422"><ele>290.0</ele><time>2026-04-12T15:39:26.9Z</time></trkpt><trkpt lat="43.893958" lon="12.289392"><ele>290.0</ele><time>2026-04-12T15:39:27.883Z</time></trkpt><trkpt lat="43.894085" lon="12.2893554"><ele>290.0</ele><time>2026-04-12T15:39:28.89Z</time></trkpt><trkpt lat="43.8942145" lon="12.2893198"><ele>290.0</ele><time>2026-04-12T15:39:29.887Z</time></trkpt><trkpt lat="43.8943346" lon="12.2892912"><ele>290.0</ele><time>2026-04-12T15:39:30.911Z</time></trkpt><trkpt lat="43.8944472" lon="12.2892594"><ele>289.6</ele><time>2026-04-12T15:39:31.892Z</time></trkpt><trkpt lat="43.894556" lon="12.2892248"><ele>289.2</ele><time>2026-04-12T15:39:32.886Z</time></trkpt><trkpt lat="43.894661" lon="12.289176"><ele>288.8</ele><time>2026-04-12T15:39:33.911Z</time></trkpt><trkpt lat="43.8947501" lon="12.2891133"><ele>288.4</ele><time>2026-04-12T15:39:34.886Z</time></trkpt><trkpt lat="43.8948264" lon="12.2890416"><ele>288.0</ele><time>2026-04-12T15:39:35.994Z</time></trkpt><trkpt lat="43.8949548" lon="12.2888767"><ele>288.0</ele><time>2026-04-12T15:39:37.897Z</time></trkpt><trkpt lat="43.8950072" lon="12.2887864"><ele>288.0</ele><time>2026-04-12T15:39:38.887Z</time></trkpt><trkpt lat="43.8950528" lon="12.2886802"><ele>288.0</ele><time>2026-04-12T15:39:39.882Z</time></trkpt><trkpt lat="43.8950903" lon="12.2885771"><ele>288.0</ele><time>2026-04-12T15:39:40.897Z</time></trkpt><trkpt lat="43.8951208" lon="12.288477"><ele>288.0</ele><time>2026-04-12T15:39:41.911Z</time></trkpt><trkpt lat="43.8951509" lon="12.2883708"><ele>288.0</ele><time>2026-04-12T15:39:42.893Z</time></trkpt><trkpt lat="43.8951868" lon="12.2882602"><ele>286.8</ele><time>2026-04-12T15:39:43.901Z</time></trkpt><trkpt lat="43.8952362" lon="12.2881335"><ele>285.6</ele><time>2026-04-12T15:39:44.891Z</time></trkpt><trkpt lat="43.8953017" lon="12.2880098"><ele>284.4</ele><time>2026-04-12T15:39:45.91Z</time></trkpt><trkpt lat="43.8953821" lon="12.2879094"><ele>283.2</ele><time>2026-04-12T15:39:46.892Z</time></trkpt><trkpt lat="43.8954639" lon="12.2878351"><ele>282.0</ele><time>2026-04-12T15:39:47.886Z</time></trkpt><trkpt lat="43.8955371" lon="12.2877699"><ele>282.0</ele><time>2026-04-12T15:39:48.886Z</time></trkpt><trkpt lat="43.8956049" lon="12.2877163"><ele>282.0</ele><time>2026-04-12T15:39:49.888Z</time></trkpt><trkpt lat="43.8956694" lon="12.2876614"><ele>282.0</ele><time>2026-04-12T15:39:50.895Z</time></trkpt><trkpt lat="43.8957408" lon="12.2876157"><ele>282.0</ele><time>2026-04-12T15:39:51.878Z</time></trkpt><trkpt lat="43.8958225" lon="12.2875801"><ele>282.0</ele><time>2026-04-12T15:39:52.881Z</time></trkpt><trkpt lat="43.8959111" lon="12.287579"><ele>282.0</ele><time>2026-04-12T15:39:53.874Z</time></trkpt><trkpt lat="43.8959932" lon="12.2876075"><ele>281.8</ele><time>2026-04-12T15:39:54.893Z</time></trkpt><trkpt lat="43.8960717" lon="12.2876515"><ele>281.6</ele><time>2026-04-12T15:39:55.898Z</time></trkpt><trkpt lat="43.8961565" lon="12.2877256"><ele>281.40000000000003</ele><time>2026-04-12T15:39:56.895Z</time></trkpt><trkpt lat="43.8962503" lon="12.2878115"><ele>281.2</ele><time>2026-04-12T15:39:57.894Z</time></trkpt><trkpt lat="43.8963526" lon="12.2878998"><ele>281.0</ele><time>2026-04-12T15:39:58.897Z</time></trkpt><trkpt lat="43.896448" lon="12.2879893"><ele>281.0</ele><time>2026-04-12T15:39:59.897Z</time></trkpt><trkpt lat="43.8965299" lon="12.2880732"><ele>281.0</ele><time>2026-04-12T15:40:00.897Z</time></trkpt><trkpt lat="43.8966279" lon="12.2881746"><ele>281.0</ele><time>2026-04-12T15:40:01.888Z</time></trkpt><trkpt lat="43.8967394" lon="12.2882803"><ele>281.0</ele><time>2026-04-12T15:40:02.881Z</time></trkpt><trkpt lat="43.8968553" lon="12.2884006"><ele>280.0</ele><time>2026-04-12T15:40:03.887Z</time></trkpt><trkpt lat="43.8969787" lon="12.2885253"><ele>279.0</ele><time>2026-04-12T15:40:04.886Z</time></trkpt><trkpt lat="43.8971058" lon="12.2886545"><ele>278.0</ele><time>2026-04-12T15:40:05.898Z</time></trkpt><trkpt lat="43.8972256" lon="12.2887773"><ele>278.0</ele><time>2026-04-12T15:40:06.889Z</time></trkpt><trkpt lat="43.8973351" lon="12.2888916"><ele>278.0</ele><time>2026-04-12T15:40:07.894Z</time></trkpt><trkpt lat="43.8974303" lon="12.288985"><ele>278.0</ele><time>2026-04-12T15:40:08.896Z</time></trkpt><trkpt lat="43.8975113" lon="12.2890584"><ele>278.0</ele><time>2026-04-12T15:40:09.888Z</time></trkpt><trkpt lat="43.8975815" lon="12.2891151"><ele>278.0</ele><time>2026-04-12T15:40:10.89Z</time></trkpt><trkpt lat="43.8976543" lon="12.289146"><ele>274.5</ele><time>2026-04-12T15:40:11.887Z</time></trkpt><trkpt lat="43.8977392" lon="12.2891308"><ele>271.0</ele><time>2026-04-12T15:40:12.898Z</time></trkpt><trkpt lat="43.8978359" lon="12.2890737"><ele>267.5</ele><time>2026-04-12T15:40:13.882Z</time></trkpt><trkpt lat="43.8979478" lon="12.2889994"><ele>264.0</ele><time>2026-04-12T15:40:14.89Z</time></trkpt><trkpt lat="43.89808" lon="12.288953"><ele>264.0</ele><time>2026-04-12T15:40:15.88Z</time></trkpt><trkpt lat="43.8982294" lon="12.288947"><ele>264.0</ele><time>2026-04-12T15:40:16.89Z</time></trkpt><trkpt lat="43.8983798" lon="12.2889451"><ele>264.0</ele><time>2026-04-12T15:40:17.885Z</time></trkpt><trkpt lat="43.8985336" lon="12.2889657"><ele>263.6666666666667</ele><time>2026-04-12T15:40:18.89Z</time></trkpt><trkpt lat="43.8986763" lon="12.289017"><ele>263.33333333333337</ele><time>2026-04-12T15:40:19.889Z</time></trkpt><trkpt lat="43.8988145" lon="12.289103"><ele>263.0</ele><time>2026-04-12T15:40:20.886Z</time></trkpt><trkpt lat="43.8989486" lon="12.2892047"><ele>263.0</ele><time>2026-04-12T15:40:21.895Z</time></trkpt><trkpt lat="43.8990779" lon="12.289339"><ele>263.0</ele><time>2026-04-12T15:40:22.89Z</time></trkpt><trkpt lat="43.8992003" lon="12.2894925"><ele>263.0</ele><time>2026-04-12T15:40:23.909Z</time></trkpt><trkpt lat="43.8993103" lon="12.2896754"><ele>263.33333333333337</ele><time>2026-04-12T15:40:24.896Z</time></trkpt><trkpt lat="43.8994156" lon="12.2898657"><ele>263.6666666666667</ele><time>2026-04-12T15:40:25.886Z</time></trkpt><trkpt lat="43.8995229" lon="12.2900561"><ele>264.0</ele><time>2026-04-12T15:40:26.886Z</time></trkpt><trkpt lat="43.8996261" lon="12.290241"><ele>264.0</ele><time>2026-04-12T15:40:27.907Z</time></trkpt><trkpt lat="43.8997219" lon="12.2904164"><ele>264.0</ele><time>2026-04-12T15:40:28.885Z</time></trkpt><trkpt lat="43.8998105" lon="12.2905823"><ele>264.0</ele><time>2026-04-12T15:40:29.888Z</time></trkpt><trkpt lat="43.8998983" lon="12.2907412"><ele>264.75</ele><time>2026-04-12T15:40:30.877Z</time></trkpt><trkpt lat="43.8999807" lon="12.2908985"><ele>265.5</ele><time>2026-04-12T15:40:31.884Z</time></trkpt><trkpt lat="43.9000616" lon="12.2910668"><ele>266.25</ele><time>2026-04-12T15:40:32.894Z</time></trkpt><trkpt lat="43.9001317" lon="12.2912534"><ele>267.0</ele><time>2026-04-12T15:40:33.916Z</time></trkpt><trkpt lat="43.9001791" lon="12.2914531"><ele>264.6666666666667</ele><time>2026-04-12T15:40:34.889Z</time></trkpt><trkpt lat="43.9002028" lon="12.2916708"><ele>262.33333333333337</ele><time>2026-04-12T15:40:35.887Z</time></trkpt><trkpt lat="43.9002147" lon="12.2918937"><ele>260.0</ele><time>2026-04-12T15:40:36.881Z</time></trkpt><trkpt lat="43.9002276" lon="12.2921124"><ele>258.6666666666667</ele><time>2026-04-12T15:40:37.903Z</time></trkpt><trkpt lat="43.9002322" lon="12.2923272"><ele>257.3333333333333</ele><time>2026-04-12T15:40:38.899Z</time></trkpt><trkpt lat="43.900235" lon="12.2925355"><ele>256.0</ele><time>2026-04-12T15:40:39.889Z</time></trkpt><trkpt lat="43.9002451" lon="12.2927383"><ele>256.0</ele><time>2026-04-12T15:40:40.891Z</time></trkpt><trkpt lat="43.9002547" lon="12.2929335"><ele>256.0</ele><time>2026-04-12T15:40:41.897Z</time></trkpt><trkpt lat="43.9002717" lon="12.2931153"><ele>256.0</ele><time>2026-04-12T15:40:42.983Z</time></trkpt><trkpt lat="43.9003044" lon="12.2932843"><ele>256.0</ele><time>2026-04-12T15:40:43.908Z</time></trkpt><trkpt lat="43.9003602" lon="12.293444"><ele>254.66666666666666</ele><time>2026-04-12T15:40:44.891Z</time></trkpt><trkpt lat="43.9004423" lon="12.293597"><ele>253.33333333333331</ele><time>2026-04-12T15:40:45.892Z</time></trkpt><trkpt lat="43.9005535" lon="12.293743"><ele>252.0</ele><time>2026-04-12T15:40:46.896Z</time></trkpt><trkpt lat="43.9006846" lon="12.2938826"><ele>250.33333333333331</ele><time>2026-04-12T15:40:47.906Z</time></trkpt><trkpt lat="43.9008224" lon="12.2940283"><ele>248.66666666666666</ele><time>2026-04-12T15:40:48.889Z</time></trkpt><trkpt lat="43.9009577" lon="12.2941713"><ele>247.0</ele><time>2026-04-12T15:40:49.886Z</time></trkpt><trkpt lat="43.9010931" lon="12.2943118"><ele>247.0</ele><time>2026-04-12T15:40:50.896Z</time></trkpt><trkpt lat="43.9012192" lon="12.2944446"><ele>247.0</ele><time>2026-04-12T15:40:51.893Z</time></trkpt><trkpt lat="43.9013335" lon="12.2945732"><ele>247.0</ele><time>2026-04-12T15:40:52.9Z</time></trkpt><trkpt lat="43.9014494" lon="12.2947028"><ele>243.5</ele><time>2026-04-12T15:40:54.003Z</time></trkpt><trkpt lat="43.9017053" lon="12.2949088"><ele>240.0</ele><time>2026-04-12T15:40:55.909Z</time></trkpt><trkpt lat="43.9018564" lon="12.2949686"><ele>240.0</ele><time>2026-04-12T15:40:56.991Z</time></trkpt><trkpt lat="43.902188" lon="12.2950605"><ele>240.0</ele><time>2026-04-12T15:40:58.905Z</time></trkpt><trkpt lat="43.9023504" lon="12.2951012"><ele>240.0</ele><time>2026-04-12T15:40:59.885Z</time></trkpt><trkpt lat="43.9025044" lon="12.2951329"><ele>240.0</ele><time>2026-04-12T15:41:00.893Z</time></trkpt><trkpt lat="43.9026587" lon="12.2951593"><ele>240.0</ele><time>2026-04-12T15:41:01.9Z</time></trkpt><trkpt lat="43.9028136" lon="12.295163"><ele>239.5</ele><time>2026-04-12T15:41:02.886Z</time></trkpt><trkpt lat="43.9029628" lon="12.2951398"><ele>239.0</ele><time>2026-04-12T15:41:03.888Z</time></trkpt><trkpt lat="43.9030925" lon="12.2950741"><ele>238.5</ele><time>2026-04-12T15:41:04.902Z</time></trkpt><trkpt lat="43.9032118" lon="12.2949734"><ele>238.0</ele><time>2026-04-12T15:41:05.906Z</time></trkpt><trkpt lat="43.9033102" lon="12.2948382"><ele>237.75</ele><time>2026-04-12T15:41:06.909Z</time></trkpt><trkpt lat="43.9033936" lon="12.2946814"><ele>237.5</ele><time>2026-04-12T15:41:07.884Z</time></trkpt><trkpt lat="43.9034643" lon="12.2945099"><ele>237.25</ele><time>2026-04-12T15:41:08.887Z</time></trkpt><trkpt lat="43.9035392" lon="12.2943467"><ele>237.0</ele><time>2026-04-12T15:41:09.881Z</time></trkpt><trkpt lat="43.9036283" lon="12.2941844"><ele>237.0</ele><time>2026-04-12T15:41:10.914Z</time></trkpt><trkpt lat="43.9037293" lon="12.294031"><ele>237.0</ele><time>2026-04-12T15:41:11.887Z</time></trkpt><trkpt lat="43.9038368" lon="12.2938881"><ele>237.0</ele><time>2026-04-12T15:41:12.893Z</time></trkpt><trkpt lat="43.9039534" lon="12.2937521"><ele>238.0</ele><time>2026-04-12T15:41:13.878Z</time></trkpt><trkpt lat="43.9040754" lon="12.2936225"><ele>239.0</ele><time>2026-04-12T15:41:14.882Z</time></trkpt><trkpt lat="43.9042061" lon="12.2935054"><ele>240.0</ele><time>2026-04-12T15:41:15.88Z</time></trkpt><trkpt lat="43.9043385" lon="12.2933908"><ele>240.0</ele><time>2026-04-12T15:41:16.903Z</time></trkpt><trkpt lat="43.904483" lon="12.29331"><ele>240.0</ele><time>2026-04-12T15:41:17.971Z</time></trkpt><trkpt lat="43.9046336" lon="12.2932937"><ele>240.0</ele><time>2026-04-12T15:41:18.881Z</time></trkpt><trkpt lat="43.9047821" lon="12.2932957"><ele>240.0</ele><time>2026-04-12T15:41:19.895Z</time></trkpt><trkpt lat="43.9049326" lon="12.2933248"><ele>240.0</ele><time>2026-04-12T15:41:20.881Z</time></trkpt><trkpt lat="43.9050906" lon="12.2933741"><ele>240.0</ele><time>2026-04-12T15:41:21.885Z</time></trkpt><trkpt lat="43.9052525" lon="12.2934272"><ele>240.66666666666669</ele><time>2026-04-12T15:41:22.878Z</time></trkpt><trkpt lat="43.9054171" lon="12.2934804"><ele>241.33333333333334</ele><time>2026-04-12T15:41:23.895Z</time></trkpt><trkpt lat="43.9055794" lon="12.2935376"><ele>242.0</ele><time>2026-04-12T15:41:24.879Z</time></trkpt><trkpt lat="43.9057302" lon="12.2935805"><ele>242.0</ele><time>2026-04-12T15:41:25.885Z</time></trkpt><trkpt lat="43.9058701" lon="12.2936108"><ele>242.0</ele><time>2026-04-12T15:41:26.878Z</time></trkpt><trkpt lat="43.9060062" lon="12.2936353"><ele>242.0</ele><time>2026-04-12T15:41:27.888Z</time></trkpt><trkpt lat="43.9061388" lon="12.2936614"><ele>242.0</ele><time>2026-04-12T15:41:28.873Z</time></trkpt><trkpt lat="43.9062757" lon="12.2936883"><ele>241.75</ele><time>2026-04-12T15:41:29.886Z</time></trkpt><trkpt lat="43.9064125" lon="12.2937152"><ele>241.5</ele><time>2026-04-12T15:41:30.879Z</time></trkpt><trkpt lat="43.9065447" lon="12.2937495"><ele>241.25</ele><time>2026-04-12T15:41:31.89Z</time></trkpt><trkpt lat="43.9066733" lon="12.2937862"><ele>241.0</ele><time>2026-04-12T15:41:32.892Z</time></trkpt><trkpt lat="43.9068054" lon="12.2938193"><ele>240.25</ele><time>2026-04-12T15:41:33.889Z</time></trkpt><trkpt lat="43.9069414" lon="12.2938521"><ele>239.5</ele><time>2026-04-12T15:41:34.9Z</time></trkpt><trkpt lat="43.9070827" lon="12.2938883"><ele>238.75</ele><time>2026-04-12T15:41:35.887Z</time></trkpt><trkpt lat="43.9072309" lon="12.2939235"><ele>238.0</ele><time>2026-04-12T15:41:36.89Z</time></trkpt><trkpt lat="43.9073815" lon="12.2939611"><ele>238.25</ele><time>2026-04-12T15:41:37.899Z</time></trkpt><trkpt lat="43.907526" lon="12.2939997"><ele>238.5</ele><time>2026-04-12T15:41:38.905Z</time></trkpt><trkpt lat="43.9076595" lon="12.2940335"><ele>238.75</ele><time>2026-04-12T15:41:39.913Z</time></trkpt><trkpt lat="43.9077858" lon="12.2940573"><ele>239.0</ele><time>2026-04-12T15:41:40.904Z</time></trkpt><trkpt lat="43.9079069" lon="12.2940794"><ele>239.0</ele><time>2026-04-12T15:41:41.898Z</time></trkpt><trkpt lat="43.908016" lon="12.2941052"><ele>238.99999999999997</ele><time>2026-04-12T15:41:42.909Z</time></trkpt><trkpt lat="43.9081213" lon="12.2941373"><ele>238.99999999999997</ele><time>2026-04-12T15:41:43.907Z</time></trkpt><trkpt lat="43.9082194" lon="12.2941801"><ele>239.0</ele><time>2026-04-12T15:41:44.892Z</time></trkpt><trkpt lat="43.908307" lon="12.2942529"><ele>239.0</ele><time>2026-04-12T15:41:45.91Z</time></trkpt><trkpt lat="43.9083774" lon="12.2943533"><ele>240.0</ele><time>2026-04-12T15:41:46.888Z</time></trkpt><trkpt lat="43.9084294" lon="12.2944745"><ele>240.99999999999997</ele><time>2026-04-12T15:41:47.89Z</time></trkpt><trkpt lat="43.9084731" lon="12.2946053"><ele>241.99999999999997</ele><time>2026-04-12T15:41:48.892Z</time></trkpt><trkpt lat="43.9085177" lon="12.2947535"><ele>243.0</ele><time>2026-04-12T15:41:49.895Z</time></trkpt><trkpt lat="43.908567" lon="12.2948989"><ele>244.0</ele><time>2026-04-12T15:41:50.894Z</time></trkpt><trkpt lat="43.9086108" lon="12.2950404"><ele>244.0</ele><time>2026-04-12T15:41:51.92Z</time></trkpt><trkpt lat="43.908654" lon="12.2951774"><ele>244.0</ele><time>2026-04-12T15:41:52.891Z</time></trkpt><trkpt lat="43.908699" lon="12.2953227"><ele>244.0</ele><time>2026-04-12T15:41:53.888Z</time></trkpt><trkpt lat="43.9087451" lon="12.2954771"><ele>244.0</ele><time>2026-04-12T15:41:54.922Z</time></trkpt><trkpt lat="43.9087939" lon="12.2956325"><ele>243.5</ele><time>2026-04-12T15:41:55.894Z</time></trkpt><trkpt lat="43.9088409" lon="12.2957782"><ele>243.0</ele><time>2026-04-12T15:41:56.901Z</time></trkpt><trkpt lat="43.9088874" lon="12.2959222"><ele>242.5</ele><time>2026-04-12T15:41:57.895Z</time></trkpt><trkpt lat="43.9089356" lon="12.2960697"><ele>242.0</ele><time>2026-04-12T15:41:58.9Z</time></trkpt><trkpt lat="43.9089845" lon="12.2962153"><ele>242.0</ele><time>2026-04-12T15:41:59.904Z</time></trkpt><trkpt lat="43.9090272" lon="12.2963667"><ele>242.0</ele><time>2026-04-12T15:42:00.894Z</time></trkpt><trkpt lat="43.9090637" lon="12.2965167"><ele>242.0</ele><time>2026-04-12T15:42:01.893Z</time></trkpt><trkpt lat="43.9090958" lon="12.2966676"><ele>242.0</ele><time>2026-04-12T15:42:02.894Z</time></trkpt><trkpt lat="43.9091237" lon="12.2968152"><ele>241.8</ele><time>2026-04-12T15:42:03.902Z</time></trkpt><trkpt lat="43.909156" lon="12.2969598"><ele>241.6</ele><time>2026-04-12T15:42:04.887Z</time></trkpt><trkpt lat="43.909203" lon="12.2970943"><ele>241.40000000000003</ele><time>2026-04-12T15:42:05.92Z</time></trkpt><trkpt lat="43.9092597" lon="12.2972166"><ele>241.20000000000002</ele><time>2026-04-12T15:42:06.884Z</time></trkpt><trkpt lat="43.9093249" lon="12.2973399"><ele>241.0</ele><time>2026-04-12T15:42:07.888Z</time></trkpt><trkpt lat="43.9093972" lon="12.2974646"><ele>242.25</ele><time>2026-04-12T15:42:08.901Z</time></trkpt><trkpt lat="43.9094713" lon="12.2975931"><ele>243.5</ele><time>2026-04-12T15:42:09.892Z</time></trkpt><trkpt lat="43.909548" lon="12.2977212"><ele>244.75</ele><time>2026-04-12T15:42:10.888Z</time></trkpt><trkpt lat="43.9096271" lon="12.2978495"><ele>246.0</ele><time>2026-04-12T15:42:11.912Z</time></trkpt><trkpt lat="43.9097173" lon="12.2979724"><ele>246.5</ele><time>2026-04-12T15:42:12.901Z</time></trkpt><trkpt lat="43.9098216" lon="12.2980887"><ele>247.0</ele><time>2026-04-12T15:42:13.908Z</time></trkpt><trkpt lat="43.9099316" lon="12.298189"><ele>247.5</ele><time>2026-04-12T15:42:14.906Z</time></trkpt><trkpt lat="43.9100367" lon="12.2982738"><ele>248.0</ele><time>2026-04-12T15:42:15.897Z</time></trkpt><trkpt lat="43.9101422" lon="12.298351"><ele>248.0</ele><time>2026-04-12T15:42:16.89Z</time></trkpt><trkpt lat="43.910246" lon="12.2984275"><ele>248.0</ele><time>2026-04-12T15:42:17.9Z</time></trkpt><trkpt lat="43.9103486" lon="12.2985027"><ele>248.0</ele><time>2026-04-12T15:42:18.923Z</time></trkpt><trkpt lat="43.9104417" lon="12.2985897"><ele>248.0</ele><time>2026-04-12T15:42:19.894Z</time></trkpt><trkpt lat="43.9105236" lon="12.2986976"><ele>248.0</ele><time>2026-04-12T15:42:20.903Z</time></trkpt><trkpt lat="43.9105781" lon="12.2988338"><ele>248.0</ele><time>2026-04-12T15:42:21.893Z</time></trkpt><trkpt lat="43.9106064" lon="12.2989959"><ele>248.0</ele><time>2026-04-12T15:42:22.891Z</time></trkpt><trkpt lat="43.9106146" lon="12.2991594"><ele>248.0</ele><time>2026-04-12T15:42:23.881Z</time></trkpt><trkpt lat="43.9106145" lon="12.2993275"><ele>247.5</ele><time>2026-04-12T15:42:24.89Z</time></trkpt><trkpt lat="43.9106154" lon="12.2995096"><ele>247.0</ele><time>2026-04-12T15:42:25.91Z</time></trkpt><trkpt lat="43.9106177" lon="12.2996936"><ele>246.5</ele><time>2026-04-12T15:42:26.903Z</time></trkpt><trkpt lat="43.9106159" lon="12.2998744"><ele>246.0</ele><time>2026-04-12T15:42:27.893Z</time></trkpt><trkpt lat="43.9106062" lon="12.3000545"><ele>246.0</ele><time>2026-04-12T15:42:28.902Z</time></trkpt><trkpt lat="43.9105842" lon="12.3002435"><ele>246.0</ele><time>2026-04-12T15:42:29.893Z</time></trkpt><trkpt lat="43.9105623" lon="12.3004375"><ele>246.0</ele><time>2026-04-12T15:42:30.903Z</time></trkpt><trkpt lat="43.9105407" lon="12.3006251"><ele>246.0</ele><time>2026-04-12T15:42:31.896Z</time></trkpt><trkpt lat="43.9105192" lon="12.3008115"><ele>246.75</ele><time>2026-04-12T15:42:32.889Z</time></trkpt><trkpt lat="43.9104924" lon="12.3010001"><ele>247.5</ele><time>2026-04-12T15:42:33.891Z</time></trkpt><trkpt lat="43.9104552" lon="12.3011888"><ele>248.25</ele><time>2026-04-12T15:42:34.98Z</time></trkpt><trkpt lat="43.9104145" lon="12.3013784"><ele>249.0</ele><time>2026-04-12T15:42:35.902Z</time></trkpt><trkpt lat="43.910373" lon="12.301593"><ele>249.33333333333331</ele><time>2026-04-12T15:42:36.905Z</time></trkpt><trkpt lat="43.9103355" lon="12.3018571"><ele>249.66666666666666</ele><time>2026-04-12T15:42:37.891Z</time></trkpt><trkpt lat="43.9102991" lon="12.3021272"><ele>250.0</ele><time>2026-04-12T15:42:38.897Z</time></trkpt><trkpt lat="43.9102521" lon="12.3023406"><ele>249.16666666666666</ele><time>2026-04-12T15:42:39.894Z</time></trkpt><trkpt lat="43.9102016" lon="12.3024804"><ele>248.33333333333331</ele><time>2026-04-12T15:42:40.889Z</time></trkpt><trkpt lat="43.9101468" lon="12.3025863"><ele>247.5</ele><time>2026-04-12T15:42:41.903Z</time></trkpt><trkpt lat="43.9100999" lon="12.3026874"><ele>246.66666666666669</ele><time>2026-04-12T15:42:42.89Z</time></trkpt><trkpt lat="43.910062" lon="12.3027751"><ele>245.83333333333334</ele><time>2026-04-12T15:42:43.902Z</time></trkpt><trkpt lat="43.9100372" lon="12.3028726"><ele>245.0</ele><time>2026-04-12T15:42:44.894Z</time></trkpt><trkpt lat="43.9100328" lon="12.3029797"><ele>244.2</ele><time>2026-04-12T15:42:45.988Z</time></trkpt><trkpt lat="43.9100576" lon="12.3030836"><ele>243.4</ele><time>2026-04-12T15:42:46.894Z</time></trkpt><trkpt lat="43.9101084" lon="12.3031959"><ele>242.60000000000002</ele><time>2026-04-12T15:42:47.898Z</time></trkpt><trkpt lat="43.9101853" lon="12.3032983"><ele>241.8</ele><time>2026-04-12T15:42:48.89Z</time></trkpt><trkpt lat="43.9102775" lon="12.3034088"><ele>241.0</ele><time>2026-04-12T15:42:49.891Z</time></trkpt><trkpt lat="43.9103732" lon="12.3035204"><ele>241.0</ele><time>2026-04-12T15:42:50.895Z</time></trkpt><trkpt lat="43.9104714" lon="12.3036448"><ele>241.0</ele><time>2026-04-12T15:42:51.905Z</time></trkpt><trkpt lat="43.9105838" lon="12.3037844"><ele>241.0</ele><time>2026-04-12T15:42:52.886Z</time></trkpt><trkpt lat="43.9106988" lon="12.3039106"><ele>241.0</ele><time>2026-04-12T15:42:53.9Z</time></trkpt><trkpt lat="43.910821" lon="12.3040127"><ele>237.66666666666666</ele><time>2026-04-12T15:42:54.907Z</time></trkpt><trkpt lat="43.9109584" lon="12.3040885"><ele>234.33333333333331</ele><time>2026-04-12T15:42:55.897Z</time></trkpt><trkpt lat="43.9111181" lon="12.3041367"><ele>231.0</ele><time>2026-04-12T15:42:57Z</time></trkpt><trkpt lat="43.9112956" lon="12.3041529"><ele>231.0</ele><time>2026-04-12T15:42:57.903Z</time></trkpt><trkpt lat="43.911491" lon="12.3041793"><ele>231.0</ele><time>2026-04-12T15:42:58.915Z</time></trkpt><trkpt lat="43.9117014" lon="12.3042023"><ele>231.0</ele><time>2026-04-12T15:42:59.909Z</time></trkpt><trkpt lat="43.9119212" lon="12.3042205"><ele>231.0</ele><time>2026-04-12T15:43:00.898Z</time></trkpt><trkpt lat="43.9121559" lon="12.3042521"><ele>231.0</ele><time>2026-04-12T15:43:01.905Z</time></trkpt><trkpt lat="43.9124052" lon="12.3042879"><ele>229.5</ele><time>2026-04-12T15:43:02.896Z</time></trkpt><trkpt lat="43.9126842" lon="12.3043686"><ele>228.0</ele><time>2026-04-12T15:43:03.894Z</time></trkpt><trkpt lat="43.9129864" lon="12.3044956"><ele>228.0</ele><time>2026-04-12T15:43:04.903Z</time></trkpt><trkpt lat="43.9132977" lon="12.3046637"><ele>228.0</ele><time>2026-04-12T15:43:05.894Z</time></trkpt><trkpt lat="43.9136202" lon="12.3048487"><ele>229.5</ele><time>2026-04-12T15:43:06.896Z</time></trkpt><trkpt lat="43.913958" lon="12.3050253"><ele>231.0</ele><time>2026-04-12T15:43:07.886Z</time></trkpt><trkpt lat="43.914304" lon="12.3052125"><ele>231.5</ele><time>2026-04-12T15:43:08.886Z</time></trkpt><trkpt lat="43.9146496" lon="12.3053952"><ele>232.0</ele><time>2026-04-12T15:43:09.888Z</time></trkpt><trkpt lat="43.9149705" lon="12.3055645"><ele>232.0</ele><time>2026-04-12T15:43:10.891Z</time></trkpt><trkpt lat="43.9152497" lon="12.3057076"><ele>232.0</ele><time>2026-04-12T15:43:11.901Z</time></trkpt><trkpt lat="43.9155045" lon="12.305834"><ele>232.0</ele><time>2026-04-12T15:43:12.918Z</time></trkpt><trkpt lat="43.9157478" lon="12.3059439"><ele>232.0</ele><time>2026-04-12T15:43:13.902Z</time></trkpt><trkpt lat="43.9159703" lon="12.3060307"><ele>232.66666666666666</ele><time>2026-04-12T15:43:14.891Z</time></trkpt><trkpt lat="43.9161784" lon="12.3060999"><ele>233.33333333333331</ele><time>2026-04-12T15:43:15.895Z</time></trkpt><trkpt lat="43.9163606" lon="12.3061641"><ele>234.0</ele><time>2026-04-12T15:43:16.911Z</time></trkpt><trkpt lat="43.916523" lon="12.3062429"><ele>234.0</ele><time>2026-04-12T15:43:17.899Z</time></trkpt><trkpt lat="43.9166633" lon="12.3063319"><ele>234.0</ele><time>2026-04-12T15:43:18.912Z</time></trkpt><trkpt lat="43.9167823" lon="12.3064365"><ele>234.0</ele><time>2026-04-12T15:43:19.897Z</time></trkpt><trkpt lat="43.9168967" lon="12.3065639"><ele>234.0</ele><time>2026-04-12T15:43:20.899Z</time></trkpt><trkpt lat="43.9170225" lon="12.3067279"><ele>232.66666666666669</ele><time>2026-04-12T15:43:21.894Z</time></trkpt><trkpt lat="43.9171535" lon="12.3069433"><ele>231.33333333333334</ele><time>2026-04-12T15:43:22.893Z</time></trkpt><trkpt lat="43.9173029" lon="12.3071923"><ele>230.0</ele><time>2026-04-12T15:43:23.906Z</time></trkpt><trkpt lat="43.9174783" lon="12.3074631"><ele>229.5</ele><time>2026-04-12T15:43:24.901Z</time></trkpt><trkpt lat="43.9176734" lon="12.3077347"><ele>229.0</ele><time>2026-04-12T15:43:25.905Z</time></trkpt><trkpt lat="43.9178784" lon="12.3080294"><ele>227.5</ele><time>2026-04-12T15:43:26.92Z</time></trkpt><trkpt lat="43.9180946" lon="12.3083424"><ele>226.0</ele><time>2026-04-12T15:43:27.905Z</time></trkpt><trkpt lat="43.9183121" lon="12.3086481"><ele>225.0</ele><time>2026-04-12T15:43:28.912Z</time></trkpt><trkpt lat="43.9185285" lon="12.30895"><ele>224.0</ele><time>2026-04-12T15:43:29.9Z</time></trkpt><trkpt lat="43.9187403" lon="12.309244"><ele>224.0</ele><time>2026-04-12T15:43:30.914Z</time></trkpt><trkpt lat="43.9189416" lon="12.3095206"><ele>224.0</ele><time>2026-04-12T15:43:31.895Z</time></trkpt><trkpt lat="43.91913" lon="12.3097803"><ele>224.0</ele><time>2026-04-12T15:43:32.908Z</time></trkpt><trkpt lat="43.9193033" lon="12.3100251"><ele>224.0</ele><time>2026-04-12T15:43:33.905Z</time></trkpt><trkpt lat="43.9194655" lon="12.3102603"><ele>224.0</ele><time>2026-04-12T15:43:34.907Z</time></trkpt><trkpt lat="43.9196102" lon="12.3104765"><ele>224.0</ele><time>2026-04-12T15:43:35.902Z</time></trkpt><trkpt lat="43.9197297" lon="12.3106942"><ele>224.0</ele><time>2026-04-12T15:43:36.887Z</time></trkpt><trkpt lat="43.9198422" lon="12.3109136"><ele>222.0</ele><time>2026-04-12T15:43:37.891Z</time></trkpt><trkpt lat="43.9199302" lon="12.3111257"><ele>220.0</ele><time>2026-04-12T15:43:38.886Z</time></trkpt><trkpt lat="43.9200027" lon="12.311339"><ele>218.0</ele><time>2026-04-12T15:43:39.918Z</time></trkpt><trkpt lat="43.9200797" lon="12.3115278"><ele>217.66666666666669</ele><time>2026-04-12T15:43:40.894Z</time></trkpt><trkpt lat="43.9201761" lon="12.3116834"><ele>217.33333333333331</ele><time>2026-04-12T15:43:42.012Z</time></trkpt><trkpt lat="43.9204032" lon="12.3119219"><ele>217.0</ele><time>2026-04-12T15:43:43.913Z</time></trkpt><trkpt lat="43.9205132" lon="12.3120282"><ele>217.0</ele><time>2026-04-12T15:43:44.884Z</time></trkpt><trkpt lat="43.9206108" lon="12.3121264"><ele>217.0</ele><time>2026-04-12T15:43:45.901Z</time></trkpt><trkpt lat="43.9206995" lon="12.3122119"><ele>217.0</ele><time>2026-04-12T15:43:46.899Z</time></trkpt><trkpt lat="43.9207875" lon="12.3122895"><ele>217.0</ele><time>2026-04-12T15:43:47.9Z</time></trkpt><trkpt lat="43.920881" lon="12.3123792"><ele>217.0</ele><time>2026-04-12T15:43:48.91Z</time></trkpt><trkpt lat="43.9209764" lon="12.312472"><ele>214.75</ele><time>2026-04-12T15:43:49.903Z</time></trkpt><trkpt lat="43.9210787" lon="12.3125688"><ele>212.5</ele><time>2026-04-12T15:43:50.904Z</time></trkpt><trkpt lat="43.92119" lon="12.3126721"><ele>210.25</ele><time>2026-04-12T15:43:51.885Z</time></trkpt><trkpt lat="43.9213304" lon="12.3127822"><ele>208.0</ele><time>2026-04-12T15:43:52.99Z</time></trkpt><trkpt lat="43.9216317" lon="12.3130692"><ele>209.66666666666666</ele><time>2026-04-12T15:43:54.906Z</time></trkpt><trkpt lat="43.9217619" lon="12.3132055"><ele>211.33333333333331</ele><time>2026-04-12T15:43:55.902Z</time></trkpt><trkpt lat="43.9218884" lon="12.3133458"><ele>213.0</ele><time>2026-04-12T15:43:56.895Z</time></trkpt><trkpt lat="43.9220182" lon="12.3135049"><ele>213.0</ele><time>2026-04-12T15:43:57.901Z</time></trkpt><trkpt lat="43.9221521" lon="12.3137094"><ele>213.0</ele><time>2026-04-12T15:43:58.92Z</time></trkpt><trkpt lat="43.9223054" lon="12.3139658"><ele>213.0</ele><time>2026-04-12T15:43:59.9Z</time></trkpt><trkpt lat="43.9224555" lon="12.3142316"><ele>215.0</ele><time>2026-04-12T15:44:00.903Z</time></trkpt><trkpt lat="43.9226014" lon="12.3144946"><ele>217.0</ele><time>2026-04-12T15:44:01.89Z</time></trkpt><trkpt lat="43.922752" lon="12.314747"><ele>217.0</ele><time>2026-04-12T15:44:02.897Z</time></trkpt><trkpt lat="43.9228935" lon="12.3149984"><ele>217.0</ele><time>2026-04-12T15:44:03.902Z</time></trkpt><trkpt lat="43.9230101" lon="12.3152688"><ele>217.0</ele><time>2026-04-12T15:44:04.892Z</time></trkpt><trkpt lat="43.9230973" lon="12.3155627"><ele>217.0</ele><time>2026-04-12T15:44:05.88Z</time></trkpt><trkpt lat="43.9231702" lon="12.3158419"><ele>217.0</ele><time>2026-04-12T15:44:06.901Z</time></trkpt><trkpt lat="43.9232497" lon="12.316095"><ele>217.0</ele><time>2026-04-12T15:44:07.902Z</time></trkpt><trkpt lat="43.9233509" lon="12.3163183"><ele>217.0</ele><time>2026-04-12T15:44:08.889Z</time></trkpt><trkpt lat="43.9234857" lon="12.3165288"><ele>217.0</ele><time>2026-04-12T15:44:09.887Z</time></trkpt><trkpt lat="43.9236367" lon="12.3167371"><ele>215.66666666666666</ele><time>2026-04-12T15:44:10.884Z</time></trkpt><trkpt lat="43.9237765" lon="12.3169302"><ele>214.33333333333331</ele><time>2026-04-12T15:44:11.911Z</time></trkpt><trkpt lat="43.923906" lon="12.317106"><ele>213.0</ele><time>2026-04-12T15:44:12.899Z</time></trkpt><trkpt lat="43.9240259" lon="12.3172666"><ele>213.0</ele><time>2026-04-12T15:44:13.885Z</time></trkpt><trkpt lat="43.9241352" lon="12.3174239"><ele>213.0</ele><time>2026-04-12T15:44:14.895Z</time></trkpt><trkpt lat="43.9242482" lon="12.3175741"><ele>213.0</ele><time>2026-04-12T15:44:15.993Z</time></trkpt><trkpt lat="43.9244833" lon="12.3178397"><ele>213.0</ele><time>2026-04-12T15:44:17.897Z</time></trkpt><trkpt lat="43.9246154" lon="12.3179372"><ele>213.0</ele><time>2026-04-12T15:44:18.907Z</time></trkpt><trkpt lat="43.9247617" lon="12.3180188"><ele>213.0</ele><time>2026-04-12T15:44:19.895Z</time></trkpt><trkpt lat="43.9249065" lon="12.3180746"><ele>213.0</ele><time>2026-04-12T15:44:20.894Z</time></trkpt><trkpt lat="43.9250485" lon="12.3181237"><ele>213.0</ele><time>2026-04-12T15:44:21.89Z</time></trkpt><trkpt lat="43.9251913" lon="12.3181745"><ele>213.0</ele><time>2026-04-12T15:44:22.906Z</time></trkpt><trkpt lat="43.925332" lon="12.318242"><ele>213.0</ele><time>2026-04-12T15:44:23.886Z</time></trkpt><trkpt lat="43.9254578" lon="12.3183335"><ele>212.66666666666669</ele><time>2026-04-12T15:44:24.895Z</time></trkpt><trkpt lat="43.9255773" lon="12.3184693"><ele>212.33333333333334</ele><time>2026-04-12T15:44:25.899Z</time></trkpt><trkpt lat="43.9256894" lon="12.3186284"><ele>212.0</ele><time>2026-04-12T15:44:26.909Z</time></trkpt><trkpt lat="43.9257879" lon="12.318797"><ele>211.66666666666669</ele><time>2026-04-12T15:44:27.89Z</time></trkpt><trkpt lat="43.9258763" lon="12.3189697"><ele>211.33333333333331</ele><time>2026-04-12T15:44:28.881Z</time></trkpt><trkpt lat="43.9259712" lon="12.3191437"><ele>211.0</ele><time>2026-04-12T15:44:29.89Z</time></trkpt><trkpt lat="43.9260715" lon="12.3193285"><ele>211.0</ele><time>2026-04-12T15:44:30.885Z</time></trkpt><trkpt lat="43.9261813" lon="12.3195264"><ele>211.0</ele><time>2026-04-12T15:44:31.913Z</time></trkpt><trkpt lat="43.9262975" lon="12.3197382"><ele>211.0</ele><time>2026-04-12T15:44:32.892Z</time></trkpt><trkpt lat="43.9264168" lon="12.3199581"><ele>211.0</ele><time>2026-04-12T15:44:33.891Z</time></trkpt><trkpt lat="43.9265433" lon="12.3201843"><ele>211.0</ele><time>2026-04-12T15:44:34.884Z</time></trkpt><trkpt lat="43.9266784" lon="12.3204206"><ele>211.0</ele><time>2026-04-12T15:44:35.892Z</time></trkpt><trkpt lat="43.9268138" lon="12.3206499"><ele>210.0</ele><time>2026-04-12T15:44:36.889Z</time></trkpt><trkpt lat="43.9269432" lon="12.3208704"><ele>209.0</ele><time>2026-04-12T15:44:37.895Z</time></trkpt><trkpt lat="43.9270641" lon="12.3210781"><ele>208.0</ele><time>2026-04-12T15:44:38.892Z</time></trkpt><trkpt lat="43.9271799" lon="12.3212749"><ele>207.33333333333331</ele><time>2026-04-12T15:44:39.895Z</time></trkpt><trkpt lat="43.9272933" lon="12.321474"><ele>206.66666666666669</ele><time>2026-04-12T15:44:40.904Z</time></trkpt><trkpt lat="43.9274111" lon="12.3216732"><ele>206.0</ele><time>2026-04-12T15:44:41.888Z</time></trkpt><trkpt lat="43.9275265" lon="12.3218574"><ele>205.33333333333334</ele><time>2026-04-12T15:44:42.893Z</time></trkpt><trkpt lat="43.9276337" lon="12.3220294"><ele>204.66666666666669</ele><time>2026-04-12T15:44:43.886Z</time></trkpt><trkpt lat="43.9277405" lon="12.3221864"><ele>204.0</ele><time>2026-04-12T15:44:44.914Z</time></trkpt><trkpt lat="43.9278564" lon="12.3223295"><ele>203.5</ele><time>2026-04-12T15:44:45.892Z</time></trkpt><trkpt lat="43.9279699" lon="12.3224653"><ele>203.0</ele><time>2026-04-12T15:44:46.893Z</time></trkpt><trkpt lat="43.9280778" lon="12.322592"><ele>202.5</ele><time>2026-04-12T15:44:47.894Z</time></trkpt><trkpt lat="43.928176" lon="12.3227131"><ele>202.0</ele><time>2026-04-12T15:44:48.887Z</time></trkpt><trkpt lat="43.9282689" lon="12.3228225"><ele>201.99999999999997</ele><time>2026-04-12T15:44:49.897Z</time></trkpt><trkpt lat="43.9283533" lon="12.3229178"><ele>202.0</ele><time>2026-04-12T15:44:50.883Z</time></trkpt><trkpt lat="43.9284222" lon="12.3229926"><ele>202.0</ele><time>2026-04-12T15:44:51.913Z</time></trkpt><trkpt lat="43.9284734" lon="12.3230653"><ele>202.0</ele><time>2026-04-12T15:44:52.889Z</time></trkpt><trkpt lat="43.9285145" lon="12.3231525"><ele>201.99999999999997</ele><time>2026-04-12T15:44:53.891Z</time></trkpt><trkpt lat="43.9285518" lon="12.3232478"><ele>202.0</ele><time>2026-04-12T15:44:54.889Z</time></trkpt><trkpt lat="43.928593" lon="12.3233378"><ele>202.25</ele><time>2026-04-12T15:44:55.894Z</time></trkpt><trkpt lat="43.928665" lon="12.3234061"><ele>202.5</ele><time>2026-04-12T15:44:56.89Z</time></trkpt><trkpt lat="43.9287603" lon="12.3234503"><ele>202.75</ele><time>2026-04-12T15:44:57.907Z</time></trkpt><trkpt lat="43.9288788" lon="12.3235105"><ele>203.0</ele><time>2026-04-12T15:44:58.901Z</time></trkpt><trkpt lat="43.9290138" lon="12.3236232"><ele>203.0</ele><time>2026-04-12T15:44:59.911Z</time></trkpt><trkpt lat="43.929182" lon="12.3237976"><ele>203.0</ele><time>2026-04-12T15:45:00.892Z</time></trkpt><trkpt lat="43.9293716" lon="12.3240216"><ele>202.0</ele><time>2026-04-12T15:45:02.002Z</time></trkpt><trkpt lat="43.9295713" lon="12.3242955"><ele>201.0</ele><time>2026-04-12T15:45:02.901Z</time></trkpt><trkpt lat="43.9297953" lon="12.3245789"><ele>201.0</ele><time>2026-04-12T15:45:03.885Z</time></trkpt><trkpt lat="43.9300277" lon="12.3248957"><ele>201.0</ele><time>2026-04-12T15:45:04.903Z</time></trkpt><trkpt lat="43.9302545" lon="12.3252551"><ele>200.0</ele><time>2026-04-12T15:45:05.886Z</time></trkpt><trkpt lat="43.9304612" lon="12.3256273"><ele>199.0</ele><time>2026-04-12T15:45:06.922Z</time></trkpt><trkpt lat="43.9306455" lon="12.3259929"><ele>199.0</ele><time>2026-04-12T15:45:07.904Z</time></trkpt><trkpt lat="43.9308124" lon="12.3263257"><ele>199.0</ele><time>2026-04-12T15:45:08.89Z</time></trkpt><trkpt lat="43.9309486" lon="12.3266502"><ele>198.0</ele><time>2026-04-12T15:45:09.885Z</time></trkpt><trkpt lat="43.9310431" lon="12.3270015"><ele>197.0</ele><time>2026-04-12T15:45:10.888Z</time></trkpt><trkpt lat="43.9311119" lon="12.3273942"><ele>197.0</ele><time>2026-04-12T15:45:11.904Z</time></trkpt><trkpt lat="43.931169" lon="12.3278087"><ele>197.0</ele><time>2026-04-12T15:45:12.895Z</time></trkpt><trkpt lat="43.9312326" lon="12.3282476"><ele>196.0</ele><time>2026-04-12T15:45:13.896Z</time></trkpt><trkpt lat="43.9313085" lon="12.3287096"><ele>195.0</ele><time>2026-04-12T15:45:14.896Z</time></trkpt><trkpt lat="43.9313884" lon="12.3291842"><ele>194.5</ele><time>2026-04-12T15:45:15.893Z</time></trkpt><trkpt lat="43.9314637" lon="12.3296276"><ele>194.0</ele><time>2026-04-12T15:45:16.897Z</time></trkpt><trkpt lat="43.9315342" lon="12.3300171"><ele>193.0</ele><time>2026-04-12T15:45:17.913Z</time></trkpt><trkpt lat="43.9315971" lon="12.3303626"><ele>192.0</ele><time>2026-04-12T15:45:18.883Z</time></trkpt><trkpt lat="43.9316512" lon="12.3306851"><ele>190.33333333333334</ele><time>2026-04-12T15:45:19.903Z</time></trkpt><trkpt lat="43.9316991" lon="12.3309888"><ele>188.66666666666669</ele><time>2026-04-12T15:45:20.893Z</time></trkpt><trkpt lat="43.9317436" lon="12.3312719"><ele>187.0</ele><time>2026-04-12T15:45:21.895Z</time></trkpt><trkpt lat="43.9317941" lon="12.3315404"><ele>185.66666666666669</ele><time>2026-04-12T15:45:22.903Z</time></trkpt><trkpt lat="43.93187" lon="12.3317966"><ele>184.33333333333334</ele><time>2026-04-12T15:45:23.907Z</time></trkpt><trkpt lat="43.9319885" lon="12.3320349"><ele>183.0</ele><time>2026-04-12T15:45:24.901Z</time></trkpt><trkpt lat="43.9321506" lon="12.3322656"><ele>183.0</ele><time>2026-04-12T15:45:25.921Z</time></trkpt><trkpt lat="43.9323379" lon="12.3325064"><ele>183.0</ele><time>2026-04-12T15:45:26.999Z</time></trkpt><trkpt lat="43.9325275" lon="12.3327805"><ele>184.5</ele><time>2026-04-12T15:45:27.9Z</time></trkpt><trkpt lat="43.9327179" lon="12.3330609"><ele>186.0</ele><time>2026-04-12T15:45:28.902Z</time></trkpt><trkpt lat="43.9328989" lon="12.3333203"><ele>186.0</ele><time>2026-04-12T15:45:29.886Z</time></trkpt><trkpt lat="43.9330626" lon="12.3335538"><ele>186.0</ele><time>2026-04-12T15:45:30.898Z</time></trkpt><trkpt lat="43.9332167" lon="12.3337642"><ele>185.0</ele><time>2026-04-12T15:45:31.889Z</time></trkpt><trkpt lat="43.9333662" lon="12.3339723"><ele>184.0</ele><time>2026-04-12T15:45:32.901Z</time></trkpt><trkpt lat="43.9335187" lon="12.3341848"><ele>183.0</ele><time>2026-04-12T15:45:33.891Z</time></trkpt><trkpt lat="43.9336633" lon="12.3343959"><ele>182.66666666666666</ele><time>2026-04-12T15:45:34.888Z</time></trkpt><trkpt lat="43.9338116" lon="12.3346059"><ele>182.33333333333331</ele><time>2026-04-12T15:45:35.895Z</time></trkpt><trkpt lat="43.9339612" lon="12.3348163"><ele>182.0</ele><time>2026-04-12T15:45:36.879Z</time></trkpt><trkpt lat="43.9341088" lon="12.3350303"><ele>183.33333333333331</ele><time>2026-04-12T15:45:37.9Z</time></trkpt><trkpt lat="43.9342588" lon="12.3352445"><ele>184.66666666666666</ele><time>2026-04-12T15:45:38.979Z</time></trkpt><trkpt lat="43.9344131" lon="12.3354615"><ele>186.0</ele><time>2026-04-12T15:45:39.884Z</time></trkpt><trkpt lat="43.9345659" lon="12.3356799"><ele>186.0</ele><time>2026-04-12T15:45:40.888Z</time></trkpt><trkpt lat="43.9347167" lon="12.3358983"><ele>186.0</ele><time>2026-04-12T15:45:41.887Z</time></trkpt><trkpt lat="43.9348658" lon="12.3361136"><ele>186.0</ele><time>2026-04-12T15:45:42.91Z</time></trkpt><trkpt lat="43.9350101" lon="12.3363214"><ele>189.33333333333331</ele><time>2026-04-12T15:45:43.882Z</time></trkpt><trkpt lat="43.9351436" lon="12.3365184"><ele>192.66666666666666</ele><time>2026-04-12T15:45:44.899Z</time></trkpt><trkpt lat="43.9352671" lon="12.3366996"><ele>196.0</ele><time>2026-04-12T15:45:45.886Z</time></trkpt><trkpt lat="43.9353825" lon="12.336871"><ele>196.0</ele><time>2026-04-12T15:45:46.903Z</time></trkpt><trkpt lat="43.9354929" lon="12.3370362"><ele>196.0</ele><time>2026-04-12T15:45:47.897Z</time></trkpt><trkpt lat="43.9355962" lon="12.3371981"><ele>196.0</ele><time>2026-04-12T15:45:48.902Z</time></trkpt><trkpt lat="43.9356845" lon="12.33738"><ele>193.66666666666666</ele><time>2026-04-12T15:45:49.885Z</time></trkpt><trkpt lat="43.9357579" lon="12.337581"><ele>191.33333333333331</ele><time>2026-04-12T15:45:50.892Z</time></trkpt><trkpt lat="43.9358144" lon="12.3377972"><ele>189.0</ele><time>2026-04-12T15:45:51.893Z</time></trkpt><trkpt lat="43.9358507" lon="12.3380248"><ele>187.66666666666666</ele><time>2026-04-12T15:45:52.898Z</time></trkpt><trkpt lat="43.9358666" lon="12.3382522"><ele>186.33333333333331</ele><time>2026-04-12T15:45:53.885Z</time></trkpt><trkpt lat="43.9358624" lon="12.3384816"><ele>185.0</ele><time>2026-04-12T15:45:54.892Z</time></trkpt><trkpt lat="43.9358421" lon="12.3387081"><ele>185.33333333333331</ele><time>2026-04-12T15:45:55.888Z</time></trkpt><trkpt lat="43.9358141" lon="12.3389239"><ele>185.66666666666666</ele><time>2026-04-12T15:45:56.893Z</time></trkpt><trkpt lat="43.9357902" lon="12.3391256"><ele>186.0</ele><time>2026-04-12T15:45:57.893Z</time></trkpt><trkpt lat="43.9357759" lon="12.339333"><ele>186.0</ele><time>2026-04-12T15:45:58.89Z</time></trkpt><trkpt lat="43.9357695" lon="12.3395449"><ele>186.0</ele><time>2026-04-12T15:45:59.886Z</time></trkpt><trkpt lat="43.9357849" lon="12.3397556"><ele>186.0</ele><time>2026-04-12T15:46:00.895Z</time></trkpt><trkpt lat="43.9358268" lon="12.3399631"><ele>189.33333333333331</ele><time>2026-04-12T15:46:01.992Z</time></trkpt><trkpt lat="43.9359101" lon="12.3403712"><ele>192.66666666666666</ele><time>2026-04-12T15:46:03.893Z</time></trkpt><trkpt lat="43.9359453" lon="12.3405562"><ele>196.0</ele><time>2026-04-12T15:46:04.886Z</time></trkpt><trkpt lat="43.9359863" lon="12.3407433"><ele>196.0</ele><time>2026-04-12T15:46:05.888Z</time></trkpt><trkpt lat="43.936028" lon="12.3409342"><ele>196.0</ele><time>2026-04-12T15:46:06.871Z</time></trkpt><trkpt lat="43.9360683" lon="12.3411206"><ele>196.0</ele><time>2026-04-12T15:46:07.885Z</time></trkpt><trkpt lat="43.9361076" lon="12.3412984"><ele>196.0</ele><time>2026-04-12T15:46:08.879Z</time></trkpt><trkpt lat="43.936142" lon="12.3414682"><ele>195.5</ele><time>2026-04-12T15:46:09.884Z</time></trkpt><trkpt lat="43.936167" lon="12.3416318"><ele>195.0</ele><time>2026-04-12T15:46:10.887Z</time></trkpt><trkpt lat="43.9361729" lon="12.3417988"><ele>194.5</ele><time>2026-04-12T15:46:11.887Z</time></trkpt><trkpt lat="43.9361566" lon="12.3419701"><ele>194.0</ele><time>2026-04-12T15:46:12.9Z</time></trkpt><trkpt lat="43.9361168" lon="12.3421373"><ele>194.5</ele><time>2026-04-12T15:46:13.964Z</time></trkpt><trkpt lat="43.9360598" lon="12.3422907"><ele>195.0</ele><time>2026-04-12T15:46:14.886Z</time></trkpt><trkpt lat="43.9359942" lon="12.3424315"><ele>195.5</ele><time>2026-04-12T15:46:15.896Z</time></trkpt><trkpt lat="43.9359133" lon="12.3425579"><ele>196.0</ele><time>2026-04-12T15:46:16.89Z</time></trkpt><trkpt lat="43.9358138" lon="12.3426664"><ele>192.5</ele><time>2026-04-12T15:46:17.882Z</time></trkpt><trkpt lat="43.9357119" lon="12.3427599"><ele>189.0</ele><time>2026-04-12T15:46:18.884Z</time></trkpt><trkpt lat="43.9355943" lon="12.3428387"><ele>185.5</ele><time>2026-04-12T15:46:19.895Z</time></trkpt><trkpt lat="43.9354673" lon="12.3429102"><ele>182.0</ele><time>2026-04-12T15:46:20.875Z</time></trkpt><trkpt lat="43.9353367" lon="12.3429844"><ele>182.25</ele><time>2026-04-12T15:46:21.883Z</time></trkpt><trkpt lat="43.93521" lon="12.3430599"><ele>182.5</ele><time>2026-04-12T15:46:22.898Z</time></trkpt><trkpt lat="43.9350895" lon="12.3431355"><ele>182.75</ele><time>2026-04-12T15:46:23.902Z</time></trkpt><trkpt lat="43.9349828" lon="12.34321"><ele>183.0</ele><time>2026-04-12T15:46:24.892Z</time></trkpt><trkpt lat="43.934881" lon="12.3432919"><ele>182.0</ele><time>2026-04-12T15:46:25.996Z</time></trkpt><trkpt lat="43.9347849" lon="12.343383"><ele>181.0</ele><time>2026-04-12T15:46:26.896Z</time></trkpt><trkpt lat="43.9347" lon="12.3435068"><ele>180.0</ele><time>2026-04-12T15:46:27.889Z</time></trkpt><trkpt lat="43.9346328" lon="12.3436658"><ele>179.0</ele><time>2026-04-12T15:46:28.893Z</time></trkpt><trkpt lat="43.9345862" lon="12.343858"><ele>179.0</ele><time>2026-04-12T15:46:29.887Z</time></trkpt><trkpt lat="43.9345514" lon="12.3440549"><ele>179.0</ele><time>2026-04-12T15:46:30.903Z</time></trkpt><trkpt lat="43.9345161" lon="12.3442474"><ele>179.0</ele><time>2026-04-12T15:46:31.919Z</time></trkpt><trkpt lat="43.934498" lon="12.344448"><ele>179.0</ele><time>2026-04-12T15:46:32.885Z</time></trkpt><trkpt lat="43.9345074" lon="12.3446601"><ele>180.0</ele><time>2026-04-12T15:46:33.898Z</time></trkpt><trkpt lat="43.9345603" lon="12.3448677"><ele>181.0</ele><time>2026-04-12T15:46:34.904Z</time></trkpt><trkpt lat="43.9346381" lon="12.3450708"><ele>182.0</ele><time>2026-04-12T15:46:35.894Z</time></trkpt><trkpt lat="43.9347221" lon="12.3452667"><ele>182.0</ele><time>2026-04-12T15:46:36.894Z</time></trkpt><trkpt lat="43.9348123" lon="12.3454499"><ele>182.0</ele><time>2026-04-12T15:46:37.976Z</time></trkpt><trkpt lat="43.9348972" lon="12.3456299"><ele>182.0</ele><time>2026-04-12T15:46:38.891Z</time></trkpt><trkpt lat="43.9349803" lon="12.3458002"><ele>181.0</ele><time>2026-04-12T15:46:39.896Z</time></trkpt><trkpt lat="43.9350557" lon="12.3459549"><ele>180.0</ele><time>2026-04-12T15:46:40.886Z</time></trkpt><trkpt lat="43.9351444" lon="12.3461011"><ele>179.0</ele><time>2026-04-12T15:46:41.889Z</time></trkpt><trkpt lat="43.9352602" lon="12.3462278"><ele>178.0</ele><time>2026-04-12T15:46:42.906Z</time></trkpt><trkpt lat="43.9354061" lon="12.3463415"><ele>179.66666666666669</ele><time>2026-04-12T15:46:43.883Z</time></trkpt><trkpt lat="43.9355788" lon="12.346434"><ele>181.33333333333334</ele><time>2026-04-12T15:46:44.903Z</time></trkpt><trkpt lat="43.9357664" lon="12.3465131"><ele>183.0</ele><time>2026-04-12T15:46:45.88Z</time></trkpt><trkpt lat="43.9359626" lon="12.3465989"><ele>183.0</ele><time>2026-04-12T15:46:46.9Z</time></trkpt><trkpt lat="43.9361492" lon="12.3466897"><ele>183.0</ele><time>2026-04-12T15:46:47.886Z</time></trkpt><trkpt lat="43.9363052" lon="12.3467822"><ele>183.0</ele><time>2026-04-12T15:46:48.887Z</time></trkpt><trkpt lat="43.9364508" lon="12.346859"><ele>183.0</ele><time>2026-04-12T15:46:49.888Z</time></trkpt><trkpt lat="43.9365976" lon="12.3469337"><ele>183.0</ele><time>2026-04-12T15:46:50.884Z</time></trkpt><trkpt lat="43.9367507" lon="12.3470045"><ele>183.0</ele><time>2026-04-12T15:46:51.903Z</time></trkpt><trkpt lat="43.9368977" lon="12.3470792"><ele>183.33333333333334</ele><time>2026-04-12T15:46:52.879Z</time></trkpt><trkpt lat="43.9370416" lon="12.3471598"><ele>183.66666666666669</ele><time>2026-04-12T15:46:53.877Z</time></trkpt><trkpt lat="43.9371825" lon="12.347249"><ele>184.0</ele><time>2026-04-12T15:46:54.9Z</time></trkpt><trkpt lat="43.9373214" lon="12.3473588"><ele>184.0</ele><time>2026-04-12T15:46:55.881Z</time></trkpt><trkpt lat="43.9374592" lon="12.3474849"><ele>184.0</ele><time>2026-04-12T15:46:56.896Z</time></trkpt><trkpt lat="43.9375934" lon="12.3476144"><ele>184.0</ele><time>2026-04-12T15:46:57.882Z</time></trkpt><trkpt lat="43.937726" lon="12.3477401"><ele>183.5</ele><time>2026-04-12T15:46:58.894Z</time></trkpt><trkpt lat="43.9378515" lon="12.3478596"><ele>183.0</ele><time>2026-04-12T15:46:59.886Z</time></trkpt><trkpt lat="43.9379732" lon="12.3479791"><ele>182.5</ele><time>2026-04-12T15:47:00.918Z</time></trkpt><trkpt lat="43.9380844" lon="12.3481057"><ele>182.0</ele><time>2026-04-12T15:47:01.886Z</time></trkpt><trkpt lat="43.938178" lon="12.3482387"><ele>182.0</ele><time>2026-04-12T15:47:02.892Z</time></trkpt><trkpt lat="43.9382595" lon="12.3483967"><ele>182.0</ele><time>2026-04-12T15:47:03.893Z</time></trkpt><trkpt lat="43.9383149" lon="12.3485576"><ele>182.0</ele><time>2026-04-12T15:47:04.884Z</time></trkpt><trkpt lat="43.9383508" lon="12.3487316"><ele>182.0</ele><time>2026-04-12T15:47:05.902Z</time></trkpt><trkpt lat="43.9383705" lon="12.3489255"><ele>182.33333333333331</ele><time>2026-04-12T15:47:06.885Z</time></trkpt><trkpt lat="43.9383763" lon="12.3491312"><ele>182.66666666666666</ele><time>2026-04-12T15:47:07.877Z</time></trkpt><trkpt lat="43.9383651" lon="12.3493497"><ele>183.0</ele><time>2026-04-12T15:47:08.886Z</time></trkpt><trkpt lat="43.9383431" lon="12.3495827"><ele>181.66666666666666</ele><time>2026-04-12T15:47:09.901Z</time></trkpt><trkpt lat="43.9383194" lon="12.3498023"><ele>180.33333333333331</ele><time>2026-04-12T15:47:10.916Z</time></trkpt><trkpt lat="43.9382942" lon="12.3500159"><ele>179.0</ele><time>2026-04-12T15:47:11.895Z</time></trkpt><trkpt lat="43.9382707" lon="12.3502348"><ele>179.0</ele><time>2026-04-12T15:47:12.874Z</time></trkpt><trkpt lat="43.9382463" lon="12.35044"><ele>179.0</ele><time>2026-04-12T15:47:13.903Z</time></trkpt><trkpt lat="43.9382246" lon="12.3506348"><ele>179.0</ele><time>2026-04-12T15:47:14.89Z</time></trkpt><trkpt lat="43.9382122" lon="12.3508303"><ele>179.0</ele><time>2026-04-12T15:47:15.887Z</time></trkpt><trkpt lat="43.9382198" lon="12.3510212"><ele>179.0</ele><time>2026-04-12T15:47:16.91Z</time></trkpt><trkpt lat="43.9382562" lon="12.3512158"><ele>179.0</ele><time>2026-04-12T15:47:17.893Z</time></trkpt><trkpt lat="43.9383263" lon="12.3514133"><ele>179.0</ele><time>2026-04-12T15:47:18.889Z</time></trkpt><trkpt lat="43.938428" lon="12.3516032"><ele>176.33333333333331</ele><time>2026-04-12T15:47:19.887Z</time></trkpt><trkpt lat="43.9385573" lon="12.3518021"><ele>173.66666666666666</ele><time>2026-04-12T15:47:20.889Z</time></trkpt><trkpt lat="43.9386999" lon="12.35202"><ele>171.0</ele><time>2026-04-12T15:47:21.885Z</time></trkpt><trkpt lat="43.9388485" lon="12.3522564"><ele>171.0</ele><time>2026-04-12T15:47:22.887Z</time></trkpt><trkpt lat="43.9390065" lon="12.352512"><ele>171.0</ele><time>2026-04-12T15:47:23.884Z</time></trkpt><trkpt lat="43.9391669" lon="12.3527638"><ele>168.5</ele><time>2026-04-12T15:47:24.891Z</time></trkpt><trkpt lat="43.9393297" lon="12.3529932"><ele>166.0</ele><time>2026-04-12T15:47:25.911Z</time></trkpt><trkpt lat="43.9394906" lon="12.3532044"><ele>166.0</ele><time>2026-04-12T15:47:26.884Z</time></trkpt><trkpt lat="43.9396503" lon="12.3533908"><ele>166.0</ele><time>2026-04-12T15:47:27.887Z</time></trkpt><trkpt lat="43.9398054" lon="12.3535522"><ele>166.0</ele><time>2026-04-12T15:47:28.893Z</time></trkpt><trkpt lat="43.9399656" lon="12.353707"><ele>165.0</ele><time>2026-04-12T15:47:29.889Z</time></trkpt><trkpt lat="43.9401199" lon="12.3538505"><ele>164.0</ele><time>2026-04-12T15:47:30.904Z</time></trkpt><trkpt lat="43.9402738" lon="12.3539953"><ele>163.0</ele><time>2026-04-12T15:47:31.888Z</time></trkpt><trkpt lat="43.940433" lon="12.3541428"><ele>163.0</ele><time>2026-04-12T15:47:32.878Z</time></trkpt><trkpt lat="43.9405968" lon="12.3542924"><ele>163.0</ele><time>2026-04-12T15:47:33.889Z</time></trkpt><trkpt lat="43.9407614" lon="12.3544384"><ele>163.0</ele><time>2026-04-12T15:47:34.877Z</time></trkpt><trkpt lat="43.9409281" lon="12.3545835"><ele>163.0</ele><time>2026-04-12T15:47:35.888Z</time></trkpt><trkpt lat="43.9410956" lon="12.3547329"><ele>163.0</ele><time>2026-04-12T15:47:36.88Z</time></trkpt><trkpt lat="43.9412731" lon="12.354884"><ele>163.0</ele><time>2026-04-12T15:47:37.899Z</time></trkpt><trkpt lat="43.9414624" lon="12.355044"><ele>163.0</ele><time>2026-04-12T15:47:38.893Z</time></trkpt><trkpt lat="43.9416688" lon="12.3552197"><ele>163.0</ele><time>2026-04-12T15:47:39.888Z</time></trkpt><trkpt lat="43.9418972" lon="12.3554284"><ele>161.5</ele><time>2026-04-12T15:47:40.898Z</time></trkpt><trkpt lat="43.9421497" lon="12.3556632"><ele>160.0</ele><time>2026-04-12T15:47:41.891Z</time></trkpt><trkpt lat="43.9424188" lon="12.3559099"><ele>160.5</ele><time>2026-04-12T15:47:42.884Z</time></trkpt><trkpt lat="43.9426896" lon="12.3561541"><ele>161.0</ele><time>2026-04-12T15:47:43.893Z</time></trkpt><trkpt lat="43.9429594" lon="12.3564059"><ele>161.0</ele><time>2026-04-12T15:47:44.882Z</time></trkpt><trkpt lat="43.9432293" lon="12.356681"><ele>161.0</ele><time>2026-04-12T15:47:45.885Z</time></trkpt><trkpt lat="43.9434782" lon="12.3570041"><ele>160.5</ele><time>2026-04-12T15:47:46.9Z</time></trkpt><trkpt lat="43.9437088" lon="12.3573651"><ele>160.0</ele><time>2026-04-12T15:47:47.888Z</time></trkpt><trkpt lat="43.9439408" lon="12.3577527"><ele>161.0</ele><time>2026-04-12T15:47:48.892Z</time></trkpt><trkpt lat="43.944184" lon="12.3581578"><ele>162.0</ele><time>2026-04-12T15:47:49.887Z</time></trkpt><trkpt lat="43.9444279" lon="12.3585504"><ele>161.0</ele><time>2026-04-12T15:47:50.895Z</time></trkpt><trkpt lat="43.9446533" lon="12.3589154"><ele>160.0</ele><time>2026-04-12T15:47:51.898Z</time></trkpt><trkpt lat="43.944859" lon="12.3592472"><ele>160.0</ele><time>2026-04-12T15:47:52.917Z</time></trkpt><trkpt lat="43.9450484" lon="12.3595627"><ele>160.0</ele><time>2026-04-12T15:47:53.896Z</time></trkpt><trkpt lat="43.9452366" lon="12.3598632"><ele>160.0</ele><time>2026-04-12T15:47:54.896Z</time></trkpt><trkpt lat="43.9454258" lon="12.3601475"><ele>160.0</ele><time>2026-04-12T15:47:55.897Z</time></trkpt><trkpt lat="43.9456357" lon="12.36041"><ele>160.5</ele><time>2026-04-12T15:47:56.892Z</time></trkpt><trkpt lat="43.9458499" lon="12.3606326"><ele>161.0</ele><time>2026-04-12T15:47:57.883Z</time></trkpt><trkpt lat="43.9460618" lon="12.3608004"><ele>161.0</ele><time>2026-04-12T15:47:58.896Z</time></trkpt><trkpt lat="43.9462729" lon="12.3609495"><ele>161.0</ele><time>2026-04-12T15:47:59.913Z</time></trkpt><trkpt lat="43.9464811" lon="12.361098"><ele>161.0</ele><time>2026-04-12T15:48:00.892Z</time></trkpt><trkpt lat="43.9466783" lon="12.3612449"><ele>161.0</ele><time>2026-04-12T15:48:01.887Z</time></trkpt><trkpt lat="43.9468754" lon="12.3614114"><ele>162.0</ele><time>2026-04-12T15:48:02.886Z</time></trkpt><trkpt lat="43.9470659" lon="12.3615933"><ele>163.0</ele><time>2026-04-12T15:48:03.901Z</time></trkpt><trkpt lat="43.9472513" lon="12.3617833"><ele>163.0</ele><time>2026-04-12T15:48:04.887Z</time></trkpt><trkpt lat="43.947447" lon="12.3619793"><ele>163.0</ele><time>2026-04-12T15:48:05.88Z</time></trkpt><trkpt lat="43.9476371" lon="12.362187"><ele>163.0</ele><time>2026-04-12T15:48:06.883Z</time></trkpt><trkpt lat="43.9478244" lon="12.3623867"><ele>163.0</ele><time>2026-04-12T15:48:07.879Z</time></trkpt><trkpt lat="43.9479883" lon="12.3625918"><ele>163.0</ele><time>2026-04-12T15:48:08.898Z</time></trkpt><trkpt lat="43.9481352" lon="12.3628103"><ele>163.0</ele><time>2026-04-12T15:48:09.886Z</time></trkpt><trkpt lat="43.9482678" lon="12.3630439"><ele>163.0</ele><time>2026-04-12T15:48:10.879Z</time></trkpt><trkpt lat="43.948389" lon="12.3632937"><ele>162.33333333333334</ele><time>2026-04-12T15:48:11.884Z</time></trkpt><trkpt lat="43.9484866" lon="12.363542"><ele>161.66666666666666</ele><time>2026-04-12T15:48:12.885Z</time></trkpt><trkpt lat="43.9485633" lon="12.363766"><ele>161.0</ele><time>2026-04-12T15:48:13.988Z</time></trkpt><trkpt lat="43.9486403" lon="12.3639853"><ele>161.0</ele><time>2026-04-12T15:48:14.89Z</time></trkpt><trkpt lat="43.9487206" lon="12.3642141"><ele>161.0</ele><time>2026-04-12T15:48:15.911Z</time></trkpt><trkpt lat="43.9488016" lon="12.3644519"><ele>161.0</ele><time>2026-04-12T15:48:16.889Z</time></trkpt><trkpt lat="43.9488886" lon="12.3646867"><ele>163.0</ele><time>2026-04-12T15:48:17.893Z</time></trkpt><trkpt lat="43.9489839" lon="12.3649135"><ele>165.0</ele><time>2026-04-12T15:48:18.905Z</time></trkpt><trkpt lat="43.9490931" lon="12.3651407"><ele>167.0</ele><time>2026-04-12T15:48:19.887Z</time></trkpt><trkpt lat="43.9492188" lon="12.3653725"><ele>167.0</ele><time>2026-04-12T15:48:20.89Z</time></trkpt><trkpt lat="43.9493607" lon="12.3656042"><ele>167.0</ele><time>2026-04-12T15:48:21.882Z</time></trkpt><trkpt lat="43.9495277" lon="12.365829"><ele>167.0</ele><time>2026-04-12T15:48:22.882Z</time></trkpt><trkpt lat="43.9497003" lon="12.3660385"><ele>167.0</ele><time>2026-04-12T15:48:23.898Z</time></trkpt><trkpt lat="43.9498662" lon="12.3662302"><ele>167.0</ele><time>2026-04-12T15:48:24.882Z</time></trkpt><trkpt lat="43.9500306" lon="12.366418"><ele>163.66666666666666</ele><time>2026-04-12T15:48:25.899Z</time></trkpt><trkpt lat="43.9502052" lon="12.366598"><ele>160.33333333333334</ele><time>2026-04-12T15:48:26.888Z</time></trkpt><trkpt lat="43.9503775" lon="12.3667846"><ele>157.0</ele><time>2026-04-12T15:48:27.907Z</time></trkpt><trkpt lat="43.950558" lon="12.3669774"><ele>157.0</ele><time>2026-04-12T15:48:28.892Z</time></trkpt><trkpt lat="43.9507384" lon="12.3671737"><ele>157.0</ele><time>2026-04-12T15:48:29.901Z</time></trkpt><trkpt lat="43.950907" lon="12.3673576"><ele>157.0</ele><time>2026-04-12T15:48:30.888Z</time></trkpt><trkpt lat="43.9510715" lon="12.3675413"><ele>158.0</ele><time>2026-04-12T15:48:31.907Z</time></trkpt><trkpt lat="43.9512314" lon="12.367722"><ele>159.0</ele><time>2026-04-12T15:48:32.892Z</time></trkpt><trkpt lat="43.9513923" lon="12.3679032"><ele>160.0</ele><time>2026-04-12T15:48:33.892Z</time></trkpt><trkpt lat="43.9515456" lon="12.3680834"><ele>161.66666666666669</ele><time>2026-04-12T15:48:34.888Z</time></trkpt><trkpt lat="43.9516887" lon="12.3682604"><ele>163.33333333333334</ele><time>2026-04-12T15:48:35.908Z</time></trkpt><trkpt lat="43.9518275" lon="12.3684439"><ele>165.0</ele><time>2026-04-12T15:48:36.893Z</time></trkpt><trkpt lat="43.9519694" lon="12.3686351"><ele>165.0</ele><time>2026-04-12T15:48:37.885Z</time></trkpt><trkpt lat="43.9520981" lon="12.3688359"><ele>165.0</ele><time>2026-04-12T15:48:38.887Z</time></trkpt><trkpt lat="43.9522146" lon="12.3690407"><ele>165.0</ele><time>2026-04-12T15:48:39.896Z</time></trkpt><trkpt lat="43.9523131" lon="12.3692434"><ele>165.66666666666666</ele><time>2026-04-12T15:48:40.899Z</time></trkpt><trkpt lat="43.9523976" lon="12.3694613"><ele>166.33333333333331</ele><time>2026-04-12T15:48:41.89Z</time></trkpt><trkpt lat="43.95247" lon="12.3696753"><ele>167.0</ele><time>2026-04-12T15:48:42.885Z</time></trkpt><trkpt lat="43.9525395" lon="12.3698933"><ele>165.33333333333331</ele><time>2026-04-12T15:48:43.894Z</time></trkpt><trkpt lat="43.9526008" lon="12.3701143"><ele>163.66666666666666</ele><time>2026-04-12T15:48:44.889Z</time></trkpt><trkpt lat="43.952656" lon="12.3703269"><ele>162.0</ele><time>2026-04-12T15:48:45.9Z</time></trkpt><trkpt lat="43.9527084" lon="12.3705192"><ele>162.5</ele><time>2026-04-12T15:48:46.89Z</time></trkpt><trkpt lat="43.9527599" lon="12.3706967"><ele>163.0</ele><time>2026-04-12T15:48:47.886Z</time></trkpt><trkpt lat="43.9528069" lon="12.3708707"><ele>163.5</ele><time>2026-04-12T15:48:48.899Z</time></trkpt><trkpt lat="43.9528562" lon="12.3710374"><ele>164.0</ele><time>2026-04-12T15:48:49.888Z</time></trkpt><trkpt lat="43.952906" lon="12.3712033"><ele>164.0</ele><time>2026-04-12T15:48:50.898Z</time></trkpt><trkpt lat="43.9529588" lon="12.3713749"><ele>164.0</ele><time>2026-04-12T15:48:51.915Z</time></trkpt><trkpt lat="43.9530085" lon="12.3715432"><ele>164.0</ele><time>2026-04-12T15:48:52.882Z</time></trkpt><trkpt lat="43.9530571" lon="12.3717063"><ele>164.0</ele><time>2026-04-12T15:48:53.878Z</time></trkpt><trkpt lat="43.9530998" lon="12.3718521"><ele>164.0</ele><time>2026-04-12T15:48:54.89Z</time></trkpt><trkpt lat="43.95314" lon="12.3719912"><ele>164.0</ele><time>2026-04-12T15:48:55.895Z</time></trkpt><trkpt lat="43.9531759" lon="12.3721182"><ele>164.0</ele><time>2026-04-12T15:48:56.879Z</time></trkpt><trkpt lat="43.9532025" lon="12.3722187"><ele>164.0</ele><time>2026-04-12T15:48:57.974Z</time></trkpt><trkpt lat="43.9532239" lon="12.3723435"><ele>164.0</ele><time>2026-04-12T15:48:59.885Z</time></trkpt><trkpt lat="43.9532324" lon="12.3724406"><ele>164.0</ele><time>2026-04-12T15:49:02.905Z</time></trkpt><trkpt lat="43.9532578" lon="12.3725761"><ele>164.2</ele><time>2026-04-12T15:49:21.899Z</time></trkpt><trkpt lat="43.953302" lon="12.3726746"><ele>164.39999999999998</ele><time>2026-04-12T15:49:22.894Z</time></trkpt><trkpt lat="43.9533258" lon="12.372803"><ele>164.6</ele><time>2026-04-12T15:49:23.889Z</time></trkpt><trkpt lat="43.9533375" lon="12.3729497"><ele>164.8</ele><time>2026-04-12T15:49:24.893Z</time></trkpt><trkpt lat="43.9533667" lon="12.3731023"><ele>165.0</ele><time>2026-04-12T15:49:25.89Z</time></trkpt><trkpt lat="43.9534447" lon="12.3732697"><ele>164.0</ele><time>2026-04-12T15:49:26.885Z</time></trkpt><trkpt lat="43.9535501" lon="12.3734697"><ele>163.0</ele><time>2026-04-12T15:49:27.887Z</time></trkpt><trkpt lat="43.9536668" lon="12.3737292"><ele>162.0</ele><time>2026-04-12T15:49:28.895Z</time></trkpt><trkpt lat="43.9537616" lon="12.3740565"><ele>162.0</ele><time>2026-04-12T15:49:29.884Z</time></trkpt><trkpt lat="43.953864" lon="12.3744148"><ele>162.0</ele><time>2026-04-12T15:49:30.893Z</time></trkpt><trkpt lat="43.9539628" lon="12.3747799"><ele>162.5</ele><time>2026-04-12T15:49:31.893Z</time></trkpt><trkpt lat="43.9540567" lon="12.3751226"><ele>163.0</ele><time>2026-04-12T15:49:32.974Z</time></trkpt><trkpt lat="43.9541464" lon="12.3754563"><ele>159.5</ele><time>2026-04-12T15:49:33.894Z</time></trkpt><trkpt lat="43.9542381" lon="12.3757789"><ele>156.0</ele><time>2026-04-12T15:49:34.911Z</time></trkpt><trkpt lat="43.9543327" lon="12.3760955"><ele>156.5</ele><time>2026-04-12T15:49:35.885Z</time></trkpt><trkpt lat="43.9544349" lon="12.3764134"><ele>157.0</ele><time>2026-04-12T15:49:36.892Z</time></trkpt><trkpt lat="43.9545455" lon="12.3767292"><ele>157.0</ele><time>2026-04-12T15:49:37.886Z</time></trkpt><trkpt lat="43.9546644" lon="12.3770433"><ele>157.0</ele><time>2026-04-12T15:49:38.884Z</time></trkpt><trkpt lat="43.9547862" lon="12.3773582"><ele>159.0</ele><time>2026-04-12T15:49:39.901Z</time></trkpt><trkpt lat="43.9549073" lon="12.377666"><ele>161.0</ele><time>2026-04-12T15:49:40.892Z</time></trkpt><trkpt lat="43.9550274" lon="12.3779743"><ele>156.0</ele><time>2026-04-12T15:49:41.887Z</time></trkpt><trkpt lat="43.9551473" lon="12.3782819"><ele>151.0</ele><time>2026-04-12T15:49:42.883Z</time></trkpt><trkpt lat="43.9552627" lon="12.378584"><ele>152.0</ele><time>2026-04-12T15:49:43.891Z</time></trkpt><trkpt lat="43.9553849" lon="12.3788856"><ele>153.0</ele><time>2026-04-12T15:49:44.885Z</time></trkpt><trkpt lat="43.9555068" lon="12.3791828"><ele>153.0</ele><time>2026-04-12T15:49:45.887Z</time></trkpt><trkpt lat="43.9556297" lon="12.3794822"><ele>153.0</ele><time>2026-04-12T15:49:46.876Z</time></trkpt><trkpt lat="43.9557518" lon="12.379784"><ele>146.5</ele><time>2026-04-12T15:49:47.88Z</time></trkpt><trkpt lat="43.9558751" lon="12.3800821"><ele>140.0</ele><time>2026-04-12T15:49:48.887Z</time></trkpt><trkpt lat="43.9559958" lon="12.3803807"><ele>143.5</ele><time>2026-04-12T15:49:49.89Z</time></trkpt><trkpt lat="43.9561202" lon="12.3806749"><ele>147.0</ele><time>2026-04-12T15:49:50.87Z</time></trkpt><trkpt lat="43.9562455" lon="12.3809729"><ele>147.0</ele><time>2026-04-12T15:49:51.89Z</time></trkpt><trkpt lat="43.9563672" lon="12.3812698"><ele>147.0</ele><time>2026-04-12T15:49:52.884Z</time></trkpt><trkpt lat="43.956494" lon="12.3815724"><ele>149.5</ele><time>2026-04-12T15:49:53.899Z</time></trkpt><trkpt lat="43.9566199" lon="12.3818744"><ele>152.0</ele><time>2026-04-12T15:49:54.884Z</time></trkpt><trkpt lat="43.9567496" lon="12.3821793"><ele>146.0</ele><time>2026-04-12T15:49:55.889Z</time></trkpt><trkpt lat="43.956875" lon="12.3824861"><ele>140.0</ele><time>2026-04-12T15:49:56.883Z</time></trkpt><trkpt lat="43.957" lon="12.3827949"><ele>143.5</ele><time>2026-04-12T15:49:57.876Z</time></trkpt><trkpt lat="43.957125" lon="12.3830963"><ele>147.0</ele><time>2026-04-12T15:49:58.889Z</time></trkpt><trkpt lat="43.9572535" lon="12.3833968"><ele>147.0</ele><time>2026-04-12T15:49:59.958Z</time></trkpt><trkpt lat="43.9573732" lon="12.3836905"><ele>147.0</ele><time>2026-04-12T15:50:00.892Z</time></trkpt><trkpt lat="43.9574876" lon="12.3839662"><ele>142.66666666666666</ele><time>2026-04-12T15:50:01.896Z</time></trkpt><trkpt lat="43.9575901" lon="12.384229"><ele>138.33333333333331</ele><time>2026-04-12T15:50:02.891Z</time></trkpt><trkpt lat="43.9576888" lon="12.3844902"><ele>134.0</ele><time>2026-04-12T15:50:03.882Z</time></trkpt><trkpt lat="43.9577689" lon="12.384761"><ele>134.33333333333331</ele><time>2026-04-12T15:50:04.884Z</time></trkpt><trkpt lat="43.9578264" lon="12.3850411"><ele>134.66666666666666</ele><time>2026-04-12T15:50:05.878Z</time></trkpt><trkpt lat="43.9578625" lon="12.3853269"><ele>135.0</ele><time>2026-04-12T15:50:06.921Z</time></trkpt><trkpt lat="43.9578846" lon="12.3856082"><ele>135.0</ele><time>2026-04-12T15:50:07.877Z</time></trkpt><trkpt lat="43.9578861" lon="12.3858915"><ele>135.0</ele><time>2026-04-12T15:50:08.887Z</time></trkpt><trkpt lat="43.9578683" lon="12.3861731"><ele>135.0</ele><time>2026-04-12T15:50:09.885Z</time></trkpt><trkpt lat="43.9578282" lon="12.3864546"><ele>134.66666666666666</ele><time>2026-04-12T15:50:10.897Z</time></trkpt><trkpt lat="43.957772" lon="12.3867291"><ele>134.33333333333331</ele><time>2026-04-12T15:50:11.887Z</time></trkpt><trkpt lat="43.9577029" lon="12.3869944"><ele>134.0</ele><time>2026-04-12T15:50:12.891Z</time></trkpt><trkpt lat="43.9576361" lon="12.3872594"><ele>135.33333333333331</ele><time>2026-04-12T15:50:13.887Z</time></trkpt><trkpt lat="43.9575707" lon="12.3875175"><ele>136.66666666666666</ele><time>2026-04-12T15:50:14.907Z</time></trkpt><trkpt lat="43.9575063" lon="12.387761"><ele>138.0</ele><time>2026-04-12T15:50:15.888Z</time></trkpt><trkpt lat="43.9574397" lon="12.3880091"><ele>136.66666666666666</ele><time>2026-04-12T15:50:16.888Z</time></trkpt><trkpt lat="43.9573736" lon="12.3882543"><ele>135.33333333333331</ele><time>2026-04-12T15:50:17.884Z</time></trkpt><trkpt lat="43.9573119" lon="12.3884939"><ele>134.0</ele><time>2026-04-12T15:50:18.917Z</time></trkpt><trkpt lat="43.957252" lon="12.3887271"><ele>132.66666666666666</ele><time>2026-04-12T15:50:19.895Z</time></trkpt><trkpt lat="43.9571936" lon="12.3889571"><ele>131.33333333333334</ele><time>2026-04-12T15:50:20.884Z</time></trkpt><trkpt lat="43.9571332" lon="12.3891959"><ele>130.0</ele><time>2026-04-12T15:50:21.892Z</time></trkpt><trkpt lat="43.9570825" lon="12.389444"><ele>130.33333333333334</ele><time>2026-04-12T15:50:22.892Z</time></trkpt><trkpt lat="43.9570398" lon="12.3896955"><ele>130.66666666666666</ele><time>2026-04-12T15:50:23.888Z</time></trkpt><trkpt lat="43.9570077" lon="12.3899445"><ele>131.0</ele><time>2026-04-12T15:50:24.889Z</time></trkpt><trkpt lat="43.9569877" lon="12.3901856"><ele>131.0</ele><time>2026-04-12T15:50:25.887Z</time></trkpt><trkpt lat="43.9569736" lon="12.3904209"><ele>131.0</ele><time>2026-04-12T15:50:26.89Z</time></trkpt><trkpt lat="43.9569678" lon="12.3906587"><ele>131.0</ele><time>2026-04-12T15:50:27.888Z</time></trkpt><trkpt lat="43.9569732" lon="12.3909066"><ele>130.66666666666666</ele><time>2026-04-12T15:50:28.878Z</time></trkpt><trkpt lat="43.956988" lon="12.3911577"><ele>130.33333333333334</ele><time>2026-04-12T15:50:29.895Z</time></trkpt><trkpt lat="43.9570078" lon="12.3914035"><ele>130.0</ele><time>2026-04-12T15:50:30.892Z</time></trkpt><trkpt lat="43.9570344" lon="12.391636"><ele>130.0</ele><time>2026-04-12T15:50:31.89Z</time></trkpt><trkpt lat="43.9570733" lon="12.3918705"><ele>130.0</ele><time>2026-04-12T15:50:32.888Z</time></trkpt><trkpt lat="43.9571285" lon="12.3921174"><ele>130.0</ele><time>2026-04-12T15:50:33.898Z</time></trkpt><trkpt lat="43.9571973" lon="12.3923713"><ele>130.33333333333334</ele><time>2026-04-12T15:50:34.885Z</time></trkpt><trkpt lat="43.9572747" lon="12.3926317"><ele>130.66666666666666</ele><time>2026-04-12T15:50:35.985Z</time></trkpt><trkpt lat="43.9573562" lon="12.3928859"><ele>131.0</ele><time>2026-04-12T15:50:36.885Z</time></trkpt><trkpt lat="43.9574375" lon="12.3931201"><ele>129.66666666666666</ele><time>2026-04-12T15:50:37.89Z</time></trkpt><trkpt lat="43.9575164" lon="12.3933377"><ele>128.33333333333334</ele><time>2026-04-12T15:50:38.879Z</time></trkpt><trkpt lat="43.9575957" lon="12.3935592"><ele>127.0</ele><time>2026-04-12T15:50:39.889Z</time></trkpt><trkpt lat="43.9576733" lon="12.3937858"><ele>127.33333333333334</ele><time>2026-04-12T15:50:40.896Z</time></trkpt><trkpt lat="43.9577561" lon="12.3940187"><ele>127.66666666666666</ele><time>2026-04-12T15:50:41.899Z</time></trkpt><trkpt lat="43.9578442" lon="12.3942514"><ele>128.0</ele><time>2026-04-12T15:50:42.88Z</time></trkpt><trkpt lat="43.957942" lon="12.3944988"><ele>130.0</ele><time>2026-04-12T15:50:43.898Z</time></trkpt><trkpt lat="43.9580473" lon="12.3947712"><ele>132.0</ele><time>2026-04-12T15:50:44.878Z</time></trkpt><trkpt lat="43.958149" lon="12.3950675"><ele>132.0</ele><time>2026-04-12T15:50:45.896Z</time></trkpt><trkpt lat="43.9582516" lon="12.3953907"><ele>132.0</ele><time>2026-04-12T15:50:46.881Z</time></trkpt><trkpt lat="43.9583616" lon="12.3957373"><ele>131.0</ele><time>2026-04-12T15:50:47.88Z</time></trkpt><trkpt lat="43.9584864" lon="12.3961017"><ele>130.0</ele><time>2026-04-12T15:50:48.885Z</time></trkpt><trkpt lat="43.9586088" lon="12.3964484"><ele>130.0</ele><time>2026-04-12T15:50:49.897Z</time></trkpt><trkpt lat="43.9587215" lon="12.3967727"><ele>130.0</ele><time>2026-04-12T15:50:50.898Z</time></trkpt><trkpt lat="43.9588263" lon="12.3970728"><ele>132.33333333333334</ele><time>2026-04-12T15:50:51.89Z</time></trkpt><trkpt lat="43.958932" lon="12.3973536"><ele>134.66666666666666</ele><time>2026-04-12T15:50:52.891Z</time></trkpt><trkpt lat="43.9590376" lon="12.3976213"><ele>137.0</ele><time>2026-04-12T15:50:53.889Z</time></trkpt><trkpt lat="43.9591491" lon="12.3978736"><ele>135.33333333333331</ele><time>2026-04-12T15:50:54.885Z</time></trkpt><trkpt lat="43.9592672" lon="12.3981119"><ele>133.66666666666666</ele><time>2026-04-12T15:50:55.982Z</time></trkpt><trkpt lat="43.9593857" lon="12.3983375"><ele>132.0</ele><time>2026-04-12T15:50:56.897Z</time></trkpt><trkpt lat="43.9594985" lon="12.3985457"><ele>132.0</ele><time>2026-04-12T15:50:57.907Z</time></trkpt><trkpt lat="43.9596073" lon="12.3987484"><ele>132.0</ele><time>2026-04-12T15:50:58.983Z</time></trkpt><trkpt lat="43.9597209" lon="12.3989586"><ele>132.0</ele><time>2026-04-12T15:50:59.915Z</time></trkpt><trkpt lat="43.959829" lon="12.3991616"><ele>129.66666666666666</ele><time>2026-04-12T15:51:00.892Z</time></trkpt><trkpt lat="43.9599327" lon="12.3993488"><ele>127.33333333333333</ele><time>2026-04-12T15:51:01.875Z</time></trkpt><trkpt lat="43.9600288" lon="12.3995253"><ele>125.0</ele><time>2026-04-12T15:51:02.891Z</time></trkpt><trkpt lat="43.960123" lon="12.3996946"><ele>125.0</ele><time>2026-04-12T15:51:03.891Z</time></trkpt><trkpt lat="43.9602168" lon="12.3998667"><ele>125.0</ele><time>2026-04-12T15:51:04.884Z</time></trkpt><trkpt lat="43.9603146" lon="12.4000438"><ele>125.0</ele><time>2026-04-12T15:51:05.887Z</time></trkpt><trkpt lat="43.9604024" lon="12.4002143"><ele>125.0</ele><time>2026-04-12T15:51:06.92Z</time></trkpt><trkpt lat="43.9604846" lon="12.4003725"><ele>125.0</ele><time>2026-04-12T15:51:07.99Z</time></trkpt><trkpt lat="43.9605653" lon="12.400521"><ele>125.0</ele><time>2026-04-12T15:51:08.894Z</time></trkpt><trkpt lat="43.9606432" lon="12.4006636"><ele>125.0</ele><time>2026-04-12T15:51:09.903Z</time></trkpt><trkpt lat="43.9607175" lon="12.4007918"><ele>124.6</ele><time>2026-04-12T15:51:10.883Z</time></trkpt><trkpt lat="43.96079" lon="12.400908"><ele>124.2</ele><time>2026-04-12T15:51:11.883Z</time></trkpt><trkpt lat="43.9608574" lon="12.4010109"><ele>123.80000000000001</ele><time>2026-04-12T15:51:12.885Z</time></trkpt><trkpt lat="43.9609202" lon="12.4011002"><ele>123.4</ele><time>2026-04-12T15:51:13.891Z</time></trkpt><trkpt lat="43.960979" lon="12.4011837"><ele>123.0</ele><time>2026-04-12T15:51:14.888Z</time></trkpt><trkpt lat="43.9610371" lon="12.4012538"><ele>123.0</ele><time>2026-04-12T15:51:15.896Z</time></trkpt><trkpt lat="43.9610891" lon="12.401314"><ele>123.00000000000001</ele><time>2026-04-12T15:51:16.885Z</time></trkpt><trkpt lat="43.9611851" lon="12.4014208"><ele>123.00000000000001</ele><time>2026-04-12T15:51:18.998Z</time></trkpt><trkpt lat="43.961276" lon="12.4015293"><ele>123.0</ele><time>2026-04-12T15:51:20.912Z</time></trkpt><trkpt lat="43.9613522" lon="12.4016714"><ele>123.0</ele><time>2026-04-12T15:51:22.886Z</time></trkpt><trkpt lat="43.9613619" lon="12.4017608"><ele>124.33333333333333</ele><time>2026-04-12T15:51:23.892Z</time></trkpt><trkpt lat="43.9613453" lon="12.4018529"><ele>125.66666666666666</ele><time>2026-04-12T15:51:24.899Z</time></trkpt><trkpt lat="43.9613014" lon="12.4019365"><ele>127.0</ele><time>2026-04-12T15:51:25.904Z</time></trkpt><trkpt lat="43.9612447" lon="12.4019931"><ele>128.33333333333331</ele><time>2026-04-12T15:51:26.899Z</time></trkpt><trkpt lat="43.9611818" lon="12.4020387"><ele>129.66666666666666</ele><time>2026-04-12T15:51:27.907Z</time></trkpt><trkpt lat="43.9611144" lon="12.4020636"><ele>131.0</ele><time>2026-04-12T15:51:28.889Z</time></trkpt><trkpt lat="43.961033" lon="12.402167"><ele>132.4</ele><time>2026-04-12T15:51:30.901Z</time></trkpt><trkpt lat="43.9610341" lon="12.4023341"><ele>133.8</ele><time>2026-04-12T15:51:32.915Z</time></trkpt><trkpt lat="43.9610389" lon="12.4024434"><ele>135.20000000000002</ele><time>2026-04-12T15:51:33.89Z</time></trkpt><trkpt lat="43.9610359" lon="12.4025723"><ele>136.6</ele><time>2026-04-12T15:51:34.898Z</time></trkpt><trkpt lat="43.9610275" lon="12.4027046"><ele>138.0</ele><time>2026-04-12T15:51:35.89Z</time></trkpt><trkpt lat="43.9610236" lon="12.4028448"><ele>138.0</ele><time>2026-04-12T15:51:36.908Z</time></trkpt><trkpt lat="43.9610232" lon="12.4029953"><ele>138.0</ele><time>2026-04-12T15:51:37.889Z</time></trkpt><trkpt lat="43.9610248" lon="12.4031471"><ele>138.0</ele><time>2026-04-12T15:51:38.88Z</time></trkpt><trkpt lat="43.9610253" lon="12.4032947"><ele>138.0</ele><time>2026-04-12T15:51:39.899Z</time></trkpt><trkpt lat="43.9610193" lon="12.4034327"><ele>138.0</ele><time>2026-04-12T15:51:40.908Z</time></trkpt><trkpt lat="43.9610087" lon="12.4035486"><ele>139.0</ele><time>2026-04-12T15:51:41.883Z</time></trkpt><trkpt lat="43.9609916" lon="12.4036479"><ele>140.0</ele><time>2026-04-12T15:51:42.991Z</time></trkpt><trkpt lat="43.9609801" lon="12.4037506"><ele>141.0</ele><time>2026-04-12T15:51:43.979Z</time></trkpt><trkpt lat="43.9609717" lon="12.4039852"><ele>142.0</ele><time>2026-04-12T15:51:45.892Z</time></trkpt><trkpt lat="43.9609706" lon="12.4041183"><ele>143.0</ele><time>2026-04-12T15:51:46.915Z</time></trkpt><trkpt lat="43.9609686" lon="12.404252"><ele>145.0</ele><time>2026-04-12T15:51:47.887Z</time></trkpt><trkpt lat="43.9609697" lon="12.4044042"><ele>147.0</ele><time>2026-04-12T15:51:48.895Z</time></trkpt><trkpt lat="43.9609799" lon="12.4045862"><ele>149.0</ele><time>2026-04-12T15:51:49.884Z</time></trkpt><trkpt lat="43.9609776" lon="12.4047994"><ele>151.0</ele><time>2026-04-12T15:51:50.885Z</time></trkpt><trkpt lat="43.9609688" lon="12.4049944"><ele>152.25</ele><time>2026-04-12T15:51:51.902Z</time></trkpt><trkpt lat="43.9609507" lon="12.4051826"><ele>153.5</ele><time>2026-04-12T15:51:52.894Z</time></trkpt><trkpt lat="43.9609314" lon="12.405373"><ele>154.75</ele><time>2026-04-12T15:51:53.895Z</time></trkpt><trkpt lat="43.9609126" lon="12.4055656"><ele>156.0</ele><time>2026-04-12T15:51:54.883Z</time></trkpt><trkpt lat="43.9608922" lon="12.4057681"><ele>157.25</ele><time>2026-04-12T15:51:55.919Z</time></trkpt><trkpt lat="43.9608701" lon="12.4059805"><ele>158.5</ele><time>2026-04-12T15:51:56.888Z</time></trkpt><trkpt lat="43.9608518" lon="12.4061766"><ele>159.75</ele><time>2026-04-12T15:51:57.894Z</time></trkpt><trkpt lat="43.9608441" lon="12.406345"><ele>161.0</ele><time>2026-04-12T15:51:58.894Z</time></trkpt><trkpt lat="43.9608253" lon="12.4064655"><ele>163.60000000000002</ele><time>2026-04-12T15:51:59.902Z</time></trkpt><trkpt lat="43.9607805" lon="12.4065706"><ele>166.2</ele><time>2026-04-12T15:52:00.882Z</time></trkpt><trkpt lat="43.9607212" lon="12.4066834"><ele>168.8</ele><time>2026-04-12T15:52:01.886Z</time></trkpt><trkpt lat="43.960665" lon="12.406795"><ele>171.39999999999998</ele><time>2026-04-12T15:52:02.888Z</time></trkpt><trkpt lat="43.960627" lon="12.406927"><ele>174.0</ele><time>2026-04-12T15:52:03.884Z</time></trkpt><trkpt lat="43.9606133" lon="12.4070664"><ele>175.79999999999998</ele><time>2026-04-12T15:52:04.893Z</time></trkpt><trkpt lat="43.9606175" lon="12.407213"><ele>177.6</ele><time>2026-04-12T15:52:05.881Z</time></trkpt><trkpt lat="43.9606323" lon="12.407362"><ele>179.4</ele><time>2026-04-12T15:52:06.884Z</time></trkpt><trkpt lat="43.960653" lon="12.4075069"><ele>181.2</ele><time>2026-04-12T15:52:07.891Z</time></trkpt><trkpt lat="43.9606735" lon="12.4076565"><ele>183.0</ele><time>2026-04-12T15:52:08.881Z</time></trkpt><trkpt lat="43.96068" lon="12.4078102"><ele>183.0</ele><time>2026-04-12T15:52:09.88Z</time></trkpt><trkpt lat="43.9606889" lon="12.4079833"><ele>183.0</ele><time>2026-04-12T15:52:10.902Z</time></trkpt><trkpt lat="43.960702" lon="12.4081403"><ele>183.0</ele><time>2026-04-12T15:52:11.879Z</time></trkpt><trkpt lat="43.9607232" lon="12.4082752"><ele>183.0</ele><time>2026-04-12T15:52:12.877Z</time></trkpt><trkpt lat="43.9607573" lon="12.4084084"><ele>183.0</ele><time>2026-04-12T15:52:13.894Z</time></trkpt><trkpt lat="43.9608065" lon="12.4085365"><ele>184.4</ele><time>2026-04-12T15:52:14.887Z</time></trkpt><trkpt lat="43.9608665" lon="12.4086472"><ele>185.8</ele><time>2026-04-12T15:52:15.887Z</time></trkpt><trkpt lat="43.9609276" lon="12.4087402"><ele>187.2</ele><time>2026-04-12T15:52:16.889Z</time></trkpt><trkpt lat="43.9609781" lon="12.4088419"><ele>188.6</ele><time>2026-04-12T15:52:17.887Z</time></trkpt><trkpt lat="43.9610027" lon="12.4089595"><ele>190.0</ele><time>2026-04-12T15:52:18.903Z</time></trkpt><trkpt lat="43.9610146" lon="12.4090798"><ele>192.0</ele><time>2026-04-12T15:52:19.89Z</time></trkpt><trkpt lat="43.9610129" lon="12.4092011"><ele>194.0</ele><time>2026-04-12T15:52:20.885Z</time></trkpt><trkpt lat="43.9610229" lon="12.409337"><ele>196.0</ele><time>2026-04-12T15:52:21.892Z</time></trkpt><trkpt lat="43.9610408" lon="12.409467"><ele>198.0</ele><time>2026-04-12T15:52:22.877Z</time></trkpt><trkpt lat="43.9610572" lon="12.4095881"><ele>200.0</ele><time>2026-04-12T15:52:23.9Z</time></trkpt><trkpt lat="43.9610694" lon="12.4097101"><ele>200.6</ele><time>2026-04-12T15:52:24.896Z</time></trkpt><trkpt lat="43.9610664" lon="12.4098202"><ele>201.2</ele><time>2026-04-12T15:52:25.89Z</time></trkpt><trkpt lat="43.96106" lon="12.40995"><ele>201.8</ele><time>2026-04-12T15:52:26.887Z</time></trkpt><trkpt lat="43.961047" lon="12.4100852"><ele>202.4</ele><time>2026-04-12T15:52:27.883Z</time></trkpt><trkpt lat="43.9610291" lon="12.4102468"><ele>203.0</ele><time>2026-04-12T15:52:28.895Z</time></trkpt><trkpt lat="43.9610145" lon="12.4104095"><ele>203.75</ele><time>2026-04-12T15:52:29.961Z</time></trkpt><trkpt lat="43.9610083" lon="12.4105813"><ele>204.5</ele><time>2026-04-12T15:52:30.873Z</time></trkpt><trkpt lat="43.9610077" lon="12.4107508"><ele>205.25</ele><time>2026-04-12T15:52:31.899Z</time></trkpt><trkpt lat="43.9610187" lon="12.4109212"><ele>206.0</ele><time>2026-04-12T15:52:32.968Z</time></trkpt><trkpt lat="43.9610324" lon="12.4110787"><ele>206.00000000000003</ele><time>2026-04-12T15:52:33.88Z</time></trkpt><trkpt lat="43.961033" lon="12.4111944"><ele>206.0</ele><time>2026-04-12T15:52:34.891Z</time></trkpt><trkpt lat="43.9610263" lon="12.411298"><ele>206.0</ele><time>2026-04-12T15:52:35.884Z</time></trkpt><trkpt lat="43.9610028" lon="12.411386"><ele>206.0</ele><time>2026-04-12T15:52:36.895Z</time></trkpt><trkpt lat="43.9609668" lon="12.4114927"><ele>206.00000000000003</ele><time>2026-04-12T15:52:37.888Z</time></trkpt><trkpt lat="43.9609192" lon="12.4116053"><ele>206.0</ele><time>2026-04-12T15:52:38.898Z</time></trkpt><trkpt lat="43.9608746" lon="12.4117431"><ele>210.75</ele><time>2026-04-12T15:52:39.872Z</time></trkpt><trkpt lat="43.9608289" lon="12.4118906"><ele>215.5</ele><time>2026-04-12T15:52:40.881Z</time></trkpt><trkpt lat="43.9607955" lon="12.4120454"><ele>220.25</ele><time>2026-04-12T15:52:41.98Z</time></trkpt><trkpt lat="43.9607833" lon="12.4122092"><ele>225.0</ele><time>2026-04-12T15:52:42.883Z</time></trkpt><trkpt lat="43.9607827" lon="12.4123875"><ele>225.5</ele><time>2026-04-12T15:52:43.893Z</time></trkpt><trkpt lat="43.9607833" lon="12.4125778"><ele>226.0</ele><time>2026-04-12T15:52:44.964Z</time></trkpt><trkpt lat="43.9607646" lon="12.4127481"><ele>226.5</ele><time>2026-04-12T15:52:45.898Z</time></trkpt><trkpt lat="43.9607282" lon="12.412889"><ele>227.0</ele><time>2026-04-12T15:52:46.879Z</time></trkpt><trkpt lat="43.960688" lon="12.4130273"><ele>227.75</ele><time>2026-04-12T15:52:47.895Z</time></trkpt><trkpt lat="43.9606402" lon="12.4132093"><ele>228.5</ele><time>2026-04-12T15:52:48.887Z</time></trkpt><trkpt lat="43.9605811" lon="12.4134187"><ele>229.25</ele><time>2026-04-12T15:52:49.881Z</time></trkpt><trkpt lat="43.9605274" lon="12.4135895"><ele>230.0</ele><time>2026-04-12T15:52:50.886Z</time></trkpt><trkpt lat="43.9604739" lon="12.4137187"><ele>231.00000000000003</ele><time>2026-04-12T15:52:51.885Z</time></trkpt><trkpt lat="43.9604283" lon="12.4138352"><ele>232.0</ele><time>2026-04-12T15:52:52.877Z</time></trkpt><trkpt lat="43.9603901" lon="12.4139446"><ele>233.0</ele><time>2026-04-12T15:52:53.886Z</time></trkpt><trkpt lat="43.9603697" lon="12.4140449"><ele>234.0</ele><time>2026-04-12T15:52:54.876Z</time></trkpt><trkpt lat="43.9603697" lon="12.4141378"><ele>235.00000000000003</ele><time>2026-04-12T15:52:55.898Z</time></trkpt><trkpt lat="43.9603631" lon="12.414237"><ele>236.0</ele><time>2026-04-12T15:52:56.884Z</time></trkpt><trkpt lat="43.9603577" lon="12.4143316"><ele>236.0</ele><time>2026-04-12T15:52:57.882Z</time></trkpt><trkpt lat="43.9603397" lon="12.4144292"><ele>236.00000000000003</ele><time>2026-04-12T15:52:58.897Z</time></trkpt><trkpt lat="43.9603008" lon="12.4145284"><ele>236.00000000000003</ele><time>2026-04-12T15:52:59.884Z</time></trkpt><trkpt lat="43.9602443" lon="12.4146302"><ele>236.0</ele><time>2026-04-12T15:53:00.88Z</time></trkpt><trkpt lat="43.9601752" lon="12.4147314"><ele>236.0</ele><time>2026-04-12T15:53:01.903Z</time></trkpt><trkpt lat="43.9601053" lon="12.4148381"><ele>238.4</ele><time>2026-04-12T15:53:02.886Z</time></trkpt><trkpt lat="43.9600533" lon="12.4149512"><ele>240.8</ele><time>2026-04-12T15:53:03.901Z</time></trkpt><trkpt lat="43.9600232" lon="12.4150778"><ele>243.20000000000002</ele><time>2026-04-12T15:53:04.88Z</time></trkpt><trkpt lat="43.9600168" lon="12.4152045"><ele>245.60000000000002</ele><time>2026-04-12T15:53:05.88Z</time></trkpt><trkpt lat="43.9600171" lon="12.4153401"><ele>248.0</ele><time>2026-04-12T15:53:06.882Z</time></trkpt><trkpt lat="43.960044" lon="12.4154913"><ele>250.75</ele><time>2026-04-12T15:53:07.895Z</time></trkpt><trkpt lat="43.9600848" lon="12.4156507"><ele>253.5</ele><time>2026-04-12T15:53:08.872Z</time></trkpt><trkpt lat="43.9601184" lon="12.4158258"><ele>256.25</ele><time>2026-04-12T15:53:09.886Z</time></trkpt><trkpt lat="43.9601508" lon="12.4160251"><ele>259.0</ele><time>2026-04-12T15:53:10.889Z</time></trkpt><trkpt lat="43.9601807" lon="12.4162435"><ele>260.16666666666663</ele><time>2026-04-12T15:53:11.891Z</time></trkpt><trkpt lat="43.9602144" lon="12.416412"><ele>261.3333333333333</ele><time>2026-04-12T15:53:12.889Z</time></trkpt><trkpt lat="43.9602394" lon="12.416528"><ele>262.5</ele><time>2026-04-12T15:53:13.893Z</time></trkpt><trkpt lat="43.9602518" lon="12.4166297"><ele>263.6666666666667</ele><time>2026-04-12T15:53:14.883Z</time></trkpt><trkpt lat="43.9602373" lon="12.4167328"><ele>264.83333333333337</ele><time>2026-04-12T15:53:15.903Z</time></trkpt><trkpt lat="43.9602144" lon="12.4168419"><ele>266.0</ele><time>2026-04-12T15:53:16.894Z</time></trkpt><trkpt lat="43.9601854" lon="12.4169435"><ele>266.0</ele><time>2026-04-12T15:53:17.887Z</time></trkpt><trkpt lat="43.9601465" lon="12.4170463"><ele>266.0</ele><time>2026-04-12T15:53:18.884Z</time></trkpt><trkpt lat="43.9600914" lon="12.4171476"><ele>266.0</ele><time>2026-04-12T15:53:19.894Z</time></trkpt><trkpt lat="43.9600231" lon="12.4172639"><ele>266.0</ele><time>2026-04-12T15:53:20.894Z</time></trkpt><trkpt lat="43.959936" lon="12.417381"><ele>266.0</ele><time>2026-04-12T15:53:21.891Z</time></trkpt><trkpt lat="43.9598374" lon="12.417501"><ele>268.8</ele><time>2026-04-12T15:53:22.884Z</time></trkpt><trkpt lat="43.9597474" lon="12.4176149"><ele>271.6</ele><time>2026-04-12T15:53:23.896Z</time></trkpt><trkpt lat="43.9596742" lon="12.4177263"><ele>274.4</ele><time>2026-04-12T15:53:24.888Z</time></trkpt><trkpt lat="43.9596154" lon="12.4178379"><ele>277.2</ele><time>2026-04-12T15:53:25.888Z</time></trkpt><trkpt lat="43.9595572" lon="12.4179717"><ele>280.0</ele><time>2026-04-12T15:53:26.892Z</time></trkpt><trkpt lat="43.9595065" lon="12.4181174"><ele>280.0</ele><time>2026-04-12T15:53:27.88Z</time></trkpt><trkpt lat="43.9594596" lon="12.4182466"><ele>280.0</ele><time>2026-04-12T15:53:28.975Z</time></trkpt><trkpt lat="43.9594019" lon="12.4183488"><ele>280.0</ele><time>2026-04-12T15:53:29.887Z</time></trkpt><trkpt lat="43.9593309" lon="12.4184509"><ele>280.0</ele><time>2026-04-12T15:53:30.889Z</time></trkpt><trkpt lat="43.9592593" lon="12.4185391"><ele>280.0</ele><time>2026-04-12T15:53:31.886Z</time></trkpt><trkpt lat="43.9591814" lon="12.4186147"><ele>282.6</ele><time>2026-04-12T15:53:32.902Z</time></trkpt><trkpt lat="43.9590935" lon="12.4186606"><ele>285.2</ele><time>2026-04-12T15:53:33.894Z</time></trkpt><trkpt lat="43.9589948" lon="12.4186928"><ele>287.8</ele><time>2026-04-12T15:53:34.912Z</time></trkpt><trkpt lat="43.9588925" lon="12.4187111"><ele>290.4</ele><time>2026-04-12T15:53:35.892Z</time></trkpt><trkpt lat="43.9587822" lon="12.4187367"><ele>293.0</ele><time>2026-04-12T15:53:36.891Z</time></trkpt><trkpt lat="43.9586617" lon="12.4187726"><ele>293.0</ele><time>2026-04-12T15:53:37.9Z</time></trkpt><trkpt lat="43.9585434" lon="12.4188137"><ele>293.0</ele><time>2026-04-12T15:53:38.894Z</time></trkpt><trkpt lat="43.9584331" lon="12.4188284"><ele>293.0</ele><time>2026-04-12T15:53:39.911Z</time></trkpt><trkpt lat="43.9583428" lon="12.4188273"><ele>293.0</ele><time>2026-04-12T15:53:40.879Z</time></trkpt><trkpt lat="43.958279" lon="12.4188505"><ele>293.0</ele><time>2026-04-12T15:53:41.893Z</time></trkpt><trkpt lat="43.9581736" lon="12.4189998"><ele>294.75</ele><time>2026-04-12T15:53:43.894Z</time></trkpt><trkpt lat="43.9581322" lon="12.4191198"><ele>296.5</ele><time>2026-04-12T15:53:44.903Z</time></trkpt><trkpt lat="43.9580998" lon="12.4192872"><ele>298.25</ele><time>2026-04-12T15:53:45.881Z</time></trkpt><trkpt lat="43.9580527" lon="12.4195084"><ele>300.0</ele><time>2026-04-12T15:53:46.91Z</time></trkpt><trkpt lat="43.957992" lon="12.4196883"><ele>300.0</ele><time>2026-04-12T15:53:47.891Z</time></trkpt><trkpt lat="43.9579347" lon="12.4198605"><ele>300.0</ele><time>2026-04-12T15:53:48.917Z</time></trkpt><trkpt lat="43.9578716" lon="12.4200709"><ele>300.0</ele><time>2026-04-12T15:53:49.895Z</time></trkpt><trkpt lat="43.9578154" lon="12.4202788"><ele>300.75</ele><time>2026-04-12T15:53:50.887Z</time></trkpt><trkpt lat="43.9577883" lon="12.4204876"><ele>301.5</ele><time>2026-04-12T15:53:51.895Z</time></trkpt><trkpt lat="43.9577821" lon="12.4206692"><ele>302.25</ele><time>2026-04-12T15:53:52.89Z</time></trkpt><trkpt lat="43.9577877" lon="12.4208595"><ele>303.0</ele><time>2026-04-12T15:53:53.913Z</time></trkpt><trkpt lat="43.9577975" lon="12.4210509"><ele>303.0</ele><time>2026-04-12T15:53:54.895Z</time></trkpt><trkpt lat="43.9577908" lon="12.4212658"><ele>303.0</ele><time>2026-04-12T15:53:55.908Z</time></trkpt><trkpt lat="43.9577727" lon="12.4215096"><ele>303.0</ele><time>2026-04-12T15:53:56.885Z</time></trkpt><trkpt lat="43.9577535" lon="12.4217549"><ele>303.0</ele><time>2026-04-12T15:53:57.883Z</time></trkpt><trkpt lat="43.9577299" lon="12.4219554"><ele>303.0</ele><time>2026-04-12T15:53:58.892Z</time></trkpt><trkpt lat="43.9577094" lon="12.4221248"><ele>303.0</ele><time>2026-04-12T15:53:59.883Z</time></trkpt><trkpt lat="43.957688" lon="12.4223005"><ele>303.0</ele><time>2026-04-12T15:54:00.904Z</time></trkpt><trkpt lat="43.9576634" lon="12.4225028"><ele>303.0</ele><time>2026-04-12T15:54:01.879Z</time></trkpt><trkpt lat="43.9576433" lon="12.4227082"><ele>303.0</ele><time>2026-04-12T15:54:02.898Z</time></trkpt><trkpt lat="43.9576216" lon="12.4229209"><ele>303.0</ele><time>2026-04-12T15:54:03.987Z</time></trkpt><trkpt lat="43.9576015" lon="12.4231297"><ele>303.8</ele><time>2026-04-12T15:54:04.891Z</time></trkpt><trkpt lat="43.9575733" lon="12.4233222"><ele>304.6</ele><time>2026-04-12T15:54:05.901Z</time></trkpt><trkpt lat="43.9575482" lon="12.4234689"><ele>305.4</ele><time>2026-04-12T15:54:06.878Z</time></trkpt><trkpt lat="43.9575168" lon="12.4235829"><ele>306.2</ele><time>2026-04-12T15:54:07.886Z</time></trkpt><trkpt lat="43.9574849" lon="12.4237108"><ele>307.0</ele><time>2026-04-12T15:54:08.892Z</time></trkpt><trkpt lat="43.9574443" lon="12.4238611"><ele>307.0</ele><time>2026-04-12T15:54:09.898Z</time></trkpt><trkpt lat="43.9573979" lon="12.4240263"><ele>307.0</ele><time>2026-04-12T15:54:10.901Z</time></trkpt><trkpt lat="43.9573542" lon="12.4242036"><ele>307.0</ele><time>2026-04-12T15:54:11.894Z</time></trkpt><trkpt lat="43.9573119" lon="12.4243814"><ele>307.0</ele><time>2026-04-12T15:54:12.884Z</time></trkpt><trkpt lat="43.9572731" lon="12.4245564"><ele>306.0</ele><time>2026-04-12T15:54:13.897Z</time></trkpt><trkpt lat="43.9572391" lon="12.4247319"><ele>305.0</ele><time>2026-04-12T15:54:14.898Z</time></trkpt><trkpt lat="43.9572149" lon="12.4249206"><ele>304.0</ele><time>2026-04-12T15:54:15.972Z</time></trkpt><trkpt lat="43.9571896" lon="12.4251104"><ele>303.0</ele><time>2026-04-12T15:54:16.896Z</time></trkpt><trkpt lat="43.9571614" lon="12.4253038"><ele>303.0</ele><time>2026-04-12T15:54:17.903Z</time></trkpt><trkpt lat="43.9571359" lon="12.4254938"><ele>303.0</ele><time>2026-04-12T15:54:18.974Z</time></trkpt><trkpt lat="43.9571127" lon="12.4256773"><ele>303.0</ele><time>2026-04-12T15:54:19.878Z</time></trkpt><trkpt lat="43.957092" lon="12.4258387"><ele>303.0</ele><time>2026-04-12T15:54:20.9Z</time></trkpt><trkpt lat="43.9570747" lon="12.4259893"><ele>303.0</ele><time>2026-04-12T15:54:21.875Z</time></trkpt><trkpt lat="43.9570703" lon="12.4261318"><ele>303.0</ele><time>2026-04-12T15:54:22.88Z</time></trkpt><trkpt lat="43.9570887" lon="12.4262668"><ele>303.0</ele><time>2026-04-12T15:54:23.889Z</time></trkpt><trkpt lat="43.9571322" lon="12.4263966"><ele>303.0</ele><time>2026-04-12T15:54:24.879Z</time></trkpt><trkpt lat="43.9571935" lon="12.4265216"><ele>303.0</ele><time>2026-04-12T15:54:25.888Z</time></trkpt><trkpt lat="43.9572588" lon="12.4266458"><ele>304.75</ele><time>2026-04-12T15:54:26.904Z</time></trkpt><trkpt lat="43.9573274" lon="12.4267724"><ele>306.5</ele><time>2026-04-12T15:54:27.898Z</time></trkpt><trkpt lat="43.9574011" lon="12.4269115"><ele>308.25</ele><time>2026-04-12T15:54:28.879Z</time></trkpt><trkpt lat="43.9574787" lon="12.4270401"><ele>310.0</ele><time>2026-04-12T15:54:29.891Z</time></trkpt><trkpt lat="43.9575651" lon="12.4271282"><ele>311.75</ele><time>2026-04-12T15:54:30.884Z</time></trkpt><trkpt lat="43.9576687" lon="12.42717"><ele>313.5</ele><time>2026-04-12T15:54:31.882Z</time></trkpt><trkpt lat="43.957782" lon="12.4271562"><ele>315.25</ele><time>2026-04-12T15:54:32.878Z</time></trkpt><trkpt lat="43.9579171" lon="12.4270826"><ele>317.0</ele><time>2026-04-12T15:54:33.887Z</time></trkpt><trkpt lat="43.9580672" lon="12.4269821"><ele>317.0</ele><time>2026-04-12T15:54:34.888Z</time></trkpt><trkpt lat="43.9582012" lon="12.4268876"><ele>317.0</ele><time>2026-04-12T15:54:35.909Z</time></trkpt><trkpt lat="43.9583073" lon="12.4268113"><ele>317.0</ele><time>2026-04-12T15:54:36.886Z</time></trkpt><trkpt lat="43.9584041" lon="12.4267658"><ele>317.0</ele><time>2026-04-12T15:54:37.893Z</time></trkpt><trkpt lat="43.9584833" lon="12.4267679"><ele>316.8</ele><time>2026-04-12T15:54:38.976Z</time></trkpt><trkpt lat="43.9585378" lon="12.4268307"><ele>316.6</ele><time>2026-04-12T15:54:39.879Z</time></trkpt><trkpt lat="43.9585482" lon="12.4269473"><ele>316.40000000000003</ele><time>2026-04-12T15:54:40.901Z</time></trkpt><trkpt lat="43.9585207" lon="12.4270546"><ele>316.2</ele><time>2026-04-12T15:54:41.894Z</time></trkpt><trkpt lat="43.9584569" lon="12.4271548"><ele>316.0</ele><time>2026-04-12T15:54:42.897Z</time></trkpt><trkpt lat="43.9583459" lon="12.4272021"><ele>317.8333333333333</ele><time>2026-04-12T15:54:43.888Z</time></trkpt><trkpt lat="43.9582619" lon="12.4272422"><ele>319.66666666666663</ele><time>2026-04-12T15:54:44.914Z</time></trkpt><trkpt lat="43.9582203" lon="12.4273087"><ele>321.5</ele><time>2026-04-12T15:54:45.891Z</time></trkpt><trkpt lat="43.9582073" lon="12.4274108"><ele>323.3333333333333</ele><time>2026-04-12T15:54:46.9Z</time></trkpt><trkpt lat="43.9582421" lon="12.4275124"><ele>325.1666666666667</ele><time>2026-04-12T15:54:47.889Z</time></trkpt><trkpt lat="43.9583181" lon="12.4275732"><ele>327.0</ele><time>2026-04-12T15:54:48.891Z</time></trkpt><trkpt lat="43.958417" lon="12.4275611"><ele>327.5</ele><time>2026-04-12T15:54:49.896Z</time></trkpt><trkpt lat="43.9585269" lon="12.4275116"><ele>328.0</ele><time>2026-04-12T15:54:50.909Z</time></trkpt><trkpt lat="43.9586409" lon="12.4274344"><ele>328.5</ele><time>2026-04-12T15:54:51.885Z</time></trkpt><trkpt lat="43.9587717" lon="12.4273666"><ele>329.0</ele><time>2026-04-12T15:54:52.904Z</time></trkpt><trkpt lat="43.9589154" lon="12.4273449"><ele>329.0</ele><time>2026-04-12T15:54:53.897Z</time></trkpt><trkpt lat="43.9590659" lon="12.4273506"><ele>329.0</ele><time>2026-04-12T15:54:54.878Z</time></trkpt><trkpt lat="43.959205" lon="12.4273887"><ele>329.0</ele><time>2026-04-12T15:54:55.884Z</time></trkpt><trkpt lat="43.9593208" lon="12.4274824"><ele>329.0</ele><time>2026-04-12T15:54:56.899Z</time></trkpt><trkpt lat="43.9594256" lon="12.4276317"><ele>328.6666666666667</ele><time>2026-04-12T15:54:57.881Z</time></trkpt><trkpt lat="43.9595069" lon="12.4278227"><ele>328.3333333333333</ele><time>2026-04-12T15:54:58.888Z</time></trkpt><trkpt lat="43.9595746" lon="12.428017"><ele>328.0</ele><time>2026-04-12T15:54:59.879Z</time></trkpt><trkpt lat="43.9596389" lon="12.4282231"><ele>328.0</ele><time>2026-04-12T15:55:00.907Z</time></trkpt><trkpt lat="43.9596938" lon="12.4284413"><ele>328.0</ele><time>2026-04-12T15:55:01.887Z</time></trkpt><trkpt lat="43.9597355" lon="12.4286486"><ele>328.0</ele><time>2026-04-12T15:55:02.895Z</time></trkpt><trkpt lat="43.9597661" lon="12.4288379"><ele>330.25</ele><time>2026-04-12T15:55:03.88Z</time></trkpt><trkpt lat="43.9597968" lon="12.4290029"><ele>332.5</ele><time>2026-04-12T15:55:04.985Z</time></trkpt><trkpt lat="43.9598299" lon="12.42928"><ele>334.75</ele><time>2026-04-12T15:55:06.893Z</time></trkpt><trkpt lat="43.9597994" lon="12.4293736"><ele>337.0</ele><time>2026-04-12T15:55:07.89Z</time></trkpt><trkpt lat="43.9597353" lon="12.4294376"><ele>337.0</ele><time>2026-04-12T15:55:08.898Z</time></trkpt><trkpt lat="43.9596458" lon="12.4294652"><ele>337.0</ele><time>2026-04-12T15:55:09.888Z</time></trkpt><trkpt lat="43.9595609" lon="12.429408"><ele>337.0</ele><time>2026-04-12T15:55:10.883Z</time></trkpt><trkpt lat="43.9595" lon="12.429301"><ele>337.0</ele><time>2026-04-12T15:55:11.898Z</time></trkpt><trkpt lat="43.9594533" lon="12.4291668"><ele>337.0</ele><time>2026-04-12T15:55:12.893Z</time></trkpt><trkpt lat="43.9594102" lon="12.4290024"><ele>337.0</ele><time>2026-04-12T15:55:13.887Z</time></trkpt><trkpt lat="43.959363" lon="12.4288242"><ele>337.0</ele><time>2026-04-12T15:55:14.879Z</time></trkpt><trkpt lat="43.959296" lon="12.4286237"><ele>337.0</ele><time>2026-04-12T15:55:15.907Z</time></trkpt><trkpt lat="43.9592304" lon="12.428455"><ele>337.0</ele><time>2026-04-12T15:55:16.883Z</time></trkpt><trkpt lat="43.9591527" lon="12.4283632"><ele>337.8</ele><time>2026-04-12T15:55:17.878Z</time></trkpt><trkpt lat="43.9590574" lon="12.4283178"><ele>338.6</ele><time>2026-04-12T15:55:18.896Z</time></trkpt><trkpt lat="43.9589504" lon="12.4283378"><ele>339.40000000000003</ele><time>2026-04-12T15:55:19.903Z</time></trkpt><trkpt lat="43.9588618" lon="12.4284096"><ele>340.20000000000005</ele><time>2026-04-12T15:55:20.891Z</time></trkpt><trkpt lat="43.9587936" lon="12.4285191"><ele>341.0</ele><time>2026-04-12T15:55:21.894Z</time></trkpt><trkpt lat="43.9587664" lon="12.4286342"><ele>341.0</ele><time>2026-04-12T15:55:22.885Z</time></trkpt><trkpt lat="43.9587928" lon="12.4287587"><ele>341.0</ele><time>2026-04-12T15:55:23.905Z</time></trkpt><trkpt lat="43.958864" lon="12.4288963"><ele>341.0</ele><time>2026-04-12T15:55:24.891Z</time></trkpt><trkpt lat="43.9589759" lon="12.4290241"><ele>341.0</ele><time>2026-04-12T15:55:25.898Z</time></trkpt><trkpt lat="43.9590663" lon="12.4291674"><ele>342.0</ele><time>2026-04-12T15:55:26.912Z</time></trkpt><trkpt lat="43.9591249" lon="12.4293463"><ele>343.0</ele><time>2026-04-12T15:55:27.9Z</time></trkpt><trkpt lat="43.9591511" lon="12.4295299"><ele>344.0</ele><time>2026-04-12T15:55:28.99Z</time></trkpt><trkpt lat="43.9591457" lon="12.4297302"><ele>345.0</ele><time>2026-04-12T15:55:29.893Z</time></trkpt><trkpt lat="43.9591078" lon="12.4299056"><ele>347.5</ele><time>2026-04-12T15:55:30.903Z</time></trkpt><trkpt lat="43.9590433" lon="12.4300362"><ele>350.0</ele><time>2026-04-12T15:55:31.899Z</time></trkpt><trkpt lat="43.958937" lon="12.430108"><ele>352.5</ele><time>2026-04-12T15:55:32.899Z</time></trkpt><trkpt lat="43.958803" lon="12.4301278"><ele>355.0</ele><time>2026-04-12T15:55:33.885Z</time></trkpt><trkpt lat="43.9586724" lon="12.4301059"><ele>355.0</ele><time>2026-04-12T15:55:34.889Z</time></trkpt><trkpt lat="43.9585355" lon="12.430058"><ele>355.0</ele><time>2026-04-12T15:55:35.883Z</time></trkpt><trkpt lat="43.9584002" lon="12.4300382"><ele>355.0</ele><time>2026-04-12T15:55:36.899Z</time></trkpt><trkpt lat="43.9582662" lon="12.4300587"><ele>355.0</ele><time>2026-04-12T15:55:37.89Z</time></trkpt><trkpt lat="43.9581284" lon="12.4301256"><ele>354.75</ele><time>2026-04-12T15:55:38.899Z</time></trkpt><trkpt lat="43.958006" lon="12.4302213"><ele>354.5</ele><time>2026-04-12T15:55:39.986Z</time></trkpt><trkpt lat="43.9578985" lon="12.4303437"><ele>354.25</ele><time>2026-04-12T15:55:40.896Z</time></trkpt><trkpt lat="43.9577971" lon="12.4304875"><ele>354.0</ele><time>2026-04-12T15:55:41.904Z</time></trkpt><trkpt lat="43.957711" lon="12.4306509"><ele>357.0</ele><time>2026-04-12T15:55:42.903Z</time></trkpt><trkpt lat="43.9576463" lon="12.4308115"><ele>360.0</ele><time>2026-04-12T15:55:43.895Z</time></trkpt><trkpt lat="43.9576011" lon="12.430947"><ele>363.0</ele><time>2026-04-12T15:55:44.901Z</time></trkpt><trkpt lat="43.9575755" lon="12.4310872"><ele>366.0</ele><time>2026-04-12T15:55:45.899Z</time></trkpt><trkpt lat="43.9575734" lon="12.4312315"><ele>369.0</ele><time>2026-04-12T15:55:46.887Z</time></trkpt><trkpt lat="43.9575874" lon="12.4313967"><ele>370.0</ele><time>2026-04-12T15:55:47.895Z</time></trkpt><trkpt lat="43.9576082" lon="12.4315518"><ele>371.0</ele><time>2026-04-12T15:55:48.917Z</time></trkpt><trkpt lat="43.9576342" lon="12.4316843"><ele>372.0</ele><time>2026-04-12T15:55:49.89Z</time></trkpt><trkpt lat="43.9576889" lon="12.4318021"><ele>373.0</ele><time>2026-04-12T15:55:50.879Z</time></trkpt><trkpt lat="43.9577759" lon="12.4318742"><ele>374.0</ele><time>2026-04-12T15:55:51.896Z</time></trkpt><trkpt lat="43.9578776" lon="12.4318757"><ele>374.0</ele><time>2026-04-12T15:55:52.888Z</time></trkpt><trkpt lat="43.9579777" lon="12.4318235"><ele>374.0</ele><time>2026-04-12T15:55:53.889Z</time></trkpt><trkpt lat="43.9580721" lon="12.431694"><ele>374.0</ele><time>2026-04-12T15:55:54.89Z</time></trkpt><trkpt lat="43.9581571" lon="12.4314974"><ele>374.0</ele><time>2026-04-12T15:55:55.888Z</time></trkpt><trkpt lat="43.9582306" lon="12.4312846"><ele>373.0</ele><time>2026-04-12T15:55:56.905Z</time></trkpt><trkpt lat="43.9582925" lon="12.431123"><ele>372.0</ele><time>2026-04-12T15:55:57.883Z</time></trkpt><trkpt lat="43.9583561" lon="12.4309936"><ele>371.0</ele><time>2026-04-12T15:55:58.888Z</time></trkpt><trkpt lat="43.9584268" lon="12.4309165"><ele>370.0</ele><time>2026-04-12T15:55:59.886Z</time></trkpt><trkpt lat="43.9585269" lon="12.4308869"><ele>369.0</ele><time>2026-04-12T15:56:00.99Z</time></trkpt><trkpt lat="43.9586215" lon="12.4309159"><ele>368.6</ele><time>2026-04-12T15:56:01.91Z</time></trkpt><trkpt lat="43.9587227" lon="12.4310144"><ele>368.2</ele><time>2026-04-12T15:56:02.905Z</time></trkpt><trkpt lat="43.9587946" lon="12.4311538"><ele>367.8</ele><time>2026-04-12T15:56:03.903Z</time></trkpt><trkpt lat="43.9588232" lon="12.4312837"><ele>367.40000000000003</ele><time>2026-04-12T15:56:04.893Z</time></trkpt><trkpt lat="43.9588162" lon="12.4314282"><ele>367.0</ele><time>2026-04-12T15:56:05.88Z</time></trkpt><trkpt lat="43.9587717" lon="12.4315442"><ele>368.25</ele><time>2026-04-12T15:56:06.891Z</time></trkpt><trkpt lat="43.9586929" lon="12.4316748"><ele>369.5</ele><time>2026-04-12T15:56:07.891Z</time></trkpt><trkpt lat="43.9586024" lon="12.431808"><ele>370.75</ele><time>2026-04-12T15:56:08.891Z</time></trkpt><trkpt lat="43.9584984" lon="12.4319604"><ele>372.0</ele><time>2026-04-12T15:56:09.887Z</time></trkpt><trkpt lat="43.9583922" lon="12.4321073"><ele>374.0</ele><time>2026-04-12T15:56:10.889Z</time></trkpt><trkpt lat="43.9582997" lon="12.4322478"><ele>376.0</ele><time>2026-04-12T15:56:11.915Z</time></trkpt><trkpt lat="43.9582304" lon="12.432375"><ele>378.0</ele><time>2026-04-12T15:56:12.882Z</time></trkpt><trkpt lat="43.9581753" lon="12.4325373"><ele>380.0</ele><time>2026-04-12T15:56:13.882Z</time></trkpt><trkpt lat="43.9581471" lon="12.4327129"><ele>380.0</ele><time>2026-04-12T15:56:14.893Z</time></trkpt><trkpt lat="43.9581417" lon="12.4329105"><ele>380.0</ele><time>2026-04-12T15:56:15.882Z</time></trkpt><trkpt lat="43.9581362" lon="12.4331241"><ele>380.0</ele><time>2026-04-12T15:56:16.911Z</time></trkpt><trkpt lat="43.9581169" lon="12.4333487"><ele>382.6666666666667</ele><time>2026-04-12T15:56:17.888Z</time></trkpt><trkpt lat="43.958094" lon="12.4335905"><ele>385.33333333333337</ele><time>2026-04-12T15:56:18.884Z</time></trkpt><trkpt lat="43.9580687" lon="12.4338033"><ele>388.0</ele><time>2026-04-12T15:56:19.896Z</time></trkpt><trkpt lat="43.9580365" lon="12.4340074"><ele>390.25</ele><time>2026-04-12T15:56:20.903Z</time></trkpt><trkpt lat="43.9579827" lon="12.4341914"><ele>392.5</ele><time>2026-04-12T15:56:21.884Z</time></trkpt><trkpt lat="43.9578908" lon="12.4343397"><ele>394.75</ele><time>2026-04-12T15:56:22.902Z</time></trkpt><trkpt lat="43.9577636" lon="12.4344652"><ele>397.0</ele><time>2026-04-12T15:56:23.886Z</time></trkpt><trkpt lat="43.9576326" lon="12.4345941"><ele>397.0</ele><time>2026-04-12T15:56:24.891Z</time></trkpt><trkpt lat="43.9575209" lon="12.4347465"><ele>397.0</ele><time>2026-04-12T15:56:25.894Z</time></trkpt><trkpt lat="43.9574137" lon="12.4349362"><ele>397.0</ele><time>2026-04-12T15:56:26.897Z</time></trkpt><trkpt lat="43.9573153" lon="12.435112"><ele>397.0</ele><time>2026-04-12T15:56:27.893Z</time></trkpt><trkpt lat="43.9572185" lon="12.435291"><ele>397.0</ele><time>2026-04-12T15:56:28.896Z</time></trkpt><trkpt lat="43.9571061" lon="12.4354422"><ele>397.0</ele><time>2026-04-12T15:56:29.898Z</time></trkpt><trkpt lat="43.9569507" lon="12.4355531"><ele>397.0</ele><time>2026-04-12T15:56:30.898Z</time></trkpt><trkpt lat="43.9567887" lon="12.435625"><ele>397.0</ele><time>2026-04-12T15:56:31.885Z</time></trkpt><trkpt lat="43.9566438" lon="12.4357002"><ele>397.0</ele><time>2026-04-12T15:56:32.907Z</time></trkpt><trkpt lat="43.9565176" lon="12.4358002"><ele>397.0</ele><time>2026-04-12T15:56:33.893Z</time></trkpt><trkpt lat="43.9564037" lon="12.4359256"><ele>397.0</ele><time>2026-04-12T15:56:34.894Z</time></trkpt><trkpt lat="43.9563003" lon="12.436057"><ele>397.0</ele><time>2026-04-12T15:56:35.892Z</time></trkpt><trkpt lat="43.956214" lon="12.4361776"><ele>397.0</ele><time>2026-04-12T15:56:36.886Z</time></trkpt><trkpt lat="43.9561419" lon="12.4363125"><ele>398.25</ele><time>2026-04-12T15:56:37.882Z</time></trkpt><trkpt lat="43.9560991" lon="12.4364652"><ele>399.5</ele><time>2026-04-12T15:56:38.906Z</time></trkpt><trkpt lat="43.956081" lon="12.436643"><ele>400.75</ele><time>2026-04-12T15:56:39.887Z</time></trkpt><trkpt lat="43.9560893" lon="12.4368323"><ele>402.0</ele><time>2026-04-12T15:56:40.894Z</time></trkpt><trkpt lat="43.9561272" lon="12.4370346"><ele>400.75</ele><time>2026-04-12T15:56:41.899Z</time></trkpt><trkpt lat="43.9561814" lon="12.4372331"><ele>399.5</ele><time>2026-04-12T15:56:42.89Z</time></trkpt><trkpt lat="43.9562381" lon="12.4374218"><ele>398.25</ele><time>2026-04-12T15:56:43.911Z</time></trkpt><trkpt lat="43.9562856" lon="12.4375998"><ele>397.0</ele><time>2026-04-12T15:56:44.889Z</time></trkpt><trkpt lat="43.9563337" lon="12.4377795"><ele>396.0</ele><time>2026-04-12T15:56:45.901Z</time></trkpt><trkpt lat="43.9563772" lon="12.4379694"><ele>395.0</ele><time>2026-04-12T15:56:46.893Z</time></trkpt><trkpt lat="43.9564142" lon="12.4381723"><ele>394.0</ele><time>2026-04-12T15:56:47.895Z</time></trkpt><trkpt lat="43.9564329" lon="12.4383655"><ele>393.0</ele><time>2026-04-12T15:56:48.886Z</time></trkpt><trkpt lat="43.956443" lon="12.438546"><ele>393.0</ele><time>2026-04-12T15:56:49.893Z</time></trkpt><trkpt lat="43.9564463" lon="12.4387116"><ele>393.0</ele><time>2026-04-12T15:56:50.889Z</time></trkpt><trkpt lat="43.9564421" lon="12.4388452"><ele>393.0</ele><time>2026-04-12T15:56:51.885Z</time></trkpt><trkpt lat="43.9564269" lon="12.438958"><ele>393.0</ele><time>2026-04-12T15:56:52.887Z</time></trkpt><trkpt lat="43.9563923" lon="12.4390883"><ele>393.0</ele><time>2026-04-12T15:56:53.901Z</time></trkpt><trkpt lat="43.956353" lon="12.4391817"><ele>387.0</ele><time>2026-04-12T15:56:54.881Z</time></trkpt><trkpt lat="43.9563073" lon="12.439254"><ele>387.0</ele><time>2026-04-12T15:56:56.876Z</time></trkpt><trkpt lat="43.9561801" lon="12.4391748"><ele>387.0</ele><time>2026-04-12T16:24:09.818Z</time></trkpt><trkpt lat="43.9562567" lon="12.439097"><ele>387.0</ele><time>2026-04-12T16:24:11.914Z</time></trkpt><trkpt lat="43.9561911" lon="12.4391992"><ele>387.0</ele><time>2026-04-12T16:24:16.901Z</time></trkpt></trkseg></trk></gpx>